<?xml version="1.0" encoding="UTF-8" standalone="no" ?>
<gpx xmlns="http://www.topografix.com/GPX/1/1" xmlns:xsi="http://www.w3.org/2001/XMLSchema-instance" xsi:schemaLocation="http://www.topografix.com/GPX/1/1 http://www.topografix.com/GPX/1/1/gpx.xsd" version="1.1" creator="VisuGPX - https://www.visugpx.com">
  <metadata>
    <name>GR68 : 01 Florac - Mijavols, cool</name>
    <desc><![CDATA[Une trace en mode cool.]]></desc>
  </metadata>
  <trk>
    <name><![CDATA[GR68 : 01 Florac - Mijavols, cool]]></name>
    <trkseg>
      <trkpt lat="44.3258" lon="3.59047">
        <ele>570.59997558594</ele>
        <time>2022-06-29T07:02:26.000Z</time>
      </trkpt>
      <trkpt lat="44.3258" lon="3.59047">
        <ele>570.59997558594</ele>
        <time>2022-06-29T07:02:27.000Z</time>
      </trkpt>
      <trkpt lat="44.3258" lon="3.5905">
        <ele>571.59997558594</ele>
        <time>2022-06-29T07:02:33.000Z</time>
      </trkpt>
      <trkpt lat="44.3258" lon="3.59051">
        <ele>571.59997558594</ele>
        <time>2022-06-29T07:02:37.000Z</time>
      </trkpt>
      <trkpt lat="44.3258" lon="3.59054">
        <ele>571.59997558594</ele>
        <time>2022-06-29T07:02:43.000Z</time>
      </trkpt>
      <trkpt lat="44.32579" lon="3.59056">
        <ele>571.79998779297</ele>
        <time>2022-06-29T07:02:46.000Z</time>
      </trkpt>
      <trkpt lat="44.32578" lon="3.59058">
        <ele>571.79998779297</ele>
        <time>2022-06-29T07:02:47.000Z</time>
      </trkpt>
      <trkpt lat="44.32576" lon="3.59064">
        <ele>572.40002441406</ele>
        <time>2022-06-29T07:02:53.000Z</time>
      </trkpt>
      <trkpt lat="44.32574" lon="3.59068">
        <ele>572.59997558594</ele>
        <time>2022-06-29T07:02:56.000Z</time>
      </trkpt>
      <trkpt lat="44.32574" lon="3.59069">
        <ele>572.79998779297</ele>
        <time>2022-06-29T07:02:57.000Z</time>
      </trkpt>
      <trkpt lat="44.32573" lon="3.5907">
        <ele>572.79998779297</ele>
        <time>2022-06-29T07:02:58.000Z</time>
      </trkpt>
      <trkpt lat="44.32573" lon="3.5907">
        <ele>573</ele>
        <time>2022-06-29T07:03:00.000Z</time>
      </trkpt>
      <trkpt lat="44.32572" lon="3.5907">
        <ele>573.20001220703</ele>
        <time>2022-06-29T07:03:03.000Z</time>
      </trkpt>
      <trkpt lat="44.32572" lon="3.5907">
        <ele>573.40002441406</ele>
        <time>2022-06-29T07:03:05.000Z</time>
      </trkpt>
      <trkpt lat="44.32572" lon="3.5907">
        <ele>573.40002441406</ele>
        <time>2022-06-29T07:03:08.000Z</time>
      </trkpt>
      <trkpt lat="44.32572" lon="3.5907">
        <ele>573.40002441406</ele>
        <time>2022-06-29T07:03:09.000Z</time>
      </trkpt>
      <trkpt lat="44.32571" lon="3.5907">
        <ele>573.40002441406</ele>
        <time>2022-06-29T07:03:14.000Z</time>
      </trkpt>
      <trkpt lat="44.32572" lon="3.59071">
        <ele>573.40002441406</ele>
        <time>2022-06-29T07:03:17.000Z</time>
      </trkpt>
      <trkpt lat="44.32571" lon="3.59077">
        <ele>573.59997558594</ele>
        <time>2022-06-29T07:03:23.000Z</time>
      </trkpt>
      <trkpt lat="44.32571" lon="3.59082">
        <ele>573.79998779297</ele>
        <time>2022-06-29T07:03:26.000Z</time>
      </trkpt>
      <trkpt lat="44.32572" lon="3.59087">
        <ele>573.79998779297</ele>
        <time>2022-06-29T07:03:30.000Z</time>
      </trkpt>
      <trkpt lat="44.32574" lon="3.59091">
        <ele>573.59997558594</ele>
        <time>2022-06-29T07:03:33.000Z</time>
      </trkpt>
      <trkpt lat="44.32579" lon="3.59098">
        <ele>573.59997558594</ele>
        <time>2022-06-29T07:03:39.000Z</time>
      </trkpt>
      <trkpt lat="44.32582" lon="3.59102">
        <ele>573.59997558594</ele>
        <time>2022-06-29T07:03:42.000Z</time>
      </trkpt>
      <trkpt lat="44.32585" lon="3.59107">
        <ele>573.59997558594</ele>
        <time>2022-06-29T07:03:46.000Z</time>
      </trkpt>
      <trkpt lat="44.32587" lon="3.5911">
        <ele>573.40002441406</ele>
        <time>2022-06-29T07:03:48.000Z</time>
      </trkpt>
      <trkpt lat="44.32587" lon="3.59111">
        <ele>573.40002441406</ele>
        <time>2022-06-29T07:03:49.000Z</time>
      </trkpt>
      <trkpt lat="44.32592" lon="3.59117">
        <ele>573.20001220703</ele>
        <time>2022-06-29T07:03:55.000Z</time>
      </trkpt>
      <trkpt lat="44.32596" lon="3.59123">
        <ele>573.20001220703</ele>
        <time>2022-06-29T07:03:59.000Z</time>
      </trkpt>
      <trkpt lat="44.32598" lon="3.59126">
        <ele>572.79998779297</ele>
        <time>2022-06-29T07:04:02.000Z</time>
      </trkpt>
      <trkpt lat="44.32598" lon="3.59128">
        <ele>572.79998779297</ele>
        <time>2022-06-29T07:04:03.000Z</time>
      </trkpt>
      <trkpt lat="44.32601" lon="3.59137">
        <ele>572.20001220703</ele>
        <time>2022-06-29T07:04:09.000Z</time>
      </trkpt>
      <trkpt lat="44.32602" lon="3.59146">
        <ele>571.79998779297</ele>
        <time>2022-06-29T07:04:15.000Z</time>
      </trkpt>
      <trkpt lat="44.32603" lon="3.59148">
        <ele>571.59997558594</ele>
        <time>2022-06-29T07:04:16.000Z</time>
      </trkpt>
      <trkpt lat="44.32609" lon="3.59152">
        <ele>570.59997558594</ele>
        <time>2022-06-29T07:04:22.000Z</time>
      </trkpt>
      <trkpt lat="44.32611" lon="3.59151">
        <ele>570.20001220703</ele>
        <time>2022-06-29T07:04:24.000Z</time>
      </trkpt>
      <trkpt lat="44.32614" lon="3.59149">
        <ele>569.40002441406</ele>
        <time>2022-06-29T07:04:27.000Z</time>
      </trkpt>
      <trkpt lat="44.32621" lon="3.59144">
        <ele>568.59997558594</ele>
        <time>2022-06-29T07:04:33.000Z</time>
      </trkpt>
      <trkpt lat="44.32622" lon="3.59143">
        <ele>568.40002441406</ele>
        <time>2022-06-29T07:04:34.000Z</time>
      </trkpt>
      <trkpt lat="44.32625" lon="3.59142">
        <ele>568</ele>
        <time>2022-06-29T07:04:36.000Z</time>
      </trkpt>
      <trkpt lat="44.32625" lon="3.59141">
        <ele>567.79998779297</ele>
        <time>2022-06-29T07:04:37.000Z</time>
      </trkpt>
      <trkpt lat="44.32631" lon="3.59137">
        <ele>567.40002441406</ele>
        <time>2022-06-29T07:04:42.000Z</time>
      </trkpt>
      <trkpt lat="44.32637" lon="3.59132">
        <ele>566.59997558594</ele>
        <time>2022-06-29T07:04:48.000Z</time>
      </trkpt>
      <trkpt lat="44.32638" lon="3.59131">
        <ele>566.59997558594</ele>
        <time>2022-06-29T07:04:49.000Z</time>
      </trkpt>
      <trkpt lat="44.3264" lon="3.59129">
        <ele>566.40002441406</ele>
        <time>2022-06-29T07:04:51.000Z</time>
      </trkpt>
      <trkpt lat="44.32645" lon="3.59125">
        <ele>566</ele>
        <time>2022-06-29T07:04:57.000Z</time>
      </trkpt>
      <trkpt lat="44.32645" lon="3.59126">
        <ele>566</ele>
        <time>2022-06-29T07:04:59.000Z</time>
      </trkpt>
      <trkpt lat="44.32645" lon="3.59126">
        <ele>565.79998779297</ele>
        <time>2022-06-29T07:05:01.000Z</time>
      </trkpt>
      <trkpt lat="44.32644" lon="3.59125">
        <ele>565.59997558594</ele>
        <time>2022-06-29T07:05:06.000Z</time>
      </trkpt>
      <trkpt lat="44.32643" lon="3.59124">
        <ele>565.79998779297</ele>
        <time>2022-06-29T07:05:10.000Z</time>
      </trkpt>
      <trkpt lat="44.32644" lon="3.5912">
        <ele>565.59997558594</ele>
        <time>2022-06-29T07:05:16.000Z</time>
      </trkpt>
      <trkpt lat="44.32645" lon="3.59118">
        <ele>565.40002441406</ele>
        <time>2022-06-29T07:05:18.000Z</time>
      </trkpt>
      <trkpt lat="44.32648" lon="3.59114">
        <ele>565.20001220703</ele>
        <time>2022-06-29T07:05:22.000Z</time>
      </trkpt>
      <trkpt lat="44.32656" lon="3.59113">
        <ele>564.59997558594</ele>
        <time>2022-06-29T07:05:28.000Z</time>
      </trkpt>
      <trkpt lat="44.32662" lon="3.59118">
        <ele>564.20001220703</ele>
        <time>2022-06-29T07:05:34.000Z</time>
      </trkpt>
      <trkpt lat="44.32663" lon="3.59119">
        <ele>564.20001220703</ele>
        <time>2022-06-29T07:05:35.000Z</time>
      </trkpt>
      <trkpt lat="44.32664" lon="3.59122">
        <ele>564</ele>
        <time>2022-06-29T07:05:37.000Z</time>
      </trkpt>
      <trkpt lat="44.32667" lon="3.59133">
        <ele>564</ele>
        <time>2022-06-29T07:05:43.000Z</time>
      </trkpt>
      <trkpt lat="44.32669" lon="3.59142">
        <ele>563.20001220703</ele>
        <time>2022-06-29T07:05:49.000Z</time>
      </trkpt>
      <trkpt lat="44.3267" lon="3.59143">
        <ele>563</ele>
        <time>2022-06-29T07:05:50.000Z</time>
      </trkpt>
      <trkpt lat="44.3267" lon="3.59145">
        <ele>563</ele>
        <time>2022-06-29T07:05:51.000Z</time>
      </trkpt>
      <trkpt lat="44.32672" lon="3.59154">
        <ele>562.79998779297</ele>
        <time>2022-06-29T07:05:57.000Z</time>
      </trkpt>
      <trkpt lat="44.32674" lon="3.59163">
        <ele>562.40002441406</ele>
        <time>2022-06-29T07:06:03.000Z</time>
      </trkpt>
      <trkpt lat="44.32675" lon="3.59166">
        <ele>562.20001220703</ele>
        <time>2022-06-29T07:06:05.000Z</time>
      </trkpt>
      <trkpt lat="44.32676" lon="3.59169">
        <ele>562.20001220703</ele>
        <time>2022-06-29T07:06:07.000Z</time>
      </trkpt>
      <trkpt lat="44.32676" lon="3.59171">
        <ele>562</ele>
        <time>2022-06-29T07:06:08.000Z</time>
      </trkpt>
      <trkpt lat="44.32679" lon="3.59178">
        <ele>561.59997558594</ele>
        <time>2022-06-29T07:06:13.000Z</time>
      </trkpt>
      <trkpt lat="44.32682" lon="3.59186">
        <ele>561.40002441406</ele>
        <time>2022-06-29T07:06:19.000Z</time>
      </trkpt>
      <trkpt lat="44.32682" lon="3.59188">
        <ele>561.40002441406</ele>
        <time>2022-06-29T07:06:20.000Z</time>
      </trkpt>
      <trkpt lat="44.32682" lon="3.5919">
        <ele>561.59997558594</ele>
        <time>2022-06-29T07:06:21.000Z</time>
      </trkpt>
      <trkpt lat="44.32683" lon="3.59193">
        <ele>561.59997558594</ele>
        <time>2022-06-29T07:06:23.000Z</time>
      </trkpt>
      <trkpt lat="44.32686" lon="3.59203">
        <ele>561.20001220703</ele>
        <time>2022-06-29T07:06:29.000Z</time>
      </trkpt>
      <trkpt lat="44.32686" lon="3.59204">
        <ele>561.20001220703</ele>
        <time>2022-06-29T07:06:30.000Z</time>
      </trkpt>
      <trkpt lat="44.32687" lon="3.59208">
        <ele>561</ele>
        <time>2022-06-29T07:06:32.000Z</time>
      </trkpt>
      <trkpt lat="44.32688" lon="3.5921">
        <ele>561.20001220703</ele>
        <time>2022-06-29T07:06:34.000Z</time>
      </trkpt>
      <trkpt lat="44.32693" lon="3.59218">
        <ele>561.20001220703</ele>
        <time>2022-06-29T07:06:40.000Z</time>
      </trkpt>
      <trkpt lat="44.32698" lon="3.59223">
        <ele>561</ele>
        <time>2022-06-29T07:06:45.000Z</time>
      </trkpt>
      <trkpt lat="44.32704" lon="3.59226">
        <ele>561</ele>
        <time>2022-06-29T07:06:51.000Z</time>
      </trkpt>
      <trkpt lat="44.3271" lon="3.59227">
        <ele>561</ele>
        <time>2022-06-29T07:06:56.000Z</time>
      </trkpt>
      <trkpt lat="44.32714" lon="3.59225">
        <ele>560.79998779297</ele>
        <time>2022-06-29T07:07:02.000Z</time>
      </trkpt>
      <trkpt lat="44.32719" lon="3.59219">
        <ele>560.79998779297</ele>
        <time>2022-06-29T07:07:08.000Z</time>
      </trkpt>
      <trkpt lat="44.32726" lon="3.59214">
        <ele>560.59997558594</ele>
        <time>2022-06-29T07:07:14.000Z</time>
      </trkpt>
      <trkpt lat="44.32728" lon="3.59211">
        <ele>560.59997558594</ele>
        <time>2022-06-29T07:07:16.000Z</time>
      </trkpt>
      <trkpt lat="44.32735" lon="3.59207">
        <ele>560.79998779297</ele>
        <time>2022-06-29T07:07:22.000Z</time>
      </trkpt>
      <trkpt lat="44.32736" lon="3.59206">
        <ele>560.79998779297</ele>
        <time>2022-06-29T07:07:23.000Z</time>
      </trkpt>
      <trkpt lat="44.32744" lon="3.59201">
        <ele>561</ele>
        <time>2022-06-29T07:07:29.000Z</time>
      </trkpt>
      <trkpt lat="44.32749" lon="3.59196">
        <ele>561</ele>
        <time>2022-06-29T07:07:34.000Z</time>
      </trkpt>
      <trkpt lat="44.3275" lon="3.59194">
        <ele>561</ele>
        <time>2022-06-29T07:07:36.000Z</time>
      </trkpt>
      <trkpt lat="44.32753" lon="3.59191">
        <ele>561</ele>
        <time>2022-06-29T07:07:39.000Z</time>
      </trkpt>
      <trkpt lat="44.32754" lon="3.59189">
        <ele>561</ele>
        <time>2022-06-29T07:07:40.000Z</time>
      </trkpt>
      <trkpt lat="44.32758" lon="3.59185">
        <ele>561.20001220703</ele>
        <time>2022-06-29T07:07:43.000Z</time>
      </trkpt>
      <trkpt lat="44.32763" lon="3.59178">
        <ele>561</ele>
        <time>2022-06-29T07:07:49.000Z</time>
      </trkpt>
      <trkpt lat="44.3277" lon="3.59173">
        <ele>560.79998779297</ele>
        <time>2022-06-29T07:07:55.000Z</time>
      </trkpt>
      <trkpt lat="44.32772" lon="3.59171">
        <ele>560.79998779297</ele>
        <time>2022-06-29T07:07:57.000Z</time>
      </trkpt>
      <trkpt lat="44.32777" lon="3.59169">
        <ele>560.59997558594</ele>
        <time>2022-06-29T07:08:01.000Z</time>
      </trkpt>
      <trkpt lat="44.32779" lon="3.59168">
        <ele>560.40002441406</ele>
        <time>2022-06-29T07:08:03.000Z</time>
      </trkpt>
      <trkpt lat="44.32786" lon="3.59163">
        <ele>560.40002441406</ele>
        <time>2022-06-29T07:08:09.000Z</time>
      </trkpt>
      <trkpt lat="44.32792" lon="3.59157">
        <ele>560.59997558594</ele>
        <time>2022-06-29T07:08:15.000Z</time>
      </trkpt>
      <trkpt lat="44.32799" lon="3.59151">
        <ele>560</ele>
        <time>2022-06-29T07:08:21.000Z</time>
      </trkpt>
      <trkpt lat="44.32804" lon="3.59149">
        <ele>560</ele>
        <time>2022-06-29T07:08:25.000Z</time>
      </trkpt>
      <trkpt lat="44.32807" lon="3.59148">
        <ele>560.20001220703</ele>
        <time>2022-06-29T07:08:28.000Z</time>
      </trkpt>
      <trkpt lat="44.32809" lon="3.59147">
        <ele>560.20001220703</ele>
        <time>2022-06-29T07:08:29.000Z</time>
      </trkpt>
      <trkpt lat="44.32815" lon="3.59143">
        <ele>559.79998779297</ele>
        <time>2022-06-29T07:08:35.000Z</time>
      </trkpt>
      <trkpt lat="44.3282" lon="3.59142">
        <ele>559.79998779297</ele>
        <time>2022-06-29T07:08:39.000Z</time>
      </trkpt>
      <trkpt lat="44.32823" lon="3.5914">
        <ele>559.79998779297</ele>
        <time>2022-06-29T07:08:42.000Z</time>
      </trkpt>
      <trkpt lat="44.32826" lon="3.59137">
        <ele>560</ele>
        <time>2022-06-29T07:08:45.000Z</time>
      </trkpt>
      <trkpt lat="44.32833" lon="3.59134">
        <ele>559.79998779297</ele>
        <time>2022-06-29T07:08:51.000Z</time>
      </trkpt>
      <trkpt lat="44.32837" lon="3.59134">
        <ele>559.59997558594</ele>
        <time>2022-06-29T07:08:54.000Z</time>
      </trkpt>
      <trkpt lat="44.32839" lon="3.59133">
        <ele>559.79998779297</ele>
        <time>2022-06-29T07:08:56.000Z</time>
      </trkpt>
      <trkpt lat="44.32846" lon="3.59132">
        <ele>560</ele>
        <time>2022-06-29T07:09:02.000Z</time>
      </trkpt>
      <trkpt lat="44.32847" lon="3.59133">
        <ele>560</ele>
        <time>2022-06-29T07:09:03.000Z</time>
      </trkpt>
      <trkpt lat="44.32853" lon="3.59134">
        <ele>559.79998779297</ele>
        <time>2022-06-29T07:09:09.000Z</time>
      </trkpt>
      <trkpt lat="44.32859" lon="3.59137">
        <ele>559.59997558594</ele>
        <time>2022-06-29T07:09:15.000Z</time>
      </trkpt>
      <trkpt lat="44.32865" lon="3.59143">
        <ele>559.59997558594</ele>
        <time>2022-06-29T07:09:21.000Z</time>
      </trkpt>
      <trkpt lat="44.32868" lon="3.59144">
        <ele>559.59997558594</ele>
        <time>2022-06-29T07:09:24.000Z</time>
      </trkpt>
      <trkpt lat="44.32874" lon="3.59144">
        <ele>559.79998779297</ele>
        <time>2022-06-29T07:09:29.000Z</time>
      </trkpt>
      <trkpt lat="44.32879" lon="3.59146">
        <ele>559.79998779297</ele>
        <time>2022-06-29T07:09:34.000Z</time>
      </trkpt>
      <trkpt lat="44.32884" lon="3.5915">
        <ele>559.59997558594</ele>
        <time>2022-06-29T07:09:39.000Z</time>
      </trkpt>
      <trkpt lat="44.32891" lon="3.59153">
        <ele>559.59997558594</ele>
        <time>2022-06-29T07:09:45.000Z</time>
      </trkpt>
      <trkpt lat="44.32896" lon="3.59155">
        <ele>559.40002441406</ele>
        <time>2022-06-29T07:09:49.000Z</time>
      </trkpt>
      <trkpt lat="44.32897" lon="3.59155">
        <ele>559.40002441406</ele>
        <time>2022-06-29T07:09:50.000Z</time>
      </trkpt>
      <trkpt lat="44.32899" lon="3.59155">
        <ele>559.59997558594</ele>
        <time>2022-06-29T07:09:53.000Z</time>
      </trkpt>
      <trkpt lat="44.32906" lon="3.59155">
        <ele>559.20001220703</ele>
        <time>2022-06-29T07:09:59.000Z</time>
      </trkpt>
      <trkpt lat="44.32911" lon="3.59152">
        <ele>559</ele>
        <time>2022-06-29T07:10:03.000Z</time>
      </trkpt>
      <trkpt lat="44.32912" lon="3.59152">
        <ele>559</ele>
        <time>2022-06-29T07:10:04.000Z</time>
      </trkpt>
      <trkpt lat="44.32914" lon="3.59151">
        <ele>558.79998779297</ele>
        <time>2022-06-29T07:10:05.000Z</time>
      </trkpt>
      <trkpt lat="44.32915" lon="3.5915">
        <ele>558.79998779297</ele>
        <time>2022-06-29T07:10:06.000Z</time>
      </trkpt>
      <trkpt lat="44.32917" lon="3.59148">
        <ele>558.79998779297</ele>
        <time>2022-06-29T07:10:08.000Z</time>
      </trkpt>
      <trkpt lat="44.32924" lon="3.59142">
        <ele>558.59997558594</ele>
        <time>2022-06-29T07:10:14.000Z</time>
      </trkpt>
      <trkpt lat="44.32927" lon="3.5914">
        <ele>558.59997558594</ele>
        <time>2022-06-29T07:10:17.000Z</time>
      </trkpt>
      <trkpt lat="44.32934" lon="3.59137">
        <ele>558.40002441406</ele>
        <time>2022-06-29T07:10:23.000Z</time>
      </trkpt>
      <trkpt lat="44.32939" lon="3.59133">
        <ele>558.40002441406</ele>
        <time>2022-06-29T07:10:28.000Z</time>
      </trkpt>
      <trkpt lat="44.32943" lon="3.59131">
        <ele>558.40002441406</ele>
        <time>2022-06-29T07:10:31.000Z</time>
      </trkpt>
      <trkpt lat="44.32949" lon="3.59126">
        <ele>558.40002441406</ele>
        <time>2022-06-29T07:10:37.000Z</time>
      </trkpt>
      <trkpt lat="44.32956" lon="3.59121">
        <ele>558.20001220703</ele>
        <time>2022-06-29T07:10:43.000Z</time>
      </trkpt>
      <trkpt lat="44.3296" lon="3.59118">
        <ele>558</ele>
        <time>2022-06-29T07:10:47.000Z</time>
      </trkpt>
      <trkpt lat="44.32963" lon="3.59117">
        <ele>558</ele>
        <time>2022-06-29T07:10:49.000Z</time>
      </trkpt>
      <trkpt lat="44.3297" lon="3.59113">
        <ele>557.59997558594</ele>
        <time>2022-06-29T07:10:55.000Z</time>
      </trkpt>
      <trkpt lat="44.32976" lon="3.59108">
        <ele>558</ele>
        <time>2022-06-29T07:11:01.000Z</time>
      </trkpt>
      <trkpt lat="44.32978" lon="3.59106">
        <ele>557.79998779297</ele>
        <time>2022-06-29T07:11:03.000Z</time>
      </trkpt>
      <trkpt lat="44.32985" lon="3.591">
        <ele>557.79998779297</ele>
        <time>2022-06-29T07:11:09.000Z</time>
      </trkpt>
      <trkpt lat="44.32988" lon="3.59097">
        <ele>557.59997558594</ele>
        <time>2022-06-29T07:11:12.000Z</time>
      </trkpt>
      <trkpt lat="44.32989" lon="3.59096">
        <ele>557.40002441406</ele>
        <time>2022-06-29T07:11:13.000Z</time>
      </trkpt>
      <trkpt lat="44.32993" lon="3.59094">
        <ele>557.40002441406</ele>
        <time>2022-06-29T07:11:16.000Z</time>
      </trkpt>
      <trkpt lat="44.32995" lon="3.59092">
        <ele>557.40002441406</ele>
        <time>2022-06-29T07:11:18.000Z</time>
      </trkpt>
      <trkpt lat="44.32996" lon="3.59091">
        <ele>557.40002441406</ele>
        <time>2022-06-29T07:11:19.000Z</time>
      </trkpt>
      <trkpt lat="44.33" lon="3.59089">
        <ele>557.59997558594</ele>
        <time>2022-06-29T07:11:22.000Z</time>
      </trkpt>
      <trkpt lat="44.33003" lon="3.59086">
        <ele>557.79998779297</ele>
        <time>2022-06-29T07:11:25.000Z</time>
      </trkpt>
      <trkpt lat="44.3301" lon="3.59081">
        <ele>557.59997558594</ele>
        <time>2022-06-29T07:11:31.000Z</time>
      </trkpt>
      <trkpt lat="44.33014" lon="3.5908">
        <ele>557.40002441406</ele>
        <time>2022-06-29T07:11:34.000Z</time>
      </trkpt>
      <trkpt lat="44.33016" lon="3.59078">
        <ele>557.40002441406</ele>
        <time>2022-06-29T07:11:36.000Z</time>
      </trkpt>
      <trkpt lat="44.33019" lon="3.59075">
        <ele>557.40002441406</ele>
        <time>2022-06-29T07:11:39.000Z</time>
      </trkpt>
      <trkpt lat="44.33021" lon="3.59073">
        <ele>557.40002441406</ele>
        <time>2022-06-29T07:11:41.000Z</time>
      </trkpt>
      <trkpt lat="44.33025" lon="3.59067">
        <ele>557.59997558594</ele>
        <time>2022-06-29T07:11:47.000Z</time>
      </trkpt>
      <trkpt lat="44.33026" lon="3.59066">
        <ele>557.59997558594</ele>
        <time>2022-06-29T07:11:48.000Z</time>
      </trkpt>
      <trkpt lat="44.33031" lon="3.59061">
        <ele>557.59997558594</ele>
        <time>2022-06-29T07:11:54.000Z</time>
      </trkpt>
      <trkpt lat="44.33033" lon="3.59059">
        <ele>557.59997558594</ele>
        <time>2022-06-29T07:11:56.000Z</time>
      </trkpt>
      <trkpt lat="44.33039" lon="3.59054">
        <ele>558</ele>
        <time>2022-06-29T07:12:02.000Z</time>
      </trkpt>
      <trkpt lat="44.33039" lon="3.59054">
        <ele>558</ele>
        <time>2022-06-29T07:12:03.000Z</time>
      </trkpt>
      <trkpt lat="44.33042" lon="3.59053">
        <ele>558.20001220703</ele>
        <time>2022-06-29T07:12:06.000Z</time>
      </trkpt>
      <trkpt lat="44.33043" lon="3.59052">
        <ele>558.20001220703</ele>
        <time>2022-06-29T07:12:07.000Z</time>
      </trkpt>
      <trkpt lat="44.33045" lon="3.5905">
        <ele>558.40002441406</ele>
        <time>2022-06-29T07:12:11.000Z</time>
      </trkpt>
      <trkpt lat="44.33046" lon="3.5905">
        <ele>558.40002441406</ele>
        <time>2022-06-29T07:12:12.000Z</time>
      </trkpt>
      <trkpt lat="44.33049" lon="3.59049">
        <ele>558.40002441406</ele>
        <time>2022-06-29T07:12:14.000Z</time>
      </trkpt>
      <trkpt lat="44.33051" lon="3.59049">
        <ele>558.40002441406</ele>
        <time>2022-06-29T07:12:16.000Z</time>
      </trkpt>
      <trkpt lat="44.33052" lon="3.59049">
        <ele>558.40002441406</ele>
        <time>2022-06-29T07:12:17.000Z</time>
      </trkpt>
      <trkpt lat="44.33053" lon="3.59049">
        <ele>558.40002441406</ele>
        <time>2022-06-29T07:12:18.000Z</time>
      </trkpt>
      <trkpt lat="44.33055" lon="3.59049">
        <ele>558.40002441406</ele>
        <time>2022-06-29T07:12:19.000Z</time>
      </trkpt>
      <trkpt lat="44.33063" lon="3.59047">
        <ele>558.59997558594</ele>
        <time>2022-06-29T07:12:25.000Z</time>
      </trkpt>
      <trkpt lat="44.3307" lon="3.59047">
        <ele>558.79998779297</ele>
        <time>2022-06-29T07:12:31.000Z</time>
      </trkpt>
      <trkpt lat="44.33072" lon="3.59046">
        <ele>559</ele>
        <time>2022-06-29T07:12:33.000Z</time>
      </trkpt>
      <trkpt lat="44.33074" lon="3.59045">
        <ele>559</ele>
        <time>2022-06-29T07:12:34.000Z</time>
      </trkpt>
      <trkpt lat="44.33082" lon="3.59044">
        <ele>559.20001220703</ele>
        <time>2022-06-29T07:12:40.000Z</time>
      </trkpt>
      <trkpt lat="44.33085" lon="3.59043">
        <ele>559.20001220703</ele>
        <time>2022-06-29T07:12:43.000Z</time>
      </trkpt>
      <trkpt lat="44.33091" lon="3.59046">
        <ele>559.40002441406</ele>
        <time>2022-06-29T07:12:48.000Z</time>
      </trkpt>
      <trkpt lat="44.33094" lon="3.59047">
        <ele>559.59997558594</ele>
        <time>2022-06-29T07:12:51.000Z</time>
      </trkpt>
      <trkpt lat="44.33098" lon="3.5905">
        <ele>560.20001220703</ele>
        <time>2022-06-29T07:12:55.000Z</time>
      </trkpt>
      <trkpt lat="44.33101" lon="3.59051">
        <ele>560.20001220703</ele>
        <time>2022-06-29T07:12:58.000Z</time>
      </trkpt>
      <trkpt lat="44.33104" lon="3.59054">
        <ele>560.40002441406</ele>
        <time>2022-06-29T07:13:02.000Z</time>
      </trkpt>
      <trkpt lat="44.33107" lon="3.59056">
        <ele>560.79998779297</ele>
        <time>2022-06-29T07:13:05.000Z</time>
      </trkpt>
      <trkpt lat="44.33109" lon="3.59057">
        <ele>561</ele>
        <time>2022-06-29T07:13:07.000Z</time>
      </trkpt>
      <trkpt lat="44.33111" lon="3.5906">
        <ele>561.20001220703</ele>
        <time>2022-06-29T07:13:10.000Z</time>
      </trkpt>
      <trkpt lat="44.33115" lon="3.59065">
        <ele>561.20001220703</ele>
        <time>2022-06-29T07:13:15.000Z</time>
      </trkpt>
      <trkpt lat="44.3312" lon="3.59072">
        <ele>561.40002441406</ele>
        <time>2022-06-29T07:13:21.000Z</time>
      </trkpt>
      <trkpt lat="44.33126" lon="3.59078">
        <ele>561.59997558594</ele>
        <time>2022-06-29T07:13:27.000Z</time>
      </trkpt>
      <trkpt lat="44.33128" lon="3.5908">
        <ele>561.59997558594</ele>
        <time>2022-06-29T07:13:29.000Z</time>
      </trkpt>
      <trkpt lat="44.33132" lon="3.59085">
        <ele>561.79998779297</ele>
        <time>2022-06-29T07:13:33.000Z</time>
      </trkpt>
      <trkpt lat="44.33132" lon="3.59086">
        <ele>561.79998779297</ele>
        <time>2022-06-29T07:13:34.000Z</time>
      </trkpt>
      <trkpt lat="44.33137" lon="3.59092">
        <ele>561.59997558594</ele>
        <time>2022-06-29T07:13:40.000Z</time>
      </trkpt>
      <trkpt lat="44.3314" lon="3.59095">
        <ele>561.59997558594</ele>
        <time>2022-06-29T07:13:43.000Z</time>
      </trkpt>
      <trkpt lat="44.33146" lon="3.59102">
        <ele>561.40002441406</ele>
        <time>2022-06-29T07:13:49.000Z</time>
      </trkpt>
      <trkpt lat="44.33149" lon="3.59104">
        <ele>561.40002441406</ele>
        <time>2022-06-29T07:13:52.000Z</time>
      </trkpt>
      <trkpt lat="44.33152" lon="3.59107">
        <ele>561.59997558594</ele>
        <time>2022-06-29T07:13:55.000Z</time>
      </trkpt>
      <trkpt lat="44.33157" lon="3.59114">
        <ele>561.40002441406</ele>
        <time>2022-06-29T07:14:01.000Z</time>
      </trkpt>
      <trkpt lat="44.3316" lon="3.59123">
        <ele>561.59997558594</ele>
        <time>2022-06-29T07:14:07.000Z</time>
      </trkpt>
      <trkpt lat="44.33161" lon="3.59124">
        <ele>561.59997558594</ele>
        <time>2022-06-29T07:14:08.000Z</time>
      </trkpt>
      <trkpt lat="44.33166" lon="3.59128">
        <ele>561.59997558594</ele>
        <time>2022-06-29T07:14:14.000Z</time>
      </trkpt>
      <trkpt lat="44.33169" lon="3.59126">
        <ele>562.20001220703</ele>
        <time>2022-06-29T07:14:17.000Z</time>
      </trkpt>
      <trkpt lat="44.3317" lon="3.59126">
        <ele>562.20001220703</ele>
        <time>2022-06-29T07:14:18.000Z</time>
      </trkpt>
      <trkpt lat="44.3317" lon="3.59124">
        <ele>562.79998779297</ele>
        <time>2022-06-29T07:14:23.000Z</time>
      </trkpt>
      <trkpt lat="44.3317" lon="3.59124">
        <ele>563</ele>
        <time>2022-06-29T07:14:26.000Z</time>
      </trkpt>
      <trkpt lat="44.3317" lon="3.59125">
        <ele>563</ele>
        <time>2022-06-29T07:14:31.000Z</time>
      </trkpt>
      <trkpt lat="44.33167" lon="3.59123">
        <ele>563</ele>
        <time>2022-06-29T07:14:37.000Z</time>
      </trkpt>
      <trkpt lat="44.33166" lon="3.59123">
        <ele>563</ele>
        <time>2022-06-29T07:14:39.000Z</time>
      </trkpt>
      <trkpt lat="44.33166" lon="3.59123">
        <ele>563</ele>
        <time>2022-06-29T07:14:40.000Z</time>
      </trkpt>
      <trkpt lat="44.33166" lon="3.59123">
        <ele>563</ele>
        <time>2022-06-29T07:14:42.000Z</time>
      </trkpt>
      <trkpt lat="44.33166" lon="3.59122">
        <ele>563</ele>
        <time>2022-06-29T07:14:45.000Z</time>
      </trkpt>
      <trkpt lat="44.33163" lon="3.59121">
        <ele>563</ele>
        <time>2022-06-29T07:14:51.000Z</time>
      </trkpt>
      <trkpt lat="44.33162" lon="3.59118">
        <ele>563</ele>
        <time>2022-06-29T07:14:57.000Z</time>
      </trkpt>
      <trkpt lat="44.33161" lon="3.59118">
        <ele>563</ele>
        <time>2022-06-29T07:14:58.000Z</time>
      </trkpt>
      <trkpt lat="44.33161" lon="3.59118">
        <ele>563</ele>
        <time>2022-06-29T07:15:04.000Z</time>
      </trkpt>
      <trkpt lat="44.33159" lon="3.59115">
        <ele>563</ele>
        <time>2022-06-29T07:15:10.000Z</time>
      </trkpt>
      <trkpt lat="44.33159" lon="3.59115">
        <ele>563</ele>
        <time>2022-06-29T07:15:12.000Z</time>
      </trkpt>
      <trkpt lat="44.3316" lon="3.59115">
        <ele>563</ele>
        <time>2022-06-29T07:15:13.000Z</time>
      </trkpt>
      <trkpt lat="44.3316" lon="3.59115">
        <ele>563</ele>
        <time>2022-06-29T07:15:19.000Z</time>
      </trkpt>
      <trkpt lat="44.33159" lon="3.59115">
        <ele>563</ele>
        <time>2022-06-29T07:15:25.000Z</time>
      </trkpt>
      <trkpt lat="44.33158" lon="3.59114">
        <ele>563</ele>
        <time>2022-06-29T07:15:28.000Z</time>
      </trkpt>
      <trkpt lat="44.33158" lon="3.59114">
        <ele>563</ele>
        <time>2022-06-29T07:15:32.000Z</time>
      </trkpt>
      <trkpt lat="44.33158" lon="3.59114">
        <ele>563</ele>
        <time>2022-06-29T07:15:33.000Z</time>
      </trkpt>
      <trkpt lat="44.33158" lon="3.59115">
        <ele>563</ele>
        <time>2022-06-29T07:15:38.000Z</time>
      </trkpt>
      <trkpt lat="44.33158" lon="3.59115">
        <ele>563</ele>
        <time>2022-06-29T07:15:41.000Z</time>
      </trkpt>
      <trkpt lat="44.3316" lon="3.59117">
        <ele>563</ele>
        <time>2022-06-29T07:15:47.000Z</time>
      </trkpt>
      <trkpt lat="44.3316" lon="3.59118">
        <ele>563</ele>
        <time>2022-06-29T07:15:53.000Z</time>
      </trkpt>
      <trkpt lat="44.3316" lon="3.5912">
        <ele>563</ele>
        <time>2022-06-29T07:15:59.000Z</time>
      </trkpt>
      <trkpt lat="44.3316" lon="3.59121">
        <ele>563</ele>
        <time>2022-06-29T07:16:00.000Z</time>
      </trkpt>
      <trkpt lat="44.3316" lon="3.59123">
        <ele>563</ele>
        <time>2022-06-29T07:16:04.000Z</time>
      </trkpt>
      <trkpt lat="44.3316" lon="3.59122">
        <ele>563</ele>
        <time>2022-06-29T07:16:06.000Z</time>
      </trkpt>
      <trkpt lat="44.3316" lon="3.59121">
        <ele>563</ele>
        <time>2022-06-29T07:16:09.000Z</time>
      </trkpt>
      <trkpt lat="44.33161" lon="3.59119">
        <ele>563</ele>
        <time>2022-06-29T07:16:13.000Z</time>
      </trkpt>
      <trkpt lat="44.33161" lon="3.59119">
        <ele>563</ele>
        <time>2022-06-29T07:16:15.000Z</time>
      </trkpt>
      <trkpt lat="44.3316" lon="3.59118">
        <ele>563</ele>
        <time>2022-06-29T07:16:21.000Z</time>
      </trkpt>
      <trkpt lat="44.3316" lon="3.59117">
        <ele>563</ele>
        <time>2022-06-29T07:16:26.000Z</time>
      </trkpt>
      <trkpt lat="44.3316" lon="3.59117">
        <ele>563</ele>
        <time>2022-06-29T07:16:32.000Z</time>
      </trkpt>
      <trkpt lat="44.3316" lon="3.59116">
        <ele>563</ele>
        <time>2022-06-29T07:16:34.000Z</time>
      </trkpt>
      <trkpt lat="44.33159" lon="3.59115">
        <ele>563</ele>
        <time>2022-06-29T07:16:40.000Z</time>
      </trkpt>
      <trkpt lat="44.33159" lon="3.59117">
        <ele>563</ele>
        <time>2022-06-29T07:16:45.000Z</time>
      </trkpt>
      <trkpt lat="44.33159" lon="3.59117">
        <ele>563</ele>
        <time>2022-06-29T07:16:46.000Z</time>
      </trkpt>
      <trkpt lat="44.3316" lon="3.59117">
        <ele>563</ele>
        <time>2022-06-29T07:16:52.000Z</time>
      </trkpt>
      <trkpt lat="44.33161" lon="3.59117">
        <ele>563</ele>
        <time>2022-06-29T07:16:58.000Z</time>
      </trkpt>
      <trkpt lat="44.33161" lon="3.59116">
        <ele>563</ele>
        <time>2022-06-29T07:17:04.000Z</time>
      </trkpt>
      <trkpt lat="44.33161" lon="3.59116">
        <ele>563</ele>
        <time>2022-06-29T07:17:10.000Z</time>
      </trkpt>
      <trkpt lat="44.33161" lon="3.59117">
        <ele>563</ele>
        <time>2022-06-29T07:17:16.000Z</time>
      </trkpt>
      <trkpt lat="44.33161" lon="3.59117">
        <ele>563</ele>
        <time>2022-06-29T07:17:18.000Z</time>
      </trkpt>
      <trkpt lat="44.33161" lon="3.59116">
        <ele>563</ele>
        <time>2022-06-29T07:17:20.000Z</time>
      </trkpt>
      <trkpt lat="44.33161" lon="3.59116">
        <ele>563</ele>
        <time>2022-06-29T07:17:21.000Z</time>
      </trkpt>
      <trkpt lat="44.33159" lon="3.59115">
        <ele>563</ele>
        <time>2022-06-29T07:17:27.000Z</time>
      </trkpt>
      <trkpt lat="44.33157" lon="3.59111">
        <ele>563</ele>
        <time>2022-06-29T07:17:32.000Z</time>
      </trkpt>
      <trkpt lat="44.33157" lon="3.59111">
        <ele>563</ele>
        <time>2022-06-29T07:17:37.000Z</time>
      </trkpt>
      <trkpt lat="44.33158" lon="3.59112">
        <ele>563</ele>
        <time>2022-06-29T07:17:39.000Z</time>
      </trkpt>
      <trkpt lat="44.33159" lon="3.59112">
        <ele>563</ele>
        <time>2022-06-29T07:17:45.000Z</time>
      </trkpt>
      <trkpt lat="44.33157" lon="3.59107">
        <ele>563</ele>
        <time>2022-06-29T07:17:51.000Z</time>
      </trkpt>
      <trkpt lat="44.33156" lon="3.59106">
        <ele>563</ele>
        <time>2022-06-29T07:17:57.000Z</time>
      </trkpt>
      <trkpt lat="44.33155" lon="3.59109">
        <ele>563</ele>
        <time>2022-06-29T07:18:03.000Z</time>
      </trkpt>
      <trkpt lat="44.33154" lon="3.59109">
        <ele>563</ele>
        <time>2022-06-29T07:18:07.000Z</time>
      </trkpt>
      <trkpt lat="44.33153" lon="3.59107">
        <ele>563</ele>
        <time>2022-06-29T07:18:12.000Z</time>
      </trkpt>
      <trkpt lat="44.33153" lon="3.59106">
        <ele>563</ele>
        <time>2022-06-29T07:18:13.000Z</time>
      </trkpt>
      <trkpt lat="44.33154" lon="3.59106">
        <ele>563</ele>
        <time>2022-06-29T07:18:18.000Z</time>
      </trkpt>
      <trkpt lat="44.33154" lon="3.59106">
        <ele>563</ele>
        <time>2022-06-29T07:18:21.000Z</time>
      </trkpt>
      <trkpt lat="44.33154" lon="3.59106">
        <ele>563</ele>
        <time>2022-06-29T07:18:22.000Z</time>
      </trkpt>
      <trkpt lat="44.33155" lon="3.59107">
        <ele>563</ele>
        <time>2022-06-29T07:18:28.000Z</time>
      </trkpt>
      <trkpt lat="44.33155" lon="3.59107">
        <ele>563</ele>
        <time>2022-06-29T07:18:34.000Z</time>
      </trkpt>
      <trkpt lat="44.33155" lon="3.59106">
        <ele>563</ele>
        <time>2022-06-29T07:18:37.000Z</time>
      </trkpt>
      <trkpt lat="44.33154" lon="3.59106">
        <ele>563</ele>
        <time>2022-06-29T07:18:43.000Z</time>
      </trkpt>
      <trkpt lat="44.33154" lon="3.59106">
        <ele>563</ele>
        <time>2022-06-29T07:18:49.000Z</time>
      </trkpt>
      <trkpt lat="44.33155" lon="3.59106">
        <ele>563</ele>
        <time>2022-06-29T07:18:54.000Z</time>
      </trkpt>
      <trkpt lat="44.33158" lon="3.59103">
        <ele>563</ele>
        <time>2022-06-29T07:19:00.000Z</time>
      </trkpt>
      <trkpt lat="44.33161" lon="3.59101">
        <ele>563</ele>
        <time>2022-06-29T07:19:04.000Z</time>
      </trkpt>
      <trkpt lat="44.33161" lon="3.591">
        <ele>563</ele>
        <time>2022-06-29T07:19:05.000Z</time>
      </trkpt>
      <trkpt lat="44.33166" lon="3.59097">
        <ele>563.40002441406</ele>
        <time>2022-06-29T07:19:11.000Z</time>
      </trkpt>
      <trkpt lat="44.33166" lon="3.59099">
        <ele>563.59997558594</ele>
        <time>2022-06-29T07:19:12.000Z</time>
      </trkpt>
      <trkpt lat="44.33166" lon="3.59101">
        <ele>563.79998779297</ele>
        <time>2022-06-29T07:19:14.000Z</time>
      </trkpt>
      <trkpt lat="44.33164" lon="3.59103">
        <ele>563.79998779297</ele>
        <time>2022-06-29T07:19:16.000Z</time>
      </trkpt>
      <trkpt lat="44.33163" lon="3.59104">
        <ele>563.59997558594</ele>
        <time>2022-06-29T07:19:18.000Z</time>
      </trkpt>
      <trkpt lat="44.33162" lon="3.59105">
        <ele>563.40002441406</ele>
        <time>2022-06-29T07:19:19.000Z</time>
      </trkpt>
      <trkpt lat="44.33162" lon="3.59107">
        <ele>563.20001220703</ele>
        <time>2022-06-29T07:19:20.000Z</time>
      </trkpt>
      <trkpt lat="44.33161" lon="3.59108">
        <ele>563</ele>
        <time>2022-06-29T07:19:21.000Z</time>
      </trkpt>
      <trkpt lat="44.3316" lon="3.59109">
        <ele>562.79998779297</ele>
        <time>2022-06-29T07:19:22.000Z</time>
      </trkpt>
      <trkpt lat="44.33159" lon="3.5911">
        <ele>562.59997558594</ele>
        <time>2022-06-29T07:19:23.000Z</time>
      </trkpt>
      <trkpt lat="44.33158" lon="3.59111">
        <ele>562.40002441406</ele>
        <time>2022-06-29T07:19:24.000Z</time>
      </trkpt>
      <trkpt lat="44.33157" lon="3.59111">
        <ele>562.40002441406</ele>
        <time>2022-06-29T07:19:25.000Z</time>
      </trkpt>
      <trkpt lat="44.33157" lon="3.59112">
        <ele>562.20001220703</ele>
        <time>2022-06-29T07:19:26.000Z</time>
      </trkpt>
      <trkpt lat="44.33157" lon="3.59112">
        <ele>562.20001220703</ele>
        <time>2022-06-29T07:19:27.000Z</time>
      </trkpt>
      <trkpt lat="44.33157" lon="3.59112">
        <ele>562.20001220703</ele>
        <time>2022-06-29T07:19:28.000Z</time>
      </trkpt>
      <trkpt lat="44.33157" lon="3.59111">
        <ele>562.20001220703</ele>
        <time>2022-06-29T07:19:30.000Z</time>
      </trkpt>
      <trkpt lat="44.33156" lon="3.5911">
        <ele>562.20001220703</ele>
        <time>2022-06-29T07:19:32.000Z</time>
      </trkpt>
      <trkpt lat="44.33156" lon="3.5911">
        <ele>562.20001220703</ele>
        <time>2022-06-29T07:19:33.000Z</time>
      </trkpt>
      <trkpt lat="44.33157" lon="3.5911">
        <ele>562.20001220703</ele>
        <time>2022-06-29T07:19:34.000Z</time>
      </trkpt>
      <trkpt lat="44.33157" lon="3.59109">
        <ele>562.20001220703</ele>
        <time>2022-06-29T07:19:36.000Z</time>
      </trkpt>
      <trkpt lat="44.33158" lon="3.59112">
        <ele>562</ele>
        <time>2022-06-29T07:19:42.000Z</time>
      </trkpt>
      <trkpt lat="44.33158" lon="3.59114">
        <ele>562</ele>
        <time>2022-06-29T07:19:46.000Z</time>
      </trkpt>
      <trkpt lat="44.33159" lon="3.59117">
        <ele>562</ele>
        <time>2022-06-29T07:19:52.000Z</time>
      </trkpt>
      <trkpt lat="44.33158" lon="3.59117">
        <ele>561.79998779297</ele>
        <time>2022-06-29T07:19:56.000Z</time>
      </trkpt>
      <trkpt lat="44.33159" lon="3.59117">
        <ele>561.59997558594</ele>
        <time>2022-06-29T07:20:00.000Z</time>
      </trkpt>
      <trkpt lat="44.3316" lon="3.59118">
        <ele>561.59997558594</ele>
        <time>2022-06-29T07:20:02.000Z</time>
      </trkpt>
      <trkpt lat="44.3316" lon="3.59119">
        <ele>561.59997558594</ele>
        <time>2022-06-29T07:20:08.000Z</time>
      </trkpt>
      <trkpt lat="44.3316" lon="3.59118">
        <ele>561.40002441406</ele>
        <time>2022-06-29T07:20:14.000Z</time>
      </trkpt>
      <trkpt lat="44.3316" lon="3.59116">
        <ele>561.40002441406</ele>
        <time>2022-06-29T07:20:19.000Z</time>
      </trkpt>
      <trkpt lat="44.3316" lon="3.59116">
        <ele>561.40002441406</ele>
        <time>2022-06-29T07:20:22.000Z</time>
      </trkpt>
      <trkpt lat="44.3316" lon="3.59114">
        <ele>561.59997558594</ele>
        <time>2022-06-29T07:20:28.000Z</time>
      </trkpt>
      <trkpt lat="44.3316" lon="3.59114">
        <ele>561.59997558594</ele>
        <time>2022-06-29T07:20:33.000Z</time>
      </trkpt>
      <trkpt lat="44.3316" lon="3.59114">
        <ele>561.40002441406</ele>
        <time>2022-06-29T07:20:35.000Z</time>
      </trkpt>
      <trkpt lat="44.33161" lon="3.59115">
        <ele>561.20001220703</ele>
        <time>2022-06-29T07:20:36.000Z</time>
      </trkpt>
      <trkpt lat="44.33161" lon="3.59114">
        <ele>561</ele>
        <time>2022-06-29T07:20:41.000Z</time>
      </trkpt>
      <trkpt lat="44.33163" lon="3.59113">
        <ele>561.40002441406</ele>
        <time>2022-06-29T07:20:47.000Z</time>
      </trkpt>
      <trkpt lat="44.33163" lon="3.59112">
        <ele>561.40002441406</ele>
        <time>2022-06-29T07:20:48.000Z</time>
      </trkpt>
      <trkpt lat="44.33164" lon="3.59112">
        <ele>561.59997558594</ele>
        <time>2022-06-29T07:20:50.000Z</time>
      </trkpt>
      <trkpt lat="44.33167" lon="3.59108">
        <ele>562.40002441406</ele>
        <time>2022-06-29T07:20:56.000Z</time>
      </trkpt>
      <trkpt lat="44.33169" lon="3.59105">
        <ele>563</ele>
        <time>2022-06-29T07:20:59.000Z</time>
      </trkpt>
      <trkpt lat="44.3317" lon="3.59104">
        <ele>563.40002441406</ele>
        <time>2022-06-29T07:21:01.000Z</time>
      </trkpt>
      <trkpt lat="44.33172" lon="3.59096">
        <ele>563.79998779297</ele>
        <time>2022-06-29T07:21:07.000Z</time>
      </trkpt>
      <trkpt lat="44.33174" lon="3.59092">
        <ele>564.40002441406</ele>
        <time>2022-06-29T07:21:11.000Z</time>
      </trkpt>
      <trkpt lat="44.33175" lon="3.59089">
        <ele>564.79998779297</ele>
        <time>2022-06-29T07:21:14.000Z</time>
      </trkpt>
      <trkpt lat="44.33175" lon="3.59085">
        <ele>565.20001220703</ele>
        <time>2022-06-29T07:21:17.000Z</time>
      </trkpt>
      <trkpt lat="44.33176" lon="3.59082">
        <ele>565.40002441406</ele>
        <time>2022-06-29T07:21:19.000Z</time>
      </trkpt>
      <trkpt lat="44.33179" lon="3.5908">
        <ele>566.20001220703</ele>
        <time>2022-06-29T07:21:24.000Z</time>
      </trkpt>
      <trkpt lat="44.33179" lon="3.59079">
        <ele>566.40002441406</ele>
        <time>2022-06-29T07:21:25.000Z</time>
      </trkpt>
      <trkpt lat="44.33179" lon="3.59077">
        <ele>566.59997558594</ele>
        <time>2022-06-29T07:21:27.000Z</time>
      </trkpt>
      <trkpt lat="44.3318" lon="3.59077">
        <ele>566.59997558594</ele>
        <time>2022-06-29T07:21:29.000Z</time>
      </trkpt>
      <trkpt lat="44.33181" lon="3.59076">
        <ele>566.59997558594</ele>
        <time>2022-06-29T07:21:30.000Z</time>
      </trkpt>
      <trkpt lat="44.33181" lon="3.59075">
        <ele>566.79998779297</ele>
        <time>2022-06-29T07:21:32.000Z</time>
      </trkpt>
      <trkpt lat="44.33183" lon="3.59076">
        <ele>567.20001220703</ele>
        <time>2022-06-29T07:21:34.000Z</time>
      </trkpt>
      <trkpt lat="44.33185" lon="3.59077">
        <ele>567.59997558594</ele>
        <time>2022-06-29T07:21:36.000Z</time>
      </trkpt>
      <trkpt lat="44.33185" lon="3.59077">
        <ele>568</ele>
        <time>2022-06-29T07:21:38.000Z</time>
      </trkpt>
      <trkpt lat="44.33186" lon="3.59076">
        <ele>568.40002441406</ele>
        <time>2022-06-29T07:21:40.000Z</time>
      </trkpt>
      <trkpt lat="44.33188" lon="3.59076">
        <ele>568.59997558594</ele>
        <time>2022-06-29T07:21:41.000Z</time>
      </trkpt>
      <trkpt lat="44.33189" lon="3.59075">
        <ele>568.79998779297</ele>
        <time>2022-06-29T07:21:43.000Z</time>
      </trkpt>
      <trkpt lat="44.3319" lon="3.59075">
        <ele>568.79998779297</ele>
        <time>2022-06-29T07:21:44.000Z</time>
      </trkpt>
      <trkpt lat="44.33193" lon="3.59074">
        <ele>569.40002441406</ele>
        <time>2022-06-29T07:21:50.000Z</time>
      </trkpt>
      <trkpt lat="44.33193" lon="3.59073">
        <ele>569.40002441406</ele>
        <time>2022-06-29T07:21:51.000Z</time>
      </trkpt>
      <trkpt lat="44.33194" lon="3.59071">
        <ele>569.79998779297</ele>
        <time>2022-06-29T07:21:53.000Z</time>
      </trkpt>
      <trkpt lat="44.33194" lon="3.5907">
        <ele>570</ele>
        <time>2022-06-29T07:21:54.000Z</time>
      </trkpt>
      <trkpt lat="44.33194" lon="3.59066">
        <ele>570.20001220703</ele>
        <time>2022-06-29T07:21:57.000Z</time>
      </trkpt>
      <trkpt lat="44.33195" lon="3.59066">
        <ele>570.20001220703</ele>
        <time>2022-06-29T07:21:58.000Z</time>
      </trkpt>
      <trkpt lat="44.33195" lon="3.59065">
        <ele>570.40002441406</ele>
        <time>2022-06-29T07:21:59.000Z</time>
      </trkpt>
      <trkpt lat="44.33196" lon="3.59065">
        <ele>570.59997558594</ele>
        <time>2022-06-29T07:22:01.000Z</time>
      </trkpt>
      <trkpt lat="44.33197" lon="3.59065">
        <ele>570.79998779297</ele>
        <time>2022-06-29T07:22:02.000Z</time>
      </trkpt>
      <trkpt lat="44.33199" lon="3.59063">
        <ele>571.20001220703</ele>
        <time>2022-06-29T07:22:05.000Z</time>
      </trkpt>
      <trkpt lat="44.33201" lon="3.59063">
        <ele>571.59997558594</ele>
        <time>2022-06-29T07:22:10.000Z</time>
      </trkpt>
      <trkpt lat="44.33203" lon="3.59063">
        <ele>572</ele>
        <time>2022-06-29T07:22:12.000Z</time>
      </trkpt>
      <trkpt lat="44.33206" lon="3.59063">
        <ele>572.59997558594</ele>
        <time>2022-06-29T07:22:15.000Z</time>
      </trkpt>
      <trkpt lat="44.33207" lon="3.59062">
        <ele>572.79998779297</ele>
        <time>2022-06-29T07:22:17.000Z</time>
      </trkpt>
      <trkpt lat="44.33207" lon="3.59061">
        <ele>573</ele>
        <time>2022-06-29T07:22:19.000Z</time>
      </trkpt>
      <trkpt lat="44.33208" lon="3.59059">
        <ele>573.59997558594</ele>
        <time>2022-06-29T07:22:25.000Z</time>
      </trkpt>
      <trkpt lat="44.3321" lon="3.59057">
        <ele>574.20001220703</ele>
        <time>2022-06-29T07:22:29.000Z</time>
      </trkpt>
      <trkpt lat="44.33213" lon="3.59058">
        <ele>574.59997558594</ele>
        <time>2022-06-29T07:22:32.000Z</time>
      </trkpt>
      <trkpt lat="44.33214" lon="3.59058">
        <ele>574.79998779297</ele>
        <time>2022-06-29T07:22:33.000Z</time>
      </trkpt>
      <trkpt lat="44.33216" lon="3.59057">
        <ele>575.20001220703</ele>
        <time>2022-06-29T07:22:36.000Z</time>
      </trkpt>
      <trkpt lat="44.33217" lon="3.59056">
        <ele>575.59997558594</ele>
        <time>2022-06-29T07:22:38.000Z</time>
      </trkpt>
      <trkpt lat="44.33218" lon="3.59056">
        <ele>576.40002441406</ele>
        <time>2022-06-29T07:22:44.000Z</time>
      </trkpt>
      <trkpt lat="44.33218" lon="3.59055">
        <ele>576.40002441406</ele>
        <time>2022-06-29T07:22:45.000Z</time>
      </trkpt>
      <trkpt lat="44.33217" lon="3.59052">
        <ele>576.79998779297</ele>
        <time>2022-06-29T07:22:48.000Z</time>
      </trkpt>
      <trkpt lat="44.33218" lon="3.59053">
        <ele>576.79998779297</ele>
        <time>2022-06-29T07:22:49.000Z</time>
      </trkpt>
      <trkpt lat="44.33219" lon="3.59051">
        <ele>577.40002441406</ele>
        <time>2022-06-29T07:22:55.000Z</time>
      </trkpt>
      <trkpt lat="44.33221" lon="3.59051">
        <ele>577.40002441406</ele>
        <time>2022-06-29T07:22:58.000Z</time>
      </trkpt>
      <trkpt lat="44.33223" lon="3.59052">
        <ele>577.79998779297</ele>
        <time>2022-06-29T07:23:02.000Z</time>
      </trkpt>
      <trkpt lat="44.33226" lon="3.59053">
        <ele>578.40002441406</ele>
        <time>2022-06-29T07:23:05.000Z</time>
      </trkpt>
      <trkpt lat="44.33228" lon="3.5905">
        <ele>578.79998779297</ele>
        <time>2022-06-29T07:23:08.000Z</time>
      </trkpt>
      <trkpt lat="44.33228" lon="3.5905">
        <ele>579</ele>
        <time>2022-06-29T07:23:09.000Z</time>
      </trkpt>
      <trkpt lat="44.33229" lon="3.59049">
        <ele>579</ele>
        <time>2022-06-29T07:23:10.000Z</time>
      </trkpt>
      <trkpt lat="44.3323" lon="3.59048">
        <ele>579.20001220703</ele>
        <time>2022-06-29T07:23:13.000Z</time>
      </trkpt>
      <trkpt lat="44.33231" lon="3.59044">
        <ele>579.59997558594</ele>
        <time>2022-06-29T07:23:16.000Z</time>
      </trkpt>
      <trkpt lat="44.33233" lon="3.59041">
        <ele>580.40002441406</ele>
        <time>2022-06-29T07:23:20.000Z</time>
      </trkpt>
      <trkpt lat="44.33234" lon="3.59041">
        <ele>580.79998779297</ele>
        <time>2022-06-29T07:23:22.000Z</time>
      </trkpt>
      <trkpt lat="44.33235" lon="3.5904">
        <ele>581</ele>
        <time>2022-06-29T07:23:24.000Z</time>
      </trkpt>
      <trkpt lat="44.33236" lon="3.59039">
        <ele>581.20001220703</ele>
        <time>2022-06-29T07:23:25.000Z</time>
      </trkpt>
      <trkpt lat="44.33236" lon="3.59038">
        <ele>581.40002441406</ele>
        <time>2022-06-29T07:23:27.000Z</time>
      </trkpt>
      <trkpt lat="44.33237" lon="3.59036">
        <ele>581.59997558594</ele>
        <time>2022-06-29T07:23:29.000Z</time>
      </trkpt>
      <trkpt lat="44.33237" lon="3.59036">
        <ele>582</ele>
        <time>2022-06-29T07:23:31.000Z</time>
      </trkpt>
      <trkpt lat="44.33237" lon="3.59037">
        <ele>582.79998779297</ele>
        <time>2022-06-29T07:23:35.000Z</time>
      </trkpt>
      <trkpt lat="44.33237" lon="3.59038">
        <ele>583.20001220703</ele>
        <time>2022-06-29T07:23:38.000Z</time>
      </trkpt>
      <trkpt lat="44.33236" lon="3.59042">
        <ele>583.79998779297</ele>
        <time>2022-06-29T07:23:44.000Z</time>
      </trkpt>
      <trkpt lat="44.33234" lon="3.59044">
        <ele>584.20001220703</ele>
        <time>2022-06-29T07:23:49.000Z</time>
      </trkpt>
      <trkpt lat="44.33233" lon="3.59046">
        <ele>584.40002441406</ele>
        <time>2022-06-29T07:23:51.000Z</time>
      </trkpt>
      <trkpt lat="44.3323" lon="3.59048">
        <ele>585</ele>
        <time>2022-06-29T07:23:57.000Z</time>
      </trkpt>
      <trkpt lat="44.33229" lon="3.59048">
        <ele>585.20001220703</ele>
        <time>2022-06-29T07:23:59.000Z</time>
      </trkpt>
      <trkpt lat="44.33226" lon="3.5905">
        <ele>586.20001220703</ele>
        <time>2022-06-29T07:24:05.000Z</time>
      </trkpt>
      <trkpt lat="44.33226" lon="3.59051">
        <ele>586.40002441406</ele>
        <time>2022-06-29T07:24:06.000Z</time>
      </trkpt>
      <trkpt lat="44.33226" lon="3.59056">
        <ele>587.20001220703</ele>
        <time>2022-06-29T07:24:12.000Z</time>
      </trkpt>
      <trkpt lat="44.33227" lon="3.59057">
        <ele>587.40002441406</ele>
        <time>2022-06-29T07:24:14.000Z</time>
      </trkpt>
      <trkpt lat="44.33229" lon="3.59058">
        <ele>588</ele>
        <time>2022-06-29T07:24:18.000Z</time>
      </trkpt>
      <trkpt lat="44.33231" lon="3.59058">
        <ele>588.59997558594</ele>
        <time>2022-06-29T07:24:23.000Z</time>
      </trkpt>
      <trkpt lat="44.33235" lon="3.59057">
        <ele>589.40002441406</ele>
        <time>2022-06-29T07:24:29.000Z</time>
      </trkpt>
      <trkpt lat="44.33235" lon="3.59056">
        <ele>589.59997558594</ele>
        <time>2022-06-29T07:24:30.000Z</time>
      </trkpt>
      <trkpt lat="44.33237" lon="3.59056">
        <ele>589.79998779297</ele>
        <time>2022-06-29T07:24:32.000Z</time>
      </trkpt>
      <trkpt lat="44.3324" lon="3.59056">
        <ele>590.40002441406</ele>
        <time>2022-06-29T07:24:37.000Z</time>
      </trkpt>
      <trkpt lat="44.33241" lon="3.59055">
        <ele>590.59997558594</ele>
        <time>2022-06-29T07:24:38.000Z</time>
      </trkpt>
      <trkpt lat="44.33243" lon="3.59055">
        <ele>590.79998779297</ele>
        <time>2022-06-29T07:24:41.000Z</time>
      </trkpt>
      <trkpt lat="44.33243" lon="3.59054">
        <ele>590.79998779297</ele>
        <time>2022-06-29T07:24:42.000Z</time>
      </trkpt>
      <trkpt lat="44.33244" lon="3.59051">
        <ele>591</ele>
        <time>2022-06-29T07:24:46.000Z</time>
      </trkpt>
      <trkpt lat="44.33249" lon="3.59048">
        <ele>591.40002441406</ele>
        <time>2022-06-29T07:24:52.000Z</time>
      </trkpt>
      <trkpt lat="44.33254" lon="3.59045">
        <ele>591.79998779297</ele>
        <time>2022-06-29T07:24:58.000Z</time>
      </trkpt>
      <trkpt lat="44.33256" lon="3.59044">
        <ele>592.20001220703</ele>
        <time>2022-06-29T07:25:01.000Z</time>
      </trkpt>
      <trkpt lat="44.33257" lon="3.59043">
        <ele>592.20001220703</ele>
        <time>2022-06-29T07:25:02.000Z</time>
      </trkpt>
      <trkpt lat="44.33259" lon="3.59043">
        <ele>592.40002441406</ele>
        <time>2022-06-29T07:25:05.000Z</time>
      </trkpt>
      <trkpt lat="44.33262" lon="3.59043">
        <ele>592.79998779297</ele>
        <time>2022-06-29T07:25:08.000Z</time>
      </trkpt>
      <trkpt lat="44.33263" lon="3.59043">
        <ele>592.79998779297</ele>
        <time>2022-06-29T07:25:10.000Z</time>
      </trkpt>
      <trkpt lat="44.33263" lon="3.59044">
        <ele>592.79998779297</ele>
        <time>2022-06-29T07:25:11.000Z</time>
      </trkpt>
      <trkpt lat="44.33265" lon="3.59042">
        <ele>593.79998779297</ele>
        <time>2022-06-29T07:25:17.000Z</time>
      </trkpt>
      <trkpt lat="44.33265" lon="3.59041">
        <ele>593.79998779297</ele>
        <time>2022-06-29T07:25:18.000Z</time>
      </trkpt>
      <trkpt lat="44.33268" lon="3.59041">
        <ele>594.40002441406</ele>
        <time>2022-06-29T07:25:24.000Z</time>
      </trkpt>
      <trkpt lat="44.33271" lon="3.59042">
        <ele>594.79998779297</ele>
        <time>2022-06-29T07:25:29.000Z</time>
      </trkpt>
      <trkpt lat="44.33272" lon="3.59043">
        <ele>595</ele>
        <time>2022-06-29T07:25:31.000Z</time>
      </trkpt>
      <trkpt lat="44.33274" lon="3.59045">
        <ele>595.40002441406</ele>
        <time>2022-06-29T07:25:33.000Z</time>
      </trkpt>
      <trkpt lat="44.33276" lon="3.59048">
        <ele>595.59997558594</ele>
        <time>2022-06-29T07:25:37.000Z</time>
      </trkpt>
      <trkpt lat="44.33277" lon="3.59048">
        <ele>596</ele>
        <time>2022-06-29T07:25:39.000Z</time>
      </trkpt>
      <trkpt lat="44.33281" lon="3.59049">
        <ele>596.40002441406</ele>
        <time>2022-06-29T07:25:45.000Z</time>
      </trkpt>
      <trkpt lat="44.33284" lon="3.59052">
        <ele>597</ele>
        <time>2022-06-29T07:25:50.000Z</time>
      </trkpt>
      <trkpt lat="44.33285" lon="3.59052">
        <ele>596.79998779297</ele>
        <time>2022-06-29T07:25:52.000Z</time>
      </trkpt>
      <trkpt lat="44.33291" lon="3.59054">
        <ele>597</ele>
        <time>2022-06-29T07:25:58.000Z</time>
      </trkpt>
      <trkpt lat="44.33294" lon="3.59055">
        <ele>597.59997558594</ele>
        <time>2022-06-29T07:26:04.000Z</time>
      </trkpt>
      <trkpt lat="44.33295" lon="3.59057">
        <ele>597.79998779297</ele>
        <time>2022-06-29T07:26:09.000Z</time>
      </trkpt>
      <trkpt lat="44.33296" lon="3.59056">
        <ele>598</ele>
        <time>2022-06-29T07:26:11.000Z</time>
      </trkpt>
      <trkpt lat="44.33299" lon="3.59053">
        <ele>598.40002441406</ele>
        <time>2022-06-29T07:26:17.000Z</time>
      </trkpt>
      <trkpt lat="44.33304" lon="3.59053">
        <ele>599</ele>
        <time>2022-06-29T07:26:23.000Z</time>
      </trkpt>
      <trkpt lat="44.33304" lon="3.59053">
        <ele>599</ele>
        <time>2022-06-29T07:26:24.000Z</time>
      </trkpt>
      <trkpt lat="44.33304" lon="3.59054">
        <ele>599</ele>
        <time>2022-06-29T07:26:26.000Z</time>
      </trkpt>
      <trkpt lat="44.33307" lon="3.59056">
        <ele>599.59997558594</ele>
        <time>2022-06-29T07:26:32.000Z</time>
      </trkpt>
      <trkpt lat="44.33309" lon="3.59057">
        <ele>600</ele>
        <time>2022-06-29T07:26:36.000Z</time>
      </trkpt>
      <trkpt lat="44.33312" lon="3.5906">
        <ele>601</ele>
        <time>2022-06-29T07:26:42.000Z</time>
      </trkpt>
      <trkpt lat="44.33311" lon="3.59063">
        <ele>601.20001220703</ele>
        <time>2022-06-29T07:26:44.000Z</time>
      </trkpt>
      <trkpt lat="44.33311" lon="3.59064">
        <ele>601.40002441406</ele>
        <time>2022-06-29T07:26:45.000Z</time>
      </trkpt>
      <trkpt lat="44.33313" lon="3.59065">
        <ele>602.20001220703</ele>
        <time>2022-06-29T07:26:51.000Z</time>
      </trkpt>
      <trkpt lat="44.33313" lon="3.59066">
        <ele>602.20001220703</ele>
        <time>2022-06-29T07:26:52.000Z</time>
      </trkpt>
      <trkpt lat="44.33314" lon="3.59067">
        <ele>603</ele>
        <time>2022-06-29T07:26:58.000Z</time>
      </trkpt>
      <trkpt lat="44.33314" lon="3.59067">
        <ele>603.20001220703</ele>
        <time>2022-06-29T07:27:01.000Z</time>
      </trkpt>
      <trkpt lat="44.33315" lon="3.59068">
        <ele>603.20001220703</ele>
        <time>2022-06-29T07:27:03.000Z</time>
      </trkpt>
      <trkpt lat="44.33315" lon="3.5907">
        <ele>604.40002441406</ele>
        <time>2022-06-29T07:27:09.000Z</time>
      </trkpt>
      <trkpt lat="44.33315" lon="3.59071">
        <ele>604.59997558594</ele>
        <time>2022-06-29T07:27:12.000Z</time>
      </trkpt>
      <trkpt lat="44.33315" lon="3.59072">
        <ele>604.79998779297</ele>
        <time>2022-06-29T07:27:13.000Z</time>
      </trkpt>
      <trkpt lat="44.33315" lon="3.59073">
        <ele>604.79998779297</ele>
        <time>2022-06-29T07:27:14.000Z</time>
      </trkpt>
      <trkpt lat="44.33315" lon="3.59073">
        <ele>604.79998779297</ele>
        <time>2022-06-29T07:27:15.000Z</time>
      </trkpt>
      <trkpt lat="44.33315" lon="3.59074">
        <ele>605</ele>
        <time>2022-06-29T07:27:16.000Z</time>
      </trkpt>
      <trkpt lat="44.33316" lon="3.59075">
        <ele>605.20001220703</ele>
        <time>2022-06-29T07:27:17.000Z</time>
      </trkpt>
      <trkpt lat="44.33317" lon="3.59076">
        <ele>605.20001220703</ele>
        <time>2022-06-29T07:27:18.000Z</time>
      </trkpt>
      <trkpt lat="44.33318" lon="3.59077">
        <ele>605.40002441406</ele>
        <time>2022-06-29T07:27:19.000Z</time>
      </trkpt>
      <trkpt lat="44.33318" lon="3.59078">
        <ele>605.40002441406</ele>
        <time>2022-06-29T07:27:20.000Z</time>
      </trkpt>
      <trkpt lat="44.3332" lon="3.5908">
        <ele>605.59997558594</ele>
        <time>2022-06-29T07:27:23.000Z</time>
      </trkpt>
      <trkpt lat="44.3332" lon="3.5908">
        <ele>605.59997558594</ele>
        <time>2022-06-29T07:27:25.000Z</time>
      </trkpt>
      <trkpt lat="44.33323" lon="3.59084">
        <ele>606.40002441406</ele>
        <time>2022-06-29T07:27:31.000Z</time>
      </trkpt>
      <trkpt lat="44.33325" lon="3.59088">
        <ele>607.20001220703</ele>
        <time>2022-06-29T07:27:37.000Z</time>
      </trkpt>
      <trkpt lat="44.33326" lon="3.59089">
        <ele>607.59997558594</ele>
        <time>2022-06-29T07:27:41.000Z</time>
      </trkpt>
      <trkpt lat="44.33327" lon="3.59092">
        <ele>608</ele>
        <time>2022-06-29T07:27:47.000Z</time>
      </trkpt>
      <trkpt lat="44.33328" lon="3.59094">
        <ele>608</ele>
        <time>2022-06-29T07:27:52.000Z</time>
      </trkpt>
      <trkpt lat="44.33328" lon="3.59098">
        <ele>608.40002441406</ele>
        <time>2022-06-29T07:27:58.000Z</time>
      </trkpt>
      <trkpt lat="44.3333" lon="3.59101">
        <ele>608.59997558594</ele>
        <time>2022-06-29T07:28:04.000Z</time>
      </trkpt>
      <trkpt lat="44.3333" lon="3.59102">
        <ele>608.59997558594</ele>
        <time>2022-06-29T07:28:06.000Z</time>
      </trkpt>
      <trkpt lat="44.3333" lon="3.59106">
        <ele>608.59997558594</ele>
        <time>2022-06-29T07:28:12.000Z</time>
      </trkpt>
      <trkpt lat="44.3333" lon="3.5911">
        <ele>608.79998779297</ele>
        <time>2022-06-29T07:28:18.000Z</time>
      </trkpt>
      <trkpt lat="44.33331" lon="3.59112">
        <ele>609</ele>
        <time>2022-06-29T07:28:24.000Z</time>
      </trkpt>
      <trkpt lat="44.33329" lon="3.59115">
        <ele>609.20001220703</ele>
        <time>2022-06-29T07:28:30.000Z</time>
      </trkpt>
      <trkpt lat="44.33328" lon="3.59116">
        <ele>609.40002441406</ele>
        <time>2022-06-29T07:28:33.000Z</time>
      </trkpt>
      <trkpt lat="44.33327" lon="3.59118">
        <ele>609.59997558594</ele>
        <time>2022-06-29T07:28:39.000Z</time>
      </trkpt>
      <trkpt lat="44.33328" lon="3.59119">
        <ele>609.79998779297</ele>
        <time>2022-06-29T07:28:42.000Z</time>
      </trkpt>
      <trkpt lat="44.33328" lon="3.5912">
        <ele>609.79998779297</ele>
        <time>2022-06-29T07:28:47.000Z</time>
      </trkpt>
      <trkpt lat="44.33328" lon="3.59123">
        <ele>610.20001220703</ele>
        <time>2022-06-29T07:28:53.000Z</time>
      </trkpt>
      <trkpt lat="44.33328" lon="3.59126">
        <ele>610.59997558594</ele>
        <time>2022-06-29T07:28:56.000Z</time>
      </trkpt>
      <trkpt lat="44.33328" lon="3.59127">
        <ele>610.59997558594</ele>
        <time>2022-06-29T07:28:58.000Z</time>
      </trkpt>
      <trkpt lat="44.33328" lon="3.59129">
        <ele>610.59997558594</ele>
        <time>2022-06-29T07:29:00.000Z</time>
      </trkpt>
      <trkpt lat="44.33329" lon="3.5913">
        <ele>610.79998779297</ele>
        <time>2022-06-29T07:29:01.000Z</time>
      </trkpt>
      <trkpt lat="44.33329" lon="3.59132">
        <ele>610.79998779297</ele>
        <time>2022-06-29T07:29:03.000Z</time>
      </trkpt>
      <trkpt lat="44.3333" lon="3.59136">
        <ele>611.59997558594</ele>
        <time>2022-06-29T07:29:09.000Z</time>
      </trkpt>
      <trkpt lat="44.33331" lon="3.59142">
        <ele>611.79998779297</ele>
        <time>2022-06-29T07:29:15.000Z</time>
      </trkpt>
      <trkpt lat="44.33331" lon="3.59144">
        <ele>612</ele>
        <time>2022-06-29T07:29:18.000Z</time>
      </trkpt>
      <trkpt lat="44.33331" lon="3.59146">
        <ele>612.59997558594</ele>
        <time>2022-06-29T07:29:24.000Z</time>
      </trkpt>
      <trkpt lat="44.33331" lon="3.59148">
        <ele>612.79998779297</ele>
        <time>2022-06-29T07:29:28.000Z</time>
      </trkpt>
      <trkpt lat="44.33331" lon="3.59152">
        <ele>612.79998779297</ele>
        <time>2022-06-29T07:29:34.000Z</time>
      </trkpt>
      <trkpt lat="44.3333" lon="3.59153">
        <ele>613</ele>
        <time>2022-06-29T07:29:36.000Z</time>
      </trkpt>
      <trkpt lat="44.3333" lon="3.59156">
        <ele>613.40002441406</ele>
        <time>2022-06-29T07:29:42.000Z</time>
      </trkpt>
      <trkpt lat="44.33329" lon="3.59162">
        <ele>613.79998779297</ele>
        <time>2022-06-29T07:29:48.000Z</time>
      </trkpt>
      <trkpt lat="44.33329" lon="3.59163">
        <ele>613.79998779297</ele>
        <time>2022-06-29T07:29:50.000Z</time>
      </trkpt>
      <trkpt lat="44.3333" lon="3.59165">
        <ele>614.20001220703</ele>
        <time>2022-06-29T07:29:55.000Z</time>
      </trkpt>
      <trkpt lat="44.3333" lon="3.59168">
        <ele>614.79998779297</ele>
        <time>2022-06-29T07:30:01.000Z</time>
      </trkpt>
      <trkpt lat="44.33331" lon="3.59168">
        <ele>614.79998779297</ele>
        <time>2022-06-29T07:30:02.000Z</time>
      </trkpt>
      <trkpt lat="44.33332" lon="3.59172">
        <ele>615</ele>
        <time>2022-06-29T07:30:08.000Z</time>
      </trkpt>
      <trkpt lat="44.33332" lon="3.59174">
        <ele>615.20001220703</ele>
        <time>2022-06-29T07:30:12.000Z</time>
      </trkpt>
      <trkpt lat="44.33333" lon="3.59177">
        <ele>615.59997558594</ele>
        <time>2022-06-29T07:30:18.000Z</time>
      </trkpt>
      <trkpt lat="44.33333" lon="3.59178">
        <ele>615.79998779297</ele>
        <time>2022-06-29T07:30:21.000Z</time>
      </trkpt>
      <trkpt lat="44.33334" lon="3.59181">
        <ele>616.40002441406</ele>
        <time>2022-06-29T07:30:27.000Z</time>
      </trkpt>
      <trkpt lat="44.33335" lon="3.59182">
        <ele>616.40002441406</ele>
        <time>2022-06-29T07:30:30.000Z</time>
      </trkpt>
      <trkpt lat="44.33335" lon="3.59184">
        <ele>616.79998779297</ele>
        <time>2022-06-29T07:30:35.000Z</time>
      </trkpt>
      <trkpt lat="44.33336" lon="3.5919">
        <ele>617.40002441406</ele>
        <time>2022-06-29T07:30:41.000Z</time>
      </trkpt>
      <trkpt lat="44.33336" lon="3.59195">
        <ele>617.79998779297</ele>
        <time>2022-06-29T07:30:45.000Z</time>
      </trkpt>
      <trkpt lat="44.33337" lon="3.59197">
        <ele>618</ele>
        <time>2022-06-29T07:30:47.000Z</time>
      </trkpt>
      <trkpt lat="44.33337" lon="3.59198">
        <ele>618</ele>
        <time>2022-06-29T07:30:48.000Z</time>
      </trkpt>
      <trkpt lat="44.33339" lon="3.59203">
        <ele>618.59997558594</ele>
        <time>2022-06-29T07:30:54.000Z</time>
      </trkpt>
      <trkpt lat="44.33339" lon="3.59205">
        <ele>619</ele>
        <time>2022-06-29T07:30:57.000Z</time>
      </trkpt>
      <trkpt lat="44.33339" lon="3.59206">
        <ele>619.20001220703</ele>
        <time>2022-06-29T07:30:58.000Z</time>
      </trkpt>
      <trkpt lat="44.3334" lon="3.59207">
        <ele>619.40002441406</ele>
        <time>2022-06-29T07:31:00.000Z</time>
      </trkpt>
      <trkpt lat="44.3334" lon="3.59208">
        <ele>619.59997558594</ele>
        <time>2022-06-29T07:31:01.000Z</time>
      </trkpt>
      <trkpt lat="44.3334" lon="3.59209">
        <ele>619.59997558594</ele>
        <time>2022-06-29T07:31:02.000Z</time>
      </trkpt>
      <trkpt lat="44.3334" lon="3.59211">
        <ele>619.59997558594</ele>
        <time>2022-06-29T07:31:04.000Z</time>
      </trkpt>
      <trkpt lat="44.3334" lon="3.59212">
        <ele>619.59997558594</ele>
        <time>2022-06-29T07:31:05.000Z</time>
      </trkpt>
      <trkpt lat="44.33339" lon="3.59214">
        <ele>619.79998779297</ele>
        <time>2022-06-29T07:31:07.000Z</time>
      </trkpt>
      <trkpt lat="44.33338" lon="3.59217">
        <ele>620</ele>
        <time>2022-06-29T07:31:10.000Z</time>
      </trkpt>
      <trkpt lat="44.33336" lon="3.59218">
        <ele>620.40002441406</ele>
        <time>2022-06-29T07:31:15.000Z</time>
      </trkpt>
      <trkpt lat="44.33335" lon="3.59219">
        <ele>620.79998779297</ele>
        <time>2022-06-29T07:31:21.000Z</time>
      </trkpt>
      <trkpt lat="44.33334" lon="3.59221">
        <ele>621</ele>
        <time>2022-06-29T07:31:27.000Z</time>
      </trkpt>
      <trkpt lat="44.33333" lon="3.59221">
        <ele>621.20001220703</ele>
        <time>2022-06-29T07:31:29.000Z</time>
      </trkpt>
      <trkpt lat="44.33333" lon="3.59221">
        <ele>621.20001220703</ele>
        <time>2022-06-29T07:31:30.000Z</time>
      </trkpt>
      <trkpt lat="44.3333" lon="3.5922">
        <ele>622</ele>
        <time>2022-06-29T07:31:36.000Z</time>
      </trkpt>
      <trkpt lat="44.33329" lon="3.59221">
        <ele>622.20001220703</ele>
        <time>2022-06-29T07:31:38.000Z</time>
      </trkpt>
      <trkpt lat="44.33326" lon="3.59222">
        <ele>622.59997558594</ele>
        <time>2022-06-29T07:31:44.000Z</time>
      </trkpt>
      <trkpt lat="44.33326" lon="3.59222">
        <ele>622.59997558594</ele>
        <time>2022-06-29T07:31:45.000Z</time>
      </trkpt>
      <trkpt lat="44.33324" lon="3.59223">
        <ele>623</ele>
        <time>2022-06-29T07:31:51.000Z</time>
      </trkpt>
      <trkpt lat="44.33324" lon="3.59223">
        <ele>623.20001220703</ele>
        <time>2022-06-29T07:31:53.000Z</time>
      </trkpt>
      <trkpt lat="44.33322" lon="3.59224">
        <ele>623.79998779297</ele>
        <time>2022-06-29T07:31:59.000Z</time>
      </trkpt>
      <trkpt lat="44.3332" lon="3.59225">
        <ele>624</ele>
        <time>2022-06-29T07:32:02.000Z</time>
      </trkpt>
      <trkpt lat="44.3332" lon="3.59224">
        <ele>624</ele>
        <time>2022-06-29T07:32:03.000Z</time>
      </trkpt>
      <trkpt lat="44.33317" lon="3.59224">
        <ele>624.40002441406</ele>
        <time>2022-06-29T07:32:07.000Z</time>
      </trkpt>
      <trkpt lat="44.33313" lon="3.59226">
        <ele>625</ele>
        <time>2022-06-29T07:32:13.000Z</time>
      </trkpt>
      <trkpt lat="44.33313" lon="3.59227">
        <ele>625.20001220703</ele>
        <time>2022-06-29T07:32:14.000Z</time>
      </trkpt>
      <trkpt lat="44.33312" lon="3.59226">
        <ele>625.20001220703</ele>
        <time>2022-06-29T07:32:15.000Z</time>
      </trkpt>
      <trkpt lat="44.33312" lon="3.59226">
        <ele>625.40002441406</ele>
        <time>2022-06-29T07:32:17.000Z</time>
      </trkpt>
      <trkpt lat="44.33312" lon="3.59226">
        <ele>625.40002441406</ele>
        <time>2022-06-29T07:32:18.000Z</time>
      </trkpt>
      <trkpt lat="44.33312" lon="3.59226">
        <ele>625.40002441406</ele>
        <time>2022-06-29T07:32:19.000Z</time>
      </trkpt>
      <trkpt lat="44.33311" lon="3.59225">
        <ele>625.59997558594</ele>
        <time>2022-06-29T07:32:21.000Z</time>
      </trkpt>
      <trkpt lat="44.3331" lon="3.59226">
        <ele>625.59997558594</ele>
        <time>2022-06-29T07:32:22.000Z</time>
      </trkpt>
      <trkpt lat="44.33307" lon="3.59227">
        <ele>626.59997558594</ele>
        <time>2022-06-29T07:32:27.000Z</time>
      </trkpt>
      <trkpt lat="44.33305" lon="3.59228">
        <ele>627</ele>
        <time>2022-06-29T07:32:31.000Z</time>
      </trkpt>
      <trkpt lat="44.33304" lon="3.59229">
        <ele>627.20001220703</ele>
        <time>2022-06-29T07:32:33.000Z</time>
      </trkpt>
      <trkpt lat="44.33301" lon="3.59229">
        <ele>627.40002441406</ele>
        <time>2022-06-29T07:32:39.000Z</time>
      </trkpt>
      <trkpt lat="44.33301" lon="3.59229">
        <ele>627.59997558594</ele>
        <time>2022-06-29T07:32:40.000Z</time>
      </trkpt>
      <trkpt lat="44.33299" lon="3.5923">
        <ele>628</ele>
        <time>2022-06-29T07:32:46.000Z</time>
      </trkpt>
      <trkpt lat="44.33297" lon="3.59231">
        <ele>628</ele>
        <time>2022-06-29T07:32:50.000Z</time>
      </trkpt>
      <trkpt lat="44.33293" lon="3.59234">
        <ele>628.59997558594</ele>
        <time>2022-06-29T07:32:56.000Z</time>
      </trkpt>
      <trkpt lat="44.33292" lon="3.59234">
        <ele>628.59997558594</ele>
        <time>2022-06-29T07:32:57.000Z</time>
      </trkpt>
      <trkpt lat="44.33291" lon="3.59236">
        <ele>629</ele>
        <time>2022-06-29T07:33:02.000Z</time>
      </trkpt>
      <trkpt lat="44.33289" lon="3.59235">
        <ele>629.20001220703</ele>
        <time>2022-06-29T07:33:05.000Z</time>
      </trkpt>
      <trkpt lat="44.33288" lon="3.59235">
        <ele>629.20001220703</ele>
        <time>2022-06-29T07:33:06.000Z</time>
      </trkpt>
      <trkpt lat="44.33286" lon="3.59234">
        <ele>629.40002441406</ele>
        <time>2022-06-29T07:33:09.000Z</time>
      </trkpt>
      <trkpt lat="44.33285" lon="3.59235">
        <ele>629.59997558594</ele>
        <time>2022-06-29T07:33:11.000Z</time>
      </trkpt>
      <trkpt lat="44.33285" lon="3.59235">
        <ele>630</ele>
        <time>2022-06-29T07:33:13.000Z</time>
      </trkpt>
      <trkpt lat="44.33284" lon="3.59235">
        <ele>630</ele>
        <time>2022-06-29T07:33:15.000Z</time>
      </trkpt>
      <trkpt lat="44.33284" lon="3.59236">
        <ele>630.40002441406</ele>
        <time>2022-06-29T07:33:18.000Z</time>
      </trkpt>
      <trkpt lat="44.33283" lon="3.59236">
        <ele>630.79998779297</ele>
        <time>2022-06-29T07:33:21.000Z</time>
      </trkpt>
      <trkpt lat="44.33283" lon="3.59237">
        <ele>630.79998779297</ele>
        <time>2022-06-29T07:33:22.000Z</time>
      </trkpt>
      <trkpt lat="44.3328" lon="3.59239">
        <ele>631.20001220703</ele>
        <time>2022-06-29T07:33:27.000Z</time>
      </trkpt>
      <trkpt lat="44.33278" lon="3.59242">
        <ele>631.79998779297</ele>
        <time>2022-06-29T07:33:32.000Z</time>
      </trkpt>
      <trkpt lat="44.33278" lon="3.59242">
        <ele>632</ele>
        <time>2022-06-29T07:33:33.000Z</time>
      </trkpt>
      <trkpt lat="44.33278" lon="3.59243">
        <ele>632</ele>
        <time>2022-06-29T07:33:34.000Z</time>
      </trkpt>
      <trkpt lat="44.33278" lon="3.59244">
        <ele>632</ele>
        <time>2022-06-29T07:33:35.000Z</time>
      </trkpt>
      <trkpt lat="44.33276" lon="3.59246">
        <ele>632.40002441406</ele>
        <time>2022-06-29T07:33:41.000Z</time>
      </trkpt>
      <trkpt lat="44.33274" lon="3.59245">
        <ele>632.59997558594</ele>
        <time>2022-06-29T07:33:45.000Z</time>
      </trkpt>
      <trkpt lat="44.33273" lon="3.59246">
        <ele>633</ele>
        <time>2022-06-29T07:33:47.000Z</time>
      </trkpt>
      <trkpt lat="44.33273" lon="3.59246">
        <ele>633.20001220703</ele>
        <time>2022-06-29T07:33:48.000Z</time>
      </trkpt>
      <trkpt lat="44.33271" lon="3.59247">
        <ele>633.59997558594</ele>
        <time>2022-06-29T07:33:51.000Z</time>
      </trkpt>
      <trkpt lat="44.33268" lon="3.59249">
        <ele>633.79998779297</ele>
        <time>2022-06-29T07:33:55.000Z</time>
      </trkpt>
      <trkpt lat="44.33268" lon="3.5925">
        <ele>634</ele>
        <time>2022-06-29T07:33:57.000Z</time>
      </trkpt>
      <trkpt lat="44.33266" lon="3.59253">
        <ele>634.40002441406</ele>
        <time>2022-06-29T07:34:02.000Z</time>
      </trkpt>
      <trkpt lat="44.33265" lon="3.59254">
        <ele>634.79998779297</ele>
        <time>2022-06-29T07:34:08.000Z</time>
      </trkpt>
      <trkpt lat="44.33264" lon="3.59254">
        <ele>635.20001220703</ele>
        <time>2022-06-29T07:34:11.000Z</time>
      </trkpt>
      <trkpt lat="44.33264" lon="3.59258">
        <ele>635.20001220703</ele>
        <time>2022-06-29T07:34:16.000Z</time>
      </trkpt>
      <trkpt lat="44.33265" lon="3.59263">
        <ele>635.79998779297</ele>
        <time>2022-06-29T07:34:22.000Z</time>
      </trkpt>
      <trkpt lat="44.33266" lon="3.59267">
        <ele>636.20001220703</ele>
        <time>2022-06-29T07:34:26.000Z</time>
      </trkpt>
      <trkpt lat="44.33268" lon="3.59269">
        <ele>636.40002441406</ele>
        <time>2022-06-29T07:34:29.000Z</time>
      </trkpt>
      <trkpt lat="44.33268" lon="3.59279">
        <ele>637.20001220703</ele>
        <time>2022-06-29T07:34:35.000Z</time>
      </trkpt>
      <trkpt lat="44.33269" lon="3.5928">
        <ele>637.20001220703</ele>
        <time>2022-06-29T07:34:36.000Z</time>
      </trkpt>
      <trkpt lat="44.3327" lon="3.59282">
        <ele>637.59997558594</ele>
        <time>2022-06-29T07:34:39.000Z</time>
      </trkpt>
      <trkpt lat="44.33271" lon="3.59283">
        <ele>637.59997558594</ele>
        <time>2022-06-29T07:34:41.000Z</time>
      </trkpt>
      <trkpt lat="44.33271" lon="3.59284">
        <ele>637.79998779297</ele>
        <time>2022-06-29T07:34:42.000Z</time>
      </trkpt>
      <trkpt lat="44.33273" lon="3.59286">
        <ele>638</ele>
        <time>2022-06-29T07:34:46.000Z</time>
      </trkpt>
      <trkpt lat="44.33275" lon="3.59287">
        <ele>638.20001220703</ele>
        <time>2022-06-29T07:34:50.000Z</time>
      </trkpt>
      <trkpt lat="44.33275" lon="3.59289">
        <ele>638.20001220703</ele>
        <time>2022-06-29T07:34:54.000Z</time>
      </trkpt>
      <trkpt lat="44.33277" lon="3.5929">
        <ele>638.79998779297</ele>
        <time>2022-06-29T07:34:57.000Z</time>
      </trkpt>
      <trkpt lat="44.33278" lon="3.59293">
        <ele>639.40002441406</ele>
        <time>2022-06-29T07:35:02.000Z</time>
      </trkpt>
      <trkpt lat="44.3328" lon="3.59295">
        <ele>639.59997558594</ele>
        <time>2022-06-29T07:35:05.000Z</time>
      </trkpt>
      <trkpt lat="44.33282" lon="3.59298">
        <ele>640.20001220703</ele>
        <time>2022-06-29T07:35:11.000Z</time>
      </trkpt>
      <trkpt lat="44.33283" lon="3.59299">
        <ele>640.40002441406</ele>
        <time>2022-06-29T07:35:13.000Z</time>
      </trkpt>
      <trkpt lat="44.33286" lon="3.59301">
        <ele>640.59997558594</ele>
        <time>2022-06-29T07:35:17.000Z</time>
      </trkpt>
      <trkpt lat="44.33286" lon="3.59302">
        <ele>640.79998779297</ele>
        <time>2022-06-29T07:35:18.000Z</time>
      </trkpt>
      <trkpt lat="44.33286" lon="3.59304">
        <ele>641</ele>
        <time>2022-06-29T07:35:21.000Z</time>
      </trkpt>
      <trkpt lat="44.33284" lon="3.59308">
        <ele>641.40002441406</ele>
        <time>2022-06-29T07:35:26.000Z</time>
      </trkpt>
      <trkpt lat="44.33283" lon="3.59308">
        <ele>641.40002441406</ele>
        <time>2022-06-29T07:35:27.000Z</time>
      </trkpt>
      <trkpt lat="44.33282" lon="3.59309">
        <ele>641.79998779297</ele>
        <time>2022-06-29T07:35:30.000Z</time>
      </trkpt>
      <trkpt lat="44.33282" lon="3.5931">
        <ele>642</ele>
        <time>2022-06-29T07:35:32.000Z</time>
      </trkpt>
      <trkpt lat="44.33279" lon="3.59313">
        <ele>642.20001220703</ele>
        <time>2022-06-29T07:35:38.000Z</time>
      </trkpt>
      <trkpt lat="44.33279" lon="3.59313">
        <ele>642.40002441406</ele>
        <time>2022-06-29T07:35:39.000Z</time>
      </trkpt>
      <trkpt lat="44.33277" lon="3.59313">
        <ele>642.79998779297</ele>
        <time>2022-06-29T07:35:43.000Z</time>
      </trkpt>
      <trkpt lat="44.33276" lon="3.59313">
        <ele>643</ele>
        <time>2022-06-29T07:35:45.000Z</time>
      </trkpt>
      <trkpt lat="44.33273" lon="3.59313">
        <ele>643.40002441406</ele>
        <time>2022-06-29T07:35:48.000Z</time>
      </trkpt>
      <trkpt lat="44.33271" lon="3.59313">
        <ele>643.79998779297</ele>
        <time>2022-06-29T07:35:54.000Z</time>
      </trkpt>
      <trkpt lat="44.33268" lon="3.59312">
        <ele>644.40002441406</ele>
        <time>2022-06-29T07:35:59.000Z</time>
      </trkpt>
      <trkpt lat="44.33268" lon="3.59311">
        <ele>644.59997558594</ele>
        <time>2022-06-29T07:36:00.000Z</time>
      </trkpt>
      <trkpt lat="44.33266" lon="3.59308">
        <ele>644.79998779297</ele>
        <time>2022-06-29T07:36:06.000Z</time>
      </trkpt>
      <trkpt lat="44.33264" lon="3.5931">
        <ele>645.20001220703</ele>
        <time>2022-06-29T07:36:12.000Z</time>
      </trkpt>
      <trkpt lat="44.33263" lon="3.59312">
        <ele>645.40002441406</ele>
        <time>2022-06-29T07:36:15.000Z</time>
      </trkpt>
      <trkpt lat="44.33263" lon="3.59312">
        <ele>645.40002441406</ele>
        <time>2022-06-29T07:36:16.000Z</time>
      </trkpt>
      <trkpt lat="44.3326" lon="3.59315">
        <ele>645.79998779297</ele>
        <time>2022-06-29T07:36:20.000Z</time>
      </trkpt>
      <trkpt lat="44.33259" lon="3.59317">
        <ele>646.20001220703</ele>
        <time>2022-06-29T07:36:24.000Z</time>
      </trkpt>
      <trkpt lat="44.33258" lon="3.59318">
        <ele>646.40002441406</ele>
        <time>2022-06-29T07:36:27.000Z</time>
      </trkpt>
      <trkpt lat="44.33257" lon="3.59318">
        <ele>646.40002441406</ele>
        <time>2022-06-29T07:36:29.000Z</time>
      </trkpt>
      <trkpt lat="44.33256" lon="3.59319">
        <ele>646.59997558594</ele>
        <time>2022-06-29T07:36:31.000Z</time>
      </trkpt>
      <trkpt lat="44.33252" lon="3.59321">
        <ele>647</ele>
        <time>2022-06-29T07:36:37.000Z</time>
      </trkpt>
      <trkpt lat="44.33249" lon="3.59323">
        <ele>647.20001220703</ele>
        <time>2022-06-29T07:36:43.000Z</time>
      </trkpt>
      <trkpt lat="44.33247" lon="3.59323">
        <ele>647.59997558594</ele>
        <time>2022-06-29T07:36:46.000Z</time>
      </trkpt>
      <trkpt lat="44.33244" lon="3.59324">
        <ele>648</ele>
        <time>2022-06-29T07:36:52.000Z</time>
      </trkpt>
      <trkpt lat="44.33243" lon="3.59326">
        <ele>648.59997558594</ele>
        <time>2022-06-29T07:36:58.000Z</time>
      </trkpt>
      <trkpt lat="44.33242" lon="3.59328">
        <ele>648.79998779297</ele>
        <time>2022-06-29T07:37:02.000Z</time>
      </trkpt>
      <trkpt lat="44.33242" lon="3.59329">
        <ele>649</ele>
        <time>2022-06-29T07:37:03.000Z</time>
      </trkpt>
      <trkpt lat="44.33241" lon="3.59329">
        <ele>649</ele>
        <time>2022-06-29T07:37:04.000Z</time>
      </trkpt>
      <trkpt lat="44.3324" lon="3.59331">
        <ele>649.59997558594</ele>
        <time>2022-06-29T07:37:08.000Z</time>
      </trkpt>
      <trkpt lat="44.33242" lon="3.59332">
        <ele>649.79998779297</ele>
        <time>2022-06-29T07:37:14.000Z</time>
      </trkpt>
      <trkpt lat="44.33242" lon="3.59333">
        <ele>649.79998779297</ele>
        <time>2022-06-29T07:37:17.000Z</time>
      </trkpt>
      <trkpt lat="44.33242" lon="3.59335">
        <ele>649.40002441406</ele>
        <time>2022-06-29T07:37:21.000Z</time>
      </trkpt>
      <trkpt lat="44.33242" lon="3.59337">
        <ele>649.59997558594</ele>
        <time>2022-06-29T07:37:27.000Z</time>
      </trkpt>
      <trkpt lat="44.33242" lon="3.59342">
        <ele>650</ele>
        <time>2022-06-29T07:37:32.000Z</time>
      </trkpt>
      <trkpt lat="44.33241" lon="3.59349">
        <ele>650.59997558594</ele>
        <time>2022-06-29T07:37:38.000Z</time>
      </trkpt>
      <trkpt lat="44.33243" lon="3.59351">
        <ele>651.20001220703</ele>
        <time>2022-06-29T07:37:44.000Z</time>
      </trkpt>
      <trkpt lat="44.33244" lon="3.59353">
        <ele>651.20001220703</ele>
        <time>2022-06-29T07:37:50.000Z</time>
      </trkpt>
      <trkpt lat="44.33245" lon="3.59356">
        <ele>651.40002441406</ele>
        <time>2022-06-29T07:37:56.000Z</time>
      </trkpt>
      <trkpt lat="44.33247" lon="3.59356">
        <ele>651.79998779297</ele>
        <time>2022-06-29T07:37:59.000Z</time>
      </trkpt>
      <trkpt lat="44.33248" lon="3.59355">
        <ele>652</ele>
        <time>2022-06-29T07:38:01.000Z</time>
      </trkpt>
      <trkpt lat="44.3325" lon="3.59356">
        <ele>652.40002441406</ele>
        <time>2022-06-29T07:38:05.000Z</time>
      </trkpt>
      <trkpt lat="44.33253" lon="3.5936">
        <ele>652.79998779297</ele>
        <time>2022-06-29T07:38:11.000Z</time>
      </trkpt>
      <trkpt lat="44.33256" lon="3.59365">
        <ele>653.20001220703</ele>
        <time>2022-06-29T07:38:17.000Z</time>
      </trkpt>
      <trkpt lat="44.33257" lon="3.59366">
        <ele>653.40002441406</ele>
        <time>2022-06-29T07:38:19.000Z</time>
      </trkpt>
      <trkpt lat="44.33259" lon="3.59371">
        <ele>653.59997558594</ele>
        <time>2022-06-29T07:38:25.000Z</time>
      </trkpt>
      <trkpt lat="44.33259" lon="3.59373">
        <ele>653.79998779297</ele>
        <time>2022-06-29T07:38:27.000Z</time>
      </trkpt>
      <trkpt lat="44.3326" lon="3.59373">
        <ele>653.79998779297</ele>
        <time>2022-06-29T07:38:28.000Z</time>
      </trkpt>
      <trkpt lat="44.33263" lon="3.59378">
        <ele>654.40002441406</ele>
        <time>2022-06-29T07:38:33.000Z</time>
      </trkpt>
      <trkpt lat="44.33264" lon="3.59378">
        <ele>654.59997558594</ele>
        <time>2022-06-29T07:38:35.000Z</time>
      </trkpt>
      <trkpt lat="44.33265" lon="3.59379">
        <ele>654.79998779297</ele>
        <time>2022-06-29T07:38:37.000Z</time>
      </trkpt>
      <trkpt lat="44.33265" lon="3.59381">
        <ele>655.20001220703</ele>
        <time>2022-06-29T07:38:42.000Z</time>
      </trkpt>
      <trkpt lat="44.33266" lon="3.59384">
        <ele>655.79998779297</ele>
        <time>2022-06-29T07:38:48.000Z</time>
      </trkpt>
      <trkpt lat="44.33266" lon="3.59384">
        <ele>655.79998779297</ele>
        <time>2022-06-29T07:38:49.000Z</time>
      </trkpt>
      <trkpt lat="44.33266" lon="3.59384">
        <ele>656.20001220703</ele>
        <time>2022-06-29T07:38:51.000Z</time>
      </trkpt>
      <trkpt lat="44.33266" lon="3.59385">
        <ele>656.20001220703</ele>
        <time>2022-06-29T07:38:52.000Z</time>
      </trkpt>
      <trkpt lat="44.33266" lon="3.59385">
        <ele>656.40002441406</ele>
        <time>2022-06-29T07:38:54.000Z</time>
      </trkpt>
      <trkpt lat="44.33266" lon="3.59386">
        <ele>656.40002441406</ele>
        <time>2022-06-29T07:38:55.000Z</time>
      </trkpt>
      <trkpt lat="44.33269" lon="3.59387">
        <ele>656.59997558594</ele>
        <time>2022-06-29T07:39:01.000Z</time>
      </trkpt>
      <trkpt lat="44.33269" lon="3.59387">
        <ele>656.79998779297</ele>
        <time>2022-06-29T07:39:02.000Z</time>
      </trkpt>
      <trkpt lat="44.3327" lon="3.59388">
        <ele>656.79998779297</ele>
        <time>2022-06-29T07:39:03.000Z</time>
      </trkpt>
      <trkpt lat="44.33272" lon="3.59391">
        <ele>657.20001220703</ele>
        <time>2022-06-29T07:39:09.000Z</time>
      </trkpt>
      <trkpt lat="44.33272" lon="3.59394">
        <ele>657.59997558594</ele>
        <time>2022-06-29T07:39:14.000Z</time>
      </trkpt>
      <trkpt lat="44.33273" lon="3.59395">
        <ele>658</ele>
        <time>2022-06-29T07:39:17.000Z</time>
      </trkpt>
      <trkpt lat="44.33273" lon="3.59396">
        <ele>658.20001220703</ele>
        <time>2022-06-29T07:39:18.000Z</time>
      </trkpt>
      <trkpt lat="44.33273" lon="3.59399">
        <ele>658.40002441406</ele>
        <time>2022-06-29T07:39:22.000Z</time>
      </trkpt>
      <trkpt lat="44.33273" lon="3.59404">
        <ele>658.59997558594</ele>
        <time>2022-06-29T07:39:28.000Z</time>
      </trkpt>
      <trkpt lat="44.33273" lon="3.59407">
        <ele>659</ele>
        <time>2022-06-29T07:39:33.000Z</time>
      </trkpt>
      <trkpt lat="44.33272" lon="3.59407">
        <ele>659</ele>
        <time>2022-06-29T07:39:34.000Z</time>
      </trkpt>
      <trkpt lat="44.33272" lon="3.59408">
        <ele>659</ele>
        <time>2022-06-29T07:39:35.000Z</time>
      </trkpt>
      <trkpt lat="44.33272" lon="3.59408">
        <ele>659.40002441406</ele>
        <time>2022-06-29T07:39:41.000Z</time>
      </trkpt>
      <trkpt lat="44.3327" lon="3.59411">
        <ele>660</ele>
        <time>2022-06-29T07:39:47.000Z</time>
      </trkpt>
      <trkpt lat="44.3327" lon="3.59412">
        <ele>660</ele>
        <time>2022-06-29T07:39:48.000Z</time>
      </trkpt>
      <trkpt lat="44.3327" lon="3.59412">
        <ele>660.20001220703</ele>
        <time>2022-06-29T07:39:49.000Z</time>
      </trkpt>
      <trkpt lat="44.33267" lon="3.59415">
        <ele>660.79998779297</ele>
        <time>2022-06-29T07:39:55.000Z</time>
      </trkpt>
      <trkpt lat="44.33266" lon="3.59415">
        <ele>661</ele>
        <time>2022-06-29T07:39:58.000Z</time>
      </trkpt>
      <trkpt lat="44.33264" lon="3.59415">
        <ele>661.20001220703</ele>
        <time>2022-06-29T07:40:01.000Z</time>
      </trkpt>
      <trkpt lat="44.33263" lon="3.59416">
        <ele>661.20001220703</ele>
        <time>2022-06-29T07:40:02.000Z</time>
      </trkpt>
      <trkpt lat="44.33263" lon="3.59416">
        <ele>661.40002441406</ele>
        <time>2022-06-29T07:40:03.000Z</time>
      </trkpt>
      <trkpt lat="44.33262" lon="3.59416">
        <ele>661.40002441406</ele>
        <time>2022-06-29T07:40:04.000Z</time>
      </trkpt>
      <trkpt lat="44.33261" lon="3.59416">
        <ele>661.59997558594</ele>
        <time>2022-06-29T07:40:05.000Z</time>
      </trkpt>
      <trkpt lat="44.33261" lon="3.59416">
        <ele>661.59997558594</ele>
        <time>2022-06-29T07:40:06.000Z</time>
      </trkpt>
      <trkpt lat="44.3326" lon="3.59417">
        <ele>661.79998779297</ele>
        <time>2022-06-29T07:40:07.000Z</time>
      </trkpt>
      <trkpt lat="44.33259" lon="3.59417">
        <ele>662</ele>
        <time>2022-06-29T07:40:09.000Z</time>
      </trkpt>
      <trkpt lat="44.33258" lon="3.59418">
        <ele>662</ele>
        <time>2022-06-29T07:40:11.000Z</time>
      </trkpt>
      <trkpt lat="44.33256" lon="3.59419">
        <ele>662.20001220703</ele>
        <time>2022-06-29T07:40:14.000Z</time>
      </trkpt>
      <trkpt lat="44.33255" lon="3.5942">
        <ele>662.59997558594</ele>
        <time>2022-06-29T07:40:17.000Z</time>
      </trkpt>
      <trkpt lat="44.33254" lon="3.59422">
        <ele>663</ele>
        <time>2022-06-29T07:40:23.000Z</time>
      </trkpt>
      <trkpt lat="44.33252" lon="3.59423">
        <ele>663.20001220703</ele>
        <time>2022-06-29T07:40:26.000Z</time>
      </trkpt>
      <trkpt lat="44.33251" lon="3.59423">
        <ele>663.40002441406</ele>
        <time>2022-06-29T07:40:29.000Z</time>
      </trkpt>
      <trkpt lat="44.33249" lon="3.59426">
        <ele>663.79998779297</ele>
        <time>2022-06-29T07:40:35.000Z</time>
      </trkpt>
      <trkpt lat="44.33248" lon="3.59427">
        <ele>664</ele>
        <time>2022-06-29T07:40:38.000Z</time>
      </trkpt>
      <trkpt lat="44.33247" lon="3.59429">
        <ele>664.40002441406</ele>
        <time>2022-06-29T07:40:42.000Z</time>
      </trkpt>
      <trkpt lat="44.33247" lon="3.59432">
        <ele>664.79998779297</ele>
        <time>2022-06-29T07:40:45.000Z</time>
      </trkpt>
      <trkpt lat="44.33248" lon="3.59433">
        <ele>664.79998779297</ele>
        <time>2022-06-29T07:40:47.000Z</time>
      </trkpt>
      <trkpt lat="44.33246" lon="3.59438">
        <ele>665</ele>
        <time>2022-06-29T07:40:53.000Z</time>
      </trkpt>
      <trkpt lat="44.33246" lon="3.59439">
        <ele>665.20001220703</ele>
        <time>2022-06-29T07:40:55.000Z</time>
      </trkpt>
      <trkpt lat="44.33246" lon="3.5944">
        <ele>665.40002441406</ele>
        <time>2022-06-29T07:40:56.000Z</time>
      </trkpt>
      <trkpt lat="44.33245" lon="3.59442">
        <ele>665.40002441406</ele>
        <time>2022-06-29T07:41:01.000Z</time>
      </trkpt>
      <trkpt lat="44.33243" lon="3.59446">
        <ele>666</ele>
        <time>2022-06-29T07:41:07.000Z</time>
      </trkpt>
      <trkpt lat="44.33242" lon="3.59453">
        <ele>666.40002441406</ele>
        <time>2022-06-29T07:41:13.000Z</time>
      </trkpt>
      <trkpt lat="44.3324" lon="3.59455">
        <ele>666.79998779297</ele>
        <time>2022-06-29T07:41:16.000Z</time>
      </trkpt>
      <trkpt lat="44.3324" lon="3.59458">
        <ele>667.59997558594</ele>
        <time>2022-06-29T07:41:22.000Z</time>
      </trkpt>
      <trkpt lat="44.33238" lon="3.59462">
        <ele>668</ele>
        <time>2022-06-29T07:41:27.000Z</time>
      </trkpt>
      <trkpt lat="44.33238" lon="3.59463">
        <ele>668</ele>
        <time>2022-06-29T07:41:28.000Z</time>
      </trkpt>
      <trkpt lat="44.33237" lon="3.59464">
        <ele>668</ele>
        <time>2022-06-29T07:41:29.000Z</time>
      </trkpt>
      <trkpt lat="44.33237" lon="3.59467">
        <ele>668.20001220703</ele>
        <time>2022-06-29T07:41:32.000Z</time>
      </trkpt>
      <trkpt lat="44.33236" lon="3.59469">
        <ele>668.59997558594</ele>
        <time>2022-06-29T07:41:36.000Z</time>
      </trkpt>
      <trkpt lat="44.33233" lon="3.59474">
        <ele>669</ele>
        <time>2022-06-29T07:41:42.000Z</time>
      </trkpt>
      <trkpt lat="44.33232" lon="3.59476">
        <ele>669.20001220703</ele>
        <time>2022-06-29T07:41:44.000Z</time>
      </trkpt>
      <trkpt lat="44.33231" lon="3.5948">
        <ele>669.59997558594</ele>
        <time>2022-06-29T07:41:50.000Z</time>
      </trkpt>
      <trkpt lat="44.3323" lon="3.59481">
        <ele>669.59997558594</ele>
        <time>2022-06-29T07:41:52.000Z</time>
      </trkpt>
      <trkpt lat="44.3323" lon="3.59482">
        <ele>669.79998779297</ele>
        <time>2022-06-29T07:41:53.000Z</time>
      </trkpt>
      <trkpt lat="44.33229" lon="3.59486">
        <ele>670.59997558594</ele>
        <time>2022-06-29T07:41:58.000Z</time>
      </trkpt>
      <trkpt lat="44.33228" lon="3.59487">
        <ele>670.79998779297</ele>
        <time>2022-06-29T07:42:00.000Z</time>
      </trkpt>
      <trkpt lat="44.33227" lon="3.59487">
        <ele>671</ele>
        <time>2022-06-29T07:42:01.000Z</time>
      </trkpt>
      <trkpt lat="44.33226" lon="3.59488">
        <ele>671.20001220703</ele>
        <time>2022-06-29T07:42:04.000Z</time>
      </trkpt>
      <trkpt lat="44.33225" lon="3.59489">
        <ele>671.40002441406</ele>
        <time>2022-06-29T07:42:06.000Z</time>
      </trkpt>
      <trkpt lat="44.33225" lon="3.59489">
        <ele>671.40002441406</ele>
        <time>2022-06-29T07:42:07.000Z</time>
      </trkpt>
      <trkpt lat="44.33224" lon="3.59491">
        <ele>671.59997558594</ele>
        <time>2022-06-29T07:42:09.000Z</time>
      </trkpt>
      <trkpt lat="44.33224" lon="3.59494">
        <ele>671.79998779297</ele>
        <time>2022-06-29T07:42:12.000Z</time>
      </trkpt>
      <trkpt lat="44.33224" lon="3.59496">
        <ele>672</ele>
        <time>2022-06-29T07:42:14.000Z</time>
      </trkpt>
      <trkpt lat="44.33223" lon="3.59497">
        <ele>672</ele>
        <time>2022-06-29T07:42:16.000Z</time>
      </trkpt>
      <trkpt lat="44.33223" lon="3.59498">
        <ele>672.20001220703</ele>
        <time>2022-06-29T07:42:17.000Z</time>
      </trkpt>
      <trkpt lat="44.33223" lon="3.59499">
        <ele>672.40002441406</ele>
        <time>2022-06-29T07:42:19.000Z</time>
      </trkpt>
      <trkpt lat="44.33222" lon="3.595">
        <ele>672.79998779297</ele>
        <time>2022-06-29T07:42:21.000Z</time>
      </trkpt>
      <trkpt lat="44.33221" lon="3.59501">
        <ele>672.79998779297</ele>
        <time>2022-06-29T07:42:22.000Z</time>
      </trkpt>
      <trkpt lat="44.33218" lon="3.59503">
        <ele>673.40002441406</ele>
        <time>2022-06-29T07:42:27.000Z</time>
      </trkpt>
      <trkpt lat="44.33218" lon="3.59504">
        <ele>673.79998779297</ele>
        <time>2022-06-29T07:42:29.000Z</time>
      </trkpt>
      <trkpt lat="44.33218" lon="3.59505">
        <ele>673.79998779297</ele>
        <time>2022-06-29T07:42:31.000Z</time>
      </trkpt>
      <trkpt lat="44.33218" lon="3.59505">
        <ele>674</ele>
        <time>2022-06-29T07:42:32.000Z</time>
      </trkpt>
      <trkpt lat="44.33217" lon="3.59506">
        <ele>674.20001220703</ele>
        <time>2022-06-29T07:42:34.000Z</time>
      </trkpt>
      <trkpt lat="44.33217" lon="3.59507">
        <ele>674.20001220703</ele>
        <time>2022-06-29T07:42:35.000Z</time>
      </trkpt>
      <trkpt lat="44.33217" lon="3.59506">
        <ele>674.20001220703</ele>
        <time>2022-06-29T07:42:36.000Z</time>
      </trkpt>
      <trkpt lat="44.33218" lon="3.59508">
        <ele>674.59997558594</ele>
        <time>2022-06-29T07:42:40.000Z</time>
      </trkpt>
      <trkpt lat="44.33219" lon="3.59511">
        <ele>674.79998779297</ele>
        <time>2022-06-29T07:42:43.000Z</time>
      </trkpt>
      <trkpt lat="44.33221" lon="3.59515">
        <ele>675.40002441406</ele>
        <time>2022-06-29T07:42:48.000Z</time>
      </trkpt>
      <trkpt lat="44.33221" lon="3.59517">
        <ele>675.40002441406</ele>
        <time>2022-06-29T07:42:50.000Z</time>
      </trkpt>
      <trkpt lat="44.33222" lon="3.59523">
        <ele>676</ele>
        <time>2022-06-29T07:42:56.000Z</time>
      </trkpt>
      <trkpt lat="44.33221" lon="3.59527">
        <ele>676.59997558594</ele>
        <time>2022-06-29T07:43:02.000Z</time>
      </trkpt>
      <trkpt lat="44.33222" lon="3.59529">
        <ele>676.59997558594</ele>
        <time>2022-06-29T07:43:04.000Z</time>
      </trkpt>
      <trkpt lat="44.33222" lon="3.59532">
        <ele>676.79998779297</ele>
        <time>2022-06-29T07:43:07.000Z</time>
      </trkpt>
      <trkpt lat="44.33222" lon="3.59532">
        <ele>676.79998779297</ele>
        <time>2022-06-29T07:43:08.000Z</time>
      </trkpt>
      <trkpt lat="44.33221" lon="3.59533">
        <ele>677</ele>
        <time>2022-06-29T07:43:10.000Z</time>
      </trkpt>
      <trkpt lat="44.3322" lon="3.59537">
        <ele>677.59997558594</ele>
        <time>2022-06-29T07:43:16.000Z</time>
      </trkpt>
      <trkpt lat="44.3322" lon="3.59539">
        <ele>678</ele>
        <time>2022-06-29T07:43:21.000Z</time>
      </trkpt>
      <trkpt lat="44.3322" lon="3.59539">
        <ele>678</ele>
        <time>2022-06-29T07:43:23.000Z</time>
      </trkpt>
      <trkpt lat="44.3322" lon="3.59542">
        <ele>678.59997558594</ele>
        <time>2022-06-29T07:43:29.000Z</time>
      </trkpt>
      <trkpt lat="44.3322" lon="3.59545">
        <ele>679</ele>
        <time>2022-06-29T07:43:32.000Z</time>
      </trkpt>
      <trkpt lat="44.3322" lon="3.59552">
        <ele>679.59997558594</ele>
        <time>2022-06-29T07:43:38.000Z</time>
      </trkpt>
      <trkpt lat="44.3322" lon="3.59552">
        <ele>679.79998779297</ele>
        <time>2022-06-29T07:43:39.000Z</time>
      </trkpt>
      <trkpt lat="44.3322" lon="3.59554">
        <ele>680</ele>
        <time>2022-06-29T07:43:43.000Z</time>
      </trkpt>
      <trkpt lat="44.3322" lon="3.59558">
        <ele>680.79998779297</ele>
        <time>2022-06-29T07:43:49.000Z</time>
      </trkpt>
      <trkpt lat="44.3322" lon="3.59558">
        <ele>680.79998779297</ele>
        <time>2022-06-29T07:43:50.000Z</time>
      </trkpt>
      <trkpt lat="44.3322" lon="3.59559">
        <ele>681</ele>
        <time>2022-06-29T07:43:53.000Z</time>
      </trkpt>
      <trkpt lat="44.3322" lon="3.5956">
        <ele>681.20001220703</ele>
        <time>2022-06-29T07:43:54.000Z</time>
      </trkpt>
      <trkpt lat="44.33219" lon="3.5956">
        <ele>681.20001220703</ele>
        <time>2022-06-29T07:43:55.000Z</time>
      </trkpt>
      <trkpt lat="44.33219" lon="3.59561">
        <ele>681.20001220703</ele>
        <time>2022-06-29T07:43:57.000Z</time>
      </trkpt>
      <trkpt lat="44.33219" lon="3.59562">
        <ele>681.40002441406</ele>
        <time>2022-06-29T07:44:00.000Z</time>
      </trkpt>
      <trkpt lat="44.3322" lon="3.59566">
        <ele>682</ele>
        <time>2022-06-29T07:44:06.000Z</time>
      </trkpt>
      <trkpt lat="44.33219" lon="3.59568">
        <ele>682.20001220703</ele>
        <time>2022-06-29T07:44:08.000Z</time>
      </trkpt>
      <trkpt lat="44.33218" lon="3.5957">
        <ele>682.59997558594</ele>
        <time>2022-06-29T07:44:12.000Z</time>
      </trkpt>
      <trkpt lat="44.33215" lon="3.59572">
        <ele>683.20001220703</ele>
        <time>2022-06-29T07:44:18.000Z</time>
      </trkpt>
      <trkpt lat="44.33212" lon="3.59572">
        <ele>684</ele>
        <time>2022-06-29T07:44:24.000Z</time>
      </trkpt>
      <trkpt lat="44.33212" lon="3.59572">
        <ele>684.40002441406</ele>
        <time>2022-06-29T07:44:26.000Z</time>
      </trkpt>
      <trkpt lat="44.33213" lon="3.59574">
        <ele>684.59997558594</ele>
        <time>2022-06-29T07:44:28.000Z</time>
      </trkpt>
      <trkpt lat="44.33213" lon="3.59578">
        <ele>685</ele>
        <time>2022-06-29T07:44:34.000Z</time>
      </trkpt>
      <trkpt lat="44.33213" lon="3.5958">
        <ele>685.40002441406</ele>
        <time>2022-06-29T07:44:37.000Z</time>
      </trkpt>
      <trkpt lat="44.33212" lon="3.59583">
        <ele>685.79998779297</ele>
        <time>2022-06-29T07:44:43.000Z</time>
      </trkpt>
      <trkpt lat="44.33212" lon="3.59584">
        <ele>686</ele>
        <time>2022-06-29T07:44:44.000Z</time>
      </trkpt>
      <trkpt lat="44.33212" lon="3.59585">
        <ele>686.20001220703</ele>
        <time>2022-06-29T07:44:48.000Z</time>
      </trkpt>
      <trkpt lat="44.33211" lon="3.59586">
        <ele>686.59997558594</ele>
        <time>2022-06-29T07:44:51.000Z</time>
      </trkpt>
      <trkpt lat="44.33209" lon="3.59589">
        <ele>687.20001220703</ele>
        <time>2022-06-29T07:44:57.000Z</time>
      </trkpt>
      <trkpt lat="44.33209" lon="3.59592">
        <ele>687.40002441406</ele>
        <time>2022-06-29T07:45:01.000Z</time>
      </trkpt>
      <trkpt lat="44.33208" lon="3.59593">
        <ele>687.79998779297</ele>
        <time>2022-06-29T07:45:03.000Z</time>
      </trkpt>
      <trkpt lat="44.33207" lon="3.59595">
        <ele>688</ele>
        <time>2022-06-29T07:45:07.000Z</time>
      </trkpt>
      <trkpt lat="44.33206" lon="3.59597">
        <ele>688.59997558594</ele>
        <time>2022-06-29T07:45:13.000Z</time>
      </trkpt>
      <trkpt lat="44.33206" lon="3.596">
        <ele>688.79998779297</ele>
        <time>2022-06-29T07:45:16.000Z</time>
      </trkpt>
      <trkpt lat="44.33205" lon="3.59602">
        <ele>689.40002441406</ele>
        <time>2022-06-29T07:45:20.000Z</time>
      </trkpt>
      <trkpt lat="44.33203" lon="3.59606">
        <ele>689.79998779297</ele>
        <time>2022-06-29T07:45:26.000Z</time>
      </trkpt>
      <trkpt lat="44.33202" lon="3.59606">
        <ele>690</ele>
        <time>2022-06-29T07:45:27.000Z</time>
      </trkpt>
      <trkpt lat="44.33201" lon="3.5961">
        <ele>690.40002441406</ele>
        <time>2022-06-29T07:45:33.000Z</time>
      </trkpt>
      <trkpt lat="44.33199" lon="3.59612">
        <ele>690.59997558594</ele>
        <time>2022-06-29T07:45:36.000Z</time>
      </trkpt>
      <trkpt lat="44.33198" lon="3.59613">
        <ele>691</ele>
        <time>2022-06-29T07:45:39.000Z</time>
      </trkpt>
      <trkpt lat="44.33197" lon="3.59616">
        <ele>691.59997558594</ele>
        <time>2022-06-29T07:45:45.000Z</time>
      </trkpt>
      <trkpt lat="44.33197" lon="3.59617">
        <ele>692</ele>
        <time>2022-06-29T07:45:48.000Z</time>
      </trkpt>
      <trkpt lat="44.33197" lon="3.59617">
        <ele>692.40002441406</ele>
        <time>2022-06-29T07:45:51.000Z</time>
      </trkpt>
      <trkpt lat="44.33198" lon="3.59621">
        <ele>693.20001220703</ele>
        <time>2022-06-29T07:45:57.000Z</time>
      </trkpt>
      <trkpt lat="44.33198" lon="3.59627">
        <ele>694.20001220703</ele>
        <time>2022-06-29T07:46:03.000Z</time>
      </trkpt>
      <trkpt lat="44.33198" lon="3.59628">
        <ele>694.40002441406</ele>
        <time>2022-06-29T07:46:04.000Z</time>
      </trkpt>
      <trkpt lat="44.33198" lon="3.59629">
        <ele>694.79998779297</ele>
        <time>2022-06-29T07:46:06.000Z</time>
      </trkpt>
      <trkpt lat="44.33199" lon="3.59631">
        <ele>695.20001220703</ele>
        <time>2022-06-29T07:46:12.000Z</time>
      </trkpt>
      <trkpt lat="44.33201" lon="3.59631">
        <ele>695.20001220703</ele>
        <time>2022-06-29T07:46:18.000Z</time>
      </trkpt>
      <trkpt lat="44.33202" lon="3.59631">
        <ele>695.20001220703</ele>
        <time>2022-06-29T07:46:20.000Z</time>
      </trkpt>
      <trkpt lat="44.33205" lon="3.59632">
        <ele>695.20001220703</ele>
        <time>2022-06-29T07:46:26.000Z</time>
      </trkpt>
      <trkpt lat="44.33206" lon="3.59636">
        <ele>695.79998779297</ele>
        <time>2022-06-29T07:46:32.000Z</time>
      </trkpt>
      <trkpt lat="44.33204" lon="3.59639">
        <ele>696.20001220703</ele>
        <time>2022-06-29T07:46:35.000Z</time>
      </trkpt>
      <trkpt lat="44.33203" lon="3.5964">
        <ele>696.20001220703</ele>
        <time>2022-06-29T07:46:36.000Z</time>
      </trkpt>
      <trkpt lat="44.33202" lon="3.59641">
        <ele>696.20001220703</ele>
        <time>2022-06-29T07:46:37.000Z</time>
      </trkpt>
      <trkpt lat="44.33201" lon="3.59644">
        <ele>696.59997558594</ele>
        <time>2022-06-29T07:46:40.000Z</time>
      </trkpt>
      <trkpt lat="44.332" lon="3.59645">
        <ele>697</ele>
        <time>2022-06-29T07:46:42.000Z</time>
      </trkpt>
      <trkpt lat="44.33199" lon="3.59645">
        <ele>697.20001220703</ele>
        <time>2022-06-29T07:46:43.000Z</time>
      </trkpt>
      <trkpt lat="44.33199" lon="3.59646">
        <ele>697.40002441406</ele>
        <time>2022-06-29T07:46:45.000Z</time>
      </trkpt>
      <trkpt lat="44.33199" lon="3.59647">
        <ele>697.59997558594</ele>
        <time>2022-06-29T07:46:46.000Z</time>
      </trkpt>
      <trkpt lat="44.33198" lon="3.59647">
        <ele>697.79998779297</ele>
        <time>2022-06-29T07:46:48.000Z</time>
      </trkpt>
      <trkpt lat="44.33198" lon="3.59647">
        <ele>698</ele>
        <time>2022-06-29T07:46:49.000Z</time>
      </trkpt>
      <trkpt lat="44.33197" lon="3.59647">
        <ele>698.20001220703</ele>
        <time>2022-06-29T07:46:51.000Z</time>
      </trkpt>
      <trkpt lat="44.33197" lon="3.59647">
        <ele>698.40002441406</ele>
        <time>2022-06-29T07:46:52.000Z</time>
      </trkpt>
      <trkpt lat="44.33196" lon="3.5965">
        <ele>699.20001220703</ele>
        <time>2022-06-29T07:46:57.000Z</time>
      </trkpt>
      <trkpt lat="44.33196" lon="3.59651">
        <ele>699.20001220703</ele>
        <time>2022-06-29T07:46:58.000Z</time>
      </trkpt>
      <trkpt lat="44.33196" lon="3.59652">
        <ele>699.20001220703</ele>
        <time>2022-06-29T07:46:59.000Z</time>
      </trkpt>
      <trkpt lat="44.33196" lon="3.59653">
        <ele>699.40002441406</ele>
        <time>2022-06-29T07:47:02.000Z</time>
      </trkpt>
      <trkpt lat="44.33195" lon="3.59656">
        <ele>699.59997558594</ele>
        <time>2022-06-29T07:47:05.000Z</time>
      </trkpt>
      <trkpt lat="44.33194" lon="3.59661">
        <ele>700.40002441406</ele>
        <time>2022-06-29T07:47:11.000Z</time>
      </trkpt>
      <trkpt lat="44.33193" lon="3.59666">
        <ele>701</ele>
        <time>2022-06-29T07:47:17.000Z</time>
      </trkpt>
      <trkpt lat="44.33193" lon="3.59667">
        <ele>701</ele>
        <time>2022-06-29T07:47:18.000Z</time>
      </trkpt>
      <trkpt lat="44.33192" lon="3.59671">
        <ele>701.59997558594</ele>
        <time>2022-06-29T07:47:23.000Z</time>
      </trkpt>
      <trkpt lat="44.33192" lon="3.59675">
        <ele>702</ele>
        <time>2022-06-29T07:47:29.000Z</time>
      </trkpt>
      <trkpt lat="44.33192" lon="3.59676">
        <ele>702.20001220703</ele>
        <time>2022-06-29T07:47:30.000Z</time>
      </trkpt>
      <trkpt lat="44.33193" lon="3.5968">
        <ele>702.59997558594</ele>
        <time>2022-06-29T07:47:35.000Z</time>
      </trkpt>
      <trkpt lat="44.33193" lon="3.59685">
        <ele>703.20001220703</ele>
        <time>2022-06-29T07:47:41.000Z</time>
      </trkpt>
      <trkpt lat="44.33193" lon="3.59685">
        <ele>703.20001220703</ele>
        <time>2022-06-29T07:47:42.000Z</time>
      </trkpt>
      <trkpt lat="44.33193" lon="3.5969">
        <ele>703.59997558594</ele>
        <time>2022-06-29T07:47:48.000Z</time>
      </trkpt>
      <trkpt lat="44.33193" lon="3.59691">
        <ele>703.59997558594</ele>
        <time>2022-06-29T07:47:50.000Z</time>
      </trkpt>
      <trkpt lat="44.33192" lon="3.59695">
        <ele>704</ele>
        <time>2022-06-29T07:47:55.000Z</time>
      </trkpt>
      <trkpt lat="44.33191" lon="3.59699">
        <ele>704.59997558594</ele>
        <time>2022-06-29T07:48:00.000Z</time>
      </trkpt>
      <trkpt lat="44.33191" lon="3.597">
        <ele>704.79998779297</ele>
        <time>2022-06-29T07:48:01.000Z</time>
      </trkpt>
      <trkpt lat="44.33191" lon="3.59702">
        <ele>705</ele>
        <time>2022-06-29T07:48:04.000Z</time>
      </trkpt>
      <trkpt lat="44.3319" lon="3.59707">
        <ele>705.20001220703</ele>
        <time>2022-06-29T07:48:10.000Z</time>
      </trkpt>
      <trkpt lat="44.3319" lon="3.59708">
        <ele>705.40002441406</ele>
        <time>2022-06-29T07:48:12.000Z</time>
      </trkpt>
      <trkpt lat="44.33189" lon="3.59711">
        <ele>705.79998779297</ele>
        <time>2022-06-29T07:48:15.000Z</time>
      </trkpt>
      <trkpt lat="44.33189" lon="3.59713">
        <ele>706</ele>
        <time>2022-06-29T07:48:18.000Z</time>
      </trkpt>
      <trkpt lat="44.33186" lon="3.59717">
        <ele>706</ele>
        <time>2022-06-29T07:48:22.000Z</time>
      </trkpt>
      <trkpt lat="44.33185" lon="3.59719">
        <ele>706.40002441406</ele>
        <time>2022-06-29T07:48:24.000Z</time>
      </trkpt>
      <trkpt lat="44.33184" lon="3.5972">
        <ele>706.59997558594</ele>
        <time>2022-06-29T07:48:25.000Z</time>
      </trkpt>
      <trkpt lat="44.33183" lon="3.59722">
        <ele>706.79998779297</ele>
        <time>2022-06-29T07:48:28.000Z</time>
      </trkpt>
      <trkpt lat="44.3318" lon="3.59726">
        <ele>707.20001220703</ele>
        <time>2022-06-29T07:48:34.000Z</time>
      </trkpt>
      <trkpt lat="44.3318" lon="3.59727">
        <ele>707.40002441406</ele>
        <time>2022-06-29T07:48:36.000Z</time>
      </trkpt>
      <trkpt lat="44.33178" lon="3.59728">
        <ele>707.59997558594</ele>
        <time>2022-06-29T07:48:39.000Z</time>
      </trkpt>
      <trkpt lat="44.33177" lon="3.5973">
        <ele>707.79998779297</ele>
        <time>2022-06-29T07:48:42.000Z</time>
      </trkpt>
      <trkpt lat="44.33174" lon="3.59733">
        <ele>708.20001220703</ele>
        <time>2022-06-29T07:48:47.000Z</time>
      </trkpt>
      <trkpt lat="44.33171" lon="3.59735">
        <ele>708.40002441406</ele>
        <time>2022-06-29T07:48:52.000Z</time>
      </trkpt>
      <trkpt lat="44.3317" lon="3.59736">
        <ele>708.59997558594</ele>
        <time>2022-06-29T07:48:54.000Z</time>
      </trkpt>
      <trkpt lat="44.33168" lon="3.59737">
        <ele>708.79998779297</ele>
        <time>2022-06-29T07:48:58.000Z</time>
      </trkpt>
      <trkpt lat="44.33167" lon="3.59737">
        <ele>708.79998779297</ele>
        <time>2022-06-29T07:49:00.000Z</time>
      </trkpt>
      <trkpt lat="44.33163" lon="3.59738">
        <ele>709.40002441406</ele>
        <time>2022-06-29T07:49:06.000Z</time>
      </trkpt>
      <trkpt lat="44.33163" lon="3.59739">
        <ele>709.59997558594</ele>
        <time>2022-06-29T07:49:09.000Z</time>
      </trkpt>
      <trkpt lat="44.33162" lon="3.59741">
        <ele>710</ele>
        <time>2022-06-29T07:49:12.000Z</time>
      </trkpt>
      <trkpt lat="44.3316" lon="3.59744">
        <ele>710.59997558594</ele>
        <time>2022-06-29T07:49:18.000Z</time>
      </trkpt>
      <trkpt lat="44.33158" lon="3.59746">
        <ele>711</ele>
        <time>2022-06-29T07:49:21.000Z</time>
      </trkpt>
      <trkpt lat="44.33156" lon="3.59748">
        <ele>711.59997558594</ele>
        <time>2022-06-29T07:49:26.000Z</time>
      </trkpt>
      <trkpt lat="44.33152" lon="3.59752">
        <ele>712</ele>
        <time>2022-06-29T07:49:32.000Z</time>
      </trkpt>
      <trkpt lat="44.33152" lon="3.59753">
        <ele>712.40002441406</ele>
        <time>2022-06-29T07:49:33.000Z</time>
      </trkpt>
      <trkpt lat="44.33151" lon="3.59755">
        <ele>712.79998779297</ele>
        <time>2022-06-29T07:49:37.000Z</time>
      </trkpt>
      <trkpt lat="44.33149" lon="3.59758">
        <ele>713.20001220703</ele>
        <time>2022-06-29T07:49:41.000Z</time>
      </trkpt>
      <trkpt lat="44.33149" lon="3.5976">
        <ele>713.40002441406</ele>
        <time>2022-06-29T07:49:44.000Z</time>
      </trkpt>
      <trkpt lat="44.33149" lon="3.59763">
        <ele>713.79998779297</ele>
        <time>2022-06-29T07:49:50.000Z</time>
      </trkpt>
      <trkpt lat="44.33149" lon="3.59766">
        <ele>714.40002441406</ele>
        <time>2022-06-29T07:49:54.000Z</time>
      </trkpt>
      <trkpt lat="44.33149" lon="3.59766">
        <ele>714.40002441406</ele>
        <time>2022-06-29T07:49:55.000Z</time>
      </trkpt>
      <trkpt lat="44.33149" lon="3.59767">
        <ele>714.40002441406</ele>
        <time>2022-06-29T07:49:56.000Z</time>
      </trkpt>
      <trkpt lat="44.33149" lon="3.5977">
        <ele>715</ele>
        <time>2022-06-29T07:50:02.000Z</time>
      </trkpt>
      <trkpt lat="44.33149" lon="3.59772">
        <ele>715.40002441406</ele>
        <time>2022-06-29T07:50:06.000Z</time>
      </trkpt>
      <trkpt lat="44.33148" lon="3.59773">
        <ele>715.59997558594</ele>
        <time>2022-06-29T07:50:08.000Z</time>
      </trkpt>
      <trkpt lat="44.33148" lon="3.59775">
        <ele>716</ele>
        <time>2022-06-29T07:50:12.000Z</time>
      </trkpt>
      <trkpt lat="44.33147" lon="3.59777">
        <ele>716.40002441406</ele>
        <time>2022-06-29T07:50:18.000Z</time>
      </trkpt>
      <trkpt lat="44.33145" lon="3.59779">
        <ele>717</ele>
        <time>2022-06-29T07:50:24.000Z</time>
      </trkpt>
      <trkpt lat="44.33143" lon="3.59782">
        <ele>717.40002441406</ele>
        <time>2022-06-29T07:50:29.000Z</time>
      </trkpt>
      <trkpt lat="44.33141" lon="3.59786">
        <ele>718</ele>
        <time>2022-06-29T07:50:35.000Z</time>
      </trkpt>
      <trkpt lat="44.3314" lon="3.59787">
        <ele>718.40002441406</ele>
        <time>2022-06-29T07:50:37.000Z</time>
      </trkpt>
      <trkpt lat="44.3314" lon="3.59788">
        <ele>718.40002441406</ele>
        <time>2022-06-29T07:50:39.000Z</time>
      </trkpt>
      <trkpt lat="44.3314" lon="3.59793">
        <ele>719.20001220703</ele>
        <time>2022-06-29T07:50:45.000Z</time>
      </trkpt>
      <trkpt lat="44.3314" lon="3.59795">
        <ele>719.59997558594</ele>
        <time>2022-06-29T07:50:49.000Z</time>
      </trkpt>
      <trkpt lat="44.3314" lon="3.59796">
        <ele>719.59997558594</ele>
        <time>2022-06-29T07:50:50.000Z</time>
      </trkpt>
      <trkpt lat="44.33141" lon="3.59798">
        <ele>720.20001220703</ele>
        <time>2022-06-29T07:50:56.000Z</time>
      </trkpt>
      <trkpt lat="44.33141" lon="3.59799">
        <ele>720.59997558594</ele>
        <time>2022-06-29T07:50:59.000Z</time>
      </trkpt>
      <trkpt lat="44.33141" lon="3.59801">
        <ele>721.20001220703</ele>
        <time>2022-06-29T07:51:03.000Z</time>
      </trkpt>
      <trkpt lat="44.33141" lon="3.59804">
        <ele>721.59997558594</ele>
        <time>2022-06-29T07:51:08.000Z</time>
      </trkpt>
      <trkpt lat="44.33138" lon="3.59808">
        <ele>721.79998779297</ele>
        <time>2022-06-29T07:51:13.000Z</time>
      </trkpt>
      <trkpt lat="44.33138" lon="3.59809">
        <ele>722</ele>
        <time>2022-06-29T07:51:15.000Z</time>
      </trkpt>
      <trkpt lat="44.33136" lon="3.59812">
        <ele>722.59997558594</ele>
        <time>2022-06-29T07:51:19.000Z</time>
      </trkpt>
      <trkpt lat="44.33136" lon="3.59813">
        <ele>722.79998779297</ele>
        <time>2022-06-29T07:51:20.000Z</time>
      </trkpt>
      <trkpt lat="44.33135" lon="3.59817">
        <ele>723.40002441406</ele>
        <time>2022-06-29T07:51:26.000Z</time>
      </trkpt>
      <trkpt lat="44.33135" lon="3.59818">
        <ele>723.59997558594</ele>
        <time>2022-06-29T07:51:28.000Z</time>
      </trkpt>
      <trkpt lat="44.33135" lon="3.5982">
        <ele>724</ele>
        <time>2022-06-29T07:51:34.000Z</time>
      </trkpt>
      <trkpt lat="44.33137" lon="3.59821">
        <ele>724</ele>
        <time>2022-06-29T07:51:40.000Z</time>
      </trkpt>
      <trkpt lat="44.33138" lon="3.59822">
        <ele>724</ele>
        <time>2022-06-29T07:51:41.000Z</time>
      </trkpt>
      <trkpt lat="44.33138" lon="3.59821">
        <ele>724.20001220703</ele>
        <time>2022-06-29T07:51:42.000Z</time>
      </trkpt>
      <trkpt lat="44.3314" lon="3.59822">
        <ele>724.59997558594</ele>
        <time>2022-06-29T07:51:45.000Z</time>
      </trkpt>
      <trkpt lat="44.33141" lon="3.59824">
        <ele>724.59997558594</ele>
        <time>2022-06-29T07:51:47.000Z</time>
      </trkpt>
      <trkpt lat="44.3314" lon="3.59827">
        <ele>725</ele>
        <time>2022-06-29T07:51:52.000Z</time>
      </trkpt>
      <trkpt lat="44.33139" lon="3.59829">
        <ele>725.59997558594</ele>
        <time>2022-06-29T07:51:58.000Z</time>
      </trkpt>
      <trkpt lat="44.33138" lon="3.5983">
        <ele>726.20001220703</ele>
        <time>2022-06-29T07:52:04.000Z</time>
      </trkpt>
      <trkpt lat="44.33137" lon="3.5983">
        <ele>726.40002441406</ele>
        <time>2022-06-29T07:52:05.000Z</time>
      </trkpt>
      <trkpt lat="44.33137" lon="3.59831">
        <ele>726.79998779297</ele>
        <time>2022-06-29T07:52:09.000Z</time>
      </trkpt>
      <trkpt lat="44.33138" lon="3.59833">
        <ele>727.40002441406</ele>
        <time>2022-06-29T07:52:15.000Z</time>
      </trkpt>
      <trkpt lat="44.33139" lon="3.59834">
        <ele>727.40002441406</ele>
        <time>2022-06-29T07:52:16.000Z</time>
      </trkpt>
      <trkpt lat="44.33141" lon="3.59834">
        <ele>727.79998779297</ele>
        <time>2022-06-29T07:52:22.000Z</time>
      </trkpt>
      <trkpt lat="44.33142" lon="3.59835">
        <ele>728</ele>
        <time>2022-06-29T07:52:25.000Z</time>
      </trkpt>
      <trkpt lat="44.33143" lon="3.59835">
        <ele>728.20001220703</ele>
        <time>2022-06-29T07:52:27.000Z</time>
      </trkpt>
      <trkpt lat="44.33144" lon="3.59835">
        <ele>728.59997558594</ele>
        <time>2022-06-29T07:52:32.000Z</time>
      </trkpt>
      <trkpt lat="44.33144" lon="3.59835">
        <ele>728.59997558594</ele>
        <time>2022-06-29T07:52:35.000Z</time>
      </trkpt>
      <trkpt lat="44.33145" lon="3.59835">
        <ele>729</ele>
        <time>2022-06-29T07:52:41.000Z</time>
      </trkpt>
      <trkpt lat="44.33146" lon="3.59836">
        <ele>729</ele>
        <time>2022-06-29T07:52:45.000Z</time>
      </trkpt>
      <trkpt lat="44.33148" lon="3.59836">
        <ele>729.40002441406</ele>
        <time>2022-06-29T07:52:50.000Z</time>
      </trkpt>
      <trkpt lat="44.33148" lon="3.59836">
        <ele>729.59997558594</ele>
        <time>2022-06-29T07:52:56.000Z</time>
      </trkpt>
      <trkpt lat="44.33148" lon="3.59835">
        <ele>729.40002441406</ele>
        <time>2022-06-29T07:53:02.000Z</time>
      </trkpt>
      <trkpt lat="44.33148" lon="3.59836">
        <ele>729.40002441406</ele>
        <time>2022-06-29T07:53:08.000Z</time>
      </trkpt>
      <trkpt lat="44.33148" lon="3.59836">
        <ele>729.59997558594</ele>
        <time>2022-06-29T07:53:09.000Z</time>
      </trkpt>
      <trkpt lat="44.33146" lon="3.59839">
        <ele>729.79998779297</ele>
        <time>2022-06-29T07:53:15.000Z</time>
      </trkpt>
      <trkpt lat="44.33145" lon="3.59841">
        <ele>730</ele>
        <time>2022-06-29T07:53:18.000Z</time>
      </trkpt>
      <trkpt lat="44.33145" lon="3.59842">
        <ele>730.40002441406</ele>
        <time>2022-06-29T07:53:20.000Z</time>
      </trkpt>
      <trkpt lat="44.33143" lon="3.59841">
        <ele>731</ele>
        <time>2022-06-29T07:53:26.000Z</time>
      </trkpt>
      <trkpt lat="44.33143" lon="3.59841">
        <ele>731</ele>
        <time>2022-06-29T07:53:28.000Z</time>
      </trkpt>
      <trkpt lat="44.33141" lon="3.59843">
        <ele>731.40002441406</ele>
        <time>2022-06-29T07:53:32.000Z</time>
      </trkpt>
      <trkpt lat="44.33138" lon="3.59849">
        <ele>732.20001220703</ele>
        <time>2022-06-29T07:53:38.000Z</time>
      </trkpt>
      <trkpt lat="44.33137" lon="3.5985">
        <ele>732.40002441406</ele>
        <time>2022-06-29T07:53:41.000Z</time>
      </trkpt>
      <trkpt lat="44.33135" lon="3.59854">
        <ele>732.79998779297</ele>
        <time>2022-06-29T07:53:46.000Z</time>
      </trkpt>
      <trkpt lat="44.33134" lon="3.59856">
        <ele>733.20001220703</ele>
        <time>2022-06-29T07:53:50.000Z</time>
      </trkpt>
      <trkpt lat="44.33133" lon="3.59857">
        <ele>733.40002441406</ele>
        <time>2022-06-29T07:53:54.000Z</time>
      </trkpt>
      <trkpt lat="44.3313" lon="3.59858">
        <ele>734.20001220703</ele>
        <time>2022-06-29T07:54:00.000Z</time>
      </trkpt>
      <trkpt lat="44.3313" lon="3.59859">
        <ele>734.20001220703</ele>
        <time>2022-06-29T07:54:01.000Z</time>
      </trkpt>
      <trkpt lat="44.33127" lon="3.5986">
        <ele>734.59997558594</ele>
        <time>2022-06-29T07:54:07.000Z</time>
      </trkpt>
      <trkpt lat="44.33124" lon="3.59863">
        <ele>735.20001220703</ele>
        <time>2022-06-29T07:54:13.000Z</time>
      </trkpt>
      <trkpt lat="44.33124" lon="3.59863">
        <ele>735.20001220703</ele>
        <time>2022-06-29T07:54:14.000Z</time>
      </trkpt>
      <trkpt lat="44.33123" lon="3.59863">
        <ele>735.20001220703</ele>
        <time>2022-06-29T07:54:15.000Z</time>
      </trkpt>
      <trkpt lat="44.33121" lon="3.59866">
        <ele>735.79998779297</ele>
        <time>2022-06-29T07:54:21.000Z</time>
      </trkpt>
      <trkpt lat="44.33119" lon="3.59866">
        <ele>736.40002441406</ele>
        <time>2022-06-29T07:54:26.000Z</time>
      </trkpt>
      <trkpt lat="44.33117" lon="3.59869">
        <ele>736.79998779297</ele>
        <time>2022-06-29T07:54:31.000Z</time>
      </trkpt>
      <trkpt lat="44.33114" lon="3.59872">
        <ele>737.40002441406</ele>
        <time>2022-06-29T07:54:37.000Z</time>
      </trkpt>
      <trkpt lat="44.33114" lon="3.59873">
        <ele>737.40002441406</ele>
        <time>2022-06-29T07:54:38.000Z</time>
      </trkpt>
      <trkpt lat="44.33111" lon="3.59874">
        <ele>737.59997558594</ele>
        <time>2022-06-29T07:54:44.000Z</time>
      </trkpt>
      <trkpt lat="44.3311" lon="3.59875">
        <ele>738</ele>
        <time>2022-06-29T07:54:47.000Z</time>
      </trkpt>
      <trkpt lat="44.33109" lon="3.59877">
        <ele>738.40002441406</ele>
        <time>2022-06-29T07:54:51.000Z</time>
      </trkpt>
      <trkpt lat="44.33108" lon="3.59879">
        <ele>739</ele>
        <time>2022-06-29T07:54:57.000Z</time>
      </trkpt>
      <trkpt lat="44.33108" lon="3.59881">
        <ele>739.20001220703</ele>
        <time>2022-06-29T07:55:00.000Z</time>
      </trkpt>
      <trkpt lat="44.33107" lon="3.59883">
        <ele>739.59997558594</ele>
        <time>2022-06-29T07:55:03.000Z</time>
      </trkpt>
      <trkpt lat="44.33105" lon="3.59886">
        <ele>739.79998779297</ele>
        <time>2022-06-29T07:55:09.000Z</time>
      </trkpt>
      <trkpt lat="44.33106" lon="3.59887">
        <ele>739.79998779297</ele>
        <time>2022-06-29T07:55:11.000Z</time>
      </trkpt>
      <trkpt lat="44.33107" lon="3.59887">
        <ele>739.79998779297</ele>
        <time>2022-06-29T07:55:17.000Z</time>
      </trkpt>
      <trkpt lat="44.33104" lon="3.59887">
        <ele>740</ele>
        <time>2022-06-29T07:55:23.000Z</time>
      </trkpt>
      <trkpt lat="44.33104" lon="3.59888">
        <ele>740</ele>
        <time>2022-06-29T07:55:24.000Z</time>
      </trkpt>
      <trkpt lat="44.331" lon="3.59888">
        <ele>740.40002441406</ele>
        <time>2022-06-29T07:55:29.000Z</time>
      </trkpt>
      <trkpt lat="44.33098" lon="3.59889">
        <ele>740.59997558594</ele>
        <time>2022-06-29T07:55:32.000Z</time>
      </trkpt>
      <trkpt lat="44.33097" lon="3.59888">
        <ele>740.79998779297</ele>
        <time>2022-06-29T07:55:34.000Z</time>
      </trkpt>
      <trkpt lat="44.33093" lon="3.59887">
        <ele>741.20001220703</ele>
        <time>2022-06-29T07:55:40.000Z</time>
      </trkpt>
      <trkpt lat="44.33089" lon="3.59885">
        <ele>741.40002441406</ele>
        <time>2022-06-29T07:55:46.000Z</time>
      </trkpt>
      <trkpt lat="44.33085" lon="3.59886">
        <ele>741.59997558594</ele>
        <time>2022-06-29T07:55:52.000Z</time>
      </trkpt>
      <trkpt lat="44.33084" lon="3.59886">
        <ele>741.79998779297</ele>
        <time>2022-06-29T07:55:53.000Z</time>
      </trkpt>
      <trkpt lat="44.3308" lon="3.59888">
        <ele>742</ele>
        <time>2022-06-29T07:55:59.000Z</time>
      </trkpt>
      <trkpt lat="44.33078" lon="3.59889">
        <ele>742.40002441406</ele>
        <time>2022-06-29T07:56:04.000Z</time>
      </trkpt>
      <trkpt lat="44.33076" lon="3.5989">
        <ele>742.59997558594</ele>
        <time>2022-06-29T07:56:07.000Z</time>
      </trkpt>
      <trkpt lat="44.33073" lon="3.59891">
        <ele>743</ele>
        <time>2022-06-29T07:56:13.000Z</time>
      </trkpt>
      <trkpt lat="44.33071" lon="3.59894">
        <ele>743.40002441406</ele>
        <time>2022-06-29T07:56:18.000Z</time>
      </trkpt>
      <trkpt lat="44.3307" lon="3.59896">
        <ele>743.59997558594</ele>
        <time>2022-06-29T07:56:21.000Z</time>
      </trkpt>
      <trkpt lat="44.33067" lon="3.59899">
        <ele>744</ele>
        <time>2022-06-29T07:56:27.000Z</time>
      </trkpt>
      <trkpt lat="44.33066" lon="3.59902">
        <ele>744.40002441406</ele>
        <time>2022-06-29T07:56:31.000Z</time>
      </trkpt>
      <trkpt lat="44.33062" lon="3.59906">
        <ele>744.79998779297</ele>
        <time>2022-06-29T07:56:37.000Z</time>
      </trkpt>
      <trkpt lat="44.33059" lon="3.59908">
        <ele>745</ele>
        <time>2022-06-29T07:56:43.000Z</time>
      </trkpt>
      <trkpt lat="44.33059" lon="3.59909">
        <ele>745.20001220703</ele>
        <time>2022-06-29T07:56:46.000Z</time>
      </trkpt>
      <trkpt lat="44.33057" lon="3.59913">
        <ele>745.40002441406</ele>
        <time>2022-06-29T07:56:52.000Z</time>
      </trkpt>
      <trkpt lat="44.33055" lon="3.59915">
        <ele>745.79998779297</ele>
        <time>2022-06-29T07:56:56.000Z</time>
      </trkpt>
      <trkpt lat="44.33054" lon="3.59917">
        <ele>746</ele>
        <time>2022-06-29T07:56:58.000Z</time>
      </trkpt>
      <trkpt lat="44.33051" lon="3.5992">
        <ele>746.59997558594</ele>
        <time>2022-06-29T07:57:04.000Z</time>
      </trkpt>
      <trkpt lat="44.3305" lon="3.59921">
        <ele>746.79998779297</ele>
        <time>2022-06-29T07:57:06.000Z</time>
      </trkpt>
      <trkpt lat="44.33047" lon="3.59925">
        <ele>747.40002441406</ele>
        <time>2022-06-29T07:57:12.000Z</time>
      </trkpt>
      <trkpt lat="44.33044" lon="3.59927">
        <ele>747.59997558594</ele>
        <time>2022-06-29T07:57:16.000Z</time>
      </trkpt>
      <trkpt lat="44.33044" lon="3.59927">
        <ele>747.59997558594</ele>
        <time>2022-06-29T07:57:17.000Z</time>
      </trkpt>
      <trkpt lat="44.33043" lon="3.59929">
        <ele>747.79998779297</ele>
        <time>2022-06-29T07:57:19.000Z</time>
      </trkpt>
      <trkpt lat="44.3304" lon="3.59932">
        <ele>748.59997558594</ele>
        <time>2022-06-29T07:57:24.000Z</time>
      </trkpt>
      <trkpt lat="44.3304" lon="3.59933">
        <ele>748.59997558594</ele>
        <time>2022-06-29T07:57:25.000Z</time>
      </trkpt>
      <trkpt lat="44.33039" lon="3.59933">
        <ele>748.79998779297</ele>
        <time>2022-06-29T07:57:26.000Z</time>
      </trkpt>
      <trkpt lat="44.33039" lon="3.59934">
        <ele>748.79998779297</ele>
        <time>2022-06-29T07:57:27.000Z</time>
      </trkpt>
      <trkpt lat="44.33035" lon="3.59939">
        <ele>749.20001220703</ele>
        <time>2022-06-29T07:57:33.000Z</time>
      </trkpt>
      <trkpt lat="44.33033" lon="3.59944">
        <ele>749.20001220703</ele>
        <time>2022-06-29T07:57:39.000Z</time>
      </trkpt>
      <trkpt lat="44.3303" lon="3.59949">
        <ele>749.79998779297</ele>
        <time>2022-06-29T07:57:45.000Z</time>
      </trkpt>
      <trkpt lat="44.33029" lon="3.5995">
        <ele>750</ele>
        <time>2022-06-29T07:57:47.000Z</time>
      </trkpt>
      <trkpt lat="44.33029" lon="3.59954">
        <ele>750.20001220703</ele>
        <time>2022-06-29T07:57:52.000Z</time>
      </trkpt>
      <trkpt lat="44.33028" lon="3.59957">
        <ele>750.59997558594</ele>
        <time>2022-06-29T07:57:58.000Z</time>
      </trkpt>
      <trkpt lat="44.33026" lon="3.59959">
        <ele>750.79998779297</ele>
        <time>2022-06-29T07:58:04.000Z</time>
      </trkpt>
      <trkpt lat="44.33025" lon="3.5996">
        <ele>750.79998779297</ele>
        <time>2022-06-29T07:58:06.000Z</time>
      </trkpt>
      <trkpt lat="44.33024" lon="3.59961">
        <ele>751</ele>
        <time>2022-06-29T07:58:07.000Z</time>
      </trkpt>
      <trkpt lat="44.33024" lon="3.59962">
        <ele>751</ele>
        <time>2022-06-29T07:58:08.000Z</time>
      </trkpt>
      <trkpt lat="44.33021" lon="3.59963">
        <ele>751.20001220703</ele>
        <time>2022-06-29T07:58:14.000Z</time>
      </trkpt>
      <trkpt lat="44.33018" lon="3.59966">
        <ele>752</ele>
        <time>2022-06-29T07:58:20.000Z</time>
      </trkpt>
      <trkpt lat="44.33018" lon="3.59967">
        <ele>752</ele>
        <time>2022-06-29T07:58:21.000Z</time>
      </trkpt>
      <trkpt lat="44.33015" lon="3.59968">
        <ele>752.40002441406</ele>
        <time>2022-06-29T07:58:27.000Z</time>
      </trkpt>
      <trkpt lat="44.33011" lon="3.59972">
        <ele>752.79998779297</ele>
        <time>2022-06-29T07:58:33.000Z</time>
      </trkpt>
      <trkpt lat="44.33011" lon="3.59973">
        <ele>753</ele>
        <time>2022-06-29T07:58:35.000Z</time>
      </trkpt>
      <trkpt lat="44.3301" lon="3.59974">
        <ele>753</ele>
        <time>2022-06-29T07:58:36.000Z</time>
      </trkpt>
      <trkpt lat="44.33008" lon="3.59977">
        <ele>753.79998779297</ele>
        <time>2022-06-29T07:58:42.000Z</time>
      </trkpt>
      <trkpt lat="44.33005" lon="3.59979">
        <ele>754</ele>
        <time>2022-06-29T07:58:46.000Z</time>
      </trkpt>
      <trkpt lat="44.33003" lon="3.5998">
        <ele>754.40002441406</ele>
        <time>2022-06-29T07:58:49.000Z</time>
      </trkpt>
      <trkpt lat="44.33" lon="3.59984">
        <ele>754.59997558594</ele>
        <time>2022-06-29T07:58:55.000Z</time>
      </trkpt>
      <trkpt lat="44.32996" lon="3.59986">
        <ele>754.79998779297</ele>
        <time>2022-06-29T07:59:01.000Z</time>
      </trkpt>
      <trkpt lat="44.32995" lon="3.59987">
        <ele>755.20001220703</ele>
        <time>2022-06-29T07:59:03.000Z</time>
      </trkpt>
      <trkpt lat="44.32995" lon="3.59988">
        <ele>755.20001220703</ele>
        <time>2022-06-29T07:59:04.000Z</time>
      </trkpt>
      <trkpt lat="44.32991" lon="3.59991">
        <ele>755.59997558594</ele>
        <time>2022-06-29T07:59:10.000Z</time>
      </trkpt>
      <trkpt lat="44.32988" lon="3.59994">
        <ele>755.79998779297</ele>
        <time>2022-06-29T07:59:16.000Z</time>
      </trkpt>
      <trkpt lat="44.32987" lon="3.59997">
        <ele>756</ele>
        <time>2022-06-29T07:59:20.000Z</time>
      </trkpt>
      <trkpt lat="44.32986" lon="3.59998">
        <ele>756.20001220703</ele>
        <time>2022-06-29T07:59:21.000Z</time>
      </trkpt>
      <trkpt lat="44.32982" lon="3.60002">
        <ele>756.59997558594</ele>
        <time>2022-06-29T07:59:27.000Z</time>
      </trkpt>
      <trkpt lat="44.32979" lon="3.60005">
        <ele>757.20001220703</ele>
        <time>2022-06-29T07:59:33.000Z</time>
      </trkpt>
      <trkpt lat="44.32978" lon="3.60007">
        <ele>757.20001220703</ele>
        <time>2022-06-29T07:59:35.000Z</time>
      </trkpt>
      <trkpt lat="44.32978" lon="3.60007">
        <ele>757.20001220703</ele>
        <time>2022-06-29T07:59:36.000Z</time>
      </trkpt>
      <trkpt lat="44.32975" lon="3.60012">
        <ele>757.40002441406</ele>
        <time>2022-06-29T07:59:42.000Z</time>
      </trkpt>
      <trkpt lat="44.32972" lon="3.60015">
        <ele>757.59997558594</ele>
        <time>2022-06-29T07:59:48.000Z</time>
      </trkpt>
      <trkpt lat="44.32972" lon="3.60016">
        <ele>757.79998779297</ele>
        <time>2022-06-29T07:59:49.000Z</time>
      </trkpt>
      <trkpt lat="44.3297" lon="3.6002">
        <ele>758.20001220703</ele>
        <time>2022-06-29T07:59:55.000Z</time>
      </trkpt>
      <trkpt lat="44.32969" lon="3.60022">
        <ele>758.40002441406</ele>
        <time>2022-06-29T07:59:57.000Z</time>
      </trkpt>
      <trkpt lat="44.32967" lon="3.60027">
        <ele>758.79998779297</ele>
        <time>2022-06-29T08:00:03.000Z</time>
      </trkpt>
      <trkpt lat="44.32966" lon="3.60028">
        <ele>758.79998779297</ele>
        <time>2022-06-29T08:00:04.000Z</time>
      </trkpt>
      <trkpt lat="44.32965" lon="3.60034">
        <ele>759</ele>
        <time>2022-06-29T08:00:10.000Z</time>
      </trkpt>
      <trkpt lat="44.32963" lon="3.60038">
        <ele>759.40002441406</ele>
        <time>2022-06-29T08:00:14.000Z</time>
      </trkpt>
      <trkpt lat="44.32963" lon="3.60043">
        <ele>759.79998779297</ele>
        <time>2022-06-29T08:00:19.000Z</time>
      </trkpt>
      <trkpt lat="44.32962" lon="3.60048">
        <ele>760.20001220703</ele>
        <time>2022-06-29T08:00:25.000Z</time>
      </trkpt>
      <trkpt lat="44.32962" lon="3.6005">
        <ele>760.40002441406</ele>
        <time>2022-06-29T08:00:27.000Z</time>
      </trkpt>
      <trkpt lat="44.32961" lon="3.60055">
        <ele>760.79998779297</ele>
        <time>2022-06-29T08:00:32.000Z</time>
      </trkpt>
      <trkpt lat="44.3296" lon="3.60059">
        <ele>761</ele>
        <time>2022-06-29T08:00:38.000Z</time>
      </trkpt>
      <trkpt lat="44.32959" lon="3.60063">
        <ele>761.59997558594</ele>
        <time>2022-06-29T08:00:43.000Z</time>
      </trkpt>
      <trkpt lat="44.32959" lon="3.60065">
        <ele>761.79998779297</ele>
        <time>2022-06-29T08:00:45.000Z</time>
      </trkpt>
      <trkpt lat="44.32958" lon="3.6007">
        <ele>762.20001220703</ele>
        <time>2022-06-29T08:00:51.000Z</time>
      </trkpt>
      <trkpt lat="44.32958" lon="3.60072">
        <ele>762.40002441406</ele>
        <time>2022-06-29T08:00:53.000Z</time>
      </trkpt>
      <trkpt lat="44.32957" lon="3.60073">
        <ele>762.40002441406</ele>
        <time>2022-06-29T08:00:54.000Z</time>
      </trkpt>
      <trkpt lat="44.32957" lon="3.60074">
        <ele>762.59997558594</ele>
        <time>2022-06-29T08:00:55.000Z</time>
      </trkpt>
      <trkpt lat="44.32957" lon="3.60076">
        <ele>762.59997558594</ele>
        <time>2022-06-29T08:00:57.000Z</time>
      </trkpt>
      <trkpt lat="44.32956" lon="3.60081">
        <ele>763</ele>
        <time>2022-06-29T08:01:03.000Z</time>
      </trkpt>
      <trkpt lat="44.32956" lon="3.60086">
        <ele>763.40002441406</ele>
        <time>2022-06-29T08:01:09.000Z</time>
      </trkpt>
      <trkpt lat="44.32955" lon="3.60088">
        <ele>763.59997558594</ele>
        <time>2022-06-29T08:01:11.000Z</time>
      </trkpt>
      <trkpt lat="44.32955" lon="3.60089">
        <ele>763.59997558594</ele>
        <time>2022-06-29T08:01:12.000Z</time>
      </trkpt>
      <trkpt lat="44.32956" lon="3.60094">
        <ele>764.40002441406</ele>
        <time>2022-06-29T08:01:18.000Z</time>
      </trkpt>
      <trkpt lat="44.32956" lon="3.60097">
        <ele>764.59997558594</ele>
        <time>2022-06-29T08:01:23.000Z</time>
      </trkpt>
      <trkpt lat="44.32956" lon="3.60099">
        <ele>765</ele>
        <time>2022-06-29T08:01:25.000Z</time>
      </trkpt>
      <trkpt lat="44.32956" lon="3.60104">
        <ele>765.40002441406</ele>
        <time>2022-06-29T08:01:31.000Z</time>
      </trkpt>
      <trkpt lat="44.32956" lon="3.60105">
        <ele>765.79998779297</ele>
        <time>2022-06-29T08:01:33.000Z</time>
      </trkpt>
      <trkpt lat="44.32955" lon="3.6011">
        <ele>765.79998779297</ele>
        <time>2022-06-29T08:01:38.000Z</time>
      </trkpt>
      <trkpt lat="44.32953" lon="3.60116">
        <ele>766.20001220703</ele>
        <time>2022-06-29T08:01:44.000Z</time>
      </trkpt>
      <trkpt lat="44.32952" lon="3.60118">
        <ele>766.40002441406</ele>
        <time>2022-06-29T08:01:47.000Z</time>
      </trkpt>
      <trkpt lat="44.32952" lon="3.60121">
        <ele>766.79998779297</ele>
        <time>2022-06-29T08:01:50.000Z</time>
      </trkpt>
      <trkpt lat="44.32952" lon="3.60121">
        <ele>767</ele>
        <time>2022-06-29T08:01:51.000Z</time>
      </trkpt>
      <trkpt lat="44.32949" lon="3.60126">
        <ele>767.79998779297</ele>
        <time>2022-06-29T08:01:57.000Z</time>
      </trkpt>
      <trkpt lat="44.32948" lon="3.60127">
        <ele>767.79998779297</ele>
        <time>2022-06-29T08:01:59.000Z</time>
      </trkpt>
      <trkpt lat="44.32946" lon="3.6013">
        <ele>768</ele>
        <time>2022-06-29T08:02:03.000Z</time>
      </trkpt>
      <trkpt lat="44.32946" lon="3.60131">
        <ele>768</ele>
        <time>2022-06-29T08:02:04.000Z</time>
      </trkpt>
      <trkpt lat="44.32944" lon="3.60136">
        <ele>768.59997558594</ele>
        <time>2022-06-29T08:02:10.000Z</time>
      </trkpt>
      <trkpt lat="44.32943" lon="3.60139">
        <ele>768.79998779297</ele>
        <time>2022-06-29T08:02:13.000Z</time>
      </trkpt>
      <trkpt lat="44.32943" lon="3.60142">
        <ele>769</ele>
        <time>2022-06-29T08:02:16.000Z</time>
      </trkpt>
      <trkpt lat="44.32943" lon="3.60143">
        <ele>769</ele>
        <time>2022-06-29T08:02:17.000Z</time>
      </trkpt>
      <trkpt lat="44.32943" lon="3.6015">
        <ele>769.59997558594</ele>
        <time>2022-06-29T08:02:23.000Z</time>
      </trkpt>
      <trkpt lat="44.32945" lon="3.60152">
        <ele>769.59997558594</ele>
        <time>2022-06-29T08:02:27.000Z</time>
      </trkpt>
      <trkpt lat="44.32947" lon="3.60153">
        <ele>770</ele>
        <time>2022-06-29T08:02:30.000Z</time>
      </trkpt>
      <trkpt lat="44.32949" lon="3.60154">
        <ele>770</ele>
        <time>2022-06-29T08:02:32.000Z</time>
      </trkpt>
      <trkpt lat="44.32951" lon="3.60154">
        <ele>770.20001220703</ele>
        <time>2022-06-29T08:02:35.000Z</time>
      </trkpt>
      <trkpt lat="44.32953" lon="3.60153">
        <ele>770.20001220703</ele>
        <time>2022-06-29T08:02:38.000Z</time>
      </trkpt>
      <trkpt lat="44.32954" lon="3.60152">
        <ele>770.59997558594</ele>
        <time>2022-06-29T08:02:40.000Z</time>
      </trkpt>
      <trkpt lat="44.32956" lon="3.6015">
        <ele>771</ele>
        <time>2022-06-29T08:02:44.000Z</time>
      </trkpt>
      <trkpt lat="44.3296" lon="3.60147">
        <ele>771.20001220703</ele>
        <time>2022-06-29T08:02:50.000Z</time>
      </trkpt>
      <trkpt lat="44.3296" lon="3.60146">
        <ele>771.20001220703</ele>
        <time>2022-06-29T08:02:51.000Z</time>
      </trkpt>
      <trkpt lat="44.32964" lon="3.60143">
        <ele>772</ele>
        <time>2022-06-29T08:02:57.000Z</time>
      </trkpt>
      <trkpt lat="44.32964" lon="3.60142">
        <ele>772</ele>
        <time>2022-06-29T08:02:58.000Z</time>
      </trkpt>
      <trkpt lat="44.32965" lon="3.60141">
        <ele>772.20001220703</ele>
        <time>2022-06-29T08:03:00.000Z</time>
      </trkpt>
      <trkpt lat="44.32967" lon="3.60138">
        <ele>772.59997558594</ele>
        <time>2022-06-29T08:03:05.000Z</time>
      </trkpt>
      <trkpt lat="44.3297" lon="3.60136">
        <ele>773</ele>
        <time>2022-06-29T08:03:10.000Z</time>
      </trkpt>
      <trkpt lat="44.32974" lon="3.60133">
        <ele>773.59997558594</ele>
        <time>2022-06-29T08:03:16.000Z</time>
      </trkpt>
      <trkpt lat="44.32975" lon="3.60132">
        <ele>773.79998779297</ele>
        <time>2022-06-29T08:03:18.000Z</time>
      </trkpt>
      <trkpt lat="44.32976" lon="3.6013">
        <ele>774</ele>
        <time>2022-06-29T08:03:20.000Z</time>
      </trkpt>
      <trkpt lat="44.32976" lon="3.6013">
        <ele>774.20001220703</ele>
        <time>2022-06-29T08:03:21.000Z</time>
      </trkpt>
      <trkpt lat="44.32978" lon="3.60127">
        <ele>774.59997558594</ele>
        <time>2022-06-29T08:03:27.000Z</time>
      </trkpt>
      <trkpt lat="44.32979" lon="3.60127">
        <ele>774.79998779297</ele>
        <time>2022-06-29T08:03:31.000Z</time>
      </trkpt>
      <trkpt lat="44.3298" lon="3.60124">
        <ele>775</ele>
        <time>2022-06-29T08:03:37.000Z</time>
      </trkpt>
      <trkpt lat="44.32982" lon="3.60121">
        <ele>775.20001220703</ele>
        <time>2022-06-29T08:03:41.000Z</time>
      </trkpt>
      <trkpt lat="44.32985" lon="3.60118">
        <ele>775.20001220703</ele>
        <time>2022-06-29T08:03:45.000Z</time>
      </trkpt>
      <trkpt lat="44.32985" lon="3.60117">
        <ele>775.20001220703</ele>
        <time>2022-06-29T08:03:46.000Z</time>
      </trkpt>
      <trkpt lat="44.32988" lon="3.60113">
        <ele>775.40002441406</ele>
        <time>2022-06-29T08:03:52.000Z</time>
      </trkpt>
      <trkpt lat="44.32989" lon="3.60112">
        <ele>775.59997558594</ele>
        <time>2022-06-29T08:03:54.000Z</time>
      </trkpt>
      <trkpt lat="44.32992" lon="3.60109">
        <ele>775.79998779297</ele>
        <time>2022-06-29T08:03:58.000Z</time>
      </trkpt>
      <trkpt lat="44.32993" lon="3.60108">
        <ele>776</ele>
        <time>2022-06-29T08:04:00.000Z</time>
      </trkpt>
      <trkpt lat="44.32995" lon="3.60106">
        <ele>776.20001220703</ele>
        <time>2022-06-29T08:04:03.000Z</time>
      </trkpt>
      <trkpt lat="44.32998" lon="3.60103">
        <ele>776.40002441406</ele>
        <time>2022-06-29T08:04:06.000Z</time>
      </trkpt>
      <trkpt lat="44.32999" lon="3.60102">
        <ele>776.59997558594</ele>
        <time>2022-06-29T08:04:08.000Z</time>
      </trkpt>
      <trkpt lat="44.33002" lon="3.60096">
        <ele>776.79998779297</ele>
        <time>2022-06-29T08:04:14.000Z</time>
      </trkpt>
      <trkpt lat="44.33006" lon="3.60093">
        <ele>777.20001220703</ele>
        <time>2022-06-29T08:04:20.000Z</time>
      </trkpt>
      <trkpt lat="44.33008" lon="3.6009">
        <ele>777.40002441406</ele>
        <time>2022-06-29T08:04:23.000Z</time>
      </trkpt>
      <trkpt lat="44.33009" lon="3.60089">
        <ele>777.59997558594</ele>
        <time>2022-06-29T08:04:25.000Z</time>
      </trkpt>
      <trkpt lat="44.3301" lon="3.60087">
        <ele>778</ele>
        <time>2022-06-29T08:04:28.000Z</time>
      </trkpt>
      <trkpt lat="44.33011" lon="3.60086">
        <ele>778</ele>
        <time>2022-06-29T08:04:29.000Z</time>
      </trkpt>
      <trkpt lat="44.33013" lon="3.60085">
        <ele>778.20001220703</ele>
        <time>2022-06-29T08:04:33.000Z</time>
      </trkpt>
      <trkpt lat="44.33016" lon="3.60086">
        <ele>778.59997558594</ele>
        <time>2022-06-29T08:04:36.000Z</time>
      </trkpt>
      <trkpt lat="44.33018" lon="3.60089">
        <ele>779.20001220703</ele>
        <time>2022-06-29T08:04:42.000Z</time>
      </trkpt>
      <trkpt lat="44.33018" lon="3.6009">
        <ele>779.40002441406</ele>
        <time>2022-06-29T08:04:44.000Z</time>
      </trkpt>
      <trkpt lat="44.33017" lon="3.60093">
        <ele>779.79998779297</ele>
        <time>2022-06-29T08:04:47.000Z</time>
      </trkpt>
      <trkpt lat="44.33013" lon="3.601">
        <ele>780</ele>
        <time>2022-06-29T08:04:53.000Z</time>
      </trkpt>
      <trkpt lat="44.3301" lon="3.60106">
        <ele>780.40002441406</ele>
        <time>2022-06-29T08:04:59.000Z</time>
      </trkpt>
      <trkpt lat="44.33008" lon="3.60109">
        <ele>780.79998779297</ele>
        <time>2022-06-29T08:05:02.000Z</time>
      </trkpt>
      <trkpt lat="44.33005" lon="3.60112">
        <ele>781.40002441406</ele>
        <time>2022-06-29T08:05:08.000Z</time>
      </trkpt>
      <trkpt lat="44.33005" lon="3.60114">
        <ele>781.40002441406</ele>
        <time>2022-06-29T08:05:11.000Z</time>
      </trkpt>
      <trkpt lat="44.33003" lon="3.60119">
        <ele>782</ele>
        <time>2022-06-29T08:05:17.000Z</time>
      </trkpt>
      <trkpt lat="44.33002" lon="3.60122">
        <ele>782.40002441406</ele>
        <time>2022-06-29T08:05:21.000Z</time>
      </trkpt>
      <trkpt lat="44.33001" lon="3.60126">
        <ele>782.79998779297</ele>
        <time>2022-06-29T08:05:25.000Z</time>
      </trkpt>
      <trkpt lat="44.33" lon="3.60128">
        <ele>783.20001220703</ele>
        <time>2022-06-29T08:05:31.000Z</time>
      </trkpt>
      <trkpt lat="44.33" lon="3.60132">
        <ele>783.40002441406</ele>
        <time>2022-06-29T08:05:35.000Z</time>
      </trkpt>
      <trkpt lat="44.33" lon="3.60133">
        <ele>783.59997558594</ele>
        <time>2022-06-29T08:05:36.000Z</time>
      </trkpt>
      <trkpt lat="44.32999" lon="3.6014">
        <ele>784.40002441406</ele>
        <time>2022-06-29T08:05:42.000Z</time>
      </trkpt>
      <trkpt lat="44.32999" lon="3.60142">
        <ele>784.59997558594</ele>
        <time>2022-06-29T08:05:45.000Z</time>
      </trkpt>
      <trkpt lat="44.32999" lon="3.60146">
        <ele>784.79998779297</ele>
        <time>2022-06-29T08:05:49.000Z</time>
      </trkpt>
      <trkpt lat="44.32998" lon="3.6015">
        <ele>785</ele>
        <time>2022-06-29T08:05:55.000Z</time>
      </trkpt>
      <trkpt lat="44.32997" lon="3.60154">
        <ele>785.40002441406</ele>
        <time>2022-06-29T08:06:01.000Z</time>
      </trkpt>
      <trkpt lat="44.32997" lon="3.60157">
        <ele>785.59997558594</ele>
        <time>2022-06-29T08:06:04.000Z</time>
      </trkpt>
      <trkpt lat="44.32997" lon="3.6016">
        <ele>786</ele>
        <time>2022-06-29T08:06:07.000Z</time>
      </trkpt>
      <trkpt lat="44.32997" lon="3.60163">
        <ele>786.20001220703</ele>
        <time>2022-06-29T08:06:11.000Z</time>
      </trkpt>
      <trkpt lat="44.32997" lon="3.60169">
        <ele>786.59997558594</ele>
        <time>2022-06-29T08:06:17.000Z</time>
      </trkpt>
      <trkpt lat="44.32997" lon="3.60171">
        <ele>786.59997558594</ele>
        <time>2022-06-29T08:06:19.000Z</time>
      </trkpt>
      <trkpt lat="44.32996" lon="3.60175">
        <ele>787</ele>
        <time>2022-06-29T08:06:24.000Z</time>
      </trkpt>
      <trkpt lat="44.32997" lon="3.60176">
        <ele>787.20001220703</ele>
        <time>2022-06-29T08:06:25.000Z</time>
      </trkpt>
      <trkpt lat="44.32996" lon="3.60178">
        <ele>787.59997558594</ele>
        <time>2022-06-29T08:06:28.000Z</time>
      </trkpt>
      <trkpt lat="44.32996" lon="3.60179">
        <ele>787.59997558594</ele>
        <time>2022-06-29T08:06:29.000Z</time>
      </trkpt>
      <trkpt lat="44.32996" lon="3.60179">
        <ele>787.59997558594</ele>
        <time>2022-06-29T08:06:30.000Z</time>
      </trkpt>
      <trkpt lat="44.32997" lon="3.6018">
        <ele>787.59997558594</ele>
        <time>2022-06-29T08:06:31.000Z</time>
      </trkpt>
      <trkpt lat="44.32996" lon="3.60182">
        <ele>787.79998779297</ele>
        <time>2022-06-29T08:06:34.000Z</time>
      </trkpt>
      <trkpt lat="44.32996" lon="3.60187">
        <ele>788.20001220703</ele>
        <time>2022-06-29T08:06:40.000Z</time>
      </trkpt>
      <trkpt lat="44.32995" lon="3.6019">
        <ele>788.59997558594</ele>
        <time>2022-06-29T08:06:45.000Z</time>
      </trkpt>
      <trkpt lat="44.32995" lon="3.60192">
        <ele>788.79998779297</ele>
        <time>2022-06-29T08:06:47.000Z</time>
      </trkpt>
      <trkpt lat="44.32995" lon="3.60195">
        <ele>789.40002441406</ele>
        <time>2022-06-29T08:06:51.000Z</time>
      </trkpt>
      <trkpt lat="44.32995" lon="3.60195">
        <ele>789.79998779297</ele>
        <time>2022-06-29T08:06:52.000Z</time>
      </trkpt>
      <trkpt lat="44.32994" lon="3.60201">
        <ele>790.20001220703</ele>
        <time>2022-06-29T08:06:58.000Z</time>
      </trkpt>
      <trkpt lat="44.32993" lon="3.60204">
        <ele>790.20001220703</ele>
        <time>2022-06-29T08:07:03.000Z</time>
      </trkpt>
      <trkpt lat="44.32991" lon="3.60208">
        <ele>790.59997558594</ele>
        <time>2022-06-29T08:07:09.000Z</time>
      </trkpt>
      <trkpt lat="44.32991" lon="3.6021">
        <ele>790.79998779297</ele>
        <time>2022-06-29T08:07:11.000Z</time>
      </trkpt>
      <trkpt lat="44.32991" lon="3.60212">
        <ele>790.79998779297</ele>
        <time>2022-06-29T08:07:13.000Z</time>
      </trkpt>
      <trkpt lat="44.32991" lon="3.60214">
        <ele>791.20001220703</ele>
        <time>2022-06-29T08:07:16.000Z</time>
      </trkpt>
      <trkpt lat="44.32991" lon="3.60217">
        <ele>791.59997558594</ele>
        <time>2022-06-29T08:07:20.000Z</time>
      </trkpt>
      <trkpt lat="44.32991" lon="3.6022">
        <ele>791.79998779297</ele>
        <time>2022-06-29T08:07:24.000Z</time>
      </trkpt>
      <trkpt lat="44.3299" lon="3.60222">
        <ele>792.20001220703</ele>
        <time>2022-06-29T08:07:28.000Z</time>
      </trkpt>
      <trkpt lat="44.32989" lon="3.60225">
        <ele>792.40002441406</ele>
        <time>2022-06-29T08:07:32.000Z</time>
      </trkpt>
      <trkpt lat="44.32989" lon="3.60226">
        <ele>792.79998779297</ele>
        <time>2022-06-29T08:07:33.000Z</time>
      </trkpt>
      <trkpt lat="44.32989" lon="3.60226">
        <ele>792.79998779297</ele>
        <time>2022-06-29T08:07:34.000Z</time>
      </trkpt>
      <trkpt lat="44.32988" lon="3.6023">
        <ele>793.20001220703</ele>
        <time>2022-06-29T08:07:39.000Z</time>
      </trkpt>
      <trkpt lat="44.32987" lon="3.60233">
        <ele>793.40002441406</ele>
        <time>2022-06-29T08:07:43.000Z</time>
      </trkpt>
      <trkpt lat="44.32986" lon="3.60235">
        <ele>793.79998779297</ele>
        <time>2022-06-29T08:07:46.000Z</time>
      </trkpt>
      <trkpt lat="44.32984" lon="3.60238">
        <ele>794.20001220703</ele>
        <time>2022-06-29T08:07:52.000Z</time>
      </trkpt>
      <trkpt lat="44.32983" lon="3.6024">
        <ele>794.40002441406</ele>
        <time>2022-06-29T08:07:55.000Z</time>
      </trkpt>
      <trkpt lat="44.32981" lon="3.60243">
        <ele>795</ele>
        <time>2022-06-29T08:08:01.000Z</time>
      </trkpt>
      <trkpt lat="44.32981" lon="3.60247">
        <ele>795.59997558594</ele>
        <time>2022-06-29T08:08:07.000Z</time>
      </trkpt>
      <trkpt lat="44.3298" lon="3.60247">
        <ele>795.79998779297</ele>
        <time>2022-06-29T08:08:09.000Z</time>
      </trkpt>
      <trkpt lat="44.3298" lon="3.60248">
        <ele>796</ele>
        <time>2022-06-29T08:08:12.000Z</time>
      </trkpt>
      <trkpt lat="44.32979" lon="3.60249">
        <ele>796</ele>
        <time>2022-06-29T08:08:14.000Z</time>
      </trkpt>
      <trkpt lat="44.32978" lon="3.60252">
        <ele>796.40002441406</ele>
        <time>2022-06-29T08:08:19.000Z</time>
      </trkpt>
      <trkpt lat="44.32977" lon="3.60255">
        <ele>796.79998779297</ele>
        <time>2022-06-29T08:08:23.000Z</time>
      </trkpt>
      <trkpt lat="44.32975" lon="3.6026">
        <ele>796.79998779297</ele>
        <time>2022-06-29T08:08:29.000Z</time>
      </trkpt>
      <trkpt lat="44.32974" lon="3.60262">
        <ele>797</ele>
        <time>2022-06-29T08:08:32.000Z</time>
      </trkpt>
      <trkpt lat="44.32973" lon="3.60264">
        <ele>797.20001220703</ele>
        <time>2022-06-29T08:08:34.000Z</time>
      </trkpt>
      <trkpt lat="44.32972" lon="3.60268">
        <ele>797.40002441406</ele>
        <time>2022-06-29T08:08:38.000Z</time>
      </trkpt>
      <trkpt lat="44.32972" lon="3.60268">
        <ele>797.40002441406</ele>
        <time>2022-06-29T08:08:39.000Z</time>
      </trkpt>
      <trkpt lat="44.32969" lon="3.60272">
        <ele>798</ele>
        <time>2022-06-29T08:08:45.000Z</time>
      </trkpt>
      <trkpt lat="44.32969" lon="3.60273">
        <ele>798.20001220703</ele>
        <time>2022-06-29T08:08:46.000Z</time>
      </trkpt>
      <trkpt lat="44.32968" lon="3.60273">
        <ele>798.20001220703</ele>
        <time>2022-06-29T08:08:47.000Z</time>
      </trkpt>
      <trkpt lat="44.32965" lon="3.60276">
        <ele>799</ele>
        <time>2022-06-29T08:08:53.000Z</time>
      </trkpt>
      <trkpt lat="44.32964" lon="3.60277">
        <ele>799.20001220703</ele>
        <time>2022-06-29T08:08:55.000Z</time>
      </trkpt>
      <trkpt lat="44.32962" lon="3.60277">
        <ele>799.59997558594</ele>
        <time>2022-06-29T08:08:59.000Z</time>
      </trkpt>
      <trkpt lat="44.32961" lon="3.60279">
        <ele>799.59997558594</ele>
        <time>2022-06-29T08:09:01.000Z</time>
      </trkpt>
      <trkpt lat="44.3296" lon="3.60279">
        <ele>800</ele>
        <time>2022-06-29T08:09:04.000Z</time>
      </trkpt>
      <trkpt lat="44.32958" lon="3.60281">
        <ele>800.40002441406</ele>
        <time>2022-06-29T08:09:08.000Z</time>
      </trkpt>
      <trkpt lat="44.32957" lon="3.60283">
        <ele>800.40002441406</ele>
        <time>2022-06-29T08:09:11.000Z</time>
      </trkpt>
      <trkpt lat="44.32955" lon="3.60286">
        <ele>800.59997558594</ele>
        <time>2022-06-29T08:09:15.000Z</time>
      </trkpt>
      <trkpt lat="44.32953" lon="3.60289">
        <ele>801</ele>
        <time>2022-06-29T08:09:21.000Z</time>
      </trkpt>
      <trkpt lat="44.32952" lon="3.6029">
        <ele>801.20001220703</ele>
        <time>2022-06-29T08:09:23.000Z</time>
      </trkpt>
      <trkpt lat="44.32951" lon="3.60291">
        <ele>801.40002441406</ele>
        <time>2022-06-29T08:09:24.000Z</time>
      </trkpt>
      <trkpt lat="44.3295" lon="3.60294">
        <ele>801.59997558594</ele>
        <time>2022-06-29T08:09:30.000Z</time>
      </trkpt>
      <trkpt lat="44.32948" lon="3.60297">
        <ele>802.20001220703</ele>
        <time>2022-06-29T08:09:36.000Z</time>
      </trkpt>
      <trkpt lat="44.32947" lon="3.60298">
        <ele>802.40002441406</ele>
        <time>2022-06-29T08:09:38.000Z</time>
      </trkpt>
      <trkpt lat="44.32944" lon="3.60299">
        <ele>802.79998779297</ele>
        <time>2022-06-29T08:09:44.000Z</time>
      </trkpt>
      <trkpt lat="44.32942" lon="3.60302">
        <ele>803.20001220703</ele>
        <time>2022-06-29T08:09:48.000Z</time>
      </trkpt>
      <trkpt lat="44.3294" lon="3.60304">
        <ele>803.20001220703</ele>
        <time>2022-06-29T08:09:51.000Z</time>
      </trkpt>
      <trkpt lat="44.3294" lon="3.60305">
        <ele>803.20001220703</ele>
        <time>2022-06-29T08:09:52.000Z</time>
      </trkpt>
      <trkpt lat="44.32937" lon="3.60309">
        <ele>803.40002441406</ele>
        <time>2022-06-29T08:09:58.000Z</time>
      </trkpt>
      <trkpt lat="44.32935" lon="3.60313">
        <ele>803.79998779297</ele>
        <time>2022-06-29T08:10:04.000Z</time>
      </trkpt>
      <trkpt lat="44.32933" lon="3.60316">
        <ele>804.20001220703</ele>
        <time>2022-06-29T08:10:09.000Z</time>
      </trkpt>
      <trkpt lat="44.32931" lon="3.60318">
        <ele>804.59997558594</ele>
        <time>2022-06-29T08:10:12.000Z</time>
      </trkpt>
      <trkpt lat="44.32929" lon="3.60322">
        <ele>805</ele>
        <time>2022-06-29T08:10:18.000Z</time>
      </trkpt>
      <trkpt lat="44.32927" lon="3.60326">
        <ele>805.40002441406</ele>
        <time>2022-06-29T08:10:24.000Z</time>
      </trkpt>
      <trkpt lat="44.32926" lon="3.60329">
        <ele>805.59997558594</ele>
        <time>2022-06-29T08:10:29.000Z</time>
      </trkpt>
      <trkpt lat="44.32923" lon="3.60332">
        <ele>806</ele>
        <time>2022-06-29T08:10:35.000Z</time>
      </trkpt>
      <trkpt lat="44.32921" lon="3.60336">
        <ele>806.40002441406</ele>
        <time>2022-06-29T08:10:40.000Z</time>
      </trkpt>
      <trkpt lat="44.3292" lon="3.60341">
        <ele>806.59997558594</ele>
        <time>2022-06-29T08:10:46.000Z</time>
      </trkpt>
      <trkpt lat="44.32917" lon="3.60345">
        <ele>807.40002441406</ele>
        <time>2022-06-29T08:10:52.000Z</time>
      </trkpt>
      <trkpt lat="44.32916" lon="3.60347">
        <ele>807.59997558594</ele>
        <time>2022-06-29T08:10:55.000Z</time>
      </trkpt>
      <trkpt lat="44.32916" lon="3.60348">
        <ele>807.59997558594</ele>
        <time>2022-06-29T08:10:57.000Z</time>
      </trkpt>
      <trkpt lat="44.32914" lon="3.60353">
        <ele>808.40002441406</ele>
        <time>2022-06-29T08:11:03.000Z</time>
      </trkpt>
      <trkpt lat="44.32913" lon="3.60356">
        <ele>808.59997558594</ele>
        <time>2022-06-29T08:11:07.000Z</time>
      </trkpt>
      <trkpt lat="44.3291" lon="3.60359">
        <ele>808.79998779297</ele>
        <time>2022-06-29T08:11:12.000Z</time>
      </trkpt>
      <trkpt lat="44.32908" lon="3.60364">
        <ele>809</ele>
        <time>2022-06-29T08:11:17.000Z</time>
      </trkpt>
      <trkpt lat="44.32906" lon="3.60369">
        <ele>809.40002441406</ele>
        <time>2022-06-29T08:11:22.000Z</time>
      </trkpt>
      <trkpt lat="44.32904" lon="3.60374">
        <ele>809.79998779297</ele>
        <time>2022-06-29T08:11:27.000Z</time>
      </trkpt>
      <trkpt lat="44.32902" lon="3.60379">
        <ele>810</ele>
        <time>2022-06-29T08:11:33.000Z</time>
      </trkpt>
      <trkpt lat="44.32901" lon="3.60385">
        <ele>810.20001220703</ele>
        <time>2022-06-29T08:11:39.000Z</time>
      </trkpt>
      <trkpt lat="44.329" lon="3.6039">
        <ele>810.59997558594</ele>
        <time>2022-06-29T08:11:45.000Z</time>
      </trkpt>
      <trkpt lat="44.32899" lon="3.60392">
        <ele>810.79998779297</ele>
        <time>2022-06-29T08:11:48.000Z</time>
      </trkpt>
      <trkpt lat="44.32899" lon="3.60393">
        <ele>810.79998779297</ele>
        <time>2022-06-29T08:11:49.000Z</time>
      </trkpt>
      <trkpt lat="44.32897" lon="3.60399">
        <ele>811.40002441406</ele>
        <time>2022-06-29T08:11:55.000Z</time>
      </trkpt>
      <trkpt lat="44.32895" lon="3.60403">
        <ele>811.79998779297</ele>
        <time>2022-06-29T08:12:01.000Z</time>
      </trkpt>
      <trkpt lat="44.32895" lon="3.60404">
        <ele>812</ele>
        <time>2022-06-29T08:12:02.000Z</time>
      </trkpt>
      <trkpt lat="44.32893" lon="3.60408">
        <ele>812.59997558594</ele>
        <time>2022-06-29T08:12:08.000Z</time>
      </trkpt>
      <trkpt lat="44.32893" lon="3.6041">
        <ele>813</ele>
        <time>2022-06-29T08:12:10.000Z</time>
      </trkpt>
      <trkpt lat="44.32893" lon="3.60416">
        <ele>813.20001220703</ele>
        <time>2022-06-29T08:12:16.000Z</time>
      </trkpt>
      <trkpt lat="44.32891" lon="3.60422">
        <ele>813.79998779297</ele>
        <time>2022-06-29T08:12:22.000Z</time>
      </trkpt>
      <trkpt lat="44.32891" lon="3.60426">
        <ele>814</ele>
        <time>2022-06-29T08:12:26.000Z</time>
      </trkpt>
      <trkpt lat="44.3289" lon="3.60428">
        <ele>814</ele>
        <time>2022-06-29T08:12:28.000Z</time>
      </trkpt>
      <trkpt lat="44.32889" lon="3.60433">
        <ele>814.40002441406</ele>
        <time>2022-06-29T08:12:34.000Z</time>
      </trkpt>
      <trkpt lat="44.32888" lon="3.60435">
        <ele>814.59997558594</ele>
        <time>2022-06-29T08:12:38.000Z</time>
      </trkpt>
      <trkpt lat="44.32889" lon="3.60435">
        <ele>814.59997558594</ele>
        <time>2022-06-29T08:12:44.000Z</time>
      </trkpt>
      <trkpt lat="44.32888" lon="3.60437">
        <ele>814.40002441406</ele>
        <time>2022-06-29T08:12:49.000Z</time>
      </trkpt>
      <trkpt lat="44.32888" lon="3.60441">
        <ele>814.79998779297</ele>
        <time>2022-06-29T08:12:55.000Z</time>
      </trkpt>
      <trkpt lat="44.32887" lon="3.60442">
        <ele>815</ele>
        <time>2022-06-29T08:12:57.000Z</time>
      </trkpt>
      <trkpt lat="44.32887" lon="3.60445">
        <ele>815.20001220703</ele>
        <time>2022-06-29T08:13:00.000Z</time>
      </trkpt>
      <trkpt lat="44.32887" lon="3.6045">
        <ele>815.59997558594</ele>
        <time>2022-06-29T08:13:06.000Z</time>
      </trkpt>
      <trkpt lat="44.32886" lon="3.60454">
        <ele>816</ele>
        <time>2022-06-29T08:13:11.000Z</time>
      </trkpt>
      <trkpt lat="44.32886" lon="3.60455">
        <ele>816</ele>
        <time>2022-06-29T08:13:12.000Z</time>
      </trkpt>
      <trkpt lat="44.32886" lon="3.60456">
        <ele>816.20001220703</ele>
        <time>2022-06-29T08:13:14.000Z</time>
      </trkpt>
      <trkpt lat="44.32884" lon="3.60461">
        <ele>816.40002441406</ele>
        <time>2022-06-29T08:13:20.000Z</time>
      </trkpt>
      <trkpt lat="44.32882" lon="3.60467">
        <ele>817</ele>
        <time>2022-06-29T08:13:26.000Z</time>
      </trkpt>
      <trkpt lat="44.32882" lon="3.60468">
        <ele>817</ele>
        <time>2022-06-29T08:13:27.000Z</time>
      </trkpt>
      <trkpt lat="44.32882" lon="3.60469">
        <ele>817.20001220703</ele>
        <time>2022-06-29T08:13:28.000Z</time>
      </trkpt>
      <trkpt lat="44.32882" lon="3.60474">
        <ele>817.79998779297</ele>
        <time>2022-06-29T08:13:34.000Z</time>
      </trkpt>
      <trkpt lat="44.32881" lon="3.60476">
        <ele>818.20001220703</ele>
        <time>2022-06-29T08:13:37.000Z</time>
      </trkpt>
      <trkpt lat="44.32881" lon="3.60479">
        <ele>818.40002441406</ele>
        <time>2022-06-29T08:13:41.000Z</time>
      </trkpt>
      <trkpt lat="44.3288" lon="3.60484">
        <ele>818.79998779297</ele>
        <time>2022-06-29T08:13:47.000Z</time>
      </trkpt>
      <trkpt lat="44.32879" lon="3.60489">
        <ele>819.20001220703</ele>
        <time>2022-06-29T08:13:52.000Z</time>
      </trkpt>
      <trkpt lat="44.32878" lon="3.60491">
        <ele>819.40002441406</ele>
        <time>2022-06-29T08:13:55.000Z</time>
      </trkpt>
      <trkpt lat="44.32877" lon="3.60496">
        <ele>819.79998779297</ele>
        <time>2022-06-29T08:14:01.000Z</time>
      </trkpt>
      <trkpt lat="44.32877" lon="3.60498">
        <ele>820.20001220703</ele>
        <time>2022-06-29T08:14:03.000Z</time>
      </trkpt>
      <trkpt lat="44.32877" lon="3.60501">
        <ele>820.59997558594</ele>
        <time>2022-06-29T08:14:07.000Z</time>
      </trkpt>
      <trkpt lat="44.32875" lon="3.60506">
        <ele>821</ele>
        <time>2022-06-29T08:14:13.000Z</time>
      </trkpt>
      <trkpt lat="44.32874" lon="3.6051">
        <ele>821.40002441406</ele>
        <time>2022-06-29T08:14:17.000Z</time>
      </trkpt>
      <trkpt lat="44.32874" lon="3.60512">
        <ele>821.59997558594</ele>
        <time>2022-06-29T08:14:19.000Z</time>
      </trkpt>
      <trkpt lat="44.32872" lon="3.60519">
        <ele>821.79998779297</ele>
        <time>2022-06-29T08:14:25.000Z</time>
      </trkpt>
      <trkpt lat="44.32872" lon="3.60524">
        <ele>821.79998779297</ele>
        <time>2022-06-29T08:14:31.000Z</time>
      </trkpt>
      <trkpt lat="44.32871" lon="3.60529">
        <ele>822.20001220703</ele>
        <time>2022-06-29T08:14:37.000Z</time>
      </trkpt>
      <trkpt lat="44.32872" lon="3.60532">
        <ele>822.40002441406</ele>
        <time>2022-06-29T08:14:40.000Z</time>
      </trkpt>
      <trkpt lat="44.32872" lon="3.60538">
        <ele>822.79998779297</ele>
        <time>2022-06-29T08:14:45.000Z</time>
      </trkpt>
      <trkpt lat="44.32873" lon="3.60543">
        <ele>822.79998779297</ele>
        <time>2022-06-29T08:14:51.000Z</time>
      </trkpt>
      <trkpt lat="44.32873" lon="3.60547">
        <ele>823.40002441406</ele>
        <time>2022-06-29T08:14:57.000Z</time>
      </trkpt>
      <trkpt lat="44.32873" lon="3.60548">
        <ele>823.40002441406</ele>
        <time>2022-06-29T08:14:58.000Z</time>
      </trkpt>
      <trkpt lat="44.32873" lon="3.6055">
        <ele>823.59997558594</ele>
        <time>2022-06-29T08:15:00.000Z</time>
      </trkpt>
      <trkpt lat="44.32873" lon="3.60555">
        <ele>824</ele>
        <time>2022-06-29T08:15:06.000Z</time>
      </trkpt>
      <trkpt lat="44.32874" lon="3.6056">
        <ele>824.40002441406</ele>
        <time>2022-06-29T08:15:12.000Z</time>
      </trkpt>
      <trkpt lat="44.32874" lon="3.60563">
        <ele>824.40002441406</ele>
        <time>2022-06-29T08:15:15.000Z</time>
      </trkpt>
      <trkpt lat="44.32874" lon="3.60564">
        <ele>824.40002441406</ele>
        <time>2022-06-29T08:15:16.000Z</time>
      </trkpt>
      <trkpt lat="44.32874" lon="3.60568">
        <ele>824.79998779297</ele>
        <time>2022-06-29T08:15:22.000Z</time>
      </trkpt>
      <trkpt lat="44.32875" lon="3.60572">
        <ele>825.20001220703</ele>
        <time>2022-06-29T08:15:28.000Z</time>
      </trkpt>
      <trkpt lat="44.32875" lon="3.60574">
        <ele>825.40002441406</ele>
        <time>2022-06-29T08:15:30.000Z</time>
      </trkpt>
      <trkpt lat="44.32875" lon="3.60574">
        <ele>825.59997558594</ele>
        <time>2022-06-29T08:15:31.000Z</time>
      </trkpt>
      <trkpt lat="44.32876" lon="3.60579">
        <ele>826</ele>
        <time>2022-06-29T08:15:37.000Z</time>
      </trkpt>
      <trkpt lat="44.32877" lon="3.60586">
        <ele>826.40002441406</ele>
        <time>2022-06-29T08:15:43.000Z</time>
      </trkpt>
      <trkpt lat="44.32877" lon="3.60587">
        <ele>826.59997558594</ele>
        <time>2022-06-29T08:15:44.000Z</time>
      </trkpt>
      <trkpt lat="44.32877" lon="3.60588">
        <ele>826.79998779297</ele>
        <time>2022-06-29T08:15:45.000Z</time>
      </trkpt>
      <trkpt lat="44.32877" lon="3.60593">
        <ele>827</ele>
        <time>2022-06-29T08:15:51.000Z</time>
      </trkpt>
      <trkpt lat="44.32878" lon="3.606">
        <ele>827.20001220703</ele>
        <time>2022-06-29T08:15:57.000Z</time>
      </trkpt>
      <trkpt lat="44.32879" lon="3.60602">
        <ele>827.40002441406</ele>
        <time>2022-06-29T08:15:59.000Z</time>
      </trkpt>
      <trkpt lat="44.3288" lon="3.60606">
        <ele>827.59997558594</ele>
        <time>2022-06-29T08:16:04.000Z</time>
      </trkpt>
      <trkpt lat="44.3288" lon="3.6061">
        <ele>828</ele>
        <time>2022-06-29T08:16:10.000Z</time>
      </trkpt>
      <trkpt lat="44.32881" lon="3.60614">
        <ele>828.40002441406</ele>
        <time>2022-06-29T08:16:15.000Z</time>
      </trkpt>
      <trkpt lat="44.32881" lon="3.60616">
        <ele>828.79998779297</ele>
        <time>2022-06-29T08:16:17.000Z</time>
      </trkpt>
      <trkpt lat="44.32882" lon="3.60619">
        <ele>829</ele>
        <time>2022-06-29T08:16:23.000Z</time>
      </trkpt>
      <trkpt lat="44.32884" lon="3.60624">
        <ele>829.40002441406</ele>
        <time>2022-06-29T08:16:29.000Z</time>
      </trkpt>
      <trkpt lat="44.32884" lon="3.60624">
        <ele>829.40002441406</ele>
        <time>2022-06-29T08:16:30.000Z</time>
      </trkpt>
      <trkpt lat="44.32884" lon="3.60629">
        <ele>829.79998779297</ele>
        <time>2022-06-29T08:16:35.000Z</time>
      </trkpt>
      <trkpt lat="44.32885" lon="3.60634">
        <ele>830.40002441406</ele>
        <time>2022-06-29T08:16:41.000Z</time>
      </trkpt>
      <trkpt lat="44.32886" lon="3.60638">
        <ele>830.79998779297</ele>
        <time>2022-06-29T08:16:46.000Z</time>
      </trkpt>
      <trkpt lat="44.32886" lon="3.60639">
        <ele>830.79998779297</ele>
        <time>2022-06-29T08:16:47.000Z</time>
      </trkpt>
      <trkpt lat="44.32887" lon="3.60643">
        <ele>831.20001220703</ele>
        <time>2022-06-29T08:16:53.000Z</time>
      </trkpt>
      <trkpt lat="44.32888" lon="3.60646">
        <ele>831.79998779297</ele>
        <time>2022-06-29T08:16:58.000Z</time>
      </trkpt>
      <trkpt lat="44.32888" lon="3.60648">
        <ele>832</ele>
        <time>2022-06-29T08:17:01.000Z</time>
      </trkpt>
      <trkpt lat="44.32888" lon="3.60652">
        <ele>832.40002441406</ele>
        <time>2022-06-29T08:17:07.000Z</time>
      </trkpt>
      <trkpt lat="44.32889" lon="3.60653">
        <ele>832.79998779297</ele>
        <time>2022-06-29T08:17:10.000Z</time>
      </trkpt>
      <trkpt lat="44.32889" lon="3.60654">
        <ele>833</ele>
        <time>2022-06-29T08:17:12.000Z</time>
      </trkpt>
      <trkpt lat="44.32888" lon="3.60656">
        <ele>833.40002441406</ele>
        <time>2022-06-29T08:17:18.000Z</time>
      </trkpt>
      <trkpt lat="44.32888" lon="3.60656">
        <ele>833.40002441406</ele>
        <time>2022-06-29T08:17:20.000Z</time>
      </trkpt>
      <trkpt lat="44.32888" lon="3.60659">
        <ele>833.40002441406</ele>
        <time>2022-06-29T08:17:25.000Z</time>
      </trkpt>
      <trkpt lat="44.32889" lon="3.60665">
        <ele>833.59997558594</ele>
        <time>2022-06-29T08:17:30.000Z</time>
      </trkpt>
      <trkpt lat="44.32889" lon="3.60669">
        <ele>834</ele>
        <time>2022-06-29T08:17:33.000Z</time>
      </trkpt>
      <trkpt lat="44.3289" lon="3.60675">
        <ele>834.20001220703</ele>
        <time>2022-06-29T08:17:39.000Z</time>
      </trkpt>
      <trkpt lat="44.32891" lon="3.6068">
        <ele>834.59997558594</ele>
        <time>2022-06-29T08:17:44.000Z</time>
      </trkpt>
      <trkpt lat="44.32893" lon="3.60684">
        <ele>835</ele>
        <time>2022-06-29T08:17:49.000Z</time>
      </trkpt>
      <trkpt lat="44.32893" lon="3.60685">
        <ele>835.20001220703</ele>
        <time>2022-06-29T08:17:50.000Z</time>
      </trkpt>
      <trkpt lat="44.32895" lon="3.6069">
        <ele>835.59997558594</ele>
        <time>2022-06-29T08:17:56.000Z</time>
      </trkpt>
      <trkpt lat="44.32895" lon="3.60692">
        <ele>835.40002441406</ele>
        <time>2022-06-29T08:17:58.000Z</time>
      </trkpt>
      <trkpt lat="44.32897" lon="3.60697">
        <ele>836</ele>
        <time>2022-06-29T08:18:04.000Z</time>
      </trkpt>
      <trkpt lat="44.32898" lon="3.60698">
        <ele>836.20001220703</ele>
        <time>2022-06-29T08:18:06.000Z</time>
      </trkpt>
      <trkpt lat="44.32899" lon="3.60703">
        <ele>836.79998779297</ele>
        <time>2022-06-29T08:18:12.000Z</time>
      </trkpt>
      <trkpt lat="44.32899" lon="3.60705">
        <ele>837</ele>
        <time>2022-06-29T08:18:14.000Z</time>
      </trkpt>
      <trkpt lat="44.32901" lon="3.60707">
        <ele>837.20001220703</ele>
        <time>2022-06-29T08:18:17.000Z</time>
      </trkpt>
      <trkpt lat="44.32903" lon="3.60712">
        <ele>837.40002441406</ele>
        <time>2022-06-29T08:18:23.000Z</time>
      </trkpt>
      <trkpt lat="44.32904" lon="3.60715">
        <ele>837.79998779297</ele>
        <time>2022-06-29T08:18:27.000Z</time>
      </trkpt>
      <trkpt lat="44.32907" lon="3.6072">
        <ele>838.20001220703</ele>
        <time>2022-06-29T08:18:33.000Z</time>
      </trkpt>
      <trkpt lat="44.32908" lon="3.60723">
        <ele>838.20001220703</ele>
        <time>2022-06-29T08:18:36.000Z</time>
      </trkpt>
      <trkpt lat="44.3291" lon="3.60728">
        <ele>838.59997558594</ele>
        <time>2022-06-29T08:18:41.000Z</time>
      </trkpt>
      <trkpt lat="44.32912" lon="3.60735">
        <ele>839.20001220703</ele>
        <time>2022-06-29T08:18:47.000Z</time>
      </trkpt>
      <trkpt lat="44.32913" lon="3.60736">
        <ele>839.40002441406</ele>
        <time>2022-06-29T08:18:49.000Z</time>
      </trkpt>
      <trkpt lat="44.32915" lon="3.6074">
        <ele>839.59997558594</ele>
        <time>2022-06-29T08:18:54.000Z</time>
      </trkpt>
      <trkpt lat="44.32919" lon="3.60744">
        <ele>839.79998779297</ele>
        <time>2022-06-29T08:19:00.000Z</time>
      </trkpt>
      <trkpt lat="44.3292" lon="3.60746">
        <ele>840.20001220703</ele>
        <time>2022-06-29T08:19:03.000Z</time>
      </trkpt>
      <trkpt lat="44.32923" lon="3.60748">
        <ele>840.40002441406</ele>
        <time>2022-06-29T08:19:07.000Z</time>
      </trkpt>
      <trkpt lat="44.32924" lon="3.60751">
        <ele>840.40002441406</ele>
        <time>2022-06-29T08:19:10.000Z</time>
      </trkpt>
      <trkpt lat="44.32925" lon="3.60752">
        <ele>840.59997558594</ele>
        <time>2022-06-29T08:19:12.000Z</time>
      </trkpt>
      <trkpt lat="44.32929" lon="3.60757">
        <ele>841</ele>
        <time>2022-06-29T08:19:18.000Z</time>
      </trkpt>
      <trkpt lat="44.32931" lon="3.60759">
        <ele>841.20001220703</ele>
        <time>2022-06-29T08:19:21.000Z</time>
      </trkpt>
      <trkpt lat="44.32933" lon="3.6076">
        <ele>841.40002441406</ele>
        <time>2022-06-29T08:19:23.000Z</time>
      </trkpt>
      <trkpt lat="44.32936" lon="3.60764">
        <ele>841.79998779297</ele>
        <time>2022-06-29T08:19:29.000Z</time>
      </trkpt>
      <trkpt lat="44.3294" lon="3.60769">
        <ele>842.20001220703</ele>
        <time>2022-06-29T08:19:35.000Z</time>
      </trkpt>
      <trkpt lat="44.32943" lon="3.60772">
        <ele>842.40002441406</ele>
        <time>2022-06-29T08:19:39.000Z</time>
      </trkpt>
      <trkpt lat="44.32947" lon="3.60776">
        <ele>842.79998779297</ele>
        <time>2022-06-29T08:19:45.000Z</time>
      </trkpt>
      <trkpt lat="44.32949" lon="3.60779">
        <ele>842.79998779297</ele>
        <time>2022-06-29T08:19:49.000Z</time>
      </trkpt>
      <trkpt lat="44.32952" lon="3.60784">
        <ele>843.40002441406</ele>
        <time>2022-06-29T08:19:55.000Z</time>
      </trkpt>
      <trkpt lat="44.32953" lon="3.60785">
        <ele>843.40002441406</ele>
        <time>2022-06-29T08:19:57.000Z</time>
      </trkpt>
      <trkpt lat="44.32954" lon="3.60792">
        <ele>843.59997558594</ele>
        <time>2022-06-29T08:20:03.000Z</time>
      </trkpt>
      <trkpt lat="44.32955" lon="3.60795">
        <ele>843.79998779297</ele>
        <time>2022-06-29T08:20:07.000Z</time>
      </trkpt>
      <trkpt lat="44.32956" lon="3.60798">
        <ele>843.79998779297</ele>
        <time>2022-06-29T08:20:10.000Z</time>
      </trkpt>
      <trkpt lat="44.32955" lon="3.60802">
        <ele>844</ele>
        <time>2022-06-29T08:20:14.000Z</time>
      </trkpt>
      <trkpt lat="44.32954" lon="3.60805">
        <ele>844</ele>
        <time>2022-06-29T08:20:20.000Z</time>
      </trkpt>
      <trkpt lat="44.32954" lon="3.60806">
        <ele>844</ele>
        <time>2022-06-29T08:20:24.000Z</time>
      </trkpt>
      <trkpt lat="44.32953" lon="3.60807">
        <ele>844.20001220703</ele>
        <time>2022-06-29T08:20:30.000Z</time>
      </trkpt>
      <trkpt lat="44.32953" lon="3.60807">
        <ele>844.20001220703</ele>
        <time>2022-06-29T08:20:31.000Z</time>
      </trkpt>
      <trkpt lat="44.32954" lon="3.60807">
        <ele>844</ele>
        <time>2022-06-29T08:20:37.000Z</time>
      </trkpt>
      <trkpt lat="44.32954" lon="3.60808">
        <ele>844</ele>
        <time>2022-06-29T08:20:40.000Z</time>
      </trkpt>
      <trkpt lat="44.32954" lon="3.60809">
        <ele>844.40002441406</ele>
        <time>2022-06-29T08:20:46.000Z</time>
      </trkpt>
      <trkpt lat="44.32954" lon="3.60809">
        <ele>844.40002441406</ele>
        <time>2022-06-29T08:20:49.000Z</time>
      </trkpt>
      <trkpt lat="44.32954" lon="3.60809">
        <ele>844.40002441406</ele>
        <time>2022-06-29T08:20:51.000Z</time>
      </trkpt>
      <trkpt lat="44.32955" lon="3.60808">
        <ele>844.59997558594</ele>
        <time>2022-06-29T08:20:54.000Z</time>
      </trkpt>
      <trkpt lat="44.32956" lon="3.60808">
        <ele>844.59997558594</ele>
        <time>2022-06-29T08:20:56.000Z</time>
      </trkpt>
      <trkpt lat="44.32957" lon="3.60807">
        <ele>844.79998779297</ele>
        <time>2022-06-29T08:20:59.000Z</time>
      </trkpt>
      <trkpt lat="44.32958" lon="3.60805">
        <ele>844.79998779297</ele>
        <time>2022-06-29T08:21:01.000Z</time>
      </trkpt>
      <trkpt lat="44.32958" lon="3.60802">
        <ele>844.79998779297</ele>
        <time>2022-06-29T08:21:05.000Z</time>
      </trkpt>
      <trkpt lat="44.32955" lon="3.60797">
        <ele>844.59997558594</ele>
        <time>2022-06-29T08:21:10.000Z</time>
      </trkpt>
      <trkpt lat="44.32954" lon="3.60797">
        <ele>844.79998779297</ele>
        <time>2022-06-29T08:21:14.000Z</time>
      </trkpt>
      <trkpt lat="44.32955" lon="3.60801">
        <ele>845.20001220703</ele>
        <time>2022-06-29T08:21:20.000Z</time>
      </trkpt>
      <trkpt lat="44.32955" lon="3.60804">
        <ele>845.20001220703</ele>
        <time>2022-06-29T08:21:25.000Z</time>
      </trkpt>
      <trkpt lat="44.32954" lon="3.60806">
        <ele>844.79998779297</ele>
        <time>2022-06-29T08:21:31.000Z</time>
      </trkpt>
      <trkpt lat="44.32954" lon="3.60807">
        <ele>845</ele>
        <time>2022-06-29T08:21:37.000Z</time>
      </trkpt>
      <trkpt lat="44.32955" lon="3.60807">
        <ele>845.20001220703</ele>
        <time>2022-06-29T08:21:38.000Z</time>
      </trkpt>
      <trkpt lat="44.32955" lon="3.60807">
        <ele>845.20001220703</ele>
        <time>2022-06-29T08:21:39.000Z</time>
      </trkpt>
      <trkpt lat="44.32956" lon="3.60807">
        <ele>845.20001220703</ele>
        <time>2022-06-29T08:21:45.000Z</time>
      </trkpt>
      <trkpt lat="44.32956" lon="3.60809">
        <ele>844.79998779297</ele>
        <time>2022-06-29T08:21:51.000Z</time>
      </trkpt>
      <trkpt lat="44.32954" lon="3.60812">
        <ele>845</ele>
        <time>2022-06-29T08:21:57.000Z</time>
      </trkpt>
      <trkpt lat="44.32954" lon="3.60812">
        <ele>845</ele>
        <time>2022-06-29T08:22:02.000Z</time>
      </trkpt>
      <trkpt lat="44.32954" lon="3.60812">
        <ele>845</ele>
        <time>2022-06-29T08:22:08.000Z</time>
      </trkpt>
      <trkpt lat="44.32954" lon="3.60812">
        <ele>845</ele>
        <time>2022-06-29T08:22:12.000Z</time>
      </trkpt>
      <trkpt lat="44.32954" lon="3.6081">
        <ele>845</ele>
        <time>2022-06-29T08:22:18.000Z</time>
      </trkpt>
      <trkpt lat="44.32954" lon="3.6081">
        <ele>845</ele>
        <time>2022-06-29T08:22:19.000Z</time>
      </trkpt>
      <trkpt lat="44.32954" lon="3.60807">
        <ele>845</ele>
        <time>2022-06-29T08:22:24.000Z</time>
      </trkpt>
      <trkpt lat="44.32953" lon="3.60807">
        <ele>845</ele>
        <time>2022-06-29T08:22:25.000Z</time>
      </trkpt>
      <trkpt lat="44.32953" lon="3.60807">
        <ele>845</ele>
        <time>2022-06-29T08:22:28.000Z</time>
      </trkpt>
      <trkpt lat="44.32953" lon="3.60807">
        <ele>845</ele>
        <time>2022-06-29T08:22:31.000Z</time>
      </trkpt>
      <trkpt lat="44.32954" lon="3.60806">
        <ele>845</ele>
        <time>2022-06-29T08:22:37.000Z</time>
      </trkpt>
      <trkpt lat="44.32954" lon="3.60806">
        <ele>845</ele>
        <time>2022-06-29T08:22:43.000Z</time>
      </trkpt>
      <trkpt lat="44.32954" lon="3.60804">
        <ele>845</ele>
        <time>2022-06-29T08:22:48.000Z</time>
      </trkpt>
      <trkpt lat="44.32954" lon="3.60803">
        <ele>845</ele>
        <time>2022-06-29T08:22:54.000Z</time>
      </trkpt>
      <trkpt lat="44.32954" lon="3.608">
        <ele>845</ele>
        <time>2022-06-29T08:23:00.000Z</time>
      </trkpt>
      <trkpt lat="44.32954" lon="3.60799">
        <ele>845</ele>
        <time>2022-06-29T08:23:01.000Z</time>
      </trkpt>
      <trkpt lat="44.32951" lon="3.60793">
        <ele>845</ele>
        <time>2022-06-29T08:23:07.000Z</time>
      </trkpt>
      <trkpt lat="44.32949" lon="3.6079">
        <ele>845</ele>
        <time>2022-06-29T08:23:12.000Z</time>
      </trkpt>
      <trkpt lat="44.32949" lon="3.60789">
        <ele>845</ele>
        <time>2022-06-29T08:23:13.000Z</time>
      </trkpt>
      <trkpt lat="44.32948" lon="3.60789">
        <ele>845</ele>
        <time>2022-06-29T08:23:14.000Z</time>
      </trkpt>
      <trkpt lat="44.32947" lon="3.60786">
        <ele>845</ele>
        <time>2022-06-29T08:23:18.000Z</time>
      </trkpt>
      <trkpt lat="44.32947" lon="3.60785">
        <ele>845</ele>
        <time>2022-06-29T08:23:19.000Z</time>
      </trkpt>
      <trkpt lat="44.32944" lon="3.60782">
        <ele>845</ele>
        <time>2022-06-29T08:23:23.000Z</time>
      </trkpt>
      <trkpt lat="44.32943" lon="3.60781">
        <ele>845</ele>
        <time>2022-06-29T08:23:24.000Z</time>
      </trkpt>
      <trkpt lat="44.32943" lon="3.6078">
        <ele>845</ele>
        <time>2022-06-29T08:23:25.000Z</time>
      </trkpt>
      <trkpt lat="44.32942" lon="3.6078">
        <ele>845</ele>
        <time>2022-06-29T08:23:26.000Z</time>
      </trkpt>
      <trkpt lat="44.32938" lon="3.60775">
        <ele>844.20001220703</ele>
        <time>2022-06-29T08:23:32.000Z</time>
      </trkpt>
      <trkpt lat="44.32935" lon="3.60772">
        <ele>844.40002441406</ele>
        <time>2022-06-29T08:23:38.000Z</time>
      </trkpt>
      <trkpt lat="44.32934" lon="3.60772">
        <ele>844.20001220703</ele>
        <time>2022-06-29T08:23:41.000Z</time>
      </trkpt>
      <trkpt lat="44.32934" lon="3.60771">
        <ele>844.20001220703</ele>
        <time>2022-06-29T08:23:47.000Z</time>
      </trkpt>
      <trkpt lat="44.32934" lon="3.60771">
        <ele>844.20001220703</ele>
        <time>2022-06-29T08:23:48.000Z</time>
      </trkpt>
      <trkpt lat="44.32934" lon="3.60771">
        <ele>844</ele>
        <time>2022-06-29T08:23:54.000Z</time>
      </trkpt>
      <trkpt lat="44.32934" lon="3.6077">
        <ele>844.20001220703</ele>
        <time>2022-06-29T08:23:59.000Z</time>
      </trkpt>
      <trkpt lat="44.32933" lon="3.6077">
        <ele>844.20001220703</ele>
        <time>2022-06-29T08:24:04.000Z</time>
      </trkpt>
      <trkpt lat="44.32933" lon="3.60771">
        <ele>844</ele>
        <time>2022-06-29T08:24:10.000Z</time>
      </trkpt>
      <trkpt lat="44.32933" lon="3.60771">
        <ele>844</ele>
        <time>2022-06-29T08:24:12.000Z</time>
      </trkpt>
      <trkpt lat="44.32933" lon="3.60771">
        <ele>843.79998779297</ele>
        <time>2022-06-29T08:24:18.000Z</time>
      </trkpt>
      <trkpt lat="44.32933" lon="3.60771">
        <ele>843.79998779297</ele>
        <time>2022-06-29T08:24:21.000Z</time>
      </trkpt>
      <trkpt lat="44.32934" lon="3.60771">
        <ele>844</ele>
        <time>2022-06-29T08:24:27.000Z</time>
      </trkpt>
      <trkpt lat="44.32934" lon="3.60771">
        <ele>844</ele>
        <time>2022-06-29T08:24:31.000Z</time>
      </trkpt>
      <trkpt lat="44.32934" lon="3.60771">
        <ele>844</ele>
        <time>2022-06-29T08:24:35.000Z</time>
      </trkpt>
      <trkpt lat="44.32934" lon="3.60772">
        <ele>844</ele>
        <time>2022-06-29T08:24:41.000Z</time>
      </trkpt>
      <trkpt lat="44.32933" lon="3.60772">
        <ele>843.79998779297</ele>
        <time>2022-06-29T08:24:46.000Z</time>
      </trkpt>
      <trkpt lat="44.32934" lon="3.60772">
        <ele>843.79998779297</ele>
        <time>2022-06-29T08:24:50.000Z</time>
      </trkpt>
      <trkpt lat="44.32935" lon="3.60771">
        <ele>843.79998779297</ele>
        <time>2022-06-29T08:24:56.000Z</time>
      </trkpt>
      <trkpt lat="44.32935" lon="3.60771">
        <ele>843.79998779297</ele>
        <time>2022-06-29T08:24:59.000Z</time>
      </trkpt>
      <trkpt lat="44.32935" lon="3.60771">
        <ele>843.79998779297</ele>
        <time>2022-06-29T08:25:01.000Z</time>
      </trkpt>
      <trkpt lat="44.32934" lon="3.60771">
        <ele>843.79998779297</ele>
        <time>2022-06-29T08:25:07.000Z</time>
      </trkpt>
      <trkpt lat="44.32935" lon="3.60771">
        <ele>843.79998779297</ele>
        <time>2022-06-29T08:25:12.000Z</time>
      </trkpt>
      <trkpt lat="44.32935" lon="3.60771">
        <ele>843.79998779297</ele>
        <time>2022-06-29T08:25:18.000Z</time>
      </trkpt>
      <trkpt lat="44.32935" lon="3.60771">
        <ele>843.79998779297</ele>
        <time>2022-06-29T08:25:19.000Z</time>
      </trkpt>
      <trkpt lat="44.32935" lon="3.60771">
        <ele>843.79998779297</ele>
        <time>2022-06-29T08:25:25.000Z</time>
      </trkpt>
      <trkpt lat="44.32935" lon="3.60771">
        <ele>843.79998779297</ele>
        <time>2022-06-29T08:25:31.000Z</time>
      </trkpt>
      <trkpt lat="44.32935" lon="3.60771">
        <ele>843.79998779297</ele>
        <time>2022-06-29T08:25:34.000Z</time>
      </trkpt>
      <trkpt lat="44.32935" lon="3.60771">
        <ele>843.79998779297</ele>
        <time>2022-06-29T08:25:36.000Z</time>
      </trkpt>
      <trkpt lat="44.32936" lon="3.60772">
        <ele>843.79998779297</ele>
        <time>2022-06-29T08:25:42.000Z</time>
      </trkpt>
      <trkpt lat="44.32939" lon="3.60775">
        <ele>843.79998779297</ele>
        <time>2022-06-29T08:25:47.000Z</time>
      </trkpt>
      <trkpt lat="44.32943" lon="3.6078">
        <ele>843.79998779297</ele>
        <time>2022-06-29T08:25:53.000Z</time>
      </trkpt>
      <trkpt lat="44.32947" lon="3.60785">
        <ele>843.79998779297</ele>
        <time>2022-06-29T08:25:59.000Z</time>
      </trkpt>
      <trkpt lat="44.32948" lon="3.60788">
        <ele>843.79998779297</ele>
        <time>2022-06-29T08:26:02.000Z</time>
      </trkpt>
      <trkpt lat="44.32951" lon="3.60794">
        <ele>844</ele>
        <time>2022-06-29T08:26:08.000Z</time>
      </trkpt>
      <trkpt lat="44.32953" lon="3.60798">
        <ele>844</ele>
        <time>2022-06-29T08:26:14.000Z</time>
      </trkpt>
      <trkpt lat="44.32954" lon="3.60801">
        <ele>844.20001220703</ele>
        <time>2022-06-29T08:26:17.000Z</time>
      </trkpt>
      <trkpt lat="44.32954" lon="3.60802">
        <ele>844.40002441406</ele>
        <time>2022-06-29T08:26:19.000Z</time>
      </trkpt>
      <trkpt lat="44.32952" lon="3.60804">
        <ele>844.59997558594</ele>
        <time>2022-06-29T08:26:25.000Z</time>
      </trkpt>
      <trkpt lat="44.32952" lon="3.60804">
        <ele>844.59997558594</ele>
        <time>2022-06-29T08:26:27.000Z</time>
      </trkpt>
      <trkpt lat="44.32952" lon="3.60804">
        <ele>844.40002441406</ele>
        <time>2022-06-29T08:26:29.000Z</time>
      </trkpt>
      <trkpt lat="44.32953" lon="3.60802">
        <ele>844.40002441406</ele>
        <time>2022-06-29T08:26:35.000Z</time>
      </trkpt>
      <trkpt lat="44.32953" lon="3.60802">
        <ele>844.20001220703</ele>
        <time>2022-06-29T08:26:41.000Z</time>
      </trkpt>
      <trkpt lat="44.32953" lon="3.60802">
        <ele>844.20001220703</ele>
        <time>2022-06-29T08:26:42.000Z</time>
      </trkpt>
      <trkpt lat="44.32953" lon="3.60803">
        <ele>844.59997558594</ele>
        <time>2022-06-29T08:26:48.000Z</time>
      </trkpt>
      <trkpt lat="44.32953" lon="3.60803">
        <ele>844.59997558594</ele>
        <time>2022-06-29T08:26:49.000Z</time>
      </trkpt>
      <trkpt lat="44.32953" lon="3.60804">
        <ele>844.59997558594</ele>
        <time>2022-06-29T08:26:52.000Z</time>
      </trkpt>
      <trkpt lat="44.32953" lon="3.60805">
        <ele>844.59997558594</ele>
        <time>2022-06-29T08:26:54.000Z</time>
      </trkpt>
      <trkpt lat="44.32952" lon="3.60805">
        <ele>844.59997558594</ele>
        <time>2022-06-29T08:26:58.000Z</time>
      </trkpt>
      <trkpt lat="44.32952" lon="3.60805">
        <ele>844.79998779297</ele>
        <time>2022-06-29T08:26:59.000Z</time>
      </trkpt>
      <trkpt lat="44.32952" lon="3.60805">
        <ele>845</ele>
        <time>2022-06-29T08:27:05.000Z</time>
      </trkpt>
      <trkpt lat="44.32953" lon="3.60806">
        <ele>845.20001220703</ele>
        <time>2022-06-29T08:27:11.000Z</time>
      </trkpt>
      <trkpt lat="44.32953" lon="3.60806">
        <ele>845.20001220703</ele>
        <time>2022-06-29T08:27:14.000Z</time>
      </trkpt>
      <trkpt lat="44.32953" lon="3.60806">
        <ele>845.40002441406</ele>
        <time>2022-06-29T08:27:17.000Z</time>
      </trkpt>
      <trkpt lat="44.32953" lon="3.60805">
        <ele>845.40002441406</ele>
        <time>2022-06-29T08:27:23.000Z</time>
      </trkpt>
      <trkpt lat="44.32954" lon="3.60805">
        <ele>845.20001220703</ele>
        <time>2022-06-29T08:27:24.000Z</time>
      </trkpt>
      <trkpt lat="44.32954" lon="3.60804">
        <ele>845.20001220703</ele>
        <time>2022-06-29T08:27:27.000Z</time>
      </trkpt>
      <trkpt lat="44.32954" lon="3.60804">
        <ele>845</ele>
        <time>2022-06-29T08:27:29.000Z</time>
      </trkpt>
      <trkpt lat="44.32955" lon="3.60803">
        <ele>845</ele>
        <time>2022-06-29T08:27:31.000Z</time>
      </trkpt>
      <trkpt lat="44.32955" lon="3.60804">
        <ele>845</ele>
        <time>2022-06-29T08:27:37.000Z</time>
      </trkpt>
      <trkpt lat="44.32955" lon="3.60804">
        <ele>845</ele>
        <time>2022-06-29T08:27:41.000Z</time>
      </trkpt>
      <trkpt lat="44.32955" lon="3.60804">
        <ele>845</ele>
        <time>2022-06-29T08:27:42.000Z</time>
      </trkpt>
      <trkpt lat="44.32955" lon="3.60804">
        <ele>844.79998779297</ele>
        <time>2022-06-29T08:27:48.000Z</time>
      </trkpt>
      <trkpt lat="44.32955" lon="3.60804">
        <ele>844.20001220703</ele>
        <time>2022-06-29T08:27:54.000Z</time>
      </trkpt>
      <trkpt lat="44.32955" lon="3.60804">
        <ele>844</ele>
        <time>2022-06-29T08:27:57.000Z</time>
      </trkpt>
      <trkpt lat="44.32953" lon="3.60801">
        <ele>844.20001220703</ele>
        <time>2022-06-29T08:28:03.000Z</time>
      </trkpt>
      <trkpt lat="44.32953" lon="3.608">
        <ele>844.40002441406</ele>
        <time>2022-06-29T08:28:09.000Z</time>
      </trkpt>
      <trkpt lat="44.32953" lon="3.608">
        <ele>844.59997558594</ele>
        <time>2022-06-29T08:28:10.000Z</time>
      </trkpt>
      <trkpt lat="44.32954" lon="3.608">
        <ele>844.79998779297</ele>
        <time>2022-06-29T08:28:15.000Z</time>
      </trkpt>
      <trkpt lat="44.32952" lon="3.60801">
        <ele>844.59997558594</ele>
        <time>2022-06-29T08:28:21.000Z</time>
      </trkpt>
      <trkpt lat="44.32953" lon="3.60803">
        <ele>844.79998779297</ele>
        <time>2022-06-29T08:28:24.000Z</time>
      </trkpt>
      <trkpt lat="44.32953" lon="3.60804">
        <ele>844.79998779297</ele>
        <time>2022-06-29T08:28:25.000Z</time>
      </trkpt>
      <trkpt lat="44.32954" lon="3.60806">
        <ele>844.79998779297</ele>
        <time>2022-06-29T08:28:31.000Z</time>
      </trkpt>
      <trkpt lat="44.32956" lon="3.60807">
        <ele>844.79998779297</ele>
        <time>2022-06-29T08:28:37.000Z</time>
      </trkpt>
      <trkpt lat="44.32956" lon="3.60807">
        <ele>844.59997558594</ele>
        <time>2022-06-29T08:28:39.000Z</time>
      </trkpt>
      <trkpt lat="44.32957" lon="3.60807">
        <ele>844.40002441406</ele>
        <time>2022-06-29T08:28:45.000Z</time>
      </trkpt>
      <trkpt lat="44.32956" lon="3.60807">
        <ele>844.20001220703</ele>
        <time>2022-06-29T08:28:49.000Z</time>
      </trkpt>
      <trkpt lat="44.32956" lon="3.60807">
        <ele>844.20001220703</ele>
        <time>2022-06-29T08:28:54.000Z</time>
      </trkpt>
      <trkpt lat="44.32956" lon="3.60807">
        <ele>844.20001220703</ele>
        <time>2022-06-29T08:28:55.000Z</time>
      </trkpt>
      <trkpt lat="44.32956" lon="3.60808">
        <ele>844.20001220703</ele>
        <time>2022-06-29T08:28:57.000Z</time>
      </trkpt>
      <trkpt lat="44.32954" lon="3.60808">
        <ele>844.40002441406</ele>
        <time>2022-06-29T08:29:03.000Z</time>
      </trkpt>
      <trkpt lat="44.32954" lon="3.60807">
        <ele>844.40002441406</ele>
        <time>2022-06-29T08:29:05.000Z</time>
      </trkpt>
      <trkpt lat="44.32956" lon="3.60807">
        <ele>844.20001220703</ele>
        <time>2022-06-29T08:29:10.000Z</time>
      </trkpt>
      <trkpt lat="44.32956" lon="3.60806">
        <ele>844.20001220703</ele>
        <time>2022-06-29T08:29:11.000Z</time>
      </trkpt>
      <trkpt lat="44.32961" lon="3.60805">
        <ele>844.59997558594</ele>
        <time>2022-06-29T08:29:17.000Z</time>
      </trkpt>
      <trkpt lat="44.3296" lon="3.60806">
        <ele>844.79998779297</ele>
        <time>2022-06-29T08:29:23.000Z</time>
      </trkpt>
      <trkpt lat="44.3296" lon="3.60806">
        <ele>844.79998779297</ele>
        <time>2022-06-29T08:29:24.000Z</time>
      </trkpt>
      <trkpt lat="44.3296" lon="3.60807">
        <ele>844.79998779297</ele>
        <time>2022-06-29T08:29:30.000Z</time>
      </trkpt>
      <trkpt lat="44.32959" lon="3.60807">
        <ele>844.59997558594</ele>
        <time>2022-06-29T08:29:34.000Z</time>
      </trkpt>
      <trkpt lat="44.32958" lon="3.60807">
        <ele>844.59997558594</ele>
        <time>2022-06-29T08:29:40.000Z</time>
      </trkpt>
      <trkpt lat="44.32957" lon="3.60807">
        <ele>844.59997558594</ele>
        <time>2022-06-29T08:29:44.000Z</time>
      </trkpt>
      <trkpt lat="44.32957" lon="3.60807">
        <ele>844.59997558594</ele>
        <time>2022-06-29T08:29:46.000Z</time>
      </trkpt>
      <trkpt lat="44.32957" lon="3.60807">
        <ele>844.59997558594</ele>
        <time>2022-06-29T08:29:48.000Z</time>
      </trkpt>
      <trkpt lat="44.32957" lon="3.60807">
        <ele>844.59997558594</ele>
        <time>2022-06-29T08:29:50.000Z</time>
      </trkpt>
      <trkpt lat="44.32957" lon="3.60807">
        <ele>844.59997558594</ele>
        <time>2022-06-29T08:29:51.000Z</time>
      </trkpt>
      <trkpt lat="44.32956" lon="3.60807">
        <ele>844.59997558594</ele>
        <time>2022-06-29T08:29:57.000Z</time>
      </trkpt>
      <trkpt lat="44.32955" lon="3.60805">
        <ele>844.59997558594</ele>
        <time>2022-06-29T08:30:03.000Z</time>
      </trkpt>
      <trkpt lat="44.32955" lon="3.60805">
        <ele>844.59997558594</ele>
        <time>2022-06-29T08:30:04.000Z</time>
      </trkpt>
      <trkpt lat="44.32955" lon="3.60805">
        <ele>844.59997558594</ele>
        <time>2022-06-29T08:30:10.000Z</time>
      </trkpt>
      <trkpt lat="44.32955" lon="3.60805">
        <ele>844.59997558594</ele>
        <time>2022-06-29T08:30:16.000Z</time>
      </trkpt>
      <trkpt lat="44.32955" lon="3.60805">
        <ele>844.59997558594</ele>
        <time>2022-06-29T08:30:17.000Z</time>
      </trkpt>
      <trkpt lat="44.32953" lon="3.60806">
        <ele>844.59997558594</ele>
        <time>2022-06-29T08:30:23.000Z</time>
      </trkpt>
      <trkpt lat="44.32952" lon="3.60807">
        <ele>844.59997558594</ele>
        <time>2022-06-29T08:30:26.000Z</time>
      </trkpt>
      <trkpt lat="44.32953" lon="3.60806">
        <ele>844.59997558594</ele>
        <time>2022-06-29T08:30:31.000Z</time>
      </trkpt>
      <trkpt lat="44.32954" lon="3.60806">
        <ele>844.59997558594</ele>
        <time>2022-06-29T08:30:37.000Z</time>
      </trkpt>
      <trkpt lat="44.32954" lon="3.60806">
        <ele>844.59997558594</ele>
        <time>2022-06-29T08:30:39.000Z</time>
      </trkpt>
      <trkpt lat="44.32953" lon="3.60807">
        <ele>844.59997558594</ele>
        <time>2022-06-29T08:30:45.000Z</time>
      </trkpt>
      <trkpt lat="44.32953" lon="3.60806">
        <ele>844.59997558594</ele>
        <time>2022-06-29T08:30:51.000Z</time>
      </trkpt>
      <trkpt lat="44.32953" lon="3.60806">
        <ele>844.59997558594</ele>
        <time>2022-06-29T08:30:52.000Z</time>
      </trkpt>
      <trkpt lat="44.32953" lon="3.60806">
        <ele>844.59997558594</ele>
        <time>2022-06-29T08:30:58.000Z</time>
      </trkpt>
      <trkpt lat="44.32952" lon="3.60808">
        <ele>844.59997558594</ele>
        <time>2022-06-29T08:31:03.000Z</time>
      </trkpt>
      <trkpt lat="44.32952" lon="3.60808">
        <ele>844.59997558594</ele>
        <time>2022-06-29T08:31:09.000Z</time>
      </trkpt>
      <trkpt lat="44.32952" lon="3.60807">
        <ele>844.59997558594</ele>
        <time>2022-06-29T08:31:11.000Z</time>
      </trkpt>
      <trkpt lat="44.32952" lon="3.60807">
        <ele>844.40002441406</ele>
        <time>2022-06-29T08:31:16.000Z</time>
      </trkpt>
      <trkpt lat="44.32952" lon="3.60807">
        <ele>844.40002441406</ele>
        <time>2022-06-29T08:31:17.000Z</time>
      </trkpt>
      <trkpt lat="44.32954" lon="3.6081">
        <ele>844.40002441406</ele>
        <time>2022-06-29T08:31:23.000Z</time>
      </trkpt>
      <trkpt lat="44.32957" lon="3.60813">
        <ele>844.40002441406</ele>
        <time>2022-06-29T08:31:28.000Z</time>
      </trkpt>
      <trkpt lat="44.32958" lon="3.60814">
        <ele>844.59997558594</ele>
        <time>2022-06-29T08:31:30.000Z</time>
      </trkpt>
      <trkpt lat="44.32958" lon="3.60816">
        <ele>844.59997558594</ele>
        <time>2022-06-29T08:31:31.000Z</time>
      </trkpt>
      <trkpt lat="44.32959" lon="3.60818">
        <ele>844.59997558594</ele>
        <time>2022-06-29T08:31:33.000Z</time>
      </trkpt>
      <trkpt lat="44.32961" lon="3.60824">
        <ele>844.59997558594</ele>
        <time>2022-06-29T08:31:38.000Z</time>
      </trkpt>
      <trkpt lat="44.32961" lon="3.60827">
        <ele>844.59997558594</ele>
        <time>2022-06-29T08:31:40.000Z</time>
      </trkpt>
      <trkpt lat="44.32963" lon="3.6083">
        <ele>844.59997558594</ele>
        <time>2022-06-29T08:31:43.000Z</time>
      </trkpt>
      <trkpt lat="44.32964" lon="3.60831">
        <ele>844.59997558594</ele>
        <time>2022-06-29T08:31:44.000Z</time>
      </trkpt>
      <trkpt lat="44.32965" lon="3.60838">
        <ele>844.59997558594</ele>
        <time>2022-06-29T08:31:50.000Z</time>
      </trkpt>
      <trkpt lat="44.32966" lon="3.60842">
        <ele>844.79998779297</ele>
        <time>2022-06-29T08:31:53.000Z</time>
      </trkpt>
      <trkpt lat="44.32969" lon="3.60848">
        <ele>845.20001220703</ele>
        <time>2022-06-29T08:31:59.000Z</time>
      </trkpt>
      <trkpt lat="44.32974" lon="3.60855">
        <ele>845.40002441406</ele>
        <time>2022-06-29T08:32:05.000Z</time>
      </trkpt>
      <trkpt lat="44.32975" lon="3.60856">
        <ele>845.40002441406</ele>
        <time>2022-06-29T08:32:06.000Z</time>
      </trkpt>
      <trkpt lat="44.32976" lon="3.60857">
        <ele>845.59997558594</ele>
        <time>2022-06-29T08:32:07.000Z</time>
      </trkpt>
      <trkpt lat="44.32981" lon="3.60866">
        <ele>845.59997558594</ele>
        <time>2022-06-29T08:32:13.000Z</time>
      </trkpt>
      <trkpt lat="44.32986" lon="3.60873">
        <ele>845.59997558594</ele>
        <time>2022-06-29T08:32:19.000Z</time>
      </trkpt>
      <trkpt lat="44.32987" lon="3.60875">
        <ele>845.79998779297</ele>
        <time>2022-06-29T08:32:20.000Z</time>
      </trkpt>
      <trkpt lat="44.32993" lon="3.6088">
        <ele>846.40002441406</ele>
        <time>2022-06-29T08:32:26.000Z</time>
      </trkpt>
      <trkpt lat="44.32997" lon="3.60883">
        <ele>846.59997558594</ele>
        <time>2022-06-29T08:32:31.000Z</time>
      </trkpt>
      <trkpt lat="44.32999" lon="3.60886">
        <ele>846.79998779297</ele>
        <time>2022-06-29T08:32:34.000Z</time>
      </trkpt>
      <trkpt lat="44.33" lon="3.60887">
        <ele>847</ele>
        <time>2022-06-29T08:32:36.000Z</time>
      </trkpt>
      <trkpt lat="44.33004" lon="3.60894">
        <ele>847</ele>
        <time>2022-06-29T08:32:42.000Z</time>
      </trkpt>
      <trkpt lat="44.33008" lon="3.609">
        <ele>847.59997558594</ele>
        <time>2022-06-29T08:32:48.000Z</time>
      </trkpt>
      <trkpt lat="44.33009" lon="3.60901">
        <ele>847.59997558594</ele>
        <time>2022-06-29T08:32:50.000Z</time>
      </trkpt>
      <trkpt lat="44.33009" lon="3.60902">
        <ele>847.79998779297</ele>
        <time>2022-06-29T08:32:51.000Z</time>
      </trkpt>
      <trkpt lat="44.3301" lon="3.60904">
        <ele>848</ele>
        <time>2022-06-29T08:32:53.000Z</time>
      </trkpt>
      <trkpt lat="44.33014" lon="3.6091">
        <ele>848.59997558594</ele>
        <time>2022-06-29T08:32:59.000Z</time>
      </trkpt>
      <trkpt lat="44.33015" lon="3.60911">
        <ele>848.59997558594</ele>
        <time>2022-06-29T08:33:00.000Z</time>
      </trkpt>
      <trkpt lat="44.33019" lon="3.60916">
        <ele>848.79998779297</ele>
        <time>2022-06-29T08:33:06.000Z</time>
      </trkpt>
      <trkpt lat="44.33024" lon="3.60922">
        <ele>849.20001220703</ele>
        <time>2022-06-29T08:33:12.000Z</time>
      </trkpt>
      <trkpt lat="44.33026" lon="3.60927">
        <ele>849.59997558594</ele>
        <time>2022-06-29T08:33:16.000Z</time>
      </trkpt>
      <trkpt lat="44.33028" lon="3.6093">
        <ele>849.59997558594</ele>
        <time>2022-06-29T08:33:19.000Z</time>
      </trkpt>
      <trkpt lat="44.33029" lon="3.60931">
        <ele>849.59997558594</ele>
        <time>2022-06-29T08:33:20.000Z</time>
      </trkpt>
      <trkpt lat="44.33032" lon="3.60939">
        <ele>850</ele>
        <time>2022-06-29T08:33:26.000Z</time>
      </trkpt>
      <trkpt lat="44.33036" lon="3.60946">
        <ele>850.40002441406</ele>
        <time>2022-06-29T08:33:32.000Z</time>
      </trkpt>
      <trkpt lat="44.33036" lon="3.60947">
        <ele>850.40002441406</ele>
        <time>2022-06-29T08:33:33.000Z</time>
      </trkpt>
      <trkpt lat="44.33039" lon="3.60951">
        <ele>850.40002441406</ele>
        <time>2022-06-29T08:33:37.000Z</time>
      </trkpt>
      <trkpt lat="44.33041" lon="3.60955">
        <ele>850.59997558594</ele>
        <time>2022-06-29T08:33:41.000Z</time>
      </trkpt>
      <trkpt lat="44.33045" lon="3.60959">
        <ele>850.79998779297</ele>
        <time>2022-06-29T08:33:46.000Z</time>
      </trkpt>
      <trkpt lat="44.33046" lon="3.60961">
        <ele>851</ele>
        <time>2022-06-29T08:33:48.000Z</time>
      </trkpt>
      <trkpt lat="44.3305" lon="3.60964">
        <ele>851.20001220703</ele>
        <time>2022-06-29T08:33:54.000Z</time>
      </trkpt>
      <trkpt lat="44.33056" lon="3.60971">
        <ele>851.59997558594</ele>
        <time>2022-06-29T08:34:00.000Z</time>
      </trkpt>
      <trkpt lat="44.33057" lon="3.60972">
        <ele>851.79998779297</ele>
        <time>2022-06-29T08:34:01.000Z</time>
      </trkpt>
      <trkpt lat="44.3306" lon="3.60974">
        <ele>852</ele>
        <time>2022-06-29T08:34:04.000Z</time>
      </trkpt>
      <trkpt lat="44.33061" lon="3.60975">
        <ele>852</ele>
        <time>2022-06-29T08:34:05.000Z</time>
      </trkpt>
      <trkpt lat="44.33062" lon="3.60976">
        <ele>852.20001220703</ele>
        <time>2022-06-29T08:34:07.000Z</time>
      </trkpt>
      <trkpt lat="44.33067" lon="3.60981">
        <ele>852.79998779297</ele>
        <time>2022-06-29T08:34:13.000Z</time>
      </trkpt>
      <trkpt lat="44.33067" lon="3.60982">
        <ele>852.79998779297</ele>
        <time>2022-06-29T08:34:14.000Z</time>
      </trkpt>
      <trkpt lat="44.33068" lon="3.60982">
        <ele>852.79998779297</ele>
        <time>2022-06-29T08:34:15.000Z</time>
      </trkpt>
      <trkpt lat="44.33073" lon="3.60983">
        <ele>853.79998779297</ele>
        <time>2022-06-29T08:34:20.000Z</time>
      </trkpt>
      <trkpt lat="44.33074" lon="3.60984">
        <ele>853.79998779297</ele>
        <time>2022-06-29T08:34:21.000Z</time>
      </trkpt>
      <trkpt lat="44.33077" lon="3.60987">
        <ele>854</ele>
        <time>2022-06-29T08:34:25.000Z</time>
      </trkpt>
      <trkpt lat="44.33077" lon="3.60988">
        <ele>854</ele>
        <time>2022-06-29T08:34:26.000Z</time>
      </trkpt>
      <trkpt lat="44.33078" lon="3.60989">
        <ele>854.20001220703</ele>
        <time>2022-06-29T08:34:28.000Z</time>
      </trkpt>
      <trkpt lat="44.33082" lon="3.60992">
        <ele>854.79998779297</ele>
        <time>2022-06-29T08:34:34.000Z</time>
      </trkpt>
      <trkpt lat="44.33082" lon="3.60993">
        <ele>855</ele>
        <time>2022-06-29T08:34:35.000Z</time>
      </trkpt>
      <trkpt lat="44.33084" lon="3.60998">
        <ele>855.59997558594</ele>
        <time>2022-06-29T08:34:39.000Z</time>
      </trkpt>
      <trkpt lat="44.33085" lon="3.61002">
        <ele>856</ele>
        <time>2022-06-29T08:34:42.000Z</time>
      </trkpt>
      <trkpt lat="44.33085" lon="3.61004">
        <ele>856.20001220703</ele>
        <time>2022-06-29T08:34:43.000Z</time>
      </trkpt>
      <trkpt lat="44.33088" lon="3.61009">
        <ele>857</ele>
        <time>2022-06-29T08:34:49.000Z</time>
      </trkpt>
      <trkpt lat="44.33089" lon="3.61011">
        <ele>857</ele>
        <time>2022-06-29T08:34:51.000Z</time>
      </trkpt>
      <trkpt lat="44.33092" lon="3.61015">
        <ele>857.59997558594</ele>
        <time>2022-06-29T08:34:55.000Z</time>
      </trkpt>
      <trkpt lat="44.33093" lon="3.61016">
        <ele>857.79998779297</ele>
        <time>2022-06-29T08:34:57.000Z</time>
      </trkpt>
      <trkpt lat="44.33094" lon="3.61019">
        <ele>858.20001220703</ele>
        <time>2022-06-29T08:35:00.000Z</time>
      </trkpt>
      <trkpt lat="44.33095" lon="3.61026">
        <ele>858.79998779297</ele>
        <time>2022-06-29T08:35:06.000Z</time>
      </trkpt>
      <trkpt lat="44.33096" lon="3.61029">
        <ele>859.20001220703</ele>
        <time>2022-06-29T08:35:09.000Z</time>
      </trkpt>
      <trkpt lat="44.33097" lon="3.61032">
        <ele>859.79998779297</ele>
        <time>2022-06-29T08:35:12.000Z</time>
      </trkpt>
      <trkpt lat="44.33098" lon="3.61036">
        <ele>860.20001220703</ele>
        <time>2022-06-29T08:35:16.000Z</time>
      </trkpt>
      <trkpt lat="44.33101" lon="3.61038">
        <ele>860.59997558594</ele>
        <time>2022-06-29T08:35:19.000Z</time>
      </trkpt>
      <trkpt lat="44.33104" lon="3.61042">
        <ele>861.40002441406</ele>
        <time>2022-06-29T08:35:24.000Z</time>
      </trkpt>
      <trkpt lat="44.33105" lon="3.61043">
        <ele>861.79998779297</ele>
        <time>2022-06-29T08:35:26.000Z</time>
      </trkpt>
      <trkpt lat="44.33107" lon="3.61049">
        <ele>862.20001220703</ele>
        <time>2022-06-29T08:35:32.000Z</time>
      </trkpt>
      <trkpt lat="44.33107" lon="3.6105">
        <ele>862.59997558594</ele>
        <time>2022-06-29T08:35:33.000Z</time>
      </trkpt>
      <trkpt lat="44.3311" lon="3.61055">
        <ele>863.20001220703</ele>
        <time>2022-06-29T08:35:39.000Z</time>
      </trkpt>
      <trkpt lat="44.3311" lon="3.61058">
        <ele>863.40002441406</ele>
        <time>2022-06-29T08:35:41.000Z</time>
      </trkpt>
      <trkpt lat="44.33112" lon="3.6106">
        <ele>863.79998779297</ele>
        <time>2022-06-29T08:35:44.000Z</time>
      </trkpt>
      <trkpt lat="44.33114" lon="3.61065">
        <ele>864.79998779297</ele>
        <time>2022-06-29T08:35:50.000Z</time>
      </trkpt>
      <trkpt lat="44.33114" lon="3.61067">
        <ele>864.79998779297</ele>
        <time>2022-06-29T08:35:54.000Z</time>
      </trkpt>
      <trkpt lat="44.33116" lon="3.61072">
        <ele>865.59997558594</ele>
        <time>2022-06-29T08:36:00.000Z</time>
      </trkpt>
      <trkpt lat="44.33116" lon="3.61075">
        <ele>865.79998779297</ele>
        <time>2022-06-29T08:36:02.000Z</time>
      </trkpt>
      <trkpt lat="44.33118" lon="3.61079">
        <ele>866.40002441406</ele>
        <time>2022-06-29T08:36:08.000Z</time>
      </trkpt>
      <trkpt lat="44.33119" lon="3.6108">
        <ele>866.59997558594</ele>
        <time>2022-06-29T08:36:09.000Z</time>
      </trkpt>
      <trkpt lat="44.3312" lon="3.61081">
        <ele>866.79998779297</ele>
        <time>2022-06-29T08:36:11.000Z</time>
      </trkpt>
      <trkpt lat="44.33122" lon="3.61086">
        <ele>867</ele>
        <time>2022-06-29T08:36:17.000Z</time>
      </trkpt>
      <trkpt lat="44.33122" lon="3.6109">
        <ele>867.40002441406</ele>
        <time>2022-06-29T08:36:23.000Z</time>
      </trkpt>
      <trkpt lat="44.33122" lon="3.61091">
        <ele>867.59997558594</ele>
        <time>2022-06-29T08:36:24.000Z</time>
      </trkpt>
      <trkpt lat="44.33122" lon="3.61092">
        <ele>867.59997558594</ele>
        <time>2022-06-29T08:36:25.000Z</time>
      </trkpt>
      <trkpt lat="44.33122" lon="3.61095">
        <ele>867.79998779297</ele>
        <time>2022-06-29T08:36:29.000Z</time>
      </trkpt>
      <trkpt lat="44.33123" lon="3.61101">
        <ele>868.40002441406</ele>
        <time>2022-06-29T08:36:35.000Z</time>
      </trkpt>
      <trkpt lat="44.33123" lon="3.61101">
        <ele>868.59997558594</ele>
        <time>2022-06-29T08:36:36.000Z</time>
      </trkpt>
      <trkpt lat="44.33123" lon="3.61104">
        <ele>868.59997558594</ele>
        <time>2022-06-29T08:36:38.000Z</time>
      </trkpt>
      <trkpt lat="44.33124" lon="3.61107">
        <ele>868.79998779297</ele>
        <time>2022-06-29T08:36:41.000Z</time>
      </trkpt>
      <trkpt lat="44.33125" lon="3.61109">
        <ele>868.79998779297</ele>
        <time>2022-06-29T08:36:43.000Z</time>
      </trkpt>
      <trkpt lat="44.33125" lon="3.61115">
        <ele>869.40002441406</ele>
        <time>2022-06-29T08:36:49.000Z</time>
      </trkpt>
      <trkpt lat="44.33125" lon="3.6112">
        <ele>870</ele>
        <time>2022-06-29T08:36:54.000Z</time>
      </trkpt>
      <trkpt lat="44.33125" lon="3.61124">
        <ele>870.40002441406</ele>
        <time>2022-06-29T08:36:59.000Z</time>
      </trkpt>
      <trkpt lat="44.33127" lon="3.61129">
        <ele>870.79998779297</ele>
        <time>2022-06-29T08:37:05.000Z</time>
      </trkpt>
      <trkpt lat="44.33127" lon="3.6113">
        <ele>871</ele>
        <time>2022-06-29T08:37:06.000Z</time>
      </trkpt>
      <trkpt lat="44.33128" lon="3.61132">
        <ele>871.40002441406</ele>
        <time>2022-06-29T08:37:08.000Z</time>
      </trkpt>
      <trkpt lat="44.33129" lon="3.61137">
        <ele>871.79998779297</ele>
        <time>2022-06-29T08:37:14.000Z</time>
      </trkpt>
      <trkpt lat="44.33129" lon="3.61137">
        <ele>871.79998779297</ele>
        <time>2022-06-29T08:37:15.000Z</time>
      </trkpt>
      <trkpt lat="44.33129" lon="3.61141">
        <ele>872.20001220703</ele>
        <time>2022-06-29T08:37:19.000Z</time>
      </trkpt>
      <trkpt lat="44.3313" lon="3.61146">
        <ele>872.79998779297</ele>
        <time>2022-06-29T08:37:25.000Z</time>
      </trkpt>
      <trkpt lat="44.33131" lon="3.6115">
        <ele>873.20001220703</ele>
        <time>2022-06-29T08:37:29.000Z</time>
      </trkpt>
      <trkpt lat="44.33132" lon="3.61152">
        <ele>873.40002441406</ele>
        <time>2022-06-29T08:37:32.000Z</time>
      </trkpt>
      <trkpt lat="44.33132" lon="3.61158">
        <ele>874</ele>
        <time>2022-06-29T08:37:38.000Z</time>
      </trkpt>
      <trkpt lat="44.33133" lon="3.6116">
        <ele>874.20001220703</ele>
        <time>2022-06-29T08:37:41.000Z</time>
      </trkpt>
      <trkpt lat="44.33135" lon="3.61164">
        <ele>874.59997558594</ele>
        <time>2022-06-29T08:37:45.000Z</time>
      </trkpt>
      <trkpt lat="44.33136" lon="3.61169">
        <ele>874.79998779297</ele>
        <time>2022-06-29T08:37:51.000Z</time>
      </trkpt>
      <trkpt lat="44.33136" lon="3.61172">
        <ele>875.40002441406</ele>
        <time>2022-06-29T08:37:54.000Z</time>
      </trkpt>
      <trkpt lat="44.33137" lon="3.61176">
        <ele>875.79998779297</ele>
        <time>2022-06-29T08:38:00.000Z</time>
      </trkpt>
      <trkpt lat="44.33137" lon="3.61181">
        <ele>876.59997558594</ele>
        <time>2022-06-29T08:38:06.000Z</time>
      </trkpt>
      <trkpt lat="44.33138" lon="3.61186">
        <ele>877.20001220703</ele>
        <time>2022-06-29T08:38:12.000Z</time>
      </trkpt>
      <trkpt lat="44.33138" lon="3.61189">
        <ele>877.59997558594</ele>
        <time>2022-06-29T08:38:15.000Z</time>
      </trkpt>
      <trkpt lat="44.33139" lon="3.6119">
        <ele>877.59997558594</ele>
        <time>2022-06-29T08:38:16.000Z</time>
      </trkpt>
      <trkpt lat="44.33141" lon="3.61192">
        <ele>878.20001220703</ele>
        <time>2022-06-29T08:38:21.000Z</time>
      </trkpt>
      <trkpt lat="44.33143" lon="3.61194">
        <ele>878.59997558594</ele>
        <time>2022-06-29T08:38:25.000Z</time>
      </trkpt>
      <trkpt lat="44.33145" lon="3.61194">
        <ele>878.79998779297</ele>
        <time>2022-06-29T08:38:27.000Z</time>
      </trkpt>
      <trkpt lat="44.33149" lon="3.61198">
        <ele>879.40002441406</ele>
        <time>2022-06-29T08:38:33.000Z</time>
      </trkpt>
      <trkpt lat="44.33153" lon="3.61202">
        <ele>879.59997558594</ele>
        <time>2022-06-29T08:38:39.000Z</time>
      </trkpt>
      <trkpt lat="44.33157" lon="3.61207">
        <ele>880</ele>
        <time>2022-06-29T08:38:45.000Z</time>
      </trkpt>
      <trkpt lat="44.3316" lon="3.61213">
        <ele>880</ele>
        <time>2022-06-29T08:38:51.000Z</time>
      </trkpt>
      <trkpt lat="44.33162" lon="3.61217">
        <ele>879.79998779297</ele>
        <time>2022-06-29T08:38:54.000Z</time>
      </trkpt>
      <trkpt lat="44.33163" lon="3.6122">
        <ele>879.79998779297</ele>
        <time>2022-06-29T08:38:57.000Z</time>
      </trkpt>
      <trkpt lat="44.33166" lon="3.61225">
        <ele>879.79998779297</ele>
        <time>2022-06-29T08:39:02.000Z</time>
      </trkpt>
      <trkpt lat="44.33166" lon="3.61226">
        <ele>879.79998779297</ele>
        <time>2022-06-29T08:39:03.000Z</time>
      </trkpt>
      <trkpt lat="44.33168" lon="3.61229">
        <ele>879.79998779297</ele>
        <time>2022-06-29T08:39:06.000Z</time>
      </trkpt>
      <trkpt lat="44.3317" lon="3.61232">
        <ele>879.59997558594</ele>
        <time>2022-06-29T08:39:10.000Z</time>
      </trkpt>
      <trkpt lat="44.33172" lon="3.61239">
        <ele>879.40002441406</ele>
        <time>2022-06-29T08:39:15.000Z</time>
      </trkpt>
      <trkpt lat="44.33175" lon="3.61247">
        <ele>879.20001220703</ele>
        <time>2022-06-29T08:39:21.000Z</time>
      </trkpt>
      <trkpt lat="44.33177" lon="3.61251">
        <ele>879.20001220703</ele>
        <time>2022-06-29T08:39:25.000Z</time>
      </trkpt>
      <trkpt lat="44.33181" lon="3.61258">
        <ele>879</ele>
        <time>2022-06-29T08:39:31.000Z</time>
      </trkpt>
      <trkpt lat="44.33183" lon="3.61264">
        <ele>879.20001220703</ele>
        <time>2022-06-29T08:39:37.000Z</time>
      </trkpt>
      <trkpt lat="44.33187" lon="3.61268">
        <ele>879.20001220703</ele>
        <time>2022-06-29T08:39:43.000Z</time>
      </trkpt>
      <trkpt lat="44.33192" lon="3.61276">
        <ele>879.40002441406</ele>
        <time>2022-06-29T08:39:49.000Z</time>
      </trkpt>
      <trkpt lat="44.33196" lon="3.61283">
        <ele>879.79998779297</ele>
        <time>2022-06-29T08:39:55.000Z</time>
      </trkpt>
      <trkpt lat="44.33198" lon="3.61288">
        <ele>880</ele>
        <time>2022-06-29T08:39:59.000Z</time>
      </trkpt>
      <trkpt lat="44.33205" lon="3.61293">
        <ele>879.79998779297</ele>
        <time>2022-06-29T08:40:05.000Z</time>
      </trkpt>
      <trkpt lat="44.3321" lon="3.61298">
        <ele>879.79998779297</ele>
        <time>2022-06-29T08:40:11.000Z</time>
      </trkpt>
      <trkpt lat="44.3321" lon="3.61301">
        <ele>879.79998779297</ele>
        <time>2022-06-29T08:40:14.000Z</time>
      </trkpt>
      <trkpt lat="44.33209" lon="3.61304">
        <ele>880</ele>
        <time>2022-06-29T08:40:18.000Z</time>
      </trkpt>
      <trkpt lat="44.33212" lon="3.6131">
        <ele>880.20001220703</ele>
        <time>2022-06-29T08:40:23.000Z</time>
      </trkpt>
      <trkpt lat="44.33212" lon="3.61311">
        <ele>880.20001220703</ele>
        <time>2022-06-29T08:40:24.000Z</time>
      </trkpt>
      <trkpt lat="44.33212" lon="3.61313">
        <ele>880.20001220703</ele>
        <time>2022-06-29T08:40:25.000Z</time>
      </trkpt>
      <trkpt lat="44.33213" lon="3.61315">
        <ele>880.20001220703</ele>
        <time>2022-06-29T08:40:26.000Z</time>
      </trkpt>
      <trkpt lat="44.33219" lon="3.61322">
        <ele>879.79998779297</ele>
        <time>2022-06-29T08:40:32.000Z</time>
      </trkpt>
      <trkpt lat="44.33227" lon="3.61328">
        <ele>879.79998779297</ele>
        <time>2022-06-29T08:40:38.000Z</time>
      </trkpt>
      <trkpt lat="44.33228" lon="3.61329">
        <ele>880</ele>
        <time>2022-06-29T08:40:39.000Z</time>
      </trkpt>
      <trkpt lat="44.33229" lon="3.61329">
        <ele>880</ele>
        <time>2022-06-29T08:40:40.000Z</time>
      </trkpt>
      <trkpt lat="44.33234" lon="3.61331">
        <ele>880</ele>
        <time>2022-06-29T08:40:46.000Z</time>
      </trkpt>
      <trkpt lat="44.33238" lon="3.6133">
        <ele>879.59997558594</ele>
        <time>2022-06-29T08:40:49.000Z</time>
      </trkpt>
      <trkpt lat="44.33241" lon="3.61329">
        <ele>879</ele>
        <time>2022-06-29T08:40:53.000Z</time>
      </trkpt>
      <trkpt lat="44.33242" lon="3.61329">
        <ele>879</ele>
        <time>2022-06-29T08:40:54.000Z</time>
      </trkpt>
      <trkpt lat="44.33244" lon="3.61328">
        <ele>878.79998779297</ele>
        <time>2022-06-29T08:40:57.000Z</time>
      </trkpt>
      <trkpt lat="44.33245" lon="3.61328">
        <ele>878.59997558594</ele>
        <time>2022-06-29T08:40:58.000Z</time>
      </trkpt>
      <trkpt lat="44.33246" lon="3.61327">
        <ele>878.59997558594</ele>
        <time>2022-06-29T08:40:59.000Z</time>
      </trkpt>
      <trkpt lat="44.3325" lon="3.61326">
        <ele>878.40002441406</ele>
        <time>2022-06-29T08:41:02.000Z</time>
      </trkpt>
      <trkpt lat="44.33251" lon="3.61325">
        <ele>878</ele>
        <time>2022-06-29T08:41:04.000Z</time>
      </trkpt>
      <trkpt lat="44.33253" lon="3.61324">
        <ele>878</ele>
        <time>2022-06-29T08:41:06.000Z</time>
      </trkpt>
      <trkpt lat="44.33254" lon="3.61324">
        <ele>878</ele>
        <time>2022-06-29T08:41:07.000Z</time>
      </trkpt>
      <trkpt lat="44.33259" lon="3.61322">
        <ele>878</ele>
        <time>2022-06-29T08:41:10.000Z</time>
      </trkpt>
      <trkpt lat="44.33262" lon="3.61321">
        <ele>877.79998779297</ele>
        <time>2022-06-29T08:41:13.000Z</time>
      </trkpt>
      <trkpt lat="44.33264" lon="3.61321">
        <ele>877.59997558594</ele>
        <time>2022-06-29T08:41:15.000Z</time>
      </trkpt>
      <trkpt lat="44.3327" lon="3.61321">
        <ele>876.79998779297</ele>
        <time>2022-06-29T08:41:21.000Z</time>
      </trkpt>
      <trkpt lat="44.33271" lon="3.61321">
        <ele>876.59997558594</ele>
        <time>2022-06-29T08:41:22.000Z</time>
      </trkpt>
      <trkpt lat="44.33273" lon="3.61321">
        <ele>876.59997558594</ele>
        <time>2022-06-29T08:41:24.000Z</time>
      </trkpt>
      <trkpt lat="44.33273" lon="3.61321">
        <ele>876.40002441406</ele>
        <time>2022-06-29T08:41:25.000Z</time>
      </trkpt>
      <trkpt lat="44.33279" lon="3.6132">
        <ele>875.79998779297</ele>
        <time>2022-06-29T08:41:30.000Z</time>
      </trkpt>
      <trkpt lat="44.33282" lon="3.6132">
        <ele>875.40002441406</ele>
        <time>2022-06-29T08:41:35.000Z</time>
      </trkpt>
      <trkpt lat="44.33283" lon="3.61319">
        <ele>875</ele>
        <time>2022-06-29T08:41:37.000Z</time>
      </trkpt>
      <trkpt lat="44.33284" lon="3.61318">
        <ele>875</ele>
        <time>2022-06-29T08:41:38.000Z</time>
      </trkpt>
      <trkpt lat="44.33285" lon="3.61317">
        <ele>875</ele>
        <time>2022-06-29T08:41:39.000Z</time>
      </trkpt>
      <trkpt lat="44.33287" lon="3.61317">
        <ele>874.79998779297</ele>
        <time>2022-06-29T08:41:40.000Z</time>
      </trkpt>
      <trkpt lat="44.33291" lon="3.61316">
        <ele>874.40002441406</ele>
        <time>2022-06-29T08:41:46.000Z</time>
      </trkpt>
      <trkpt lat="44.33293" lon="3.61315">
        <ele>874</ele>
        <time>2022-06-29T08:41:48.000Z</time>
      </trkpt>
      <trkpt lat="44.33298" lon="3.61317">
        <ele>873.79998779297</ele>
        <time>2022-06-29T08:41:54.000Z</time>
      </trkpt>
      <trkpt lat="44.333" lon="3.61319">
        <ele>873.59997558594</ele>
        <time>2022-06-29T08:41:58.000Z</time>
      </trkpt>
      <trkpt lat="44.33302" lon="3.6132">
        <ele>873.40002441406</ele>
        <time>2022-06-29T08:42:00.000Z</time>
      </trkpt>
      <trkpt lat="44.33304" lon="3.6132">
        <ele>873.40002441406</ele>
        <time>2022-06-29T08:42:01.000Z</time>
      </trkpt>
      <trkpt lat="44.33305" lon="3.6132">
        <ele>873.20001220703</ele>
        <time>2022-06-29T08:42:02.000Z</time>
      </trkpt>
      <trkpt lat="44.33309" lon="3.6132">
        <ele>873</ele>
        <time>2022-06-29T08:42:06.000Z</time>
      </trkpt>
      <trkpt lat="44.3331" lon="3.61319">
        <ele>872.79998779297</ele>
        <time>2022-06-29T08:42:07.000Z</time>
      </trkpt>
      <trkpt lat="44.33312" lon="3.61318">
        <ele>872.59997558594</ele>
        <time>2022-06-29T08:42:10.000Z</time>
      </trkpt>
      <trkpt lat="44.33312" lon="3.61319">
        <ele>872.59997558594</ele>
        <time>2022-06-29T08:42:11.000Z</time>
      </trkpt>
      <trkpt lat="44.33313" lon="3.6132">
        <ele>872.59997558594</ele>
        <time>2022-06-29T08:42:13.000Z</time>
      </trkpt>
      <trkpt lat="44.33317" lon="3.6132">
        <ele>872.20001220703</ele>
        <time>2022-06-29T08:42:15.000Z</time>
      </trkpt>
      <trkpt lat="44.33318" lon="3.61321">
        <ele>872</ele>
        <time>2022-06-29T08:42:17.000Z</time>
      </trkpt>
      <trkpt lat="44.33326" lon="3.61322">
        <ele>871.79998779297</ele>
        <time>2022-06-29T08:42:22.000Z</time>
      </trkpt>
      <trkpt lat="44.33331" lon="3.61322">
        <ele>871.40002441406</ele>
        <time>2022-06-29T08:42:26.000Z</time>
      </trkpt>
      <trkpt lat="44.33331" lon="3.61322">
        <ele>871.40002441406</ele>
        <time>2022-06-29T08:42:27.000Z</time>
      </trkpt>
      <trkpt lat="44.33333" lon="3.61322">
        <ele>871.20001220703</ele>
        <time>2022-06-29T08:42:29.000Z</time>
      </trkpt>
      <trkpt lat="44.33334" lon="3.61322">
        <ele>871</ele>
        <time>2022-06-29T08:42:32.000Z</time>
      </trkpt>
      <trkpt lat="44.33339" lon="3.61321">
        <ele>871</ele>
        <time>2022-06-29T08:42:38.000Z</time>
      </trkpt>
      <trkpt lat="44.3334" lon="3.61322">
        <ele>871</ele>
        <time>2022-06-29T08:42:39.000Z</time>
      </trkpt>
      <trkpt lat="44.33344" lon="3.61325">
        <ele>871</ele>
        <time>2022-06-29T08:42:45.000Z</time>
      </trkpt>
      <trkpt lat="44.33348" lon="3.6133">
        <ele>870.79998779297</ele>
        <time>2022-06-29T08:42:51.000Z</time>
      </trkpt>
      <trkpt lat="44.3335" lon="3.61332">
        <ele>870.79998779297</ele>
        <time>2022-06-29T08:42:55.000Z</time>
      </trkpt>
      <trkpt lat="44.33347" lon="3.61331">
        <ele>871</ele>
        <time>2022-06-29T08:43:01.000Z</time>
      </trkpt>
      <trkpt lat="44.33347" lon="3.61329">
        <ele>871.20001220703</ele>
        <time>2022-06-29T08:43:05.000Z</time>
      </trkpt>
      <trkpt lat="44.33347" lon="3.61327">
        <ele>871</ele>
        <time>2022-06-29T08:43:08.000Z</time>
      </trkpt>
      <trkpt lat="44.33348" lon="3.61323">
        <ele>870.59997558594</ele>
        <time>2022-06-29T08:43:11.000Z</time>
      </trkpt>
      <trkpt lat="44.33349" lon="3.61323">
        <ele>870.59997558594</ele>
        <time>2022-06-29T08:43:14.000Z</time>
      </trkpt>
      <trkpt lat="44.3335" lon="3.61322">
        <ele>870.40002441406</ele>
        <time>2022-06-29T08:43:16.000Z</time>
      </trkpt>
      <trkpt lat="44.3335" lon="3.61322">
        <ele>870.20001220703</ele>
        <time>2022-06-29T08:43:18.000Z</time>
      </trkpt>
      <trkpt lat="44.33352" lon="3.61324">
        <ele>869.40002441406</ele>
        <time>2022-06-29T08:43:24.000Z</time>
      </trkpt>
      <trkpt lat="44.33352" lon="3.61324">
        <ele>869.20001220703</ele>
        <time>2022-06-29T08:43:26.000Z</time>
      </trkpt>
      <trkpt lat="44.33354" lon="3.61323">
        <ele>868.79998779297</ele>
        <time>2022-06-29T08:43:32.000Z</time>
      </trkpt>
      <trkpt lat="44.3336" lon="3.61322">
        <ele>868</ele>
        <time>2022-06-29T08:43:38.000Z</time>
      </trkpt>
      <trkpt lat="44.33366" lon="3.61319">
        <ele>867.59997558594</ele>
        <time>2022-06-29T08:43:44.000Z</time>
      </trkpt>
      <trkpt lat="44.33368" lon="3.6132">
        <ele>867.40002441406</ele>
        <time>2022-06-29T08:43:45.000Z</time>
      </trkpt>
      <trkpt lat="44.33371" lon="3.6132">
        <ele>867</ele>
        <time>2022-06-29T08:43:47.000Z</time>
      </trkpt>
      <trkpt lat="44.33375" lon="3.6132">
        <ele>866.20001220703</ele>
        <time>2022-06-29T08:43:51.000Z</time>
      </trkpt>
      <trkpt lat="44.33376" lon="3.6132">
        <ele>866.20001220703</ele>
        <time>2022-06-29T08:43:52.000Z</time>
      </trkpt>
      <trkpt lat="44.33377" lon="3.6132">
        <ele>866</ele>
        <time>2022-06-29T08:43:53.000Z</time>
      </trkpt>
      <trkpt lat="44.33378" lon="3.6132">
        <ele>866</ele>
        <time>2022-06-29T08:43:54.000Z</time>
      </trkpt>
      <trkpt lat="44.33381" lon="3.61319">
        <ele>865.79998779297</ele>
        <time>2022-06-29T08:43:58.000Z</time>
      </trkpt>
      <trkpt lat="44.33384" lon="3.61317">
        <ele>865.40002441406</ele>
        <time>2022-06-29T08:44:01.000Z</time>
      </trkpt>
      <trkpt lat="44.33386" lon="3.61316">
        <ele>864.79998779297</ele>
        <time>2022-06-29T08:44:05.000Z</time>
      </trkpt>
      <trkpt lat="44.33392" lon="3.61315">
        <ele>864.40002441406</ele>
        <time>2022-06-29T08:44:09.000Z</time>
      </trkpt>
      <trkpt lat="44.334" lon="3.61315">
        <ele>864</ele>
        <time>2022-06-29T08:44:15.000Z</time>
      </trkpt>
      <trkpt lat="44.33404" lon="3.61315">
        <ele>863.59997558594</ele>
        <time>2022-06-29T08:44:19.000Z</time>
      </trkpt>
      <trkpt lat="44.33407" lon="3.61314">
        <ele>863.59997558594</ele>
        <time>2022-06-29T08:44:22.000Z</time>
      </trkpt>
      <trkpt lat="44.33411" lon="3.61313">
        <ele>863.20001220703</ele>
        <time>2022-06-29T08:44:25.000Z</time>
      </trkpt>
      <trkpt lat="44.33416" lon="3.61312">
        <ele>862.79998779297</ele>
        <time>2022-06-29T08:44:30.000Z</time>
      </trkpt>
      <trkpt lat="44.33417" lon="3.61311">
        <ele>862.59997558594</ele>
        <time>2022-06-29T08:44:31.000Z</time>
      </trkpt>
      <trkpt lat="44.3342" lon="3.6131">
        <ele>862.20001220703</ele>
        <time>2022-06-29T08:44:35.000Z</time>
      </trkpt>
      <trkpt lat="44.33421" lon="3.61309">
        <ele>862.20001220703</ele>
        <time>2022-06-29T08:44:36.000Z</time>
      </trkpt>
      <trkpt lat="44.33423" lon="3.61309">
        <ele>862</ele>
        <time>2022-06-29T08:44:37.000Z</time>
      </trkpt>
      <trkpt lat="44.33424" lon="3.61309">
        <ele>862</ele>
        <time>2022-06-29T08:44:38.000Z</time>
      </trkpt>
      <trkpt lat="44.33431" lon="3.61309">
        <ele>861.59997558594</ele>
        <time>2022-06-29T08:44:44.000Z</time>
      </trkpt>
      <trkpt lat="44.33434" lon="3.61309">
        <ele>861.59997558594</ele>
        <time>2022-06-29T08:44:47.000Z</time>
      </trkpt>
      <trkpt lat="44.33442" lon="3.6131">
        <ele>861.20001220703</ele>
        <time>2022-06-29T08:44:53.000Z</time>
      </trkpt>
      <trkpt lat="44.33444" lon="3.6131">
        <ele>861.20001220703</ele>
        <time>2022-06-29T08:44:54.000Z</time>
      </trkpt>
      <trkpt lat="44.33448" lon="3.6131">
        <ele>861</ele>
        <time>2022-06-29T08:45:00.000Z</time>
      </trkpt>
      <trkpt lat="44.3345" lon="3.61309">
        <ele>860.59997558594</ele>
        <time>2022-06-29T08:45:03.000Z</time>
      </trkpt>
      <trkpt lat="44.33452" lon="3.61308">
        <ele>860.40002441406</ele>
        <time>2022-06-29T08:45:05.000Z</time>
      </trkpt>
      <trkpt lat="44.33454" lon="3.61308">
        <ele>860.20001220703</ele>
        <time>2022-06-29T08:45:08.000Z</time>
      </trkpt>
      <trkpt lat="44.33455" lon="3.61307">
        <ele>860</ele>
        <time>2022-06-29T08:45:10.000Z</time>
      </trkpt>
      <trkpt lat="44.33456" lon="3.61306">
        <ele>859.79998779297</ele>
        <time>2022-06-29T08:45:11.000Z</time>
      </trkpt>
      <trkpt lat="44.33459" lon="3.61305">
        <ele>859.40002441406</ele>
        <time>2022-06-29T08:45:14.000Z</time>
      </trkpt>
      <trkpt lat="44.3346" lon="3.61305">
        <ele>859.40002441406</ele>
        <time>2022-06-29T08:45:15.000Z</time>
      </trkpt>
      <trkpt lat="44.33465" lon="3.61303">
        <ele>858.79998779297</ele>
        <time>2022-06-29T08:45:20.000Z</time>
      </trkpt>
      <trkpt lat="44.33472" lon="3.61301">
        <ele>858.40002441406</ele>
        <time>2022-06-29T08:45:25.000Z</time>
      </trkpt>
      <trkpt lat="44.33472" lon="3.61301">
        <ele>858.20001220703</ele>
        <time>2022-06-29T08:45:26.000Z</time>
      </trkpt>
      <trkpt lat="44.3348" lon="3.613">
        <ele>857.40002441406</ele>
        <time>2022-06-29T08:45:32.000Z</time>
      </trkpt>
      <trkpt lat="44.33481" lon="3.613">
        <ele>857.20001220703</ele>
        <time>2022-06-29T08:45:33.000Z</time>
      </trkpt>
      <trkpt lat="44.33486" lon="3.61299">
        <ele>857</ele>
        <time>2022-06-29T08:45:37.000Z</time>
      </trkpt>
      <trkpt lat="44.33488" lon="3.61299">
        <ele>856.59997558594</ele>
        <time>2022-06-29T08:45:39.000Z</time>
      </trkpt>
      <trkpt lat="44.33491" lon="3.61298">
        <ele>856.40002441406</ele>
        <time>2022-06-29T08:45:42.000Z</time>
      </trkpt>
      <trkpt lat="44.33493" lon="3.61298">
        <ele>856.20001220703</ele>
        <time>2022-06-29T08:45:45.000Z</time>
      </trkpt>
      <trkpt lat="44.33494" lon="3.61298">
        <ele>856</ele>
        <time>2022-06-29T08:45:46.000Z</time>
      </trkpt>
      <trkpt lat="44.33501" lon="3.61298">
        <ele>855.40002441406</ele>
        <time>2022-06-29T08:45:52.000Z</time>
      </trkpt>
      <trkpt lat="44.33503" lon="3.61298">
        <ele>855.20001220703</ele>
        <time>2022-06-29T08:45:53.000Z</time>
      </trkpt>
      <trkpt lat="44.33504" lon="3.61298">
        <ele>855</ele>
        <time>2022-06-29T08:45:54.000Z</time>
      </trkpt>
      <trkpt lat="44.33509" lon="3.61297">
        <ele>854.79998779297</ele>
        <time>2022-06-29T08:45:58.000Z</time>
      </trkpt>
      <trkpt lat="44.33511" lon="3.61297">
        <ele>854.59997558594</ele>
        <time>2022-06-29T08:45:59.000Z</time>
      </trkpt>
      <trkpt lat="44.33512" lon="3.61297">
        <ele>854.59997558594</ele>
        <time>2022-06-29T08:46:00.000Z</time>
      </trkpt>
      <trkpt lat="44.33514" lon="3.61297">
        <ele>854.40002441406</ele>
        <time>2022-06-29T08:46:02.000Z</time>
      </trkpt>
      <trkpt lat="44.33518" lon="3.61297">
        <ele>854</ele>
        <time>2022-06-29T08:46:06.000Z</time>
      </trkpt>
      <trkpt lat="44.33523" lon="3.61297">
        <ele>853.40002441406</ele>
        <time>2022-06-29T08:46:12.000Z</time>
      </trkpt>
      <trkpt lat="44.33525" lon="3.61297">
        <ele>853</ele>
        <time>2022-06-29T08:46:16.000Z</time>
      </trkpt>
      <trkpt lat="44.33531" lon="3.61297">
        <ele>852.79998779297</ele>
        <time>2022-06-29T08:46:22.000Z</time>
      </trkpt>
      <trkpt lat="44.33536" lon="3.613">
        <ele>852.40002441406</ele>
        <time>2022-06-29T08:46:27.000Z</time>
      </trkpt>
      <trkpt lat="44.33537" lon="3.613">
        <ele>852.20001220703</ele>
        <time>2022-06-29T08:46:29.000Z</time>
      </trkpt>
      <trkpt lat="44.3354" lon="3.61301">
        <ele>852</ele>
        <time>2022-06-29T08:46:32.000Z</time>
      </trkpt>
      <trkpt lat="44.33542" lon="3.61301">
        <ele>851.79998779297</ele>
        <time>2022-06-29T08:46:34.000Z</time>
      </trkpt>
      <trkpt lat="44.3355" lon="3.613">
        <ele>851.20001220703</ele>
        <time>2022-06-29T08:46:40.000Z</time>
      </trkpt>
      <trkpt lat="44.33551" lon="3.613">
        <ele>851.20001220703</ele>
        <time>2022-06-29T08:46:41.000Z</time>
      </trkpt>
      <trkpt lat="44.33558" lon="3.61299">
        <ele>850.79998779297</ele>
        <time>2022-06-29T08:46:46.000Z</time>
      </trkpt>
      <trkpt lat="44.3356" lon="3.61298">
        <ele>850.59997558594</ele>
        <time>2022-06-29T08:46:48.000Z</time>
      </trkpt>
      <trkpt lat="44.33566" lon="3.61298">
        <ele>849.79998779297</ele>
        <time>2022-06-29T08:46:54.000Z</time>
      </trkpt>
      <trkpt lat="44.33567" lon="3.61298">
        <ele>849.59997558594</ele>
        <time>2022-06-29T08:46:55.000Z</time>
      </trkpt>
      <trkpt lat="44.33574" lon="3.61297">
        <ele>849.20001220703</ele>
        <time>2022-06-29T08:47:00.000Z</time>
      </trkpt>
      <trkpt lat="44.33575" lon="3.61297">
        <ele>849.20001220703</ele>
        <time>2022-06-29T08:47:01.000Z</time>
      </trkpt>
      <trkpt lat="44.33577" lon="3.61297">
        <ele>849</ele>
        <time>2022-06-29T08:47:03.000Z</time>
      </trkpt>
      <trkpt lat="44.33578" lon="3.61298">
        <ele>849</ele>
        <time>2022-06-29T08:47:04.000Z</time>
      </trkpt>
      <trkpt lat="44.33585" lon="3.61298">
        <ele>848.59997558594</ele>
        <time>2022-06-29T08:47:10.000Z</time>
      </trkpt>
      <trkpt lat="44.33591" lon="3.61296">
        <ele>847.79998779297</ele>
        <time>2022-06-29T08:47:16.000Z</time>
      </trkpt>
      <trkpt lat="44.33593" lon="3.61294">
        <ele>847.59997558594</ele>
        <time>2022-06-29T08:47:19.000Z</time>
      </trkpt>
      <trkpt lat="44.33597" lon="3.61298">
        <ele>846.79998779297</ele>
        <time>2022-06-29T08:47:25.000Z</time>
      </trkpt>
      <trkpt lat="44.33597" lon="3.61298">
        <ele>846.79998779297</ele>
        <time>2022-06-29T08:47:26.000Z</time>
      </trkpt>
      <trkpt lat="44.33598" lon="3.61298">
        <ele>846.79998779297</ele>
        <time>2022-06-29T08:47:27.000Z</time>
      </trkpt>
      <trkpt lat="44.33599" lon="3.61298">
        <ele>846.59997558594</ele>
        <time>2022-06-29T08:47:28.000Z</time>
      </trkpt>
      <trkpt lat="44.336" lon="3.61298">
        <ele>846.59997558594</ele>
        <time>2022-06-29T08:47:29.000Z</time>
      </trkpt>
      <trkpt lat="44.33604" lon="3.61298">
        <ele>845.59997558594</ele>
        <time>2022-06-29T08:47:33.000Z</time>
      </trkpt>
      <trkpt lat="44.33606" lon="3.613">
        <ele>845.59997558594</ele>
        <time>2022-06-29T08:47:36.000Z</time>
      </trkpt>
      <trkpt lat="44.33608" lon="3.61304">
        <ele>845.20001220703</ele>
        <time>2022-06-29T08:47:42.000Z</time>
      </trkpt>
      <trkpt lat="44.33611" lon="3.61305">
        <ele>844.79998779297</ele>
        <time>2022-06-29T08:47:46.000Z</time>
      </trkpt>
      <trkpt lat="44.33614" lon="3.61305">
        <ele>844.59997558594</ele>
        <time>2022-06-29T08:47:48.000Z</time>
      </trkpt>
      <trkpt lat="44.33619" lon="3.61309">
        <ele>844.40002441406</ele>
        <time>2022-06-29T08:47:54.000Z</time>
      </trkpt>
      <trkpt lat="44.33621" lon="3.6131">
        <ele>844.20001220703</ele>
        <time>2022-06-29T08:47:56.000Z</time>
      </trkpt>
      <trkpt lat="44.33623" lon="3.61311">
        <ele>844</ele>
        <time>2022-06-29T08:47:58.000Z</time>
      </trkpt>
      <trkpt lat="44.33626" lon="3.61311">
        <ele>844</ele>
        <time>2022-06-29T08:48:00.000Z</time>
      </trkpt>
      <trkpt lat="44.3363" lon="3.61311">
        <ele>843.59997558594</ele>
        <time>2022-06-29T08:48:06.000Z</time>
      </trkpt>
      <trkpt lat="44.33633" lon="3.61312">
        <ele>843.59997558594</ele>
        <time>2022-06-29T08:48:09.000Z</time>
      </trkpt>
      <trkpt lat="44.33636" lon="3.61312">
        <ele>843.40002441406</ele>
        <time>2022-06-29T08:48:11.000Z</time>
      </trkpt>
      <trkpt lat="44.33639" lon="3.61313">
        <ele>843.20001220703</ele>
        <time>2022-06-29T08:48:14.000Z</time>
      </trkpt>
      <trkpt lat="44.33645" lon="3.61312">
        <ele>842.59997558594</ele>
        <time>2022-06-29T08:48:20.000Z</time>
      </trkpt>
      <trkpt lat="44.33649" lon="3.61312">
        <ele>842.40002441406</ele>
        <time>2022-06-29T08:48:23.000Z</time>
      </trkpt>
      <trkpt lat="44.33652" lon="3.61313">
        <ele>842.40002441406</ele>
        <time>2022-06-29T08:48:26.000Z</time>
      </trkpt>
      <trkpt lat="44.33652" lon="3.61315">
        <ele>842.20001220703</ele>
        <time>2022-06-29T08:48:27.000Z</time>
      </trkpt>
      <trkpt lat="44.33655" lon="3.61316">
        <ele>841.59997558594</ele>
        <time>2022-06-29T08:48:31.000Z</time>
      </trkpt>
      <trkpt lat="44.33657" lon="3.61317">
        <ele>841.40002441406</ele>
        <time>2022-06-29T08:48:33.000Z</time>
      </trkpt>
      <trkpt lat="44.33662" lon="3.61319">
        <ele>841.20001220703</ele>
        <time>2022-06-29T08:48:37.000Z</time>
      </trkpt>
      <trkpt lat="44.33668" lon="3.61321">
        <ele>840.79998779297</ele>
        <time>2022-06-29T08:48:42.000Z</time>
      </trkpt>
      <trkpt lat="44.33674" lon="3.61326">
        <ele>840.40002441406</ele>
        <time>2022-06-29T08:48:48.000Z</time>
      </trkpt>
      <trkpt lat="44.33678" lon="3.61328">
        <ele>840.20001220703</ele>
        <time>2022-06-29T08:48:52.000Z</time>
      </trkpt>
      <trkpt lat="44.33682" lon="3.61331">
        <ele>840</ele>
        <time>2022-06-29T08:48:56.000Z</time>
      </trkpt>
      <trkpt lat="44.33684" lon="3.61332">
        <ele>839.79998779297</ele>
        <time>2022-06-29T08:48:58.000Z</time>
      </trkpt>
      <trkpt lat="44.33686" lon="3.61336">
        <ele>839.40002441406</ele>
        <time>2022-06-29T08:49:02.000Z</time>
      </trkpt>
      <trkpt lat="44.33688" lon="3.61339">
        <ele>839</ele>
        <time>2022-06-29T08:49:05.000Z</time>
      </trkpt>
      <trkpt lat="44.33691" lon="3.61346">
        <ele>838.79998779297</ele>
        <time>2022-06-29T08:49:11.000Z</time>
      </trkpt>
      <trkpt lat="44.33693" lon="3.61349">
        <ele>838.40002441406</ele>
        <time>2022-06-29T08:49:14.000Z</time>
      </trkpt>
      <trkpt lat="44.33695" lon="3.61353">
        <ele>838</ele>
        <time>2022-06-29T08:49:18.000Z</time>
      </trkpt>
      <trkpt lat="44.33699" lon="3.61356">
        <ele>837.40002441406</ele>
        <time>2022-06-29T08:49:24.000Z</time>
      </trkpt>
      <trkpt lat="44.337" lon="3.61356">
        <ele>837.40002441406</ele>
        <time>2022-06-29T08:49:25.000Z</time>
      </trkpt>
      <trkpt lat="44.33704" lon="3.61359">
        <ele>837</ele>
        <time>2022-06-29T08:49:31.000Z</time>
      </trkpt>
      <trkpt lat="44.33704" lon="3.6136">
        <ele>837</ele>
        <time>2022-06-29T08:49:32.000Z</time>
      </trkpt>
      <trkpt lat="44.33709" lon="3.61366">
        <ele>836.20001220703</ele>
        <time>2022-06-29T08:49:38.000Z</time>
      </trkpt>
      <trkpt lat="44.3371" lon="3.61367">
        <ele>836</ele>
        <time>2022-06-29T08:49:39.000Z</time>
      </trkpt>
      <trkpt lat="44.33714" lon="3.6137">
        <ele>835.59997558594</ele>
        <time>2022-06-29T08:49:43.000Z</time>
      </trkpt>
      <trkpt lat="44.3372" lon="3.61374">
        <ele>835</ele>
        <time>2022-06-29T08:49:48.000Z</time>
      </trkpt>
      <trkpt lat="44.33721" lon="3.61374">
        <ele>834.79998779297</ele>
        <time>2022-06-29T08:49:49.000Z</time>
      </trkpt>
      <trkpt lat="44.33724" lon="3.61377">
        <ele>834.79998779297</ele>
        <time>2022-06-29T08:49:52.000Z</time>
      </trkpt>
      <trkpt lat="44.33732" lon="3.61381">
        <ele>834.40002441406</ele>
        <time>2022-06-29T08:49:58.000Z</time>
      </trkpt>
      <trkpt lat="44.33738" lon="3.61384">
        <ele>833.79998779297</ele>
        <time>2022-06-29T08:50:03.000Z</time>
      </trkpt>
      <trkpt lat="44.33739" lon="3.61384">
        <ele>833.79998779297</ele>
        <time>2022-06-29T08:50:04.000Z</time>
      </trkpt>
      <trkpt lat="44.33743" lon="3.61392">
        <ele>833.40002441406</ele>
        <time>2022-06-29T08:50:09.000Z</time>
      </trkpt>
      <trkpt lat="44.33748" lon="3.61399">
        <ele>833</ele>
        <time>2022-06-29T08:50:15.000Z</time>
      </trkpt>
      <trkpt lat="44.33749" lon="3.61402">
        <ele>833</ele>
        <time>2022-06-29T08:50:17.000Z</time>
      </trkpt>
      <trkpt lat="44.33752" lon="3.61405">
        <ele>832.79998779297</ele>
        <time>2022-06-29T08:50:21.000Z</time>
      </trkpt>
      <trkpt lat="44.33753" lon="3.61406">
        <ele>832.79998779297</ele>
        <time>2022-06-29T08:50:22.000Z</time>
      </trkpt>
      <trkpt lat="44.33751" lon="3.6141">
        <ele>832.20001220703</ele>
        <time>2022-06-29T08:50:25.000Z</time>
      </trkpt>
      <trkpt lat="44.33752" lon="3.61412">
        <ele>832</ele>
        <time>2022-06-29T08:50:26.000Z</time>
      </trkpt>
      <trkpt lat="44.33755" lon="3.61417">
        <ele>831.79998779297</ele>
        <time>2022-06-29T08:50:31.000Z</time>
      </trkpt>
      <trkpt lat="44.33756" lon="3.61417">
        <ele>831.79998779297</ele>
        <time>2022-06-29T08:50:32.000Z</time>
      </trkpt>
      <trkpt lat="44.3376" lon="3.61423">
        <ele>831.40002441406</ele>
        <time>2022-06-29T08:50:38.000Z</time>
      </trkpt>
      <trkpt lat="44.33763" lon="3.61429">
        <ele>831</ele>
        <time>2022-06-29T08:50:43.000Z</time>
      </trkpt>
      <trkpt lat="44.33764" lon="3.61431">
        <ele>830.59997558594</ele>
        <time>2022-06-29T08:50:45.000Z</time>
      </trkpt>
      <trkpt lat="44.33766" lon="3.61436">
        <ele>830.20001220703</ele>
        <time>2022-06-29T08:50:49.000Z</time>
      </trkpt>
      <trkpt lat="44.3377" lon="3.61442">
        <ele>830</ele>
        <time>2022-06-29T08:50:55.000Z</time>
      </trkpt>
      <trkpt lat="44.33774" lon="3.61446">
        <ele>829.59997558594</ele>
        <time>2022-06-29T08:51:00.000Z</time>
      </trkpt>
      <trkpt lat="44.33777" lon="3.61452">
        <ele>828.59997558594</ele>
        <time>2022-06-29T08:51:06.000Z</time>
      </trkpt>
      <trkpt lat="44.3378" lon="3.6146">
        <ele>827.59997558594</ele>
        <time>2022-06-29T08:51:12.000Z</time>
      </trkpt>
      <trkpt lat="44.33781" lon="3.61461">
        <ele>827.40002441406</ele>
        <time>2022-06-29T08:51:13.000Z</time>
      </trkpt>
      <trkpt lat="44.33785" lon="3.61467">
        <ele>826.79998779297</ele>
        <time>2022-06-29T08:51:19.000Z</time>
      </trkpt>
      <trkpt lat="44.33787" lon="3.61469">
        <ele>826.59997558594</ele>
        <time>2022-06-29T08:51:21.000Z</time>
      </trkpt>
      <trkpt lat="44.33789" lon="3.6147">
        <ele>826.40002441406</ele>
        <time>2022-06-29T08:51:23.000Z</time>
      </trkpt>
      <trkpt lat="44.33795" lon="3.61474">
        <ele>825.59997558594</ele>
        <time>2022-06-29T08:51:29.000Z</time>
      </trkpt>
      <trkpt lat="44.33797" lon="3.61475">
        <ele>825.40002441406</ele>
        <time>2022-06-29T08:51:31.000Z</time>
      </trkpt>
      <trkpt lat="44.33799" lon="3.61477">
        <ele>825.20001220703</ele>
        <time>2022-06-29T08:51:34.000Z</time>
      </trkpt>
      <trkpt lat="44.33806" lon="3.61484">
        <ele>824.59997558594</ele>
        <time>2022-06-29T08:51:40.000Z</time>
      </trkpt>
      <trkpt lat="44.33807" lon="3.61486">
        <ele>824.59997558594</ele>
        <time>2022-06-29T08:51:42.000Z</time>
      </trkpt>
      <trkpt lat="44.33811" lon="3.61489">
        <ele>824.40002441406</ele>
        <time>2022-06-29T08:51:45.000Z</time>
      </trkpt>
      <trkpt lat="44.33813" lon="3.61493">
        <ele>824.20001220703</ele>
        <time>2022-06-29T08:51:49.000Z</time>
      </trkpt>
      <trkpt lat="44.33816" lon="3.61503">
        <ele>823.59997558594</ele>
        <time>2022-06-29T08:51:55.000Z</time>
      </trkpt>
      <trkpt lat="44.33816" lon="3.61508">
        <ele>823.40002441406</ele>
        <time>2022-06-29T08:51:58.000Z</time>
      </trkpt>
      <trkpt lat="44.33816" lon="3.6151">
        <ele>823.20001220703</ele>
        <time>2022-06-29T08:52:00.000Z</time>
      </trkpt>
      <trkpt lat="44.33814" lon="3.61517">
        <ele>822.79998779297</ele>
        <time>2022-06-29T08:52:06.000Z</time>
      </trkpt>
      <trkpt lat="44.33811" lon="3.61521">
        <ele>822.40002441406</ele>
        <time>2022-06-29T08:52:09.000Z</time>
      </trkpt>
      <trkpt lat="44.3381" lon="3.61522">
        <ele>822.40002441406</ele>
        <time>2022-06-29T08:52:10.000Z</time>
      </trkpt>
      <trkpt lat="44.33809" lon="3.61523">
        <ele>822.20001220703</ele>
        <time>2022-06-29T08:52:12.000Z</time>
      </trkpt>
      <trkpt lat="44.33808" lon="3.61525">
        <ele>821.79998779297</ele>
        <time>2022-06-29T08:52:15.000Z</time>
      </trkpt>
      <trkpt lat="44.33803" lon="3.61527">
        <ele>821.79998779297</ele>
        <time>2022-06-29T08:52:21.000Z</time>
      </trkpt>
      <trkpt lat="44.33801" lon="3.61526">
        <ele>821.79998779297</ele>
        <time>2022-06-29T08:52:24.000Z</time>
      </trkpt>
      <trkpt lat="44.33801" lon="3.61525">
        <ele>821.79998779297</ele>
        <time>2022-06-29T08:52:27.000Z</time>
      </trkpt>
      <trkpt lat="44.33802" lon="3.61523">
        <ele>821.59997558594</ele>
        <time>2022-06-29T08:52:32.000Z</time>
      </trkpt>
      <trkpt lat="44.33803" lon="3.61522">
        <ele>821.79998779297</ele>
        <time>2022-06-29T08:52:38.000Z</time>
      </trkpt>
      <trkpt lat="44.33802" lon="3.61523">
        <ele>822</ele>
        <time>2022-06-29T08:52:43.000Z</time>
      </trkpt>
      <trkpt lat="44.33802" lon="3.61523">
        <ele>822.20001220703</ele>
        <time>2022-06-29T08:52:46.000Z</time>
      </trkpt>
      <trkpt lat="44.33803" lon="3.61523">
        <ele>822.20001220703</ele>
        <time>2022-06-29T08:52:52.000Z</time>
      </trkpt>
      <trkpt lat="44.33804" lon="3.61523">
        <ele>822.20001220703</ele>
        <time>2022-06-29T08:52:57.000Z</time>
      </trkpt>
      <trkpt lat="44.33805" lon="3.61523">
        <ele>822.20001220703</ele>
        <time>2022-06-29T08:53:03.000Z</time>
      </trkpt>
      <trkpt lat="44.33805" lon="3.61522">
        <ele>822.20001220703</ele>
        <time>2022-06-29T08:53:05.000Z</time>
      </trkpt>
      <trkpt lat="44.33805" lon="3.61521">
        <ele>822.20001220703</ele>
        <time>2022-06-29T08:53:07.000Z</time>
      </trkpt>
      <trkpt lat="44.33805" lon="3.61522">
        <ele>822.59997558594</ele>
        <time>2022-06-29T08:53:13.000Z</time>
      </trkpt>
      <trkpt lat="44.33805" lon="3.61523">
        <ele>822.59997558594</ele>
        <time>2022-06-29T08:53:15.000Z</time>
      </trkpt>
      <trkpt lat="44.33805" lon="3.61523">
        <ele>822.40002441406</ele>
        <time>2022-06-29T08:53:18.000Z</time>
      </trkpt>
      <trkpt lat="44.33805" lon="3.61523">
        <ele>822.40002441406</ele>
        <time>2022-06-29T08:53:19.000Z</time>
      </trkpt>
      <trkpt lat="44.33805" lon="3.61521">
        <ele>822.40002441406</ele>
        <time>2022-06-29T08:53:22.000Z</time>
      </trkpt>
      <trkpt lat="44.33806" lon="3.6152">
        <ele>822.20001220703</ele>
        <time>2022-06-29T08:53:28.000Z</time>
      </trkpt>
      <trkpt lat="44.33805" lon="3.61521">
        <ele>822</ele>
        <time>2022-06-29T08:53:29.000Z</time>
      </trkpt>
      <trkpt lat="44.33803" lon="3.61522">
        <ele>821.79998779297</ele>
        <time>2022-06-29T08:53:33.000Z</time>
      </trkpt>
      <trkpt lat="44.33803" lon="3.61522">
        <ele>821.79998779297</ele>
        <time>2022-06-29T08:53:34.000Z</time>
      </trkpt>
      <trkpt lat="44.33802" lon="3.61522">
        <ele>821.79998779297</ele>
        <time>2022-06-29T08:53:35.000Z</time>
      </trkpt>
      <trkpt lat="44.33803" lon="3.61522">
        <ele>821.79998779297</ele>
        <time>2022-06-29T08:53:41.000Z</time>
      </trkpt>
      <trkpt lat="44.33803" lon="3.61522">
        <ele>822</ele>
        <time>2022-06-29T08:53:42.000Z</time>
      </trkpt>
      <trkpt lat="44.33803" lon="3.61522">
        <ele>822</ele>
        <time>2022-06-29T08:53:48.000Z</time>
      </trkpt>
      <trkpt lat="44.33802" lon="3.61522">
        <ele>822</ele>
        <time>2022-06-29T08:53:54.000Z</time>
      </trkpt>
      <trkpt lat="44.33801" lon="3.61522">
        <ele>822</ele>
        <time>2022-06-29T08:53:56.000Z</time>
      </trkpt>
      <trkpt lat="44.33799" lon="3.61522">
        <ele>822</ele>
        <time>2022-06-29T08:53:59.000Z</time>
      </trkpt>
      <trkpt lat="44.33794" lon="3.6152">
        <ele>822</ele>
        <time>2022-06-29T08:54:05.000Z</time>
      </trkpt>
      <trkpt lat="44.33793" lon="3.6152">
        <ele>822</ele>
        <time>2022-06-29T08:54:06.000Z</time>
      </trkpt>
      <trkpt lat="44.33791" lon="3.61518">
        <ele>822</ele>
        <time>2022-06-29T08:54:08.000Z</time>
      </trkpt>
      <trkpt lat="44.3379" lon="3.61517">
        <ele>822</ele>
        <time>2022-06-29T08:54:09.000Z</time>
      </trkpt>
      <trkpt lat="44.33786" lon="3.61515">
        <ele>822.20001220703</ele>
        <time>2022-06-29T08:54:13.000Z</time>
      </trkpt>
      <trkpt lat="44.33785" lon="3.61514">
        <ele>822.40002441406</ele>
        <time>2022-06-29T08:54:14.000Z</time>
      </trkpt>
      <trkpt lat="44.33782" lon="3.61513">
        <ele>822.59997558594</ele>
        <time>2022-06-29T08:54:17.000Z</time>
      </trkpt>
      <trkpt lat="44.3378" lon="3.61512">
        <ele>822.59997558594</ele>
        <time>2022-06-29T08:54:18.000Z</time>
      </trkpt>
      <trkpt lat="44.33776" lon="3.6151">
        <ele>823</ele>
        <time>2022-06-29T08:54:22.000Z</time>
      </trkpt>
      <trkpt lat="44.33773" lon="3.6151">
        <ele>822.79998779297</ele>
        <time>2022-06-29T08:54:25.000Z</time>
      </trkpt>
      <trkpt lat="44.33766" lon="3.61508">
        <ele>823</ele>
        <time>2022-06-29T08:54:31.000Z</time>
      </trkpt>
      <trkpt lat="44.33763" lon="3.61508">
        <ele>823.20001220703</ele>
        <time>2022-06-29T08:54:33.000Z</time>
      </trkpt>
      <trkpt lat="44.3376" lon="3.61507">
        <ele>823.59997558594</ele>
        <time>2022-06-29T08:54:36.000Z</time>
      </trkpt>
      <trkpt lat="44.33759" lon="3.61506">
        <ele>823.59997558594</ele>
        <time>2022-06-29T08:54:38.000Z</time>
      </trkpt>
      <trkpt lat="44.33754" lon="3.61507">
        <ele>823.79998779297</ele>
        <time>2022-06-29T08:54:43.000Z</time>
      </trkpt>
      <trkpt lat="44.33752" lon="3.61506">
        <ele>824.20001220703</ele>
        <time>2022-06-29T08:54:45.000Z</time>
      </trkpt>
      <trkpt lat="44.3375" lon="3.61506">
        <ele>824.40002441406</ele>
        <time>2022-06-29T08:54:47.000Z</time>
      </trkpt>
      <trkpt lat="44.33748" lon="3.61506">
        <ele>824.40002441406</ele>
        <time>2022-06-29T08:54:49.000Z</time>
      </trkpt>
      <trkpt lat="44.33746" lon="3.61505">
        <ele>824.59997558594</ele>
        <time>2022-06-29T08:54:52.000Z</time>
      </trkpt>
      <trkpt lat="44.3374" lon="3.61502">
        <ele>825</ele>
        <time>2022-06-29T08:54:58.000Z</time>
      </trkpt>
      <trkpt lat="44.33736" lon="3.61502">
        <ele>825.40002441406</ele>
        <time>2022-06-29T08:55:02.000Z</time>
      </trkpt>
      <trkpt lat="44.33734" lon="3.61501">
        <ele>825.59997558594</ele>
        <time>2022-06-29T08:55:04.000Z</time>
      </trkpt>
      <trkpt lat="44.33729" lon="3.61498">
        <ele>825.59997558594</ele>
        <time>2022-06-29T08:55:08.000Z</time>
      </trkpt>
      <trkpt lat="44.33723" lon="3.61498">
        <ele>826.20001220703</ele>
        <time>2022-06-29T08:55:14.000Z</time>
      </trkpt>
      <trkpt lat="44.3372" lon="3.61498">
        <ele>826.40002441406</ele>
        <time>2022-06-29T08:55:16.000Z</time>
      </trkpt>
      <trkpt lat="44.33716" lon="3.61497">
        <ele>826.79998779297</ele>
        <time>2022-06-29T08:55:21.000Z</time>
      </trkpt>
      <trkpt lat="44.33713" lon="3.61495">
        <ele>827</ele>
        <time>2022-06-29T08:55:24.000Z</time>
      </trkpt>
      <trkpt lat="44.33712" lon="3.61495">
        <ele>827</ele>
        <time>2022-06-29T08:55:25.000Z</time>
      </trkpt>
      <trkpt lat="44.33709" lon="3.61496">
        <ele>827.40002441406</ele>
        <time>2022-06-29T08:55:28.000Z</time>
      </trkpt>
      <trkpt lat="44.33707" lon="3.61496">
        <ele>827.59997558594</ele>
        <time>2022-06-29T08:55:30.000Z</time>
      </trkpt>
      <trkpt lat="44.33699" lon="3.61498">
        <ele>828</ele>
        <time>2022-06-29T08:55:36.000Z</time>
      </trkpt>
      <trkpt lat="44.33698" lon="3.61499">
        <ele>828</ele>
        <time>2022-06-29T08:55:37.000Z</time>
      </trkpt>
      <trkpt lat="44.33695" lon="3.61499">
        <ele>828.20001220703</ele>
        <time>2022-06-29T08:55:39.000Z</time>
      </trkpt>
      <trkpt lat="44.33692" lon="3.615">
        <ele>828.40002441406</ele>
        <time>2022-06-29T08:55:41.000Z</time>
      </trkpt>
      <trkpt lat="44.3369" lon="3.615">
        <ele>828.40002441406</ele>
        <time>2022-06-29T08:55:43.000Z</time>
      </trkpt>
      <trkpt lat="44.33689" lon="3.615">
        <ele>828.40002441406</ele>
        <time>2022-06-29T08:55:44.000Z</time>
      </trkpt>
      <trkpt lat="44.33684" lon="3.61501">
        <ele>828.59997558594</ele>
        <time>2022-06-29T08:55:48.000Z</time>
      </trkpt>
      <trkpt lat="44.33681" lon="3.61502">
        <ele>829</ele>
        <time>2022-06-29T08:55:51.000Z</time>
      </trkpt>
      <trkpt lat="44.33677" lon="3.61504">
        <ele>829.20001220703</ele>
        <time>2022-06-29T08:55:55.000Z</time>
      </trkpt>
      <trkpt lat="44.33676" lon="3.61505">
        <ele>829.20001220703</ele>
        <time>2022-06-29T08:55:56.000Z</time>
      </trkpt>
      <trkpt lat="44.3367" lon="3.61506">
        <ele>829.20001220703</ele>
        <time>2022-06-29T08:56:02.000Z</time>
      </trkpt>
      <trkpt lat="44.33665" lon="3.61507">
        <ele>829.40002441406</ele>
        <time>2022-06-29T08:56:06.000Z</time>
      </trkpt>
      <trkpt lat="44.33659" lon="3.61506">
        <ele>829.59997558594</ele>
        <time>2022-06-29T08:56:12.000Z</time>
      </trkpt>
      <trkpt lat="44.33658" lon="3.61507">
        <ele>829.59997558594</ele>
        <time>2022-06-29T08:56:13.000Z</time>
      </trkpt>
      <trkpt lat="44.33652" lon="3.6151">
        <ele>829.79998779297</ele>
        <time>2022-06-29T08:56:19.000Z</time>
      </trkpt>
      <trkpt lat="44.33646" lon="3.61515">
        <ele>830.20001220703</ele>
        <time>2022-06-29T08:56:25.000Z</time>
      </trkpt>
      <trkpt lat="44.33644" lon="3.61516">
        <ele>830.40002441406</ele>
        <time>2022-06-29T08:56:27.000Z</time>
      </trkpt>
      <trkpt lat="44.33643" lon="3.61517">
        <ele>830.59997558594</ele>
        <time>2022-06-29T08:56:28.000Z</time>
      </trkpt>
      <trkpt lat="44.33638" lon="3.61521">
        <ele>831</ele>
        <time>2022-06-29T08:56:34.000Z</time>
      </trkpt>
      <trkpt lat="44.33633" lon="3.61523">
        <ele>831.40002441406</ele>
        <time>2022-06-29T08:56:40.000Z</time>
      </trkpt>
      <trkpt lat="44.33631" lon="3.61525">
        <ele>831.59997558594</ele>
        <time>2022-06-29T08:56:42.000Z</time>
      </trkpt>
      <trkpt lat="44.33626" lon="3.61527">
        <ele>832</ele>
        <time>2022-06-29T08:56:48.000Z</time>
      </trkpt>
      <trkpt lat="44.33621" lon="3.61528">
        <ele>832.40002441406</ele>
        <time>2022-06-29T08:56:54.000Z</time>
      </trkpt>
      <trkpt lat="44.3362" lon="3.61528">
        <ele>832.40002441406</ele>
        <time>2022-06-29T08:56:55.000Z</time>
      </trkpt>
      <trkpt lat="44.33617" lon="3.61529">
        <ele>832.59997558594</ele>
        <time>2022-06-29T08:56:57.000Z</time>
      </trkpt>
      <trkpt lat="44.33617" lon="3.6153">
        <ele>832.59997558594</ele>
        <time>2022-06-29T08:56:58.000Z</time>
      </trkpt>
      <trkpt lat="44.33615" lon="3.6153">
        <ele>832.79998779297</ele>
        <time>2022-06-29T08:57:00.000Z</time>
      </trkpt>
      <trkpt lat="44.33613" lon="3.61531">
        <ele>832.79998779297</ele>
        <time>2022-06-29T08:57:02.000Z</time>
      </trkpt>
      <trkpt lat="44.33613" lon="3.61532">
        <ele>832.79998779297</ele>
        <time>2022-06-29T08:57:03.000Z</time>
      </trkpt>
      <trkpt lat="44.33612" lon="3.61532">
        <ele>833</ele>
        <time>2022-06-29T08:57:04.000Z</time>
      </trkpt>
      <trkpt lat="44.33609" lon="3.61533">
        <ele>833.40002441406</ele>
        <time>2022-06-29T08:57:07.000Z</time>
      </trkpt>
      <trkpt lat="44.33608" lon="3.61534">
        <ele>833.40002441406</ele>
        <time>2022-06-29T08:57:08.000Z</time>
      </trkpt>
      <trkpt lat="44.33607" lon="3.61534">
        <ele>833.40002441406</ele>
        <time>2022-06-29T08:57:09.000Z</time>
      </trkpt>
      <trkpt lat="44.33607" lon="3.61533">
        <ele>833.40002441406</ele>
        <time>2022-06-29T08:57:10.000Z</time>
      </trkpt>
      <trkpt lat="44.33599" lon="3.61534">
        <ele>833.59997558594</ele>
        <time>2022-06-29T08:57:16.000Z</time>
      </trkpt>
      <trkpt lat="44.33593" lon="3.61535">
        <ele>834</ele>
        <time>2022-06-29T08:57:22.000Z</time>
      </trkpt>
      <trkpt lat="44.3359" lon="3.61536">
        <ele>834</ele>
        <time>2022-06-29T08:57:25.000Z</time>
      </trkpt>
      <trkpt lat="44.33588" lon="3.61537">
        <ele>834</ele>
        <time>2022-06-29T08:57:27.000Z</time>
      </trkpt>
      <trkpt lat="44.33583" lon="3.61539">
        <ele>834.59997558594</ele>
        <time>2022-06-29T08:57:33.000Z</time>
      </trkpt>
      <trkpt lat="44.33578" lon="3.61541">
        <ele>834.79998779297</ele>
        <time>2022-06-29T08:57:37.000Z</time>
      </trkpt>
      <trkpt lat="44.33572" lon="3.61543">
        <ele>835</ele>
        <time>2022-06-29T08:57:43.000Z</time>
      </trkpt>
      <trkpt lat="44.33566" lon="3.61547">
        <ele>835</ele>
        <time>2022-06-29T08:57:48.000Z</time>
      </trkpt>
      <trkpt lat="44.33564" lon="3.61547">
        <ele>835</ele>
        <time>2022-06-29T08:57:50.000Z</time>
      </trkpt>
      <trkpt lat="44.33562" lon="3.61549">
        <ele>835</ele>
        <time>2022-06-29T08:57:52.000Z</time>
      </trkpt>
      <trkpt lat="44.33557" lon="3.61553">
        <ele>835.20001220703</ele>
        <time>2022-06-29T08:57:58.000Z</time>
      </trkpt>
      <trkpt lat="44.33554" lon="3.61558">
        <ele>835.59997558594</ele>
        <time>2022-06-29T08:58:04.000Z</time>
      </trkpt>
      <trkpt lat="44.33552" lon="3.61559">
        <ele>835.79998779297</ele>
        <time>2022-06-29T08:58:06.000Z</time>
      </trkpt>
      <trkpt lat="44.3355" lon="3.6156">
        <ele>835.79998779297</ele>
        <time>2022-06-29T08:58:08.000Z</time>
      </trkpt>
      <trkpt lat="44.33544" lon="3.61565">
        <ele>836</ele>
        <time>2022-06-29T08:58:14.000Z</time>
      </trkpt>
      <trkpt lat="44.33541" lon="3.61568">
        <ele>836</ele>
        <time>2022-06-29T08:58:18.000Z</time>
      </trkpt>
      <trkpt lat="44.33535" lon="3.61572">
        <ele>836.40002441406</ele>
        <time>2022-06-29T08:58:24.000Z</time>
      </trkpt>
      <trkpt lat="44.33531" lon="3.61577">
        <ele>836.59997558594</ele>
        <time>2022-06-29T08:58:30.000Z</time>
      </trkpt>
      <trkpt lat="44.33528" lon="3.6158">
        <ele>836.79998779297</ele>
        <time>2022-06-29T08:58:34.000Z</time>
      </trkpt>
      <trkpt lat="44.33527" lon="3.61581">
        <ele>836.79998779297</ele>
        <time>2022-06-29T08:58:35.000Z</time>
      </trkpt>
      <trkpt lat="44.33522" lon="3.61584">
        <ele>836.79998779297</ele>
        <time>2022-06-29T08:58:41.000Z</time>
      </trkpt>
      <trkpt lat="44.33517" lon="3.61587">
        <ele>837</ele>
        <time>2022-06-29T08:58:47.000Z</time>
      </trkpt>
      <trkpt lat="44.33515" lon="3.61589">
        <ele>837.20001220703</ele>
        <time>2022-06-29T08:58:50.000Z</time>
      </trkpt>
      <trkpt lat="44.33511" lon="3.61591">
        <ele>837.40002441406</ele>
        <time>2022-06-29T08:58:54.000Z</time>
      </trkpt>
      <trkpt lat="44.33506" lon="3.61594">
        <ele>837.79998779297</ele>
        <time>2022-06-29T08:59:00.000Z</time>
      </trkpt>
      <trkpt lat="44.33504" lon="3.61596">
        <ele>837.79998779297</ele>
        <time>2022-06-29T08:59:02.000Z</time>
      </trkpt>
      <trkpt lat="44.335" lon="3.61599">
        <ele>838</ele>
        <time>2022-06-29T08:59:08.000Z</time>
      </trkpt>
      <trkpt lat="44.33496" lon="3.61603">
        <ele>838</ele>
        <time>2022-06-29T08:59:14.000Z</time>
      </trkpt>
      <trkpt lat="44.33492" lon="3.6161">
        <ele>838.40002441406</ele>
        <time>2022-06-29T08:59:18.000Z</time>
      </trkpt>
      <trkpt lat="44.33488" lon="3.61613">
        <ele>838.40002441406</ele>
        <time>2022-06-29T08:59:24.000Z</time>
      </trkpt>
      <trkpt lat="44.33482" lon="3.61616">
        <ele>838.59997558594</ele>
        <time>2022-06-29T08:59:30.000Z</time>
      </trkpt>
      <trkpt lat="44.33481" lon="3.61617">
        <ele>838.79998779297</ele>
        <time>2022-06-29T08:59:32.000Z</time>
      </trkpt>
      <trkpt lat="44.3348" lon="3.61617">
        <ele>838.79998779297</ele>
        <time>2022-06-29T08:59:33.000Z</time>
      </trkpt>
      <trkpt lat="44.33474" lon="3.61621">
        <ele>839.20001220703</ele>
        <time>2022-06-29T08:59:39.000Z</time>
      </trkpt>
      <trkpt lat="44.33469" lon="3.61626">
        <ele>839.40002441406</ele>
        <time>2022-06-29T08:59:45.000Z</time>
      </trkpt>
      <trkpt lat="44.33466" lon="3.61629">
        <ele>839.40002441406</ele>
        <time>2022-06-29T08:59:49.000Z</time>
      </trkpt>
      <trkpt lat="44.33462" lon="3.61632">
        <ele>839.79998779297</ele>
        <time>2022-06-29T08:59:55.000Z</time>
      </trkpt>
      <trkpt lat="44.33459" lon="3.61636">
        <ele>839.79998779297</ele>
        <time>2022-06-29T08:59:58.000Z</time>
      </trkpt>
      <trkpt lat="44.33455" lon="3.61641">
        <ele>840.20001220703</ele>
        <time>2022-06-29T09:00:03.000Z</time>
      </trkpt>
      <trkpt lat="44.33452" lon="3.61645">
        <ele>840.40002441406</ele>
        <time>2022-06-29T09:00:07.000Z</time>
      </trkpt>
      <trkpt lat="44.33448" lon="3.6165">
        <ele>840.79998779297</ele>
        <time>2022-06-29T09:00:13.000Z</time>
      </trkpt>
      <trkpt lat="44.33446" lon="3.61651">
        <ele>841</ele>
        <time>2022-06-29T09:00:15.000Z</time>
      </trkpt>
      <trkpt lat="44.33442" lon="3.61654">
        <ele>841</ele>
        <time>2022-06-29T09:00:19.000Z</time>
      </trkpt>
      <trkpt lat="44.33438" lon="3.61658">
        <ele>841.20001220703</ele>
        <time>2022-06-29T09:00:25.000Z</time>
      </trkpt>
      <trkpt lat="44.33434" lon="3.61661">
        <ele>841.59997558594</ele>
        <time>2022-06-29T09:00:31.000Z</time>
      </trkpt>
      <trkpt lat="44.33432" lon="3.61661">
        <ele>841.79998779297</ele>
        <time>2022-06-29T09:00:33.000Z</time>
      </trkpt>
      <trkpt lat="44.33429" lon="3.61663">
        <ele>842</ele>
        <time>2022-06-29T09:00:37.000Z</time>
      </trkpt>
      <trkpt lat="44.33425" lon="3.61666">
        <ele>842.40002441406</ele>
        <time>2022-06-29T09:00:43.000Z</time>
      </trkpt>
      <trkpt lat="44.33419" lon="3.6167">
        <ele>842.59997558594</ele>
        <time>2022-06-29T09:00:49.000Z</time>
      </trkpt>
      <trkpt lat="44.33419" lon="3.6167">
        <ele>842.59997558594</ele>
        <time>2022-06-29T09:00:50.000Z</time>
      </trkpt>
      <trkpt lat="44.33417" lon="3.61673">
        <ele>843</ele>
        <time>2022-06-29T09:00:53.000Z</time>
      </trkpt>
      <trkpt lat="44.33411" lon="3.61679">
        <ele>843.20001220703</ele>
        <time>2022-06-29T09:00:59.000Z</time>
      </trkpt>
      <trkpt lat="44.33406" lon="3.61684">
        <ele>843.59997558594</ele>
        <time>2022-06-29T09:01:05.000Z</time>
      </trkpt>
      <trkpt lat="44.33405" lon="3.61685">
        <ele>843.59997558594</ele>
        <time>2022-06-29T09:01:06.000Z</time>
      </trkpt>
      <trkpt lat="44.33404" lon="3.61688">
        <ele>843.59997558594</ele>
        <time>2022-06-29T09:01:08.000Z</time>
      </trkpt>
      <trkpt lat="44.33401" lon="3.61693">
        <ele>844</ele>
        <time>2022-06-29T09:01:13.000Z</time>
      </trkpt>
      <trkpt lat="44.33397" lon="3.617">
        <ele>844.20001220703</ele>
        <time>2022-06-29T09:01:19.000Z</time>
      </trkpt>
      <trkpt lat="44.33396" lon="3.61701">
        <ele>844.20001220703</ele>
        <time>2022-06-29T09:01:20.000Z</time>
      </trkpt>
      <trkpt lat="44.33394" lon="3.61704">
        <ele>844.40002441406</ele>
        <time>2022-06-29T09:01:24.000Z</time>
      </trkpt>
      <trkpt lat="44.33393" lon="3.61705">
        <ele>844.59997558594</ele>
        <time>2022-06-29T09:01:25.000Z</time>
      </trkpt>
      <trkpt lat="44.33388" lon="3.61709">
        <ele>844.79998779297</ele>
        <time>2022-06-29T09:01:31.000Z</time>
      </trkpt>
      <trkpt lat="44.33385" lon="3.61712">
        <ele>844.79998779297</ele>
        <time>2022-06-29T09:01:34.000Z</time>
      </trkpt>
      <trkpt lat="44.33381" lon="3.6172">
        <ele>844.79998779297</ele>
        <time>2022-06-29T09:01:40.000Z</time>
      </trkpt>
      <trkpt lat="44.3338" lon="3.61731">
        <ele>844.79998779297</ele>
        <time>2022-06-29T09:01:46.000Z</time>
      </trkpt>
      <trkpt lat="44.33381" lon="3.61733">
        <ele>844.79998779297</ele>
        <time>2022-06-29T09:01:47.000Z</time>
      </trkpt>
      <trkpt lat="44.33381" lon="3.61736">
        <ele>845</ele>
        <time>2022-06-29T09:01:49.000Z</time>
      </trkpt>
      <trkpt lat="44.33384" lon="3.61744">
        <ele>845.40002441406</ele>
        <time>2022-06-29T09:01:54.000Z</time>
      </trkpt>
      <trkpt lat="44.33387" lon="3.6175">
        <ele>845.40002441406</ele>
        <time>2022-06-29T09:01:58.000Z</time>
      </trkpt>
      <trkpt lat="44.33388" lon="3.61758">
        <ele>845.79998779297</ele>
        <time>2022-06-29T09:02:04.000Z</time>
      </trkpt>
      <trkpt lat="44.3339" lon="3.61765">
        <ele>845.79998779297</ele>
        <time>2022-06-29T09:02:10.000Z</time>
      </trkpt>
      <trkpt lat="44.3339" lon="3.61768">
        <ele>846</ele>
        <time>2022-06-29T09:02:13.000Z</time>
      </trkpt>
      <trkpt lat="44.3339" lon="3.61769">
        <ele>846</ele>
        <time>2022-06-29T09:02:14.000Z</time>
      </trkpt>
      <trkpt lat="44.3339" lon="3.61771">
        <ele>846</ele>
        <time>2022-06-29T09:02:15.000Z</time>
      </trkpt>
      <trkpt lat="44.33389" lon="3.61778">
        <ele>846.40002441406</ele>
        <time>2022-06-29T09:02:21.000Z</time>
      </trkpt>
      <trkpt lat="44.3339" lon="3.61785">
        <ele>846.79998779297</ele>
        <time>2022-06-29T09:02:27.000Z</time>
      </trkpt>
      <trkpt lat="44.33391" lon="3.61788">
        <ele>847</ele>
        <time>2022-06-29T09:02:29.000Z</time>
      </trkpt>
      <trkpt lat="44.33391" lon="3.6179">
        <ele>847.20001220703</ele>
        <time>2022-06-29T09:02:30.000Z</time>
      </trkpt>
      <trkpt lat="44.33392" lon="3.61798">
        <ele>847.40002441406</ele>
        <time>2022-06-29T09:02:36.000Z</time>
      </trkpt>
      <trkpt lat="44.33392" lon="3.61805">
        <ele>847.40002441406</ele>
        <time>2022-06-29T09:02:42.000Z</time>
      </trkpt>
      <trkpt lat="44.33392" lon="3.61808">
        <ele>847.40002441406</ele>
        <time>2022-06-29T09:02:44.000Z</time>
      </trkpt>
      <trkpt lat="44.33392" lon="3.61815">
        <ele>847.59997558594</ele>
        <time>2022-06-29T09:02:50.000Z</time>
      </trkpt>
      <trkpt lat="44.33391" lon="3.61821">
        <ele>848.20001220703</ele>
        <time>2022-06-29T09:02:55.000Z</time>
      </trkpt>
      <trkpt lat="44.33391" lon="3.61825">
        <ele>848.40002441406</ele>
        <time>2022-06-29T09:02:58.000Z</time>
      </trkpt>
      <trkpt lat="44.3339" lon="3.61833">
        <ele>848.40002441406</ele>
        <time>2022-06-29T09:03:04.000Z</time>
      </trkpt>
      <trkpt lat="44.3339" lon="3.61841">
        <ele>848.40002441406</ele>
        <time>2022-06-29T09:03:10.000Z</time>
      </trkpt>
      <trkpt lat="44.33391" lon="3.61846">
        <ele>848.59997558594</ele>
        <time>2022-06-29T09:03:13.000Z</time>
      </trkpt>
      <trkpt lat="44.3339" lon="3.61853">
        <ele>848.79998779297</ele>
        <time>2022-06-29T09:03:19.000Z</time>
      </trkpt>
      <trkpt lat="44.33388" lon="3.6186">
        <ele>849.20001220703</ele>
        <time>2022-06-29T09:03:24.000Z</time>
      </trkpt>
      <trkpt lat="44.33388" lon="3.61861">
        <ele>849.20001220703</ele>
        <time>2022-06-29T09:03:25.000Z</time>
      </trkpt>
      <trkpt lat="44.33385" lon="3.61866">
        <ele>849.40002441406</ele>
        <time>2022-06-29T09:03:30.000Z</time>
      </trkpt>
      <trkpt lat="44.33382" lon="3.61872">
        <ele>849.59997558594</ele>
        <time>2022-06-29T09:03:36.000Z</time>
      </trkpt>
      <trkpt lat="44.33381" lon="3.61875">
        <ele>849.79998779297</ele>
        <time>2022-06-29T09:03:39.000Z</time>
      </trkpt>
      <trkpt lat="44.33379" lon="3.61881">
        <ele>850.20001220703</ele>
        <time>2022-06-29T09:03:45.000Z</time>
      </trkpt>
      <trkpt lat="44.33373" lon="3.61885">
        <ele>850.59997558594</ele>
        <time>2022-06-29T09:03:51.000Z</time>
      </trkpt>
      <trkpt lat="44.33372" lon="3.61886">
        <ele>850.79998779297</ele>
        <time>2022-06-29T09:03:52.000Z</time>
      </trkpt>
      <trkpt lat="44.33369" lon="3.61889">
        <ele>850.79998779297</ele>
        <time>2022-06-29T09:03:56.000Z</time>
      </trkpt>
      <trkpt lat="44.33367" lon="3.6189">
        <ele>850.79998779297</ele>
        <time>2022-06-29T09:03:58.000Z</time>
      </trkpt>
      <trkpt lat="44.33363" lon="3.61895">
        <ele>851</ele>
        <time>2022-06-29T09:04:04.000Z</time>
      </trkpt>
      <trkpt lat="44.33362" lon="3.61897">
        <ele>851.20001220703</ele>
        <time>2022-06-29T09:04:06.000Z</time>
      </trkpt>
      <trkpt lat="44.33361" lon="3.61898">
        <ele>851.40002441406</ele>
        <time>2022-06-29T09:04:07.000Z</time>
      </trkpt>
      <trkpt lat="44.33359" lon="3.619">
        <ele>851.40002441406</ele>
        <time>2022-06-29T09:04:10.000Z</time>
      </trkpt>
      <trkpt lat="44.33358" lon="3.61904">
        <ele>851.40002441406</ele>
        <time>2022-06-29T09:04:14.000Z</time>
      </trkpt>
      <trkpt lat="44.33354" lon="3.61909">
        <ele>852.20001220703</ele>
        <time>2022-06-29T09:04:20.000Z</time>
      </trkpt>
      <trkpt lat="44.33354" lon="3.61909">
        <ele>852.20001220703</ele>
        <time>2022-06-29T09:04:21.000Z</time>
      </trkpt>
      <trkpt lat="44.33352" lon="3.61911">
        <ele>852.20001220703</ele>
        <time>2022-06-29T09:04:23.000Z</time>
      </trkpt>
      <trkpt lat="44.33348" lon="3.61915">
        <ele>852.40002441406</ele>
        <time>2022-06-29T09:04:29.000Z</time>
      </trkpt>
      <trkpt lat="44.33344" lon="3.61919">
        <ele>852.79998779297</ele>
        <time>2022-06-29T09:04:35.000Z</time>
      </trkpt>
      <trkpt lat="44.33341" lon="3.61924">
        <ele>853</ele>
        <time>2022-06-29T09:04:41.000Z</time>
      </trkpt>
      <trkpt lat="44.33339" lon="3.61926">
        <ele>853.40002441406</ele>
        <time>2022-06-29T09:04:44.000Z</time>
      </trkpt>
      <trkpt lat="44.33335" lon="3.6193">
        <ele>853.79998779297</ele>
        <time>2022-06-29T09:04:50.000Z</time>
      </trkpt>
      <trkpt lat="44.33332" lon="3.61935">
        <ele>854.20001220703</ele>
        <time>2022-06-29T09:04:56.000Z</time>
      </trkpt>
      <trkpt lat="44.3333" lon="3.61938">
        <ele>854.40002441406</ele>
        <time>2022-06-29T09:04:59.000Z</time>
      </trkpt>
      <trkpt lat="44.33326" lon="3.61941">
        <ele>854.79998779297</ele>
        <time>2022-06-29T09:05:04.000Z</time>
      </trkpt>
      <trkpt lat="44.33325" lon="3.61942">
        <ele>854.79998779297</ele>
        <time>2022-06-29T09:05:06.000Z</time>
      </trkpt>
      <trkpt lat="44.33323" lon="3.61945">
        <ele>854.79998779297</ele>
        <time>2022-06-29T09:05:09.000Z</time>
      </trkpt>
      <trkpt lat="44.33319" lon="3.61951">
        <ele>855.20001220703</ele>
        <time>2022-06-29T09:05:15.000Z</time>
      </trkpt>
      <trkpt lat="44.33318" lon="3.61953">
        <ele>855.40002441406</ele>
        <time>2022-06-29T09:05:17.000Z</time>
      </trkpt>
      <trkpt lat="44.33316" lon="3.61954">
        <ele>855.40002441406</ele>
        <time>2022-06-29T09:05:19.000Z</time>
      </trkpt>
      <trkpt lat="44.33315" lon="3.61956">
        <ele>855.40002441406</ele>
        <time>2022-06-29T09:05:21.000Z</time>
      </trkpt>
      <trkpt lat="44.33313" lon="3.61959">
        <ele>855.79998779297</ele>
        <time>2022-06-29T09:05:24.000Z</time>
      </trkpt>
      <trkpt lat="44.33308" lon="3.61963">
        <ele>856.20001220703</ele>
        <time>2022-06-29T09:05:30.000Z</time>
      </trkpt>
      <trkpt lat="44.33307" lon="3.61965">
        <ele>856.20001220703</ele>
        <time>2022-06-29T09:05:32.000Z</time>
      </trkpt>
      <trkpt lat="44.33306" lon="3.61966">
        <ele>856.40002441406</ele>
        <time>2022-06-29T09:05:33.000Z</time>
      </trkpt>
      <trkpt lat="44.33304" lon="3.6197">
        <ele>856.59997558594</ele>
        <time>2022-06-29T09:05:39.000Z</time>
      </trkpt>
      <trkpt lat="44.33301" lon="3.61974">
        <ele>856.79998779297</ele>
        <time>2022-06-29T09:05:45.000Z</time>
      </trkpt>
      <trkpt lat="44.33299" lon="3.61975">
        <ele>856.79998779297</ele>
        <time>2022-06-29T09:05:47.000Z</time>
      </trkpt>
      <trkpt lat="44.33295" lon="3.61978">
        <ele>857.40002441406</ele>
        <time>2022-06-29T09:05:53.000Z</time>
      </trkpt>
      <trkpt lat="44.33292" lon="3.61979">
        <ele>857.40002441406</ele>
        <time>2022-06-29T09:05:57.000Z</time>
      </trkpt>
      <trkpt lat="44.3329" lon="3.6198">
        <ele>857.79998779297</ele>
        <time>2022-06-29T09:06:02.000Z</time>
      </trkpt>
      <trkpt lat="44.33286" lon="3.61982">
        <ele>858.20001220703</ele>
        <time>2022-06-29T09:06:08.000Z</time>
      </trkpt>
      <trkpt lat="44.33282" lon="3.61985">
        <ele>858.40002441406</ele>
        <time>2022-06-29T09:06:14.000Z</time>
      </trkpt>
      <trkpt lat="44.33279" lon="3.61986">
        <ele>858.40002441406</ele>
        <time>2022-06-29T09:06:16.000Z</time>
      </trkpt>
      <trkpt lat="44.33274" lon="3.61993">
        <ele>858.40002441406</ele>
        <time>2022-06-29T09:06:22.000Z</time>
      </trkpt>
      <trkpt lat="44.33275" lon="3.61999">
        <ele>858.40002441406</ele>
        <time>2022-06-29T09:06:27.000Z</time>
      </trkpt>
      <trkpt lat="44.33275" lon="3.62002">
        <ele>858.40002441406</ele>
        <time>2022-06-29T09:06:31.000Z</time>
      </trkpt>
      <trkpt lat="44.33275" lon="3.62002">
        <ele>858.40002441406</ele>
        <time>2022-06-29T09:06:36.000Z</time>
      </trkpt>
      <trkpt lat="44.33276" lon="3.62002">
        <ele>858.59997558594</ele>
        <time>2022-06-29T09:06:39.000Z</time>
      </trkpt>
      <trkpt lat="44.33279" lon="3.62003">
        <ele>858.59997558594</ele>
        <time>2022-06-29T09:06:45.000Z</time>
      </trkpt>
      <trkpt lat="44.33282" lon="3.62005">
        <ele>858.20001220703</ele>
        <time>2022-06-29T09:06:48.000Z</time>
      </trkpt>
      <trkpt lat="44.33283" lon="3.62007">
        <ele>858.20001220703</ele>
        <time>2022-06-29T09:06:49.000Z</time>
      </trkpt>
      <trkpt lat="44.33284" lon="3.62008">
        <ele>858.20001220703</ele>
        <time>2022-06-29T09:06:50.000Z</time>
      </trkpt>
      <trkpt lat="44.3329" lon="3.62015">
        <ele>857.79998779297</ele>
        <time>2022-06-29T09:06:56.000Z</time>
      </trkpt>
      <trkpt lat="44.33293" lon="3.62019">
        <ele>857.79998779297</ele>
        <time>2022-06-29T09:06:59.000Z</time>
      </trkpt>
      <trkpt lat="44.33296" lon="3.62021">
        <ele>857.59997558594</ele>
        <time>2022-06-29T09:07:01.000Z</time>
      </trkpt>
      <trkpt lat="44.33298" lon="3.62023">
        <ele>857.59997558594</ele>
        <time>2022-06-29T09:07:03.000Z</time>
      </trkpt>
      <trkpt lat="44.33299" lon="3.62023">
        <ele>857.40002441406</ele>
        <time>2022-06-29T09:07:04.000Z</time>
      </trkpt>
      <trkpt lat="44.33304" lon="3.62029">
        <ele>856.59997558594</ele>
        <time>2022-06-29T09:07:10.000Z</time>
      </trkpt>
      <trkpt lat="44.33306" lon="3.62033">
        <ele>856.40002441406</ele>
        <time>2022-06-29T09:07:13.000Z</time>
      </trkpt>
      <trkpt lat="44.33308" lon="3.62034">
        <ele>856.20001220703</ele>
        <time>2022-06-29T09:07:15.000Z</time>
      </trkpt>
      <trkpt lat="44.3331" lon="3.62038">
        <ele>855.79998779297</ele>
        <time>2022-06-29T09:07:18.000Z</time>
      </trkpt>
      <trkpt lat="44.33311" lon="3.62046">
        <ele>855.40002441406</ele>
        <time>2022-06-29T09:07:23.000Z</time>
      </trkpt>
      <trkpt lat="44.33311" lon="3.62049">
        <ele>855.20001220703</ele>
        <time>2022-06-29T09:07:25.000Z</time>
      </trkpt>
      <trkpt lat="44.33312" lon="3.62052">
        <ele>854.79998779297</ele>
        <time>2022-06-29T09:07:27.000Z</time>
      </trkpt>
      <trkpt lat="44.33314" lon="3.62055">
        <ele>854.40002441406</ele>
        <time>2022-06-29T09:07:30.000Z</time>
      </trkpt>
      <trkpt lat="44.33318" lon="3.62062">
        <ele>854.20001220703</ele>
        <time>2022-06-29T09:07:36.000Z</time>
      </trkpt>
      <trkpt lat="44.3332" lon="3.62069">
        <ele>853.79998779297</ele>
        <time>2022-06-29T09:07:40.000Z</time>
      </trkpt>
      <trkpt lat="44.3332" lon="3.62076">
        <ele>853.40002441406</ele>
        <time>2022-06-29T09:07:44.000Z</time>
      </trkpt>
      <trkpt lat="44.33321" lon="3.62079">
        <ele>853.20001220703</ele>
        <time>2022-06-29T09:07:46.000Z</time>
      </trkpt>
      <trkpt lat="44.33322" lon="3.62086">
        <ele>853</ele>
        <time>2022-06-29T09:07:52.000Z</time>
      </trkpt>
      <trkpt lat="44.33324" lon="3.62089">
        <ele>852.79998779297</ele>
        <time>2022-06-29T09:07:54.000Z</time>
      </trkpt>
      <trkpt lat="44.33327" lon="3.62092">
        <ele>852.59997558594</ele>
        <time>2022-06-29T09:07:58.000Z</time>
      </trkpt>
      <trkpt lat="44.33328" lon="3.62093">
        <ele>852.40002441406</ele>
        <time>2022-06-29T09:07:59.000Z</time>
      </trkpt>
      <trkpt lat="44.33331" lon="3.62097">
        <ele>852.20001220703</ele>
        <time>2022-06-29T09:08:03.000Z</time>
      </trkpt>
      <trkpt lat="44.33334" lon="3.62099">
        <ele>852.20001220703</ele>
        <time>2022-06-29T09:08:07.000Z</time>
      </trkpt>
      <trkpt lat="44.33336" lon="3.621">
        <ele>852</ele>
        <time>2022-06-29T09:08:10.000Z</time>
      </trkpt>
      <trkpt lat="44.33338" lon="3.62101">
        <ele>851.59997558594</ele>
        <time>2022-06-29T09:08:12.000Z</time>
      </trkpt>
      <trkpt lat="44.33339" lon="3.62106">
        <ele>851.40002441406</ele>
        <time>2022-06-29T09:08:16.000Z</time>
      </trkpt>
      <trkpt lat="44.3334" lon="3.62107">
        <ele>851.40002441406</ele>
        <time>2022-06-29T09:08:17.000Z</time>
      </trkpt>
      <trkpt lat="44.33342" lon="3.62111">
        <ele>851.20001220703</ele>
        <time>2022-06-29T09:08:20.000Z</time>
      </trkpt>
      <trkpt lat="44.33343" lon="3.62112">
        <ele>851.20001220703</ele>
        <time>2022-06-29T09:08:21.000Z</time>
      </trkpt>
      <trkpt lat="44.33349" lon="3.62117">
        <ele>850.59997558594</ele>
        <time>2022-06-29T09:08:27.000Z</time>
      </trkpt>
      <trkpt lat="44.33353" lon="3.62123">
        <ele>850.20001220703</ele>
        <time>2022-06-29T09:08:33.000Z</time>
      </trkpt>
      <trkpt lat="44.33353" lon="3.62124">
        <ele>850.20001220703</ele>
        <time>2022-06-29T09:08:34.000Z</time>
      </trkpt>
      <trkpt lat="44.33354" lon="3.62127">
        <ele>850</ele>
        <time>2022-06-29T09:08:36.000Z</time>
      </trkpt>
      <trkpt lat="44.33358" lon="3.62131">
        <ele>849.20001220703</ele>
        <time>2022-06-29T09:08:41.000Z</time>
      </trkpt>
      <trkpt lat="44.3336" lon="3.62131">
        <ele>849.20001220703</ele>
        <time>2022-06-29T09:08:43.000Z</time>
      </trkpt>
      <trkpt lat="44.33361" lon="3.62132">
        <ele>849</ele>
        <time>2022-06-29T09:08:44.000Z</time>
      </trkpt>
      <trkpt lat="44.33363" lon="3.62133">
        <ele>849.20001220703</ele>
        <time>2022-06-29T09:08:47.000Z</time>
      </trkpt>
      <trkpt lat="44.33364" lon="3.62136">
        <ele>849.20001220703</ele>
        <time>2022-06-29T09:08:50.000Z</time>
      </trkpt>
      <trkpt lat="44.33365" lon="3.62137">
        <ele>849.20001220703</ele>
        <time>2022-06-29T09:08:51.000Z</time>
      </trkpt>
      <trkpt lat="44.33371" lon="3.62142">
        <ele>848.40002441406</ele>
        <time>2022-06-29T09:08:57.000Z</time>
      </trkpt>
      <trkpt lat="44.33375" lon="3.62144">
        <ele>848.20001220703</ele>
        <time>2022-06-29T09:09:01.000Z</time>
      </trkpt>
      <trkpt lat="44.33377" lon="3.62148">
        <ele>847.79998779297</ele>
        <time>2022-06-29T09:09:04.000Z</time>
      </trkpt>
      <trkpt lat="44.33379" lon="3.6215">
        <ele>847.59997558594</ele>
        <time>2022-06-29T09:09:06.000Z</time>
      </trkpt>
      <trkpt lat="44.33384" lon="3.62157">
        <ele>847.20001220703</ele>
        <time>2022-06-29T09:09:12.000Z</time>
      </trkpt>
      <trkpt lat="44.33388" lon="3.62161">
        <ele>847</ele>
        <time>2022-06-29T09:09:17.000Z</time>
      </trkpt>
      <trkpt lat="44.33391" lon="3.62163">
        <ele>846.59997558594</ele>
        <time>2022-06-29T09:09:20.000Z</time>
      </trkpt>
      <trkpt lat="44.33396" lon="3.62167">
        <ele>846.40002441406</ele>
        <time>2022-06-29T09:09:26.000Z</time>
      </trkpt>
      <trkpt lat="44.33401" lon="3.62172">
        <ele>846.20001220703</ele>
        <time>2022-06-29T09:09:32.000Z</time>
      </trkpt>
      <trkpt lat="44.33401" lon="3.62176">
        <ele>846</ele>
        <time>2022-06-29T09:09:35.000Z</time>
      </trkpt>
      <trkpt lat="44.33403" lon="3.62179">
        <ele>846</ele>
        <time>2022-06-29T09:09:39.000Z</time>
      </trkpt>
      <trkpt lat="44.33405" lon="3.62184">
        <ele>845.79998779297</ele>
        <time>2022-06-29T09:09:45.000Z</time>
      </trkpt>
      <trkpt lat="44.33406" lon="3.62186">
        <ele>845.59997558594</ele>
        <time>2022-06-29T09:09:47.000Z</time>
      </trkpt>
      <trkpt lat="44.33407" lon="3.62187">
        <ele>845.59997558594</ele>
        <time>2022-06-29T09:09:48.000Z</time>
      </trkpt>
      <trkpt lat="44.33412" lon="3.62191">
        <ele>845.20001220703</ele>
        <time>2022-06-29T09:09:54.000Z</time>
      </trkpt>
      <trkpt lat="44.33414" lon="3.62192">
        <ele>845</ele>
        <time>2022-06-29T09:09:56.000Z</time>
      </trkpt>
      <trkpt lat="44.33418" lon="3.62195">
        <ele>844.59997558594</ele>
        <time>2022-06-29T09:10:00.000Z</time>
      </trkpt>
      <trkpt lat="44.33425" lon="3.622">
        <ele>844.40002441406</ele>
        <time>2022-06-29T09:10:06.000Z</time>
      </trkpt>
      <trkpt lat="44.33431" lon="3.62205">
        <ele>844.20001220703</ele>
        <time>2022-06-29T09:10:12.000Z</time>
      </trkpt>
      <trkpt lat="44.33433" lon="3.62206">
        <ele>844.20001220703</ele>
        <time>2022-06-29T09:10:14.000Z</time>
      </trkpt>
      <trkpt lat="44.33434" lon="3.62207">
        <ele>844</ele>
        <time>2022-06-29T09:10:15.000Z</time>
      </trkpt>
      <trkpt lat="44.33435" lon="3.62208">
        <ele>844</ele>
        <time>2022-06-29T09:10:16.000Z</time>
      </trkpt>
      <trkpt lat="44.33435" lon="3.62209">
        <ele>844</ele>
        <time>2022-06-29T09:10:17.000Z</time>
      </trkpt>
      <trkpt lat="44.3344" lon="3.62215">
        <ele>843.59997558594</ele>
        <time>2022-06-29T09:10:23.000Z</time>
      </trkpt>
      <trkpt lat="44.3344" lon="3.62223">
        <ele>843.40002441406</ele>
        <time>2022-06-29T09:10:28.000Z</time>
      </trkpt>
      <trkpt lat="44.33442" lon="3.62225">
        <ele>843.40002441406</ele>
        <time>2022-06-29T09:10:30.000Z</time>
      </trkpt>
      <trkpt lat="44.33445" lon="3.62232">
        <ele>843.40002441406</ele>
        <time>2022-06-29T09:10:36.000Z</time>
      </trkpt>
      <trkpt lat="44.33449" lon="3.62235">
        <ele>843.59997558594</ele>
        <time>2022-06-29T09:10:42.000Z</time>
      </trkpt>
      <trkpt lat="44.33449" lon="3.62236">
        <ele>843.40002441406</ele>
        <time>2022-06-29T09:10:44.000Z</time>
      </trkpt>
      <trkpt lat="44.33453" lon="3.62243">
        <ele>843</ele>
        <time>2022-06-29T09:10:50.000Z</time>
      </trkpt>
      <trkpt lat="44.33455" lon="3.62249">
        <ele>842.79998779297</ele>
        <time>2022-06-29T09:10:55.000Z</time>
      </trkpt>
      <trkpt lat="44.33457" lon="3.62253">
        <ele>842.79998779297</ele>
        <time>2022-06-29T09:10:57.000Z</time>
      </trkpt>
      <trkpt lat="44.33461" lon="3.62261">
        <ele>842.79998779297</ele>
        <time>2022-06-29T09:11:03.000Z</time>
      </trkpt>
      <trkpt lat="44.33463" lon="3.62266">
        <ele>842.40002441406</ele>
        <time>2022-06-29T09:11:07.000Z</time>
      </trkpt>
      <trkpt lat="44.33469" lon="3.6227">
        <ele>842.20001220703</ele>
        <time>2022-06-29T09:11:13.000Z</time>
      </trkpt>
      <trkpt lat="44.33469" lon="3.62271">
        <ele>842</ele>
        <time>2022-06-29T09:11:14.000Z</time>
      </trkpt>
      <trkpt lat="44.33472" lon="3.62274">
        <ele>841.79998779297</ele>
        <time>2022-06-29T09:11:18.000Z</time>
      </trkpt>
      <trkpt lat="44.33475" lon="3.62279">
        <ele>841.59997558594</ele>
        <time>2022-06-29T09:11:24.000Z</time>
      </trkpt>
      <trkpt lat="44.33477" lon="3.62286">
        <ele>841.40002441406</ele>
        <time>2022-06-29T09:11:29.000Z</time>
      </trkpt>
      <trkpt lat="44.3348" lon="3.62294">
        <ele>841</ele>
        <time>2022-06-29T09:11:35.000Z</time>
      </trkpt>
      <trkpt lat="44.33482" lon="3.62297">
        <ele>840.79998779297</ele>
        <time>2022-06-29T09:11:37.000Z</time>
      </trkpt>
      <trkpt lat="44.33486" lon="3.62304">
        <ele>840.59997558594</ele>
        <time>2022-06-29T09:11:42.000Z</time>
      </trkpt>
      <trkpt lat="44.33486" lon="3.62305">
        <ele>840.59997558594</ele>
        <time>2022-06-29T09:11:43.000Z</time>
      </trkpt>
      <trkpt lat="44.33487" lon="3.62311">
        <ele>840.59997558594</ele>
        <time>2022-06-29T09:11:49.000Z</time>
      </trkpt>
      <trkpt lat="44.33487" lon="3.62312">
        <ele>840.59997558594</ele>
        <time>2022-06-29T09:11:51.000Z</time>
      </trkpt>
      <trkpt lat="44.33486" lon="3.62313">
        <ele>840.40002441406</ele>
        <time>2022-06-29T09:11:53.000Z</time>
      </trkpt>
      <trkpt lat="44.33488" lon="3.62318">
        <ele>840.59997558594</ele>
        <time>2022-06-29T09:11:59.000Z</time>
      </trkpt>
      <trkpt lat="44.33493" lon="3.62325">
        <ele>840.20001220703</ele>
        <time>2022-06-29T09:12:05.000Z</time>
      </trkpt>
      <trkpt lat="44.33495" lon="3.62326">
        <ele>840</ele>
        <time>2022-06-29T09:12:06.000Z</time>
      </trkpt>
      <trkpt lat="44.335" lon="3.62332">
        <ele>839.79998779297</ele>
        <time>2022-06-29T09:12:12.000Z</time>
      </trkpt>
      <trkpt lat="44.335" lon="3.62333">
        <ele>839.79998779297</ele>
        <time>2022-06-29T09:12:13.000Z</time>
      </trkpt>
      <trkpt lat="44.33503" lon="3.62339">
        <ele>839.59997558594</ele>
        <time>2022-06-29T09:12:19.000Z</time>
      </trkpt>
      <trkpt lat="44.33504" lon="3.62344">
        <ele>839.20001220703</ele>
        <time>2022-06-29T09:12:23.000Z</time>
      </trkpt>
      <trkpt lat="44.33505" lon="3.62347">
        <ele>839</ele>
        <time>2022-06-29T09:12:27.000Z</time>
      </trkpt>
      <trkpt lat="44.33505" lon="3.62347">
        <ele>839</ele>
        <time>2022-06-29T09:12:33.000Z</time>
      </trkpt>
      <trkpt lat="44.33505" lon="3.62347">
        <ele>839</ele>
        <time>2022-06-29T09:12:34.000Z</time>
      </trkpt>
      <trkpt lat="44.33506" lon="3.62347">
        <ele>839.20001220703</ele>
        <time>2022-06-29T09:12:36.000Z</time>
      </trkpt>
      <trkpt lat="44.33506" lon="3.62347">
        <ele>839.20001220703</ele>
        <time>2022-06-29T09:12:37.000Z</time>
      </trkpt>
      <trkpt lat="44.33506" lon="3.62348">
        <ele>839.20001220703</ele>
        <time>2022-06-29T09:12:38.000Z</time>
      </trkpt>
      <trkpt lat="44.33507" lon="3.62351">
        <ele>838.79998779297</ele>
        <time>2022-06-29T09:12:44.000Z</time>
      </trkpt>
      <trkpt lat="44.33507" lon="3.62351">
        <ele>838.79998779297</ele>
        <time>2022-06-29T09:12:45.000Z</time>
      </trkpt>
      <trkpt lat="44.33506" lon="3.62352">
        <ele>839</ele>
        <time>2022-06-29T09:12:50.000Z</time>
      </trkpt>
      <trkpt lat="44.33506" lon="3.62351">
        <ele>839</ele>
        <time>2022-06-29T09:12:52.000Z</time>
      </trkpt>
      <trkpt lat="44.33505" lon="3.62351">
        <ele>838.59997558594</ele>
        <time>2022-06-29T09:12:55.000Z</time>
      </trkpt>
      <trkpt lat="44.33504" lon="3.6235">
        <ele>838.79998779297</ele>
        <time>2022-06-29T09:13:01.000Z</time>
      </trkpt>
      <trkpt lat="44.33505" lon="3.62349">
        <ele>838.79998779297</ele>
        <time>2022-06-29T09:13:03.000Z</time>
      </trkpt>
      <trkpt lat="44.33506" lon="3.62348">
        <ele>838.79998779297</ele>
        <time>2022-06-29T09:13:09.000Z</time>
      </trkpt>
      <trkpt lat="44.33505" lon="3.62346">
        <ele>838.79998779297</ele>
        <time>2022-06-29T09:13:15.000Z</time>
      </trkpt>
      <trkpt lat="44.33505" lon="3.62345">
        <ele>838.79998779297</ele>
        <time>2022-06-29T09:13:20.000Z</time>
      </trkpt>
      <trkpt lat="44.33505" lon="3.62345">
        <ele>838.79998779297</ele>
        <time>2022-06-29T09:13:23.000Z</time>
      </trkpt>
      <trkpt lat="44.33505" lon="3.62347">
        <ele>838.59997558594</ele>
        <time>2022-06-29T09:13:26.000Z</time>
      </trkpt>
      <trkpt lat="44.33505" lon="3.62348">
        <ele>838.59997558594</ele>
        <time>2022-06-29T09:13:27.000Z</time>
      </trkpt>
      <trkpt lat="44.33504" lon="3.6235">
        <ele>838.40002441406</ele>
        <time>2022-06-29T09:13:31.000Z</time>
      </trkpt>
      <trkpt lat="44.33501" lon="3.6235">
        <ele>838</ele>
        <time>2022-06-29T09:13:37.000Z</time>
      </trkpt>
      <trkpt lat="44.335" lon="3.62353">
        <ele>838</ele>
        <time>2022-06-29T09:13:42.000Z</time>
      </trkpt>
      <trkpt lat="44.335" lon="3.62353">
        <ele>838</ele>
        <time>2022-06-29T09:13:43.000Z</time>
      </trkpt>
      <trkpt lat="44.33501" lon="3.62354">
        <ele>838.20001220703</ele>
        <time>2022-06-29T09:13:45.000Z</time>
      </trkpt>
      <trkpt lat="44.33498" lon="3.6236">
        <ele>838.20001220703</ele>
        <time>2022-06-29T09:13:51.000Z</time>
      </trkpt>
      <trkpt lat="44.33499" lon="3.62361">
        <ele>838.20001220703</ele>
        <time>2022-06-29T09:13:52.000Z</time>
      </trkpt>
      <trkpt lat="44.33497" lon="3.62363">
        <ele>838.20001220703</ele>
        <time>2022-06-29T09:13:54.000Z</time>
      </trkpt>
      <trkpt lat="44.33495" lon="3.62366">
        <ele>838.20001220703</ele>
        <time>2022-06-29T09:13:57.000Z</time>
      </trkpt>
      <trkpt lat="44.33492" lon="3.62368">
        <ele>838.20001220703</ele>
        <time>2022-06-29T09:14:00.000Z</time>
      </trkpt>
      <trkpt lat="44.33487" lon="3.62372">
        <ele>838.40002441406</ele>
        <time>2022-06-29T09:14:05.000Z</time>
      </trkpt>
      <trkpt lat="44.33485" lon="3.62373">
        <ele>838.59997558594</ele>
        <time>2022-06-29T09:14:07.000Z</time>
      </trkpt>
      <trkpt lat="44.33484" lon="3.62375">
        <ele>838.79998779297</ele>
        <time>2022-06-29T09:14:09.000Z</time>
      </trkpt>
      <trkpt lat="44.33478" lon="3.62378">
        <ele>839.20001220703</ele>
        <time>2022-06-29T09:14:15.000Z</time>
      </trkpt>
      <trkpt lat="44.33477" lon="3.62379">
        <ele>839.20001220703</ele>
        <time>2022-06-29T09:14:17.000Z</time>
      </trkpt>
      <trkpt lat="44.33475" lon="3.62382">
        <ele>839.40002441406</ele>
        <time>2022-06-29T09:14:21.000Z</time>
      </trkpt>
      <trkpt lat="44.33473" lon="3.62384">
        <ele>839.59997558594</ele>
        <time>2022-06-29T09:14:27.000Z</time>
      </trkpt>
      <trkpt lat="44.33473" lon="3.62384">
        <ele>839.59997558594</ele>
        <time>2022-06-29T09:14:29.000Z</time>
      </trkpt>
      <trkpt lat="44.33473" lon="3.62385">
        <ele>839.79998779297</ele>
        <time>2022-06-29T09:14:30.000Z</time>
      </trkpt>
      <trkpt lat="44.33473" lon="3.62386">
        <ele>839.79998779297</ele>
        <time>2022-06-29T09:14:33.000Z</time>
      </trkpt>
      <trkpt lat="44.33474" lon="3.62387">
        <ele>839.79998779297</ele>
        <time>2022-06-29T09:14:35.000Z</time>
      </trkpt>
      <trkpt lat="44.33474" lon="3.62387">
        <ele>839.59997558594</ele>
        <time>2022-06-29T09:14:41.000Z</time>
      </trkpt>
      <trkpt lat="44.33474" lon="3.62387">
        <ele>839.79998779297</ele>
        <time>2022-06-29T09:14:44.000Z</time>
      </trkpt>
      <trkpt lat="44.33474" lon="3.62388">
        <ele>839.59997558594</ele>
        <time>2022-06-29T09:14:50.000Z</time>
      </trkpt>
      <trkpt lat="44.33474" lon="3.62392">
        <ele>839.59997558594</ele>
        <time>2022-06-29T09:14:56.000Z</time>
      </trkpt>
      <trkpt lat="44.33475" lon="3.62394">
        <ele>839.79998779297</ele>
        <time>2022-06-29T09:15:01.000Z</time>
      </trkpt>
      <trkpt lat="44.33476" lon="3.62395">
        <ele>839.79998779297</ele>
        <time>2022-06-29T09:15:07.000Z</time>
      </trkpt>
      <trkpt lat="44.33472" lon="3.6239">
        <ele>839.59997558594</ele>
        <time>2022-06-29T09:15:13.000Z</time>
      </trkpt>
      <trkpt lat="44.33472" lon="3.6239">
        <ele>839.59997558594</ele>
        <time>2022-06-29T09:15:15.000Z</time>
      </trkpt>
      <trkpt lat="44.3347" lon="3.62389">
        <ele>839.79998779297</ele>
        <time>2022-06-29T09:15:20.000Z</time>
      </trkpt>
      <trkpt lat="44.33469" lon="3.6239">
        <ele>839.79998779297</ele>
        <time>2022-06-29T09:15:22.000Z</time>
      </trkpt>
      <trkpt lat="44.33469" lon="3.62389">
        <ele>839.59997558594</ele>
        <time>2022-06-29T09:15:28.000Z</time>
      </trkpt>
      <trkpt lat="44.33469" lon="3.62389">
        <ele>839.40002441406</ele>
        <time>2022-06-29T09:15:29.000Z</time>
      </trkpt>
      <trkpt lat="44.33469" lon="3.62389">
        <ele>839.59997558594</ele>
        <time>2022-06-29T09:15:31.000Z</time>
      </trkpt>
      <trkpt lat="44.33469" lon="3.62389">
        <ele>839.59997558594</ele>
        <time>2022-06-29T09:15:32.000Z</time>
      </trkpt>
      <trkpt lat="44.33466" lon="3.62389">
        <ele>839.40002441406</ele>
        <time>2022-06-29T09:15:38.000Z</time>
      </trkpt>
      <trkpt lat="44.33465" lon="3.62389">
        <ele>839.59997558594</ele>
        <time>2022-06-29T09:15:40.000Z</time>
      </trkpt>
      <trkpt lat="44.33464" lon="3.62391">
        <ele>839.59997558594</ele>
        <time>2022-06-29T09:15:42.000Z</time>
      </trkpt>
      <trkpt lat="44.33459" lon="3.62394">
        <ele>839.59997558594</ele>
        <time>2022-06-29T09:15:48.000Z</time>
      </trkpt>
      <trkpt lat="44.33456" lon="3.62396">
        <ele>840.20001220703</ele>
        <time>2022-06-29T09:15:53.000Z</time>
      </trkpt>
      <trkpt lat="44.33454" lon="3.62397">
        <ele>840.40002441406</ele>
        <time>2022-06-29T09:15:55.000Z</time>
      </trkpt>
      <trkpt lat="44.33453" lon="3.62398">
        <ele>840.40002441406</ele>
        <time>2022-06-29T09:15:57.000Z</time>
      </trkpt>
      <trkpt lat="44.33452" lon="3.624">
        <ele>840.59997558594</ele>
        <time>2022-06-29T09:15:59.000Z</time>
      </trkpt>
      <trkpt lat="44.33451" lon="3.624">
        <ele>840.79998779297</ele>
        <time>2022-06-29T09:16:00.000Z</time>
      </trkpt>
      <trkpt lat="44.33446" lon="3.62401">
        <ele>841</ele>
        <time>2022-06-29T09:16:05.000Z</time>
      </trkpt>
      <trkpt lat="44.33445" lon="3.62404">
        <ele>841</ele>
        <time>2022-06-29T09:16:08.000Z</time>
      </trkpt>
      <trkpt lat="44.33443" lon="3.62405">
        <ele>841.20001220703</ele>
        <time>2022-06-29T09:16:10.000Z</time>
      </trkpt>
      <trkpt lat="44.3344" lon="3.62408">
        <ele>841.20001220703</ele>
        <time>2022-06-29T09:16:14.000Z</time>
      </trkpt>
      <trkpt lat="44.33438" lon="3.6241">
        <ele>841.40002441406</ele>
        <time>2022-06-29T09:16:16.000Z</time>
      </trkpt>
      <trkpt lat="44.33431" lon="3.62414">
        <ele>841.79998779297</ele>
        <time>2022-06-29T09:16:22.000Z</time>
      </trkpt>
      <trkpt lat="44.33425" lon="3.62419">
        <ele>842.20001220703</ele>
        <time>2022-06-29T09:16:28.000Z</time>
      </trkpt>
      <trkpt lat="44.33424" lon="3.6242">
        <ele>842</ele>
        <time>2022-06-29T09:16:30.000Z</time>
      </trkpt>
      <trkpt lat="44.3342" lon="3.62422">
        <ele>842.20001220703</ele>
        <time>2022-06-29T09:16:34.000Z</time>
      </trkpt>
      <trkpt lat="44.33418" lon="3.62425">
        <ele>842.40002441406</ele>
        <time>2022-06-29T09:16:37.000Z</time>
      </trkpt>
      <trkpt lat="44.33415" lon="3.6243">
        <ele>842.79998779297</ele>
        <time>2022-06-29T09:16:43.000Z</time>
      </trkpt>
      <trkpt lat="44.33414" lon="3.6243">
        <ele>842.79998779297</ele>
        <time>2022-06-29T09:16:44.000Z</time>
      </trkpt>
      <trkpt lat="44.3341" lon="3.62435">
        <ele>843</ele>
        <time>2022-06-29T09:16:50.000Z</time>
      </trkpt>
      <trkpt lat="44.33405" lon="3.62439">
        <ele>843.20001220703</ele>
        <time>2022-06-29T09:16:56.000Z</time>
      </trkpt>
      <trkpt lat="44.33402" lon="3.62442">
        <ele>843.59997558594</ele>
        <time>2022-06-29T09:17:00.000Z</time>
      </trkpt>
      <trkpt lat="44.33396" lon="3.62446">
        <ele>843.79998779297</ele>
        <time>2022-06-29T09:17:06.000Z</time>
      </trkpt>
      <trkpt lat="44.33393" lon="3.62447">
        <ele>843.79998779297</ele>
        <time>2022-06-29T09:17:09.000Z</time>
      </trkpt>
      <trkpt lat="44.3339" lon="3.62449">
        <ele>844</ele>
        <time>2022-06-29T09:17:12.000Z</time>
      </trkpt>
      <trkpt lat="44.33389" lon="3.62449">
        <ele>844</ele>
        <time>2022-06-29T09:17:13.000Z</time>
      </trkpt>
      <trkpt lat="44.33387" lon="3.62451">
        <ele>844.20001220703</ele>
        <time>2022-06-29T09:17:15.000Z</time>
      </trkpt>
      <trkpt lat="44.33382" lon="3.62456">
        <ele>844.59997558594</ele>
        <time>2022-06-29T09:17:20.000Z</time>
      </trkpt>
      <trkpt lat="44.33379" lon="3.62458">
        <ele>844.79998779297</ele>
        <time>2022-06-29T09:17:23.000Z</time>
      </trkpt>
      <trkpt lat="44.33377" lon="3.62458">
        <ele>844.79998779297</ele>
        <time>2022-06-29T09:17:24.000Z</time>
      </trkpt>
      <trkpt lat="44.33372" lon="3.62461">
        <ele>844.79998779297</ele>
        <time>2022-06-29T09:17:30.000Z</time>
      </trkpt>
      <trkpt lat="44.33371" lon="3.62462">
        <ele>845</ele>
        <time>2022-06-29T09:17:31.000Z</time>
      </trkpt>
      <trkpt lat="44.33367" lon="3.62463">
        <ele>845.20001220703</ele>
        <time>2022-06-29T09:17:35.000Z</time>
      </trkpt>
      <trkpt lat="44.33363" lon="3.62466">
        <ele>845.40002441406</ele>
        <time>2022-06-29T09:17:40.000Z</time>
      </trkpt>
      <trkpt lat="44.3336" lon="3.62468">
        <ele>845.59997558594</ele>
        <time>2022-06-29T09:17:44.000Z</time>
      </trkpt>
      <trkpt lat="44.33358" lon="3.62468">
        <ele>845.59997558594</ele>
        <time>2022-06-29T09:17:46.000Z</time>
      </trkpt>
      <trkpt lat="44.33355" lon="3.62469">
        <ele>845.79998779297</ele>
        <time>2022-06-29T09:17:50.000Z</time>
      </trkpt>
      <trkpt lat="44.33352" lon="3.62471">
        <ele>846</ele>
        <time>2022-06-29T09:17:56.000Z</time>
      </trkpt>
      <trkpt lat="44.33352" lon="3.62471">
        <ele>846</ele>
        <time>2022-06-29T09:17:57.000Z</time>
      </trkpt>
      <trkpt lat="44.3335" lon="3.62471">
        <ele>846</ele>
        <time>2022-06-29T09:17:59.000Z</time>
      </trkpt>
      <trkpt lat="44.33349" lon="3.6247">
        <ele>846</ele>
        <time>2022-06-29T09:18:00.000Z</time>
      </trkpt>
      <trkpt lat="44.33343" lon="3.62469">
        <ele>846.20001220703</ele>
        <time>2022-06-29T09:18:06.000Z</time>
      </trkpt>
      <trkpt lat="44.33341" lon="3.62469">
        <ele>846.40002441406</ele>
        <time>2022-06-29T09:18:09.000Z</time>
      </trkpt>
      <trkpt lat="44.33338" lon="3.6247">
        <ele>846.59997558594</ele>
        <time>2022-06-29T09:18:11.000Z</time>
      </trkpt>
      <trkpt lat="44.33337" lon="3.6247">
        <ele>846.79998779297</ele>
        <time>2022-06-29T09:18:13.000Z</time>
      </trkpt>
      <trkpt lat="44.33334" lon="3.6247">
        <ele>847</ele>
        <time>2022-06-29T09:18:17.000Z</time>
      </trkpt>
      <trkpt lat="44.33329" lon="3.62472">
        <ele>847</ele>
        <time>2022-06-29T09:18:23.000Z</time>
      </trkpt>
      <trkpt lat="44.33323" lon="3.62471">
        <ele>847.20001220703</ele>
        <time>2022-06-29T09:18:28.000Z</time>
      </trkpt>
      <trkpt lat="44.33318" lon="3.62471">
        <ele>847.40002441406</ele>
        <time>2022-06-29T09:18:34.000Z</time>
      </trkpt>
      <trkpt lat="44.33312" lon="3.62471">
        <ele>847.79998779297</ele>
        <time>2022-06-29T09:18:40.000Z</time>
      </trkpt>
      <trkpt lat="44.3331" lon="3.6247">
        <ele>847.79998779297</ele>
        <time>2022-06-29T09:18:44.000Z</time>
      </trkpt>
      <trkpt lat="44.33307" lon="3.6247">
        <ele>848</ele>
        <time>2022-06-29T09:18:49.000Z</time>
      </trkpt>
      <trkpt lat="44.33304" lon="3.62466">
        <ele>848</ele>
        <time>2022-06-29T09:18:55.000Z</time>
      </trkpt>
      <trkpt lat="44.33302" lon="3.62466">
        <ele>848.40002441406</ele>
        <time>2022-06-29T09:18:59.000Z</time>
      </trkpt>
      <trkpt lat="44.33297" lon="3.62465">
        <ele>848.40002441406</ele>
        <time>2022-06-29T09:19:05.000Z</time>
      </trkpt>
      <trkpt lat="44.33293" lon="3.62463">
        <ele>848.79998779297</ele>
        <time>2022-06-29T09:19:11.000Z</time>
      </trkpt>
      <trkpt lat="44.3329" lon="3.62462">
        <ele>849</ele>
        <time>2022-06-29T09:19:14.000Z</time>
      </trkpt>
      <trkpt lat="44.33286" lon="3.62462">
        <ele>849</ele>
        <time>2022-06-29T09:19:18.000Z</time>
      </trkpt>
      <trkpt lat="44.33286" lon="3.62462">
        <ele>849</ele>
        <time>2022-06-29T09:19:19.000Z</time>
      </trkpt>
      <trkpt lat="44.3328" lon="3.6246">
        <ele>849.20001220703</ele>
        <time>2022-06-29T09:19:23.000Z</time>
      </trkpt>
      <trkpt lat="44.33276" lon="3.62457">
        <ele>849.20001220703</ele>
        <time>2022-06-29T09:19:26.000Z</time>
      </trkpt>
      <trkpt lat="44.33272" lon="3.62454">
        <ele>849.40002441406</ele>
        <time>2022-06-29T09:19:29.000Z</time>
      </trkpt>
      <trkpt lat="44.33267" lon="3.62452">
        <ele>849.59997558594</ele>
        <time>2022-06-29T09:19:35.000Z</time>
      </trkpt>
      <trkpt lat="44.33261" lon="3.62449">
        <ele>849.40002441406</ele>
        <time>2022-06-29T09:19:41.000Z</time>
      </trkpt>
      <trkpt lat="44.33257" lon="3.62448">
        <ele>849.79998779297</ele>
        <time>2022-06-29T09:19:45.000Z</time>
      </trkpt>
      <trkpt lat="44.33251" lon="3.62446">
        <ele>849.79998779297</ele>
        <time>2022-06-29T09:19:51.000Z</time>
      </trkpt>
      <trkpt lat="44.33247" lon="3.62443">
        <ele>850</ele>
        <time>2022-06-29T09:19:57.000Z</time>
      </trkpt>
      <trkpt lat="44.33246" lon="3.62442">
        <ele>850</ele>
        <time>2022-06-29T09:19:58.000Z</time>
      </trkpt>
      <trkpt lat="44.33244" lon="3.62442">
        <ele>850.20001220703</ele>
        <time>2022-06-29T09:20:00.000Z</time>
      </trkpt>
      <trkpt lat="44.33242" lon="3.62441">
        <ele>850.40002441406</ele>
        <time>2022-06-29T09:20:02.000Z</time>
      </trkpt>
      <trkpt lat="44.33242" lon="3.62441">
        <ele>850.40002441406</ele>
        <time>2022-06-29T09:20:03.000Z</time>
      </trkpt>
      <trkpt lat="44.33238" lon="3.62439">
        <ele>850.79998779297</ele>
        <time>2022-06-29T09:20:09.000Z</time>
      </trkpt>
      <trkpt lat="44.33237" lon="3.62439">
        <ele>850.79998779297</ele>
        <time>2022-06-29T09:20:11.000Z</time>
      </trkpt>
      <trkpt lat="44.33235" lon="3.62438">
        <ele>851.20001220703</ele>
        <time>2022-06-29T09:20:14.000Z</time>
      </trkpt>
      <trkpt lat="44.33233" lon="3.62439">
        <ele>851.40002441406</ele>
        <time>2022-06-29T09:20:18.000Z</time>
      </trkpt>
      <trkpt lat="44.33225" lon="3.62437">
        <ele>851.79998779297</ele>
        <time>2022-06-29T09:20:24.000Z</time>
      </trkpt>
      <trkpt lat="44.33221" lon="3.62437">
        <ele>852.20001220703</ele>
        <time>2022-06-29T09:20:27.000Z</time>
      </trkpt>
      <trkpt lat="44.33217" lon="3.62437">
        <ele>852.40002441406</ele>
        <time>2022-06-29T09:20:30.000Z</time>
      </trkpt>
      <trkpt lat="44.33214" lon="3.62439">
        <ele>852.40002441406</ele>
        <time>2022-06-29T09:20:32.000Z</time>
      </trkpt>
      <trkpt lat="44.33209" lon="3.62442">
        <ele>852.59997558594</ele>
        <time>2022-06-29T09:20:36.000Z</time>
      </trkpt>
      <trkpt lat="44.33201" lon="3.62443">
        <ele>852.79998779297</ele>
        <time>2022-06-29T09:20:42.000Z</time>
      </trkpt>
      <trkpt lat="44.33198" lon="3.62445">
        <ele>852.79998779297</ele>
        <time>2022-06-29T09:20:45.000Z</time>
      </trkpt>
      <trkpt lat="44.33193" lon="3.62448">
        <ele>852.79998779297</ele>
        <time>2022-06-29T09:20:49.000Z</time>
      </trkpt>
      <trkpt lat="44.33191" lon="3.6245">
        <ele>853</ele>
        <time>2022-06-29T09:20:51.000Z</time>
      </trkpt>
      <trkpt lat="44.33186" lon="3.62452">
        <ele>853.20001220703</ele>
        <time>2022-06-29T09:20:54.000Z</time>
      </trkpt>
      <trkpt lat="44.33182" lon="3.62455">
        <ele>853.40002441406</ele>
        <time>2022-06-29T09:20:57.000Z</time>
      </trkpt>
      <trkpt lat="44.33176" lon="3.62464">
        <ele>853</ele>
        <time>2022-06-29T09:21:03.000Z</time>
      </trkpt>
      <trkpt lat="44.3317" lon="3.6247">
        <ele>852.79998779297</ele>
        <time>2022-06-29T09:21:09.000Z</time>
      </trkpt>
      <trkpt lat="44.33163" lon="3.62475">
        <ele>852.79998779297</ele>
        <time>2022-06-29T09:21:15.000Z</time>
      </trkpt>
      <trkpt lat="44.33158" lon="3.6248">
        <ele>852.79998779297</ele>
        <time>2022-06-29T09:21:21.000Z</time>
      </trkpt>
      <trkpt lat="44.33157" lon="3.62481">
        <ele>852.79998779297</ele>
        <time>2022-06-29T09:21:22.000Z</time>
      </trkpt>
      <trkpt lat="44.33152" lon="3.62488">
        <ele>852.59997558594</ele>
        <time>2022-06-29T09:21:28.000Z</time>
      </trkpt>
      <trkpt lat="44.33148" lon="3.62494">
        <ele>852.40002441406</ele>
        <time>2022-06-29T09:21:34.000Z</time>
      </trkpt>
      <trkpt lat="44.33147" lon="3.62496">
        <ele>852.59997558594</ele>
        <time>2022-06-29T09:21:36.000Z</time>
      </trkpt>
      <trkpt lat="44.33145" lon="3.62498">
        <ele>852.59997558594</ele>
        <time>2022-06-29T09:21:38.000Z</time>
      </trkpt>
      <trkpt lat="44.33142" lon="3.62506">
        <ele>853</ele>
        <time>2022-06-29T09:21:44.000Z</time>
      </trkpt>
      <trkpt lat="44.33142" lon="3.62507">
        <ele>853</ele>
        <time>2022-06-29T09:21:45.000Z</time>
      </trkpt>
      <trkpt lat="44.33141" lon="3.62512">
        <ele>853.20001220703</ele>
        <time>2022-06-29T09:21:49.000Z</time>
      </trkpt>
      <trkpt lat="44.3314" lon="3.62514">
        <ele>853.20001220703</ele>
        <time>2022-06-29T09:21:51.000Z</time>
      </trkpt>
      <trkpt lat="44.33135" lon="3.62519">
        <ele>853.20001220703</ele>
        <time>2022-06-29T09:21:57.000Z</time>
      </trkpt>
      <trkpt lat="44.33133" lon="3.62523">
        <ele>853.59997558594</ele>
        <time>2022-06-29T09:22:01.000Z</time>
      </trkpt>
      <trkpt lat="44.3313" lon="3.62528">
        <ele>853.59997558594</ele>
        <time>2022-06-29T09:22:07.000Z</time>
      </trkpt>
      <trkpt lat="44.33128" lon="3.6253">
        <ele>853.59997558594</ele>
        <time>2022-06-29T09:22:08.000Z</time>
      </trkpt>
      <trkpt lat="44.33122" lon="3.62536">
        <ele>854</ele>
        <time>2022-06-29T09:22:14.000Z</time>
      </trkpt>
      <trkpt lat="44.3312" lon="3.62538">
        <ele>854.20001220703</ele>
        <time>2022-06-29T09:22:17.000Z</time>
      </trkpt>
      <trkpt lat="44.33116" lon="3.62542">
        <ele>854.20001220703</ele>
        <time>2022-06-29T09:22:20.000Z</time>
      </trkpt>
      <trkpt lat="44.33113" lon="3.62544">
        <ele>854.20001220703</ele>
        <time>2022-06-29T09:22:22.000Z</time>
      </trkpt>
      <trkpt lat="44.3311" lon="3.62547">
        <ele>854.20001220703</ele>
        <time>2022-06-29T09:22:25.000Z</time>
      </trkpt>
      <trkpt lat="44.33107" lon="3.62553">
        <ele>854.40002441406</ele>
        <time>2022-06-29T09:22:31.000Z</time>
      </trkpt>
      <trkpt lat="44.33106" lon="3.62556">
        <ele>854.59997558594</ele>
        <time>2022-06-29T09:22:34.000Z</time>
      </trkpt>
      <trkpt lat="44.33105" lon="3.62563">
        <ele>854.79998779297</ele>
        <time>2022-06-29T09:22:40.000Z</time>
      </trkpt>
      <trkpt lat="44.33102" lon="3.62571">
        <ele>855</ele>
        <time>2022-06-29T09:22:46.000Z</time>
      </trkpt>
      <trkpt lat="44.33101" lon="3.62575">
        <ele>855</ele>
        <time>2022-06-29T09:22:49.000Z</time>
      </trkpt>
      <trkpt lat="44.33103" lon="3.62579">
        <ele>855</ele>
        <time>2022-06-29T09:22:51.000Z</time>
      </trkpt>
      <trkpt lat="44.33102" lon="3.62589">
        <ele>855</ele>
        <time>2022-06-29T09:22:57.000Z</time>
      </trkpt>
      <trkpt lat="44.33101" lon="3.62598">
        <ele>854.79998779297</ele>
        <time>2022-06-29T09:23:03.000Z</time>
      </trkpt>
      <trkpt lat="44.33101" lon="3.62603">
        <ele>854.79998779297</ele>
        <time>2022-06-29T09:23:06.000Z</time>
      </trkpt>
      <trkpt lat="44.33099" lon="3.62611">
        <ele>855</ele>
        <time>2022-06-29T09:23:12.000Z</time>
      </trkpt>
      <trkpt lat="44.33096" lon="3.62621">
        <ele>855.20001220703</ele>
        <time>2022-06-29T09:23:18.000Z</time>
      </trkpt>
      <trkpt lat="44.33095" lon="3.62622">
        <ele>855.20001220703</ele>
        <time>2022-06-29T09:23:19.000Z</time>
      </trkpt>
      <trkpt lat="44.33094" lon="3.6263">
        <ele>855.20001220703</ele>
        <time>2022-06-29T09:23:24.000Z</time>
      </trkpt>
      <trkpt lat="44.33093" lon="3.6264">
        <ele>855.20001220703</ele>
        <time>2022-06-29T09:23:30.000Z</time>
      </trkpt>
      <trkpt lat="44.33092" lon="3.62643">
        <ele>855.20001220703</ele>
        <time>2022-06-29T09:23:32.000Z</time>
      </trkpt>
      <trkpt lat="44.3309" lon="3.62651">
        <ele>855.40002441406</ele>
        <time>2022-06-29T09:23:38.000Z</time>
      </trkpt>
      <trkpt lat="44.33088" lon="3.62658">
        <ele>855.40002441406</ele>
        <time>2022-06-29T09:23:44.000Z</time>
      </trkpt>
      <trkpt lat="44.33088" lon="3.62659">
        <ele>855.40002441406</ele>
        <time>2022-06-29T09:23:45.000Z</time>
      </trkpt>
      <trkpt lat="44.33085" lon="3.62667">
        <ele>855.79998779297</ele>
        <time>2022-06-29T09:23:51.000Z</time>
      </trkpt>
      <trkpt lat="44.33082" lon="3.62673">
        <ele>855.79998779297</ele>
        <time>2022-06-29T09:23:57.000Z</time>
      </trkpt>
      <trkpt lat="44.33081" lon="3.62676">
        <ele>856</ele>
        <time>2022-06-29T09:23:59.000Z</time>
      </trkpt>
      <trkpt lat="44.33081" lon="3.62683">
        <ele>855.79998779297</ele>
        <time>2022-06-29T09:24:05.000Z</time>
      </trkpt>
      <trkpt lat="44.33081" lon="3.6269">
        <ele>856</ele>
        <time>2022-06-29T09:24:11.000Z</time>
      </trkpt>
      <trkpt lat="44.33081" lon="3.62694">
        <ele>856.20001220703</ele>
        <time>2022-06-29T09:24:14.000Z</time>
      </trkpt>
      <trkpt lat="44.33081" lon="3.62697">
        <ele>856</ele>
        <time>2022-06-29T09:24:16.000Z</time>
      </trkpt>
      <trkpt lat="44.3308" lon="3.62707">
        <ele>855.40002441406</ele>
        <time>2022-06-29T09:24:22.000Z</time>
      </trkpt>
      <trkpt lat="44.33081" lon="3.62717">
        <ele>855.59997558594</ele>
        <time>2022-06-29T09:24:28.000Z</time>
      </trkpt>
      <trkpt lat="44.33083" lon="3.62725">
        <ele>855.79998779297</ele>
        <time>2022-06-29T09:24:34.000Z</time>
      </trkpt>
      <trkpt lat="44.33084" lon="3.62733">
        <ele>856.20001220703</ele>
        <time>2022-06-29T09:24:40.000Z</time>
      </trkpt>
      <trkpt lat="44.33085" lon="3.62736">
        <ele>856.40002441406</ele>
        <time>2022-06-29T09:24:42.000Z</time>
      </trkpt>
      <trkpt lat="44.33088" lon="3.62745">
        <ele>856.59997558594</ele>
        <time>2022-06-29T09:24:48.000Z</time>
      </trkpt>
      <trkpt lat="44.3309" lon="3.62753">
        <ele>857</ele>
        <time>2022-06-29T09:24:54.000Z</time>
      </trkpt>
      <trkpt lat="44.33091" lon="3.62756">
        <ele>857.20001220703</ele>
        <time>2022-06-29T09:24:56.000Z</time>
      </trkpt>
      <trkpt lat="44.33091" lon="3.62758">
        <ele>857.20001220703</ele>
        <time>2022-06-29T09:24:57.000Z</time>
      </trkpt>
      <trkpt lat="44.33093" lon="3.62766">
        <ele>857.40002441406</ele>
        <time>2022-06-29T09:25:03.000Z</time>
      </trkpt>
      <trkpt lat="44.33096" lon="3.62776">
        <ele>857.79998779297</ele>
        <time>2022-06-29T09:25:09.000Z</time>
      </trkpt>
      <trkpt lat="44.33096" lon="3.62777">
        <ele>857.79998779297</ele>
        <time>2022-06-29T09:25:10.000Z</time>
      </trkpt>
      <trkpt lat="44.33098" lon="3.62784">
        <ele>858</ele>
        <time>2022-06-29T09:25:16.000Z</time>
      </trkpt>
      <trkpt lat="44.33099" lon="3.6279">
        <ele>858.40002441406</ele>
        <time>2022-06-29T09:25:20.000Z</time>
      </trkpt>
      <trkpt lat="44.33101" lon="3.62793">
        <ele>858.59997558594</ele>
        <time>2022-06-29T09:25:23.000Z</time>
      </trkpt>
      <trkpt lat="44.33103" lon="3.628">
        <ele>859.20001220703</ele>
        <time>2022-06-29T09:25:29.000Z</time>
      </trkpt>
      <trkpt lat="44.33105" lon="3.62802">
        <ele>859.40002441406</ele>
        <time>2022-06-29T09:25:32.000Z</time>
      </trkpt>
      <trkpt lat="44.33108" lon="3.62805">
        <ele>859.40002441406</ele>
        <time>2022-06-29T09:25:35.000Z</time>
      </trkpt>
      <trkpt lat="44.33108" lon="3.62806">
        <ele>859.59997558594</ele>
        <time>2022-06-29T09:25:36.000Z</time>
      </trkpt>
      <trkpt lat="44.33109" lon="3.62815">
        <ele>859.79998779297</ele>
        <time>2022-06-29T09:25:42.000Z</time>
      </trkpt>
      <trkpt lat="44.33111" lon="3.62821">
        <ele>860.40002441406</ele>
        <time>2022-06-29T09:25:46.000Z</time>
      </trkpt>
      <trkpt lat="44.33112" lon="3.62824">
        <ele>860.40002441406</ele>
        <time>2022-06-29T09:25:49.000Z</time>
      </trkpt>
      <trkpt lat="44.33113" lon="3.62832">
        <ele>860.79998779297</ele>
        <time>2022-06-29T09:25:55.000Z</time>
      </trkpt>
      <trkpt lat="44.33114" lon="3.6284">
        <ele>860.79998779297</ele>
        <time>2022-06-29T09:26:01.000Z</time>
      </trkpt>
      <trkpt lat="44.33115" lon="3.62846">
        <ele>861</ele>
        <time>2022-06-29T09:26:05.000Z</time>
      </trkpt>
      <trkpt lat="44.33116" lon="3.62854">
        <ele>861.20001220703</ele>
        <time>2022-06-29T09:26:11.000Z</time>
      </trkpt>
      <trkpt lat="44.33117" lon="3.62857">
        <ele>861.40002441406</ele>
        <time>2022-06-29T09:26:14.000Z</time>
      </trkpt>
      <trkpt lat="44.33119" lon="3.6286">
        <ele>861.59997558594</ele>
        <time>2022-06-29T09:26:17.000Z</time>
      </trkpt>
      <trkpt lat="44.33122" lon="3.62868">
        <ele>861.79998779297</ele>
        <time>2022-06-29T09:26:23.000Z</time>
      </trkpt>
      <trkpt lat="44.33127" lon="3.62875">
        <ele>862.20001220703</ele>
        <time>2022-06-29T09:26:29.000Z</time>
      </trkpt>
      <trkpt lat="44.33128" lon="3.62879">
        <ele>862.40002441406</ele>
        <time>2022-06-29T09:26:33.000Z</time>
      </trkpt>
      <trkpt lat="44.33129" lon="3.62881">
        <ele>862.40002441406</ele>
        <time>2022-06-29T09:26:35.000Z</time>
      </trkpt>
      <trkpt lat="44.3313" lon="3.62888">
        <ele>862.59997558594</ele>
        <time>2022-06-29T09:26:41.000Z</time>
      </trkpt>
      <trkpt lat="44.3313" lon="3.62894">
        <ele>863</ele>
        <time>2022-06-29T09:26:47.000Z</time>
      </trkpt>
      <trkpt lat="44.3313" lon="3.62895">
        <ele>863</ele>
        <time>2022-06-29T09:26:48.000Z</time>
      </trkpt>
      <trkpt lat="44.33131" lon="3.629">
        <ele>863.40002441406</ele>
        <time>2022-06-29T09:26:52.000Z</time>
      </trkpt>
      <trkpt lat="44.33132" lon="3.62906">
        <ele>864</ele>
        <time>2022-06-29T09:26:58.000Z</time>
      </trkpt>
      <trkpt lat="44.33133" lon="3.62915">
        <ele>864.59997558594</ele>
        <time>2022-06-29T09:27:04.000Z</time>
      </trkpt>
      <trkpt lat="44.33132" lon="3.62919">
        <ele>864.59997558594</ele>
        <time>2022-06-29T09:27:06.000Z</time>
      </trkpt>
      <trkpt lat="44.33132" lon="3.62922">
        <ele>864.40002441406</ele>
        <time>2022-06-29T09:27:07.000Z</time>
      </trkpt>
      <trkpt lat="44.33131" lon="3.62933">
        <ele>864.40002441406</ele>
        <time>2022-06-29T09:27:13.000Z</time>
      </trkpt>
      <trkpt lat="44.33129" lon="3.62941">
        <ele>864.79998779297</ele>
        <time>2022-06-29T09:27:18.000Z</time>
      </trkpt>
      <trkpt lat="44.33127" lon="3.62948">
        <ele>865</ele>
        <time>2022-06-29T09:27:24.000Z</time>
      </trkpt>
      <trkpt lat="44.33124" lon="3.62954">
        <ele>865.59997558594</ele>
        <time>2022-06-29T09:27:30.000Z</time>
      </trkpt>
      <trkpt lat="44.33123" lon="3.62956">
        <ele>865.79998779297</ele>
        <time>2022-06-29T09:27:31.000Z</time>
      </trkpt>
      <trkpt lat="44.33121" lon="3.62961">
        <ele>866</ele>
        <time>2022-06-29T09:27:37.000Z</time>
      </trkpt>
      <trkpt lat="44.33119" lon="3.62968">
        <ele>866</ele>
        <time>2022-06-29T09:27:43.000Z</time>
      </trkpt>
      <trkpt lat="44.33115" lon="3.6297">
        <ele>866.20001220703</ele>
        <time>2022-06-29T09:27:47.000Z</time>
      </trkpt>
      <trkpt lat="44.3311" lon="3.62974">
        <ele>866.40002441406</ele>
        <time>2022-06-29T09:27:53.000Z</time>
      </trkpt>
      <trkpt lat="44.33108" lon="3.62978">
        <ele>866.59997558594</ele>
        <time>2022-06-29T09:27:56.000Z</time>
      </trkpt>
      <trkpt lat="44.33104" lon="3.62982">
        <ele>866.79998779297</ele>
        <time>2022-06-29T09:28:01.000Z</time>
      </trkpt>
      <trkpt lat="44.331" lon="3.62986">
        <ele>867.20001220703</ele>
        <time>2022-06-29T09:28:07.000Z</time>
      </trkpt>
      <trkpt lat="44.33096" lon="3.62987">
        <ele>867.59997558594</ele>
        <time>2022-06-29T09:28:13.000Z</time>
      </trkpt>
      <trkpt lat="44.33095" lon="3.62987">
        <ele>867.59997558594</ele>
        <time>2022-06-29T09:28:15.000Z</time>
      </trkpt>
      <trkpt lat="44.33089" lon="3.62986">
        <ele>867.79998779297</ele>
        <time>2022-06-29T09:28:21.000Z</time>
      </trkpt>
      <trkpt lat="44.33083" lon="3.62983">
        <ele>868</ele>
        <time>2022-06-29T09:28:27.000Z</time>
      </trkpt>
      <trkpt lat="44.33082" lon="3.62983">
        <ele>868</ele>
        <time>2022-06-29T09:28:28.000Z</time>
      </trkpt>
      <trkpt lat="44.33077" lon="3.62982">
        <ele>868.40002441406</ele>
        <time>2022-06-29T09:28:34.000Z</time>
      </trkpt>
      <trkpt lat="44.33076" lon="3.62982">
        <ele>868.59997558594</ele>
        <time>2022-06-29T09:28:36.000Z</time>
      </trkpt>
      <trkpt lat="44.33069" lon="3.62981">
        <ele>868.79998779297</ele>
        <time>2022-06-29T09:28:42.000Z</time>
      </trkpt>
      <trkpt lat="44.33063" lon="3.62981">
        <ele>869.40002441406</ele>
        <time>2022-06-29T09:28:47.000Z</time>
      </trkpt>
      <trkpt lat="44.33061" lon="3.62981">
        <ele>869.40002441406</ele>
        <time>2022-06-29T09:28:49.000Z</time>
      </trkpt>
      <trkpt lat="44.33057" lon="3.6298">
        <ele>869.59997558594</ele>
        <time>2022-06-29T09:28:53.000Z</time>
      </trkpt>
      <trkpt lat="44.33056" lon="3.62981">
        <ele>869.59997558594</ele>
        <time>2022-06-29T09:28:54.000Z</time>
      </trkpt>
      <trkpt lat="44.33052" lon="3.62983">
        <ele>870</ele>
        <time>2022-06-29T09:28:59.000Z</time>
      </trkpt>
      <trkpt lat="44.33046" lon="3.62985">
        <ele>870.20001220703</ele>
        <time>2022-06-29T09:29:04.000Z</time>
      </trkpt>
      <trkpt lat="44.33039" lon="3.62989">
        <ele>870.59997558594</ele>
        <time>2022-06-29T09:29:10.000Z</time>
      </trkpt>
      <trkpt lat="44.33036" lon="3.62991">
        <ele>870.79998779297</ele>
        <time>2022-06-29T09:29:12.000Z</time>
      </trkpt>
      <trkpt lat="44.33035" lon="3.62992">
        <ele>870.79998779297</ele>
        <time>2022-06-29T09:29:13.000Z</time>
      </trkpt>
      <trkpt lat="44.3303" lon="3.62995">
        <ele>871.20001220703</ele>
        <time>2022-06-29T09:29:19.000Z</time>
      </trkpt>
      <trkpt lat="44.33023" lon="3.62998">
        <ele>871.40002441406</ele>
        <time>2022-06-29T09:29:25.000Z</time>
      </trkpt>
      <trkpt lat="44.33022" lon="3.62999">
        <ele>871.59997558594</ele>
        <time>2022-06-29T09:29:26.000Z</time>
      </trkpt>
      <trkpt lat="44.33018" lon="3.63">
        <ele>871.79998779297</ele>
        <time>2022-06-29T09:29:30.000Z</time>
      </trkpt>
      <trkpt lat="44.33013" lon="3.63006">
        <ele>871.79998779297</ele>
        <time>2022-06-29T09:29:36.000Z</time>
      </trkpt>
      <trkpt lat="44.33011" lon="3.63009">
        <ele>872</ele>
        <time>2022-06-29T09:29:39.000Z</time>
      </trkpt>
      <trkpt lat="44.33006" lon="3.63015">
        <ele>872.40002441406</ele>
        <time>2022-06-29T09:29:45.000Z</time>
      </trkpt>
      <trkpt lat="44.33004" lon="3.63019">
        <ele>872.79998779297</ele>
        <time>2022-06-29T09:29:49.000Z</time>
      </trkpt>
      <trkpt lat="44.33002" lon="3.63023">
        <ele>873</ele>
        <time>2022-06-29T09:29:53.000Z</time>
      </trkpt>
      <trkpt lat="44.32998" lon="3.6303">
        <ele>873.40002441406</ele>
        <time>2022-06-29T09:29:59.000Z</time>
      </trkpt>
      <trkpt lat="44.32995" lon="3.63038">
        <ele>873.59997558594</ele>
        <time>2022-06-29T09:30:05.000Z</time>
      </trkpt>
      <trkpt lat="44.32993" lon="3.6304">
        <ele>873.59997558594</ele>
        <time>2022-06-29T09:30:07.000Z</time>
      </trkpt>
      <trkpt lat="44.32989" lon="3.63046">
        <ele>873.79998779297</ele>
        <time>2022-06-29T09:30:12.000Z</time>
      </trkpt>
      <trkpt lat="44.32989" lon="3.63047">
        <ele>873.79998779297</ele>
        <time>2022-06-29T09:30:13.000Z</time>
      </trkpt>
      <trkpt lat="44.32988" lon="3.63048">
        <ele>873.79998779297</ele>
        <time>2022-06-29T09:30:14.000Z</time>
      </trkpt>
      <trkpt lat="44.32986" lon="3.63057">
        <ele>874.20001220703</ele>
        <time>2022-06-29T09:30:20.000Z</time>
      </trkpt>
      <trkpt lat="44.32985" lon="3.63059">
        <ele>874.40002441406</ele>
        <time>2022-06-29T09:30:22.000Z</time>
      </trkpt>
      <trkpt lat="44.32985" lon="3.63062">
        <ele>874.59997558594</ele>
        <time>2022-06-29T09:30:24.000Z</time>
      </trkpt>
      <trkpt lat="44.32984" lon="3.6307">
        <ele>874.59997558594</ele>
        <time>2022-06-29T09:30:30.000Z</time>
      </trkpt>
      <trkpt lat="44.32982" lon="3.63077">
        <ele>874.79998779297</ele>
        <time>2022-06-29T09:30:35.000Z</time>
      </trkpt>
      <trkpt lat="44.32982" lon="3.63086">
        <ele>875.20001220703</ele>
        <time>2022-06-29T09:30:41.000Z</time>
      </trkpt>
      <trkpt lat="44.32981" lon="3.63095">
        <ele>875.40002441406</ele>
        <time>2022-06-29T09:30:47.000Z</time>
      </trkpt>
      <trkpt lat="44.32978" lon="3.63104">
        <ele>875.40002441406</ele>
        <time>2022-06-29T09:30:53.000Z</time>
      </trkpt>
      <trkpt lat="44.32974" lon="3.63112">
        <ele>875.79998779297</ele>
        <time>2022-06-29T09:30:59.000Z</time>
      </trkpt>
      <trkpt lat="44.32974" lon="3.63114">
        <ele>875.79998779297</ele>
        <time>2022-06-29T09:31:00.000Z</time>
      </trkpt>
      <trkpt lat="44.32972" lon="3.63121">
        <ele>876</ele>
        <time>2022-06-29T09:31:05.000Z</time>
      </trkpt>
      <trkpt lat="44.3297" lon="3.63127">
        <ele>876</ele>
        <time>2022-06-29T09:31:10.000Z</time>
      </trkpt>
      <trkpt lat="44.32968" lon="3.63134">
        <ele>876.20001220703</ele>
        <time>2022-06-29T09:31:15.000Z</time>
      </trkpt>
      <trkpt lat="44.32968" lon="3.63136">
        <ele>876.20001220703</ele>
        <time>2022-06-29T09:31:16.000Z</time>
      </trkpt>
      <trkpt lat="44.32966" lon="3.63141">
        <ele>876.40002441406</ele>
        <time>2022-06-29T09:31:20.000Z</time>
      </trkpt>
      <trkpt lat="44.32963" lon="3.63148">
        <ele>876.79998779297</ele>
        <time>2022-06-29T09:31:26.000Z</time>
      </trkpt>
      <trkpt lat="44.32962" lon="3.63151">
        <ele>877</ele>
        <time>2022-06-29T09:31:28.000Z</time>
      </trkpt>
      <trkpt lat="44.32962" lon="3.63154">
        <ele>877</ele>
        <time>2022-06-29T09:31:30.000Z</time>
      </trkpt>
      <trkpt lat="44.32961" lon="3.63161">
        <ele>877.20001220703</ele>
        <time>2022-06-29T09:31:36.000Z</time>
      </trkpt>
      <trkpt lat="44.3296" lon="3.63169">
        <ele>877.40002441406</ele>
        <time>2022-06-29T09:31:42.000Z</time>
      </trkpt>
      <trkpt lat="44.32958" lon="3.63173">
        <ele>877.59997558594</ele>
        <time>2022-06-29T09:31:46.000Z</time>
      </trkpt>
      <trkpt lat="44.32957" lon="3.63181">
        <ele>877.79998779297</ele>
        <time>2022-06-29T09:31:52.000Z</time>
      </trkpt>
      <trkpt lat="44.32955" lon="3.63184">
        <ele>878</ele>
        <time>2022-06-29T09:31:54.000Z</time>
      </trkpt>
      <trkpt lat="44.32954" lon="3.63191">
        <ele>878.20001220703</ele>
        <time>2022-06-29T09:32:00.000Z</time>
      </trkpt>
      <trkpt lat="44.32954" lon="3.632">
        <ele>878.40002441406</ele>
        <time>2022-06-29T09:32:06.000Z</time>
      </trkpt>
      <trkpt lat="44.32952" lon="3.63209">
        <ele>878.79998779297</ele>
        <time>2022-06-29T09:32:12.000Z</time>
      </trkpt>
      <trkpt lat="44.3295" lon="3.63216">
        <ele>879</ele>
        <time>2022-06-29T09:32:18.000Z</time>
      </trkpt>
      <trkpt lat="44.3295" lon="3.63217">
        <ele>879</ele>
        <time>2022-06-29T09:32:19.000Z</time>
      </trkpt>
      <trkpt lat="44.32947" lon="3.63223">
        <ele>879.20001220703</ele>
        <time>2022-06-29T09:32:24.000Z</time>
      </trkpt>
      <trkpt lat="44.32943" lon="3.63228">
        <ele>879.59997558594</ele>
        <time>2022-06-29T09:32:30.000Z</time>
      </trkpt>
      <trkpt lat="44.3294" lon="3.63233">
        <ele>879.79998779297</ele>
        <time>2022-06-29T09:32:36.000Z</time>
      </trkpt>
      <trkpt lat="44.3294" lon="3.63235">
        <ele>880</ele>
        <time>2022-06-29T09:32:37.000Z</time>
      </trkpt>
      <trkpt lat="44.3294" lon="3.63236">
        <ele>880</ele>
        <time>2022-06-29T09:32:38.000Z</time>
      </trkpt>
      <trkpt lat="44.32939" lon="3.63237">
        <ele>880.20001220703</ele>
        <time>2022-06-29T09:32:39.000Z</time>
      </trkpt>
      <trkpt lat="44.32939" lon="3.63239">
        <ele>880.40002441406</ele>
        <time>2022-06-29T09:32:41.000Z</time>
      </trkpt>
      <trkpt lat="44.32939" lon="3.63243">
        <ele>880.59997558594</ele>
        <time>2022-06-29T09:32:44.000Z</time>
      </trkpt>
      <trkpt lat="44.32936" lon="3.6325">
        <ele>880.59997558594</ele>
        <time>2022-06-29T09:32:50.000Z</time>
      </trkpt>
      <trkpt lat="44.32935" lon="3.63251">
        <ele>880.59997558594</ele>
        <time>2022-06-29T09:32:51.000Z</time>
      </trkpt>
      <trkpt lat="44.32931" lon="3.63256">
        <ele>880.79998779297</ele>
        <time>2022-06-29T09:32:57.000Z</time>
      </trkpt>
      <trkpt lat="44.32929" lon="3.63257">
        <ele>881</ele>
        <time>2022-06-29T09:32:59.000Z</time>
      </trkpt>
      <trkpt lat="44.32925" lon="3.63262">
        <ele>881.40002441406</ele>
        <time>2022-06-29T09:33:04.000Z</time>
      </trkpt>
      <trkpt lat="44.32921" lon="3.63266">
        <ele>882</ele>
        <time>2022-06-29T09:33:10.000Z</time>
      </trkpt>
      <trkpt lat="44.32921" lon="3.63269">
        <ele>882.20001220703</ele>
        <time>2022-06-29T09:33:13.000Z</time>
      </trkpt>
      <trkpt lat="44.32918" lon="3.63273">
        <ele>882.40002441406</ele>
        <time>2022-06-29T09:33:17.000Z</time>
      </trkpt>
      <trkpt lat="44.32914" lon="3.63279">
        <ele>882.40002441406</ele>
        <time>2022-06-29T09:33:23.000Z</time>
      </trkpt>
      <trkpt lat="44.32911" lon="3.63286">
        <ele>883</ele>
        <time>2022-06-29T09:33:29.000Z</time>
      </trkpt>
      <trkpt lat="44.3291" lon="3.63287">
        <ele>883.20001220703</ele>
        <time>2022-06-29T09:33:30.000Z</time>
      </trkpt>
      <trkpt lat="44.3291" lon="3.63289">
        <ele>883.20001220703</ele>
        <time>2022-06-29T09:33:31.000Z</time>
      </trkpt>
      <trkpt lat="44.32908" lon="3.63295">
        <ele>883.59997558594</ele>
        <time>2022-06-29T09:33:36.000Z</time>
      </trkpt>
      <trkpt lat="44.32906" lon="3.63298">
        <ele>883.59997558594</ele>
        <time>2022-06-29T09:33:38.000Z</time>
      </trkpt>
      <trkpt lat="44.32905" lon="3.63301">
        <ele>883.79998779297</ele>
        <time>2022-06-29T09:33:40.000Z</time>
      </trkpt>
      <trkpt lat="44.32902" lon="3.63303">
        <ele>883.79998779297</ele>
        <time>2022-06-29T09:33:43.000Z</time>
      </trkpt>
      <trkpt lat="44.32901" lon="3.63305">
        <ele>884</ele>
        <time>2022-06-29T09:33:45.000Z</time>
      </trkpt>
      <trkpt lat="44.32899" lon="3.63306">
        <ele>884</ele>
        <time>2022-06-29T09:33:47.000Z</time>
      </trkpt>
      <trkpt lat="44.32899" lon="3.63308">
        <ele>884.20001220703</ele>
        <time>2022-06-29T09:33:49.000Z</time>
      </trkpt>
      <trkpt lat="44.32896" lon="3.63315">
        <ele>884.59997558594</ele>
        <time>2022-06-29T09:33:55.000Z</time>
      </trkpt>
      <trkpt lat="44.32895" lon="3.63318">
        <ele>884.79998779297</ele>
        <time>2022-06-29T09:33:57.000Z</time>
      </trkpt>
      <trkpt lat="44.32894" lon="3.63319">
        <ele>884.79998779297</ele>
        <time>2022-06-29T09:33:58.000Z</time>
      </trkpt>
      <trkpt lat="44.32893" lon="3.63321">
        <ele>885.20001220703</ele>
        <time>2022-06-29T09:34:01.000Z</time>
      </trkpt>
      <trkpt lat="44.32893" lon="3.63324">
        <ele>885.20001220703</ele>
        <time>2022-06-29T09:34:03.000Z</time>
      </trkpt>
      <trkpt lat="44.32894" lon="3.63329">
        <ele>885.20001220703</ele>
        <time>2022-06-29T09:34:06.000Z</time>
      </trkpt>
      <trkpt lat="44.32893" lon="3.63333">
        <ele>885.20001220703</ele>
        <time>2022-06-29T09:34:09.000Z</time>
      </trkpt>
      <trkpt lat="44.32893" lon="3.63334">
        <ele>885.40002441406</ele>
        <time>2022-06-29T09:34:10.000Z</time>
      </trkpt>
      <trkpt lat="44.32892" lon="3.63342">
        <ele>885.79998779297</ele>
        <time>2022-06-29T09:34:16.000Z</time>
      </trkpt>
      <trkpt lat="44.3289" lon="3.63349">
        <ele>886.20001220703</ele>
        <time>2022-06-29T09:34:22.000Z</time>
      </trkpt>
      <trkpt lat="44.3289" lon="3.6335">
        <ele>886.40002441406</ele>
        <time>2022-06-29T09:34:23.000Z</time>
      </trkpt>
      <trkpt lat="44.32889" lon="3.63354">
        <ele>886.59997558594</ele>
        <time>2022-06-29T09:34:26.000Z</time>
      </trkpt>
      <trkpt lat="44.32887" lon="3.63362">
        <ele>887</ele>
        <time>2022-06-29T09:34:32.000Z</time>
      </trkpt>
      <trkpt lat="44.32887" lon="3.63369">
        <ele>887.40002441406</ele>
        <time>2022-06-29T09:34:38.000Z</time>
      </trkpt>
      <trkpt lat="44.32887" lon="3.63372">
        <ele>887.59997558594</ele>
        <time>2022-06-29T09:34:40.000Z</time>
      </trkpt>
      <trkpt lat="44.32885" lon="3.63376">
        <ele>887.59997558594</ele>
        <time>2022-06-29T09:34:44.000Z</time>
      </trkpt>
      <trkpt lat="44.32884" lon="3.63383">
        <ele>888</ele>
        <time>2022-06-29T09:34:50.000Z</time>
      </trkpt>
      <trkpt lat="44.32883" lon="3.63388">
        <ele>888.20001220703</ele>
        <time>2022-06-29T09:34:54.000Z</time>
      </trkpt>
      <trkpt lat="44.32883" lon="3.63392">
        <ele>888.59997558594</ele>
        <time>2022-06-29T09:34:58.000Z</time>
      </trkpt>
      <trkpt lat="44.32882" lon="3.63398">
        <ele>889</ele>
        <time>2022-06-29T09:35:04.000Z</time>
      </trkpt>
      <trkpt lat="44.32881" lon="3.63403">
        <ele>889</ele>
        <time>2022-06-29T09:35:09.000Z</time>
      </trkpt>
      <trkpt lat="44.32879" lon="3.63409">
        <ele>889.40002441406</ele>
        <time>2022-06-29T09:35:15.000Z</time>
      </trkpt>
      <trkpt lat="44.32878" lon="3.6341">
        <ele>889.59997558594</ele>
        <time>2022-06-29T09:35:16.000Z</time>
      </trkpt>
      <trkpt lat="44.32878" lon="3.63413">
        <ele>889.79998779297</ele>
        <time>2022-06-29T09:35:19.000Z</time>
      </trkpt>
      <trkpt lat="44.32878" lon="3.63414">
        <ele>889.79998779297</ele>
        <time>2022-06-29T09:35:20.000Z</time>
      </trkpt>
      <trkpt lat="44.32877" lon="3.63421">
        <ele>890</ele>
        <time>2022-06-29T09:35:25.000Z</time>
      </trkpt>
      <trkpt lat="44.32877" lon="3.63429">
        <ele>890.40002441406</ele>
        <time>2022-06-29T09:35:31.000Z</time>
      </trkpt>
      <trkpt lat="44.32876" lon="3.63431">
        <ele>890.59997558594</ele>
        <time>2022-06-29T09:35:33.000Z</time>
      </trkpt>
      <trkpt lat="44.32876" lon="3.63433">
        <ele>890.59997558594</ele>
        <time>2022-06-29T09:35:35.000Z</time>
      </trkpt>
      <trkpt lat="44.32874" lon="3.63439">
        <ele>891</ele>
        <time>2022-06-29T09:35:41.000Z</time>
      </trkpt>
      <trkpt lat="44.32874" lon="3.63441">
        <ele>891.20001220703</ele>
        <time>2022-06-29T09:35:43.000Z</time>
      </trkpt>
      <trkpt lat="44.32873" lon="3.63443">
        <ele>891.20001220703</ele>
        <time>2022-06-29T09:35:44.000Z</time>
      </trkpt>
      <trkpt lat="44.32872" lon="3.63443">
        <ele>891.20001220703</ele>
        <time>2022-06-29T09:35:45.000Z</time>
      </trkpt>
      <trkpt lat="44.32871" lon="3.63449">
        <ele>891.59997558594</ele>
        <time>2022-06-29T09:35:50.000Z</time>
      </trkpt>
      <trkpt lat="44.32871" lon="3.6345">
        <ele>891.59997558594</ele>
        <time>2022-06-29T09:35:51.000Z</time>
      </trkpt>
      <trkpt lat="44.3287" lon="3.63456">
        <ele>892.20001220703</ele>
        <time>2022-06-29T09:35:57.000Z</time>
      </trkpt>
      <trkpt lat="44.3287" lon="3.6346">
        <ele>892.40002441406</ele>
        <time>2022-06-29T09:36:00.000Z</time>
      </trkpt>
      <trkpt lat="44.32869" lon="3.63461">
        <ele>892.40002441406</ele>
        <time>2022-06-29T09:36:01.000Z</time>
      </trkpt>
      <trkpt lat="44.32869" lon="3.63463">
        <ele>892.59997558594</ele>
        <time>2022-06-29T09:36:03.000Z</time>
      </trkpt>
      <trkpt lat="44.32869" lon="3.6347">
        <ele>893.20001220703</ele>
        <time>2022-06-29T09:36:09.000Z</time>
      </trkpt>
      <trkpt lat="44.32869" lon="3.63475">
        <ele>893.20001220703</ele>
        <time>2022-06-29T09:36:14.000Z</time>
      </trkpt>
      <trkpt lat="44.32868" lon="3.63483">
        <ele>893.79998779297</ele>
        <time>2022-06-29T09:36:20.000Z</time>
      </trkpt>
      <trkpt lat="44.32868" lon="3.63486">
        <ele>894</ele>
        <time>2022-06-29T09:36:22.000Z</time>
      </trkpt>
      <trkpt lat="44.32868" lon="3.6349">
        <ele>894.40002441406</ele>
        <time>2022-06-29T09:36:25.000Z</time>
      </trkpt>
      <trkpt lat="44.32869" lon="3.63498">
        <ele>894.59997558594</ele>
        <time>2022-06-29T09:36:31.000Z</time>
      </trkpt>
      <trkpt lat="44.32869" lon="3.635">
        <ele>894.59997558594</ele>
        <time>2022-06-29T09:36:33.000Z</time>
      </trkpt>
      <trkpt lat="44.32869" lon="3.63501">
        <ele>894.79998779297</ele>
        <time>2022-06-29T09:36:34.000Z</time>
      </trkpt>
      <trkpt lat="44.3287" lon="3.63503">
        <ele>894.79998779297</ele>
        <time>2022-06-29T09:36:35.000Z</time>
      </trkpt>
      <trkpt lat="44.32871" lon="3.63507">
        <ele>895</ele>
        <time>2022-06-29T09:36:40.000Z</time>
      </trkpt>
      <trkpt lat="44.32872" lon="3.63507">
        <ele>895</ele>
        <time>2022-06-29T09:36:41.000Z</time>
      </trkpt>
      <trkpt lat="44.32873" lon="3.63509">
        <ele>895</ele>
        <time>2022-06-29T09:36:43.000Z</time>
      </trkpt>
      <trkpt lat="44.32875" lon="3.63513">
        <ele>895.20001220703</ele>
        <time>2022-06-29T09:36:47.000Z</time>
      </trkpt>
      <trkpt lat="44.32877" lon="3.63517">
        <ele>895.40002441406</ele>
        <time>2022-06-29T09:36:51.000Z</time>
      </trkpt>
      <trkpt lat="44.32878" lon="3.63519">
        <ele>895.40002441406</ele>
        <time>2022-06-29T09:36:53.000Z</time>
      </trkpt>
      <trkpt lat="44.32878" lon="3.6352">
        <ele>895.59997558594</ele>
        <time>2022-06-29T09:36:54.000Z</time>
      </trkpt>
      <trkpt lat="44.32879" lon="3.63522">
        <ele>895.79998779297</ele>
        <time>2022-06-29T09:36:56.000Z</time>
      </trkpt>
      <trkpt lat="44.32879" lon="3.63523">
        <ele>895.79998779297</ele>
        <time>2022-06-29T09:36:57.000Z</time>
      </trkpt>
      <trkpt lat="44.3288" lon="3.63526">
        <ele>896.20001220703</ele>
        <time>2022-06-29T09:37:00.000Z</time>
      </trkpt>
      <trkpt lat="44.32881" lon="3.63528">
        <ele>896.40002441406</ele>
        <time>2022-06-29T09:37:02.000Z</time>
      </trkpt>
      <trkpt lat="44.32882" lon="3.63529">
        <ele>896.40002441406</ele>
        <time>2022-06-29T09:37:03.000Z</time>
      </trkpt>
      <trkpt lat="44.32885" lon="3.63536">
        <ele>896.20001220703</ele>
        <time>2022-06-29T09:37:09.000Z</time>
      </trkpt>
      <trkpt lat="44.32885" lon="3.63537">
        <ele>896.20001220703</ele>
        <time>2022-06-29T09:37:10.000Z</time>
      </trkpt>
      <trkpt lat="44.32885" lon="3.63539">
        <ele>896.40002441406</ele>
        <time>2022-06-29T09:37:11.000Z</time>
      </trkpt>
      <trkpt lat="44.32887" lon="3.63543">
        <ele>896.79998779297</ele>
        <time>2022-06-29T09:37:15.000Z</time>
      </trkpt>
      <trkpt lat="44.3289" lon="3.6355">
        <ele>897</ele>
        <time>2022-06-29T09:37:21.000Z</time>
      </trkpt>
      <trkpt lat="44.32891" lon="3.63553">
        <ele>897.40002441406</ele>
        <time>2022-06-29T09:37:24.000Z</time>
      </trkpt>
      <trkpt lat="44.32893" lon="3.63557">
        <ele>897.79998779297</ele>
        <time>2022-06-29T09:37:28.000Z</time>
      </trkpt>
      <trkpt lat="44.32898" lon="3.63563">
        <ele>898</ele>
        <time>2022-06-29T09:37:34.000Z</time>
      </trkpt>
      <trkpt lat="44.32902" lon="3.63568">
        <ele>898.59997558594</ele>
        <time>2022-06-29T09:37:40.000Z</time>
      </trkpt>
      <trkpt lat="44.32903" lon="3.63573">
        <ele>899</ele>
        <time>2022-06-29T09:37:44.000Z</time>
      </trkpt>
      <trkpt lat="44.32905" lon="3.63578">
        <ele>899.40002441406</ele>
        <time>2022-06-29T09:37:49.000Z</time>
      </trkpt>
      <trkpt lat="44.32908" lon="3.63584">
        <ele>900</ele>
        <time>2022-06-29T09:37:54.000Z</time>
      </trkpt>
      <trkpt lat="44.32908" lon="3.63585">
        <ele>900</ele>
        <time>2022-06-29T09:37:55.000Z</time>
      </trkpt>
      <trkpt lat="44.32911" lon="3.63589">
        <ele>900.20001220703</ele>
        <time>2022-06-29T09:37:59.000Z</time>
      </trkpt>
      <trkpt lat="44.32912" lon="3.63591">
        <ele>900.40002441406</ele>
        <time>2022-06-29T09:38:01.000Z</time>
      </trkpt>
      <trkpt lat="44.32915" lon="3.63596">
        <ele>901</ele>
        <time>2022-06-29T09:38:07.000Z</time>
      </trkpt>
      <trkpt lat="44.32917" lon="3.63598">
        <ele>901.20001220703</ele>
        <time>2022-06-29T09:38:10.000Z</time>
      </trkpt>
      <trkpt lat="44.32917" lon="3.63599">
        <ele>901.20001220703</ele>
        <time>2022-06-29T09:38:11.000Z</time>
      </trkpt>
      <trkpt lat="44.32918" lon="3.636">
        <ele>901.40002441406</ele>
        <time>2022-06-29T09:38:12.000Z</time>
      </trkpt>
      <trkpt lat="44.3292" lon="3.63601">
        <ele>901.59997558594</ele>
        <time>2022-06-29T09:38:14.000Z</time>
      </trkpt>
      <trkpt lat="44.32923" lon="3.63605">
        <ele>901.79998779297</ele>
        <time>2022-06-29T09:38:18.000Z</time>
      </trkpt>
      <trkpt lat="44.32925" lon="3.63607">
        <ele>902</ele>
        <time>2022-06-29T09:38:20.000Z</time>
      </trkpt>
      <trkpt lat="44.32928" lon="3.63612">
        <ele>902.59997558594</ele>
        <time>2022-06-29T09:38:26.000Z</time>
      </trkpt>
      <trkpt lat="44.3293" lon="3.63613">
        <ele>902.79998779297</ele>
        <time>2022-06-29T09:38:28.000Z</time>
      </trkpt>
      <trkpt lat="44.32932" lon="3.63615">
        <ele>903</ele>
        <time>2022-06-29T09:38:30.000Z</time>
      </trkpt>
      <trkpt lat="44.32933" lon="3.63615">
        <ele>903</ele>
        <time>2022-06-29T09:38:31.000Z</time>
      </trkpt>
      <trkpt lat="44.32934" lon="3.63617">
        <ele>903.20001220703</ele>
        <time>2022-06-29T09:38:33.000Z</time>
      </trkpt>
      <trkpt lat="44.32935" lon="3.63619">
        <ele>903.20001220703</ele>
        <time>2022-06-29T09:38:35.000Z</time>
      </trkpt>
      <trkpt lat="44.32938" lon="3.63622">
        <ele>903.40002441406</ele>
        <time>2022-06-29T09:38:41.000Z</time>
      </trkpt>
      <trkpt lat="44.32939" lon="3.63623">
        <ele>903.59997558594</ele>
        <time>2022-06-29T09:38:43.000Z</time>
      </trkpt>
      <trkpt lat="44.32941" lon="3.63625">
        <ele>903.79998779297</ele>
        <time>2022-06-29T09:38:47.000Z</time>
      </trkpt>
      <trkpt lat="44.32944" lon="3.63623">
        <ele>903.79998779297</ele>
        <time>2022-06-29T09:38:53.000Z</time>
      </trkpt>
      <trkpt lat="44.32943" lon="3.63621">
        <ele>904</ele>
        <time>2022-06-29T09:38:59.000Z</time>
      </trkpt>
      <trkpt lat="44.32943" lon="3.63621">
        <ele>904</ele>
        <time>2022-06-29T09:39:05.000Z</time>
      </trkpt>
      <trkpt lat="44.32945" lon="3.63622">
        <ele>904</ele>
        <time>2022-06-29T09:39:11.000Z</time>
      </trkpt>
      <trkpt lat="44.32946" lon="3.63622">
        <ele>904.20001220703</ele>
        <time>2022-06-29T09:39:14.000Z</time>
      </trkpt>
      <trkpt lat="44.32946" lon="3.63622">
        <ele>904.59997558594</ele>
        <time>2022-06-29T09:39:20.000Z</time>
      </trkpt>
      <trkpt lat="44.32947" lon="3.63622">
        <ele>904.59997558594</ele>
        <time>2022-06-29T09:39:23.000Z</time>
      </trkpt>
      <trkpt lat="44.32947" lon="3.63622">
        <ele>904.40002441406</ele>
        <time>2022-06-29T09:39:25.000Z</time>
      </trkpt>
      <trkpt lat="44.32947" lon="3.63622">
        <ele>904.40002441406</ele>
        <time>2022-06-29T09:39:26.000Z</time>
      </trkpt>
      <trkpt lat="44.32947" lon="3.63622">
        <ele>904.40002441406</ele>
        <time>2022-06-29T09:39:27.000Z</time>
      </trkpt>
      <trkpt lat="44.32947" lon="3.63622">
        <ele>904.40002441406</ele>
        <time>2022-06-29T09:39:28.000Z</time>
      </trkpt>
      <trkpt lat="44.32947" lon="3.63622">
        <ele>904.40002441406</ele>
        <time>2022-06-29T09:39:29.000Z</time>
      </trkpt>
      <trkpt lat="44.32947" lon="3.63622">
        <ele>904.40002441406</ele>
        <time>2022-06-29T09:39:31.000Z</time>
      </trkpt>
      <trkpt lat="44.32946" lon="3.63621">
        <ele>904</ele>
        <time>2022-06-29T09:39:37.000Z</time>
      </trkpt>
      <trkpt lat="44.32946" lon="3.63621">
        <ele>904</ele>
        <time>2022-06-29T09:39:43.000Z</time>
      </trkpt>
      <trkpt lat="44.32945" lon="3.63621">
        <ele>904</ele>
        <time>2022-06-29T09:39:45.000Z</time>
      </trkpt>
      <trkpt lat="44.32944" lon="3.63622">
        <ele>904</ele>
        <time>2022-06-29T09:39:47.000Z</time>
      </trkpt>
      <trkpt lat="44.32945" lon="3.63621">
        <ele>904</ele>
        <time>2022-06-29T09:39:53.000Z</time>
      </trkpt>
      <trkpt lat="44.32944" lon="3.63622">
        <ele>904</ele>
        <time>2022-06-29T09:39:59.000Z</time>
      </trkpt>
      <trkpt lat="44.32943" lon="3.63622">
        <ele>904</ele>
        <time>2022-06-29T09:40:02.000Z</time>
      </trkpt>
      <trkpt lat="44.32942" lon="3.63622">
        <ele>904</ele>
        <time>2022-06-29T09:40:04.000Z</time>
      </trkpt>
      <trkpt lat="44.3294" lon="3.63623">
        <ele>903.59997558594</ele>
        <time>2022-06-29T09:40:10.000Z</time>
      </trkpt>
      <trkpt lat="44.3294" lon="3.63623">
        <ele>903.59997558594</ele>
        <time>2022-06-29T09:40:13.000Z</time>
      </trkpt>
      <trkpt lat="44.32941" lon="3.63622">
        <ele>903.59997558594</ele>
        <time>2022-06-29T09:40:14.000Z</time>
      </trkpt>
      <trkpt lat="44.3294" lon="3.63621">
        <ele>903.40002441406</ele>
        <time>2022-06-29T09:40:16.000Z</time>
      </trkpt>
      <trkpt lat="44.32939" lon="3.63623">
        <ele>903.59997558594</ele>
        <time>2022-06-29T09:40:19.000Z</time>
      </trkpt>
      <trkpt lat="44.32939" lon="3.63626">
        <ele>903.40002441406</ele>
        <time>2022-06-29T09:40:25.000Z</time>
      </trkpt>
      <trkpt lat="44.32938" lon="3.63626">
        <ele>903.59997558594</ele>
        <time>2022-06-29T09:40:31.000Z</time>
      </trkpt>
      <trkpt lat="44.32938" lon="3.63625">
        <ele>903.79998779297</ele>
        <time>2022-06-29T09:40:37.000Z</time>
      </trkpt>
      <trkpt lat="44.32938" lon="3.63624">
        <ele>903.59997558594</ele>
        <time>2022-06-29T09:40:40.000Z</time>
      </trkpt>
      <trkpt lat="44.32938" lon="3.63624">
        <ele>903.59997558594</ele>
        <time>2022-06-29T09:40:42.000Z</time>
      </trkpt>
      <trkpt lat="44.32939" lon="3.63623">
        <ele>903.40002441406</ele>
        <time>2022-06-29T09:40:48.000Z</time>
      </trkpt>
      <trkpt lat="44.32939" lon="3.63622">
        <ele>903.20001220703</ele>
        <time>2022-06-29T09:40:51.000Z</time>
      </trkpt>
      <trkpt lat="44.32937" lon="3.63622">
        <ele>903</ele>
        <time>2022-06-29T09:40:55.000Z</time>
      </trkpt>
      <trkpt lat="44.32937" lon="3.63621">
        <ele>903</ele>
        <time>2022-06-29T09:41:00.000Z</time>
      </trkpt>
      <trkpt lat="44.32937" lon="3.63621">
        <ele>903.20001220703</ele>
        <time>2022-06-29T09:41:03.000Z</time>
      </trkpt>
      <trkpt lat="44.32937" lon="3.63621">
        <ele>903.20001220703</ele>
        <time>2022-06-29T09:41:05.000Z</time>
      </trkpt>
      <trkpt lat="44.32937" lon="3.63621">
        <ele>903.40002441406</ele>
        <time>2022-06-29T09:41:07.000Z</time>
      </trkpt>
      <trkpt lat="44.32937" lon="3.63621">
        <ele>903.40002441406</ele>
        <time>2022-06-29T09:41:09.000Z</time>
      </trkpt>
      <trkpt lat="44.32936" lon="3.63622">
        <ele>903.40002441406</ele>
        <time>2022-06-29T09:41:14.000Z</time>
      </trkpt>
      <trkpt lat="44.32935" lon="3.63622">
        <ele>903.40002441406</ele>
        <time>2022-06-29T09:41:20.000Z</time>
      </trkpt>
      <trkpt lat="44.32936" lon="3.63623">
        <ele>903.40002441406</ele>
        <time>2022-06-29T09:41:26.000Z</time>
      </trkpt>
      <trkpt lat="44.32936" lon="3.63622">
        <ele>903.40002441406</ele>
        <time>2022-06-29T09:41:28.000Z</time>
      </trkpt>
      <trkpt lat="44.32936" lon="3.63622">
        <ele>903.40002441406</ele>
        <time>2022-06-29T09:41:29.000Z</time>
      </trkpt>
      <trkpt lat="44.32936" lon="3.63622">
        <ele>903.40002441406</ele>
        <time>2022-06-29T09:41:35.000Z</time>
      </trkpt>
      <trkpt lat="44.32937" lon="3.63622">
        <ele>903.40002441406</ele>
        <time>2022-06-29T09:41:41.000Z</time>
      </trkpt>
      <trkpt lat="44.32939" lon="3.63623">
        <ele>903.40002441406</ele>
        <time>2022-06-29T09:41:44.000Z</time>
      </trkpt>
      <trkpt lat="44.3294" lon="3.63625">
        <ele>903.40002441406</ele>
        <time>2022-06-29T09:41:50.000Z</time>
      </trkpt>
      <trkpt lat="44.32942" lon="3.63626">
        <ele>903.40002441406</ele>
        <time>2022-06-29T09:41:56.000Z</time>
      </trkpt>
      <trkpt lat="44.32944" lon="3.63623">
        <ele>903.40002441406</ele>
        <time>2022-06-29T09:42:02.000Z</time>
      </trkpt>
      <trkpt lat="44.32944" lon="3.63622">
        <ele>903.40002441406</ele>
        <time>2022-06-29T09:42:06.000Z</time>
      </trkpt>
      <trkpt lat="44.32944" lon="3.6362">
        <ele>903.40002441406</ele>
        <time>2022-06-29T09:42:12.000Z</time>
      </trkpt>
      <trkpt lat="44.32942" lon="3.63621">
        <ele>903.40002441406</ele>
        <time>2022-06-29T09:42:18.000Z</time>
      </trkpt>
      <trkpt lat="44.32939" lon="3.63617">
        <ele>903.40002441406</ele>
        <time>2022-06-29T09:42:24.000Z</time>
      </trkpt>
      <trkpt lat="44.3294" lon="3.63617">
        <ele>903.40002441406</ele>
        <time>2022-06-29T09:42:30.000Z</time>
      </trkpt>
      <trkpt lat="44.32941" lon="3.63617">
        <ele>903.40002441406</ele>
        <time>2022-06-29T09:42:36.000Z</time>
      </trkpt>
      <trkpt lat="44.3294" lon="3.63617">
        <ele>903.40002441406</ele>
        <time>2022-06-29T09:42:42.000Z</time>
      </trkpt>
      <trkpt lat="44.3294" lon="3.63617">
        <ele>903.40002441406</ele>
        <time>2022-06-29T09:42:43.000Z</time>
      </trkpt>
      <trkpt lat="44.3294" lon="3.63619">
        <ele>903.40002441406</ele>
        <time>2022-06-29T09:42:47.000Z</time>
      </trkpt>
      <trkpt lat="44.3294" lon="3.63619">
        <ele>903.40002441406</ele>
        <time>2022-06-29T09:42:53.000Z</time>
      </trkpt>
      <trkpt lat="44.32937" lon="3.63614">
        <ele>903.40002441406</ele>
        <time>2022-06-29T09:42:57.000Z</time>
      </trkpt>
      <trkpt lat="44.3294" lon="3.63614">
        <ele>903.40002441406</ele>
        <time>2022-06-29T09:43:03.000Z</time>
      </trkpt>
      <trkpt lat="44.3294" lon="3.63615">
        <ele>903.40002441406</ele>
        <time>2022-06-29T09:43:05.000Z</time>
      </trkpt>
      <trkpt lat="44.32941" lon="3.63615">
        <ele>903.40002441406</ele>
        <time>2022-06-29T09:43:07.000Z</time>
      </trkpt>
      <trkpt lat="44.3294" lon="3.63614">
        <ele>903.40002441406</ele>
        <time>2022-06-29T09:43:10.000Z</time>
      </trkpt>
      <trkpt lat="44.3294" lon="3.63614">
        <ele>903.40002441406</ele>
        <time>2022-06-29T09:43:16.000Z</time>
      </trkpt>
      <trkpt lat="44.32939" lon="3.63615">
        <ele>903.40002441406</ele>
        <time>2022-06-29T09:43:20.000Z</time>
      </trkpt>
      <trkpt lat="44.3294" lon="3.63615">
        <ele>903.40002441406</ele>
        <time>2022-06-29T09:43:21.000Z</time>
      </trkpt>
      <trkpt lat="44.3294" lon="3.63616">
        <ele>903.40002441406</ele>
        <time>2022-06-29T09:43:22.000Z</time>
      </trkpt>
      <trkpt lat="44.3294" lon="3.63618">
        <ele>903.40002441406</ele>
        <time>2022-06-29T09:43:28.000Z</time>
      </trkpt>
      <trkpt lat="44.3294" lon="3.63619">
        <ele>903.40002441406</ele>
        <time>2022-06-29T09:43:31.000Z</time>
      </trkpt>
      <trkpt lat="44.3294" lon="3.63621">
        <ele>903.40002441406</ele>
        <time>2022-06-29T09:43:35.000Z</time>
      </trkpt>
      <trkpt lat="44.32941" lon="3.63621">
        <ele>903.40002441406</ele>
        <time>2022-06-29T09:43:41.000Z</time>
      </trkpt>
      <trkpt lat="44.32939" lon="3.63619">
        <ele>903.40002441406</ele>
        <time>2022-06-29T09:43:46.000Z</time>
      </trkpt>
      <trkpt lat="44.32942" lon="3.63619">
        <ele>903.40002441406</ele>
        <time>2022-06-29T09:43:51.000Z</time>
      </trkpt>
      <trkpt lat="44.32941" lon="3.63619">
        <ele>903.40002441406</ele>
        <time>2022-06-29T09:43:54.000Z</time>
      </trkpt>
      <trkpt lat="44.32942" lon="3.63619">
        <ele>903.40002441406</ele>
        <time>2022-06-29T09:44:00.000Z</time>
      </trkpt>
      <trkpt lat="44.32942" lon="3.63618">
        <ele>903.40002441406</ele>
        <time>2022-06-29T09:44:03.000Z</time>
      </trkpt>
      <trkpt lat="44.32942" lon="3.63617">
        <ele>903.40002441406</ele>
        <time>2022-06-29T09:44:09.000Z</time>
      </trkpt>
      <trkpt lat="44.32942" lon="3.63617">
        <ele>903.40002441406</ele>
        <time>2022-06-29T09:44:10.000Z</time>
      </trkpt>
      <trkpt lat="44.32942" lon="3.63615">
        <ele>903.40002441406</ele>
        <time>2022-06-29T09:44:12.000Z</time>
      </trkpt>
      <trkpt lat="44.32941" lon="3.63612">
        <ele>903.40002441406</ele>
        <time>2022-06-29T09:44:18.000Z</time>
      </trkpt>
      <trkpt lat="44.32941" lon="3.63612">
        <ele>903.40002441406</ele>
        <time>2022-06-29T09:44:19.000Z</time>
      </trkpt>
      <trkpt lat="44.3294" lon="3.6361">
        <ele>903.40002441406</ele>
        <time>2022-06-29T09:44:25.000Z</time>
      </trkpt>
      <trkpt lat="44.32941" lon="3.63611">
        <ele>903.40002441406</ele>
        <time>2022-06-29T09:44:28.000Z</time>
      </trkpt>
      <trkpt lat="44.32941" lon="3.63611">
        <ele>903.40002441406</ele>
        <time>2022-06-29T09:44:34.000Z</time>
      </trkpt>
      <trkpt lat="44.32941" lon="3.63611">
        <ele>903.40002441406</ele>
        <time>2022-06-29T09:44:36.000Z</time>
      </trkpt>
      <trkpt lat="44.3294" lon="3.63612">
        <ele>903.40002441406</ele>
        <time>2022-06-29T09:44:38.000Z</time>
      </trkpt>
      <trkpt lat="44.3294" lon="3.63612">
        <ele>903.40002441406</ele>
        <time>2022-06-29T09:44:44.000Z</time>
      </trkpt>
      <trkpt lat="44.32941" lon="3.63612">
        <ele>903.40002441406</ele>
        <time>2022-06-29T09:44:47.000Z</time>
      </trkpt>
      <trkpt lat="44.32941" lon="3.63612">
        <ele>903.40002441406</ele>
        <time>2022-06-29T09:44:51.000Z</time>
      </trkpt>
      <trkpt lat="44.32941" lon="3.63612">
        <ele>903.40002441406</ele>
        <time>2022-06-29T09:44:57.000Z</time>
      </trkpt>
      <trkpt lat="44.3294" lon="3.63614">
        <ele>903.40002441406</ele>
        <time>2022-06-29T09:45:03.000Z</time>
      </trkpt>
      <trkpt lat="44.3294" lon="3.63614">
        <ele>903.40002441406</ele>
        <time>2022-06-29T09:45:04.000Z</time>
      </trkpt>
      <trkpt lat="44.32939" lon="3.63615">
        <ele>903.40002441406</ele>
        <time>2022-06-29T09:45:10.000Z</time>
      </trkpt>
      <trkpt lat="44.32938" lon="3.63617">
        <ele>903.40002441406</ele>
        <time>2022-06-29T09:45:15.000Z</time>
      </trkpt>
      <trkpt lat="44.32937" lon="3.63619">
        <ele>903.40002441406</ele>
        <time>2022-06-29T09:45:19.000Z</time>
      </trkpt>
      <trkpt lat="44.32936" lon="3.6362">
        <ele>903.40002441406</ele>
        <time>2022-06-29T09:45:21.000Z</time>
      </trkpt>
      <trkpt lat="44.32935" lon="3.63621">
        <ele>903.40002441406</ele>
        <time>2022-06-29T09:45:25.000Z</time>
      </trkpt>
      <trkpt lat="44.32933" lon="3.63622">
        <ele>903.40002441406</ele>
        <time>2022-06-29T09:45:31.000Z</time>
      </trkpt>
      <trkpt lat="44.32934" lon="3.63624">
        <ele>903.40002441406</ele>
        <time>2022-06-29T09:45:37.000Z</time>
      </trkpt>
      <trkpt lat="44.32935" lon="3.63625">
        <ele>903.40002441406</ele>
        <time>2022-06-29T09:45:41.000Z</time>
      </trkpt>
      <trkpt lat="44.32939" lon="3.63627">
        <ele>903.40002441406</ele>
        <time>2022-06-29T09:45:47.000Z</time>
      </trkpt>
      <trkpt lat="44.32942" lon="3.63626">
        <ele>903.40002441406</ele>
        <time>2022-06-29T09:45:52.000Z</time>
      </trkpt>
      <trkpt lat="44.32943" lon="3.63625">
        <ele>903.40002441406</ele>
        <time>2022-06-29T09:45:58.000Z</time>
      </trkpt>
      <trkpt lat="44.32947" lon="3.63626">
        <ele>903.40002441406</ele>
        <time>2022-06-29T09:46:04.000Z</time>
      </trkpt>
      <trkpt lat="44.32949" lon="3.63627">
        <ele>903.40002441406</ele>
        <time>2022-06-29T09:46:08.000Z</time>
      </trkpt>
      <trkpt lat="44.32953" lon="3.63628">
        <ele>903.40002441406</ele>
        <time>2022-06-29T09:46:14.000Z</time>
      </trkpt>
      <trkpt lat="44.32954" lon="3.63629">
        <ele>903.40002441406</ele>
        <time>2022-06-29T09:46:20.000Z</time>
      </trkpt>
      <trkpt lat="44.32951" lon="3.63626">
        <ele>903.40002441406</ele>
        <time>2022-06-29T09:46:24.000Z</time>
      </trkpt>
      <trkpt lat="44.32952" lon="3.63628">
        <ele>903.40002441406</ele>
        <time>2022-06-29T09:46:30.000Z</time>
      </trkpt>
      <trkpt lat="44.3295" lon="3.6363">
        <ele>903.40002441406</ele>
        <time>2022-06-29T09:46:35.000Z</time>
      </trkpt>
      <trkpt lat="44.3295" lon="3.63631">
        <ele>903.40002441406</ele>
        <time>2022-06-29T09:46:36.000Z</time>
      </trkpt>
      <trkpt lat="44.3295" lon="3.6363">
        <ele>903.40002441406</ele>
        <time>2022-06-29T09:46:37.000Z</time>
      </trkpt>
      <trkpt lat="44.32949" lon="3.63629">
        <ele>903.40002441406</ele>
        <time>2022-06-29T09:46:39.000Z</time>
      </trkpt>
      <trkpt lat="44.32949" lon="3.63629">
        <ele>903.40002441406</ele>
        <time>2022-06-29T09:46:41.000Z</time>
      </trkpt>
      <trkpt lat="44.32949" lon="3.63629">
        <ele>903.40002441406</ele>
        <time>2022-06-29T09:46:44.000Z</time>
      </trkpt>
      <trkpt lat="44.32949" lon="3.63627">
        <ele>903.40002441406</ele>
        <time>2022-06-29T09:46:50.000Z</time>
      </trkpt>
      <trkpt lat="44.32945" lon="3.63622">
        <ele>903.40002441406</ele>
        <time>2022-06-29T09:46:56.000Z</time>
      </trkpt>
      <trkpt lat="44.32945" lon="3.63622">
        <ele>903.40002441406</ele>
        <time>2022-06-29T09:46:57.000Z</time>
      </trkpt>
      <trkpt lat="44.32943" lon="3.6362">
        <ele>903.40002441406</ele>
        <time>2022-06-29T09:47:02.000Z</time>
      </trkpt>
      <trkpt lat="44.32941" lon="3.6362">
        <ele>903.40002441406</ele>
        <time>2022-06-29T09:47:08.000Z</time>
      </trkpt>
      <trkpt lat="44.32939" lon="3.6362">
        <ele>898.59997558594</ele>
        <time>2022-06-29T09:47:12.000Z</time>
      </trkpt>
      <trkpt lat="44.32936" lon="3.63621">
        <ele>898.79998779297</ele>
        <time>2022-06-29T09:47:16.000Z</time>
      </trkpt>
      <trkpt lat="44.32936" lon="3.63621">
        <ele>898.59997558594</ele>
        <time>2022-06-29T09:47:22.000Z</time>
      </trkpt>
      <trkpt lat="44.32936" lon="3.63622">
        <ele>898.59997558594</ele>
        <time>2022-06-29T09:47:28.000Z</time>
      </trkpt>
      <trkpt lat="44.32937" lon="3.63623">
        <ele>898.79998779297</ele>
        <time>2022-06-29T09:47:30.000Z</time>
      </trkpt>
      <trkpt lat="44.32937" lon="3.63624">
        <ele>898.40002441406</ele>
        <time>2022-06-29T09:47:36.000Z</time>
      </trkpt>
      <trkpt lat="44.32937" lon="3.63623">
        <ele>898.59997558594</ele>
        <time>2022-06-29T09:47:42.000Z</time>
      </trkpt>
      <trkpt lat="44.32936" lon="3.63622">
        <ele>898.59997558594</ele>
        <time>2022-06-29T09:47:48.000Z</time>
      </trkpt>
      <trkpt lat="44.32935" lon="3.63623">
        <ele>898.59997558594</ele>
        <time>2022-06-29T09:47:50.000Z</time>
      </trkpt>
      <trkpt lat="44.32935" lon="3.63623">
        <ele>898.40002441406</ele>
        <time>2022-06-29T09:47:54.000Z</time>
      </trkpt>
      <trkpt lat="44.32937" lon="3.63623">
        <ele>898.40002441406</ele>
        <time>2022-06-29T09:47:57.000Z</time>
      </trkpt>
      <trkpt lat="44.32939" lon="3.63624">
        <ele>898.40002441406</ele>
        <time>2022-06-29T09:48:03.000Z</time>
      </trkpt>
      <trkpt lat="44.32939" lon="3.63625">
        <ele>898.40002441406</ele>
        <time>2022-06-29T09:48:06.000Z</time>
      </trkpt>
      <trkpt lat="44.32939" lon="3.63627">
        <ele>898.20001220703</ele>
        <time>2022-06-29T09:48:12.000Z</time>
      </trkpt>
      <trkpt lat="44.32938" lon="3.63625">
        <ele>898.20001220703</ele>
        <time>2022-06-29T09:48:18.000Z</time>
      </trkpt>
      <trkpt lat="44.32936" lon="3.63625">
        <ele>898.20001220703</ele>
        <time>2022-06-29T09:48:22.000Z</time>
      </trkpt>
      <trkpt lat="44.3294" lon="3.63625">
        <ele>898.20001220703</ele>
        <time>2022-06-29T09:48:28.000Z</time>
      </trkpt>
      <trkpt lat="44.32946" lon="3.63627">
        <ele>898.20001220703</ele>
        <time>2022-06-29T09:48:34.000Z</time>
      </trkpt>
      <trkpt lat="44.32947" lon="3.63627">
        <ele>898.20001220703</ele>
        <time>2022-06-29T09:48:38.000Z</time>
      </trkpt>
      <trkpt lat="44.32948" lon="3.63628">
        <ele>898</ele>
        <time>2022-06-29T09:48:44.000Z</time>
      </trkpt>
      <trkpt lat="44.32948" lon="3.63628">
        <ele>898.20001220703</ele>
        <time>2022-06-29T09:48:50.000Z</time>
      </trkpt>
      <trkpt lat="44.32949" lon="3.63628">
        <ele>898</ele>
        <time>2022-06-29T09:48:55.000Z</time>
      </trkpt>
      <trkpt lat="44.32949" lon="3.63626">
        <ele>897.79998779297</ele>
        <time>2022-06-29T09:48:57.000Z</time>
      </trkpt>
      <trkpt lat="44.32951" lon="3.6362">
        <ele>898</ele>
        <time>2022-06-29T09:49:03.000Z</time>
      </trkpt>
      <trkpt lat="44.32953" lon="3.63619">
        <ele>898</ele>
        <time>2022-06-29T09:49:07.000Z</time>
      </trkpt>
      <trkpt lat="44.32953" lon="3.63618">
        <ele>897.79998779297</ele>
        <time>2022-06-29T09:49:11.000Z</time>
      </trkpt>
      <trkpt lat="44.32953" lon="3.63618">
        <ele>897.79998779297</ele>
        <time>2022-06-29T09:49:15.000Z</time>
      </trkpt>
      <trkpt lat="44.32954" lon="3.6362">
        <ele>897.79998779297</ele>
        <time>2022-06-29T09:49:21.000Z</time>
      </trkpt>
      <trkpt lat="44.32953" lon="3.63622">
        <ele>897.79998779297</ele>
        <time>2022-06-29T09:49:27.000Z</time>
      </trkpt>
      <trkpt lat="44.32952" lon="3.63622">
        <ele>897.79998779297</ele>
        <time>2022-06-29T09:49:28.000Z</time>
      </trkpt>
      <trkpt lat="44.32952" lon="3.63623">
        <ele>897.79998779297</ele>
        <time>2022-06-29T09:49:34.000Z</time>
      </trkpt>
      <trkpt lat="44.32952" lon="3.63624">
        <ele>897.79998779297</ele>
        <time>2022-06-29T09:49:40.000Z</time>
      </trkpt>
      <trkpt lat="44.32952" lon="3.63626">
        <ele>897.79998779297</ele>
        <time>2022-06-29T09:49:46.000Z</time>
      </trkpt>
      <trkpt lat="44.32952" lon="3.63626">
        <ele>897.79998779297</ele>
        <time>2022-06-29T09:49:47.000Z</time>
      </trkpt>
      <trkpt lat="44.3295" lon="3.63626">
        <ele>897.79998779297</ele>
        <time>2022-06-29T09:49:53.000Z</time>
      </trkpt>
      <trkpt lat="44.32948" lon="3.63626">
        <ele>897.79998779297</ele>
        <time>2022-06-29T09:49:59.000Z</time>
      </trkpt>
      <trkpt lat="44.32946" lon="3.63626">
        <ele>897.79998779297</ele>
        <time>2022-06-29T09:50:03.000Z</time>
      </trkpt>
      <trkpt lat="44.32941" lon="3.63621">
        <ele>897.79998779297</ele>
        <time>2022-06-29T09:50:09.000Z</time>
      </trkpt>
      <trkpt lat="44.32936" lon="3.63617">
        <ele>897.79998779297</ele>
        <time>2022-06-29T09:50:15.000Z</time>
      </trkpt>
      <trkpt lat="44.32935" lon="3.63616">
        <ele>897.79998779297</ele>
        <time>2022-06-29T09:50:20.000Z</time>
      </trkpt>
      <trkpt lat="44.32935" lon="3.63616">
        <ele>897.79998779297</ele>
        <time>2022-06-29T09:50:26.000Z</time>
      </trkpt>
      <trkpt lat="44.32935" lon="3.63616">
        <ele>897.79998779297</ele>
        <time>2022-06-29T09:50:32.000Z</time>
      </trkpt>
      <trkpt lat="44.32935" lon="3.63616">
        <ele>897.79998779297</ele>
        <time>2022-06-29T09:50:34.000Z</time>
      </trkpt>
      <trkpt lat="44.32934" lon="3.63615">
        <ele>897.79998779297</ele>
        <time>2022-06-29T09:50:38.000Z</time>
      </trkpt>
      <trkpt lat="44.32934" lon="3.63615">
        <ele>897.79998779297</ele>
        <time>2022-06-29T09:50:43.000Z</time>
      </trkpt>
      <trkpt lat="44.32936" lon="3.63614">
        <ele>897.79998779297</ele>
        <time>2022-06-29T09:50:49.000Z</time>
      </trkpt>
      <trkpt lat="44.32938" lon="3.63614">
        <ele>897.79998779297</ele>
        <time>2022-06-29T09:50:51.000Z</time>
      </trkpt>
      <trkpt lat="44.32939" lon="3.63614">
        <ele>897.79998779297</ele>
        <time>2022-06-29T09:50:57.000Z</time>
      </trkpt>
      <trkpt lat="44.3294" lon="3.63615">
        <ele>897.79998779297</ele>
        <time>2022-06-29T09:51:03.000Z</time>
      </trkpt>
      <trkpt lat="44.3294" lon="3.63614">
        <ele>897.79998779297</ele>
        <time>2022-06-29T09:51:05.000Z</time>
      </trkpt>
      <trkpt lat="44.32941" lon="3.63614">
        <ele>897.79998779297</ele>
        <time>2022-06-29T09:51:08.000Z</time>
      </trkpt>
      <trkpt lat="44.32943" lon="3.63614">
        <ele>897.79998779297</ele>
        <time>2022-06-29T09:51:11.000Z</time>
      </trkpt>
      <trkpt lat="44.32944" lon="3.63614">
        <ele>897.79998779297</ele>
        <time>2022-06-29T09:51:15.000Z</time>
      </trkpt>
      <trkpt lat="44.32944" lon="3.63615">
        <ele>897.79998779297</ele>
        <time>2022-06-29T09:51:21.000Z</time>
      </trkpt>
      <trkpt lat="44.32942" lon="3.63614">
        <ele>897.79998779297</ele>
        <time>2022-06-29T09:51:27.000Z</time>
      </trkpt>
      <trkpt lat="44.32942" lon="3.63613">
        <ele>897.79998779297</ele>
        <time>2022-06-29T09:51:28.000Z</time>
      </trkpt>
      <trkpt lat="44.32943" lon="3.63615">
        <ele>897.79998779297</ele>
        <time>2022-06-29T09:51:34.000Z</time>
      </trkpt>
      <trkpt lat="44.32942" lon="3.63618">
        <ele>897.79998779297</ele>
        <time>2022-06-29T09:51:40.000Z</time>
      </trkpt>
      <trkpt lat="44.32937" lon="3.63615">
        <ele>897.79998779297</ele>
        <time>2022-06-29T09:51:46.000Z</time>
      </trkpt>
      <trkpt lat="44.32933" lon="3.63618">
        <ele>897.79998779297</ele>
        <time>2022-06-29T09:51:52.000Z</time>
      </trkpt>
      <trkpt lat="44.32933" lon="3.63622">
        <ele>897.79998779297</ele>
        <time>2022-06-29T09:51:56.000Z</time>
      </trkpt>
      <trkpt lat="44.32931" lon="3.63622">
        <ele>897.79998779297</ele>
        <time>2022-06-29T09:52:02.000Z</time>
      </trkpt>
      <trkpt lat="44.32931" lon="3.63622">
        <ele>897.79998779297</ele>
        <time>2022-06-29T09:52:03.000Z</time>
      </trkpt>
      <trkpt lat="44.3293" lon="3.63621">
        <ele>897.79998779297</ele>
        <time>2022-06-29T09:52:09.000Z</time>
      </trkpt>
      <trkpt lat="44.32929" lon="3.6362">
        <ele>897.79998779297</ele>
        <time>2022-06-29T09:52:15.000Z</time>
      </trkpt>
      <trkpt lat="44.32929" lon="3.63618">
        <ele>897.79998779297</ele>
        <time>2022-06-29T09:52:21.000Z</time>
      </trkpt>
      <trkpt lat="44.32929" lon="3.63618">
        <ele>897.79998779297</ele>
        <time>2022-06-29T09:52:27.000Z</time>
      </trkpt>
      <trkpt lat="44.32929" lon="3.63619">
        <ele>897.79998779297</ele>
        <time>2022-06-29T09:52:33.000Z</time>
      </trkpt>
      <trkpt lat="44.32932" lon="3.63618">
        <ele>897.79998779297</ele>
        <time>2022-06-29T09:52:36.000Z</time>
      </trkpt>
      <trkpt lat="44.32933" lon="3.63617">
        <ele>897.79998779297</ele>
        <time>2022-06-29T09:52:42.000Z</time>
      </trkpt>
      <trkpt lat="44.32935" lon="3.63618">
        <ele>897.79998779297</ele>
        <time>2022-06-29T09:52:48.000Z</time>
      </trkpt>
      <trkpt lat="44.32936" lon="3.63619">
        <ele>897.79998779297</ele>
        <time>2022-06-29T09:52:52.000Z</time>
      </trkpt>
      <trkpt lat="44.32938" lon="3.63621">
        <ele>897.79998779297</ele>
        <time>2022-06-29T09:52:58.000Z</time>
      </trkpt>
      <trkpt lat="44.32937" lon="3.6362">
        <ele>897.79998779297</ele>
        <time>2022-06-29T09:53:04.000Z</time>
      </trkpt>
      <trkpt lat="44.32937" lon="3.63619">
        <ele>897.79998779297</ele>
        <time>2022-06-29T09:53:08.000Z</time>
      </trkpt>
      <trkpt lat="44.32939" lon="3.63619">
        <ele>897.79998779297</ele>
        <time>2022-06-29T09:53:14.000Z</time>
      </trkpt>
      <trkpt lat="44.32942" lon="3.63619">
        <ele>897.79998779297</ele>
        <time>2022-06-29T09:53:17.000Z</time>
      </trkpt>
      <trkpt lat="44.32944" lon="3.63619">
        <ele>897.79998779297</ele>
        <time>2022-06-29T09:53:20.000Z</time>
      </trkpt>
      <trkpt lat="44.32945" lon="3.63619">
        <ele>897.79998779297</ele>
        <time>2022-06-29T09:53:22.000Z</time>
      </trkpt>
      <trkpt lat="44.32946" lon="3.6362">
        <ele>897.79998779297</ele>
        <time>2022-06-29T09:53:25.000Z</time>
      </trkpt>
      <trkpt lat="44.32946" lon="3.6362">
        <ele>897.79998779297</ele>
        <time>2022-06-29T09:53:31.000Z</time>
      </trkpt>
      <trkpt lat="44.32946" lon="3.63621">
        <ele>897.79998779297</ele>
        <time>2022-06-29T09:53:37.000Z</time>
      </trkpt>
      <trkpt lat="44.32945" lon="3.63621">
        <ele>897.79998779297</ele>
        <time>2022-06-29T09:53:43.000Z</time>
      </trkpt>
      <trkpt lat="44.32942" lon="3.63617">
        <ele>897.79998779297</ele>
        <time>2022-06-29T09:53:49.000Z</time>
      </trkpt>
      <trkpt lat="44.32939" lon="3.63613">
        <ele>897.79998779297</ele>
        <time>2022-06-29T09:53:55.000Z</time>
      </trkpt>
      <trkpt lat="44.3294" lon="3.63612">
        <ele>897.79998779297</ele>
        <time>2022-06-29T09:53:59.000Z</time>
      </trkpt>
      <trkpt lat="44.3294" lon="3.63612">
        <ele>897.79998779297</ele>
        <time>2022-06-29T09:54:02.000Z</time>
      </trkpt>
      <trkpt lat="44.3294" lon="3.63609">
        <ele>897.79998779297</ele>
        <time>2022-06-29T09:54:08.000Z</time>
      </trkpt>
      <trkpt lat="44.3294" lon="3.63609">
        <ele>897.79998779297</ele>
        <time>2022-06-29T09:54:14.000Z</time>
      </trkpt>
      <trkpt lat="44.32941" lon="3.6361">
        <ele>897.79998779297</ele>
        <time>2022-06-29T09:54:20.000Z</time>
      </trkpt>
      <trkpt lat="44.32941" lon="3.63609">
        <ele>897.79998779297</ele>
        <time>2022-06-29T09:54:21.000Z</time>
      </trkpt>
      <trkpt lat="44.3294" lon="3.63608">
        <ele>897.79998779297</ele>
        <time>2022-06-29T09:54:27.000Z</time>
      </trkpt>
      <trkpt lat="44.32942" lon="3.6361">
        <ele>897.79998779297</ele>
        <time>2022-06-29T09:54:33.000Z</time>
      </trkpt>
      <trkpt lat="44.32943" lon="3.63611">
        <ele>897.79998779297</ele>
        <time>2022-06-29T09:54:38.000Z</time>
      </trkpt>
      <trkpt lat="44.32942" lon="3.63611">
        <ele>897.79998779297</ele>
        <time>2022-06-29T09:54:44.000Z</time>
      </trkpt>
      <trkpt lat="44.32942" lon="3.63608">
        <ele>897.79998779297</ele>
        <time>2022-06-29T09:54:50.000Z</time>
      </trkpt>
      <trkpt lat="44.3294" lon="3.63608">
        <ele>897.79998779297</ele>
        <time>2022-06-29T09:54:56.000Z</time>
      </trkpt>
      <trkpt lat="44.32937" lon="3.63611">
        <ele>897.79998779297</ele>
        <time>2022-06-29T09:55:02.000Z</time>
      </trkpt>
      <trkpt lat="44.32939" lon="3.63615">
        <ele>897.79998779297</ele>
        <time>2022-06-29T09:55:08.000Z</time>
      </trkpt>
      <trkpt lat="44.3294" lon="3.63616">
        <ele>897.79998779297</ele>
        <time>2022-06-29T09:55:10.000Z</time>
      </trkpt>
      <trkpt lat="44.32942" lon="3.6362">
        <ele>897.79998779297</ele>
        <time>2022-06-29T09:55:16.000Z</time>
      </trkpt>
      <trkpt lat="44.32941" lon="3.63621">
        <ele>897.79998779297</ele>
        <time>2022-06-29T09:55:22.000Z</time>
      </trkpt>
      <trkpt lat="44.32939" lon="3.63623">
        <ele>897.79998779297</ele>
        <time>2022-06-29T09:55:27.000Z</time>
      </trkpt>
      <trkpt lat="44.32938" lon="3.63625">
        <ele>897.79998779297</ele>
        <time>2022-06-29T09:55:33.000Z</time>
      </trkpt>
      <trkpt lat="44.32943" lon="3.63627">
        <ele>897.79998779297</ele>
        <time>2022-06-29T09:55:36.000Z</time>
      </trkpt>
      <trkpt lat="44.32945" lon="3.63631">
        <ele>897.59997558594</ele>
        <time>2022-06-29T09:55:40.000Z</time>
      </trkpt>
      <trkpt lat="44.32946" lon="3.63632">
        <ele>896.20001220703</ele>
        <time>2022-06-29T09:55:42.000Z</time>
      </trkpt>
      <trkpt lat="44.32946" lon="3.63633">
        <ele>895.79998779297</ele>
        <time>2022-06-29T09:55:43.000Z</time>
      </trkpt>
      <trkpt lat="44.32948" lon="3.63636">
        <ele>895.40002441406</ele>
        <time>2022-06-29T09:55:49.000Z</time>
      </trkpt>
      <trkpt lat="44.32947" lon="3.63636">
        <ele>895.20001220703</ele>
        <time>2022-06-29T09:55:52.000Z</time>
      </trkpt>
      <trkpt lat="44.32949" lon="3.63638">
        <ele>895.20001220703</ele>
        <time>2022-06-29T09:55:57.000Z</time>
      </trkpt>
      <trkpt lat="44.3295" lon="3.63639">
        <ele>895.20001220703</ele>
        <time>2022-06-29T09:56:00.000Z</time>
      </trkpt>
      <trkpt lat="44.32948" lon="3.63637">
        <ele>895.20001220703</ele>
        <time>2022-06-29T09:56:04.000Z</time>
      </trkpt>
      <trkpt lat="44.32946" lon="3.63634">
        <ele>895.20001220703</ele>
        <time>2022-06-29T09:56:10.000Z</time>
      </trkpt>
      <trkpt lat="44.32946" lon="3.63633">
        <ele>895</ele>
        <time>2022-06-29T09:56:13.000Z</time>
      </trkpt>
      <trkpt lat="44.32947" lon="3.63634">
        <ele>895</ele>
        <time>2022-06-29T09:56:16.000Z</time>
      </trkpt>
      <trkpt lat="44.32946" lon="3.63635">
        <ele>895.20001220703</ele>
        <time>2022-06-29T09:56:22.000Z</time>
      </trkpt>
      <trkpt lat="44.32945" lon="3.63632">
        <ele>895.20001220703</ele>
        <time>2022-06-29T09:56:28.000Z</time>
      </trkpt>
      <trkpt lat="44.32946" lon="3.63628">
        <ele>895.20001220703</ele>
        <time>2022-06-29T09:56:31.000Z</time>
      </trkpt>
      <trkpt lat="44.32944" lon="3.63623">
        <ele>895.20001220703</ele>
        <time>2022-06-29T09:56:37.000Z</time>
      </trkpt>
      <trkpt lat="44.32942" lon="3.63621">
        <ele>895.59997558594</ele>
        <time>2022-06-29T09:56:42.000Z</time>
      </trkpt>
      <trkpt lat="44.32942" lon="3.6362">
        <ele>895.59997558594</ele>
        <time>2022-06-29T09:56:45.000Z</time>
      </trkpt>
      <trkpt lat="44.32943" lon="3.63621">
        <ele>895.59997558594</ele>
        <time>2022-06-29T09:56:50.000Z</time>
      </trkpt>
      <trkpt lat="44.32943" lon="3.63622">
        <ele>895.59997558594</ele>
        <time>2022-06-29T09:56:52.000Z</time>
      </trkpt>
      <trkpt lat="44.32942" lon="3.63622">
        <ele>895.59997558594</ele>
        <time>2022-06-29T09:56:54.000Z</time>
      </trkpt>
      <trkpt lat="44.32945" lon="3.63622">
        <ele>895.59997558594</ele>
        <time>2022-06-29T09:57:00.000Z</time>
      </trkpt>
      <trkpt lat="44.32945" lon="3.63622">
        <ele>895.59997558594</ele>
        <time>2022-06-29T09:57:01.000Z</time>
      </trkpt>
      <trkpt lat="44.32946" lon="3.63621">
        <ele>895.59997558594</ele>
        <time>2022-06-29T09:57:03.000Z</time>
      </trkpt>
      <trkpt lat="44.32946" lon="3.63621">
        <ele>895.59997558594</ele>
        <time>2022-06-29T09:57:04.000Z</time>
      </trkpt>
      <trkpt lat="44.32946" lon="3.63621">
        <ele>895.59997558594</ele>
        <time>2022-06-29T09:57:05.000Z</time>
      </trkpt>
      <trkpt lat="44.32946" lon="3.63621">
        <ele>895.59997558594</ele>
        <time>2022-06-29T09:57:06.000Z</time>
      </trkpt>
      <trkpt lat="44.32943" lon="3.63617">
        <ele>895.59997558594</ele>
        <time>2022-06-29T09:57:12.000Z</time>
      </trkpt>
      <trkpt lat="44.32943" lon="3.63618">
        <ele>895.59997558594</ele>
        <time>2022-06-29T09:57:18.000Z</time>
      </trkpt>
      <trkpt lat="44.32943" lon="3.63616">
        <ele>895.59997558594</ele>
        <time>2022-06-29T09:57:23.000Z</time>
      </trkpt>
      <trkpt lat="44.32941" lon="3.63615">
        <ele>895.59997558594</ele>
        <time>2022-06-29T09:57:29.000Z</time>
      </trkpt>
      <trkpt lat="44.3294" lon="3.63614">
        <ele>895.59997558594</ele>
        <time>2022-06-29T09:57:33.000Z</time>
      </trkpt>
      <trkpt lat="44.3294" lon="3.63613">
        <ele>895.59997558594</ele>
        <time>2022-06-29T09:57:39.000Z</time>
      </trkpt>
      <trkpt lat="44.3294" lon="3.63613">
        <ele>895.59997558594</ele>
        <time>2022-06-29T09:57:45.000Z</time>
      </trkpt>
      <trkpt lat="44.3294" lon="3.63613">
        <ele>895.59997558594</ele>
        <time>2022-06-29T09:57:47.000Z</time>
      </trkpt>
      <trkpt lat="44.32938" lon="3.63612">
        <ele>895.59997558594</ele>
        <time>2022-06-29T09:57:53.000Z</time>
      </trkpt>
      <trkpt lat="44.32937" lon="3.63612">
        <ele>895.59997558594</ele>
        <time>2022-06-29T09:58:22.000Z</time>
      </trkpt>
      <trkpt lat="44.32939" lon="3.63617">
        <ele>895.59997558594</ele>
        <time>2022-06-29T09:58:23.000Z</time>
      </trkpt>
      <trkpt lat="44.32939" lon="3.63617">
        <ele>895.59997558594</ele>
        <time>2022-06-29T09:58:25.000Z</time>
      </trkpt>
      <trkpt lat="44.32939" lon="3.6362">
        <ele>895.79998779297</ele>
        <time>2022-06-29T09:58:31.000Z</time>
      </trkpt>
      <trkpt lat="44.3294" lon="3.63622">
        <ele>895.79998779297</ele>
        <time>2022-06-29T09:58:32.000Z</time>
      </trkpt>
      <trkpt lat="44.3294" lon="3.63624">
        <ele>896</ele>
        <time>2022-06-29T09:58:37.000Z</time>
      </trkpt>
      <trkpt lat="44.3294" lon="3.63624">
        <ele>895.59997558594</ele>
        <time>2022-06-29T09:58:43.000Z</time>
      </trkpt>
      <trkpt lat="44.32942" lon="3.63624">
        <ele>895.40002441406</ele>
        <time>2022-06-29T09:58:48.000Z</time>
      </trkpt>
      <trkpt lat="44.32942" lon="3.63617">
        <ele>896</ele>
        <time>2022-06-29T09:58:54.000Z</time>
      </trkpt>
      <trkpt lat="44.32942" lon="3.63617">
        <ele>896</ele>
        <time>2022-06-29T09:58:55.000Z</time>
      </trkpt>
      <trkpt lat="44.32943" lon="3.63616">
        <ele>896</ele>
        <time>2022-06-29T09:58:57.000Z</time>
      </trkpt>
      <trkpt lat="44.32944" lon="3.63615">
        <ele>896</ele>
        <time>2022-06-29T09:59:03.000Z</time>
      </trkpt>
      <trkpt lat="44.32946" lon="3.63615">
        <ele>896</ele>
        <time>2022-06-29T09:59:09.000Z</time>
      </trkpt>
      <trkpt lat="44.32946" lon="3.63614">
        <ele>896.20001220703</ele>
        <time>2022-06-29T09:59:10.000Z</time>
      </trkpt>
      <trkpt lat="44.32946" lon="3.63614">
        <ele>896.20001220703</ele>
        <time>2022-06-29T09:59:12.000Z</time>
      </trkpt>
      <trkpt lat="44.32946" lon="3.63613">
        <ele>896.20001220703</ele>
        <time>2022-06-29T09:59:14.000Z</time>
      </trkpt>
      <trkpt lat="44.32945" lon="3.63613">
        <ele>896.20001220703</ele>
        <time>2022-06-29T09:59:17.000Z</time>
      </trkpt>
      <trkpt lat="44.32946" lon="3.63612">
        <ele>896</ele>
        <time>2022-06-29T09:59:23.000Z</time>
      </trkpt>
      <trkpt lat="44.32945" lon="3.63612">
        <ele>896</ele>
        <time>2022-06-29T09:59:26.000Z</time>
      </trkpt>
      <trkpt lat="44.32945" lon="3.63613">
        <ele>896</ele>
        <time>2022-06-29T09:59:29.000Z</time>
      </trkpt>
      <trkpt lat="44.32946" lon="3.63614">
        <ele>896.20001220703</ele>
        <time>2022-06-29T09:59:32.000Z</time>
      </trkpt>
      <trkpt lat="44.32944" lon="3.63617">
        <ele>896</ele>
        <time>2022-06-29T09:59:38.000Z</time>
      </trkpt>
      <trkpt lat="44.32942" lon="3.63618">
        <ele>896</ele>
        <time>2022-06-29T09:59:40.000Z</time>
      </trkpt>
      <trkpt lat="44.32941" lon="3.63617">
        <ele>896.59997558594</ele>
        <time>2022-06-29T09:59:46.000Z</time>
      </trkpt>
      <trkpt lat="44.3294" lon="3.63618">
        <ele>896.79998779297</ele>
        <time>2022-06-29T09:59:50.000Z</time>
      </trkpt>
      <trkpt lat="44.3294" lon="3.6362">
        <ele>898.59997558594</ele>
        <time>2022-06-29T09:59:52.000Z</time>
      </trkpt>
      <trkpt lat="44.3294" lon="3.6362">
        <ele>898.59997558594</ele>
        <time>2022-06-29T09:59:53.000Z</time>
      </trkpt>
      <trkpt lat="44.32939" lon="3.63622">
        <ele>898.59997558594</ele>
        <time>2022-06-29T09:59:55.000Z</time>
      </trkpt>
      <trkpt lat="44.32939" lon="3.63622">
        <ele>898.40002441406</ele>
        <time>2022-06-29T09:59:57.000Z</time>
      </trkpt>
      <trkpt lat="44.3294" lon="3.63623">
        <ele>898.40002441406</ele>
        <time>2022-06-29T09:59:58.000Z</time>
      </trkpt>
      <trkpt lat="44.32941" lon="3.63623">
        <ele>898.59997558594</ele>
        <time>2022-06-29T10:00:02.000Z</time>
      </trkpt>
      <trkpt lat="44.32941" lon="3.63623">
        <ele>898.40002441406</ele>
        <time>2022-06-29T10:00:08.000Z</time>
      </trkpt>
      <trkpt lat="44.32942" lon="3.63623">
        <ele>898.59997558594</ele>
        <time>2022-06-29T10:00:14.000Z</time>
      </trkpt>
      <trkpt lat="44.32942" lon="3.63623">
        <ele>898.59997558594</ele>
        <time>2022-06-29T10:00:17.000Z</time>
      </trkpt>
      <trkpt lat="44.32942" lon="3.63623">
        <ele>898.79998779297</ele>
        <time>2022-06-29T10:00:23.000Z</time>
      </trkpt>
      <trkpt lat="44.32942" lon="3.63623">
        <ele>898.79998779297</ele>
        <time>2022-06-29T10:00:24.000Z</time>
      </trkpt>
      <trkpt lat="44.32942" lon="3.63623">
        <ele>898.79998779297</ele>
        <time>2022-06-29T10:00:25.000Z</time>
      </trkpt>
      <trkpt lat="44.32942" lon="3.63624">
        <ele>898.79998779297</ele>
        <time>2022-06-29T10:00:29.000Z</time>
      </trkpt>
      <trkpt lat="44.32942" lon="3.63624">
        <ele>898.79998779297</ele>
        <time>2022-06-29T10:00:35.000Z</time>
      </trkpt>
      <trkpt lat="44.32942" lon="3.63625">
        <ele>899</ele>
        <time>2022-06-29T10:00:37.000Z</time>
      </trkpt>
      <trkpt lat="44.32942" lon="3.63627">
        <ele>897.59997558594</ele>
        <time>2022-06-29T10:00:42.000Z</time>
      </trkpt>
      <trkpt lat="44.32943" lon="3.63628">
        <ele>897.59997558594</ele>
        <time>2022-06-29T10:00:48.000Z</time>
      </trkpt>
      <trkpt lat="44.32944" lon="3.63629">
        <ele>897.59997558594</ele>
        <time>2022-06-29T10:00:54.000Z</time>
      </trkpt>
      <trkpt lat="44.32944" lon="3.63629">
        <ele>897.59997558594</ele>
        <time>2022-06-29T10:00:55.000Z</time>
      </trkpt>
      <trkpt lat="44.32944" lon="3.63629">
        <ele>897.59997558594</ele>
        <time>2022-06-29T10:00:57.000Z</time>
      </trkpt>
      <trkpt lat="44.32944" lon="3.63627">
        <ele>897.79998779297</ele>
        <time>2022-06-29T10:01:03.000Z</time>
      </trkpt>
      <trkpt lat="44.32944" lon="3.63628">
        <ele>897.79998779297</ele>
        <time>2022-06-29T10:01:04.000Z</time>
      </trkpt>
      <trkpt lat="44.32945" lon="3.63628">
        <ele>897.59997558594</ele>
        <time>2022-06-29T10:01:10.000Z</time>
      </trkpt>
      <trkpt lat="44.32945" lon="3.63628">
        <ele>897.59997558594</ele>
        <time>2022-06-29T10:01:11.000Z</time>
      </trkpt>
      <trkpt lat="44.32945" lon="3.63627">
        <ele>897.40002441406</ele>
        <time>2022-06-29T10:01:13.000Z</time>
      </trkpt>
      <trkpt lat="44.32946" lon="3.63627">
        <ele>897.59997558594</ele>
        <time>2022-06-29T10:01:19.000Z</time>
      </trkpt>
      <trkpt lat="44.32947" lon="3.63627">
        <ele>897.79998779297</ele>
        <time>2022-06-29T10:01:21.000Z</time>
      </trkpt>
      <trkpt lat="44.32947" lon="3.63627">
        <ele>897.79998779297</ele>
        <time>2022-06-29T10:01:23.000Z</time>
      </trkpt>
      <trkpt lat="44.32948" lon="3.63626">
        <ele>898</ele>
        <time>2022-06-29T10:01:24.000Z</time>
      </trkpt>
      <trkpt lat="44.32948" lon="3.63626">
        <ele>898</ele>
        <time>2022-06-29T10:01:25.000Z</time>
      </trkpt>
      <trkpt lat="44.32948" lon="3.63624">
        <ele>898</ele>
        <time>2022-06-29T10:01:31.000Z</time>
      </trkpt>
      <trkpt lat="44.32951" lon="3.63624">
        <ele>898</ele>
        <time>2022-06-29T10:01:37.000Z</time>
      </trkpt>
      <trkpt lat="44.32951" lon="3.63624">
        <ele>898</ele>
        <time>2022-06-29T10:01:40.000Z</time>
      </trkpt>
      <trkpt lat="44.32951" lon="3.63624">
        <ele>898</ele>
        <time>2022-06-29T10:01:41.000Z</time>
      </trkpt>
      <trkpt lat="44.3295" lon="3.63624">
        <ele>897.79998779297</ele>
        <time>2022-06-29T10:01:47.000Z</time>
      </trkpt>
      <trkpt lat="44.32949" lon="3.63625">
        <ele>897.79998779297</ele>
        <time>2022-06-29T10:01:53.000Z</time>
      </trkpt>
      <trkpt lat="44.32947" lon="3.63626">
        <ele>897.79998779297</ele>
        <time>2022-06-29T10:01:58.000Z</time>
      </trkpt>
      <trkpt lat="44.32942" lon="3.63627">
        <ele>898</ele>
        <time>2022-06-29T10:02:04.000Z</time>
      </trkpt>
      <trkpt lat="44.32942" lon="3.63628">
        <ele>898.20001220703</ele>
        <time>2022-06-29T10:02:06.000Z</time>
      </trkpt>
      <trkpt lat="44.3294" lon="3.63628">
        <ele>898</ele>
        <time>2022-06-29T10:02:11.000Z</time>
      </trkpt>
      <trkpt lat="44.3294" lon="3.63628">
        <ele>898</ele>
        <time>2022-06-29T10:02:12.000Z</time>
      </trkpt>
      <trkpt lat="44.3294" lon="3.63628">
        <ele>898</ele>
        <time>2022-06-29T10:02:13.000Z</time>
      </trkpt>
      <trkpt lat="44.3294" lon="3.63628">
        <ele>898</ele>
        <time>2022-06-29T10:02:14.000Z</time>
      </trkpt>
      <trkpt lat="44.3294" lon="3.63627">
        <ele>897.79998779297</ele>
        <time>2022-06-29T10:02:20.000Z</time>
      </trkpt>
      <trkpt lat="44.3294" lon="3.63627">
        <ele>898</ele>
        <time>2022-06-29T10:02:22.000Z</time>
      </trkpt>
      <trkpt lat="44.3294" lon="3.63627">
        <ele>898</ele>
        <time>2022-06-29T10:02:23.000Z</time>
      </trkpt>
      <trkpt lat="44.3294" lon="3.63627">
        <ele>898</ele>
        <time>2022-06-29T10:02:25.000Z</time>
      </trkpt>
      <trkpt lat="44.3294" lon="3.63627">
        <ele>898</ele>
        <time>2022-06-29T10:02:28.000Z</time>
      </trkpt>
      <trkpt lat="44.32941" lon="3.63626">
        <ele>898.20001220703</ele>
        <time>2022-06-29T10:02:32.000Z</time>
      </trkpt>
      <trkpt lat="44.32941" lon="3.63624">
        <ele>898.40002441406</ele>
        <time>2022-06-29T10:02:38.000Z</time>
      </trkpt>
      <trkpt lat="44.32941" lon="3.63622">
        <ele>898.79998779297</ele>
        <time>2022-06-29T10:02:43.000Z</time>
      </trkpt>
      <trkpt lat="44.32941" lon="3.63621">
        <ele>898.59997558594</ele>
        <time>2022-06-29T10:02:45.000Z</time>
      </trkpt>
      <trkpt lat="44.32939" lon="3.63616">
        <ele>899.59997558594</ele>
        <time>2022-06-29T10:02:51.000Z</time>
      </trkpt>
      <trkpt lat="44.32938" lon="3.63614">
        <ele>899</ele>
        <time>2022-06-29T10:02:57.000Z</time>
      </trkpt>
      <trkpt lat="44.32938" lon="3.63614">
        <ele>898.79998779297</ele>
        <time>2022-06-29T10:03:01.000Z</time>
      </trkpt>
      <trkpt lat="44.32937" lon="3.63615">
        <ele>898.79998779297</ele>
        <time>2022-06-29T10:03:07.000Z</time>
      </trkpt>
      <trkpt lat="44.32938" lon="3.63615">
        <ele>898.79998779297</ele>
        <time>2022-06-29T10:03:09.000Z</time>
      </trkpt>
      <trkpt lat="44.32937" lon="3.63616">
        <ele>898.79998779297</ele>
        <time>2022-06-29T10:03:11.000Z</time>
      </trkpt>
      <trkpt lat="44.32937" lon="3.63616">
        <ele>898.79998779297</ele>
        <time>2022-06-29T10:03:12.000Z</time>
      </trkpt>
      <trkpt lat="44.32938" lon="3.63621">
        <ele>898.59997558594</ele>
        <time>2022-06-29T10:03:16.000Z</time>
      </trkpt>
      <trkpt lat="44.32938" lon="3.63621">
        <ele>898.79998779297</ele>
        <time>2022-06-29T10:03:17.000Z</time>
      </trkpt>
      <trkpt lat="44.32938" lon="3.63623">
        <ele>898.20001220703</ele>
        <time>2022-06-29T10:03:23.000Z</time>
      </trkpt>
      <trkpt lat="44.32938" lon="3.63624">
        <ele>898.40002441406</ele>
        <time>2022-06-29T10:03:28.000Z</time>
      </trkpt>
      <trkpt lat="44.32939" lon="3.63626">
        <ele>898.40002441406</ele>
        <time>2022-06-29T10:03:32.000Z</time>
      </trkpt>
      <trkpt lat="44.32939" lon="3.63626">
        <ele>898.59997558594</ele>
        <time>2022-06-29T10:03:35.000Z</time>
      </trkpt>
      <trkpt lat="44.3294" lon="3.63625">
        <ele>898.59997558594</ele>
        <time>2022-06-29T10:03:40.000Z</time>
      </trkpt>
      <trkpt lat="44.32941" lon="3.63625">
        <ele>898.59997558594</ele>
        <time>2022-06-29T10:03:42.000Z</time>
      </trkpt>
      <trkpt lat="44.32941" lon="3.63624">
        <ele>898.59997558594</ele>
        <time>2022-06-29T10:03:44.000Z</time>
      </trkpt>
      <trkpt lat="44.32941" lon="3.63624">
        <ele>898.59997558594</ele>
        <time>2022-06-29T10:03:50.000Z</time>
      </trkpt>
      <trkpt lat="44.32941" lon="3.63624">
        <ele>898.59997558594</ele>
        <time>2022-06-29T10:03:51.000Z</time>
      </trkpt>
      <trkpt lat="44.32941" lon="3.63626">
        <ele>898.59997558594</ele>
        <time>2022-06-29T10:03:57.000Z</time>
      </trkpt>
      <trkpt lat="44.32941" lon="3.63626">
        <ele>898.59997558594</ele>
        <time>2022-06-29T10:03:58.000Z</time>
      </trkpt>
      <trkpt lat="44.32942" lon="3.63627">
        <ele>898.59997558594</ele>
        <time>2022-06-29T10:04:04.000Z</time>
      </trkpt>
      <trkpt lat="44.32942" lon="3.63627">
        <ele>898.59997558594</ele>
        <time>2022-06-29T10:04:09.000Z</time>
      </trkpt>
      <trkpt lat="44.32942" lon="3.63627">
        <ele>898.59997558594</ele>
        <time>2022-06-29T10:04:11.000Z</time>
      </trkpt>
      <trkpt lat="44.32942" lon="3.63627">
        <ele>898.59997558594</ele>
        <time>2022-06-29T10:04:14.000Z</time>
      </trkpt>
      <trkpt lat="44.32941" lon="3.63626">
        <ele>898.59997558594</ele>
        <time>2022-06-29T10:04:20.000Z</time>
      </trkpt>
      <trkpt lat="44.32941" lon="3.63626">
        <ele>898.59997558594</ele>
        <time>2022-06-29T10:04:22.000Z</time>
      </trkpt>
      <trkpt lat="44.32941" lon="3.63626">
        <ele>898.59997558594</ele>
        <time>2022-06-29T10:04:23.000Z</time>
      </trkpt>
      <trkpt lat="44.3294" lon="3.63626">
        <ele>898.59997558594</ele>
        <time>2022-06-29T10:04:27.000Z</time>
      </trkpt>
      <trkpt lat="44.3294" lon="3.63627">
        <ele>898.59997558594</ele>
        <time>2022-06-29T10:04:30.000Z</time>
      </trkpt>
      <trkpt lat="44.32941" lon="3.63627">
        <ele>898.59997558594</ele>
        <time>2022-06-29T10:04:36.000Z</time>
      </trkpt>
      <trkpt lat="44.32942" lon="3.63629">
        <ele>898.59997558594</ele>
        <time>2022-06-29T10:04:42.000Z</time>
      </trkpt>
      <trkpt lat="44.32943" lon="3.63629">
        <ele>898.59997558594</ele>
        <time>2022-06-29T10:04:46.000Z</time>
      </trkpt>
      <trkpt lat="44.32943" lon="3.63629">
        <ele>898.59997558594</ele>
        <time>2022-06-29T10:04:47.000Z</time>
      </trkpt>
      <trkpt lat="44.32945" lon="3.6363">
        <ele>898.59997558594</ele>
        <time>2022-06-29T10:04:53.000Z</time>
      </trkpt>
      <trkpt lat="44.32946" lon="3.6363">
        <ele>898.59997558594</ele>
        <time>2022-06-29T10:04:54.000Z</time>
      </trkpt>
      <trkpt lat="44.32947" lon="3.6363">
        <ele>898.59997558594</ele>
        <time>2022-06-29T10:04:56.000Z</time>
      </trkpt>
      <trkpt lat="44.32952" lon="3.63632">
        <ele>898.59997558594</ele>
        <time>2022-06-29T10:05:02.000Z</time>
      </trkpt>
      <trkpt lat="44.32953" lon="3.63632">
        <ele>898.59997558594</ele>
        <time>2022-06-29T10:05:03.000Z</time>
      </trkpt>
      <trkpt lat="44.32954" lon="3.63633">
        <ele>898.59997558594</ele>
        <time>2022-06-29T10:05:04.000Z</time>
      </trkpt>
      <trkpt lat="44.32955" lon="3.63633">
        <ele>898.59997558594</ele>
        <time>2022-06-29T10:05:05.000Z</time>
      </trkpt>
      <trkpt lat="44.32956" lon="3.63634">
        <ele>899</ele>
        <time>2022-06-29T10:05:06.000Z</time>
      </trkpt>
      <trkpt lat="44.32958" lon="3.63635">
        <ele>899.59997558594</ele>
        <time>2022-06-29T10:05:08.000Z</time>
      </trkpt>
      <trkpt lat="44.3296" lon="3.63636">
        <ele>899.79998779297</ele>
        <time>2022-06-29T10:05:09.000Z</time>
      </trkpt>
      <trkpt lat="44.32965" lon="3.63638">
        <ele>900.59997558594</ele>
        <time>2022-06-29T10:05:15.000Z</time>
      </trkpt>
      <trkpt lat="44.32967" lon="3.6364">
        <ele>900.79998779297</ele>
        <time>2022-06-29T10:05:17.000Z</time>
      </trkpt>
      <trkpt lat="44.32968" lon="3.63643">
        <ele>900.79998779297</ele>
        <time>2022-06-29T10:05:19.000Z</time>
      </trkpt>
      <trkpt lat="44.3297" lon="3.63647">
        <ele>901.20001220703</ele>
        <time>2022-06-29T10:05:23.000Z</time>
      </trkpt>
      <trkpt lat="44.32974" lon="3.63653">
        <ele>901.40002441406</ele>
        <time>2022-06-29T10:05:29.000Z</time>
      </trkpt>
      <trkpt lat="44.32974" lon="3.63654">
        <ele>901.40002441406</ele>
        <time>2022-06-29T10:05:30.000Z</time>
      </trkpt>
      <trkpt lat="44.32974" lon="3.63656">
        <ele>901.40002441406</ele>
        <time>2022-06-29T10:05:31.000Z</time>
      </trkpt>
      <trkpt lat="44.32975" lon="3.63662">
        <ele>901.79998779297</ele>
        <time>2022-06-29T10:05:37.000Z</time>
      </trkpt>
      <trkpt lat="44.32975" lon="3.63664">
        <ele>901.79998779297</ele>
        <time>2022-06-29T10:05:38.000Z</time>
      </trkpt>
      <trkpt lat="44.32976" lon="3.63671">
        <ele>902.40002441406</ele>
        <time>2022-06-29T10:05:44.000Z</time>
      </trkpt>
      <trkpt lat="44.32976" lon="3.63672">
        <ele>902.40002441406</ele>
        <time>2022-06-29T10:05:45.000Z</time>
      </trkpt>
      <trkpt lat="44.32975" lon="3.63674">
        <ele>902.59997558594</ele>
        <time>2022-06-29T10:05:47.000Z</time>
      </trkpt>
      <trkpt lat="44.32974" lon="3.63677">
        <ele>902.79998779297</ele>
        <time>2022-06-29T10:05:50.000Z</time>
      </trkpt>
      <trkpt lat="44.32973" lon="3.6368">
        <ele>903</ele>
        <time>2022-06-29T10:05:53.000Z</time>
      </trkpt>
      <trkpt lat="44.32971" lon="3.63684">
        <ele>903.20001220703</ele>
        <time>2022-06-29T10:05:56.000Z</time>
      </trkpt>
      <trkpt lat="44.32971" lon="3.63685">
        <ele>903.20001220703</ele>
        <time>2022-06-29T10:05:57.000Z</time>
      </trkpt>
      <trkpt lat="44.32972" lon="3.63687">
        <ele>903.59997558594</ele>
        <time>2022-06-29T10:06:03.000Z</time>
      </trkpt>
      <trkpt lat="44.32971" lon="3.63688">
        <ele>903.59997558594</ele>
        <time>2022-06-29T10:06:05.000Z</time>
      </trkpt>
      <trkpt lat="44.32971" lon="3.63688">
        <ele>903.59997558594</ele>
        <time>2022-06-29T10:06:06.000Z</time>
      </trkpt>
      <trkpt lat="44.3297" lon="3.63691">
        <ele>903.59997558594</ele>
        <time>2022-06-29T10:06:09.000Z</time>
      </trkpt>
      <trkpt lat="44.3297" lon="3.63695">
        <ele>903.79998779297</ele>
        <time>2022-06-29T10:06:12.000Z</time>
      </trkpt>
      <trkpt lat="44.32969" lon="3.63697">
        <ele>904</ele>
        <time>2022-06-29T10:06:13.000Z</time>
      </trkpt>
      <trkpt lat="44.32968" lon="3.637">
        <ele>904.59997558594</ele>
        <time>2022-06-29T10:06:16.000Z</time>
      </trkpt>
      <trkpt lat="44.32966" lon="3.63706">
        <ele>905</ele>
        <time>2022-06-29T10:06:21.000Z</time>
      </trkpt>
      <trkpt lat="44.32964" lon="3.63709">
        <ele>905.20001220703</ele>
        <time>2022-06-29T10:06:24.000Z</time>
      </trkpt>
      <trkpt lat="44.32963" lon="3.63711">
        <ele>905.40002441406</ele>
        <time>2022-06-29T10:06:26.000Z</time>
      </trkpt>
      <trkpt lat="44.32961" lon="3.63714">
        <ele>905.59997558594</ele>
        <time>2022-06-29T10:06:29.000Z</time>
      </trkpt>
      <trkpt lat="44.32961" lon="3.63715">
        <ele>905.59997558594</ele>
        <time>2022-06-29T10:06:30.000Z</time>
      </trkpt>
      <trkpt lat="44.3296" lon="3.63716">
        <ele>905.59997558594</ele>
        <time>2022-06-29T10:06:31.000Z</time>
      </trkpt>
      <trkpt lat="44.32959" lon="3.63717">
        <ele>905.59997558594</ele>
        <time>2022-06-29T10:06:32.000Z</time>
      </trkpt>
      <trkpt lat="44.32959" lon="3.63718">
        <ele>905.79998779297</ele>
        <time>2022-06-29T10:06:33.000Z</time>
      </trkpt>
      <trkpt lat="44.32956" lon="3.63721">
        <ele>906</ele>
        <time>2022-06-29T10:06:37.000Z</time>
      </trkpt>
      <trkpt lat="44.32952" lon="3.63729">
        <ele>906.59997558594</ele>
        <time>2022-06-29T10:06:43.000Z</time>
      </trkpt>
      <trkpt lat="44.32949" lon="3.63733">
        <ele>907</ele>
        <time>2022-06-29T10:06:47.000Z</time>
      </trkpt>
      <trkpt lat="44.32948" lon="3.63734">
        <ele>907</ele>
        <time>2022-06-29T10:06:48.000Z</time>
      </trkpt>
      <trkpt lat="44.32943" lon="3.63738">
        <ele>907.79998779297</ele>
        <time>2022-06-29T10:06:54.000Z</time>
      </trkpt>
      <trkpt lat="44.32942" lon="3.6374">
        <ele>908.20001220703</ele>
        <time>2022-06-29T10:06:56.000Z</time>
      </trkpt>
      <trkpt lat="44.32939" lon="3.63743">
        <ele>908.40002441406</ele>
        <time>2022-06-29T10:06:59.000Z</time>
      </trkpt>
      <trkpt lat="44.32937" lon="3.63745">
        <ele>908.59997558594</ele>
        <time>2022-06-29T10:07:01.000Z</time>
      </trkpt>
      <trkpt lat="44.32934" lon="3.63753">
        <ele>909</ele>
        <time>2022-06-29T10:07:07.000Z</time>
      </trkpt>
      <trkpt lat="44.32932" lon="3.63757">
        <ele>909.40002441406</ele>
        <time>2022-06-29T10:07:11.000Z</time>
      </trkpt>
      <trkpt lat="44.32932" lon="3.63759">
        <ele>909.59997558594</ele>
        <time>2022-06-29T10:07:13.000Z</time>
      </trkpt>
      <trkpt lat="44.3293" lon="3.63763">
        <ele>910</ele>
        <time>2022-06-29T10:07:16.000Z</time>
      </trkpt>
      <trkpt lat="44.32929" lon="3.63764">
        <ele>910</ele>
        <time>2022-06-29T10:07:17.000Z</time>
      </trkpt>
      <trkpt lat="44.32928" lon="3.63768">
        <ele>910.40002441406</ele>
        <time>2022-06-29T10:07:21.000Z</time>
      </trkpt>
      <trkpt lat="44.32929" lon="3.63769">
        <ele>910.40002441406</ele>
        <time>2022-06-29T10:07:22.000Z</time>
      </trkpt>
      <trkpt lat="44.32929" lon="3.63775">
        <ele>910.59997558594</ele>
        <time>2022-06-29T10:07:26.000Z</time>
      </trkpt>
      <trkpt lat="44.32928" lon="3.63778">
        <ele>910.79998779297</ele>
        <time>2022-06-29T10:07:28.000Z</time>
      </trkpt>
      <trkpt lat="44.32926" lon="3.63786">
        <ele>911.59997558594</ele>
        <time>2022-06-29T10:07:33.000Z</time>
      </trkpt>
      <trkpt lat="44.32926" lon="3.6379">
        <ele>911.79998779297</ele>
        <time>2022-06-29T10:07:35.000Z</time>
      </trkpt>
      <trkpt lat="44.32925" lon="3.63797">
        <ele>912.20001220703</ele>
        <time>2022-06-29T10:07:40.000Z</time>
      </trkpt>
      <trkpt lat="44.32925" lon="3.63806">
        <ele>912.40002441406</ele>
        <time>2022-06-29T10:07:46.000Z</time>
      </trkpt>
      <trkpt lat="44.32924" lon="3.63808">
        <ele>912.59997558594</ele>
        <time>2022-06-29T10:07:48.000Z</time>
      </trkpt>
      <trkpt lat="44.32923" lon="3.63814">
        <ele>913</ele>
        <time>2022-06-29T10:07:52.000Z</time>
      </trkpt>
      <trkpt lat="44.32923" lon="3.63818">
        <ele>913</ele>
        <time>2022-06-29T10:07:55.000Z</time>
      </trkpt>
      <trkpt lat="44.32922" lon="3.63822">
        <ele>913.40002441406</ele>
        <time>2022-06-29T10:07:58.000Z</time>
      </trkpt>
      <trkpt lat="44.32918" lon="3.63829">
        <ele>913.59997558594</ele>
        <time>2022-06-29T10:08:04.000Z</time>
      </trkpt>
      <trkpt lat="44.32917" lon="3.63831">
        <ele>913.79998779297</ele>
        <time>2022-06-29T10:08:06.000Z</time>
      </trkpt>
      <trkpt lat="44.32917" lon="3.63832">
        <ele>913.79998779297</ele>
        <time>2022-06-29T10:08:07.000Z</time>
      </trkpt>
      <trkpt lat="44.32916" lon="3.63839">
        <ele>914.20001220703</ele>
        <time>2022-06-29T10:08:13.000Z</time>
      </trkpt>
      <trkpt lat="44.32916" lon="3.63848">
        <ele>914.59997558594</ele>
        <time>2022-06-29T10:08:18.000Z</time>
      </trkpt>
      <trkpt lat="44.32916" lon="3.6385">
        <ele>914.59997558594</ele>
        <time>2022-06-29T10:08:19.000Z</time>
      </trkpt>
      <trkpt lat="44.32916" lon="3.63852">
        <ele>914.79998779297</ele>
        <time>2022-06-29T10:08:21.000Z</time>
      </trkpt>
      <trkpt lat="44.32916" lon="3.63857">
        <ele>915</ele>
        <time>2022-06-29T10:08:25.000Z</time>
      </trkpt>
      <trkpt lat="44.32916" lon="3.63865">
        <ele>915.79998779297</ele>
        <time>2022-06-29T10:08:31.000Z</time>
      </trkpt>
      <trkpt lat="44.32917" lon="3.6387">
        <ele>916.20001220703</ele>
        <time>2022-06-29T10:08:35.000Z</time>
      </trkpt>
      <trkpt lat="44.32917" lon="3.63877">
        <ele>916.59997558594</ele>
        <time>2022-06-29T10:08:41.000Z</time>
      </trkpt>
      <trkpt lat="44.32917" lon="3.6388">
        <ele>916.79998779297</ele>
        <time>2022-06-29T10:08:44.000Z</time>
      </trkpt>
      <trkpt lat="44.32916" lon="3.63881">
        <ele>917</ele>
        <time>2022-06-29T10:08:45.000Z</time>
      </trkpt>
      <trkpt lat="44.32917" lon="3.63884">
        <ele>917</ele>
        <time>2022-06-29T10:08:47.000Z</time>
      </trkpt>
      <trkpt lat="44.32916" lon="3.63885">
        <ele>917.20001220703</ele>
        <time>2022-06-29T10:08:48.000Z</time>
      </trkpt>
      <trkpt lat="44.32916" lon="3.63887">
        <ele>917.40002441406</ele>
        <time>2022-06-29T10:08:50.000Z</time>
      </trkpt>
      <trkpt lat="44.32915" lon="3.63889">
        <ele>917.40002441406</ele>
        <time>2022-06-29T10:08:51.000Z</time>
      </trkpt>
      <trkpt lat="44.32915" lon="3.6389">
        <ele>917.59997558594</ele>
        <time>2022-06-29T10:08:52.000Z</time>
      </trkpt>
      <trkpt lat="44.32915" lon="3.63892">
        <ele>917.59997558594</ele>
        <time>2022-06-29T10:08:54.000Z</time>
      </trkpt>
      <trkpt lat="44.32915" lon="3.63893">
        <ele>917.79998779297</ele>
        <time>2022-06-29T10:08:55.000Z</time>
      </trkpt>
      <trkpt lat="44.32915" lon="3.63894">
        <ele>917.79998779297</ele>
        <time>2022-06-29T10:08:56.000Z</time>
      </trkpt>
      <trkpt lat="44.32915" lon="3.63897">
        <ele>918</ele>
        <time>2022-06-29T10:08:58.000Z</time>
      </trkpt>
      <trkpt lat="44.32915" lon="3.639">
        <ele>918.40002441406</ele>
        <time>2022-06-29T10:09:01.000Z</time>
      </trkpt>
      <trkpt lat="44.32915" lon="3.63902">
        <ele>918.79998779297</ele>
        <time>2022-06-29T10:09:03.000Z</time>
      </trkpt>
      <trkpt lat="44.32914" lon="3.63906">
        <ele>919</ele>
        <time>2022-06-29T10:09:06.000Z</time>
      </trkpt>
      <trkpt lat="44.32914" lon="3.63907">
        <ele>919</ele>
        <time>2022-06-29T10:09:07.000Z</time>
      </trkpt>
      <trkpt lat="44.32913" lon="3.63909">
        <ele>919.20001220703</ele>
        <time>2022-06-29T10:09:08.000Z</time>
      </trkpt>
      <trkpt lat="44.32913" lon="3.63911">
        <ele>919.40002441406</ele>
        <time>2022-06-29T10:09:10.000Z</time>
      </trkpt>
      <trkpt lat="44.32912" lon="3.63918">
        <ele>919.59997558594</ele>
        <time>2022-06-29T10:09:15.000Z</time>
      </trkpt>
      <trkpt lat="44.32912" lon="3.6392">
        <ele>919.79998779297</ele>
        <time>2022-06-29T10:09:17.000Z</time>
      </trkpt>
      <trkpt lat="44.32912" lon="3.63922">
        <ele>920</ele>
        <time>2022-06-29T10:09:19.000Z</time>
      </trkpt>
      <trkpt lat="44.32912" lon="3.63923">
        <ele>920</ele>
        <time>2022-06-29T10:09:20.000Z</time>
      </trkpt>
      <trkpt lat="44.32912" lon="3.63924">
        <ele>920</ele>
        <time>2022-06-29T10:09:21.000Z</time>
      </trkpt>
      <trkpt lat="44.32912" lon="3.63926">
        <ele>920.40002441406</ele>
        <time>2022-06-29T10:09:23.000Z</time>
      </trkpt>
      <trkpt lat="44.32911" lon="3.63927">
        <ele>920.40002441406</ele>
        <time>2022-06-29T10:09:24.000Z</time>
      </trkpt>
      <trkpt lat="44.32911" lon="3.63929">
        <ele>920.59997558594</ele>
        <time>2022-06-29T10:09:25.000Z</time>
      </trkpt>
      <trkpt lat="44.32911" lon="3.63932">
        <ele>920.59997558594</ele>
        <time>2022-06-29T10:09:27.000Z</time>
      </trkpt>
      <trkpt lat="44.32911" lon="3.63933">
        <ele>920.59997558594</ele>
        <time>2022-06-29T10:09:28.000Z</time>
      </trkpt>
      <trkpt lat="44.32911" lon="3.63934">
        <ele>920.79998779297</ele>
        <time>2022-06-29T10:09:29.000Z</time>
      </trkpt>
      <trkpt lat="44.32911" lon="3.63935">
        <ele>920.79998779297</ele>
        <time>2022-06-29T10:09:30.000Z</time>
      </trkpt>
      <trkpt lat="44.32911" lon="3.63936">
        <ele>921</ele>
        <time>2022-06-29T10:09:31.000Z</time>
      </trkpt>
      <trkpt lat="44.32911" lon="3.63938">
        <ele>921.20001220703</ele>
        <time>2022-06-29T10:09:32.000Z</time>
      </trkpt>
      <trkpt lat="44.32912" lon="3.63939">
        <ele>921.20001220703</ele>
        <time>2022-06-29T10:09:33.000Z</time>
      </trkpt>
      <trkpt lat="44.32913" lon="3.63942">
        <ele>921.40002441406</ele>
        <time>2022-06-29T10:09:35.000Z</time>
      </trkpt>
      <trkpt lat="44.32913" lon="3.63945">
        <ele>921.59997558594</ele>
        <time>2022-06-29T10:09:37.000Z</time>
      </trkpt>
      <trkpt lat="44.32913" lon="3.63951">
        <ele>921.79998779297</ele>
        <time>2022-06-29T10:09:41.000Z</time>
      </trkpt>
      <trkpt lat="44.32914" lon="3.63953">
        <ele>922</ele>
        <time>2022-06-29T10:09:43.000Z</time>
      </trkpt>
      <trkpt lat="44.32915" lon="3.63957">
        <ele>922.20001220703</ele>
        <time>2022-06-29T10:09:46.000Z</time>
      </trkpt>
      <trkpt lat="44.32915" lon="3.63959">
        <ele>922.40002441406</ele>
        <time>2022-06-29T10:09:47.000Z</time>
      </trkpt>
      <trkpt lat="44.32914" lon="3.63962">
        <ele>922.40002441406</ele>
        <time>2022-06-29T10:09:49.000Z</time>
      </trkpt>
      <trkpt lat="44.32914" lon="3.63966">
        <ele>922.79998779297</ele>
        <time>2022-06-29T10:09:52.000Z</time>
      </trkpt>
      <trkpt lat="44.32915" lon="3.63969">
        <ele>923</ele>
        <time>2022-06-29T10:09:54.000Z</time>
      </trkpt>
      <trkpt lat="44.32915" lon="3.63972">
        <ele>923.20001220703</ele>
        <time>2022-06-29T10:09:56.000Z</time>
      </trkpt>
      <trkpt lat="44.32915" lon="3.63975">
        <ele>923.40002441406</ele>
        <time>2022-06-29T10:09:58.000Z</time>
      </trkpt>
      <trkpt lat="44.32917" lon="3.63979">
        <ele>923.59997558594</ele>
        <time>2022-06-29T10:10:02.000Z</time>
      </trkpt>
      <trkpt lat="44.32917" lon="3.63982">
        <ele>923.79998779297</ele>
        <time>2022-06-29T10:10:05.000Z</time>
      </trkpt>
      <trkpt lat="44.32916" lon="3.63986">
        <ele>924</ele>
        <time>2022-06-29T10:10:08.000Z</time>
      </trkpt>
      <trkpt lat="44.32916" lon="3.63988">
        <ele>924.40002441406</ele>
        <time>2022-06-29T10:10:10.000Z</time>
      </trkpt>
      <trkpt lat="44.32916" lon="3.63995">
        <ele>925</ele>
        <time>2022-06-29T10:10:16.000Z</time>
      </trkpt>
      <trkpt lat="44.32916" lon="3.63997">
        <ele>925.20001220703</ele>
        <time>2022-06-29T10:10:18.000Z</time>
      </trkpt>
      <trkpt lat="44.32916" lon="3.63999">
        <ele>925.40002441406</ele>
        <time>2022-06-29T10:10:20.000Z</time>
      </trkpt>
      <trkpt lat="44.32915" lon="3.64001">
        <ele>925.59997558594</ele>
        <time>2022-06-29T10:10:21.000Z</time>
      </trkpt>
      <trkpt lat="44.32915" lon="3.64004">
        <ele>925.59997558594</ele>
        <time>2022-06-29T10:10:24.000Z</time>
      </trkpt>
      <trkpt lat="44.32915" lon="3.64007">
        <ele>925.79998779297</ele>
        <time>2022-06-29T10:10:26.000Z</time>
      </trkpt>
      <trkpt lat="44.32914" lon="3.6401">
        <ele>926</ele>
        <time>2022-06-29T10:10:29.000Z</time>
      </trkpt>
      <trkpt lat="44.32913" lon="3.64015">
        <ele>926.20001220703</ele>
        <time>2022-06-29T10:10:32.000Z</time>
      </trkpt>
      <trkpt lat="44.32913" lon="3.64017">
        <ele>926.40002441406</ele>
        <time>2022-06-29T10:10:34.000Z</time>
      </trkpt>
      <trkpt lat="44.32913" lon="3.64018">
        <ele>926.59997558594</ele>
        <time>2022-06-29T10:10:35.000Z</time>
      </trkpt>
      <trkpt lat="44.32912" lon="3.6402">
        <ele>926.59997558594</ele>
        <time>2022-06-29T10:10:36.000Z</time>
      </trkpt>
      <trkpt lat="44.32912" lon="3.64025">
        <ele>926.79998779297</ele>
        <time>2022-06-29T10:10:39.000Z</time>
      </trkpt>
      <trkpt lat="44.32911" lon="3.64031">
        <ele>927.20001220703</ele>
        <time>2022-06-29T10:10:45.000Z</time>
      </trkpt>
      <trkpt lat="44.32911" lon="3.64033">
        <ele>927.40002441406</ele>
        <time>2022-06-29T10:10:46.000Z</time>
      </trkpt>
      <trkpt lat="44.32911" lon="3.64035">
        <ele>927.40002441406</ele>
        <time>2022-06-29T10:10:48.000Z</time>
      </trkpt>
      <trkpt lat="44.32911" lon="3.64036">
        <ele>927.59997558594</ele>
        <time>2022-06-29T10:10:49.000Z</time>
      </trkpt>
      <trkpt lat="44.32912" lon="3.64042">
        <ele>928.20001220703</ele>
        <time>2022-06-29T10:10:54.000Z</time>
      </trkpt>
      <trkpt lat="44.32911" lon="3.64044">
        <ele>928.20001220703</ele>
        <time>2022-06-29T10:10:56.000Z</time>
      </trkpt>
      <trkpt lat="44.32911" lon="3.64045">
        <ele>928.20001220703</ele>
        <time>2022-06-29T10:10:57.000Z</time>
      </trkpt>
      <trkpt lat="44.32912" lon="3.6405">
        <ele>928.59997558594</ele>
        <time>2022-06-29T10:11:01.000Z</time>
      </trkpt>
      <trkpt lat="44.32912" lon="3.64057">
        <ele>929.20001220703</ele>
        <time>2022-06-29T10:11:06.000Z</time>
      </trkpt>
      <trkpt lat="44.32912" lon="3.64058">
        <ele>929.20001220703</ele>
        <time>2022-06-29T10:11:07.000Z</time>
      </trkpt>
      <trkpt lat="44.32912" lon="3.64061">
        <ele>929.20001220703</ele>
        <time>2022-06-29T10:11:09.000Z</time>
      </trkpt>
      <trkpt lat="44.32912" lon="3.64066">
        <ele>929.59997558594</ele>
        <time>2022-06-29T10:11:13.000Z</time>
      </trkpt>
      <trkpt lat="44.32913" lon="3.64073">
        <ele>930.20001220703</ele>
        <time>2022-06-29T10:11:19.000Z</time>
      </trkpt>
      <trkpt lat="44.32911" lon="3.64077">
        <ele>930.40002441406</ele>
        <time>2022-06-29T10:11:23.000Z</time>
      </trkpt>
      <trkpt lat="44.32911" lon="3.6408">
        <ele>930.79998779297</ele>
        <time>2022-06-29T10:11:26.000Z</time>
      </trkpt>
      <trkpt lat="44.32911" lon="3.64081">
        <ele>930.79998779297</ele>
        <time>2022-06-29T10:11:27.000Z</time>
      </trkpt>
      <trkpt lat="44.32912" lon="3.64082">
        <ele>931</ele>
        <time>2022-06-29T10:11:28.000Z</time>
      </trkpt>
      <trkpt lat="44.32912" lon="3.64083">
        <ele>931</ele>
        <time>2022-06-29T10:11:29.000Z</time>
      </trkpt>
      <trkpt lat="44.32911" lon="3.64085">
        <ele>931</ele>
        <time>2022-06-29T10:11:31.000Z</time>
      </trkpt>
      <trkpt lat="44.32911" lon="3.64093">
        <ele>931.20001220703</ele>
        <time>2022-06-29T10:11:37.000Z</time>
      </trkpt>
      <trkpt lat="44.32911" lon="3.64094">
        <ele>931.40002441406</ele>
        <time>2022-06-29T10:11:38.000Z</time>
      </trkpt>
      <trkpt lat="44.32912" lon="3.641">
        <ele>931.79998779297</ele>
        <time>2022-06-29T10:11:42.000Z</time>
      </trkpt>
      <trkpt lat="44.32912" lon="3.64103">
        <ele>931.79998779297</ele>
        <time>2022-06-29T10:11:44.000Z</time>
      </trkpt>
      <trkpt lat="44.32912" lon="3.64111">
        <ele>932.40002441406</ele>
        <time>2022-06-29T10:11:50.000Z</time>
      </trkpt>
      <trkpt lat="44.32912" lon="3.64114">
        <ele>932.40002441406</ele>
        <time>2022-06-29T10:11:52.000Z</time>
      </trkpt>
      <trkpt lat="44.3291" lon="3.6412">
        <ele>932.59997558594</ele>
        <time>2022-06-29T10:11:56.000Z</time>
      </trkpt>
      <trkpt lat="44.32909" lon="3.64121">
        <ele>932.79998779297</ele>
        <time>2022-06-29T10:11:57.000Z</time>
      </trkpt>
      <trkpt lat="44.32908" lon="3.64124">
        <ele>932.79998779297</ele>
        <time>2022-06-29T10:11:59.000Z</time>
      </trkpt>
      <trkpt lat="44.32907" lon="3.6413">
        <ele>933.40002441406</ele>
        <time>2022-06-29T10:12:04.000Z</time>
      </trkpt>
      <trkpt lat="44.32904" lon="3.64138">
        <ele>933.79998779297</ele>
        <time>2022-06-29T10:12:10.000Z</time>
      </trkpt>
      <trkpt lat="44.32904" lon="3.64139">
        <ele>934</ele>
        <time>2022-06-29T10:12:11.000Z</time>
      </trkpt>
      <trkpt lat="44.32904" lon="3.64146">
        <ele>934.40002441406</ele>
        <time>2022-06-29T10:12:17.000Z</time>
      </trkpt>
      <trkpt lat="44.32904" lon="3.64149">
        <ele>934.59997558594</ele>
        <time>2022-06-29T10:12:19.000Z</time>
      </trkpt>
      <trkpt lat="44.32904" lon="3.64156">
        <ele>935</ele>
        <time>2022-06-29T10:12:25.000Z</time>
      </trkpt>
      <trkpt lat="44.32903" lon="3.64159">
        <ele>935.40002441406</ele>
        <time>2022-06-29T10:12:27.000Z</time>
      </trkpt>
      <trkpt lat="44.32903" lon="3.64165">
        <ele>935.79998779297</ele>
        <time>2022-06-29T10:12:33.000Z</time>
      </trkpt>
      <trkpt lat="44.32903" lon="3.64166">
        <ele>935.79998779297</ele>
        <time>2022-06-29T10:12:34.000Z</time>
      </trkpt>
      <trkpt lat="44.32903" lon="3.64167">
        <ele>936</ele>
        <time>2022-06-29T10:12:35.000Z</time>
      </trkpt>
      <trkpt lat="44.32903" lon="3.6417">
        <ele>936.20001220703</ele>
        <time>2022-06-29T10:12:37.000Z</time>
      </trkpt>
      <trkpt lat="44.32902" lon="3.64176">
        <ele>936.59997558594</ele>
        <time>2022-06-29T10:12:41.000Z</time>
      </trkpt>
      <trkpt lat="44.32902" lon="3.64178">
        <ele>936.79998779297</ele>
        <time>2022-06-29T10:12:43.000Z</time>
      </trkpt>
      <trkpt lat="44.32903" lon="3.64184">
        <ele>936.79998779297</ele>
        <time>2022-06-29T10:12:47.000Z</time>
      </trkpt>
      <trkpt lat="44.32903" lon="3.64186">
        <ele>936.79998779297</ele>
        <time>2022-06-29T10:12:48.000Z</time>
      </trkpt>
      <trkpt lat="44.32903" lon="3.64188">
        <ele>937</ele>
        <time>2022-06-29T10:12:49.000Z</time>
      </trkpt>
      <trkpt lat="44.32904" lon="3.64192">
        <ele>937</ele>
        <time>2022-06-29T10:12:52.000Z</time>
      </trkpt>
      <trkpt lat="44.32904" lon="3.64195">
        <ele>937.20001220703</ele>
        <time>2022-06-29T10:12:55.000Z</time>
      </trkpt>
      <trkpt lat="44.32905" lon="3.64198">
        <ele>937.40002441406</ele>
        <time>2022-06-29T10:12:57.000Z</time>
      </trkpt>
      <trkpt lat="44.32909" lon="3.64205">
        <ele>938</ele>
        <time>2022-06-29T10:13:03.000Z</time>
      </trkpt>
      <trkpt lat="44.32911" lon="3.6421">
        <ele>938.20001220703</ele>
        <time>2022-06-29T10:13:06.000Z</time>
      </trkpt>
      <trkpt lat="44.32912" lon="3.64213">
        <ele>938.20001220703</ele>
        <time>2022-06-29T10:13:08.000Z</time>
      </trkpt>
      <trkpt lat="44.32913" lon="3.64215">
        <ele>938.40002441406</ele>
        <time>2022-06-29T10:13:10.000Z</time>
      </trkpt>
      <trkpt lat="44.32917" lon="3.64222">
        <ele>939</ele>
        <time>2022-06-29T10:13:16.000Z</time>
      </trkpt>
      <trkpt lat="44.32919" lon="3.64226">
        <ele>939.40002441406</ele>
        <time>2022-06-29T10:13:19.000Z</time>
      </trkpt>
      <trkpt lat="44.32923" lon="3.64232">
        <ele>939.79998779297</ele>
        <time>2022-06-29T10:13:25.000Z</time>
      </trkpt>
      <trkpt lat="44.32925" lon="3.64242">
        <ele>940.20001220703</ele>
        <time>2022-06-29T10:13:31.000Z</time>
      </trkpt>
      <trkpt lat="44.32925" lon="3.64243">
        <ele>940.40002441406</ele>
        <time>2022-06-29T10:13:32.000Z</time>
      </trkpt>
      <trkpt lat="44.32929" lon="3.64251">
        <ele>940.79998779297</ele>
        <time>2022-06-29T10:13:38.000Z</time>
      </trkpt>
      <trkpt lat="44.32931" lon="3.64254">
        <ele>941</ele>
        <time>2022-06-29T10:13:41.000Z</time>
      </trkpt>
      <trkpt lat="44.32933" lon="3.6426">
        <ele>941.40002441406</ele>
        <time>2022-06-29T10:13:47.000Z</time>
      </trkpt>
      <trkpt lat="44.32935" lon="3.64265">
        <ele>941.59997558594</ele>
        <time>2022-06-29T10:13:51.000Z</time>
      </trkpt>
      <trkpt lat="44.32937" lon="3.64272">
        <ele>942</ele>
        <time>2022-06-29T10:13:56.000Z</time>
      </trkpt>
      <trkpt lat="44.32939" lon="3.6428">
        <ele>942.20001220703</ele>
        <time>2022-06-29T10:14:02.000Z</time>
      </trkpt>
      <trkpt lat="44.3294" lon="3.64283">
        <ele>942.59997558594</ele>
        <time>2022-06-29T10:14:04.000Z</time>
      </trkpt>
      <trkpt lat="44.32942" lon="3.64288">
        <ele>943.20001220703</ele>
        <time>2022-06-29T10:14:09.000Z</time>
      </trkpt>
      <trkpt lat="44.32943" lon="3.64292">
        <ele>943.59997558594</ele>
        <time>2022-06-29T10:14:13.000Z</time>
      </trkpt>
      <trkpt lat="44.32945" lon="3.64297">
        <ele>943.79998779297</ele>
        <time>2022-06-29T10:14:17.000Z</time>
      </trkpt>
      <trkpt lat="44.32946" lon="3.64301">
        <ele>944</ele>
        <time>2022-06-29T10:14:21.000Z</time>
      </trkpt>
      <trkpt lat="44.32947" lon="3.64302">
        <ele>944.20001220703</ele>
        <time>2022-06-29T10:14:22.000Z</time>
      </trkpt>
      <trkpt lat="44.32947" lon="3.64304">
        <ele>944.20001220703</ele>
        <time>2022-06-29T10:14:24.000Z</time>
      </trkpt>
      <trkpt lat="44.32948" lon="3.64305">
        <ele>944.40002441406</ele>
        <time>2022-06-29T10:14:26.000Z</time>
      </trkpt>
      <trkpt lat="44.32949" lon="3.64306">
        <ele>944.40002441406</ele>
        <time>2022-06-29T10:14:27.000Z</time>
      </trkpt>
      <trkpt lat="44.3295" lon="3.64308">
        <ele>944.59997558594</ele>
        <time>2022-06-29T10:14:29.000Z</time>
      </trkpt>
      <trkpt lat="44.3295" lon="3.64309">
        <ele>944.59997558594</ele>
        <time>2022-06-29T10:14:30.000Z</time>
      </trkpt>
      <trkpt lat="44.32952" lon="3.64314">
        <ele>945</ele>
        <time>2022-06-29T10:14:34.000Z</time>
      </trkpt>
      <trkpt lat="44.32953" lon="3.64315">
        <ele>945</ele>
        <time>2022-06-29T10:14:35.000Z</time>
      </trkpt>
      <trkpt lat="44.32955" lon="3.64322">
        <ele>945.40002441406</ele>
        <time>2022-06-29T10:14:41.000Z</time>
      </trkpt>
      <trkpt lat="44.32957" lon="3.64328">
        <ele>945.59997558594</ele>
        <time>2022-06-29T10:14:46.000Z</time>
      </trkpt>
      <trkpt lat="44.32958" lon="3.64329">
        <ele>945.79998779297</ele>
        <time>2022-06-29T10:14:47.000Z</time>
      </trkpt>
      <trkpt lat="44.32959" lon="3.64332">
        <ele>946</ele>
        <time>2022-06-29T10:14:50.000Z</time>
      </trkpt>
      <trkpt lat="44.32962" lon="3.64341">
        <ele>946.20001220703</ele>
        <time>2022-06-29T10:14:56.000Z</time>
      </trkpt>
      <trkpt lat="44.32963" lon="3.64347">
        <ele>946.79998779297</ele>
        <time>2022-06-29T10:15:01.000Z</time>
      </trkpt>
      <trkpt lat="44.32963" lon="3.64348">
        <ele>946.79998779297</ele>
        <time>2022-06-29T10:15:02.000Z</time>
      </trkpt>
      <trkpt lat="44.32965" lon="3.64354">
        <ele>947</ele>
        <time>2022-06-29T10:15:07.000Z</time>
      </trkpt>
      <trkpt lat="44.32968" lon="3.6436">
        <ele>947.59997558594</ele>
        <time>2022-06-29T10:15:13.000Z</time>
      </trkpt>
      <trkpt lat="44.32968" lon="3.64361">
        <ele>947.59997558594</ele>
        <time>2022-06-29T10:15:14.000Z</time>
      </trkpt>
      <trkpt lat="44.32969" lon="3.64363">
        <ele>947.79998779297</ele>
        <time>2022-06-29T10:15:16.000Z</time>
      </trkpt>
      <trkpt lat="44.3297" lon="3.64367">
        <ele>948</ele>
        <time>2022-06-29T10:15:19.000Z</time>
      </trkpt>
      <trkpt lat="44.32971" lon="3.64368">
        <ele>948.20001220703</ele>
        <time>2022-06-29T10:15:20.000Z</time>
      </trkpt>
      <trkpt lat="44.32972" lon="3.64373">
        <ele>948.40002441406</ele>
        <time>2022-06-29T10:15:24.000Z</time>
      </trkpt>
      <trkpt lat="44.32972" lon="3.64375">
        <ele>948.40002441406</ele>
        <time>2022-06-29T10:15:26.000Z</time>
      </trkpt>
      <trkpt lat="44.32973" lon="3.64376">
        <ele>948.40002441406</ele>
        <time>2022-06-29T10:15:27.000Z</time>
      </trkpt>
      <trkpt lat="44.32974" lon="3.64384">
        <ele>948.79998779297</ele>
        <time>2022-06-29T10:15:33.000Z</time>
      </trkpt>
      <trkpt lat="44.32975" lon="3.64388">
        <ele>948.79998779297</ele>
        <time>2022-06-29T10:15:37.000Z</time>
      </trkpt>
      <trkpt lat="44.32976" lon="3.64394">
        <ele>949.20001220703</ele>
        <time>2022-06-29T10:15:41.000Z</time>
      </trkpt>
      <trkpt lat="44.32976" lon="3.64395">
        <ele>949.40002441406</ele>
        <time>2022-06-29T10:15:42.000Z</time>
      </trkpt>
      <trkpt lat="44.32977" lon="3.64399">
        <ele>949.79998779297</ele>
        <time>2022-06-29T10:15:45.000Z</time>
      </trkpt>
      <trkpt lat="44.32979" lon="3.64403">
        <ele>950</ele>
        <time>2022-06-29T10:15:48.000Z</time>
      </trkpt>
      <trkpt lat="44.3298" lon="3.64409">
        <ele>950.20001220703</ele>
        <time>2022-06-29T10:15:53.000Z</time>
      </trkpt>
      <trkpt lat="44.32981" lon="3.64417">
        <ele>950.59997558594</ele>
        <time>2022-06-29T10:15:59.000Z</time>
      </trkpt>
      <trkpt lat="44.32981" lon="3.64418">
        <ele>950.59997558594</ele>
        <time>2022-06-29T10:16:00.000Z</time>
      </trkpt>
      <trkpt lat="44.32982" lon="3.64424">
        <ele>951</ele>
        <time>2022-06-29T10:16:05.000Z</time>
      </trkpt>
      <trkpt lat="44.32982" lon="3.64426">
        <ele>951.20001220703</ele>
        <time>2022-06-29T10:16:07.000Z</time>
      </trkpt>
      <trkpt lat="44.32982" lon="3.64432">
        <ele>951.40002441406</ele>
        <time>2022-06-29T10:16:11.000Z</time>
      </trkpt>
      <trkpt lat="44.32983" lon="3.64437">
        <ele>951.59997558594</ele>
        <time>2022-06-29T10:16:15.000Z</time>
      </trkpt>
      <trkpt lat="44.32985" lon="3.64445">
        <ele>952</ele>
        <time>2022-06-29T10:16:21.000Z</time>
      </trkpt>
      <trkpt lat="44.32985" lon="3.64448">
        <ele>952.20001220703</ele>
        <time>2022-06-29T10:16:23.000Z</time>
      </trkpt>
      <trkpt lat="44.32985" lon="3.64452">
        <ele>952.40002441406</ele>
        <time>2022-06-29T10:16:26.000Z</time>
      </trkpt>
      <trkpt lat="44.32986" lon="3.64454">
        <ele>952.59997558594</ele>
        <time>2022-06-29T10:16:28.000Z</time>
      </trkpt>
      <trkpt lat="44.32986" lon="3.64457">
        <ele>952.79998779297</ele>
        <time>2022-06-29T10:16:30.000Z</time>
      </trkpt>
      <trkpt lat="44.32986" lon="3.64463">
        <ele>952.79998779297</ele>
        <time>2022-06-29T10:16:34.000Z</time>
      </trkpt>
      <trkpt lat="44.32986" lon="3.64467">
        <ele>953</ele>
        <time>2022-06-29T10:16:37.000Z</time>
      </trkpt>
      <trkpt lat="44.32989" lon="3.64475">
        <ele>953.40002441406</ele>
        <time>2022-06-29T10:16:43.000Z</time>
      </trkpt>
      <trkpt lat="44.32989" lon="3.64482">
        <ele>954.20001220703</ele>
        <time>2022-06-29T10:16:48.000Z</time>
      </trkpt>
      <trkpt lat="44.32989" lon="3.64485">
        <ele>954.20001220703</ele>
        <time>2022-06-29T10:16:50.000Z</time>
      </trkpt>
      <trkpt lat="44.3299" lon="3.64493">
        <ele>954.59997558594</ele>
        <time>2022-06-29T10:16:56.000Z</time>
      </trkpt>
      <trkpt lat="44.3299" lon="3.64495">
        <ele>954.79998779297</ele>
        <time>2022-06-29T10:16:58.000Z</time>
      </trkpt>
      <trkpt lat="44.32989" lon="3.64498">
        <ele>954.79998779297</ele>
        <time>2022-06-29T10:17:00.000Z</time>
      </trkpt>
      <trkpt lat="44.32989" lon="3.645">
        <ele>955</ele>
        <time>2022-06-29T10:17:01.000Z</time>
      </trkpt>
      <trkpt lat="44.32989" lon="3.64502">
        <ele>955</ele>
        <time>2022-06-29T10:17:03.000Z</time>
      </trkpt>
      <trkpt lat="44.32989" lon="3.64505">
        <ele>955.20001220703</ele>
        <time>2022-06-29T10:17:05.000Z</time>
      </trkpt>
      <trkpt lat="44.32989" lon="3.64513">
        <ele>956</ele>
        <time>2022-06-29T10:17:11.000Z</time>
      </trkpt>
      <trkpt lat="44.32988" lon="3.64517">
        <ele>956.20001220703</ele>
        <time>2022-06-29T10:17:14.000Z</time>
      </trkpt>
      <trkpt lat="44.32988" lon="3.64519">
        <ele>956.20001220703</ele>
        <time>2022-06-29T10:17:15.000Z</time>
      </trkpt>
      <trkpt lat="44.32988" lon="3.6452">
        <ele>956.40002441406</ele>
        <time>2022-06-29T10:17:16.000Z</time>
      </trkpt>
      <trkpt lat="44.32988" lon="3.64521">
        <ele>956.59997558594</ele>
        <time>2022-06-29T10:17:17.000Z</time>
      </trkpt>
      <trkpt lat="44.32988" lon="3.64523">
        <ele>956.59997558594</ele>
        <time>2022-06-29T10:17:18.000Z</time>
      </trkpt>
      <trkpt lat="44.32987" lon="3.6453">
        <ele>957.40002441406</ele>
        <time>2022-06-29T10:17:24.000Z</time>
      </trkpt>
      <trkpt lat="44.32985" lon="3.64538">
        <ele>958</ele>
        <time>2022-06-29T10:17:30.000Z</time>
      </trkpt>
      <trkpt lat="44.32985" lon="3.64541">
        <ele>958.40002441406</ele>
        <time>2022-06-29T10:17:32.000Z</time>
      </trkpt>
      <trkpt lat="44.32985" lon="3.64544">
        <ele>958.79998779297</ele>
        <time>2022-06-29T10:17:34.000Z</time>
      </trkpt>
      <trkpt lat="44.32984" lon="3.64546">
        <ele>959</ele>
        <time>2022-06-29T10:17:36.000Z</time>
      </trkpt>
      <trkpt lat="44.32983" lon="3.6455">
        <ele>959.40002441406</ele>
        <time>2022-06-29T10:17:39.000Z</time>
      </trkpt>
      <trkpt lat="44.32983" lon="3.64551">
        <ele>959.40002441406</ele>
        <time>2022-06-29T10:17:40.000Z</time>
      </trkpt>
      <trkpt lat="44.32982" lon="3.64554">
        <ele>959.59997558594</ele>
        <time>2022-06-29T10:17:42.000Z</time>
      </trkpt>
      <trkpt lat="44.32982" lon="3.64555">
        <ele>959.79998779297</ele>
        <time>2022-06-29T10:17:43.000Z</time>
      </trkpt>
      <trkpt lat="44.32982" lon="3.64557">
        <ele>959.79998779297</ele>
        <time>2022-06-29T10:17:45.000Z</time>
      </trkpt>
      <trkpt lat="44.32981" lon="3.6456">
        <ele>960</ele>
        <time>2022-06-29T10:17:47.000Z</time>
      </trkpt>
      <trkpt lat="44.32979" lon="3.64565">
        <ele>960.40002441406</ele>
        <time>2022-06-29T10:17:51.000Z</time>
      </trkpt>
      <trkpt lat="44.32979" lon="3.64567">
        <ele>960.59997558594</ele>
        <time>2022-06-29T10:17:52.000Z</time>
      </trkpt>
      <trkpt lat="44.32977" lon="3.64573">
        <ele>961.20001220703</ele>
        <time>2022-06-29T10:17:57.000Z</time>
      </trkpt>
      <trkpt lat="44.32977" lon="3.6458">
        <ele>961.59997558594</ele>
        <time>2022-06-29T10:18:02.000Z</time>
      </trkpt>
      <trkpt lat="44.32974" lon="3.64587">
        <ele>962</ele>
        <time>2022-06-29T10:18:08.000Z</time>
      </trkpt>
      <trkpt lat="44.32971" lon="3.6459">
        <ele>962.20001220703</ele>
        <time>2022-06-29T10:18:11.000Z</time>
      </trkpt>
      <trkpt lat="44.32971" lon="3.64591">
        <ele>962.20001220703</ele>
        <time>2022-06-29T10:18:12.000Z</time>
      </trkpt>
      <trkpt lat="44.32968" lon="3.64598">
        <ele>962.40002441406</ele>
        <time>2022-06-29T10:18:17.000Z</time>
      </trkpt>
      <trkpt lat="44.32966" lon="3.64604">
        <ele>962.59997558594</ele>
        <time>2022-06-29T10:18:22.000Z</time>
      </trkpt>
      <trkpt lat="44.32965" lon="3.64607">
        <ele>962.59997558594</ele>
        <time>2022-06-29T10:18:24.000Z</time>
      </trkpt>
      <trkpt lat="44.32964" lon="3.64609">
        <ele>962.79998779297</ele>
        <time>2022-06-29T10:18:26.000Z</time>
      </trkpt>
      <trkpt lat="44.32962" lon="3.64612">
        <ele>963</ele>
        <time>2022-06-29T10:18:29.000Z</time>
      </trkpt>
      <trkpt lat="44.32959" lon="3.64617">
        <ele>963.40002441406</ele>
        <time>2022-06-29T10:18:35.000Z</time>
      </trkpt>
      <trkpt lat="44.32957" lon="3.64618">
        <ele>963.40002441406</ele>
        <time>2022-06-29T10:18:36.000Z</time>
      </trkpt>
      <trkpt lat="44.32952" lon="3.64623">
        <ele>963.59997558594</ele>
        <time>2022-06-29T10:18:42.000Z</time>
      </trkpt>
      <trkpt lat="44.32949" lon="3.64626">
        <ele>963.79998779297</ele>
        <time>2022-06-29T10:18:46.000Z</time>
      </trkpt>
      <trkpt lat="44.32944" lon="3.6463">
        <ele>964</ele>
        <time>2022-06-29T10:18:51.000Z</time>
      </trkpt>
      <trkpt lat="44.32944" lon="3.64631">
        <ele>964</ele>
        <time>2022-06-29T10:18:52.000Z</time>
      </trkpt>
      <trkpt lat="44.3294" lon="3.64637">
        <ele>964.20001220703</ele>
        <time>2022-06-29T10:18:58.000Z</time>
      </trkpt>
      <trkpt lat="44.32937" lon="3.64644">
        <ele>964.40002441406</ele>
        <time>2022-06-29T10:19:04.000Z</time>
      </trkpt>
      <trkpt lat="44.32937" lon="3.64645">
        <ele>964.40002441406</ele>
        <time>2022-06-29T10:19:05.000Z</time>
      </trkpt>
      <trkpt lat="44.32932" lon="3.64651">
        <ele>964.40002441406</ele>
        <time>2022-06-29T10:19:11.000Z</time>
      </trkpt>
      <trkpt lat="44.32931" lon="3.64653">
        <ele>964.40002441406</ele>
        <time>2022-06-29T10:19:13.000Z</time>
      </trkpt>
      <trkpt lat="44.32928" lon="3.64655">
        <ele>964.59997558594</ele>
        <time>2022-06-29T10:19:17.000Z</time>
      </trkpt>
      <trkpt lat="44.32925" lon="3.64658">
        <ele>964.59997558594</ele>
        <time>2022-06-29T10:19:21.000Z</time>
      </trkpt>
      <trkpt lat="44.32924" lon="3.6466">
        <ele>964.79998779297</ele>
        <time>2022-06-29T10:19:23.000Z</time>
      </trkpt>
      <trkpt lat="44.32923" lon="3.64661">
        <ele>964.79998779297</ele>
        <time>2022-06-29T10:19:24.000Z</time>
      </trkpt>
      <trkpt lat="44.32921" lon="3.64664">
        <ele>965</ele>
        <time>2022-06-29T10:19:27.000Z</time>
      </trkpt>
      <trkpt lat="44.3292" lon="3.64666">
        <ele>965.20001220703</ele>
        <time>2022-06-29T10:19:28.000Z</time>
      </trkpt>
      <trkpt lat="44.32919" lon="3.64668">
        <ele>965.40002441406</ele>
        <time>2022-06-29T10:19:30.000Z</time>
      </trkpt>
      <trkpt lat="44.32916" lon="3.64674">
        <ele>965.59997558594</ele>
        <time>2022-06-29T10:19:36.000Z</time>
      </trkpt>
      <trkpt lat="44.32915" lon="3.64675">
        <ele>965.79998779297</ele>
        <time>2022-06-29T10:19:37.000Z</time>
      </trkpt>
      <trkpt lat="44.32915" lon="3.64676">
        <ele>965.79998779297</ele>
        <time>2022-06-29T10:19:38.000Z</time>
      </trkpt>
      <trkpt lat="44.32913" lon="3.64678">
        <ele>965.79998779297</ele>
        <time>2022-06-29T10:19:40.000Z</time>
      </trkpt>
      <trkpt lat="44.32911" lon="3.6468">
        <ele>966</ele>
        <time>2022-06-29T10:19:43.000Z</time>
      </trkpt>
      <trkpt lat="44.3291" lon="3.64681">
        <ele>966.20001220703</ele>
        <time>2022-06-29T10:19:44.000Z</time>
      </trkpt>
      <trkpt lat="44.32909" lon="3.64682">
        <ele>966.40002441406</ele>
        <time>2022-06-29T10:19:46.000Z</time>
      </trkpt>
      <trkpt lat="44.32903" lon="3.64686">
        <ele>966.59997558594</ele>
        <time>2022-06-29T10:19:52.000Z</time>
      </trkpt>
      <trkpt lat="44.32901" lon="3.64689">
        <ele>966.79998779297</ele>
        <time>2022-06-29T10:19:55.000Z</time>
      </trkpt>
      <trkpt lat="44.32899" lon="3.64691">
        <ele>967</ele>
        <time>2022-06-29T10:19:57.000Z</time>
      </trkpt>
      <trkpt lat="44.32896" lon="3.64698">
        <ele>967.20001220703</ele>
        <time>2022-06-29T10:20:03.000Z</time>
      </trkpt>
      <trkpt lat="44.32892" lon="3.64704">
        <ele>967.59997558594</ele>
        <time>2022-06-29T10:20:09.000Z</time>
      </trkpt>
      <trkpt lat="44.3289" lon="3.6471">
        <ele>967.59997558594</ele>
        <time>2022-06-29T10:20:15.000Z</time>
      </trkpt>
      <trkpt lat="44.32887" lon="3.64716">
        <ele>967.79998779297</ele>
        <time>2022-06-29T10:20:21.000Z</time>
      </trkpt>
      <trkpt lat="44.32886" lon="3.6472">
        <ele>967.79998779297</ele>
        <time>2022-06-29T10:20:24.000Z</time>
      </trkpt>
      <trkpt lat="44.32883" lon="3.64725">
        <ele>968</ele>
        <time>2022-06-29T10:20:28.000Z</time>
      </trkpt>
      <trkpt lat="44.3288" lon="3.64731">
        <ele>968.40002441406</ele>
        <time>2022-06-29T10:20:34.000Z</time>
      </trkpt>
      <trkpt lat="44.32879" lon="3.64734">
        <ele>968.20001220703</ele>
        <time>2022-06-29T10:20:36.000Z</time>
      </trkpt>
      <trkpt lat="44.32875" lon="3.6474">
        <ele>968.40002441406</ele>
        <time>2022-06-29T10:20:42.000Z</time>
      </trkpt>
      <trkpt lat="44.32873" lon="3.6475">
        <ele>968.59997558594</ele>
        <time>2022-06-29T10:20:48.000Z</time>
      </trkpt>
      <trkpt lat="44.32873" lon="3.64755">
        <ele>968.79998779297</ele>
        <time>2022-06-29T10:20:51.000Z</time>
      </trkpt>
      <trkpt lat="44.32872" lon="3.64758">
        <ele>968.79998779297</ele>
        <time>2022-06-29T10:20:53.000Z</time>
      </trkpt>
      <trkpt lat="44.32869" lon="3.64762">
        <ele>969</ele>
        <time>2022-06-29T10:20:57.000Z</time>
      </trkpt>
      <trkpt lat="44.32868" lon="3.64764">
        <ele>969</ele>
        <time>2022-06-29T10:20:59.000Z</time>
      </trkpt>
      <trkpt lat="44.32867" lon="3.64766">
        <ele>969</ele>
        <time>2022-06-29T10:21:01.000Z</time>
      </trkpt>
      <trkpt lat="44.32866" lon="3.64768">
        <ele>969</ele>
        <time>2022-06-29T10:21:03.000Z</time>
      </trkpt>
      <trkpt lat="44.32865" lon="3.64772">
        <ele>969</ele>
        <time>2022-06-29T10:21:06.000Z</time>
      </trkpt>
      <trkpt lat="44.32865" lon="3.64777">
        <ele>969</ele>
        <time>2022-06-29T10:21:10.000Z</time>
      </trkpt>
      <trkpt lat="44.32864" lon="3.64779">
        <ele>969</ele>
        <time>2022-06-29T10:21:12.000Z</time>
      </trkpt>
      <trkpt lat="44.32865" lon="3.64782">
        <ele>969</ele>
        <time>2022-06-29T10:21:14.000Z</time>
      </trkpt>
      <trkpt lat="44.32864" lon="3.64785">
        <ele>969.20001220703</ele>
        <time>2022-06-29T10:21:17.000Z</time>
      </trkpt>
      <trkpt lat="44.32863" lon="3.64794">
        <ele>969.40002441406</ele>
        <time>2022-06-29T10:21:23.000Z</time>
      </trkpt>
      <trkpt lat="44.32862" lon="3.64796">
        <ele>969.40002441406</ele>
        <time>2022-06-29T10:21:25.000Z</time>
      </trkpt>
      <trkpt lat="44.32862" lon="3.64803">
        <ele>969.79998779297</ele>
        <time>2022-06-29T10:21:31.000Z</time>
      </trkpt>
      <trkpt lat="44.32862" lon="3.64805">
        <ele>970</ele>
        <time>2022-06-29T10:21:33.000Z</time>
      </trkpt>
      <trkpt lat="44.32862" lon="3.64806">
        <ele>970</ele>
        <time>2022-06-29T10:21:34.000Z</time>
      </trkpt>
      <trkpt lat="44.32862" lon="3.64807">
        <ele>970</ele>
        <time>2022-06-29T10:21:35.000Z</time>
      </trkpt>
      <trkpt lat="44.32862" lon="3.64817">
        <ele>970.40002441406</ele>
        <time>2022-06-29T10:21:41.000Z</time>
      </trkpt>
      <trkpt lat="44.32864" lon="3.64827">
        <ele>970.79998779297</ele>
        <time>2022-06-29T10:21:47.000Z</time>
      </trkpt>
      <trkpt lat="44.32864" lon="3.64831">
        <ele>971</ele>
        <time>2022-06-29T10:21:50.000Z</time>
      </trkpt>
      <trkpt lat="44.32864" lon="3.64836">
        <ele>971.59997558594</ele>
        <time>2022-06-29T10:21:54.000Z</time>
      </trkpt>
      <trkpt lat="44.32864" lon="3.64844">
        <ele>972</ele>
        <time>2022-06-29T10:22:00.000Z</time>
      </trkpt>
      <trkpt lat="44.32864" lon="3.6485">
        <ele>972.20001220703</ele>
        <time>2022-06-29T10:22:05.000Z</time>
      </trkpt>
      <trkpt lat="44.32864" lon="3.64858">
        <ele>972.59997558594</ele>
        <time>2022-06-29T10:22:10.000Z</time>
      </trkpt>
      <trkpt lat="44.32865" lon="3.64862">
        <ele>972.59997558594</ele>
        <time>2022-06-29T10:22:13.000Z</time>
      </trkpt>
      <trkpt lat="44.32865" lon="3.64864">
        <ele>972.59997558594</ele>
        <time>2022-06-29T10:22:15.000Z</time>
      </trkpt>
      <trkpt lat="44.32866" lon="3.64874">
        <ele>972.79998779297</ele>
        <time>2022-06-29T10:22:21.000Z</time>
      </trkpt>
      <trkpt lat="44.32867" lon="3.64879">
        <ele>972.79998779297</ele>
        <time>2022-06-29T10:22:25.000Z</time>
      </trkpt>
      <trkpt lat="44.32868" lon="3.64887">
        <ele>973</ele>
        <time>2022-06-29T10:22:31.000Z</time>
      </trkpt>
      <trkpt lat="44.32868" lon="3.6489">
        <ele>973.20001220703</ele>
        <time>2022-06-29T10:22:34.000Z</time>
      </trkpt>
      <trkpt lat="44.32869" lon="3.64898">
        <ele>973.40002441406</ele>
        <time>2022-06-29T10:22:40.000Z</time>
      </trkpt>
      <trkpt lat="44.3287" lon="3.64905">
        <ele>973.79998779297</ele>
        <time>2022-06-29T10:22:46.000Z</time>
      </trkpt>
      <trkpt lat="44.32872" lon="3.6491">
        <ele>973.79998779297</ele>
        <time>2022-06-29T10:22:50.000Z</time>
      </trkpt>
      <trkpt lat="44.32873" lon="3.64913">
        <ele>974</ele>
        <time>2022-06-29T10:22:52.000Z</time>
      </trkpt>
      <trkpt lat="44.32873" lon="3.64914">
        <ele>974.20001220703</ele>
        <time>2022-06-29T10:22:53.000Z</time>
      </trkpt>
      <trkpt lat="44.32874" lon="3.64917">
        <ele>974.59997558594</ele>
        <time>2022-06-29T10:22:55.000Z</time>
      </trkpt>
      <trkpt lat="44.32877" lon="3.64924">
        <ele>974.59997558594</ele>
        <time>2022-06-29T10:23:01.000Z</time>
      </trkpt>
      <trkpt lat="44.32879" lon="3.6493">
        <ele>975</ele>
        <time>2022-06-29T10:23:07.000Z</time>
      </trkpt>
      <trkpt lat="44.32881" lon="3.64933">
        <ele>975.20001220703</ele>
        <time>2022-06-29T10:23:10.000Z</time>
      </trkpt>
      <trkpt lat="44.32886" lon="3.64939">
        <ele>975.40002441406</ele>
        <time>2022-06-29T10:23:16.000Z</time>
      </trkpt>
      <trkpt lat="44.32889" lon="3.64943">
        <ele>975.59997558594</ele>
        <time>2022-06-29T10:23:20.000Z</time>
      </trkpt>
      <trkpt lat="44.32889" lon="3.64948">
        <ele>975.40002441406</ele>
        <time>2022-06-29T10:23:24.000Z</time>
      </trkpt>
      <trkpt lat="44.3289" lon="3.64949">
        <ele>975.40002441406</ele>
        <time>2022-06-29T10:23:26.000Z</time>
      </trkpt>
      <trkpt lat="44.32892" lon="3.64955">
        <ele>975.59997558594</ele>
        <time>2022-06-29T10:23:32.000Z</time>
      </trkpt>
      <trkpt lat="44.32894" lon="3.64957">
        <ele>975.79998779297</ele>
        <time>2022-06-29T10:23:36.000Z</time>
      </trkpt>
      <trkpt lat="44.32896" lon="3.64961">
        <ele>975.79998779297</ele>
        <time>2022-06-29T10:23:40.000Z</time>
      </trkpt>
      <trkpt lat="44.32898" lon="3.64965">
        <ele>976.20001220703</ele>
        <time>2022-06-29T10:23:44.000Z</time>
      </trkpt>
      <trkpt lat="44.32898" lon="3.64967">
        <ele>976.40002441406</ele>
        <time>2022-06-29T10:23:46.000Z</time>
      </trkpt>
      <trkpt lat="44.32901" lon="3.64971">
        <ele>976.40002441406</ele>
        <time>2022-06-29T10:23:50.000Z</time>
      </trkpt>
      <trkpt lat="44.32905" lon="3.64975">
        <ele>976.79998779297</ele>
        <time>2022-06-29T10:23:56.000Z</time>
      </trkpt>
      <trkpt lat="44.32909" lon="3.64981">
        <ele>977.20001220703</ele>
        <time>2022-06-29T10:24:01.000Z</time>
      </trkpt>
      <trkpt lat="44.32909" lon="3.64982">
        <ele>977.20001220703</ele>
        <time>2022-06-29T10:24:02.000Z</time>
      </trkpt>
      <trkpt lat="44.32913" lon="3.64988">
        <ele>977.20001220703</ele>
        <time>2022-06-29T10:24:08.000Z</time>
      </trkpt>
      <trkpt lat="44.32915" lon="3.64989">
        <ele>977.40002441406</ele>
        <time>2022-06-29T10:24:11.000Z</time>
      </trkpt>
      <trkpt lat="44.32919" lon="3.6499">
        <ele>977.79998779297</ele>
        <time>2022-06-29T10:24:16.000Z</time>
      </trkpt>
      <trkpt lat="44.32921" lon="3.64992">
        <ele>978.20001220703</ele>
        <time>2022-06-29T10:24:19.000Z</time>
      </trkpt>
      <trkpt lat="44.32922" lon="3.64994">
        <ele>978.40002441406</ele>
        <time>2022-06-29T10:24:21.000Z</time>
      </trkpt>
      <trkpt lat="44.32926" lon="3.65">
        <ele>978.59997558594</ele>
        <time>2022-06-29T10:24:27.000Z</time>
      </trkpt>
      <trkpt lat="44.32928" lon="3.65003">
        <ele>978.79998779297</ele>
        <time>2022-06-29T10:24:30.000Z</time>
      </trkpt>
      <trkpt lat="44.32931" lon="3.65007">
        <ele>979.20001220703</ele>
        <time>2022-06-29T10:24:36.000Z</time>
      </trkpt>
      <trkpt lat="44.32931" lon="3.65008">
        <ele>979.40002441406</ele>
        <time>2022-06-29T10:24:37.000Z</time>
      </trkpt>
      <trkpt lat="44.32932" lon="3.65009">
        <ele>979.40002441406</ele>
        <time>2022-06-29T10:24:38.000Z</time>
      </trkpt>
      <trkpt lat="44.32935" lon="3.65013">
        <ele>980</ele>
        <time>2022-06-29T10:24:44.000Z</time>
      </trkpt>
      <trkpt lat="44.3294" lon="3.65017">
        <ele>980.20001220703</ele>
        <time>2022-06-29T10:24:50.000Z</time>
      </trkpt>
      <trkpt lat="44.32943" lon="3.6502">
        <ele>980.40002441406</ele>
        <time>2022-06-29T10:24:54.000Z</time>
      </trkpt>
      <trkpt lat="44.32947" lon="3.65023">
        <ele>981</ele>
        <time>2022-06-29T10:25:00.000Z</time>
      </trkpt>
      <trkpt lat="44.32948" lon="3.65024">
        <ele>981</ele>
        <time>2022-06-29T10:25:01.000Z</time>
      </trkpt>
      <trkpt lat="44.3295" lon="3.65029">
        <ele>981.59997558594</ele>
        <time>2022-06-29T10:25:07.000Z</time>
      </trkpt>
      <trkpt lat="44.32953" lon="3.65032">
        <ele>982</ele>
        <time>2022-06-29T10:25:13.000Z</time>
      </trkpt>
      <trkpt lat="44.32955" lon="3.65034">
        <ele>982.20001220703</ele>
        <time>2022-06-29T10:25:16.000Z</time>
      </trkpt>
      <trkpt lat="44.32957" lon="3.65037">
        <ele>982.59997558594</ele>
        <time>2022-06-29T10:25:19.000Z</time>
      </trkpt>
      <trkpt lat="44.32962" lon="3.65043">
        <ele>982.79998779297</ele>
        <time>2022-06-29T10:25:25.000Z</time>
      </trkpt>
      <trkpt lat="44.32965" lon="3.65046">
        <ele>982.79998779297</ele>
        <time>2022-06-29T10:25:29.000Z</time>
      </trkpt>
      <trkpt lat="44.32968" lon="3.65048">
        <ele>983.40002441406</ele>
        <time>2022-06-29T10:25:35.000Z</time>
      </trkpt>
      <trkpt lat="44.32969" lon="3.65049">
        <ele>983.59997558594</ele>
        <time>2022-06-29T10:25:36.000Z</time>
      </trkpt>
      <trkpt lat="44.32973" lon="3.65052">
        <ele>984.20001220703</ele>
        <time>2022-06-29T10:25:42.000Z</time>
      </trkpt>
      <trkpt lat="44.32973" lon="3.65053">
        <ele>984.20001220703</ele>
        <time>2022-06-29T10:25:43.000Z</time>
      </trkpt>
      <trkpt lat="44.32977" lon="3.65056">
        <ele>984.79998779297</ele>
        <time>2022-06-29T10:25:48.000Z</time>
      </trkpt>
      <trkpt lat="44.32981" lon="3.65063">
        <ele>985.40002441406</ele>
        <time>2022-06-29T10:25:54.000Z</time>
      </trkpt>
      <trkpt lat="44.32982" lon="3.65064">
        <ele>985.59997558594</ele>
        <time>2022-06-29T10:25:56.000Z</time>
      </trkpt>
      <trkpt lat="44.32985" lon="3.6507">
        <ele>985.59997558594</ele>
        <time>2022-06-29T10:26:02.000Z</time>
      </trkpt>
      <trkpt lat="44.32985" lon="3.65071">
        <ele>985.79998779297</ele>
        <time>2022-06-29T10:26:03.000Z</time>
      </trkpt>
      <trkpt lat="44.32987" lon="3.65076">
        <ele>986.59997558594</ele>
        <time>2022-06-29T10:26:09.000Z</time>
      </trkpt>
      <trkpt lat="44.32987" lon="3.65077">
        <ele>986.59997558594</ele>
        <time>2022-06-29T10:26:10.000Z</time>
      </trkpt>
      <trkpt lat="44.32988" lon="3.65079">
        <ele>986.79998779297</ele>
        <time>2022-06-29T10:26:12.000Z</time>
      </trkpt>
      <trkpt lat="44.32988" lon="3.65079">
        <ele>987</ele>
        <time>2022-06-29T10:26:14.000Z</time>
      </trkpt>
      <trkpt lat="44.32992" lon="3.65083">
        <ele>987.79998779297</ele>
        <time>2022-06-29T10:26:20.000Z</time>
      </trkpt>
      <trkpt lat="44.32992" lon="3.65084">
        <ele>987.79998779297</ele>
        <time>2022-06-29T10:26:21.000Z</time>
      </trkpt>
      <trkpt lat="44.32992" lon="3.65086">
        <ele>987.79998779297</ele>
        <time>2022-06-29T10:26:23.000Z</time>
      </trkpt>
      <trkpt lat="44.32993" lon="3.65089">
        <ele>988</ele>
        <time>2022-06-29T10:26:25.000Z</time>
      </trkpt>
      <trkpt lat="44.32993" lon="3.65098">
        <ele>988.79998779297</ele>
        <time>2022-06-29T10:26:31.000Z</time>
      </trkpt>
      <trkpt lat="44.32993" lon="3.65101">
        <ele>989</ele>
        <time>2022-06-29T10:26:34.000Z</time>
      </trkpt>
      <trkpt lat="44.32992" lon="3.65103">
        <ele>989.20001220703</ele>
        <time>2022-06-29T10:26:36.000Z</time>
      </trkpt>
      <trkpt lat="44.32992" lon="3.65105">
        <ele>989.40002441406</ele>
        <time>2022-06-29T10:26:37.000Z</time>
      </trkpt>
      <trkpt lat="44.32993" lon="3.65107">
        <ele>989.59997558594</ele>
        <time>2022-06-29T10:26:39.000Z</time>
      </trkpt>
      <trkpt lat="44.32995" lon="3.65111">
        <ele>989.59997558594</ele>
        <time>2022-06-29T10:26:42.000Z</time>
      </trkpt>
      <trkpt lat="44.32997" lon="3.65118">
        <ele>990</ele>
        <time>2022-06-29T10:26:48.000Z</time>
      </trkpt>
      <trkpt lat="44.32996" lon="3.6512">
        <ele>990.20001220703</ele>
        <time>2022-06-29T10:26:49.000Z</time>
      </trkpt>
      <trkpt lat="44.32996" lon="3.65127">
        <ele>990.79998779297</ele>
        <time>2022-06-29T10:26:55.000Z</time>
      </trkpt>
      <trkpt lat="44.32996" lon="3.6513">
        <ele>991</ele>
        <time>2022-06-29T10:26:57.000Z</time>
      </trkpt>
      <trkpt lat="44.32996" lon="3.65138">
        <ele>991.59997558594</ele>
        <time>2022-06-29T10:27:02.000Z</time>
      </trkpt>
      <trkpt lat="44.32996" lon="3.65147">
        <ele>991.79998779297</ele>
        <time>2022-06-29T10:27:08.000Z</time>
      </trkpt>
      <trkpt lat="44.32995" lon="3.65151">
        <ele>992</ele>
        <time>2022-06-29T10:27:11.000Z</time>
      </trkpt>
      <trkpt lat="44.32993" lon="3.65156">
        <ele>992.40002441406</ele>
        <time>2022-06-29T10:27:15.000Z</time>
      </trkpt>
      <trkpt lat="44.32989" lon="3.65162">
        <ele>992.79998779297</ele>
        <time>2022-06-29T10:27:21.000Z</time>
      </trkpt>
      <trkpt lat="44.32985" lon="3.65169">
        <ele>992.79998779297</ele>
        <time>2022-06-29T10:27:27.000Z</time>
      </trkpt>
      <trkpt lat="44.32984" lon="3.65171">
        <ele>992.79998779297</ele>
        <time>2022-06-29T10:27:28.000Z</time>
      </trkpt>
      <trkpt lat="44.32981" lon="3.65175">
        <ele>993.20001220703</ele>
        <time>2022-06-29T10:27:32.000Z</time>
      </trkpt>
      <trkpt lat="44.32977" lon="3.65179">
        <ele>993.40002441406</ele>
        <time>2022-06-29T10:27:36.000Z</time>
      </trkpt>
      <trkpt lat="44.32975" lon="3.65182">
        <ele>993.79998779297</ele>
        <time>2022-06-29T10:27:39.000Z</time>
      </trkpt>
      <trkpt lat="44.32974" lon="3.65185">
        <ele>994</ele>
        <time>2022-06-29T10:27:42.000Z</time>
      </trkpt>
      <trkpt lat="44.3297" lon="3.65189">
        <ele>994.20001220703</ele>
        <time>2022-06-29T10:27:48.000Z</time>
      </trkpt>
      <trkpt lat="44.32966" lon="3.65193">
        <ele>994.20001220703</ele>
        <time>2022-06-29T10:27:53.000Z</time>
      </trkpt>
      <trkpt lat="44.32965" lon="3.65194">
        <ele>994.20001220703</ele>
        <time>2022-06-29T10:27:54.000Z</time>
      </trkpt>
      <trkpt lat="44.32963" lon="3.65197">
        <ele>994.59997558594</ele>
        <time>2022-06-29T10:27:57.000Z</time>
      </trkpt>
      <trkpt lat="44.32961" lon="3.65199">
        <ele>994.79998779297</ele>
        <time>2022-06-29T10:28:00.000Z</time>
      </trkpt>
      <trkpt lat="44.32958" lon="3.65204">
        <ele>994.79998779297</ele>
        <time>2022-06-29T10:28:05.000Z</time>
      </trkpt>
      <trkpt lat="44.32957" lon="3.65206">
        <ele>995</ele>
        <time>2022-06-29T10:28:07.000Z</time>
      </trkpt>
      <trkpt lat="44.32957" lon="3.65207">
        <ele>995.20001220703</ele>
        <time>2022-06-29T10:28:08.000Z</time>
      </trkpt>
      <trkpt lat="44.32957" lon="3.65209">
        <ele>995.20001220703</ele>
        <time>2022-06-29T10:28:09.000Z</time>
      </trkpt>
      <trkpt lat="44.32956" lon="3.65211">
        <ele>995.40002441406</ele>
        <time>2022-06-29T10:28:11.000Z</time>
      </trkpt>
      <trkpt lat="44.32953" lon="3.65216">
        <ele>996.20001220703</ele>
        <time>2022-06-29T10:28:17.000Z</time>
      </trkpt>
      <trkpt lat="44.32951" lon="3.65222">
        <ele>996.20001220703</ele>
        <time>2022-06-29T10:28:22.000Z</time>
      </trkpt>
      <trkpt lat="44.32948" lon="3.65225">
        <ele>996.20001220703</ele>
        <time>2022-06-29T10:28:26.000Z</time>
      </trkpt>
      <trkpt lat="44.32945" lon="3.65229">
        <ele>996.59997558594</ele>
        <time>2022-06-29T10:28:31.000Z</time>
      </trkpt>
      <trkpt lat="44.32943" lon="3.6523">
        <ele>997</ele>
        <time>2022-06-29T10:28:33.000Z</time>
      </trkpt>
      <trkpt lat="44.32943" lon="3.65231">
        <ele>997.20001220703</ele>
        <time>2022-06-29T10:28:34.000Z</time>
      </trkpt>
      <trkpt lat="44.32943" lon="3.65232">
        <ele>997.40002441406</ele>
        <time>2022-06-29T10:28:35.000Z</time>
      </trkpt>
      <trkpt lat="44.32941" lon="3.65234">
        <ele>997.59997558594</ele>
        <time>2022-06-29T10:28:37.000Z</time>
      </trkpt>
      <trkpt lat="44.32939" lon="3.65237">
        <ele>997.79998779297</ele>
        <time>2022-06-29T10:28:41.000Z</time>
      </trkpt>
      <trkpt lat="44.32938" lon="3.65238">
        <ele>998</ele>
        <time>2022-06-29T10:28:42.000Z</time>
      </trkpt>
      <trkpt lat="44.32936" lon="3.6524">
        <ele>998.20001220703</ele>
        <time>2022-06-29T10:28:45.000Z</time>
      </trkpt>
      <trkpt lat="44.32933" lon="3.65243">
        <ele>998.59997558594</ele>
        <time>2022-06-29T10:28:49.000Z</time>
      </trkpt>
      <trkpt lat="44.32932" lon="3.65244">
        <ele>998.59997558594</ele>
        <time>2022-06-29T10:28:50.000Z</time>
      </trkpt>
      <trkpt lat="44.32929" lon="3.65247">
        <ele>999</ele>
        <time>2022-06-29T10:28:56.000Z</time>
      </trkpt>
      <trkpt lat="44.32927" lon="3.65248">
        <ele>999.40002441406</ele>
        <time>2022-06-29T10:29:00.000Z</time>
      </trkpt>
      <trkpt lat="44.32926" lon="3.6525">
        <ele>999.59997558594</ele>
        <time>2022-06-29T10:29:02.000Z</time>
      </trkpt>
      <trkpt lat="44.32924" lon="3.6525">
        <ele>999.59997558594</ele>
        <time>2022-06-29T10:29:04.000Z</time>
      </trkpt>
      <trkpt lat="44.3292" lon="3.65251">
        <ele>1000.200012207</ele>
        <time>2022-06-29T10:29:08.000Z</time>
      </trkpt>
      <trkpt lat="44.32915" lon="3.65253">
        <ele>1000.5999755859</ele>
        <time>2022-06-29T10:29:12.000Z</time>
      </trkpt>
      <trkpt lat="44.3291" lon="3.65256">
        <ele>1001.200012207</ele>
        <time>2022-06-29T10:29:18.000Z</time>
      </trkpt>
      <trkpt lat="44.32909" lon="3.65257">
        <ele>1001.200012207</ele>
        <time>2022-06-29T10:29:19.000Z</time>
      </trkpt>
      <trkpt lat="44.32908" lon="3.65258">
        <ele>1001.4000244141</ele>
        <time>2022-06-29T10:29:20.000Z</time>
      </trkpt>
      <trkpt lat="44.32907" lon="3.65259">
        <ele>1001.5999755859</ele>
        <time>2022-06-29T10:29:22.000Z</time>
      </trkpt>
      <trkpt lat="44.32905" lon="3.6526">
        <ele>1001.799987793</ele>
        <time>2022-06-29T10:29:24.000Z</time>
      </trkpt>
      <trkpt lat="44.32902" lon="3.65266">
        <ele>1002.200012207</ele>
        <time>2022-06-29T10:29:30.000Z</time>
      </trkpt>
      <trkpt lat="44.32899" lon="3.65268">
        <ele>1002.5999755859</ele>
        <time>2022-06-29T10:29:33.000Z</time>
      </trkpt>
      <trkpt lat="44.32899" lon="3.6527">
        <ele>1002.5999755859</ele>
        <time>2022-06-29T10:29:34.000Z</time>
      </trkpt>
      <trkpt lat="44.32897" lon="3.65276">
        <ele>1002.799987793</ele>
        <time>2022-06-29T10:29:39.000Z</time>
      </trkpt>
      <trkpt lat="44.32896" lon="3.65277">
        <ele>1002.799987793</ele>
        <time>2022-06-29T10:29:40.000Z</time>
      </trkpt>
      <trkpt lat="44.32893" lon="3.6528">
        <ele>1003</ele>
        <time>2022-06-29T10:29:45.000Z</time>
      </trkpt>
      <trkpt lat="44.32889" lon="3.65284">
        <ele>1003.4000244141</ele>
        <time>2022-06-29T10:29:50.000Z</time>
      </trkpt>
      <trkpt lat="44.32884" lon="3.65289">
        <ele>1003.4000244141</ele>
        <time>2022-06-29T10:29:56.000Z</time>
      </trkpt>
      <trkpt lat="44.32883" lon="3.65291">
        <ele>1003.4000244141</ele>
        <time>2022-06-29T10:29:58.000Z</time>
      </trkpt>
      <trkpt lat="44.32878" lon="3.65295">
        <ele>1003.5999755859</ele>
        <time>2022-06-29T10:30:04.000Z</time>
      </trkpt>
      <trkpt lat="44.32877" lon="3.65296">
        <ele>1003.799987793</ele>
        <time>2022-06-29T10:30:05.000Z</time>
      </trkpt>
      <trkpt lat="44.32874" lon="3.65301">
        <ele>1004.200012207</ele>
        <time>2022-06-29T10:30:11.000Z</time>
      </trkpt>
      <trkpt lat="44.3287" lon="3.65306">
        <ele>1004.200012207</ele>
        <time>2022-06-29T10:30:17.000Z</time>
      </trkpt>
      <trkpt lat="44.3287" lon="3.65307">
        <ele>1004.200012207</ele>
        <time>2022-06-29T10:30:18.000Z</time>
      </trkpt>
      <trkpt lat="44.32866" lon="3.65314">
        <ele>1004.4000244141</ele>
        <time>2022-06-29T10:30:24.000Z</time>
      </trkpt>
      <trkpt lat="44.32866" lon="3.65314">
        <ele>1004.5999755859</ele>
        <time>2022-06-29T10:30:25.000Z</time>
      </trkpt>
      <trkpt lat="44.3286" lon="3.65319">
        <ele>1004.5999755859</ele>
        <time>2022-06-29T10:30:31.000Z</time>
      </trkpt>
      <trkpt lat="44.32859" lon="3.6532">
        <ele>1004.5999755859</ele>
        <time>2022-06-29T10:30:32.000Z</time>
      </trkpt>
      <trkpt lat="44.32857" lon="3.65323">
        <ele>1004.5999755859</ele>
        <time>2022-06-29T10:30:35.000Z</time>
      </trkpt>
      <trkpt lat="44.32856" lon="3.65323">
        <ele>1004.799987793</ele>
        <time>2022-06-29T10:30:36.000Z</time>
      </trkpt>
      <trkpt lat="44.32851" lon="3.65328">
        <ele>1005</ele>
        <time>2022-06-29T10:30:42.000Z</time>
      </trkpt>
      <trkpt lat="44.32847" lon="3.65332">
        <ele>1004.799987793</ele>
        <time>2022-06-29T10:30:47.000Z</time>
      </trkpt>
      <trkpt lat="44.32846" lon="3.65334">
        <ele>1004.799987793</ele>
        <time>2022-06-29T10:30:49.000Z</time>
      </trkpt>
      <trkpt lat="44.32844" lon="3.65335">
        <ele>1004.799987793</ele>
        <time>2022-06-29T10:30:51.000Z</time>
      </trkpt>
      <trkpt lat="44.3284" lon="3.65338">
        <ele>1004.799987793</ele>
        <time>2022-06-29T10:30:57.000Z</time>
      </trkpt>
      <trkpt lat="44.3284" lon="3.65339">
        <ele>1004.799987793</ele>
        <time>2022-06-29T10:30:58.000Z</time>
      </trkpt>
      <trkpt lat="44.32839" lon="3.6534">
        <ele>1004.799987793</ele>
        <time>2022-06-29T10:30:59.000Z</time>
      </trkpt>
      <trkpt lat="44.32837" lon="3.65345">
        <ele>1005.200012207</ele>
        <time>2022-06-29T10:31:05.000Z</time>
      </trkpt>
      <trkpt lat="44.32835" lon="3.65352">
        <ele>1005.4000244141</ele>
        <time>2022-06-29T10:31:11.000Z</time>
      </trkpt>
      <trkpt lat="44.32835" lon="3.65354">
        <ele>1005.5999755859</ele>
        <time>2022-06-29T10:31:12.000Z</time>
      </trkpt>
      <trkpt lat="44.32835" lon="3.65358">
        <ele>1005.799987793</ele>
        <time>2022-06-29T10:31:15.000Z</time>
      </trkpt>
      <trkpt lat="44.32834" lon="3.65361">
        <ele>1005.799987793</ele>
        <time>2022-06-29T10:31:18.000Z</time>
      </trkpt>
      <trkpt lat="44.32834" lon="3.65369">
        <ele>1006</ele>
        <time>2022-06-29T10:31:24.000Z</time>
      </trkpt>
      <trkpt lat="44.32834" lon="3.65372">
        <ele>1006</ele>
        <time>2022-06-29T10:31:26.000Z</time>
      </trkpt>
      <trkpt lat="44.32835" lon="3.6538">
        <ele>1006.4000244141</ele>
        <time>2022-06-29T10:31:32.000Z</time>
      </trkpt>
      <trkpt lat="44.32836" lon="3.65381">
        <ele>1006.4000244141</ele>
        <time>2022-06-29T10:31:33.000Z</time>
      </trkpt>
      <trkpt lat="44.32837" lon="3.65388">
        <ele>1006.5999755859</ele>
        <time>2022-06-29T10:31:39.000Z</time>
      </trkpt>
      <trkpt lat="44.32837" lon="3.6539">
        <ele>1006.5999755859</ele>
        <time>2022-06-29T10:31:40.000Z</time>
      </trkpt>
      <trkpt lat="44.32837" lon="3.65395">
        <ele>1006.5999755859</ele>
        <time>2022-06-29T10:31:46.000Z</time>
      </trkpt>
      <trkpt lat="44.32838" lon="3.65397">
        <ele>1006.799987793</ele>
        <time>2022-06-29T10:31:47.000Z</time>
      </trkpt>
      <trkpt lat="44.32839" lon="3.65403">
        <ele>1007</ele>
        <time>2022-06-29T10:31:53.000Z</time>
      </trkpt>
      <trkpt lat="44.32839" lon="3.65405">
        <ele>1007</ele>
        <time>2022-06-29T10:31:55.000Z</time>
      </trkpt>
      <trkpt lat="44.3284" lon="3.65408">
        <ele>1007.200012207</ele>
        <time>2022-06-29T10:31:58.000Z</time>
      </trkpt>
      <trkpt lat="44.32841" lon="3.65408">
        <ele>1007.200012207</ele>
        <time>2022-06-29T10:31:59.000Z</time>
      </trkpt>
      <trkpt lat="44.32843" lon="3.65416">
        <ele>1007.4000244141</ele>
        <time>2022-06-29T10:32:05.000Z</time>
      </trkpt>
      <trkpt lat="44.32845" lon="3.65421">
        <ele>1007.4000244141</ele>
        <time>2022-06-29T10:32:09.000Z</time>
      </trkpt>
      <trkpt lat="44.32846" lon="3.65428">
        <ele>1007.5999755859</ele>
        <time>2022-06-29T10:32:15.000Z</time>
      </trkpt>
      <trkpt lat="44.32847" lon="3.65431">
        <ele>1007.799987793</ele>
        <time>2022-06-29T10:32:17.000Z</time>
      </trkpt>
      <trkpt lat="44.32849" lon="3.65437">
        <ele>1008</ele>
        <time>2022-06-29T10:32:23.000Z</time>
      </trkpt>
      <trkpt lat="44.3285" lon="3.65438">
        <ele>1008.200012207</ele>
        <time>2022-06-29T10:32:24.000Z</time>
      </trkpt>
      <trkpt lat="44.32851" lon="3.65443">
        <ele>1008.4000244141</ele>
        <time>2022-06-29T10:32:30.000Z</time>
      </trkpt>
      <trkpt lat="44.32852" lon="3.6545">
        <ele>1008.5999755859</ele>
        <time>2022-06-29T10:32:36.000Z</time>
      </trkpt>
      <trkpt lat="44.32852" lon="3.65451">
        <ele>1008.5999755859</ele>
        <time>2022-06-29T10:32:37.000Z</time>
      </trkpt>
      <trkpt lat="44.32853" lon="3.65457">
        <ele>1008.799987793</ele>
        <time>2022-06-29T10:32:42.000Z</time>
      </trkpt>
      <trkpt lat="44.32853" lon="3.65458">
        <ele>1008.799987793</ele>
        <time>2022-06-29T10:32:43.000Z</time>
      </trkpt>
      <trkpt lat="44.32855" lon="3.65465">
        <ele>1009.200012207</ele>
        <time>2022-06-29T10:32:49.000Z</time>
      </trkpt>
      <trkpt lat="44.32856" lon="3.65466">
        <ele>1009.200012207</ele>
        <time>2022-06-29T10:32:50.000Z</time>
      </trkpt>
      <trkpt lat="44.32858" lon="3.65473">
        <ele>1009.4000244141</ele>
        <time>2022-06-29T10:32:56.000Z</time>
      </trkpt>
      <trkpt lat="44.32859" lon="3.65475">
        <ele>1009.4000244141</ele>
        <time>2022-06-29T10:32:58.000Z</time>
      </trkpt>
      <trkpt lat="44.3286" lon="3.65478">
        <ele>1009.5999755859</ele>
        <time>2022-06-29T10:33:00.000Z</time>
      </trkpt>
      <trkpt lat="44.32861" lon="3.65483">
        <ele>1009.5999755859</ele>
        <time>2022-06-29T10:33:04.000Z</time>
      </trkpt>
      <trkpt lat="44.32862" lon="3.65491">
        <ele>1009.5999755859</ele>
        <time>2022-06-29T10:33:10.000Z</time>
      </trkpt>
      <trkpt lat="44.32862" lon="3.655">
        <ele>1010</ele>
        <time>2022-06-29T10:33:16.000Z</time>
      </trkpt>
      <trkpt lat="44.32863" lon="3.65501">
        <ele>1010</ele>
        <time>2022-06-29T10:33:17.000Z</time>
      </trkpt>
      <trkpt lat="44.32864" lon="3.65508">
        <ele>1010.200012207</ele>
        <time>2022-06-29T10:33:23.000Z</time>
      </trkpt>
      <trkpt lat="44.32866" lon="3.65516">
        <ele>1010.4000244141</ele>
        <time>2022-06-29T10:33:29.000Z</time>
      </trkpt>
      <trkpt lat="44.32867" lon="3.65524">
        <ele>1010.4000244141</ele>
        <time>2022-06-29T10:33:35.000Z</time>
      </trkpt>
      <trkpt lat="44.32868" lon="3.65527">
        <ele>1010.4000244141</ele>
        <time>2022-06-29T10:33:38.000Z</time>
      </trkpt>
      <trkpt lat="44.32869" lon="3.65531">
        <ele>1010.799987793</ele>
        <time>2022-06-29T10:33:42.000Z</time>
      </trkpt>
      <trkpt lat="44.32869" lon="3.65533">
        <ele>1011</ele>
        <time>2022-06-29T10:33:44.000Z</time>
      </trkpt>
      <trkpt lat="44.3287" lon="3.65535">
        <ele>1011</ele>
        <time>2022-06-29T10:33:46.000Z</time>
      </trkpt>
      <trkpt lat="44.3287" lon="3.65537">
        <ele>1011</ele>
        <time>2022-06-29T10:33:47.000Z</time>
      </trkpt>
      <trkpt lat="44.32872" lon="3.65542">
        <ele>1011.200012207</ele>
        <time>2022-06-29T10:33:52.000Z</time>
      </trkpt>
      <trkpt lat="44.32872" lon="3.65543">
        <ele>1011.200012207</ele>
        <time>2022-06-29T10:33:53.000Z</time>
      </trkpt>
      <trkpt lat="44.32874" lon="3.65545">
        <ele>1011.4000244141</ele>
        <time>2022-06-29T10:33:55.000Z</time>
      </trkpt>
      <trkpt lat="44.32878" lon="3.65549">
        <ele>1011.799987793</ele>
        <time>2022-06-29T10:34:01.000Z</time>
      </trkpt>
      <trkpt lat="44.32882" lon="3.65553">
        <ele>1011.799987793</ele>
        <time>2022-06-29T10:34:07.000Z</time>
      </trkpt>
      <trkpt lat="44.32883" lon="3.65555">
        <ele>1011.799987793</ele>
        <time>2022-06-29T10:34:08.000Z</time>
      </trkpt>
      <trkpt lat="44.32883" lon="3.65555">
        <ele>1012</ele>
        <time>2022-06-29T10:34:09.000Z</time>
      </trkpt>
      <trkpt lat="44.32884" lon="3.65556">
        <ele>1012</ele>
        <time>2022-06-29T10:34:10.000Z</time>
      </trkpt>
      <trkpt lat="44.32889" lon="3.65561">
        <ele>1012.200012207</ele>
        <time>2022-06-29T10:34:16.000Z</time>
      </trkpt>
      <trkpt lat="44.3289" lon="3.65565">
        <ele>1012.4000244141</ele>
        <time>2022-06-29T10:34:21.000Z</time>
      </trkpt>
      <trkpt lat="44.32892" lon="3.65567">
        <ele>1012.4000244141</ele>
        <time>2022-06-29T10:34:27.000Z</time>
      </trkpt>
      <trkpt lat="44.32896" lon="3.6557">
        <ele>1012.4000244141</ele>
        <time>2022-06-29T10:34:32.000Z</time>
      </trkpt>
      <trkpt lat="44.32897" lon="3.65572">
        <ele>1012.4000244141</ele>
        <time>2022-06-29T10:34:34.000Z</time>
      </trkpt>
      <trkpt lat="44.329" lon="3.65574">
        <ele>1012.200012207</ele>
        <time>2022-06-29T10:34:37.000Z</time>
      </trkpt>
      <trkpt lat="44.32905" lon="3.6558">
        <ele>1012.4000244141</ele>
        <time>2022-06-29T10:34:43.000Z</time>
      </trkpt>
      <trkpt lat="44.32905" lon="3.65582">
        <ele>1012.4000244141</ele>
        <time>2022-06-29T10:34:44.000Z</time>
      </trkpt>
      <trkpt lat="44.32908" lon="3.65591">
        <ele>1012.5999755859</ele>
        <time>2022-06-29T10:34:50.000Z</time>
      </trkpt>
      <trkpt lat="44.32913" lon="3.656">
        <ele>1012.799987793</ele>
        <time>2022-06-29T10:34:56.000Z</time>
      </trkpt>
      <trkpt lat="44.32914" lon="3.65603">
        <ele>1012.799987793</ele>
        <time>2022-06-29T10:34:58.000Z</time>
      </trkpt>
      <trkpt lat="44.32917" lon="3.65611">
        <ele>1013</ele>
        <time>2022-06-29T10:35:04.000Z</time>
      </trkpt>
      <trkpt lat="44.32917" lon="3.65612">
        <ele>1013</ele>
        <time>2022-06-29T10:35:05.000Z</time>
      </trkpt>
      <trkpt lat="44.32919" lon="3.65618">
        <ele>1013</ele>
        <time>2022-06-29T10:35:10.000Z</time>
      </trkpt>
      <trkpt lat="44.32922" lon="3.65625">
        <ele>1013</ele>
        <time>2022-06-29T10:35:16.000Z</time>
      </trkpt>
      <trkpt lat="44.32925" lon="3.65633">
        <ele>1013.4000244141</ele>
        <time>2022-06-29T10:35:22.000Z</time>
      </trkpt>
      <trkpt lat="44.32926" lon="3.65636">
        <ele>1013.5999755859</ele>
        <time>2022-06-29T10:35:25.000Z</time>
      </trkpt>
      <trkpt lat="44.32927" lon="3.6564">
        <ele>1013.5999755859</ele>
        <time>2022-06-29T10:35:28.000Z</time>
      </trkpt>
      <trkpt lat="44.3293" lon="3.65647">
        <ele>1013.5999755859</ele>
        <time>2022-06-29T10:35:34.000Z</time>
      </trkpt>
      <trkpt lat="44.32931" lon="3.65655">
        <ele>1013.799987793</ele>
        <time>2022-06-29T10:35:39.000Z</time>
      </trkpt>
      <trkpt lat="44.32933" lon="3.6566">
        <ele>1014</ele>
        <time>2022-06-29T10:35:43.000Z</time>
      </trkpt>
      <trkpt lat="44.32934" lon="3.65668">
        <ele>1014.200012207</ele>
        <time>2022-06-29T10:35:49.000Z</time>
      </trkpt>
      <trkpt lat="44.32935" lon="3.65674">
        <ele>1014.200012207</ele>
        <time>2022-06-29T10:35:53.000Z</time>
      </trkpt>
      <trkpt lat="44.32933" lon="3.65684">
        <ele>1014.4000244141</ele>
        <time>2022-06-29T10:35:59.000Z</time>
      </trkpt>
      <trkpt lat="44.32934" lon="3.65692">
        <ele>1014.4000244141</ele>
        <time>2022-06-29T10:36:05.000Z</time>
      </trkpt>
      <trkpt lat="44.32934" lon="3.65692">
        <ele>1014.4000244141</ele>
        <time>2022-06-29T10:36:06.000Z</time>
      </trkpt>
      <trkpt lat="44.32934" lon="3.65701">
        <ele>1014.799987793</ele>
        <time>2022-06-29T10:36:12.000Z</time>
      </trkpt>
      <trkpt lat="44.32933" lon="3.65708">
        <ele>1015</ele>
        <time>2022-06-29T10:36:18.000Z</time>
      </trkpt>
      <trkpt lat="44.32932" lon="3.6571">
        <ele>1015.4000244141</ele>
        <time>2022-06-29T10:36:20.000Z</time>
      </trkpt>
      <trkpt lat="44.32928" lon="3.65717">
        <ele>1015.4000244141</ele>
        <time>2022-06-29T10:36:25.000Z</time>
      </trkpt>
      <trkpt lat="44.32927" lon="3.65723">
        <ele>1015.200012207</ele>
        <time>2022-06-29T10:36:31.000Z</time>
      </trkpt>
      <trkpt lat="44.32926" lon="3.65724">
        <ele>1015.200012207</ele>
        <time>2022-06-29T10:36:32.000Z</time>
      </trkpt>
      <trkpt lat="44.32926" lon="3.65725">
        <ele>1015.4000244141</ele>
        <time>2022-06-29T10:36:33.000Z</time>
      </trkpt>
      <trkpt lat="44.32925" lon="3.65726">
        <ele>1015.4000244141</ele>
        <time>2022-06-29T10:36:34.000Z</time>
      </trkpt>
      <trkpt lat="44.32923" lon="3.65731">
        <ele>1015.5999755859</ele>
        <time>2022-06-29T10:36:38.000Z</time>
      </trkpt>
      <trkpt lat="44.32922" lon="3.65732">
        <ele>1015.5999755859</ele>
        <time>2022-06-29T10:36:41.000Z</time>
      </trkpt>
      <trkpt lat="44.32922" lon="3.65733">
        <ele>1015.799987793</ele>
        <time>2022-06-29T10:36:44.000Z</time>
      </trkpt>
      <trkpt lat="44.32922" lon="3.65733">
        <ele>1015.5999755859</ele>
        <time>2022-06-29T10:36:50.000Z</time>
      </trkpt>
      <trkpt lat="44.32922" lon="3.65733">
        <ele>1015.200012207</ele>
        <time>2022-06-29T10:36:56.000Z</time>
      </trkpt>
      <trkpt lat="44.32922" lon="3.65734">
        <ele>1015.4000244141</ele>
        <time>2022-06-29T10:37:02.000Z</time>
      </trkpt>
      <trkpt lat="44.32922" lon="3.65734">
        <ele>1015.4000244141</ele>
        <time>2022-06-29T10:37:03.000Z</time>
      </trkpt>
      <trkpt lat="44.32922" lon="3.65734">
        <ele>1015.4000244141</ele>
        <time>2022-06-29T10:37:07.000Z</time>
      </trkpt>
      <trkpt lat="44.32922" lon="3.65736">
        <ele>1015.4000244141</ele>
        <time>2022-06-29T10:37:09.000Z</time>
      </trkpt>
      <trkpt lat="44.32922" lon="3.65743">
        <ele>1015.4000244141</ele>
        <time>2022-06-29T10:37:15.000Z</time>
      </trkpt>
      <trkpt lat="44.3292" lon="3.65751">
        <ele>1015.5999755859</ele>
        <time>2022-06-29T10:37:21.000Z</time>
      </trkpt>
      <trkpt lat="44.32921" lon="3.65758">
        <ele>1016</ele>
        <time>2022-06-29T10:37:27.000Z</time>
      </trkpt>
      <trkpt lat="44.32921" lon="3.65761">
        <ele>1016</ele>
        <time>2022-06-29T10:37:29.000Z</time>
      </trkpt>
      <trkpt lat="44.32922" lon="3.65765">
        <ele>1016</ele>
        <time>2022-06-29T10:37:32.000Z</time>
      </trkpt>
      <trkpt lat="44.32918" lon="3.65774">
        <ele>1016.200012207</ele>
        <time>2022-06-29T10:37:38.000Z</time>
      </trkpt>
      <trkpt lat="44.32916" lon="3.6578">
        <ele>1016.5999755859</ele>
        <time>2022-06-29T10:37:42.000Z</time>
      </trkpt>
      <trkpt lat="44.32911" lon="3.65787">
        <ele>1017</ele>
        <time>2022-06-29T10:37:48.000Z</time>
      </trkpt>
      <trkpt lat="44.32911" lon="3.6579">
        <ele>1017</ele>
        <time>2022-06-29T10:37:50.000Z</time>
      </trkpt>
      <trkpt lat="44.32908" lon="3.65794">
        <ele>1017.200012207</ele>
        <time>2022-06-29T10:37:54.000Z</time>
      </trkpt>
      <trkpt lat="44.32907" lon="3.65796">
        <ele>1017.200012207</ele>
        <time>2022-06-29T10:37:55.000Z</time>
      </trkpt>
      <trkpt lat="44.32903" lon="3.65802">
        <ele>1017.5999755859</ele>
        <time>2022-06-29T10:38:01.000Z</time>
      </trkpt>
      <trkpt lat="44.32899" lon="3.65808">
        <ele>1017.5999755859</ele>
        <time>2022-06-29T10:38:07.000Z</time>
      </trkpt>
      <trkpt lat="44.32897" lon="3.65812">
        <ele>1017.5999755859</ele>
        <time>2022-06-29T10:38:10.000Z</time>
      </trkpt>
      <trkpt lat="44.32894" lon="3.65819">
        <ele>1017.4000244141</ele>
        <time>2022-06-29T10:38:16.000Z</time>
      </trkpt>
      <trkpt lat="44.32895" lon="3.65826">
        <ele>1017.5999755859</ele>
        <time>2022-06-29T10:38:21.000Z</time>
      </trkpt>
      <trkpt lat="44.32897" lon="3.65834">
        <ele>1017.5999755859</ele>
        <time>2022-06-29T10:38:27.000Z</time>
      </trkpt>
      <trkpt lat="44.32898" lon="3.65843">
        <ele>1017.5999755859</ele>
        <time>2022-06-29T10:38:33.000Z</time>
      </trkpt>
      <trkpt lat="44.32898" lon="3.65846">
        <ele>1017.799987793</ele>
        <time>2022-06-29T10:38:35.000Z</time>
      </trkpt>
      <trkpt lat="44.32899" lon="3.65853">
        <ele>1018.200012207</ele>
        <time>2022-06-29T10:38:40.000Z</time>
      </trkpt>
      <trkpt lat="44.329" lon="3.65859">
        <ele>1018.200012207</ele>
        <time>2022-06-29T10:38:44.000Z</time>
      </trkpt>
      <trkpt lat="44.329" lon="3.65863">
        <ele>1018.200012207</ele>
        <time>2022-06-29T10:38:46.000Z</time>
      </trkpt>
      <trkpt lat="44.329" lon="3.65867">
        <ele>1018</ele>
        <time>2022-06-29T10:38:49.000Z</time>
      </trkpt>
      <trkpt lat="44.329" lon="3.65869">
        <ele>1018.200012207</ele>
        <time>2022-06-29T10:38:50.000Z</time>
      </trkpt>
      <trkpt lat="44.329" lon="3.65877">
        <ele>1018.4000244141</ele>
        <time>2022-06-29T10:38:56.000Z</time>
      </trkpt>
      <trkpt lat="44.32898" lon="3.65887">
        <ele>1018.5999755859</ele>
        <time>2022-06-29T10:39:02.000Z</time>
      </trkpt>
      <trkpt lat="44.32897" lon="3.6589">
        <ele>1018.5999755859</ele>
        <time>2022-06-29T10:39:04.000Z</time>
      </trkpt>
      <trkpt lat="44.32896" lon="3.65899">
        <ele>1018.799987793</ele>
        <time>2022-06-29T10:39:08.000Z</time>
      </trkpt>
      <trkpt lat="44.32894" lon="3.65907">
        <ele>1019</ele>
        <time>2022-06-29T10:39:14.000Z</time>
      </trkpt>
      <trkpt lat="44.32892" lon="3.6591">
        <ele>1018.799987793</ele>
        <time>2022-06-29T10:39:17.000Z</time>
      </trkpt>
      <trkpt lat="44.32888" lon="3.65919">
        <ele>1018.799987793</ele>
        <time>2022-06-29T10:39:23.000Z</time>
      </trkpt>
      <trkpt lat="44.32886" lon="3.65924">
        <ele>1018.799987793</ele>
        <time>2022-06-29T10:39:28.000Z</time>
      </trkpt>
      <trkpt lat="44.32886" lon="3.65925">
        <ele>1019</ele>
        <time>2022-06-29T10:39:29.000Z</time>
      </trkpt>
      <trkpt lat="44.32885" lon="3.65926">
        <ele>1019</ele>
        <time>2022-06-29T10:39:30.000Z</time>
      </trkpt>
      <trkpt lat="44.32884" lon="3.6593">
        <ele>1019.200012207</ele>
        <time>2022-06-29T10:39:33.000Z</time>
      </trkpt>
      <trkpt lat="44.32883" lon="3.65937">
        <ele>1019.4000244141</ele>
        <time>2022-06-29T10:39:39.000Z</time>
      </trkpt>
      <trkpt lat="44.32883" lon="3.65939">
        <ele>1019.4000244141</ele>
        <time>2022-06-29T10:39:41.000Z</time>
      </trkpt>
      <trkpt lat="44.32881" lon="3.65944">
        <ele>1019.4000244141</ele>
        <time>2022-06-29T10:39:44.000Z</time>
      </trkpt>
      <trkpt lat="44.32877" lon="3.65951">
        <ele>1019.5999755859</ele>
        <time>2022-06-29T10:39:50.000Z</time>
      </trkpt>
      <trkpt lat="44.32874" lon="3.65957">
        <ele>1019.5999755859</ele>
        <time>2022-06-29T10:39:56.000Z</time>
      </trkpt>
      <trkpt lat="44.32873" lon="3.65959">
        <ele>1019.799987793</ele>
        <time>2022-06-29T10:39:58.000Z</time>
      </trkpt>
      <trkpt lat="44.32869" lon="3.65966">
        <ele>1019.799987793</ele>
        <time>2022-06-29T10:40:04.000Z</time>
      </trkpt>
      <trkpt lat="44.32866" lon="3.65974">
        <ele>1019.799987793</ele>
        <time>2022-06-29T10:40:10.000Z</time>
      </trkpt>
      <trkpt lat="44.32863" lon="3.65979">
        <ele>1020</ele>
        <time>2022-06-29T10:40:14.000Z</time>
      </trkpt>
      <trkpt lat="44.32861" lon="3.65987">
        <ele>1020</ele>
        <time>2022-06-29T10:40:20.000Z</time>
      </trkpt>
      <trkpt lat="44.32859" lon="3.65995">
        <ele>1020</ele>
        <time>2022-06-29T10:40:26.000Z</time>
      </trkpt>
      <trkpt lat="44.32857" lon="3.66">
        <ele>1020</ele>
        <time>2022-06-29T10:40:29.000Z</time>
      </trkpt>
      <trkpt lat="44.32855" lon="3.66009">
        <ele>1019.799987793</ele>
        <time>2022-06-29T10:40:35.000Z</time>
      </trkpt>
      <trkpt lat="44.32853" lon="3.66019">
        <ele>1020.200012207</ele>
        <time>2022-06-29T10:40:41.000Z</time>
      </trkpt>
      <trkpt lat="44.32853" lon="3.66021">
        <ele>1020.200012207</ele>
        <time>2022-06-29T10:40:42.000Z</time>
      </trkpt>
      <trkpt lat="44.32853" lon="3.66022">
        <ele>1020.200012207</ele>
        <time>2022-06-29T10:40:44.000Z</time>
      </trkpt>
      <trkpt lat="44.32852" lon="3.66023">
        <ele>1020.200012207</ele>
        <time>2022-06-29T10:40:45.000Z</time>
      </trkpt>
      <trkpt lat="44.32852" lon="3.66023">
        <ele>1020.200012207</ele>
        <time>2022-06-29T10:40:47.000Z</time>
      </trkpt>
      <trkpt lat="44.3285" lon="3.66026">
        <ele>1020</ele>
        <time>2022-06-29T10:40:52.000Z</time>
      </trkpt>
      <trkpt lat="44.32849" lon="3.66028">
        <ele>1020</ele>
        <time>2022-06-29T10:40:53.000Z</time>
      </trkpt>
      <trkpt lat="44.32849" lon="3.66029">
        <ele>1020</ele>
        <time>2022-06-29T10:40:54.000Z</time>
      </trkpt>
      <trkpt lat="44.32845" lon="3.66033">
        <ele>1020</ele>
        <time>2022-06-29T10:40:58.000Z</time>
      </trkpt>
      <trkpt lat="44.32842" lon="3.66038">
        <ele>1020</ele>
        <time>2022-06-29T10:41:03.000Z</time>
      </trkpt>
      <trkpt lat="44.3284" lon="3.66041">
        <ele>1020.200012207</ele>
        <time>2022-06-29T10:41:07.000Z</time>
      </trkpt>
      <trkpt lat="44.32837" lon="3.66047">
        <ele>1020.200012207</ele>
        <time>2022-06-29T10:41:13.000Z</time>
      </trkpt>
      <trkpt lat="44.32834" lon="3.66053">
        <ele>1020.200012207</ele>
        <time>2022-06-29T10:41:18.000Z</time>
      </trkpt>
      <trkpt lat="44.32833" lon="3.66054">
        <ele>1020.200012207</ele>
        <time>2022-06-29T10:41:19.000Z</time>
      </trkpt>
      <trkpt lat="44.32831" lon="3.66061">
        <ele>1020.200012207</ele>
        <time>2022-06-29T10:41:25.000Z</time>
      </trkpt>
      <trkpt lat="44.32826" lon="3.66066">
        <ele>1020.4000244141</ele>
        <time>2022-06-29T10:41:31.000Z</time>
      </trkpt>
      <trkpt lat="44.32822" lon="3.6607">
        <ele>1020.799987793</ele>
        <time>2022-06-29T10:41:37.000Z</time>
      </trkpt>
      <trkpt lat="44.3282" lon="3.66073">
        <ele>1021.200012207</ele>
        <time>2022-06-29T10:41:41.000Z</time>
      </trkpt>
      <trkpt lat="44.32817" lon="3.66076">
        <ele>1021.4000244141</ele>
        <time>2022-06-29T10:41:44.000Z</time>
      </trkpt>
      <trkpt lat="44.32813" lon="3.6608">
        <ele>1021.200012207</ele>
        <time>2022-06-29T10:41:50.000Z</time>
      </trkpt>
      <trkpt lat="44.32812" lon="3.6608">
        <ele>1021.200012207</ele>
        <time>2022-06-29T10:41:51.000Z</time>
      </trkpt>
      <trkpt lat="44.32811" lon="3.6608">
        <ele>1021.4000244141</ele>
        <time>2022-06-29T10:41:56.000Z</time>
      </trkpt>
      <trkpt lat="44.32809" lon="3.66082">
        <ele>1021</ele>
        <time>2022-06-29T10:42:02.000Z</time>
      </trkpt>
      <trkpt lat="44.32806" lon="3.66085">
        <ele>1021</ele>
        <time>2022-06-29T10:42:06.000Z</time>
      </trkpt>
      <trkpt lat="44.32804" lon="3.6609">
        <ele>1021</ele>
        <time>2022-06-29T10:42:11.000Z</time>
      </trkpt>
      <trkpt lat="44.32803" lon="3.66096">
        <ele>1020.5999755859</ele>
        <time>2022-06-29T10:42:17.000Z</time>
      </trkpt>
      <trkpt lat="44.32803" lon="3.66096">
        <ele>1020.5999755859</ele>
        <time>2022-06-29T10:42:18.000Z</time>
      </trkpt>
      <trkpt lat="44.32802" lon="3.66097">
        <ele>1020.4000244141</ele>
        <time>2022-06-29T10:42:20.000Z</time>
      </trkpt>
      <trkpt lat="44.32805" lon="3.66102">
        <ele>1020.799987793</ele>
        <time>2022-06-29T10:42:26.000Z</time>
      </trkpt>
      <trkpt lat="44.32806" lon="3.66104">
        <ele>1020.5999755859</ele>
        <time>2022-06-29T10:42:28.000Z</time>
      </trkpt>
      <trkpt lat="44.32807" lon="3.66109">
        <ele>1020.4000244141</ele>
        <time>2022-06-29T10:42:33.000Z</time>
      </trkpt>
      <trkpt lat="44.32807" lon="3.66112">
        <ele>1020.200012207</ele>
        <time>2022-06-29T10:42:35.000Z</time>
      </trkpt>
      <trkpt lat="44.32809" lon="3.66121">
        <ele>1019.799987793</ele>
        <time>2022-06-29T10:42:41.000Z</time>
      </trkpt>
      <trkpt lat="44.32807" lon="3.66131">
        <ele>1019.5999755859</ele>
        <time>2022-06-29T10:42:47.000Z</time>
      </trkpt>
      <trkpt lat="44.32807" lon="3.66133">
        <ele>1019.5999755859</ele>
        <time>2022-06-29T10:42:48.000Z</time>
      </trkpt>
      <trkpt lat="44.32806" lon="3.66138">
        <ele>1019.5999755859</ele>
        <time>2022-06-29T10:42:51.000Z</time>
      </trkpt>
      <trkpt lat="44.32805" lon="3.66147">
        <ele>1019.4000244141</ele>
        <time>2022-06-29T10:42:56.000Z</time>
      </trkpt>
      <trkpt lat="44.32804" lon="3.6615">
        <ele>1019.4000244141</ele>
        <time>2022-06-29T10:42:58.000Z</time>
      </trkpt>
      <trkpt lat="44.32803" lon="3.66155">
        <ele>1019.200012207</ele>
        <time>2022-06-29T10:43:02.000Z</time>
      </trkpt>
      <trkpt lat="44.32803" lon="3.66157">
        <ele>1019.200012207</ele>
        <time>2022-06-29T10:43:03.000Z</time>
      </trkpt>
      <trkpt lat="44.32802" lon="3.66159">
        <ele>1019</ele>
        <time>2022-06-29T10:43:05.000Z</time>
      </trkpt>
      <trkpt lat="44.32803" lon="3.66161">
        <ele>1019.200012207</ele>
        <time>2022-06-29T10:43:08.000Z</time>
      </trkpt>
      <trkpt lat="44.32803" lon="3.66164">
        <ele>1019</ele>
        <time>2022-06-29T10:43:14.000Z</time>
      </trkpt>
      <trkpt lat="44.32803" lon="3.66164">
        <ele>1019</ele>
        <time>2022-06-29T10:43:15.000Z</time>
      </trkpt>
      <trkpt lat="44.32802" lon="3.66164">
        <ele>1019</ele>
        <time>2022-06-29T10:43:16.000Z</time>
      </trkpt>
      <trkpt lat="44.32801" lon="3.66164">
        <ele>1018.799987793</ele>
        <time>2022-06-29T10:43:20.000Z</time>
      </trkpt>
      <trkpt lat="44.328" lon="3.66164">
        <ele>1018.799987793</ele>
        <time>2022-06-29T10:43:22.000Z</time>
      </trkpt>
      <trkpt lat="44.328" lon="3.66165">
        <ele>1018.799987793</ele>
        <time>2022-06-29T10:43:23.000Z</time>
      </trkpt>
      <trkpt lat="44.328" lon="3.66165">
        <ele>1018.799987793</ele>
        <time>2022-06-29T10:43:24.000Z</time>
      </trkpt>
      <trkpt lat="44.32801" lon="3.66166">
        <ele>1018.799987793</ele>
        <time>2022-06-29T10:43:26.000Z</time>
      </trkpt>
      <trkpt lat="44.32804" lon="3.6617">
        <ele>1018.5999755859</ele>
        <time>2022-06-29T10:43:30.000Z</time>
      </trkpt>
      <trkpt lat="44.32808" lon="3.66175">
        <ele>1018.5999755859</ele>
        <time>2022-06-29T10:43:34.000Z</time>
      </trkpt>
      <trkpt lat="44.32809" lon="3.66178">
        <ele>1018.5999755859</ele>
        <time>2022-06-29T10:43:36.000Z</time>
      </trkpt>
      <trkpt lat="44.3281" lon="3.6618">
        <ele>1018.5999755859</ele>
        <time>2022-06-29T10:43:38.000Z</time>
      </trkpt>
      <trkpt lat="44.32811" lon="3.66183">
        <ele>1018.5999755859</ele>
        <time>2022-06-29T10:43:40.000Z</time>
      </trkpt>
      <trkpt lat="44.32812" lon="3.66185">
        <ele>1018.5999755859</ele>
        <time>2022-06-29T10:43:41.000Z</time>
      </trkpt>
      <trkpt lat="44.32813" lon="3.66189">
        <ele>1018.5999755859</ele>
        <time>2022-06-29T10:43:43.000Z</time>
      </trkpt>
      <trkpt lat="44.32814" lon="3.66193">
        <ele>1018.799987793</ele>
        <time>2022-06-29T10:43:46.000Z</time>
      </trkpt>
      <trkpt lat="44.32815" lon="3.66203">
        <ele>1018.799987793</ele>
        <time>2022-06-29T10:43:52.000Z</time>
      </trkpt>
      <trkpt lat="44.32815" lon="3.66205">
        <ele>1019</ele>
        <time>2022-06-29T10:43:54.000Z</time>
      </trkpt>
      <trkpt lat="44.32816" lon="3.66209">
        <ele>1019</ele>
        <time>2022-06-29T10:43:56.000Z</time>
      </trkpt>
      <trkpt lat="44.32818" lon="3.66212">
        <ele>1019.200012207</ele>
        <time>2022-06-29T10:43:59.000Z</time>
      </trkpt>
      <trkpt lat="44.32821" lon="3.66218">
        <ele>1019</ele>
        <time>2022-06-29T10:44:04.000Z</time>
      </trkpt>
      <trkpt lat="44.32823" lon="3.66221">
        <ele>1019.200012207</ele>
        <time>2022-06-29T10:44:09.000Z</time>
      </trkpt>
      <trkpt lat="44.32823" lon="3.66221">
        <ele>1019.200012207</ele>
        <time>2022-06-29T10:44:10.000Z</time>
      </trkpt>
      <trkpt lat="44.32822" lon="3.66222">
        <ele>1019.200012207</ele>
        <time>2022-06-29T10:44:16.000Z</time>
      </trkpt>
      <trkpt lat="44.32822" lon="3.66222">
        <ele>1019.200012207</ele>
        <time>2022-06-29T10:44:19.000Z</time>
      </trkpt>
      <trkpt lat="44.32822" lon="3.66222">
        <ele>1019.4000244141</ele>
        <time>2022-06-29T10:44:25.000Z</time>
      </trkpt>
      <trkpt lat="44.32822" lon="3.66222">
        <ele>1019.4000244141</ele>
        <time>2022-06-29T10:44:29.000Z</time>
      </trkpt>
      <trkpt lat="44.32822" lon="3.66222">
        <ele>1019.4000244141</ele>
        <time>2022-06-29T10:44:33.000Z</time>
      </trkpt>
      <trkpt lat="44.32823" lon="3.66222">
        <ele>1019.4000244141</ele>
        <time>2022-06-29T10:44:39.000Z</time>
      </trkpt>
      <trkpt lat="44.32823" lon="3.66222">
        <ele>1019.200012207</ele>
        <time>2022-06-29T10:44:45.000Z</time>
      </trkpt>
      <trkpt lat="44.32823" lon="3.66222">
        <ele>1019.200012207</ele>
        <time>2022-06-29T10:44:47.000Z</time>
      </trkpt>
      <trkpt lat="44.32823" lon="3.66222">
        <ele>1019.200012207</ele>
        <time>2022-06-29T10:44:48.000Z</time>
      </trkpt>
      <trkpt lat="44.32823" lon="3.66221">
        <ele>1019.200012207</ele>
        <time>2022-06-29T10:44:51.000Z</time>
      </trkpt>
      <trkpt lat="44.32823" lon="3.66221">
        <ele>1019.5999755859</ele>
        <time>2022-06-29T10:44:57.000Z</time>
      </trkpt>
      <trkpt lat="44.32823" lon="3.66221">
        <ele>1019.4000244141</ele>
        <time>2022-06-29T10:45:02.000Z</time>
      </trkpt>
      <trkpt lat="44.32823" lon="3.66221">
        <ele>1019.200012207</ele>
        <time>2022-06-29T10:45:07.000Z</time>
      </trkpt>
      <trkpt lat="44.32823" lon="3.66221">
        <ele>1019.200012207</ele>
        <time>2022-06-29T10:45:10.000Z</time>
      </trkpt>
      <trkpt lat="44.32822" lon="3.66221">
        <ele>1019.200012207</ele>
        <time>2022-06-29T10:45:15.000Z</time>
      </trkpt>
      <trkpt lat="44.32822" lon="3.66221">
        <ele>1019.4000244141</ele>
        <time>2022-06-29T10:45:21.000Z</time>
      </trkpt>
      <trkpt lat="44.32822" lon="3.66221">
        <ele>1019.4000244141</ele>
        <time>2022-06-29T10:45:27.000Z</time>
      </trkpt>
      <trkpt lat="44.32822" lon="3.66221">
        <ele>1019.4000244141</ele>
        <time>2022-06-29T10:45:30.000Z</time>
      </trkpt>
      <trkpt lat="44.32821" lon="3.66222">
        <ele>1019.4000244141</ele>
        <time>2022-06-29T10:45:36.000Z</time>
      </trkpt>
      <trkpt lat="44.32818" lon="3.66225">
        <ele>1019.4000244141</ele>
        <time>2022-06-29T10:45:40.000Z</time>
      </trkpt>
      <trkpt lat="44.32813" lon="3.66228">
        <ele>1019.4000244141</ele>
        <time>2022-06-29T10:45:46.000Z</time>
      </trkpt>
      <trkpt lat="44.32811" lon="3.6623">
        <ele>1019.4000244141</ele>
        <time>2022-06-29T10:45:48.000Z</time>
      </trkpt>
      <trkpt lat="44.32811" lon="3.66231">
        <ele>1019.4000244141</ele>
        <time>2022-06-29T10:45:49.000Z</time>
      </trkpt>
      <trkpt lat="44.32809" lon="3.66234">
        <ele>1019</ele>
        <time>2022-06-29T10:45:52.000Z</time>
      </trkpt>
      <trkpt lat="44.32808" lon="3.66236">
        <ele>1018.5999755859</ele>
        <time>2022-06-29T10:45:55.000Z</time>
      </trkpt>
      <trkpt lat="44.32807" lon="3.66243">
        <ele>1018.799987793</ele>
        <time>2022-06-29T10:46:01.000Z</time>
      </trkpt>
      <trkpt lat="44.32807" lon="3.66244">
        <ele>1018.799987793</ele>
        <time>2022-06-29T10:46:02.000Z</time>
      </trkpt>
      <trkpt lat="44.32807" lon="3.66245">
        <ele>1018.799987793</ele>
        <time>2022-06-29T10:46:03.000Z</time>
      </trkpt>
      <trkpt lat="44.32806" lon="3.66249">
        <ele>1019</ele>
        <time>2022-06-29T10:46:07.000Z</time>
      </trkpt>
      <trkpt lat="44.32806" lon="3.66257">
        <ele>1019</ele>
        <time>2022-06-29T10:46:13.000Z</time>
      </trkpt>
      <trkpt lat="44.32806" lon="3.6626">
        <ele>1019</ele>
        <time>2022-06-29T10:46:15.000Z</time>
      </trkpt>
      <trkpt lat="44.32805" lon="3.66265">
        <ele>1019.200012207</ele>
        <time>2022-06-29T10:46:18.000Z</time>
      </trkpt>
      <trkpt lat="44.32802" lon="3.66275">
        <ele>1019.200012207</ele>
        <time>2022-06-29T10:46:24.000Z</time>
      </trkpt>
      <trkpt lat="44.328" lon="3.66284">
        <ele>1019.4000244141</ele>
        <time>2022-06-29T10:46:30.000Z</time>
      </trkpt>
      <trkpt lat="44.32799" lon="3.66287">
        <ele>1019.5999755859</ele>
        <time>2022-06-29T10:46:32.000Z</time>
      </trkpt>
      <trkpt lat="44.32797" lon="3.66295">
        <ele>1019.5999755859</ele>
        <time>2022-06-29T10:46:38.000Z</time>
      </trkpt>
      <trkpt lat="44.32797" lon="3.66299">
        <ele>1019.799987793</ele>
        <time>2022-06-29T10:46:41.000Z</time>
      </trkpt>
      <trkpt lat="44.32796" lon="3.663">
        <ele>1019.799987793</ele>
        <time>2022-06-29T10:46:42.000Z</time>
      </trkpt>
      <trkpt lat="44.32794" lon="3.66307">
        <ele>1020</ele>
        <time>2022-06-29T10:46:47.000Z</time>
      </trkpt>
      <trkpt lat="44.32792" lon="3.66311">
        <ele>1020.200012207</ele>
        <time>2022-06-29T10:46:50.000Z</time>
      </trkpt>
      <trkpt lat="44.32791" lon="3.66313">
        <ele>1020.4000244141</ele>
        <time>2022-06-29T10:46:52.000Z</time>
      </trkpt>
      <trkpt lat="44.32788" lon="3.66318">
        <ele>1020.5999755859</ele>
        <time>2022-06-29T10:46:56.000Z</time>
      </trkpt>
      <trkpt lat="44.32783" lon="3.6632">
        <ele>1020.5999755859</ele>
        <time>2022-06-29T10:47:01.000Z</time>
      </trkpt>
      <trkpt lat="44.32781" lon="3.66321">
        <ele>1020.5999755859</ele>
        <time>2022-06-29T10:47:04.000Z</time>
      </trkpt>
      <trkpt lat="44.32778" lon="3.66322">
        <ele>1020.799987793</ele>
        <time>2022-06-29T10:47:08.000Z</time>
      </trkpt>
      <trkpt lat="44.32776" lon="3.66322">
        <ele>1021</ele>
        <time>2022-06-29T10:47:11.000Z</time>
      </trkpt>
      <trkpt lat="44.32773" lon="3.66323">
        <ele>1021.200012207</ele>
        <time>2022-06-29T10:47:14.000Z</time>
      </trkpt>
      <trkpt lat="44.32771" lon="3.66323">
        <ele>1021.200012207</ele>
        <time>2022-06-29T10:47:16.000Z</time>
      </trkpt>
      <trkpt lat="44.32768" lon="3.66324">
        <ele>1021.4000244141</ele>
        <time>2022-06-29T10:47:19.000Z</time>
      </trkpt>
      <trkpt lat="44.32764" lon="3.66324">
        <ele>1021.4000244141</ele>
        <time>2022-06-29T10:47:22.000Z</time>
      </trkpt>
      <trkpt lat="44.32761" lon="3.66326">
        <ele>1021.5999755859</ele>
        <time>2022-06-29T10:47:25.000Z</time>
      </trkpt>
      <trkpt lat="44.32755" lon="3.66327">
        <ele>1021.799987793</ele>
        <time>2022-06-29T10:47:31.000Z</time>
      </trkpt>
      <trkpt lat="44.32751" lon="3.66326">
        <ele>1022</ele>
        <time>2022-06-29T10:47:36.000Z</time>
      </trkpt>
      <trkpt lat="44.3275" lon="3.66326">
        <ele>1022</ele>
        <time>2022-06-29T10:47:37.000Z</time>
      </trkpt>
      <trkpt lat="44.32745" lon="3.66322">
        <ele>1022</ele>
        <time>2022-06-29T10:47:42.000Z</time>
      </trkpt>
      <trkpt lat="44.3274" lon="3.66323">
        <ele>1022.200012207</ele>
        <time>2022-06-29T10:47:47.000Z</time>
      </trkpt>
      <trkpt lat="44.32739" lon="3.66323">
        <ele>1022.4000244141</ele>
        <time>2022-06-29T10:47:48.000Z</time>
      </trkpt>
      <trkpt lat="44.32736" lon="3.66322">
        <ele>1022.4000244141</ele>
        <time>2022-06-29T10:47:51.000Z</time>
      </trkpt>
      <trkpt lat="44.32732" lon="3.6632">
        <ele>1022.5999755859</ele>
        <time>2022-06-29T10:47:56.000Z</time>
      </trkpt>
      <trkpt lat="44.3273" lon="3.66319">
        <ele>1023</ele>
        <time>2022-06-29T10:47:59.000Z</time>
      </trkpt>
      <trkpt lat="44.32727" lon="3.66318">
        <ele>1023.4000244141</ele>
        <time>2022-06-29T10:48:03.000Z</time>
      </trkpt>
      <trkpt lat="44.32725" lon="3.66318">
        <ele>1023.5999755859</ele>
        <time>2022-06-29T10:48:05.000Z</time>
      </trkpt>
      <trkpt lat="44.32721" lon="3.66318">
        <ele>1023.5999755859</ele>
        <time>2022-06-29T10:48:09.000Z</time>
      </trkpt>
      <trkpt lat="44.3272" lon="3.66318">
        <ele>1023.799987793</ele>
        <time>2022-06-29T10:48:10.000Z</time>
      </trkpt>
      <trkpt lat="44.32715" lon="3.66319">
        <ele>1023.799987793</ele>
        <time>2022-06-29T10:48:16.000Z</time>
      </trkpt>
      <trkpt lat="44.32713" lon="3.6632">
        <ele>1023.799987793</ele>
        <time>2022-06-29T10:48:17.000Z</time>
      </trkpt>
      <trkpt lat="44.32711" lon="3.66324">
        <ele>1023.799987793</ele>
        <time>2022-06-29T10:48:21.000Z</time>
      </trkpt>
      <trkpt lat="44.3271" lon="3.66325">
        <ele>1023.799987793</ele>
        <time>2022-06-29T10:48:22.000Z</time>
      </trkpt>
      <trkpt lat="44.32709" lon="3.66325">
        <ele>1024</ele>
        <time>2022-06-29T10:48:24.000Z</time>
      </trkpt>
      <trkpt lat="44.32707" lon="3.66326">
        <ele>1024</ele>
        <time>2022-06-29T10:48:28.000Z</time>
      </trkpt>
      <trkpt lat="44.32701" lon="3.66329">
        <ele>1024.1999511719</ele>
        <time>2022-06-29T10:48:34.000Z</time>
      </trkpt>
      <trkpt lat="44.32698" lon="3.66331">
        <ele>1024.4000244141</ele>
        <time>2022-06-29T10:48:37.000Z</time>
      </trkpt>
      <trkpt lat="44.32697" lon="3.66332">
        <ele>1024.4000244141</ele>
        <time>2022-06-29T10:48:38.000Z</time>
      </trkpt>
      <trkpt lat="44.32693" lon="3.66334">
        <ele>1024.4000244141</ele>
        <time>2022-06-29T10:48:42.000Z</time>
      </trkpt>
      <trkpt lat="44.32693" lon="3.66335">
        <ele>1024.4000244141</ele>
        <time>2022-06-29T10:48:43.000Z</time>
      </trkpt>
      <trkpt lat="44.32692" lon="3.66337">
        <ele>1024.4000244141</ele>
        <time>2022-06-29T10:48:47.000Z</time>
      </trkpt>
      <trkpt lat="44.32691" lon="3.66339">
        <ele>1024.4000244141</ele>
        <time>2022-06-29T10:48:50.000Z</time>
      </trkpt>
      <trkpt lat="44.32691" lon="3.6634">
        <ele>1024.4000244141</ele>
        <time>2022-06-29T10:48:51.000Z</time>
      </trkpt>
      <trkpt lat="44.32686" lon="3.66344">
        <ele>1024.5999755859</ele>
        <time>2022-06-29T10:48:57.000Z</time>
      </trkpt>
      <trkpt lat="44.32686" lon="3.66345">
        <ele>1024.5999755859</ele>
        <time>2022-06-29T10:48:58.000Z</time>
      </trkpt>
      <trkpt lat="44.32683" lon="3.66345">
        <ele>1025</ele>
        <time>2022-06-29T10:49:01.000Z</time>
      </trkpt>
      <trkpt lat="44.32678" lon="3.66347">
        <ele>1025</ele>
        <time>2022-06-29T10:49:05.000Z</time>
      </trkpt>
      <trkpt lat="44.32674" lon="3.66349">
        <ele>1025</ele>
        <time>2022-06-29T10:49:11.000Z</time>
      </trkpt>
      <trkpt lat="44.32674" lon="3.66353">
        <ele>1025.1999511719</ele>
        <time>2022-06-29T10:49:15.000Z</time>
      </trkpt>
      <trkpt lat="44.32674" lon="3.66355">
        <ele>1025.4000244141</ele>
        <time>2022-06-29T10:49:19.000Z</time>
      </trkpt>
      <trkpt lat="44.32675" lon="3.66356">
        <ele>1025.1999511719</ele>
        <time>2022-06-29T10:49:21.000Z</time>
      </trkpt>
      <trkpt lat="44.32676" lon="3.66361">
        <ele>1024.8000488281</ele>
        <time>2022-06-29T10:49:27.000Z</time>
      </trkpt>
      <trkpt lat="44.32676" lon="3.66365">
        <ele>1024.4000244141</ele>
        <time>2022-06-29T10:49:32.000Z</time>
      </trkpt>
      <trkpt lat="44.32676" lon="3.66366">
        <ele>1024.4000244141</ele>
        <time>2022-06-29T10:49:34.000Z</time>
      </trkpt>
      <trkpt lat="44.32677" lon="3.66366">
        <ele>1024.4000244141</ele>
        <time>2022-06-29T10:49:40.000Z</time>
      </trkpt>
      <trkpt lat="44.32677" lon="3.66366">
        <ele>1024.4000244141</ele>
        <time>2022-06-29T10:49:42.000Z</time>
      </trkpt>
      <trkpt lat="44.32677" lon="3.66366">
        <ele>1024.1999511719</ele>
        <time>2022-06-29T10:49:48.000Z</time>
      </trkpt>
      <trkpt lat="44.32676" lon="3.66365">
        <ele>1024.1999511719</ele>
        <time>2022-06-29T10:49:52.000Z</time>
      </trkpt>
      <trkpt lat="44.32676" lon="3.66365">
        <ele>1024.4000244141</ele>
        <time>2022-06-29T10:49:53.000Z</time>
      </trkpt>
      <trkpt lat="44.32675" lon="3.66362">
        <ele>1024.5999755859</ele>
        <time>2022-06-29T10:49:59.000Z</time>
      </trkpt>
      <trkpt lat="44.32675" lon="3.66359">
        <ele>1024.5999755859</ele>
        <time>2022-06-29T10:50:05.000Z</time>
      </trkpt>
      <trkpt lat="44.32674" lon="3.66358">
        <ele>1025</ele>
        <time>2022-06-29T10:50:09.000Z</time>
      </trkpt>
      <trkpt lat="44.32675" lon="3.66358">
        <ele>1025.4000244141</ele>
        <time>2022-06-29T10:50:13.000Z</time>
      </trkpt>
      <trkpt lat="44.32675" lon="3.66357">
        <ele>1026</ele>
        <time>2022-06-29T10:50:16.000Z</time>
      </trkpt>
      <trkpt lat="44.32674" lon="3.66357">
        <ele>1026</ele>
        <time>2022-06-29T10:50:17.000Z</time>
      </trkpt>
      <trkpt lat="44.32672" lon="3.66355">
        <ele>1026.4000244141</ele>
        <time>2022-06-29T10:50:22.000Z</time>
      </trkpt>
      <trkpt lat="44.32671" lon="3.66354">
        <ele>1026.5999755859</ele>
        <time>2022-06-29T10:50:25.000Z</time>
      </trkpt>
      <trkpt lat="44.32671" lon="3.66354">
        <ele>1026.8000488281</ele>
        <time>2022-06-29T10:50:26.000Z</time>
      </trkpt>
      <trkpt lat="44.3267" lon="3.66353">
        <ele>1026.8000488281</ele>
        <time>2022-06-29T10:50:29.000Z</time>
      </trkpt>
      <trkpt lat="44.3267" lon="3.66353">
        <ele>1026.8000488281</ele>
        <time>2022-06-29T10:50:30.000Z</time>
      </trkpt>
      <trkpt lat="44.32669" lon="3.66353">
        <ele>1026.8000488281</ele>
        <time>2022-06-29T10:50:32.000Z</time>
      </trkpt>
      <trkpt lat="44.32668" lon="3.66352">
        <ele>1026.8000488281</ele>
        <time>2022-06-29T10:50:38.000Z</time>
      </trkpt>
      <trkpt lat="44.32668" lon="3.6635">
        <ele>1026.8000488281</ele>
        <time>2022-06-29T10:50:42.000Z</time>
      </trkpt>
      <trkpt lat="44.32665" lon="3.66351">
        <ele>1027</ele>
        <time>2022-06-29T10:50:48.000Z</time>
      </trkpt>
      <trkpt lat="44.32666" lon="3.66349">
        <ele>1026.8000488281</ele>
        <time>2022-06-29T10:50:53.000Z</time>
      </trkpt>
      <trkpt lat="44.32667" lon="3.66349">
        <ele>1026.8000488281</ele>
        <time>2022-06-29T10:50:56.000Z</time>
      </trkpt>
      <trkpt lat="44.32667" lon="3.6635">
        <ele>1026.8000488281</ele>
        <time>2022-06-29T10:51:02.000Z</time>
      </trkpt>
      <trkpt lat="44.32667" lon="3.6635">
        <ele>1026.4000244141</ele>
        <time>2022-06-29T10:51:08.000Z</time>
      </trkpt>
      <trkpt lat="44.32667" lon="3.6635">
        <ele>1026.4000244141</ele>
        <time>2022-06-29T10:51:09.000Z</time>
      </trkpt>
      <trkpt lat="44.32667" lon="3.6635">
        <ele>1026.4000244141</ele>
        <time>2022-06-29T10:51:15.000Z</time>
      </trkpt>
      <trkpt lat="44.32667" lon="3.66349">
        <ele>1026.4000244141</ele>
        <time>2022-06-29T10:51:19.000Z</time>
      </trkpt>
      <trkpt lat="44.32666" lon="3.66348">
        <ele>1026.4000244141</ele>
        <time>2022-06-29T10:51:21.000Z</time>
      </trkpt>
      <trkpt lat="44.32666" lon="3.66349">
        <ele>1026.5999755859</ele>
        <time>2022-06-29T10:51:26.000Z</time>
      </trkpt>
      <trkpt lat="44.32665" lon="3.66349">
        <ele>1026.5999755859</ele>
        <time>2022-06-29T10:51:27.000Z</time>
      </trkpt>
      <trkpt lat="44.32665" lon="3.66349">
        <ele>1026.1999511719</ele>
        <time>2022-06-29T10:51:33.000Z</time>
      </trkpt>
      <trkpt lat="44.32665" lon="3.66349">
        <ele>1026.1999511719</ele>
        <time>2022-06-29T10:51:38.000Z</time>
      </trkpt>
      <trkpt lat="44.32664" lon="3.66349">
        <ele>1026.4000244141</ele>
        <time>2022-06-29T10:51:44.000Z</time>
      </trkpt>
      <trkpt lat="44.32664" lon="3.66349">
        <ele>1026.4000244141</ele>
        <time>2022-06-29T10:51:46.000Z</time>
      </trkpt>
      <trkpt lat="44.32662" lon="3.66348">
        <ele>1026.4000244141</ele>
        <time>2022-06-29T10:51:52.000Z</time>
      </trkpt>
      <trkpt lat="44.32662" lon="3.66348">
        <ele>1026.4000244141</ele>
        <time>2022-06-29T10:51:54.000Z</time>
      </trkpt>
      <trkpt lat="44.32662" lon="3.66347">
        <ele>1026.4000244141</ele>
        <time>2022-06-29T10:51:59.000Z</time>
      </trkpt>
      <trkpt lat="44.32662" lon="3.66349">
        <ele>1026.4000244141</ele>
        <time>2022-06-29T10:52:05.000Z</time>
      </trkpt>
      <trkpt lat="44.32663" lon="3.6635">
        <ele>1026.4000244141</ele>
        <time>2022-06-29T10:52:11.000Z</time>
      </trkpt>
      <trkpt lat="44.32664" lon="3.66351">
        <ele>1026.4000244141</ele>
        <time>2022-06-29T10:52:15.000Z</time>
      </trkpt>
      <trkpt lat="44.32665" lon="3.66351">
        <ele>1026.4000244141</ele>
        <time>2022-06-29T10:52:16.000Z</time>
      </trkpt>
      <trkpt lat="44.32665" lon="3.66352">
        <ele>1026.4000244141</ele>
        <time>2022-06-29T10:52:20.000Z</time>
      </trkpt>
      <trkpt lat="44.32666" lon="3.66352">
        <ele>1026.4000244141</ele>
        <time>2022-06-29T10:52:24.000Z</time>
      </trkpt>
      <trkpt lat="44.32667" lon="3.66352">
        <ele>1026.4000244141</ele>
        <time>2022-06-29T10:52:28.000Z</time>
      </trkpt>
      <trkpt lat="44.32668" lon="3.66353">
        <ele>1026.4000244141</ele>
        <time>2022-06-29T10:52:29.000Z</time>
      </trkpt>
      <trkpt lat="44.3267" lon="3.66353">
        <ele>1026.4000244141</ele>
        <time>2022-06-29T10:52:32.000Z</time>
      </trkpt>
      <trkpt lat="44.32673" lon="3.66354">
        <ele>1026.4000244141</ele>
        <time>2022-06-29T10:52:38.000Z</time>
      </trkpt>
      <trkpt lat="44.32674" lon="3.66358">
        <ele>1026.4000244141</ele>
        <time>2022-06-29T10:52:44.000Z</time>
      </trkpt>
      <trkpt lat="44.32675" lon="3.66358">
        <ele>1026.4000244141</ele>
        <time>2022-06-29T10:52:45.000Z</time>
      </trkpt>
      <trkpt lat="44.32676" lon="3.66358">
        <ele>1026.4000244141</ele>
        <time>2022-06-29T10:52:51.000Z</time>
      </trkpt>
      <trkpt lat="44.32676" lon="3.66358">
        <ele>1026.4000244141</ele>
        <time>2022-06-29T10:52:53.000Z</time>
      </trkpt>
      <trkpt lat="44.32676" lon="3.66358">
        <ele>1026.4000244141</ele>
        <time>2022-06-29T10:52:57.000Z</time>
      </trkpt>
      <trkpt lat="44.32676" lon="3.66356">
        <ele>1026.4000244141</ele>
        <time>2022-06-29T10:53:03.000Z</time>
      </trkpt>
      <trkpt lat="44.32679" lon="3.66353">
        <ele>1026.4000244141</ele>
        <time>2022-06-29T10:53:08.000Z</time>
      </trkpt>
      <trkpt lat="44.32684" lon="3.66346">
        <ele>1026.4000244141</ele>
        <time>2022-06-29T10:53:14.000Z</time>
      </trkpt>
      <trkpt lat="44.32683" lon="3.66345">
        <ele>1026.4000244141</ele>
        <time>2022-06-29T10:53:20.000Z</time>
      </trkpt>
      <trkpt lat="44.32684" lon="3.66349">
        <ele>1026.4000244141</ele>
        <time>2022-06-29T10:53:23.000Z</time>
      </trkpt>
      <trkpt lat="44.32684" lon="3.66354">
        <ele>1026.4000244141</ele>
        <time>2022-06-29T10:53:29.000Z</time>
      </trkpt>
      <trkpt lat="44.32684" lon="3.66356">
        <ele>1026.4000244141</ele>
        <time>2022-06-29T10:53:35.000Z</time>
      </trkpt>
      <trkpt lat="44.32683" lon="3.66357">
        <ele>1026.4000244141</ele>
        <time>2022-06-29T10:53:38.000Z</time>
      </trkpt>
      <trkpt lat="44.32684" lon="3.66357">
        <ele>1026.4000244141</ele>
        <time>2022-06-29T10:53:40.000Z</time>
      </trkpt>
      <trkpt lat="44.32684" lon="3.66356">
        <ele>1026.4000244141</ele>
        <time>2022-06-29T10:53:41.000Z</time>
      </trkpt>
      <trkpt lat="44.32686" lon="3.66356">
        <ele>1026.4000244141</ele>
        <time>2022-06-29T10:53:47.000Z</time>
      </trkpt>
      <trkpt lat="44.32684" lon="3.66357">
        <ele>1026.4000244141</ele>
        <time>2022-06-29T10:53:53.000Z</time>
      </trkpt>
      <trkpt lat="44.32683" lon="3.66356">
        <ele>1026.4000244141</ele>
        <time>2022-06-29T10:53:59.000Z</time>
      </trkpt>
      <trkpt lat="44.32681" lon="3.66356">
        <ele>1026.4000244141</ele>
        <time>2022-06-29T10:54:05.000Z</time>
      </trkpt>
      <trkpt lat="44.32681" lon="3.66354">
        <ele>1026.4000244141</ele>
        <time>2022-06-29T10:54:11.000Z</time>
      </trkpt>
      <trkpt lat="44.32681" lon="3.66357">
        <ele>1026.4000244141</ele>
        <time>2022-06-29T10:54:17.000Z</time>
      </trkpt>
      <trkpt lat="44.32682" lon="3.66357">
        <ele>1026.4000244141</ele>
        <time>2022-06-29T10:54:23.000Z</time>
      </trkpt>
      <trkpt lat="44.32681" lon="3.66357">
        <ele>1026.4000244141</ele>
        <time>2022-06-29T10:54:26.000Z</time>
      </trkpt>
      <trkpt lat="44.32681" lon="3.66358">
        <ele>1026.4000244141</ele>
        <time>2022-06-29T10:54:29.000Z</time>
      </trkpt>
      <trkpt lat="44.32681" lon="3.66358">
        <ele>1026.4000244141</ele>
        <time>2022-06-29T10:54:32.000Z</time>
      </trkpt>
      <trkpt lat="44.32681" lon="3.66358">
        <ele>1026.4000244141</ele>
        <time>2022-06-29T10:54:38.000Z</time>
      </trkpt>
      <trkpt lat="44.3268" lon="3.66357">
        <ele>1026.4000244141</ele>
        <time>2022-06-29T10:54:44.000Z</time>
      </trkpt>
      <trkpt lat="44.32679" lon="3.66356">
        <ele>1026.4000244141</ele>
        <time>2022-06-29T10:54:45.000Z</time>
      </trkpt>
      <trkpt lat="44.32676" lon="3.66357">
        <ele>1026.4000244141</ele>
        <time>2022-06-29T10:54:51.000Z</time>
      </trkpt>
      <trkpt lat="44.32673" lon="3.66359">
        <ele>1026.4000244141</ele>
        <time>2022-06-29T10:54:57.000Z</time>
      </trkpt>
      <trkpt lat="44.32668" lon="3.6636">
        <ele>1026.4000244141</ele>
        <time>2022-06-29T10:55:00.000Z</time>
      </trkpt>
      <trkpt lat="44.32666" lon="3.6636">
        <ele>1026.4000244141</ele>
        <time>2022-06-29T10:55:02.000Z</time>
      </trkpt>
      <trkpt lat="44.32663" lon="3.66359">
        <ele>1026.4000244141</ele>
        <time>2022-06-29T10:55:05.000Z</time>
      </trkpt>
      <trkpt lat="44.32662" lon="3.66358">
        <ele>1026</ele>
        <time>2022-06-29T10:55:08.000Z</time>
      </trkpt>
      <trkpt lat="44.32661" lon="3.66356">
        <ele>1025.8000488281</ele>
        <time>2022-06-29T10:55:13.000Z</time>
      </trkpt>
      <trkpt lat="44.32659" lon="3.66353">
        <ele>1025.5999755859</ele>
        <time>2022-06-29T10:55:17.000Z</time>
      </trkpt>
      <trkpt lat="44.32659" lon="3.66353">
        <ele>1025.5999755859</ele>
        <time>2022-06-29T10:55:21.000Z</time>
      </trkpt>
      <trkpt lat="44.32659" lon="3.66354">
        <ele>1025.5999755859</ele>
        <time>2022-06-29T10:55:27.000Z</time>
      </trkpt>
      <trkpt lat="44.32658" lon="3.66354">
        <ele>1025.5999755859</ele>
        <time>2022-06-29T10:55:29.000Z</time>
      </trkpt>
      <trkpt lat="44.32658" lon="3.66355">
        <ele>1025.5999755859</ele>
        <time>2022-06-29T10:55:35.000Z</time>
      </trkpt>
      <trkpt lat="44.32659" lon="3.66356">
        <ele>1025.4000244141</ele>
        <time>2022-06-29T10:55:41.000Z</time>
      </trkpt>
      <trkpt lat="44.32659" lon="3.66357">
        <ele>1025.1999511719</ele>
        <time>2022-06-29T10:55:44.000Z</time>
      </trkpt>
      <trkpt lat="44.32659" lon="3.66357">
        <ele>1025.1999511719</ele>
        <time>2022-06-29T10:55:49.000Z</time>
      </trkpt>
      <trkpt lat="44.32659" lon="3.66358">
        <ele>1025</ele>
        <time>2022-06-29T10:55:51.000Z</time>
      </trkpt>
      <trkpt lat="44.3266" lon="3.66357">
        <ele>1025</ele>
        <time>2022-06-29T10:55:57.000Z</time>
      </trkpt>
      <trkpt lat="44.32662" lon="3.66356">
        <ele>1025</ele>
        <time>2022-06-29T10:56:00.000Z</time>
      </trkpt>
      <trkpt lat="44.32663" lon="3.66357">
        <ele>1025</ele>
        <time>2022-06-29T10:56:02.000Z</time>
      </trkpt>
      <trkpt lat="44.32663" lon="3.66357">
        <ele>1025.1999511719</ele>
        <time>2022-06-29T10:56:08.000Z</time>
      </trkpt>
      <trkpt lat="44.32663" lon="3.6636">
        <ele>1025.4000244141</ele>
        <time>2022-06-29T10:56:14.000Z</time>
      </trkpt>
      <trkpt lat="44.32662" lon="3.66362">
        <ele>1025.4000244141</ele>
        <time>2022-06-29T10:56:18.000Z</time>
      </trkpt>
      <trkpt lat="44.32663" lon="3.66363">
        <ele>1025.4000244141</ele>
        <time>2022-06-29T10:56:24.000Z</time>
      </trkpt>
      <trkpt lat="44.32663" lon="3.66362">
        <ele>1025.4000244141</ele>
        <time>2022-06-29T10:56:27.000Z</time>
      </trkpt>
      <trkpt lat="44.32666" lon="3.6636">
        <ele>1025.4000244141</ele>
        <time>2022-06-29T10:56:31.000Z</time>
      </trkpt>
      <trkpt lat="44.32671" lon="3.66356">
        <ele>1025.4000244141</ele>
        <time>2022-06-29T10:56:37.000Z</time>
      </trkpt>
      <trkpt lat="44.32669" lon="3.66359">
        <ele>1025.4000244141</ele>
        <time>2022-06-29T10:56:43.000Z</time>
      </trkpt>
      <trkpt lat="44.32668" lon="3.66359">
        <ele>1025.4000244141</ele>
        <time>2022-06-29T10:56:45.000Z</time>
      </trkpt>
      <trkpt lat="44.32668" lon="3.66361">
        <ele>1025.4000244141</ele>
        <time>2022-06-29T10:56:51.000Z</time>
      </trkpt>
      <trkpt lat="44.32671" lon="3.66363">
        <ele>1025.4000244141</ele>
        <time>2022-06-29T10:56:57.000Z</time>
      </trkpt>
      <trkpt lat="44.32672" lon="3.66363">
        <ele>1025.4000244141</ele>
        <time>2022-06-29T10:57:00.000Z</time>
      </trkpt>
      <trkpt lat="44.32675" lon="3.66364">
        <ele>1025.4000244141</ele>
        <time>2022-06-29T10:57:06.000Z</time>
      </trkpt>
      <trkpt lat="44.32677" lon="3.66364">
        <ele>1025.4000244141</ele>
        <time>2022-06-29T10:57:12.000Z</time>
      </trkpt>
      <trkpt lat="44.32679" lon="3.66363">
        <ele>1025.4000244141</ele>
        <time>2022-06-29T10:57:13.000Z</time>
      </trkpt>
      <trkpt lat="44.32681" lon="3.66364">
        <ele>1025.4000244141</ele>
        <time>2022-06-29T10:57:19.000Z</time>
      </trkpt>
      <trkpt lat="44.32683" lon="3.66365">
        <ele>1025.4000244141</ele>
        <time>2022-06-29T10:57:23.000Z</time>
      </trkpt>
      <trkpt lat="44.32686" lon="3.66365">
        <ele>1025.4000244141</ele>
        <time>2022-06-29T10:57:25.000Z</time>
      </trkpt>
      <trkpt lat="44.32688" lon="3.66366">
        <ele>1025.4000244141</ele>
        <time>2022-06-29T10:57:27.000Z</time>
      </trkpt>
      <trkpt lat="44.32689" lon="3.66366">
        <ele>1025.4000244141</ele>
        <time>2022-06-29T10:57:28.000Z</time>
      </trkpt>
      <trkpt lat="44.3269" lon="3.66365">
        <ele>1025.4000244141</ele>
        <time>2022-06-29T10:57:30.000Z</time>
      </trkpt>
      <trkpt lat="44.32692" lon="3.66364">
        <ele>1025.4000244141</ele>
        <time>2022-06-29T10:57:33.000Z</time>
      </trkpt>
      <trkpt lat="44.32691" lon="3.66362">
        <ele>1025</ele>
        <time>2022-06-29T10:57:39.000Z</time>
      </trkpt>
      <trkpt lat="44.32689" lon="3.66361">
        <ele>1024.8000488281</ele>
        <time>2022-06-29T10:57:45.000Z</time>
      </trkpt>
      <trkpt lat="44.32688" lon="3.66361">
        <ele>1024.8000488281</ele>
        <time>2022-06-29T10:57:46.000Z</time>
      </trkpt>
      <trkpt lat="44.32688" lon="3.66361">
        <ele>1024.8000488281</ele>
        <time>2022-06-29T10:57:48.000Z</time>
      </trkpt>
      <trkpt lat="44.32687" lon="3.66363">
        <ele>1024.8000488281</ele>
        <time>2022-06-29T10:57:54.000Z</time>
      </trkpt>
      <trkpt lat="44.32685" lon="3.66365">
        <ele>1024.5999755859</ele>
        <time>2022-06-29T10:57:59.000Z</time>
      </trkpt>
      <trkpt lat="44.32685" lon="3.66365">
        <ele>1024.5999755859</ele>
        <time>2022-06-29T10:58:00.000Z</time>
      </trkpt>
      <trkpt lat="44.32683" lon="3.66365">
        <ele>1024.5999755859</ele>
        <time>2022-06-29T10:58:01.000Z</time>
      </trkpt>
      <trkpt lat="44.32681" lon="3.66363">
        <ele>1024.5999755859</ele>
        <time>2022-06-29T10:58:07.000Z</time>
      </trkpt>
      <trkpt lat="44.3268" lon="3.66361">
        <ele>1024.5999755859</ele>
        <time>2022-06-29T10:58:11.000Z</time>
      </trkpt>
      <trkpt lat="44.32678" lon="3.6636">
        <ele>1024.4000244141</ele>
        <time>2022-06-29T10:58:14.000Z</time>
      </trkpt>
      <trkpt lat="44.32675" lon="3.6636">
        <ele>1025.1999511719</ele>
        <time>2022-06-29T10:58:20.000Z</time>
      </trkpt>
      <trkpt lat="44.32676" lon="3.66358">
        <ele>1025.4000244141</ele>
        <time>2022-06-29T10:58:24.000Z</time>
      </trkpt>
      <trkpt lat="44.32676" lon="3.66358">
        <ele>1025.4000244141</ele>
        <time>2022-06-29T10:58:25.000Z</time>
      </trkpt>
      <trkpt lat="44.32676" lon="3.66357">
        <ele>1025.4000244141</ele>
        <time>2022-06-29T10:58:26.000Z</time>
      </trkpt>
      <trkpt lat="44.32676" lon="3.66356">
        <ele>1025.4000244141</ele>
        <time>2022-06-29T10:58:30.000Z</time>
      </trkpt>
      <trkpt lat="44.32675" lon="3.66354">
        <ele>1024.8000488281</ele>
        <time>2022-06-29T10:58:36.000Z</time>
      </trkpt>
      <trkpt lat="44.32677" lon="3.66355">
        <ele>1025</ele>
        <time>2022-06-29T10:58:42.000Z</time>
      </trkpt>
      <trkpt lat="44.32676" lon="3.66355">
        <ele>1025</ele>
        <time>2022-06-29T10:58:43.000Z</time>
      </trkpt>
      <trkpt lat="44.32672" lon="3.66356">
        <ele>1025.1999511719</ele>
        <time>2022-06-29T10:58:46.000Z</time>
      </trkpt>
      <trkpt lat="44.3267" lon="3.66357">
        <ele>1025.5999755859</ele>
        <time>2022-06-29T10:58:52.000Z</time>
      </trkpt>
      <trkpt lat="44.32669" lon="3.66357">
        <ele>1025.4000244141</ele>
        <time>2022-06-29T10:58:58.000Z</time>
      </trkpt>
      <trkpt lat="44.32667" lon="3.66357">
        <ele>1025.4000244141</ele>
        <time>2022-06-29T10:59:04.000Z</time>
      </trkpt>
      <trkpt lat="44.32666" lon="3.66357">
        <ele>1025.1999511719</ele>
        <time>2022-06-29T10:59:10.000Z</time>
      </trkpt>
      <trkpt lat="44.32665" lon="3.66357">
        <ele>1025.5999755859</ele>
        <time>2022-06-29T10:59:16.000Z</time>
      </trkpt>
      <trkpt lat="44.32666" lon="3.66357">
        <ele>1025.4000244141</ele>
        <time>2022-06-29T10:59:22.000Z</time>
      </trkpt>
      <trkpt lat="44.32667" lon="3.66356">
        <ele>1025.1999511719</ele>
        <time>2022-06-29T10:59:28.000Z</time>
      </trkpt>
      <trkpt lat="44.32667" lon="3.66355">
        <ele>1025.4000244141</ele>
        <time>2022-06-29T10:59:33.000Z</time>
      </trkpt>
      <trkpt lat="44.32669" lon="3.66354">
        <ele>1025.4000244141</ele>
        <time>2022-06-29T10:59:34.000Z</time>
      </trkpt>
      <trkpt lat="44.3267" lon="3.66355">
        <ele>1025.4000244141</ele>
        <time>2022-06-29T10:59:40.000Z</time>
      </trkpt>
      <trkpt lat="44.3267" lon="3.66355">
        <ele>1025.4000244141</ele>
        <time>2022-06-29T10:59:41.000Z</time>
      </trkpt>
      <trkpt lat="44.3267" lon="3.66355">
        <ele>1025.4000244141</ele>
        <time>2022-06-29T10:59:47.000Z</time>
      </trkpt>
      <trkpt lat="44.3267" lon="3.66355">
        <ele>1025.4000244141</ele>
        <time>2022-06-29T10:59:51.000Z</time>
      </trkpt>
      <trkpt lat="44.3267" lon="3.66355">
        <ele>1025.5999755859</ele>
        <time>2022-06-29T10:59:57.000Z</time>
      </trkpt>
      <trkpt lat="44.32669" lon="3.66354">
        <ele>1025.5999755859</ele>
        <time>2022-06-29T11:00:02.000Z</time>
      </trkpt>
      <trkpt lat="44.3267" lon="3.66354">
        <ele>1025.5999755859</ele>
        <time>2022-06-29T11:00:03.000Z</time>
      </trkpt>
      <trkpt lat="44.3267" lon="3.66354">
        <ele>1025.8000488281</ele>
        <time>2022-06-29T11:00:08.000Z</time>
      </trkpt>
      <trkpt lat="44.32669" lon="3.66354">
        <ele>1025.8000488281</ele>
        <time>2022-06-29T11:00:09.000Z</time>
      </trkpt>
      <trkpt lat="44.32668" lon="3.66354">
        <ele>1026</ele>
        <time>2022-06-29T11:00:15.000Z</time>
      </trkpt>
      <trkpt lat="44.32671" lon="3.66355">
        <ele>1026.4000244141</ele>
        <time>2022-06-29T11:00:21.000Z</time>
      </trkpt>
      <trkpt lat="44.32671" lon="3.66356">
        <ele>1026.4000244141</ele>
        <time>2022-06-29T11:00:23.000Z</time>
      </trkpt>
      <trkpt lat="44.32671" lon="3.66356">
        <ele>1026.4000244141</ele>
        <time>2022-06-29T11:00:24.000Z</time>
      </trkpt>
      <trkpt lat="44.32672" lon="3.66356">
        <ele>1026.1999511719</ele>
        <time>2022-06-29T11:00:30.000Z</time>
      </trkpt>
      <trkpt lat="44.32671" lon="3.66358">
        <ele>1026</ele>
        <time>2022-06-29T11:00:36.000Z</time>
      </trkpt>
      <trkpt lat="44.32669" lon="3.66359">
        <ele>1026.4000244141</ele>
        <time>2022-06-29T11:00:40.000Z</time>
      </trkpt>
      <trkpt lat="44.32669" lon="3.66361">
        <ele>1026.1999511719</ele>
        <time>2022-06-29T11:00:46.000Z</time>
      </trkpt>
      <trkpt lat="44.32667" lon="3.66359">
        <ele>1026.1999511719</ele>
        <time>2022-06-29T11:00:51.000Z</time>
      </trkpt>
      <trkpt lat="44.32669" lon="3.66361">
        <ele>1026.4000244141</ele>
        <time>2022-06-29T11:00:56.000Z</time>
      </trkpt>
      <trkpt lat="44.32674" lon="3.66359">
        <ele>1026.1999511719</ele>
        <time>2022-06-29T11:01:02.000Z</time>
      </trkpt>
      <trkpt lat="44.32679" lon="3.6636">
        <ele>1026.1999511719</ele>
        <time>2022-06-29T11:01:08.000Z</time>
      </trkpt>
      <trkpt lat="44.32682" lon="3.66363">
        <ele>1026.1999511719</ele>
        <time>2022-06-29T11:01:13.000Z</time>
      </trkpt>
      <trkpt lat="44.32686" lon="3.66363">
        <ele>1026.5999755859</ele>
        <time>2022-06-29T11:01:19.000Z</time>
      </trkpt>
      <trkpt lat="44.32684" lon="3.66363">
        <ele>1026.4000244141</ele>
        <time>2022-06-29T11:01:25.000Z</time>
      </trkpt>
      <trkpt lat="44.32683" lon="3.66363">
        <ele>1026.1999511719</ele>
        <time>2022-06-29T11:01:28.000Z</time>
      </trkpt>
      <trkpt lat="44.32682" lon="3.66364">
        <ele>1026.8000488281</ele>
        <time>2022-06-29T11:01:34.000Z</time>
      </trkpt>
      <trkpt lat="44.3268" lon="3.66364">
        <ele>1026.5999755859</ele>
        <time>2022-06-29T11:01:40.000Z</time>
      </trkpt>
      <trkpt lat="44.32679" lon="3.66364">
        <ele>1026.5999755859</ele>
        <time>2022-06-29T11:01:43.000Z</time>
      </trkpt>
      <trkpt lat="44.32678" lon="3.66363">
        <ele>1026.5999755859</ele>
        <time>2022-06-29T11:01:49.000Z</time>
      </trkpt>
      <trkpt lat="44.32677" lon="3.66364">
        <ele>1026.5999755859</ele>
        <time>2022-06-29T11:01:55.000Z</time>
      </trkpt>
      <trkpt lat="44.32677" lon="3.66364">
        <ele>1026.5999755859</ele>
        <time>2022-06-29T11:02:01.000Z</time>
      </trkpt>
      <trkpt lat="44.32677" lon="3.66364">
        <ele>1026.5999755859</ele>
        <time>2022-06-29T11:02:02.000Z</time>
      </trkpt>
      <trkpt lat="44.32677" lon="3.66363">
        <ele>1026.5999755859</ele>
        <time>2022-06-29T11:02:04.000Z</time>
      </trkpt>
      <trkpt lat="44.32677" lon="3.66363">
        <ele>1026.5999755859</ele>
        <time>2022-06-29T11:02:09.000Z</time>
      </trkpt>
      <trkpt lat="44.32677" lon="3.66363">
        <ele>1026.5999755859</ele>
        <time>2022-06-29T11:02:10.000Z</time>
      </trkpt>
      <trkpt lat="44.32677" lon="3.66364">
        <ele>1026.5999755859</ele>
        <time>2022-06-29T11:02:16.000Z</time>
      </trkpt>
      <trkpt lat="44.32677" lon="3.66364">
        <ele>1026.5999755859</ele>
        <time>2022-06-29T11:02:19.000Z</time>
      </trkpt>
      <trkpt lat="44.32676" lon="3.66364">
        <ele>1026.5999755859</ele>
        <time>2022-06-29T11:02:25.000Z</time>
      </trkpt>
      <trkpt lat="44.32673" lon="3.66365">
        <ele>1026.5999755859</ele>
        <time>2022-06-29T11:02:31.000Z</time>
      </trkpt>
      <trkpt lat="44.32673" lon="3.66364">
        <ele>1026.5999755859</ele>
        <time>2022-06-29T11:02:36.000Z</time>
      </trkpt>
      <trkpt lat="44.32674" lon="3.66361">
        <ele>1026.5999755859</ele>
        <time>2022-06-29T11:02:42.000Z</time>
      </trkpt>
      <trkpt lat="44.32675" lon="3.6636">
        <ele>1026.5999755859</ele>
        <time>2022-06-29T11:02:48.000Z</time>
      </trkpt>
      <trkpt lat="44.32672" lon="3.6636">
        <ele>1026.5999755859</ele>
        <time>2022-06-29T11:02:54.000Z</time>
      </trkpt>
      <trkpt lat="44.32673" lon="3.66359">
        <ele>1026.5999755859</ele>
        <time>2022-06-29T11:03:00.000Z</time>
      </trkpt>
      <trkpt lat="44.32677" lon="3.66359">
        <ele>1026.5999755859</ele>
        <time>2022-06-29T11:03:06.000Z</time>
      </trkpt>
      <trkpt lat="44.32676" lon="3.6636">
        <ele>1026.5999755859</ele>
        <time>2022-06-29T11:03:09.000Z</time>
      </trkpt>
      <trkpt lat="44.32676" lon="3.6636">
        <ele>1026.5999755859</ele>
        <time>2022-06-29T11:03:13.000Z</time>
      </trkpt>
      <trkpt lat="44.32676" lon="3.66359">
        <ele>1026.5999755859</ele>
        <time>2022-06-29T11:03:19.000Z</time>
      </trkpt>
      <trkpt lat="44.32676" lon="3.66358">
        <ele>1026.5999755859</ele>
        <time>2022-06-29T11:03:22.000Z</time>
      </trkpt>
      <trkpt lat="44.32677" lon="3.66357">
        <ele>1026.5999755859</ele>
        <time>2022-06-29T11:03:24.000Z</time>
      </trkpt>
      <trkpt lat="44.32677" lon="3.66357">
        <ele>1026.5999755859</ele>
        <time>2022-06-29T11:03:27.000Z</time>
      </trkpt>
      <trkpt lat="44.32672" lon="3.66357">
        <ele>1026.5999755859</ele>
        <time>2022-06-29T11:03:33.000Z</time>
      </trkpt>
      <trkpt lat="44.32669" lon="3.66357">
        <ele>1026.5999755859</ele>
        <time>2022-06-29T11:03:39.000Z</time>
      </trkpt>
      <trkpt lat="44.32669" lon="3.66358">
        <ele>1026.5999755859</ele>
        <time>2022-06-29T11:03:41.000Z</time>
      </trkpt>
      <trkpt lat="44.3267" lon="3.66358">
        <ele>1026.5999755859</ele>
        <time>2022-06-29T11:03:47.000Z</time>
      </trkpt>
      <trkpt lat="44.3267" lon="3.66358">
        <ele>1026.5999755859</ele>
        <time>2022-06-29T11:03:53.000Z</time>
      </trkpt>
      <trkpt lat="44.3267" lon="3.66358">
        <ele>1026.5999755859</ele>
        <time>2022-06-29T11:03:57.000Z</time>
      </trkpt>
      <trkpt lat="44.3267" lon="3.66358">
        <ele>1026.5999755859</ele>
        <time>2022-06-29T11:04:03.000Z</time>
      </trkpt>
      <trkpt lat="44.32671" lon="3.66358">
        <ele>1026.5999755859</ele>
        <time>2022-06-29T11:04:09.000Z</time>
      </trkpt>
      <trkpt lat="44.32672" lon="3.66355">
        <ele>1026.5999755859</ele>
        <time>2022-06-29T11:04:15.000Z</time>
      </trkpt>
      <trkpt lat="44.32672" lon="3.66354">
        <ele>1026.5999755859</ele>
        <time>2022-06-29T11:04:16.000Z</time>
      </trkpt>
      <trkpt lat="44.32673" lon="3.66355">
        <ele>1026.5999755859</ele>
        <time>2022-06-29T11:04:22.000Z</time>
      </trkpt>
      <trkpt lat="44.32674" lon="3.66356">
        <ele>1026.5999755859</ele>
        <time>2022-06-29T11:04:28.000Z</time>
      </trkpt>
      <trkpt lat="44.32674" lon="3.66357">
        <ele>1026.5999755859</ele>
        <time>2022-06-29T11:04:29.000Z</time>
      </trkpt>
      <trkpt lat="44.32674" lon="3.66357">
        <ele>1026.5999755859</ele>
        <time>2022-06-29T11:04:32.000Z</time>
      </trkpt>
      <trkpt lat="44.32673" lon="3.66358">
        <ele>1026.5999755859</ele>
        <time>2022-06-29T11:04:38.000Z</time>
      </trkpt>
      <trkpt lat="44.32673" lon="3.66359">
        <ele>1026.5999755859</ele>
        <time>2022-06-29T11:04:40.000Z</time>
      </trkpt>
      <trkpt lat="44.32673" lon="3.6636">
        <ele>1026.5999755859</ele>
        <time>2022-06-29T11:04:44.000Z</time>
      </trkpt>
      <trkpt lat="44.32673" lon="3.6636">
        <ele>1026.5999755859</ele>
        <time>2022-06-29T11:04:46.000Z</time>
      </trkpt>
      <trkpt lat="44.32674" lon="3.66359">
        <ele>1026.5999755859</ele>
        <time>2022-06-29T11:04:50.000Z</time>
      </trkpt>
      <trkpt lat="44.32674" lon="3.66357">
        <ele>1026.5999755859</ele>
        <time>2022-06-29T11:04:56.000Z</time>
      </trkpt>
      <trkpt lat="44.32674" lon="3.66355">
        <ele>1026.5999755859</ele>
        <time>2022-06-29T11:05:02.000Z</time>
      </trkpt>
      <trkpt lat="44.32674" lon="3.66355">
        <ele>1026.5999755859</ele>
        <time>2022-06-29T11:05:06.000Z</time>
      </trkpt>
      <trkpt lat="44.32674" lon="3.66355">
        <ele>1026.5999755859</ele>
        <time>2022-06-29T11:05:09.000Z</time>
      </trkpt>
      <trkpt lat="44.32674" lon="3.66355">
        <ele>1026.5999755859</ele>
        <time>2022-06-29T11:05:13.000Z</time>
      </trkpt>
      <trkpt lat="44.32673" lon="3.66356">
        <ele>1026.5999755859</ele>
        <time>2022-06-29T11:05:17.000Z</time>
      </trkpt>
      <trkpt lat="44.32673" lon="3.66358">
        <ele>1026.5999755859</ele>
        <time>2022-06-29T11:05:23.000Z</time>
      </trkpt>
      <trkpt lat="44.32673" lon="3.66358">
        <ele>1026.5999755859</ele>
        <time>2022-06-29T11:05:24.000Z</time>
      </trkpt>
      <trkpt lat="44.32674" lon="3.66356">
        <ele>1026.5999755859</ele>
        <time>2022-06-29T11:05:30.000Z</time>
      </trkpt>
      <trkpt lat="44.32674" lon="3.66355">
        <ele>1026.5999755859</ele>
        <time>2022-06-29T11:05:32.000Z</time>
      </trkpt>
      <trkpt lat="44.32676" lon="3.66353">
        <ele>1026.5999755859</ele>
        <time>2022-06-29T11:05:38.000Z</time>
      </trkpt>
      <trkpt lat="44.32675" lon="3.66355">
        <ele>1026.5999755859</ele>
        <time>2022-06-29T11:05:41.000Z</time>
      </trkpt>
      <trkpt lat="44.32675" lon="3.66355">
        <ele>1026.5999755859</ele>
        <time>2022-06-29T11:05:42.000Z</time>
      </trkpt>
      <trkpt lat="44.32674" lon="3.66354">
        <ele>1026.5999755859</ele>
        <time>2022-06-29T11:05:46.000Z</time>
      </trkpt>
      <trkpt lat="44.32674" lon="3.66354">
        <ele>1026.5999755859</ele>
        <time>2022-06-29T11:05:48.000Z</time>
      </trkpt>
      <trkpt lat="44.32675" lon="3.66355">
        <ele>1026.5999755859</ele>
        <time>2022-06-29T11:05:50.000Z</time>
      </trkpt>
      <trkpt lat="44.32675" lon="3.66355">
        <ele>1026.5999755859</ele>
        <time>2022-06-29T11:05:52.000Z</time>
      </trkpt>
      <trkpt lat="44.32675" lon="3.66355">
        <ele>1026.5999755859</ele>
        <time>2022-06-29T11:05:53.000Z</time>
      </trkpt>
      <trkpt lat="44.32674" lon="3.66355">
        <ele>1026.5999755859</ele>
        <time>2022-06-29T11:05:55.000Z</time>
      </trkpt>
      <trkpt lat="44.32674" lon="3.66356">
        <ele>1026.5999755859</ele>
        <time>2022-06-29T11:05:57.000Z</time>
      </trkpt>
      <trkpt lat="44.32673" lon="3.66356">
        <ele>1026.5999755859</ele>
        <time>2022-06-29T11:06:02.000Z</time>
      </trkpt>
      <trkpt lat="44.32673" lon="3.66356">
        <ele>1026.5999755859</ele>
        <time>2022-06-29T11:06:03.000Z</time>
      </trkpt>
      <trkpt lat="44.32673" lon="3.66356">
        <ele>1026.5999755859</ele>
        <time>2022-06-29T11:06:09.000Z</time>
      </trkpt>
      <trkpt lat="44.32673" lon="3.66356">
        <ele>1026.5999755859</ele>
        <time>2022-06-29T11:06:10.000Z</time>
      </trkpt>
      <trkpt lat="44.32673" lon="3.66355">
        <ele>1026.5999755859</ele>
        <time>2022-06-29T11:06:16.000Z</time>
      </trkpt>
      <trkpt lat="44.32673" lon="3.66356">
        <ele>1026.5999755859</ele>
        <time>2022-06-29T11:06:21.000Z</time>
      </trkpt>
      <trkpt lat="44.32672" lon="3.66356">
        <ele>1026.5999755859</ele>
        <time>2022-06-29T11:06:26.000Z</time>
      </trkpt>
      <trkpt lat="44.32672" lon="3.66356">
        <ele>1026.5999755859</ele>
        <time>2022-06-29T11:06:28.000Z</time>
      </trkpt>
      <trkpt lat="44.32672" lon="3.66356">
        <ele>1026.5999755859</ele>
        <time>2022-06-29T11:06:34.000Z</time>
      </trkpt>
      <trkpt lat="44.32671" lon="3.66356">
        <ele>1026.5999755859</ele>
        <time>2022-06-29T11:06:38.000Z</time>
      </trkpt>
      <trkpt lat="44.32671" lon="3.66355">
        <ele>1026.5999755859</ele>
        <time>2022-06-29T11:06:40.000Z</time>
      </trkpt>
      <trkpt lat="44.32671" lon="3.66355">
        <ele>1029.4000244141</ele>
        <time>2022-06-29T11:06:41.000Z</time>
      </trkpt>
      <trkpt lat="44.32671" lon="3.66355">
        <ele>1029.1999511719</ele>
        <time>2022-06-29T11:06:47.000Z</time>
      </trkpt>
      <trkpt lat="44.32671" lon="3.66355">
        <ele>1029.4000244141</ele>
        <time>2022-06-29T11:06:53.000Z</time>
      </trkpt>
      <trkpt lat="44.32671" lon="3.66356">
        <ele>1029.8000488281</ele>
        <time>2022-06-29T11:06:59.000Z</time>
      </trkpt>
      <trkpt lat="44.3267" lon="3.66359">
        <ele>1029.5999755859</ele>
        <time>2022-06-29T11:07:05.000Z</time>
      </trkpt>
      <trkpt lat="44.3267" lon="3.66359">
        <ele>1029.5999755859</ele>
        <time>2022-06-29T11:07:06.000Z</time>
      </trkpt>
      <trkpt lat="44.32671" lon="3.66359">
        <ele>1029.8000488281</ele>
        <time>2022-06-29T11:07:07.000Z</time>
      </trkpt>
      <trkpt lat="44.32671" lon="3.66359">
        <ele>1029.8000488281</ele>
        <time>2022-06-29T11:07:08.000Z</time>
      </trkpt>
      <trkpt lat="44.32671" lon="3.6636">
        <ele>1029.8000488281</ele>
        <time>2022-06-29T11:07:11.000Z</time>
      </trkpt>
      <trkpt lat="44.32671" lon="3.6636">
        <ele>1029.5999755859</ele>
        <time>2022-06-29T11:07:13.000Z</time>
      </trkpt>
      <trkpt lat="44.32672" lon="3.6636">
        <ele>1029.5999755859</ele>
        <time>2022-06-29T11:07:14.000Z</time>
      </trkpt>
      <trkpt lat="44.32672" lon="3.66359">
        <ele>1029.5999755859</ele>
        <time>2022-06-29T11:07:15.000Z</time>
      </trkpt>
      <trkpt lat="44.32672" lon="3.66359">
        <ele>1029.5999755859</ele>
        <time>2022-06-29T11:07:16.000Z</time>
      </trkpt>
      <trkpt lat="44.32672" lon="3.66358">
        <ele>1029.5999755859</ele>
        <time>2022-06-29T11:07:17.000Z</time>
      </trkpt>
      <trkpt lat="44.32671" lon="3.66355">
        <ele>1030</ele>
        <time>2022-06-29T11:07:23.000Z</time>
      </trkpt>
      <trkpt lat="44.32671" lon="3.66353">
        <ele>1030</ele>
        <time>2022-06-29T11:07:29.000Z</time>
      </trkpt>
      <trkpt lat="44.3267" lon="3.66358">
        <ele>1030.1999511719</ele>
        <time>2022-06-29T11:07:32.000Z</time>
      </trkpt>
      <trkpt lat="44.3267" lon="3.66358">
        <ele>1030.1999511719</ele>
        <time>2022-06-29T11:07:33.000Z</time>
      </trkpt>
      <trkpt lat="44.32672" lon="3.6636">
        <ele>1030.1999511719</ele>
        <time>2022-06-29T11:07:37.000Z</time>
      </trkpt>
      <trkpt lat="44.32673" lon="3.6636">
        <ele>1030.1999511719</ele>
        <time>2022-06-29T11:07:43.000Z</time>
      </trkpt>
      <trkpt lat="44.32671" lon="3.66359">
        <ele>1030.4000244141</ele>
        <time>2022-06-29T11:07:48.000Z</time>
      </trkpt>
      <trkpt lat="44.32671" lon="3.66359">
        <ele>1030.5999755859</ele>
        <time>2022-06-29T11:07:53.000Z</time>
      </trkpt>
      <trkpt lat="44.3267" lon="3.66358">
        <ele>1030.5999755859</ele>
        <time>2022-06-29T11:07:59.000Z</time>
      </trkpt>
      <trkpt lat="44.32669" lon="3.66359">
        <ele>1030.8000488281</ele>
        <time>2022-06-29T11:08:05.000Z</time>
      </trkpt>
      <trkpt lat="44.32668" lon="3.6636">
        <ele>1030.8000488281</ele>
        <time>2022-06-29T11:08:07.000Z</time>
      </trkpt>
      <trkpt lat="44.32664" lon="3.6636">
        <ele>1031</ele>
        <time>2022-06-29T11:08:11.000Z</time>
      </trkpt>
      <trkpt lat="44.32664" lon="3.66361">
        <ele>1030.8000488281</ele>
        <time>2022-06-29T11:08:17.000Z</time>
      </trkpt>
      <trkpt lat="44.32668" lon="3.66361">
        <ele>1031</ele>
        <time>2022-06-29T11:08:23.000Z</time>
      </trkpt>
      <trkpt lat="44.32669" lon="3.66361">
        <ele>1031.1999511719</ele>
        <time>2022-06-29T11:08:26.000Z</time>
      </trkpt>
      <trkpt lat="44.32669" lon="3.66361">
        <ele>1031.4000244141</ele>
        <time>2022-06-29T11:08:28.000Z</time>
      </trkpt>
      <trkpt lat="44.3267" lon="3.66362">
        <ele>1031.4000244141</ele>
        <time>2022-06-29T11:08:32.000Z</time>
      </trkpt>
      <trkpt lat="44.32669" lon="3.66363">
        <ele>1031.4000244141</ele>
        <time>2022-06-29T11:08:36.000Z</time>
      </trkpt>
      <trkpt lat="44.32669" lon="3.66364">
        <ele>1031.8000488281</ele>
        <time>2022-06-29T11:08:42.000Z</time>
      </trkpt>
      <trkpt lat="44.32671" lon="3.66363">
        <ele>1032</ele>
        <time>2022-06-29T11:08:43.000Z</time>
      </trkpt>
      <trkpt lat="44.32674" lon="3.66362">
        <ele>1032</ele>
        <time>2022-06-29T11:08:49.000Z</time>
      </trkpt>
      <trkpt lat="44.32675" lon="3.66361">
        <ele>1032</ele>
        <time>2022-06-29T11:08:55.000Z</time>
      </trkpt>
      <trkpt lat="44.32675" lon="3.6636">
        <ele>1031.8000488281</ele>
        <time>2022-06-29T11:08:59.000Z</time>
      </trkpt>
      <trkpt lat="44.32674" lon="3.66357">
        <ele>1032</ele>
        <time>2022-06-29T11:09:05.000Z</time>
      </trkpt>
      <trkpt lat="44.32675" lon="3.66354">
        <ele>1032.4000244141</ele>
        <time>2022-06-29T11:09:11.000Z</time>
      </trkpt>
      <trkpt lat="44.32675" lon="3.66354">
        <ele>1032.4000244141</ele>
        <time>2022-06-29T11:09:12.000Z</time>
      </trkpt>
      <trkpt lat="44.32676" lon="3.66353">
        <ele>1032.8000488281</ele>
        <time>2022-06-29T11:09:15.000Z</time>
      </trkpt>
      <trkpt lat="44.32676" lon="3.66353">
        <ele>1032.5999755859</ele>
        <time>2022-06-29T11:09:21.000Z</time>
      </trkpt>
      <trkpt lat="44.32676" lon="3.66353">
        <ele>1032.5999755859</ele>
        <time>2022-06-29T11:09:26.000Z</time>
      </trkpt>
      <trkpt lat="44.32678" lon="3.66354">
        <ele>1032.8000488281</ele>
        <time>2022-06-29T11:09:32.000Z</time>
      </trkpt>
      <trkpt lat="44.32681" lon="3.66352">
        <ele>1032.8000488281</ele>
        <time>2022-06-29T11:09:36.000Z</time>
      </trkpt>
      <trkpt lat="44.32684" lon="3.66351">
        <ele>1033.1999511719</ele>
        <time>2022-06-29T11:09:42.000Z</time>
      </trkpt>
      <trkpt lat="44.32686" lon="3.66352">
        <ele>1033.4000244141</ele>
        <time>2022-06-29T11:09:48.000Z</time>
      </trkpt>
      <trkpt lat="44.32687" lon="3.66352">
        <ele>1033.4000244141</ele>
        <time>2022-06-29T11:09:49.000Z</time>
      </trkpt>
      <trkpt lat="44.32687" lon="3.66353">
        <ele>1033.5999755859</ele>
        <time>2022-06-29T11:09:54.000Z</time>
      </trkpt>
      <trkpt lat="44.32688" lon="3.66353">
        <ele>1033.5999755859</ele>
        <time>2022-06-29T11:09:57.000Z</time>
      </trkpt>
      <trkpt lat="44.32687" lon="3.66352">
        <ele>1033.4000244141</ele>
        <time>2022-06-29T11:09:59.000Z</time>
      </trkpt>
      <trkpt lat="44.32687" lon="3.66352">
        <ele>1033.5999755859</ele>
        <time>2022-06-29T11:10:03.000Z</time>
      </trkpt>
      <trkpt lat="44.32687" lon="3.66352">
        <ele>1033.5999755859</ele>
        <time>2022-06-29T11:10:05.000Z</time>
      </trkpt>
      <trkpt lat="44.32687" lon="3.66351">
        <ele>1033.8000488281</ele>
        <time>2022-06-29T11:10:11.000Z</time>
      </trkpt>
      <trkpt lat="44.32687" lon="3.66351">
        <ele>1034</ele>
        <time>2022-06-29T11:10:15.000Z</time>
      </trkpt>
      <trkpt lat="44.32684" lon="3.66351">
        <ele>1034.1999511719</ele>
        <time>2022-06-29T11:10:21.000Z</time>
      </trkpt>
      <trkpt lat="44.32682" lon="3.66348">
        <ele>1034.1999511719</ele>
        <time>2022-06-29T11:10:27.000Z</time>
      </trkpt>
      <trkpt lat="44.32679" lon="3.66347">
        <ele>1034</ele>
        <time>2022-06-29T11:10:29.000Z</time>
      </trkpt>
      <trkpt lat="44.32677" lon="3.66348">
        <ele>1034</ele>
        <time>2022-06-29T11:10:31.000Z</time>
      </trkpt>
      <trkpt lat="44.32677" lon="3.66346">
        <ele>1034.1999511719</ele>
        <time>2022-06-29T11:10:37.000Z</time>
      </trkpt>
      <trkpt lat="44.32679" lon="3.66347">
        <ele>1034.4000244141</ele>
        <time>2022-06-29T11:10:41.000Z</time>
      </trkpt>
      <trkpt lat="44.3268" lon="3.66348">
        <ele>1034.5999755859</ele>
        <time>2022-06-29T11:10:44.000Z</time>
      </trkpt>
      <trkpt lat="44.32675" lon="3.6635">
        <ele>1034.5999755859</ele>
        <time>2022-06-29T11:10:50.000Z</time>
      </trkpt>
      <trkpt lat="44.32674" lon="3.66351">
        <ele>1035</ele>
        <time>2022-06-29T11:10:56.000Z</time>
      </trkpt>
      <trkpt lat="44.32673" lon="3.66351">
        <ele>1035</ele>
        <time>2022-06-29T11:10:58.000Z</time>
      </trkpt>
      <trkpt lat="44.3267" lon="3.66353">
        <ele>1035.1999511719</ele>
        <time>2022-06-29T11:11:04.000Z</time>
      </trkpt>
      <trkpt lat="44.32671" lon="3.66352">
        <ele>1035.1999511719</ele>
        <time>2022-06-29T11:11:08.000Z</time>
      </trkpt>
      <trkpt lat="44.32671" lon="3.66352">
        <ele>1035.4000244141</ele>
        <time>2022-06-29T11:11:11.000Z</time>
      </trkpt>
      <trkpt lat="44.32671" lon="3.66351">
        <ele>1035.5999755859</ele>
        <time>2022-06-29T11:11:12.000Z</time>
      </trkpt>
      <trkpt lat="44.32669" lon="3.66352">
        <ele>1035.8000488281</ele>
        <time>2022-06-29T11:11:16.000Z</time>
      </trkpt>
      <trkpt lat="44.32669" lon="3.66353">
        <ele>1035.8000488281</ele>
        <time>2022-06-29T11:11:20.000Z</time>
      </trkpt>
      <trkpt lat="44.32668" lon="3.66356">
        <ele>1035.8000488281</ele>
        <time>2022-06-29T11:11:25.000Z</time>
      </trkpt>
      <trkpt lat="44.32668" lon="3.66356">
        <ele>1036</ele>
        <time>2022-06-29T11:11:26.000Z</time>
      </trkpt>
      <trkpt lat="44.32668" lon="3.66356">
        <ele>1036.1999511719</ele>
        <time>2022-06-29T11:11:32.000Z</time>
      </trkpt>
      <trkpt lat="44.32668" lon="3.66356">
        <ele>1036.1999511719</ele>
        <time>2022-06-29T11:11:36.000Z</time>
      </trkpt>
      <trkpt lat="44.32669" lon="3.66355">
        <ele>1036.1999511719</ele>
        <time>2022-06-29T11:11:42.000Z</time>
      </trkpt>
      <trkpt lat="44.3267" lon="3.66355">
        <ele>1036.1999511719</ele>
        <time>2022-06-29T11:11:47.000Z</time>
      </trkpt>
      <trkpt lat="44.3267" lon="3.66355">
        <ele>1036.4000244141</ele>
        <time>2022-06-29T11:11:51.000Z</time>
      </trkpt>
      <trkpt lat="44.3267" lon="3.66355">
        <ele>1036.4000244141</ele>
        <time>2022-06-29T11:11:52.000Z</time>
      </trkpt>
      <trkpt lat="44.3267" lon="3.66355">
        <ele>1036.5999755859</ele>
        <time>2022-06-29T11:11:56.000Z</time>
      </trkpt>
      <trkpt lat="44.3267" lon="3.66354">
        <ele>1036.5999755859</ele>
        <time>2022-06-29T11:12:01.000Z</time>
      </trkpt>
      <trkpt lat="44.3267" lon="3.66354">
        <ele>1036.5999755859</ele>
        <time>2022-06-29T11:12:03.000Z</time>
      </trkpt>
      <trkpt lat="44.32669" lon="3.66354">
        <ele>1036.8000488281</ele>
        <time>2022-06-29T11:12:09.000Z</time>
      </trkpt>
      <trkpt lat="44.32668" lon="3.66355">
        <ele>1037.1999511719</ele>
        <time>2022-06-29T11:12:15.000Z</time>
      </trkpt>
      <trkpt lat="44.32667" lon="3.66355">
        <ele>1037.5999755859</ele>
        <time>2022-06-29T11:12:21.000Z</time>
      </trkpt>
      <trkpt lat="44.32667" lon="3.66355">
        <ele>1037.5999755859</ele>
        <time>2022-06-29T11:12:22.000Z</time>
      </trkpt>
      <trkpt lat="44.32666" lon="3.66358">
        <ele>1037.5999755859</ele>
        <time>2022-06-29T11:12:28.000Z</time>
      </trkpt>
      <trkpt lat="44.32667" lon="3.66355">
        <ele>1037.5999755859</ele>
        <time>2022-06-29T11:12:32.000Z</time>
      </trkpt>
      <trkpt lat="44.32668" lon="3.66354">
        <ele>1037.5999755859</ele>
        <time>2022-06-29T11:12:33.000Z</time>
      </trkpt>
      <trkpt lat="44.32668" lon="3.66355">
        <ele>1038</ele>
        <time>2022-06-29T11:12:39.000Z</time>
      </trkpt>
      <trkpt lat="44.32668" lon="3.66359">
        <ele>1038.4000244141</ele>
        <time>2022-06-29T11:12:45.000Z</time>
      </trkpt>
      <trkpt lat="44.32667" lon="3.66362">
        <ele>1038.4000244141</ele>
        <time>2022-06-29T11:12:48.000Z</time>
      </trkpt>
      <trkpt lat="44.32666" lon="3.66363">
        <ele>1038.4000244141</ele>
        <time>2022-06-29T11:12:52.000Z</time>
      </trkpt>
      <trkpt lat="44.32664" lon="3.66366">
        <ele>1038.4000244141</ele>
        <time>2022-06-29T11:12:56.000Z</time>
      </trkpt>
      <trkpt lat="44.32659" lon="3.6637">
        <ele>1038.4000244141</ele>
        <time>2022-06-29T11:13:01.000Z</time>
      </trkpt>
      <trkpt lat="44.32657" lon="3.66373">
        <ele>1038.5999755859</ele>
        <time>2022-06-29T11:13:04.000Z</time>
      </trkpt>
      <trkpt lat="44.32656" lon="3.66373">
        <ele>1038.5999755859</ele>
        <time>2022-06-29T11:13:06.000Z</time>
      </trkpt>
      <trkpt lat="44.32658" lon="3.66372">
        <ele>1038.5999755859</ele>
        <time>2022-06-29T11:13:12.000Z</time>
      </trkpt>
      <trkpt lat="44.32658" lon="3.66372">
        <ele>1038.5999755859</ele>
        <time>2022-06-29T11:13:18.000Z</time>
      </trkpt>
      <trkpt lat="44.3266" lon="3.66368">
        <ele>1038.8000488281</ele>
        <time>2022-06-29T11:13:24.000Z</time>
      </trkpt>
      <trkpt lat="44.32663" lon="3.66366">
        <ele>1039</ele>
        <time>2022-06-29T11:13:30.000Z</time>
      </trkpt>
      <trkpt lat="44.32668" lon="3.66363">
        <ele>1039.1999511719</ele>
        <time>2022-06-29T11:13:35.000Z</time>
      </trkpt>
      <trkpt lat="44.32673" lon="3.6636">
        <ele>1039.1999511719</ele>
        <time>2022-06-29T11:13:41.000Z</time>
      </trkpt>
      <trkpt lat="44.32673" lon="3.6636">
        <ele>1038.8000488281</ele>
        <time>2022-06-29T11:13:47.000Z</time>
      </trkpt>
      <trkpt lat="44.32675" lon="3.66358">
        <ele>1039.1999511719</ele>
        <time>2022-06-29T11:13:52.000Z</time>
      </trkpt>
      <trkpt lat="44.32674" lon="3.66362">
        <ele>1039.1999511719</ele>
        <time>2022-06-29T11:13:58.000Z</time>
      </trkpt>
      <trkpt lat="44.32674" lon="3.66366">
        <ele>1039.1999511719</ele>
        <time>2022-06-29T11:14:04.000Z</time>
      </trkpt>
      <trkpt lat="44.32671" lon="3.6637">
        <ele>1039.1999511719</ele>
        <time>2022-06-29T11:14:08.000Z</time>
      </trkpt>
      <trkpt lat="44.3267" lon="3.66374">
        <ele>1039.1999511719</ele>
        <time>2022-06-29T11:14:14.000Z</time>
      </trkpt>
      <trkpt lat="44.32669" lon="3.66374">
        <ele>1039.1999511719</ele>
        <time>2022-06-29T11:14:18.000Z</time>
      </trkpt>
      <trkpt lat="44.32668" lon="3.66374">
        <ele>1039.1999511719</ele>
        <time>2022-06-29T11:14:19.000Z</time>
      </trkpt>
      <trkpt lat="44.32668" lon="3.66374">
        <ele>1039.1999511719</ele>
        <time>2022-06-29T11:14:23.000Z</time>
      </trkpt>
      <trkpt lat="44.32667" lon="3.66374">
        <ele>1039.1999511719</ele>
        <time>2022-06-29T11:14:25.000Z</time>
      </trkpt>
      <trkpt lat="44.32667" lon="3.66373">
        <ele>1039.1999511719</ele>
        <time>2022-06-29T11:14:27.000Z</time>
      </trkpt>
      <trkpt lat="44.32667" lon="3.66372">
        <ele>1039.1999511719</ele>
        <time>2022-06-29T11:14:28.000Z</time>
      </trkpt>
      <trkpt lat="44.32667" lon="3.66372">
        <ele>1039.1999511719</ele>
        <time>2022-06-29T11:14:29.000Z</time>
      </trkpt>
      <trkpt lat="44.32667" lon="3.66371">
        <ele>1039.1999511719</ele>
        <time>2022-06-29T11:14:31.000Z</time>
      </trkpt>
      <trkpt lat="44.32667" lon="3.66369">
        <ele>1039.1999511719</ele>
        <time>2022-06-29T11:14:35.000Z</time>
      </trkpt>
      <trkpt lat="44.32667" lon="3.66369">
        <ele>1039.1999511719</ele>
        <time>2022-06-29T11:14:37.000Z</time>
      </trkpt>
      <trkpt lat="44.32666" lon="3.66367">
        <ele>1039.1999511719</ele>
        <time>2022-06-29T11:14:40.000Z</time>
      </trkpt>
      <trkpt lat="44.32665" lon="3.66367">
        <ele>1039.1999511719</ele>
        <time>2022-06-29T11:14:41.000Z</time>
      </trkpt>
      <trkpt lat="44.32664" lon="3.66367">
        <ele>1039.1999511719</ele>
        <time>2022-06-29T11:14:45.000Z</time>
      </trkpt>
      <trkpt lat="44.32663" lon="3.66368">
        <ele>1039.1999511719</ele>
        <time>2022-06-29T11:14:47.000Z</time>
      </trkpt>
      <trkpt lat="44.32664" lon="3.66366">
        <ele>1039.1999511719</ele>
        <time>2022-06-29T11:14:53.000Z</time>
      </trkpt>
      <trkpt lat="44.32665" lon="3.66366">
        <ele>1039.1999511719</ele>
        <time>2022-06-29T11:14:54.000Z</time>
      </trkpt>
      <trkpt lat="44.32666" lon="3.66366">
        <ele>1039.1999511719</ele>
        <time>2022-06-29T11:14:58.000Z</time>
      </trkpt>
      <trkpt lat="44.32666" lon="3.66365">
        <ele>1039.1999511719</ele>
        <time>2022-06-29T11:14:59.000Z</time>
      </trkpt>
      <trkpt lat="44.32667" lon="3.66365">
        <ele>1039.1999511719</ele>
        <time>2022-06-29T11:15:00.000Z</time>
      </trkpt>
      <trkpt lat="44.32667" lon="3.66366">
        <ele>1039.1999511719</ele>
        <time>2022-06-29T11:15:02.000Z</time>
      </trkpt>
      <trkpt lat="44.32667" lon="3.66366">
        <ele>1039.1999511719</ele>
        <time>2022-06-29T11:15:08.000Z</time>
      </trkpt>
      <trkpt lat="44.32668" lon="3.66365">
        <ele>1039.1999511719</ele>
        <time>2022-06-29T11:15:13.000Z</time>
      </trkpt>
      <trkpt lat="44.32669" lon="3.66364">
        <ele>1039.1999511719</ele>
        <time>2022-06-29T11:15:17.000Z</time>
      </trkpt>
      <trkpt lat="44.3267" lon="3.66364">
        <ele>1039.1999511719</ele>
        <time>2022-06-29T11:15:18.000Z</time>
      </trkpt>
      <trkpt lat="44.3267" lon="3.66364">
        <ele>1039.1999511719</ele>
        <time>2022-06-29T11:15:19.000Z</time>
      </trkpt>
      <trkpt lat="44.3267" lon="3.66363">
        <ele>1039.1999511719</ele>
        <time>2022-06-29T11:15:22.000Z</time>
      </trkpt>
      <trkpt lat="44.3267" lon="3.66362">
        <ele>1039.1999511719</ele>
        <time>2022-06-29T11:15:27.000Z</time>
      </trkpt>
      <trkpt lat="44.32671" lon="3.66363">
        <ele>1039.1999511719</ele>
        <time>2022-06-29T11:15:33.000Z</time>
      </trkpt>
      <trkpt lat="44.3267" lon="3.66363">
        <ele>1039.1999511719</ele>
        <time>2022-06-29T11:15:39.000Z</time>
      </trkpt>
      <trkpt lat="44.3267" lon="3.66363">
        <ele>1039.1999511719</ele>
        <time>2022-06-29T11:15:42.000Z</time>
      </trkpt>
      <trkpt lat="44.3267" lon="3.66367">
        <ele>1039.1999511719</ele>
        <time>2022-06-29T11:15:48.000Z</time>
      </trkpt>
      <trkpt lat="44.32669" lon="3.66367">
        <ele>1039.1999511719</ele>
        <time>2022-06-29T11:15:54.000Z</time>
      </trkpt>
      <trkpt lat="44.32669" lon="3.66367">
        <ele>1039.1999511719</ele>
        <time>2022-06-29T11:15:56.000Z</time>
      </trkpt>
      <trkpt lat="44.32668" lon="3.66368">
        <ele>1039.1999511719</ele>
        <time>2022-06-29T11:15:59.000Z</time>
      </trkpt>
      <trkpt lat="44.32668" lon="3.66367">
        <ele>1039.1999511719</ele>
        <time>2022-06-29T11:16:01.000Z</time>
      </trkpt>
      <trkpt lat="44.32665" lon="3.66364">
        <ele>1039.1999511719</ele>
        <time>2022-06-29T11:16:07.000Z</time>
      </trkpt>
      <trkpt lat="44.32665" lon="3.66361">
        <ele>1039.1999511719</ele>
        <time>2022-06-29T11:16:12.000Z</time>
      </trkpt>
      <trkpt lat="44.32666" lon="3.66359">
        <ele>1039.1999511719</ele>
        <time>2022-06-29T11:16:18.000Z</time>
      </trkpt>
      <trkpt lat="44.32666" lon="3.66358">
        <ele>1039.1999511719</ele>
        <time>2022-06-29T11:16:20.000Z</time>
      </trkpt>
      <trkpt lat="44.32669" lon="3.66357">
        <ele>1039.1999511719</ele>
        <time>2022-06-29T11:16:26.000Z</time>
      </trkpt>
      <trkpt lat="44.3267" lon="3.66357">
        <ele>1039.1999511719</ele>
        <time>2022-06-29T11:16:29.000Z</time>
      </trkpt>
      <trkpt lat="44.3267" lon="3.66357">
        <ele>1039.1999511719</ele>
        <time>2022-06-29T11:16:35.000Z</time>
      </trkpt>
      <trkpt lat="44.32675" lon="3.66357">
        <ele>1039.1999511719</ele>
        <time>2022-06-29T11:16:38.000Z</time>
      </trkpt>
      <trkpt lat="44.3268" lon="3.66358">
        <ele>1039.1999511719</ele>
        <time>2022-06-29T11:16:41.000Z</time>
      </trkpt>
      <trkpt lat="44.32681" lon="3.66358">
        <ele>1039.1999511719</ele>
        <time>2022-06-29T11:16:42.000Z</time>
      </trkpt>
      <trkpt lat="44.32682" lon="3.66358">
        <ele>1039.1999511719</ele>
        <time>2022-06-29T11:16:44.000Z</time>
      </trkpt>
      <trkpt lat="44.32682" lon="3.66358">
        <ele>1039.4000244141</ele>
        <time>2022-06-29T11:16:45.000Z</time>
      </trkpt>
      <trkpt lat="44.32682" lon="3.66358">
        <ele>1039.8000488281</ele>
        <time>2022-06-29T11:16:46.000Z</time>
      </trkpt>
      <trkpt lat="44.3268" lon="3.66358">
        <ele>1040.8000488281</ele>
        <time>2022-06-29T11:16:51.000Z</time>
      </trkpt>
      <trkpt lat="44.3268" lon="3.66358">
        <ele>1040.8000488281</ele>
        <time>2022-06-29T11:16:52.000Z</time>
      </trkpt>
      <trkpt lat="44.32675" lon="3.66357">
        <ele>1040.1999511719</ele>
        <time>2022-06-29T11:16:58.000Z</time>
      </trkpt>
      <trkpt lat="44.32675" lon="3.66357">
        <ele>1040.4000244141</ele>
        <time>2022-06-29T11:17:00.000Z</time>
      </trkpt>
      <trkpt lat="44.32675" lon="3.66356">
        <ele>1040.4000244141</ele>
        <time>2022-06-29T11:17:03.000Z</time>
      </trkpt>
      <trkpt lat="44.32676" lon="3.66355">
        <ele>1040.4000244141</ele>
        <time>2022-06-29T11:17:06.000Z</time>
      </trkpt>
      <trkpt lat="44.32677" lon="3.66354">
        <ele>1040.5999755859</ele>
        <time>2022-06-29T11:17:12.000Z</time>
      </trkpt>
      <trkpt lat="44.32678" lon="3.66357">
        <ele>1041</ele>
        <time>2022-06-29T11:17:18.000Z</time>
      </trkpt>
      <trkpt lat="44.32678" lon="3.66358">
        <ele>1041</ele>
        <time>2022-06-29T11:17:19.000Z</time>
      </trkpt>
      <trkpt lat="44.3268" lon="3.66357">
        <ele>1041</ele>
        <time>2022-06-29T11:17:25.000Z</time>
      </trkpt>
      <trkpt lat="44.32675" lon="3.66354">
        <ele>1041.1999511719</ele>
        <time>2022-06-29T11:17:31.000Z</time>
      </trkpt>
      <trkpt lat="44.32675" lon="3.66354">
        <ele>1041.1999511719</ele>
        <time>2022-06-29T11:17:34.000Z</time>
      </trkpt>
      <trkpt lat="44.32675" lon="3.66354">
        <ele>1041.4000244141</ele>
        <time>2022-06-29T11:17:38.000Z</time>
      </trkpt>
      <trkpt lat="44.32674" lon="3.66361">
        <ele>1042</ele>
        <time>2022-06-29T11:17:44.000Z</time>
      </trkpt>
      <trkpt lat="44.32672" lon="3.66365">
        <ele>1042</ele>
        <time>2022-06-29T11:17:50.000Z</time>
      </trkpt>
      <trkpt lat="44.32673" lon="3.66366">
        <ele>1042.4000244141</ele>
        <time>2022-06-29T11:17:56.000Z</time>
      </trkpt>
      <trkpt lat="44.32674" lon="3.66365">
        <ele>1042.5999755859</ele>
        <time>2022-06-29T11:18:02.000Z</time>
      </trkpt>
      <trkpt lat="44.32673" lon="3.66366">
        <ele>1042.8000488281</ele>
        <time>2022-06-29T11:18:06.000Z</time>
      </trkpt>
      <trkpt lat="44.32673" lon="3.66368">
        <ele>1042.8000488281</ele>
        <time>2022-06-29T11:18:12.000Z</time>
      </trkpt>
      <trkpt lat="44.32671" lon="3.66369">
        <ele>1043</ele>
        <time>2022-06-29T11:18:14.000Z</time>
      </trkpt>
      <trkpt lat="44.3267" lon="3.66367">
        <ele>1043.4000244141</ele>
        <time>2022-06-29T11:18:20.000Z</time>
      </trkpt>
      <trkpt lat="44.3267" lon="3.66367">
        <ele>1043.4000244141</ele>
        <time>2022-06-29T11:18:22.000Z</time>
      </trkpt>
      <trkpt lat="44.32675" lon="3.66366">
        <ele>1043.4000244141</ele>
        <time>2022-06-29T11:18:28.000Z</time>
      </trkpt>
      <trkpt lat="44.32674" lon="3.66366">
        <ele>1043.4000244141</ele>
        <time>2022-06-29T11:18:29.000Z</time>
      </trkpt>
      <trkpt lat="44.32674" lon="3.66366">
        <ele>1043.4000244141</ele>
        <time>2022-06-29T11:18:30.000Z</time>
      </trkpt>
      <trkpt lat="44.32673" lon="3.66367">
        <ele>1043.5999755859</ele>
        <time>2022-06-29T11:18:32.000Z</time>
      </trkpt>
      <trkpt lat="44.32671" lon="3.66367">
        <ele>1043.4000244141</ele>
        <time>2022-06-29T11:18:38.000Z</time>
      </trkpt>
      <trkpt lat="44.32671" lon="3.66368">
        <ele>1043.4000244141</ele>
        <time>2022-06-29T11:18:43.000Z</time>
      </trkpt>
      <trkpt lat="44.3267" lon="3.66368">
        <ele>1043.4000244141</ele>
        <time>2022-06-29T11:18:45.000Z</time>
      </trkpt>
      <trkpt lat="44.32669" lon="3.66366">
        <ele>1043.5999755859</ele>
        <time>2022-06-29T11:18:51.000Z</time>
      </trkpt>
      <trkpt lat="44.32668" lon="3.66364">
        <ele>1043.8000488281</ele>
        <time>2022-06-29T11:18:54.000Z</time>
      </trkpt>
      <trkpt lat="44.32669" lon="3.66363">
        <ele>1043.8000488281</ele>
        <time>2022-06-29T11:18:55.000Z</time>
      </trkpt>
      <trkpt lat="44.32668" lon="3.66362">
        <ele>1043.4000244141</ele>
        <time>2022-06-29T11:19:01.000Z</time>
      </trkpt>
      <trkpt lat="44.32669" lon="3.66362">
        <ele>1043.1999511719</ele>
        <time>2022-06-29T11:19:07.000Z</time>
      </trkpt>
      <trkpt lat="44.32669" lon="3.66361">
        <ele>1043</ele>
        <time>2022-06-29T11:19:09.000Z</time>
      </trkpt>
      <trkpt lat="44.32669" lon="3.66361">
        <ele>1043</ele>
        <time>2022-06-29T11:19:13.000Z</time>
      </trkpt>
      <trkpt lat="44.32668" lon="3.66363">
        <ele>1043.1999511719</ele>
        <time>2022-06-29T11:19:17.000Z</time>
      </trkpt>
      <trkpt lat="44.32668" lon="3.66364">
        <ele>1043.1999511719</ele>
        <time>2022-06-29T11:19:22.000Z</time>
      </trkpt>
      <trkpt lat="44.32667" lon="3.66364">
        <ele>1043.1999511719</ele>
        <time>2022-06-29T11:19:26.000Z</time>
      </trkpt>
      <trkpt lat="44.32665" lon="3.66362">
        <ele>1043</ele>
        <time>2022-06-29T11:19:31.000Z</time>
      </trkpt>
      <trkpt lat="44.32666" lon="3.66362">
        <ele>1043.1999511719</ele>
        <time>2022-06-29T11:19:37.000Z</time>
      </trkpt>
      <trkpt lat="44.32665" lon="3.66364">
        <ele>1043</ele>
        <time>2022-06-29T11:19:41.000Z</time>
      </trkpt>
      <trkpt lat="44.3266" lon="3.6637">
        <ele>1042.8000488281</ele>
        <time>2022-06-29T11:19:47.000Z</time>
      </trkpt>
      <trkpt lat="44.32658" lon="3.66371">
        <ele>1043</ele>
        <time>2022-06-29T11:19:53.000Z</time>
      </trkpt>
      <trkpt lat="44.32658" lon="3.6637">
        <ele>1043</ele>
        <time>2022-06-29T11:19:56.000Z</time>
      </trkpt>
      <trkpt lat="44.32658" lon="3.6637">
        <ele>1043</ele>
        <time>2022-06-29T11:19:57.000Z</time>
      </trkpt>
      <trkpt lat="44.32658" lon="3.66369">
        <ele>1043</ele>
        <time>2022-06-29T11:20:00.000Z</time>
      </trkpt>
      <trkpt lat="44.32659" lon="3.66368">
        <ele>1042.8000488281</ele>
        <time>2022-06-29T11:20:06.000Z</time>
      </trkpt>
      <trkpt lat="44.32659" lon="3.66368">
        <ele>1042.8000488281</ele>
        <time>2022-06-29T11:20:12.000Z</time>
      </trkpt>
      <trkpt lat="44.32659" lon="3.66368">
        <ele>1042.8000488281</ele>
        <time>2022-06-29T11:20:13.000Z</time>
      </trkpt>
      <trkpt lat="44.32662" lon="3.66369">
        <ele>1042.8000488281</ele>
        <time>2022-06-29T11:20:19.000Z</time>
      </trkpt>
      <trkpt lat="44.32669" lon="3.66367">
        <ele>1042.8000488281</ele>
        <time>2022-06-29T11:20:25.000Z</time>
      </trkpt>
      <trkpt lat="44.32671" lon="3.66365">
        <ele>1043</ele>
        <time>2022-06-29T11:20:30.000Z</time>
      </trkpt>
      <trkpt lat="44.32669" lon="3.66364">
        <ele>1042.8000488281</ele>
        <time>2022-06-29T11:20:35.000Z</time>
      </trkpt>
      <trkpt lat="44.32668" lon="3.66363">
        <ele>1042.5999755859</ele>
        <time>2022-06-29T11:20:37.000Z</time>
      </trkpt>
      <trkpt lat="44.32668" lon="3.66361">
        <ele>1042.4000244141</ele>
        <time>2022-06-29T11:20:42.000Z</time>
      </trkpt>
      <trkpt lat="44.32669" lon="3.6636">
        <ele>1042.5999755859</ele>
        <time>2022-06-29T11:20:44.000Z</time>
      </trkpt>
      <trkpt lat="44.32669" lon="3.66359">
        <ele>1042.5999755859</ele>
        <time>2022-06-29T11:20:47.000Z</time>
      </trkpt>
      <trkpt lat="44.3267" lon="3.66357">
        <ele>1042.5999755859</ele>
        <time>2022-06-29T11:20:49.000Z</time>
      </trkpt>
      <trkpt lat="44.32671" lon="3.66356">
        <ele>1042.5999755859</ele>
        <time>2022-06-29T11:20:50.000Z</time>
      </trkpt>
      <trkpt lat="44.32672" lon="3.66356">
        <ele>1042.5999755859</ele>
        <time>2022-06-29T11:20:52.000Z</time>
      </trkpt>
      <trkpt lat="44.32676" lon="3.6635">
        <ele>1042.1999511719</ele>
        <time>2022-06-29T11:20:58.000Z</time>
      </trkpt>
      <trkpt lat="44.32677" lon="3.66349">
        <ele>1042.1999511719</ele>
        <time>2022-06-29T11:21:00.000Z</time>
      </trkpt>
      <trkpt lat="44.32678" lon="3.66349">
        <ele>1042</ele>
        <time>2022-06-29T11:21:03.000Z</time>
      </trkpt>
      <trkpt lat="44.32679" lon="3.6635">
        <ele>1042</ele>
        <time>2022-06-29T11:21:04.000Z</time>
      </trkpt>
      <trkpt lat="44.32683" lon="3.66353">
        <ele>1042.4000244141</ele>
        <time>2022-06-29T11:21:10.000Z</time>
      </trkpt>
      <trkpt lat="44.32682" lon="3.66349">
        <ele>1042.5999755859</ele>
        <time>2022-06-29T11:21:16.000Z</time>
      </trkpt>
      <trkpt lat="44.3268" lon="3.6635">
        <ele>1042.4000244141</ele>
        <time>2022-06-29T11:21:20.000Z</time>
      </trkpt>
      <trkpt lat="44.32679" lon="3.6635">
        <ele>1042.4000244141</ele>
        <time>2022-06-29T11:21:22.000Z</time>
      </trkpt>
      <trkpt lat="44.3268" lon="3.6635">
        <ele>1042.4000244141</ele>
        <time>2022-06-29T11:21:24.000Z</time>
      </trkpt>
      <trkpt lat="44.3268" lon="3.6635">
        <ele>1042.4000244141</ele>
        <time>2022-06-29T11:21:28.000Z</time>
      </trkpt>
      <trkpt lat="44.3268" lon="3.6635">
        <ele>1042.4000244141</ele>
        <time>2022-06-29T11:21:33.000Z</time>
      </trkpt>
      <trkpt lat="44.32681" lon="3.66351">
        <ele>1042.4000244141</ele>
        <time>2022-06-29T11:21:39.000Z</time>
      </trkpt>
      <trkpt lat="44.32681" lon="3.66355">
        <ele>1042.4000244141</ele>
        <time>2022-06-29T11:21:45.000Z</time>
      </trkpt>
      <trkpt lat="44.32681" lon="3.66357">
        <ele>1042</ele>
        <time>2022-06-29T11:21:48.000Z</time>
      </trkpt>
      <trkpt lat="44.32681" lon="3.66358">
        <ele>1042.1999511719</ele>
        <time>2022-06-29T11:21:49.000Z</time>
      </trkpt>
      <trkpt lat="44.32681" lon="3.66358">
        <ele>1042.1999511719</ele>
        <time>2022-06-29T11:21:50.000Z</time>
      </trkpt>
      <trkpt lat="44.32681" lon="3.66359">
        <ele>1042.4000244141</ele>
        <time>2022-06-29T11:21:55.000Z</time>
      </trkpt>
      <trkpt lat="44.32681" lon="3.6636">
        <ele>1042.4000244141</ele>
        <time>2022-06-29T11:21:56.000Z</time>
      </trkpt>
      <trkpt lat="44.32681" lon="3.66362">
        <ele>1042.4000244141</ele>
        <time>2022-06-29T11:22:02.000Z</time>
      </trkpt>
      <trkpt lat="44.3268" lon="3.66364">
        <ele>1042.4000244141</ele>
        <time>2022-06-29T11:22:07.000Z</time>
      </trkpt>
      <trkpt lat="44.3268" lon="3.66365">
        <ele>1042.4000244141</ele>
        <time>2022-06-29T11:22:10.000Z</time>
      </trkpt>
      <trkpt lat="44.32678" lon="3.66365">
        <ele>1042.4000244141</ele>
        <time>2022-06-29T11:22:14.000Z</time>
      </trkpt>
      <trkpt lat="44.32677" lon="3.66363">
        <ele>1042.4000244141</ele>
        <time>2022-06-29T11:22:20.000Z</time>
      </trkpt>
      <trkpt lat="44.32674" lon="3.66364">
        <ele>1042.4000244141</ele>
        <time>2022-06-29T11:22:23.000Z</time>
      </trkpt>
      <trkpt lat="44.32671" lon="3.66366">
        <ele>1042.4000244141</ele>
        <time>2022-06-29T11:22:29.000Z</time>
      </trkpt>
      <trkpt lat="44.3267" lon="3.66367">
        <ele>1042.4000244141</ele>
        <time>2022-06-29T11:22:35.000Z</time>
      </trkpt>
      <trkpt lat="44.3267" lon="3.66366">
        <ele>1042.4000244141</ele>
        <time>2022-06-29T11:22:36.000Z</time>
      </trkpt>
      <trkpt lat="44.32671" lon="3.66366">
        <ele>1042.4000244141</ele>
        <time>2022-06-29T11:22:39.000Z</time>
      </trkpt>
      <trkpt lat="44.32671" lon="3.66365">
        <ele>1042.4000244141</ele>
        <time>2022-06-29T11:22:41.000Z</time>
      </trkpt>
      <trkpt lat="44.32671" lon="3.66365">
        <ele>1042.4000244141</ele>
        <time>2022-06-29T11:22:42.000Z</time>
      </trkpt>
      <trkpt lat="44.3267" lon="3.66365">
        <ele>1042.4000244141</ele>
        <time>2022-06-29T11:22:48.000Z</time>
      </trkpt>
      <trkpt lat="44.32672" lon="3.66362">
        <ele>1042.4000244141</ele>
        <time>2022-06-29T11:22:53.000Z</time>
      </trkpt>
      <trkpt lat="44.32673" lon="3.66361">
        <ele>1042.4000244141</ele>
        <time>2022-06-29T11:22:58.000Z</time>
      </trkpt>
      <trkpt lat="44.32673" lon="3.66361">
        <ele>1042.4000244141</ele>
        <time>2022-06-29T11:22:59.000Z</time>
      </trkpt>
      <trkpt lat="44.32676" lon="3.66359">
        <ele>1042.4000244141</ele>
        <time>2022-06-29T11:23:05.000Z</time>
      </trkpt>
      <trkpt lat="44.32676" lon="3.66358">
        <ele>1042.4000244141</ele>
        <time>2022-06-29T11:23:08.000Z</time>
      </trkpt>
      <trkpt lat="44.32676" lon="3.66356">
        <ele>1042.4000244141</ele>
        <time>2022-06-29T11:23:12.000Z</time>
      </trkpt>
      <trkpt lat="44.32677" lon="3.66355">
        <ele>1042.4000244141</ele>
        <time>2022-06-29T11:23:14.000Z</time>
      </trkpt>
      <trkpt lat="44.32681" lon="3.66352">
        <ele>1042.4000244141</ele>
        <time>2022-06-29T11:23:17.000Z</time>
      </trkpt>
      <trkpt lat="44.32684" lon="3.66349">
        <ele>1042.4000244141</ele>
        <time>2022-06-29T11:23:20.000Z</time>
      </trkpt>
      <trkpt lat="44.32686" lon="3.66348">
        <ele>1042.4000244141</ele>
        <time>2022-06-29T11:23:22.000Z</time>
      </trkpt>
      <trkpt lat="44.32686" lon="3.66347">
        <ele>1042.4000244141</ele>
        <time>2022-06-29T11:23:25.000Z</time>
      </trkpt>
      <trkpt lat="44.32685" lon="3.66347">
        <ele>1042.4000244141</ele>
        <time>2022-06-29T11:23:31.000Z</time>
      </trkpt>
      <trkpt lat="44.32682" lon="3.66348">
        <ele>1042.4000244141</ele>
        <time>2022-06-29T11:23:35.000Z</time>
      </trkpt>
      <trkpt lat="44.32677" lon="3.66351">
        <ele>1042.5999755859</ele>
        <time>2022-06-29T11:23:41.000Z</time>
      </trkpt>
      <trkpt lat="44.32679" lon="3.66349">
        <ele>1042.5999755859</ele>
        <time>2022-06-29T11:23:47.000Z</time>
      </trkpt>
      <trkpt lat="44.32678" lon="3.66351">
        <ele>1042.5999755859</ele>
        <time>2022-06-29T11:23:49.000Z</time>
      </trkpt>
      <trkpt lat="44.32678" lon="3.66351">
        <ele>1042.4000244141</ele>
        <time>2022-06-29T11:23:55.000Z</time>
      </trkpt>
      <trkpt lat="44.32678" lon="3.66351">
        <ele>1042.4000244141</ele>
        <time>2022-06-29T11:23:56.000Z</time>
      </trkpt>
      <trkpt lat="44.32678" lon="3.66351">
        <ele>1042.4000244141</ele>
        <time>2022-06-29T11:23:57.000Z</time>
      </trkpt>
      <trkpt lat="44.32677" lon="3.66352">
        <ele>1042.4000244141</ele>
        <time>2022-06-29T11:24:00.000Z</time>
      </trkpt>
      <trkpt lat="44.32676" lon="3.66352">
        <ele>1042.4000244141</ele>
        <time>2022-06-29T11:24:03.000Z</time>
      </trkpt>
      <trkpt lat="44.32678" lon="3.66353">
        <ele>1042.5999755859</ele>
        <time>2022-06-29T11:24:06.000Z</time>
      </trkpt>
      <trkpt lat="44.32677" lon="3.66353">
        <ele>1043</ele>
        <time>2022-06-29T11:24:12.000Z</time>
      </trkpt>
      <trkpt lat="44.32677" lon="3.66354">
        <ele>1043</ele>
        <time>2022-06-29T11:24:14.000Z</time>
      </trkpt>
      <trkpt lat="44.32677" lon="3.66354">
        <ele>1043</ele>
        <time>2022-06-29T11:24:16.000Z</time>
      </trkpt>
      <trkpt lat="44.32677" lon="3.66354">
        <ele>1043</ele>
        <time>2022-06-29T11:24:17.000Z</time>
      </trkpt>
      <trkpt lat="44.32677" lon="3.66354">
        <ele>1043</ele>
        <time>2022-06-29T11:24:18.000Z</time>
      </trkpt>
      <trkpt lat="44.32677" lon="3.66354">
        <ele>1043.1999511719</ele>
        <time>2022-06-29T11:24:22.000Z</time>
      </trkpt>
      <trkpt lat="44.32676" lon="3.66354">
        <ele>1043.4000244141</ele>
        <time>2022-06-29T11:24:26.000Z</time>
      </trkpt>
      <trkpt lat="44.32676" lon="3.66354">
        <ele>1043.4000244141</ele>
        <time>2022-06-29T11:24:27.000Z</time>
      </trkpt>
      <trkpt lat="44.32675" lon="3.66355">
        <ele>1043.1999511719</ele>
        <time>2022-06-29T11:24:33.000Z</time>
      </trkpt>
      <trkpt lat="44.32676" lon="3.66355">
        <ele>1043.4000244141</ele>
        <time>2022-06-29T11:24:39.000Z</time>
      </trkpt>
      <trkpt lat="44.32676" lon="3.66353">
        <ele>1043.1999511719</ele>
        <time>2022-06-29T11:24:45.000Z</time>
      </trkpt>
      <trkpt lat="44.32677" lon="3.66354">
        <ele>1043.1999511719</ele>
        <time>2022-06-29T11:24:49.000Z</time>
      </trkpt>
      <trkpt lat="44.32678" lon="3.66356">
        <ele>1043.1999511719</ele>
        <time>2022-06-29T11:24:51.000Z</time>
      </trkpt>
      <trkpt lat="44.32678" lon="3.66357">
        <ele>1043.1999511719</ele>
        <time>2022-06-29T11:24:52.000Z</time>
      </trkpt>
      <trkpt lat="44.32678" lon="3.66357">
        <ele>1043.4000244141</ele>
        <time>2022-06-29T11:24:58.000Z</time>
      </trkpt>
      <trkpt lat="44.32678" lon="3.66359">
        <ele>1043.1999511719</ele>
        <time>2022-06-29T11:25:03.000Z</time>
      </trkpt>
      <trkpt lat="44.32677" lon="3.6636">
        <ele>1043.1999511719</ele>
        <time>2022-06-29T11:25:09.000Z</time>
      </trkpt>
      <trkpt lat="44.3268" lon="3.66357">
        <ele>1043.1999511719</ele>
        <time>2022-06-29T11:25:15.000Z</time>
      </trkpt>
      <trkpt lat="44.32684" lon="3.66354">
        <ele>1043.1999511719</ele>
        <time>2022-06-29T11:25:21.000Z</time>
      </trkpt>
      <trkpt lat="44.32684" lon="3.66352">
        <ele>1043.4000244141</ele>
        <time>2022-06-29T11:25:27.000Z</time>
      </trkpt>
      <trkpt lat="44.32683" lon="3.66351">
        <ele>1043.1999511719</ele>
        <time>2022-06-29T11:25:30.000Z</time>
      </trkpt>
      <trkpt lat="44.32683" lon="3.6635">
        <ele>1043.1999511719</ele>
        <time>2022-06-29T11:25:31.000Z</time>
      </trkpt>
      <trkpt lat="44.32683" lon="3.66348">
        <ele>1043.1999511719</ele>
        <time>2022-06-29T11:25:37.000Z</time>
      </trkpt>
      <trkpt lat="44.32683" lon="3.66348">
        <ele>1043.1999511719</ele>
        <time>2022-06-29T11:25:43.000Z</time>
      </trkpt>
      <trkpt lat="44.32681" lon="3.66352">
        <ele>1043</ele>
        <time>2022-06-29T11:25:48.000Z</time>
      </trkpt>
      <trkpt lat="44.3268" lon="3.66355">
        <ele>1043</ele>
        <time>2022-06-29T11:25:54.000Z</time>
      </trkpt>
      <trkpt lat="44.3268" lon="3.66356">
        <ele>1043.1999511719</ele>
        <time>2022-06-29T11:25:59.000Z</time>
      </trkpt>
      <trkpt lat="44.32681" lon="3.66356">
        <ele>1043.1999511719</ele>
        <time>2022-06-29T11:26:00.000Z</time>
      </trkpt>
      <trkpt lat="44.32681" lon="3.66357">
        <ele>1043.1999511719</ele>
        <time>2022-06-29T11:26:01.000Z</time>
      </trkpt>
      <trkpt lat="44.32681" lon="3.66358">
        <ele>1043</ele>
        <time>2022-06-29T11:26:04.000Z</time>
      </trkpt>
      <trkpt lat="44.3268" lon="3.66358">
        <ele>1043</ele>
        <time>2022-06-29T11:26:06.000Z</time>
      </trkpt>
      <trkpt lat="44.32678" lon="3.66358">
        <ele>1043</ele>
        <time>2022-06-29T11:26:12.000Z</time>
      </trkpt>
      <trkpt lat="44.32678" lon="3.66358">
        <ele>1043</ele>
        <time>2022-06-29T11:26:13.000Z</time>
      </trkpt>
      <trkpt lat="44.32677" lon="3.66359">
        <ele>1043</ele>
        <time>2022-06-29T11:26:19.000Z</time>
      </trkpt>
      <trkpt lat="44.32676" lon="3.66359">
        <ele>1043</ele>
        <time>2022-06-29T11:26:23.000Z</time>
      </trkpt>
      <trkpt lat="44.32675" lon="3.66359">
        <ele>1043</ele>
        <time>2022-06-29T11:26:24.000Z</time>
      </trkpt>
      <trkpt lat="44.32675" lon="3.66358">
        <ele>1043</ele>
        <time>2022-06-29T11:26:25.000Z</time>
      </trkpt>
      <trkpt lat="44.32676" lon="3.66357">
        <ele>1043.1999511719</ele>
        <time>2022-06-29T11:26:31.000Z</time>
      </trkpt>
      <trkpt lat="44.32679" lon="3.66355">
        <ele>1043.1999511719</ele>
        <time>2022-06-29T11:26:35.000Z</time>
      </trkpt>
      <trkpt lat="44.32679" lon="3.66354">
        <ele>1043.1999511719</ele>
        <time>2022-06-29T11:26:37.000Z</time>
      </trkpt>
      <trkpt lat="44.3268" lon="3.66352">
        <ele>1043.1999511719</ele>
        <time>2022-06-29T11:26:40.000Z</time>
      </trkpt>
      <trkpt lat="44.3268" lon="3.66351">
        <ele>1043.1999511719</ele>
        <time>2022-06-29T11:26:46.000Z</time>
      </trkpt>
      <trkpt lat="44.32681" lon="3.66351">
        <ele>1043.1999511719</ele>
        <time>2022-06-29T11:26:49.000Z</time>
      </trkpt>
      <trkpt lat="44.32684" lon="3.66351">
        <ele>1043.1999511719</ele>
        <time>2022-06-29T11:26:55.000Z</time>
      </trkpt>
      <trkpt lat="44.32684" lon="3.66352">
        <ele>1043.1999511719</ele>
        <time>2022-06-29T11:26:56.000Z</time>
      </trkpt>
      <trkpt lat="44.32684" lon="3.66351">
        <ele>1043.1999511719</ele>
        <time>2022-06-29T11:26:57.000Z</time>
      </trkpt>
      <trkpt lat="44.32682" lon="3.66352">
        <ele>1043.1999511719</ele>
        <time>2022-06-29T11:27:00.000Z</time>
      </trkpt>
      <trkpt lat="44.32682" lon="3.66352">
        <ele>1043.1999511719</ele>
        <time>2022-06-29T11:27:04.000Z</time>
      </trkpt>
      <trkpt lat="44.32682" lon="3.66353">
        <ele>1043.1999511719</ele>
        <time>2022-06-29T11:27:10.000Z</time>
      </trkpt>
      <trkpt lat="44.32681" lon="3.66352">
        <ele>1043.1999511719</ele>
        <time>2022-06-29T11:27:16.000Z</time>
      </trkpt>
      <trkpt lat="44.3268" lon="3.66352">
        <ele>1043.1999511719</ele>
        <time>2022-06-29T11:27:17.000Z</time>
      </trkpt>
      <trkpt lat="44.32677" lon="3.66354">
        <ele>1043.1999511719</ele>
        <time>2022-06-29T11:27:23.000Z</time>
      </trkpt>
      <trkpt lat="44.32677" lon="3.66356">
        <ele>1043.1999511719</ele>
        <time>2022-06-29T11:27:29.000Z</time>
      </trkpt>
      <trkpt lat="44.32676" lon="3.66356">
        <ele>1043.1999511719</ele>
        <time>2022-06-29T11:27:34.000Z</time>
      </trkpt>
      <trkpt lat="44.32677" lon="3.66357">
        <ele>1043.1999511719</ele>
        <time>2022-06-29T11:27:38.000Z</time>
      </trkpt>
      <trkpt lat="44.32677" lon="3.66354">
        <ele>1043.1999511719</ele>
        <time>2022-06-29T11:27:41.000Z</time>
      </trkpt>
      <trkpt lat="44.32675" lon="3.66352">
        <ele>1043.1999511719</ele>
        <time>2022-06-29T11:27:46.000Z</time>
      </trkpt>
      <trkpt lat="44.32675" lon="3.66352">
        <ele>1043.1999511719</ele>
        <time>2022-06-29T11:27:47.000Z</time>
      </trkpt>
      <trkpt lat="44.32674" lon="3.66352">
        <ele>1043.1999511719</ele>
        <time>2022-06-29T11:27:48.000Z</time>
      </trkpt>
      <trkpt lat="44.32675" lon="3.66352">
        <ele>1043.1999511719</ele>
        <time>2022-06-29T11:27:54.000Z</time>
      </trkpt>
      <trkpt lat="44.32675" lon="3.66352">
        <ele>1043.1999511719</ele>
        <time>2022-06-29T11:27:56.000Z</time>
      </trkpt>
      <trkpt lat="44.32675" lon="3.66351">
        <ele>1043.1999511719</ele>
        <time>2022-06-29T11:27:58.000Z</time>
      </trkpt>
      <trkpt lat="44.32676" lon="3.66351">
        <ele>1043.1999511719</ele>
        <time>2022-06-29T11:27:59.000Z</time>
      </trkpt>
      <trkpt lat="44.32676" lon="3.6635">
        <ele>1043.1999511719</ele>
        <time>2022-06-29T11:28:01.000Z</time>
      </trkpt>
      <trkpt lat="44.32677" lon="3.6635">
        <ele>1043.1999511719</ele>
        <time>2022-06-29T11:28:03.000Z</time>
      </trkpt>
      <trkpt lat="44.32677" lon="3.6635">
        <ele>1043.1999511719</ele>
        <time>2022-06-29T11:28:09.000Z</time>
      </trkpt>
      <trkpt lat="44.32676" lon="3.6635">
        <ele>1043.1999511719</ele>
        <time>2022-06-29T11:28:15.000Z</time>
      </trkpt>
      <trkpt lat="44.32675" lon="3.66352">
        <ele>1043.1999511719</ele>
        <time>2022-06-29T11:28:18.000Z</time>
      </trkpt>
      <trkpt lat="44.32675" lon="3.66352">
        <ele>1043.1999511719</ele>
        <time>2022-06-29T11:28:19.000Z</time>
      </trkpt>
      <trkpt lat="44.32675" lon="3.66352">
        <ele>1043.1999511719</ele>
        <time>2022-06-29T11:28:20.000Z</time>
      </trkpt>
      <trkpt lat="44.32674" lon="3.66352">
        <ele>1043.1999511719</ele>
        <time>2022-06-29T11:28:22.000Z</time>
      </trkpt>
      <trkpt lat="44.32672" lon="3.66351">
        <ele>1043.1999511719</ele>
        <time>2022-06-29T11:28:28.000Z</time>
      </trkpt>
      <trkpt lat="44.32672" lon="3.66348">
        <ele>1043.1999511719</ele>
        <time>2022-06-29T11:28:34.000Z</time>
      </trkpt>
      <trkpt lat="44.32671" lon="3.66346">
        <ele>1043.1999511719</ele>
        <time>2022-06-29T11:28:39.000Z</time>
      </trkpt>
      <trkpt lat="44.32672" lon="3.66347">
        <ele>1043.1999511719</ele>
        <time>2022-06-29T11:28:45.000Z</time>
      </trkpt>
      <trkpt lat="44.32671" lon="3.6635">
        <ele>1043.1999511719</ele>
        <time>2022-06-29T11:28:51.000Z</time>
      </trkpt>
      <trkpt lat="44.32669" lon="3.66351">
        <ele>1043.1999511719</ele>
        <time>2022-06-29T11:28:57.000Z</time>
      </trkpt>
      <trkpt lat="44.32666" lon="3.66352">
        <ele>1043.1999511719</ele>
        <time>2022-06-29T11:29:03.000Z</time>
      </trkpt>
      <trkpt lat="44.32665" lon="3.66354">
        <ele>1043.1999511719</ele>
        <time>2022-06-29T11:29:09.000Z</time>
      </trkpt>
      <trkpt lat="44.32665" lon="3.66355">
        <ele>1043.1999511719</ele>
        <time>2022-06-29T11:29:11.000Z</time>
      </trkpt>
      <trkpt lat="44.32665" lon="3.66355">
        <ele>1043.1999511719</ele>
        <time>2022-06-29T11:29:13.000Z</time>
      </trkpt>
      <trkpt lat="44.32668" lon="3.66353">
        <ele>1043.1999511719</ele>
        <time>2022-06-29T11:29:16.000Z</time>
      </trkpt>
      <trkpt lat="44.32669" lon="3.66352">
        <ele>1043.1999511719</ele>
        <time>2022-06-29T11:29:17.000Z</time>
      </trkpt>
      <trkpt lat="44.3267" lon="3.66352">
        <ele>1043.1999511719</ele>
        <time>2022-06-29T11:29:18.000Z</time>
      </trkpt>
      <trkpt lat="44.32671" lon="3.6635">
        <ele>1043.1999511719</ele>
        <time>2022-06-29T11:29:21.000Z</time>
      </trkpt>
      <trkpt lat="44.3267" lon="3.6635">
        <ele>1043.1999511719</ele>
        <time>2022-06-29T11:29:23.000Z</time>
      </trkpt>
      <trkpt lat="44.3267" lon="3.6635">
        <ele>1043.1999511719</ele>
        <time>2022-06-29T11:29:25.000Z</time>
      </trkpt>
      <trkpt lat="44.3267" lon="3.6635">
        <ele>1043.1999511719</ele>
        <time>2022-06-29T11:29:28.000Z</time>
      </trkpt>
      <trkpt lat="44.3267" lon="3.6635">
        <ele>1043.1999511719</ele>
        <time>2022-06-29T11:29:29.000Z</time>
      </trkpt>
      <trkpt lat="44.32671" lon="3.66349">
        <ele>1043.1999511719</ele>
        <time>2022-06-29T11:29:35.000Z</time>
      </trkpt>
      <trkpt lat="44.32672" lon="3.66349">
        <ele>1043.1999511719</ele>
        <time>2022-06-29T11:29:41.000Z</time>
      </trkpt>
      <trkpt lat="44.32672" lon="3.66348">
        <ele>1043.1999511719</ele>
        <time>2022-06-29T11:29:42.000Z</time>
      </trkpt>
      <trkpt lat="44.32671" lon="3.66349">
        <ele>1043.1999511719</ele>
        <time>2022-06-29T11:29:48.000Z</time>
      </trkpt>
      <trkpt lat="44.32671" lon="3.66351">
        <ele>1043.1999511719</ele>
        <time>2022-06-29T11:29:54.000Z</time>
      </trkpt>
      <trkpt lat="44.32672" lon="3.66352">
        <ele>1043.1999511719</ele>
        <time>2022-06-29T11:29:57.000Z</time>
      </trkpt>
      <trkpt lat="44.32671" lon="3.66352">
        <ele>1043.1999511719</ele>
        <time>2022-06-29T11:30:03.000Z</time>
      </trkpt>
      <trkpt lat="44.32672" lon="3.66354">
        <ele>1043.1999511719</ele>
        <time>2022-06-29T11:30:09.000Z</time>
      </trkpt>
      <trkpt lat="44.32672" lon="3.66354">
        <ele>1043.1999511719</ele>
        <time>2022-06-29T11:30:11.000Z</time>
      </trkpt>
      <trkpt lat="44.32671" lon="3.66356">
        <ele>1043.1999511719</ele>
        <time>2022-06-29T11:30:17.000Z</time>
      </trkpt>
      <trkpt lat="44.32672" lon="3.66356">
        <ele>1043.1999511719</ele>
        <time>2022-06-29T11:30:23.000Z</time>
      </trkpt>
      <trkpt lat="44.32672" lon="3.66356">
        <ele>1043.1999511719</ele>
        <time>2022-06-29T11:30:24.000Z</time>
      </trkpt>
      <trkpt lat="44.32673" lon="3.66355">
        <ele>1043.1999511719</ele>
        <time>2022-06-29T11:30:25.000Z</time>
      </trkpt>
      <trkpt lat="44.32674" lon="3.66355">
        <ele>1043.1999511719</ele>
        <time>2022-06-29T11:30:27.000Z</time>
      </trkpt>
      <trkpt lat="44.32676" lon="3.66354">
        <ele>1043.1999511719</ele>
        <time>2022-06-29T11:30:31.000Z</time>
      </trkpt>
      <trkpt lat="44.32677" lon="3.66356">
        <ele>1043.1999511719</ele>
        <time>2022-06-29T11:30:34.000Z</time>
      </trkpt>
      <trkpt lat="44.32678" lon="3.66356">
        <ele>1043.1999511719</ele>
        <time>2022-06-29T11:30:40.000Z</time>
      </trkpt>
      <trkpt lat="44.32677" lon="3.66358">
        <ele>1043.1999511719</ele>
        <time>2022-06-29T11:30:43.000Z</time>
      </trkpt>
      <trkpt lat="44.32674" lon="3.66359">
        <ele>1043.1999511719</ele>
        <time>2022-06-29T11:30:49.000Z</time>
      </trkpt>
      <trkpt lat="44.32674" lon="3.66359">
        <ele>1043.1999511719</ele>
        <time>2022-06-29T11:30:55.000Z</time>
      </trkpt>
      <trkpt lat="44.32674" lon="3.6636">
        <ele>1043.1999511719</ele>
        <time>2022-06-29T11:30:59.000Z</time>
      </trkpt>
      <trkpt lat="44.32674" lon="3.66359">
        <ele>1043.1999511719</ele>
        <time>2022-06-29T11:31:05.000Z</time>
      </trkpt>
      <trkpt lat="44.32675" lon="3.66359">
        <ele>1043.1999511719</ele>
        <time>2022-06-29T11:31:07.000Z</time>
      </trkpt>
      <trkpt lat="44.32676" lon="3.6636">
        <ele>1043.1999511719</ele>
        <time>2022-06-29T11:31:13.000Z</time>
      </trkpt>
      <trkpt lat="44.32677" lon="3.66359">
        <ele>1043.1999511719</ele>
        <time>2022-06-29T11:31:16.000Z</time>
      </trkpt>
      <trkpt lat="44.32676" lon="3.66361">
        <ele>1043.1999511719</ele>
        <time>2022-06-29T11:31:18.000Z</time>
      </trkpt>
      <trkpt lat="44.32677" lon="3.66362">
        <ele>1043.1999511719</ele>
        <time>2022-06-29T11:31:21.000Z</time>
      </trkpt>
      <trkpt lat="44.32677" lon="3.66362">
        <ele>1043.1999511719</ele>
        <time>2022-06-29T11:31:27.000Z</time>
      </trkpt>
      <trkpt lat="44.32676" lon="3.66362">
        <ele>1043.1999511719</ele>
        <time>2022-06-29T11:31:30.000Z</time>
      </trkpt>
      <trkpt lat="44.32676" lon="3.66362">
        <ele>1043.1999511719</ele>
        <time>2022-06-29T11:31:36.000Z</time>
      </trkpt>
      <trkpt lat="44.32675" lon="3.66361">
        <ele>1043.1999511719</ele>
        <time>2022-06-29T11:31:39.000Z</time>
      </trkpt>
      <trkpt lat="44.32675" lon="3.66361">
        <ele>1043.1999511719</ele>
        <time>2022-06-29T11:31:45.000Z</time>
      </trkpt>
      <trkpt lat="44.32674" lon="3.6636">
        <ele>1043.1999511719</ele>
        <time>2022-06-29T11:31:48.000Z</time>
      </trkpt>
      <trkpt lat="44.32675" lon="3.66361">
        <ele>1043.1999511719</ele>
        <time>2022-06-29T11:31:54.000Z</time>
      </trkpt>
      <trkpt lat="44.32675" lon="3.66361">
        <ele>1043.1999511719</ele>
        <time>2022-06-29T11:31:56.000Z</time>
      </trkpt>
      <trkpt lat="44.32676" lon="3.66361">
        <ele>1043.1999511719</ele>
        <time>2022-06-29T11:32:01.000Z</time>
      </trkpt>
      <trkpt lat="44.32676" lon="3.66361">
        <ele>1043.1999511719</ele>
        <time>2022-06-29T11:32:07.000Z</time>
      </trkpt>
      <trkpt lat="44.32675" lon="3.66361">
        <ele>1043.1999511719</ele>
        <time>2022-06-29T11:32:08.000Z</time>
      </trkpt>
      <trkpt lat="44.32674" lon="3.66361">
        <ele>1043.1999511719</ele>
        <time>2022-06-29T11:32:11.000Z</time>
      </trkpt>
      <trkpt lat="44.32674" lon="3.66361">
        <ele>1043.1999511719</ele>
        <time>2022-06-29T11:32:12.000Z</time>
      </trkpt>
      <trkpt lat="44.32673" lon="3.66361">
        <ele>1043.1999511719</ele>
        <time>2022-06-29T11:32:15.000Z</time>
      </trkpt>
      <trkpt lat="44.32674" lon="3.66362">
        <ele>1043.1999511719</ele>
        <time>2022-06-29T11:32:18.000Z</time>
      </trkpt>
      <trkpt lat="44.32672" lon="3.66362">
        <ele>1043.1999511719</ele>
        <time>2022-06-29T11:32:24.000Z</time>
      </trkpt>
      <trkpt lat="44.32674" lon="3.66362">
        <ele>1043.1999511719</ele>
        <time>2022-06-29T11:32:30.000Z</time>
      </trkpt>
      <trkpt lat="44.32674" lon="3.66363">
        <ele>1043.1999511719</ele>
        <time>2022-06-29T11:32:32.000Z</time>
      </trkpt>
      <trkpt lat="44.32673" lon="3.66363">
        <ele>1043.1999511719</ele>
        <time>2022-06-29T11:32:33.000Z</time>
      </trkpt>
      <trkpt lat="44.32673" lon="3.66363">
        <ele>1043.1999511719</ele>
        <time>2022-06-29T11:32:39.000Z</time>
      </trkpt>
      <trkpt lat="44.32674" lon="3.66363">
        <ele>1043.1999511719</ele>
        <time>2022-06-29T11:32:45.000Z</time>
      </trkpt>
      <trkpt lat="44.32675" lon="3.66363">
        <ele>1043.1999511719</ele>
        <time>2022-06-29T11:32:48.000Z</time>
      </trkpt>
      <trkpt lat="44.32675" lon="3.66362">
        <ele>1043.1999511719</ele>
        <time>2022-06-29T11:32:49.000Z</time>
      </trkpt>
      <trkpt lat="44.32674" lon="3.66362">
        <ele>1043.1999511719</ele>
        <time>2022-06-29T11:32:55.000Z</time>
      </trkpt>
      <trkpt lat="44.32672" lon="3.6636">
        <ele>1043.1999511719</ele>
        <time>2022-06-29T11:33:01.000Z</time>
      </trkpt>
      <trkpt lat="44.32671" lon="3.6636">
        <ele>1043.1999511719</ele>
        <time>2022-06-29T11:33:03.000Z</time>
      </trkpt>
      <trkpt lat="44.32673" lon="3.6636">
        <ele>1043.1999511719</ele>
        <time>2022-06-29T11:33:09.000Z</time>
      </trkpt>
      <trkpt lat="44.32673" lon="3.66359">
        <ele>1043.1999511719</ele>
        <time>2022-06-29T11:33:14.000Z</time>
      </trkpt>
      <trkpt lat="44.32672" lon="3.66356">
        <ele>1043.1999511719</ele>
        <time>2022-06-29T11:33:20.000Z</time>
      </trkpt>
      <trkpt lat="44.32671" lon="3.66356">
        <ele>1043.1999511719</ele>
        <time>2022-06-29T11:33:23.000Z</time>
      </trkpt>
      <trkpt lat="44.32668" lon="3.66358">
        <ele>1043.1999511719</ele>
        <time>2022-06-29T11:33:29.000Z</time>
      </trkpt>
      <trkpt lat="44.32668" lon="3.66359">
        <ele>1043.1999511719</ele>
        <time>2022-06-29T11:33:35.000Z</time>
      </trkpt>
      <trkpt lat="44.3267" lon="3.66359">
        <ele>1043.1999511719</ele>
        <time>2022-06-29T11:33:41.000Z</time>
      </trkpt>
      <trkpt lat="44.32669" lon="3.66359">
        <ele>1043.1999511719</ele>
        <time>2022-06-29T11:33:42.000Z</time>
      </trkpt>
      <trkpt lat="44.3267" lon="3.6636">
        <ele>1043.1999511719</ele>
        <time>2022-06-29T11:33:45.000Z</time>
      </trkpt>
      <trkpt lat="44.3267" lon="3.66361">
        <ele>1043.1999511719</ele>
        <time>2022-06-29T11:33:46.000Z</time>
      </trkpt>
      <trkpt lat="44.3267" lon="3.66361">
        <ele>1043.1999511719</ele>
        <time>2022-06-29T11:33:52.000Z</time>
      </trkpt>
      <trkpt lat="44.32669" lon="3.6636">
        <ele>1043.1999511719</ele>
        <time>2022-06-29T11:33:58.000Z</time>
      </trkpt>
      <trkpt lat="44.3267" lon="3.66359">
        <ele>1043.1999511719</ele>
        <time>2022-06-29T11:34:04.000Z</time>
      </trkpt>
      <trkpt lat="44.32672" lon="3.66358">
        <ele>1043.1999511719</ele>
        <time>2022-06-29T11:34:10.000Z</time>
      </trkpt>
      <trkpt lat="44.32673" lon="3.66358">
        <ele>1043.1999511719</ele>
        <time>2022-06-29T11:34:16.000Z</time>
      </trkpt>
      <trkpt lat="44.32674" lon="3.66359">
        <ele>1043.1999511719</ele>
        <time>2022-06-29T11:34:17.000Z</time>
      </trkpt>
      <trkpt lat="44.32673" lon="3.66358">
        <ele>1043.1999511719</ele>
        <time>2022-06-29T11:34:20.000Z</time>
      </trkpt>
      <trkpt lat="44.32674" lon="3.66357">
        <ele>1043.1999511719</ele>
        <time>2022-06-29T11:34:24.000Z</time>
      </trkpt>
      <trkpt lat="44.32676" lon="3.66357">
        <ele>1043.1999511719</ele>
        <time>2022-06-29T11:34:27.000Z</time>
      </trkpt>
      <trkpt lat="44.32676" lon="3.66358">
        <ele>1043.1999511719</ele>
        <time>2022-06-29T11:34:29.000Z</time>
      </trkpt>
      <trkpt lat="44.32676" lon="3.66358">
        <ele>1043.1999511719</ele>
        <time>2022-06-29T11:34:30.000Z</time>
      </trkpt>
      <trkpt lat="44.32676" lon="3.66359">
        <ele>1043.1999511719</ele>
        <time>2022-06-29T11:34:35.000Z</time>
      </trkpt>
      <trkpt lat="44.32676" lon="3.66358">
        <ele>1043.1999511719</ele>
        <time>2022-06-29T11:34:36.000Z</time>
      </trkpt>
      <trkpt lat="44.32679" lon="3.66358">
        <ele>1043.1999511719</ele>
        <time>2022-06-29T11:34:42.000Z</time>
      </trkpt>
      <trkpt lat="44.32679" lon="3.66359">
        <ele>1043.1999511719</ele>
        <time>2022-06-29T11:34:43.000Z</time>
      </trkpt>
      <trkpt lat="44.32679" lon="3.66358">
        <ele>1043.1999511719</ele>
        <time>2022-06-29T11:34:45.000Z</time>
      </trkpt>
      <trkpt lat="44.3268" lon="3.66358">
        <ele>1043.1999511719</ele>
        <time>2022-06-29T11:34:49.000Z</time>
      </trkpt>
      <trkpt lat="44.3268" lon="3.66359">
        <ele>1043.1999511719</ele>
        <time>2022-06-29T11:34:50.000Z</time>
      </trkpt>
      <trkpt lat="44.32681" lon="3.66359">
        <ele>1043.1999511719</ele>
        <time>2022-06-29T11:34:56.000Z</time>
      </trkpt>
      <trkpt lat="44.3268" lon="3.66359">
        <ele>1043.1999511719</ele>
        <time>2022-06-29T11:35:01.000Z</time>
      </trkpt>
      <trkpt lat="44.32683" lon="3.66356">
        <ele>1043.1999511719</ele>
        <time>2022-06-29T11:35:07.000Z</time>
      </trkpt>
      <trkpt lat="44.32684" lon="3.66351">
        <ele>1043.1999511719</ele>
        <time>2022-06-29T11:35:12.000Z</time>
      </trkpt>
      <trkpt lat="44.32682" lon="3.66348">
        <ele>1043.1999511719</ele>
        <time>2022-06-29T11:35:17.000Z</time>
      </trkpt>
      <trkpt lat="44.32673" lon="3.66348">
        <ele>1043.1999511719</ele>
        <time>2022-06-29T11:35:23.000Z</time>
      </trkpt>
      <trkpt lat="44.32669" lon="3.66347">
        <ele>1043.1999511719</ele>
        <time>2022-06-29T11:35:29.000Z</time>
      </trkpt>
      <trkpt lat="44.32665" lon="3.66346">
        <ele>1043.1999511719</ele>
        <time>2022-06-29T11:35:35.000Z</time>
      </trkpt>
      <trkpt lat="44.32665" lon="3.66347">
        <ele>1043.1999511719</ele>
        <time>2022-06-29T11:35:41.000Z</time>
      </trkpt>
      <trkpt lat="44.32664" lon="3.66347">
        <ele>1043.1999511719</ele>
        <time>2022-06-29T11:35:44.000Z</time>
      </trkpt>
      <trkpt lat="44.32663" lon="3.66347">
        <ele>1043.1999511719</ele>
        <time>2022-06-29T11:35:50.000Z</time>
      </trkpt>
      <trkpt lat="44.32664" lon="3.66349">
        <ele>1043.1999511719</ele>
        <time>2022-06-29T11:35:56.000Z</time>
      </trkpt>
      <trkpt lat="44.32665" lon="3.66348">
        <ele>1043.1999511719</ele>
        <time>2022-06-29T11:36:01.000Z</time>
      </trkpt>
      <trkpt lat="44.32666" lon="3.66346">
        <ele>1043.1999511719</ele>
        <time>2022-06-29T11:36:07.000Z</time>
      </trkpt>
      <trkpt lat="44.32665" lon="3.66347">
        <ele>1043.1999511719</ele>
        <time>2022-06-29T11:36:13.000Z</time>
      </trkpt>
      <trkpt lat="44.32666" lon="3.66351">
        <ele>1043.1999511719</ele>
        <time>2022-06-29T11:36:19.000Z</time>
      </trkpt>
      <trkpt lat="44.32667" lon="3.66352">
        <ele>1043.1999511719</ele>
        <time>2022-06-29T11:36:21.000Z</time>
      </trkpt>
      <trkpt lat="44.32667" lon="3.66352">
        <ele>1043.1999511719</ele>
        <time>2022-06-29T11:36:22.000Z</time>
      </trkpt>
      <trkpt lat="44.32668" lon="3.66351">
        <ele>1043.1999511719</ele>
        <time>2022-06-29T11:36:28.000Z</time>
      </trkpt>
      <trkpt lat="44.32669" lon="3.66351">
        <ele>1043.1999511719</ele>
        <time>2022-06-29T11:36:32.000Z</time>
      </trkpt>
      <trkpt lat="44.32671" lon="3.66353">
        <ele>1043.1999511719</ele>
        <time>2022-06-29T11:36:38.000Z</time>
      </trkpt>
      <trkpt lat="44.32671" lon="3.66353">
        <ele>1043.1999511719</ele>
        <time>2022-06-29T11:36:39.000Z</time>
      </trkpt>
      <trkpt lat="44.32671" lon="3.66354">
        <ele>1043.1999511719</ele>
        <time>2022-06-29T11:36:43.000Z</time>
      </trkpt>
      <trkpt lat="44.32671" lon="3.66354">
        <ele>1043.1999511719</ele>
        <time>2022-06-29T11:36:46.000Z</time>
      </trkpt>
      <trkpt lat="44.32669" lon="3.66354">
        <ele>1043.1999511719</ele>
        <time>2022-06-29T11:36:52.000Z</time>
      </trkpt>
      <trkpt lat="44.32669" lon="3.66355">
        <ele>1043.1999511719</ele>
        <time>2022-06-29T11:36:56.000Z</time>
      </trkpt>
      <trkpt lat="44.32669" lon="3.66354">
        <ele>1043.1999511719</ele>
        <time>2022-06-29T11:36:58.000Z</time>
      </trkpt>
      <trkpt lat="44.32669" lon="3.66355">
        <ele>1043.1999511719</ele>
        <time>2022-06-29T11:36:59.000Z</time>
      </trkpt>
      <trkpt lat="44.3267" lon="3.66354">
        <ele>1043.1999511719</ele>
        <time>2022-06-29T11:37:05.000Z</time>
      </trkpt>
      <trkpt lat="44.3267" lon="3.66354">
        <ele>1043.1999511719</ele>
        <time>2022-06-29T11:37:07.000Z</time>
      </trkpt>
      <trkpt lat="44.32674" lon="3.66353">
        <ele>1043.1999511719</ele>
        <time>2022-06-29T11:37:13.000Z</time>
      </trkpt>
      <trkpt lat="44.32673" lon="3.66353">
        <ele>1043.1999511719</ele>
        <time>2022-06-29T11:37:15.000Z</time>
      </trkpt>
      <trkpt lat="44.32673" lon="3.66352">
        <ele>1043.1999511719</ele>
        <time>2022-06-29T11:37:17.000Z</time>
      </trkpt>
      <trkpt lat="44.32676" lon="3.66354">
        <ele>1043.1999511719</ele>
        <time>2022-06-29T11:37:20.000Z</time>
      </trkpt>
      <trkpt lat="44.32679" lon="3.66353">
        <ele>1043.1999511719</ele>
        <time>2022-06-29T11:37:26.000Z</time>
      </trkpt>
      <trkpt lat="44.32681" lon="3.66352">
        <ele>1043.1999511719</ele>
        <time>2022-06-29T11:37:30.000Z</time>
      </trkpt>
      <trkpt lat="44.32682" lon="3.66352">
        <ele>1043.1999511719</ele>
        <time>2022-06-29T11:37:35.000Z</time>
      </trkpt>
      <trkpt lat="44.32681" lon="3.66353">
        <ele>1046.4000244141</ele>
        <time>2022-06-29T11:37:38.000Z</time>
      </trkpt>
      <trkpt lat="44.32681" lon="3.66354">
        <ele>1046.4000244141</ele>
        <time>2022-06-29T11:37:42.000Z</time>
      </trkpt>
      <trkpt lat="44.3268" lon="3.66355">
        <ele>1046.4000244141</ele>
        <time>2022-06-29T11:37:43.000Z</time>
      </trkpt>
      <trkpt lat="44.32679" lon="3.66355">
        <ele>1046.4000244141</ele>
        <time>2022-06-29T11:37:44.000Z</time>
      </trkpt>
      <trkpt lat="44.32678" lon="3.66357">
        <ele>1046.1999511719</ele>
        <time>2022-06-29T11:37:47.000Z</time>
      </trkpt>
      <trkpt lat="44.32675" lon="3.66357">
        <ele>1046.1999511719</ele>
        <time>2022-06-29T11:37:53.000Z</time>
      </trkpt>
      <trkpt lat="44.32674" lon="3.66355">
        <ele>1045.8000488281</ele>
        <time>2022-06-29T11:37:58.000Z</time>
      </trkpt>
      <trkpt lat="44.32675" lon="3.66355">
        <ele>1045.5999755859</ele>
        <time>2022-06-29T11:38:03.000Z</time>
      </trkpt>
      <trkpt lat="44.32675" lon="3.66355">
        <ele>1045.5999755859</ele>
        <time>2022-06-29T11:38:04.000Z</time>
      </trkpt>
      <trkpt lat="44.32666" lon="3.66354">
        <ele>1045.8000488281</ele>
        <time>2022-06-29T11:38:09.000Z</time>
      </trkpt>
      <trkpt lat="44.32665" lon="3.66355">
        <ele>1045.8000488281</ele>
        <time>2022-06-29T11:38:10.000Z</time>
      </trkpt>
      <trkpt lat="44.32663" lon="3.66355">
        <ele>1045.8000488281</ele>
        <time>2022-06-29T11:38:12.000Z</time>
      </trkpt>
      <trkpt lat="44.32663" lon="3.66354">
        <ele>1045.8000488281</ele>
        <time>2022-06-29T11:38:16.000Z</time>
      </trkpt>
      <trkpt lat="44.32665" lon="3.66352">
        <ele>1045.5999755859</ele>
        <time>2022-06-29T11:38:22.000Z</time>
      </trkpt>
      <trkpt lat="44.32665" lon="3.6635">
        <ele>1046</ele>
        <time>2022-06-29T11:38:28.000Z</time>
      </trkpt>
      <trkpt lat="44.32664" lon="3.6635">
        <ele>1046</ele>
        <time>2022-06-29T11:38:30.000Z</time>
      </trkpt>
      <trkpt lat="44.32664" lon="3.66349">
        <ele>1046</ele>
        <time>2022-06-29T11:38:31.000Z</time>
      </trkpt>
      <trkpt lat="44.32662" lon="3.66348">
        <ele>1046</ele>
        <time>2022-06-29T11:38:37.000Z</time>
      </trkpt>
      <trkpt lat="44.32661" lon="3.66348">
        <ele>1046.1999511719</ele>
        <time>2022-06-29T11:38:42.000Z</time>
      </trkpt>
      <trkpt lat="44.3266" lon="3.66347">
        <ele>1046.1999511719</ele>
        <time>2022-06-29T11:38:47.000Z</time>
      </trkpt>
      <trkpt lat="44.32657" lon="3.66346">
        <ele>1046.1999511719</ele>
        <time>2022-06-29T11:38:53.000Z</time>
      </trkpt>
      <trkpt lat="44.32659" lon="3.66346">
        <ele>1046.1999511719</ele>
        <time>2022-06-29T11:38:59.000Z</time>
      </trkpt>
      <trkpt lat="44.3266" lon="3.66346">
        <ele>1046.1999511719</ele>
        <time>2022-06-29T11:39:02.000Z</time>
      </trkpt>
      <trkpt lat="44.32661" lon="3.66347">
        <ele>1046.1999511719</ele>
        <time>2022-06-29T11:39:05.000Z</time>
      </trkpt>
      <trkpt lat="44.32662" lon="3.66347">
        <ele>1046.1999511719</ele>
        <time>2022-06-29T11:39:07.000Z</time>
      </trkpt>
      <trkpt lat="44.32664" lon="3.66348">
        <ele>1046.1999511719</ele>
        <time>2022-06-29T11:39:13.000Z</time>
      </trkpt>
      <trkpt lat="44.32665" lon="3.66347">
        <ele>1046.1999511719</ele>
        <time>2022-06-29T11:39:16.000Z</time>
      </trkpt>
      <trkpt lat="44.32666" lon="3.66348">
        <ele>1046.1999511719</ele>
        <time>2022-06-29T11:39:20.000Z</time>
      </trkpt>
      <trkpt lat="44.32666" lon="3.66349">
        <ele>1046.1999511719</ele>
        <time>2022-06-29T11:39:24.000Z</time>
      </trkpt>
      <trkpt lat="44.32666" lon="3.66349">
        <ele>1046.1999511719</ele>
        <time>2022-06-29T11:39:30.000Z</time>
      </trkpt>
      <trkpt lat="44.32666" lon="3.66349">
        <ele>1046.1999511719</ele>
        <time>2022-06-29T11:39:31.000Z</time>
      </trkpt>
      <trkpt lat="44.32665" lon="3.66349">
        <ele>1046.1999511719</ele>
        <time>2022-06-29T11:39:32.000Z</time>
      </trkpt>
      <trkpt lat="44.32665" lon="3.66348">
        <ele>1046.1999511719</ele>
        <time>2022-06-29T11:39:34.000Z</time>
      </trkpt>
      <trkpt lat="44.32663" lon="3.66348">
        <ele>1046.1999511719</ele>
        <time>2022-06-29T11:39:40.000Z</time>
      </trkpt>
      <trkpt lat="44.32661" lon="3.66347">
        <ele>1046.1999511719</ele>
        <time>2022-06-29T11:39:44.000Z</time>
      </trkpt>
      <trkpt lat="44.32661" lon="3.66345">
        <ele>1046.1999511719</ele>
        <time>2022-06-29T11:39:49.000Z</time>
      </trkpt>
      <trkpt lat="44.32662" lon="3.66345">
        <ele>1046.1999511719</ele>
        <time>2022-06-29T11:39:55.000Z</time>
      </trkpt>
      <trkpt lat="44.32662" lon="3.66345">
        <ele>1046.1999511719</ele>
        <time>2022-06-29T11:39:56.000Z</time>
      </trkpt>
      <trkpt lat="44.3266" lon="3.66343">
        <ele>1046.1999511719</ele>
        <time>2022-06-29T11:40:02.000Z</time>
      </trkpt>
      <trkpt lat="44.32663" lon="3.66342">
        <ele>1046.1999511719</ele>
        <time>2022-06-29T11:40:08.000Z</time>
      </trkpt>
      <trkpt lat="44.32664" lon="3.66341">
        <ele>1046.1999511719</ele>
        <time>2022-06-29T11:40:10.000Z</time>
      </trkpt>
      <trkpt lat="44.32663" lon="3.66342">
        <ele>1046.1999511719</ele>
        <time>2022-06-29T11:40:16.000Z</time>
      </trkpt>
      <trkpt lat="44.32661" lon="3.66341">
        <ele>1046.1999511719</ele>
        <time>2022-06-29T11:40:20.000Z</time>
      </trkpt>
      <trkpt lat="44.32661" lon="3.66341">
        <ele>1046.1999511719</ele>
        <time>2022-06-29T11:40:23.000Z</time>
      </trkpt>
      <trkpt lat="44.32661" lon="3.66341">
        <ele>1046.1999511719</ele>
        <time>2022-06-29T11:40:25.000Z</time>
      </trkpt>
      <trkpt lat="44.32661" lon="3.66339">
        <ele>1046.1999511719</ele>
        <time>2022-06-29T11:40:31.000Z</time>
      </trkpt>
      <trkpt lat="44.32661" lon="3.66337">
        <ele>1046.1999511719</ele>
        <time>2022-06-29T11:40:35.000Z</time>
      </trkpt>
      <trkpt lat="44.32663" lon="3.66338">
        <ele>1046.1999511719</ele>
        <time>2022-06-29T11:40:41.000Z</time>
      </trkpt>
      <trkpt lat="44.32662" lon="3.66339">
        <ele>1046.1999511719</ele>
        <time>2022-06-29T11:40:47.000Z</time>
      </trkpt>
      <trkpt lat="44.3266" lon="3.66338">
        <ele>1046.1999511719</ele>
        <time>2022-06-29T11:40:49.000Z</time>
      </trkpt>
      <trkpt lat="44.3266" lon="3.66339">
        <ele>1046.1999511719</ele>
        <time>2022-06-29T11:40:50.000Z</time>
      </trkpt>
      <trkpt lat="44.32658" lon="3.66339">
        <ele>1046.1999511719</ele>
        <time>2022-06-29T11:40:56.000Z</time>
      </trkpt>
      <trkpt lat="44.32656" lon="3.66339">
        <ele>1046.1999511719</ele>
        <time>2022-06-29T11:41:02.000Z</time>
      </trkpt>
      <trkpt lat="44.32657" lon="3.66339">
        <ele>1046.1999511719</ele>
        <time>2022-06-29T11:41:05.000Z</time>
      </trkpt>
      <trkpt lat="44.3266" lon="3.66338">
        <ele>1046.1999511719</ele>
        <time>2022-06-29T11:41:11.000Z</time>
      </trkpt>
      <trkpt lat="44.32661" lon="3.66339">
        <ele>1046.1999511719</ele>
        <time>2022-06-29T11:41:17.000Z</time>
      </trkpt>
      <trkpt lat="44.32662" lon="3.6634">
        <ele>1046.1999511719</ele>
        <time>2022-06-29T11:41:20.000Z</time>
      </trkpt>
      <trkpt lat="44.32666" lon="3.66341">
        <ele>1046.1999511719</ele>
        <time>2022-06-29T11:41:26.000Z</time>
      </trkpt>
      <trkpt lat="44.32663" lon="3.66342">
        <ele>1046.1999511719</ele>
        <time>2022-06-29T11:41:32.000Z</time>
      </trkpt>
      <trkpt lat="44.3266" lon="3.66343">
        <ele>1046.1999511719</ele>
        <time>2022-06-29T11:41:34.000Z</time>
      </trkpt>
      <trkpt lat="44.32658" lon="3.66342">
        <ele>1046.1999511719</ele>
        <time>2022-06-29T11:41:40.000Z</time>
      </trkpt>
      <trkpt lat="44.32656" lon="3.66342">
        <ele>1046.1999511719</ele>
        <time>2022-06-29T11:41:46.000Z</time>
      </trkpt>
      <trkpt lat="44.32656" lon="3.66342">
        <ele>1046.1999511719</ele>
        <time>2022-06-29T11:41:48.000Z</time>
      </trkpt>
      <trkpt lat="44.32656" lon="3.66342">
        <ele>1046.1999511719</ele>
        <time>2022-06-29T11:41:49.000Z</time>
      </trkpt>
      <trkpt lat="44.32657" lon="3.66343">
        <ele>1046.1999511719</ele>
        <time>2022-06-29T11:41:55.000Z</time>
      </trkpt>
      <trkpt lat="44.32658" lon="3.66342">
        <ele>1046.1999511719</ele>
        <time>2022-06-29T11:42:01.000Z</time>
      </trkpt>
      <trkpt lat="44.32659" lon="3.66342">
        <ele>1046.1999511719</ele>
        <time>2022-06-29T11:42:02.000Z</time>
      </trkpt>
      <trkpt lat="44.32659" lon="3.66341">
        <ele>1046.1999511719</ele>
        <time>2022-06-29T11:42:05.000Z</time>
      </trkpt>
      <trkpt lat="44.32659" lon="3.66341">
        <ele>1046.1999511719</ele>
        <time>2022-06-29T11:42:08.000Z</time>
      </trkpt>
      <trkpt lat="44.32658" lon="3.66341">
        <ele>1046.1999511719</ele>
        <time>2022-06-29T11:42:09.000Z</time>
      </trkpt>
      <trkpt lat="44.32656" lon="3.6634">
        <ele>1046.1999511719</ele>
        <time>2022-06-29T11:42:15.000Z</time>
      </trkpt>
      <trkpt lat="44.32655" lon="3.66338">
        <ele>1046.1999511719</ele>
        <time>2022-06-29T11:42:19.000Z</time>
      </trkpt>
      <trkpt lat="44.32654" lon="3.66338">
        <ele>1046.1999511719</ele>
        <time>2022-06-29T11:42:21.000Z</time>
      </trkpt>
      <trkpt lat="44.32653" lon="3.66336">
        <ele>1046.1999511719</ele>
        <time>2022-06-29T11:42:27.000Z</time>
      </trkpt>
      <trkpt lat="44.32654" lon="3.6634">
        <ele>1046.1999511719</ele>
        <time>2022-06-29T11:42:31.000Z</time>
      </trkpt>
      <trkpt lat="44.32657" lon="3.66338">
        <ele>1046.1999511719</ele>
        <time>2022-06-29T11:42:37.000Z</time>
      </trkpt>
      <trkpt lat="44.32658" lon="3.66338">
        <ele>1046.1999511719</ele>
        <time>2022-06-29T11:42:40.000Z</time>
      </trkpt>
      <trkpt lat="44.32659" lon="3.66337">
        <ele>1046.1999511719</ele>
        <time>2022-06-29T11:42:44.000Z</time>
      </trkpt>
      <trkpt lat="44.32659" lon="3.66336">
        <ele>1046.1999511719</ele>
        <time>2022-06-29T11:42:45.000Z</time>
      </trkpt>
      <trkpt lat="44.32659" lon="3.66335">
        <ele>1046.1999511719</ele>
        <time>2022-06-29T11:42:50.000Z</time>
      </trkpt>
      <trkpt lat="44.32657" lon="3.66334">
        <ele>1046.1999511719</ele>
        <time>2022-06-29T11:42:53.000Z</time>
      </trkpt>
      <trkpt lat="44.32656" lon="3.66333">
        <ele>1046.1999511719</ele>
        <time>2022-06-29T11:42:54.000Z</time>
      </trkpt>
      <trkpt lat="44.32656" lon="3.66333">
        <ele>1046.1999511719</ele>
        <time>2022-06-29T11:42:55.000Z</time>
      </trkpt>
      <trkpt lat="44.32654" lon="3.66334">
        <ele>1046.1999511719</ele>
        <time>2022-06-29T11:43:01.000Z</time>
      </trkpt>
      <trkpt lat="44.32654" lon="3.66334">
        <ele>1046.1999511719</ele>
        <time>2022-06-29T11:43:02.000Z</time>
      </trkpt>
      <trkpt lat="44.32651" lon="3.66335">
        <ele>1046.1999511719</ele>
        <time>2022-06-29T11:43:08.000Z</time>
      </trkpt>
      <trkpt lat="44.32649" lon="3.66337">
        <ele>1046.1999511719</ele>
        <time>2022-06-29T11:43:14.000Z</time>
      </trkpt>
      <trkpt lat="44.32649" lon="3.66338">
        <ele>1046.1999511719</ele>
        <time>2022-06-29T11:43:19.000Z</time>
      </trkpt>
      <trkpt lat="44.32648" lon="3.66338">
        <ele>1046.1999511719</ele>
        <time>2022-06-29T11:43:21.000Z</time>
      </trkpt>
      <trkpt lat="44.32648" lon="3.66339">
        <ele>1046.1999511719</ele>
        <time>2022-06-29T11:43:25.000Z</time>
      </trkpt>
      <trkpt lat="44.32649" lon="3.66338">
        <ele>1046.1999511719</ele>
        <time>2022-06-29T11:43:31.000Z</time>
      </trkpt>
      <trkpt lat="44.32649" lon="3.66339">
        <ele>1046.1999511719</ele>
        <time>2022-06-29T11:43:32.000Z</time>
      </trkpt>
      <trkpt lat="44.3265" lon="3.66339">
        <ele>1046.1999511719</ele>
        <time>2022-06-29T11:43:38.000Z</time>
      </trkpt>
      <trkpt lat="44.32651" lon="3.66339">
        <ele>1046.1999511719</ele>
        <time>2022-06-29T11:43:44.000Z</time>
      </trkpt>
      <trkpt lat="44.32651" lon="3.66338">
        <ele>1046.1999511719</ele>
        <time>2022-06-29T11:43:50.000Z</time>
      </trkpt>
      <trkpt lat="44.32652" lon="3.66339">
        <ele>1046.1999511719</ele>
        <time>2022-06-29T11:43:55.000Z</time>
      </trkpt>
      <trkpt lat="44.32653" lon="3.66338">
        <ele>1046.1999511719</ele>
        <time>2022-06-29T11:43:59.000Z</time>
      </trkpt>
      <trkpt lat="44.32653" lon="3.66338">
        <ele>1046.1999511719</ele>
        <time>2022-06-29T11:44:02.000Z</time>
      </trkpt>
      <trkpt lat="44.32652" lon="3.66338">
        <ele>1046.1999511719</ele>
        <time>2022-06-29T11:44:08.000Z</time>
      </trkpt>
      <trkpt lat="44.32652" lon="3.66339">
        <ele>1046.1999511719</ele>
        <time>2022-06-29T11:44:14.000Z</time>
      </trkpt>
      <trkpt lat="44.3265" lon="3.66339">
        <ele>1046.1999511719</ele>
        <time>2022-06-29T11:44:19.000Z</time>
      </trkpt>
      <trkpt lat="44.32651" lon="3.66339">
        <ele>1046.1999511719</ele>
        <time>2022-06-29T11:44:24.000Z</time>
      </trkpt>
      <trkpt lat="44.32652" lon="3.66339">
        <ele>1046.1999511719</ele>
        <time>2022-06-29T11:44:28.000Z</time>
      </trkpt>
      <trkpt lat="44.32652" lon="3.66339">
        <ele>1046.1999511719</ele>
        <time>2022-06-29T11:44:34.000Z</time>
      </trkpt>
      <trkpt lat="44.32651" lon="3.6634">
        <ele>1046.1999511719</ele>
        <time>2022-06-29T11:44:38.000Z</time>
      </trkpt>
      <trkpt lat="44.32653" lon="3.66341">
        <ele>1046.1999511719</ele>
        <time>2022-06-29T11:44:44.000Z</time>
      </trkpt>
      <trkpt lat="44.32653" lon="3.66342">
        <ele>1046.1999511719</ele>
        <time>2022-06-29T11:44:50.000Z</time>
      </trkpt>
      <trkpt lat="44.32654" lon="3.66342">
        <ele>1046.1999511719</ele>
        <time>2022-06-29T11:44:52.000Z</time>
      </trkpt>
      <trkpt lat="44.32657" lon="3.66343">
        <ele>1046.1999511719</ele>
        <time>2022-06-29T11:44:58.000Z</time>
      </trkpt>
      <trkpt lat="44.32658" lon="3.66344">
        <ele>1046.1999511719</ele>
        <time>2022-06-29T11:45:04.000Z</time>
      </trkpt>
      <trkpt lat="44.32658" lon="3.66345">
        <ele>1046.1999511719</ele>
        <time>2022-06-29T11:45:06.000Z</time>
      </trkpt>
      <trkpt lat="44.32657" lon="3.66346">
        <ele>1046.1999511719</ele>
        <time>2022-06-29T11:45:12.000Z</time>
      </trkpt>
      <trkpt lat="44.32656" lon="3.66345">
        <ele>1046.1999511719</ele>
        <time>2022-06-29T11:45:18.000Z</time>
      </trkpt>
      <trkpt lat="44.32656" lon="3.66345">
        <ele>1046.1999511719</ele>
        <time>2022-06-29T11:45:20.000Z</time>
      </trkpt>
      <trkpt lat="44.32656" lon="3.66345">
        <ele>1046.1999511719</ele>
        <time>2022-06-29T11:45:23.000Z</time>
      </trkpt>
      <trkpt lat="44.32656" lon="3.66344">
        <ele>1046.1999511719</ele>
        <time>2022-06-29T11:45:29.000Z</time>
      </trkpt>
      <trkpt lat="44.32658" lon="3.66343">
        <ele>1046.1999511719</ele>
        <time>2022-06-29T11:45:35.000Z</time>
      </trkpt>
      <trkpt lat="44.32658" lon="3.66343">
        <ele>1046.1999511719</ele>
        <time>2022-06-29T11:45:36.000Z</time>
      </trkpt>
      <trkpt lat="44.32658" lon="3.66342">
        <ele>1046.1999511719</ele>
        <time>2022-06-29T11:45:38.000Z</time>
      </trkpt>
      <trkpt lat="44.32659" lon="3.66342">
        <ele>1046.1999511719</ele>
        <time>2022-06-29T11:45:43.000Z</time>
      </trkpt>
      <trkpt lat="44.32658" lon="3.66343">
        <ele>1046.1999511719</ele>
        <time>2022-06-29T11:45:46.000Z</time>
      </trkpt>
      <trkpt lat="44.32658" lon="3.66344">
        <ele>1046.1999511719</ele>
        <time>2022-06-29T11:45:52.000Z</time>
      </trkpt>
      <trkpt lat="44.32659" lon="3.66343">
        <ele>1046.1999511719</ele>
        <time>2022-06-29T11:45:58.000Z</time>
      </trkpt>
      <trkpt lat="44.32654" lon="3.66339">
        <ele>1046.1999511719</ele>
        <time>2022-06-29T11:46:04.000Z</time>
      </trkpt>
      <trkpt lat="44.32655" lon="3.66339">
        <ele>1046.1999511719</ele>
        <time>2022-06-29T11:46:08.000Z</time>
      </trkpt>
      <trkpt lat="44.32655" lon="3.66341">
        <ele>1046.1999511719</ele>
        <time>2022-06-29T11:46:11.000Z</time>
      </trkpt>
      <trkpt lat="44.32653" lon="3.66342">
        <ele>1046.1999511719</ele>
        <time>2022-06-29T11:46:17.000Z</time>
      </trkpt>
      <trkpt lat="44.32654" lon="3.66344">
        <ele>1046.1999511719</ele>
        <time>2022-06-29T11:46:23.000Z</time>
      </trkpt>
      <trkpt lat="44.32655" lon="3.66344">
        <ele>1046.1999511719</ele>
        <time>2022-06-29T11:46:26.000Z</time>
      </trkpt>
      <trkpt lat="44.32656" lon="3.66345">
        <ele>1046.1999511719</ele>
        <time>2022-06-29T11:46:27.000Z</time>
      </trkpt>
      <trkpt lat="44.32658" lon="3.66346">
        <ele>1046.1999511719</ele>
        <time>2022-06-29T11:46:29.000Z</time>
      </trkpt>
      <trkpt lat="44.32659" lon="3.66346">
        <ele>1046.1999511719</ele>
        <time>2022-06-29T11:46:30.000Z</time>
      </trkpt>
      <trkpt lat="44.3266" lon="3.66347">
        <ele>1046.1999511719</ele>
        <time>2022-06-29T11:46:31.000Z</time>
      </trkpt>
      <trkpt lat="44.32662" lon="3.66348">
        <ele>1046.1999511719</ele>
        <time>2022-06-29T11:46:33.000Z</time>
      </trkpt>
      <trkpt lat="44.32663" lon="3.66349">
        <ele>1046.1999511719</ele>
        <time>2022-06-29T11:46:34.000Z</time>
      </trkpt>
      <trkpt lat="44.32663" lon="3.66351">
        <ele>1046.1999511719</ele>
        <time>2022-06-29T11:46:36.000Z</time>
      </trkpt>
      <trkpt lat="44.32663" lon="3.66353">
        <ele>1046.4000244141</ele>
        <time>2022-06-29T11:46:38.000Z</time>
      </trkpt>
      <trkpt lat="44.32663" lon="3.66354">
        <ele>1047.4000244141</ele>
        <time>2022-06-29T11:46:39.000Z</time>
      </trkpt>
      <trkpt lat="44.32664" lon="3.66355">
        <ele>1048.1999511719</ele>
        <time>2022-06-29T11:46:40.000Z</time>
      </trkpt>
      <trkpt lat="44.32664" lon="3.66355">
        <ele>1048.5999755859</ele>
        <time>2022-06-29T11:46:41.000Z</time>
      </trkpt>
      <trkpt lat="44.32664" lon="3.66356">
        <ele>1048.8000488281</ele>
        <time>2022-06-29T11:46:42.000Z</time>
      </trkpt>
      <trkpt lat="44.32665" lon="3.66359">
        <ele>1048.4000244141</ele>
        <time>2022-06-29T11:46:45.000Z</time>
      </trkpt>
      <trkpt lat="44.32663" lon="3.66364">
        <ele>1048.1999511719</ele>
        <time>2022-06-29T11:46:49.000Z</time>
      </trkpt>
      <trkpt lat="44.32662" lon="3.66366">
        <ele>1048.1999511719</ele>
        <time>2022-06-29T11:46:51.000Z</time>
      </trkpt>
      <trkpt lat="44.32659" lon="3.66369">
        <ele>1048.1999511719</ele>
        <time>2022-06-29T11:46:55.000Z</time>
      </trkpt>
      <trkpt lat="44.32658" lon="3.66371">
        <ele>1048.1999511719</ele>
        <time>2022-06-29T11:46:57.000Z</time>
      </trkpt>
      <trkpt lat="44.32655" lon="3.66377">
        <ele>1048.5999755859</ele>
        <time>2022-06-29T11:47:03.000Z</time>
      </trkpt>
      <trkpt lat="44.32654" lon="3.66377">
        <ele>1048.5999755859</ele>
        <time>2022-06-29T11:47:04.000Z</time>
      </trkpt>
      <trkpt lat="44.32652" lon="3.66379">
        <ele>1048.8000488281</ele>
        <time>2022-06-29T11:47:07.000Z</time>
      </trkpt>
      <trkpt lat="44.32648" lon="3.66384">
        <ele>1049.1999511719</ele>
        <time>2022-06-29T11:47:12.000Z</time>
      </trkpt>
      <trkpt lat="44.32647" lon="3.66385">
        <ele>1049.1999511719</ele>
        <time>2022-06-29T11:47:13.000Z</time>
      </trkpt>
      <trkpt lat="44.32645" lon="3.66386">
        <ele>1049.4000244141</ele>
        <time>2022-06-29T11:47:14.000Z</time>
      </trkpt>
      <trkpt lat="44.32638" lon="3.66393">
        <ele>1049.8000488281</ele>
        <time>2022-06-29T11:47:20.000Z</time>
      </trkpt>
      <trkpt lat="44.32638" lon="3.66395">
        <ele>1050</ele>
        <time>2022-06-29T11:47:21.000Z</time>
      </trkpt>
      <trkpt lat="44.32637" lon="3.66396">
        <ele>1050</ele>
        <time>2022-06-29T11:47:22.000Z</time>
      </trkpt>
      <trkpt lat="44.32636" lon="3.664">
        <ele>1050.1999511719</ele>
        <time>2022-06-29T11:47:25.000Z</time>
      </trkpt>
      <trkpt lat="44.32632" lon="3.66408">
        <ele>1050.5999755859</ele>
        <time>2022-06-29T11:47:31.000Z</time>
      </trkpt>
      <trkpt lat="44.3263" lon="3.6641">
        <ele>1051</ele>
        <time>2022-06-29T11:47:33.000Z</time>
      </trkpt>
      <trkpt lat="44.32625" lon="3.66417">
        <ele>1051.1999511719</ele>
        <time>2022-06-29T11:47:39.000Z</time>
      </trkpt>
      <trkpt lat="44.32625" lon="3.66417">
        <ele>1051.4000244141</ele>
        <time>2022-06-29T11:47:40.000Z</time>
      </trkpt>
      <trkpt lat="44.32626" lon="3.66418">
        <ele>1051.4000244141</ele>
        <time>2022-06-29T11:47:42.000Z</time>
      </trkpt>
      <trkpt lat="44.32626" lon="3.6642">
        <ele>1051.4000244141</ele>
        <time>2022-06-29T11:47:45.000Z</time>
      </trkpt>
      <trkpt lat="44.32626" lon="3.66421">
        <ele>1051.4000244141</ele>
        <time>2022-06-29T11:47:48.000Z</time>
      </trkpt>
      <trkpt lat="44.32628" lon="3.6642">
        <ele>1051.8000488281</ele>
        <time>2022-06-29T11:47:54.000Z</time>
      </trkpt>
      <trkpt lat="44.3263" lon="3.6642">
        <ele>1051.5999755859</ele>
        <time>2022-06-29T11:47:57.000Z</time>
      </trkpt>
      <trkpt lat="44.32633" lon="3.66421">
        <ele>1051.4000244141</ele>
        <time>2022-06-29T11:48:03.000Z</time>
      </trkpt>
      <trkpt lat="44.32633" lon="3.6642">
        <ele>1051.4000244141</ele>
        <time>2022-06-29T11:48:05.000Z</time>
      </trkpt>
      <trkpt lat="44.32633" lon="3.6642">
        <ele>1051.4000244141</ele>
        <time>2022-06-29T11:48:06.000Z</time>
      </trkpt>
      <trkpt lat="44.32633" lon="3.66419">
        <ele>1051.4000244141</ele>
        <time>2022-06-29T11:48:08.000Z</time>
      </trkpt>
      <trkpt lat="44.32633" lon="3.66419">
        <ele>1051.4000244141</ele>
        <time>2022-06-29T11:48:09.000Z</time>
      </trkpt>
      <trkpt lat="44.32633" lon="3.66418">
        <ele>1051.4000244141</ele>
        <time>2022-06-29T11:48:11.000Z</time>
      </trkpt>
      <trkpt lat="44.32633" lon="3.66417">
        <ele>1051.4000244141</ele>
        <time>2022-06-29T11:48:15.000Z</time>
      </trkpt>
      <trkpt lat="44.32633" lon="3.66417">
        <ele>1051.1999511719</ele>
        <time>2022-06-29T11:48:20.000Z</time>
      </trkpt>
      <trkpt lat="44.32633" lon="3.66417">
        <ele>1051.1999511719</ele>
        <time>2022-06-29T11:48:22.000Z</time>
      </trkpt>
      <trkpt lat="44.32634" lon="3.66416">
        <ele>1051</ele>
        <time>2022-06-29T11:48:28.000Z</time>
      </trkpt>
      <trkpt lat="44.32634" lon="3.66416">
        <ele>1051</ele>
        <time>2022-06-29T11:48:31.000Z</time>
      </trkpt>
      <trkpt lat="44.32633" lon="3.66416">
        <ele>1050.8000488281</ele>
        <time>2022-06-29T11:48:37.000Z</time>
      </trkpt>
      <trkpt lat="44.3263" lon="3.66419">
        <ele>1050.8000488281</ele>
        <time>2022-06-29T11:48:43.000Z</time>
      </trkpt>
      <trkpt lat="44.32628" lon="3.66423">
        <ele>1050.8000488281</ele>
        <time>2022-06-29T11:48:46.000Z</time>
      </trkpt>
      <trkpt lat="44.32626" lon="3.66425">
        <ele>1051</ele>
        <time>2022-06-29T11:48:48.000Z</time>
      </trkpt>
      <trkpt lat="44.32624" lon="3.66427">
        <ele>1051</ele>
        <time>2022-06-29T11:48:50.000Z</time>
      </trkpt>
      <trkpt lat="44.3262" lon="3.66434">
        <ele>1052</ele>
        <time>2022-06-29T11:48:56.000Z</time>
      </trkpt>
      <trkpt lat="44.32619" lon="3.66439">
        <ele>1052.1999511719</ele>
        <time>2022-06-29T11:48:59.000Z</time>
      </trkpt>
      <trkpt lat="44.32616" lon="3.66443">
        <ele>1052.4000244141</ele>
        <time>2022-06-29T11:49:02.000Z</time>
      </trkpt>
      <trkpt lat="44.32609" lon="3.66452">
        <ele>1052.5999755859</ele>
        <time>2022-06-29T11:49:08.000Z</time>
      </trkpt>
      <trkpt lat="44.32608" lon="3.66453">
        <ele>1052.5999755859</ele>
        <time>2022-06-29T11:49:09.000Z</time>
      </trkpt>
      <trkpt lat="44.32607" lon="3.66454">
        <ele>1052.8000488281</ele>
        <time>2022-06-29T11:49:10.000Z</time>
      </trkpt>
      <trkpt lat="44.32606" lon="3.66455">
        <ele>1053</ele>
        <time>2022-06-29T11:49:11.000Z</time>
      </trkpt>
      <trkpt lat="44.32606" lon="3.66456">
        <ele>1053</ele>
        <time>2022-06-29T11:49:12.000Z</time>
      </trkpt>
      <trkpt lat="44.32605" lon="3.66457">
        <ele>1053.1999511719</ele>
        <time>2022-06-29T11:49:13.000Z</time>
      </trkpt>
      <trkpt lat="44.32603" lon="3.66459">
        <ele>1053.4000244141</ele>
        <time>2022-06-29T11:49:15.000Z</time>
      </trkpt>
      <trkpt lat="44.32602" lon="3.66461">
        <ele>1053.4000244141</ele>
        <time>2022-06-29T11:49:17.000Z</time>
      </trkpt>
      <trkpt lat="44.32601" lon="3.66462">
        <ele>1053.5999755859</ele>
        <time>2022-06-29T11:49:18.000Z</time>
      </trkpt>
      <trkpt lat="44.326" lon="3.66465">
        <ele>1053.8000488281</ele>
        <time>2022-06-29T11:49:20.000Z</time>
      </trkpt>
      <trkpt lat="44.326" lon="3.66466">
        <ele>1054</ele>
        <time>2022-06-29T11:49:21.000Z</time>
      </trkpt>
      <trkpt lat="44.32596" lon="3.66473">
        <ele>1054.5999755859</ele>
        <time>2022-06-29T11:49:27.000Z</time>
      </trkpt>
      <trkpt lat="44.32595" lon="3.66474">
        <ele>1054.5999755859</ele>
        <time>2022-06-29T11:49:28.000Z</time>
      </trkpt>
      <trkpt lat="44.32594" lon="3.66475">
        <ele>1054.8000488281</ele>
        <time>2022-06-29T11:49:30.000Z</time>
      </trkpt>
      <trkpt lat="44.3259" lon="3.66481">
        <ele>1055.4000244141</ele>
        <time>2022-06-29T11:49:35.000Z</time>
      </trkpt>
      <trkpt lat="44.32586" lon="3.66486">
        <ele>1055.5999755859</ele>
        <time>2022-06-29T11:49:40.000Z</time>
      </trkpt>
      <trkpt lat="44.32582" lon="3.6649">
        <ele>1055.8000488281</ele>
        <time>2022-06-29T11:49:43.000Z</time>
      </trkpt>
      <trkpt lat="44.32578" lon="3.66496">
        <ele>1056</ele>
        <time>2022-06-29T11:49:47.000Z</time>
      </trkpt>
      <trkpt lat="44.32576" lon="3.665">
        <ele>1056</ele>
        <time>2022-06-29T11:49:50.000Z</time>
      </trkpt>
      <trkpt lat="44.32574" lon="3.66505">
        <ele>1056.4000244141</ele>
        <time>2022-06-29T11:49:53.000Z</time>
      </trkpt>
      <trkpt lat="44.32573" lon="3.66507">
        <ele>1056.4000244141</ele>
        <time>2022-06-29T11:49:54.000Z</time>
      </trkpt>
      <trkpt lat="44.32571" lon="3.66512">
        <ele>1056.8000488281</ele>
        <time>2022-06-29T11:49:57.000Z</time>
      </trkpt>
      <trkpt lat="44.32565" lon="3.66521">
        <ele>1057</ele>
        <time>2022-06-29T11:50:03.000Z</time>
      </trkpt>
      <trkpt lat="44.32563" lon="3.66527">
        <ele>1057</ele>
        <time>2022-06-29T11:50:08.000Z</time>
      </trkpt>
      <trkpt lat="44.32561" lon="3.66531">
        <ele>1057</ele>
        <time>2022-06-29T11:50:10.000Z</time>
      </trkpt>
      <trkpt lat="44.32557" lon="3.66538">
        <ele>1057.4000244141</ele>
        <time>2022-06-29T11:50:16.000Z</time>
      </trkpt>
      <trkpt lat="44.32556" lon="3.66541">
        <ele>1057.5999755859</ele>
        <time>2022-06-29T11:50:18.000Z</time>
      </trkpt>
      <trkpt lat="44.32553" lon="3.66545">
        <ele>1057.8000488281</ele>
        <time>2022-06-29T11:50:21.000Z</time>
      </trkpt>
      <trkpt lat="44.32552" lon="3.66548">
        <ele>1058</ele>
        <time>2022-06-29T11:50:23.000Z</time>
      </trkpt>
      <trkpt lat="44.3255" lon="3.66556">
        <ele>1058.4000244141</ele>
        <time>2022-06-29T11:50:29.000Z</time>
      </trkpt>
      <trkpt lat="44.32547" lon="3.66561">
        <ele>1058.4000244141</ele>
        <time>2022-06-29T11:50:33.000Z</time>
      </trkpt>
      <trkpt lat="44.32546" lon="3.66566">
        <ele>1058.4000244141</ele>
        <time>2022-06-29T11:50:37.000Z</time>
      </trkpt>
      <trkpt lat="44.32542" lon="3.66574">
        <ele>1058.4000244141</ele>
        <time>2022-06-29T11:50:43.000Z</time>
      </trkpt>
      <trkpt lat="44.32537" lon="3.66581">
        <ele>1058.5999755859</ele>
        <time>2022-06-29T11:50:49.000Z</time>
      </trkpt>
      <trkpt lat="44.32533" lon="3.66585">
        <ele>1058.5999755859</ele>
        <time>2022-06-29T11:50:52.000Z</time>
      </trkpt>
      <trkpt lat="44.32529" lon="3.66597">
        <ele>1058.5999755859</ele>
        <time>2022-06-29T11:50:58.000Z</time>
      </trkpt>
      <trkpt lat="44.32525" lon="3.666">
        <ele>1058.8000488281</ele>
        <time>2022-06-29T11:51:01.000Z</time>
      </trkpt>
      <trkpt lat="44.32518" lon="3.66608">
        <ele>1059</ele>
        <time>2022-06-29T11:51:07.000Z</time>
      </trkpt>
      <trkpt lat="44.32517" lon="3.6661">
        <ele>1059.1999511719</ele>
        <time>2022-06-29T11:51:08.000Z</time>
      </trkpt>
      <trkpt lat="44.32517" lon="3.66614">
        <ele>1059.1999511719</ele>
        <time>2022-06-29T11:51:10.000Z</time>
      </trkpt>
      <trkpt lat="44.32514" lon="3.66618">
        <ele>1059.4000244141</ele>
        <time>2022-06-29T11:51:13.000Z</time>
      </trkpt>
      <trkpt lat="44.32512" lon="3.66622">
        <ele>1059.5999755859</ele>
        <time>2022-06-29T11:51:16.000Z</time>
      </trkpt>
      <trkpt lat="44.3251" lon="3.66627">
        <ele>1059.8000488281</ele>
        <time>2022-06-29T11:51:19.000Z</time>
      </trkpt>
      <trkpt lat="44.32509" lon="3.66628">
        <ele>1059.8000488281</ele>
        <time>2022-06-29T11:51:20.000Z</time>
      </trkpt>
      <trkpt lat="44.32507" lon="3.66631">
        <ele>1060.1999511719</ele>
        <time>2022-06-29T11:51:23.000Z</time>
      </trkpt>
      <trkpt lat="44.32504" lon="3.66641">
        <ele>1060.1999511719</ele>
        <time>2022-06-29T11:51:29.000Z</time>
      </trkpt>
      <trkpt lat="44.32502" lon="3.66652">
        <ele>1060.4000244141</ele>
        <time>2022-06-29T11:51:35.000Z</time>
      </trkpt>
      <trkpt lat="44.32501" lon="3.66656">
        <ele>1060.5999755859</ele>
        <time>2022-06-29T11:51:37.000Z</time>
      </trkpt>
      <trkpt lat="44.32496" lon="3.66666">
        <ele>1060.5999755859</ele>
        <time>2022-06-29T11:51:43.000Z</time>
      </trkpt>
      <trkpt lat="44.32496" lon="3.66668">
        <ele>1060.5999755859</ele>
        <time>2022-06-29T11:51:44.000Z</time>
      </trkpt>
      <trkpt lat="44.32491" lon="3.66675">
        <ele>1061</ele>
        <time>2022-06-29T11:51:48.000Z</time>
      </trkpt>
      <trkpt lat="44.32489" lon="3.6668">
        <ele>1061.1999511719</ele>
        <time>2022-06-29T11:51:51.000Z</time>
      </trkpt>
      <trkpt lat="44.32489" lon="3.66682">
        <ele>1061.1999511719</ele>
        <time>2022-06-29T11:51:52.000Z</time>
      </trkpt>
      <trkpt lat="44.32484" lon="3.66692">
        <ele>1061.4000244141</ele>
        <time>2022-06-29T11:51:58.000Z</time>
      </trkpt>
      <trkpt lat="44.32481" lon="3.667">
        <ele>1061.4000244141</ele>
        <time>2022-06-29T11:52:03.000Z</time>
      </trkpt>
      <trkpt lat="44.32478" lon="3.66709">
        <ele>1061.4000244141</ele>
        <time>2022-06-29T11:52:09.000Z</time>
      </trkpt>
      <trkpt lat="44.32478" lon="3.66712">
        <ele>1061.4000244141</ele>
        <time>2022-06-29T11:52:11.000Z</time>
      </trkpt>
      <trkpt lat="44.32475" lon="3.6672">
        <ele>1061.5999755859</ele>
        <time>2022-06-29T11:52:16.000Z</time>
      </trkpt>
      <trkpt lat="44.32474" lon="3.66726">
        <ele>1061.5999755859</ele>
        <time>2022-06-29T11:52:19.000Z</time>
      </trkpt>
      <trkpt lat="44.32475" lon="3.66729">
        <ele>1061.8000488281</ele>
        <time>2022-06-29T11:52:21.000Z</time>
      </trkpt>
      <trkpt lat="44.32476" lon="3.66737">
        <ele>1062</ele>
        <time>2022-06-29T11:52:25.000Z</time>
      </trkpt>
      <trkpt lat="44.32475" lon="3.66741">
        <ele>1062</ele>
        <time>2022-06-29T11:52:27.000Z</time>
      </trkpt>
      <trkpt lat="44.32474" lon="3.66751">
        <ele>1062.1999511719</ele>
        <time>2022-06-29T11:52:33.000Z</time>
      </trkpt>
      <trkpt lat="44.32473" lon="3.66756">
        <ele>1062.1999511719</ele>
        <time>2022-06-29T11:52:36.000Z</time>
      </trkpt>
      <trkpt lat="44.32473" lon="3.66761">
        <ele>1062.1999511719</ele>
        <time>2022-06-29T11:52:39.000Z</time>
      </trkpt>
      <trkpt lat="44.32474" lon="3.66766">
        <ele>1062.4000244141</ele>
        <time>2022-06-29T11:52:42.000Z</time>
      </trkpt>
      <trkpt lat="44.32474" lon="3.66776">
        <ele>1062.4000244141</ele>
        <time>2022-06-29T11:52:48.000Z</time>
      </trkpt>
      <trkpt lat="44.32474" lon="3.66783">
        <ele>1062.4000244141</ele>
        <time>2022-06-29T11:52:51.000Z</time>
      </trkpt>
      <trkpt lat="44.32475" lon="3.66794">
        <ele>1062.5999755859</ele>
        <time>2022-06-29T11:52:56.000Z</time>
      </trkpt>
      <trkpt lat="44.32475" lon="3.66797">
        <ele>1062.5999755859</ele>
        <time>2022-06-29T11:52:58.000Z</time>
      </trkpt>
      <trkpt lat="44.32475" lon="3.66799">
        <ele>1062.5999755859</ele>
        <time>2022-06-29T11:52:59.000Z</time>
      </trkpt>
      <trkpt lat="44.32475" lon="3.6681">
        <ele>1062.8000488281</ele>
        <time>2022-06-29T11:53:05.000Z</time>
      </trkpt>
      <trkpt lat="44.32476" lon="3.66812">
        <ele>1062.8000488281</ele>
        <time>2022-06-29T11:53:06.000Z</time>
      </trkpt>
      <trkpt lat="44.32476" lon="3.66824">
        <ele>1063</ele>
        <time>2022-06-29T11:53:12.000Z</time>
      </trkpt>
      <trkpt lat="44.32477" lon="3.66828">
        <ele>1063</ele>
        <time>2022-06-29T11:53:15.000Z</time>
      </trkpt>
      <trkpt lat="44.32476" lon="3.66836">
        <ele>1063.1999511719</ele>
        <time>2022-06-29T11:53:20.000Z</time>
      </trkpt>
      <trkpt lat="44.32476" lon="3.66841">
        <ele>1063.1999511719</ele>
        <time>2022-06-29T11:53:23.000Z</time>
      </trkpt>
      <trkpt lat="44.32476" lon="3.66841">
        <ele>1063.1999511719</ele>
        <time>2022-06-29T11:53:26.000Z</time>
      </trkpt>
      <trkpt lat="44.32477" lon="3.66841">
        <ele>1063.1999511719</ele>
        <time>2022-06-29T11:53:32.000Z</time>
      </trkpt>
      <trkpt lat="44.32477" lon="3.66841">
        <ele>1062.8000488281</ele>
        <time>2022-06-29T11:53:38.000Z</time>
      </trkpt>
      <trkpt lat="44.32477" lon="3.66841">
        <ele>1062.5999755859</ele>
        <time>2022-06-29T11:53:40.000Z</time>
      </trkpt>
      <trkpt lat="44.32477" lon="3.66841">
        <ele>1062.4000244141</ele>
        <time>2022-06-29T11:53:43.000Z</time>
      </trkpt>
      <trkpt lat="44.32478" lon="3.66842">
        <ele>1062.1999511719</ele>
        <time>2022-06-29T11:53:47.000Z</time>
      </trkpt>
      <trkpt lat="44.32477" lon="3.66842">
        <ele>1062</ele>
        <time>2022-06-29T11:53:48.000Z</time>
      </trkpt>
      <trkpt lat="44.32477" lon="3.66842">
        <ele>1061.5999755859</ele>
        <time>2022-06-29T11:53:52.000Z</time>
      </trkpt>
      <trkpt lat="44.32477" lon="3.66842">
        <ele>1061.4000244141</ele>
        <time>2022-06-29T11:53:54.000Z</time>
      </trkpt>
      <trkpt lat="44.32477" lon="3.66843">
        <ele>1061</ele>
        <time>2022-06-29T11:54:00.000Z</time>
      </trkpt>
      <trkpt lat="44.32477" lon="3.66843">
        <ele>1060.8000488281</ele>
        <time>2022-06-29T11:54:04.000Z</time>
      </trkpt>
      <trkpt lat="44.32477" lon="3.66844">
        <ele>1060.4000244141</ele>
        <time>2022-06-29T11:54:09.000Z</time>
      </trkpt>
      <trkpt lat="44.32476" lon="3.66847">
        <ele>1060.1999511719</ele>
        <time>2022-06-29T11:54:12.000Z</time>
      </trkpt>
      <trkpt lat="44.32476" lon="3.6685">
        <ele>1060</ele>
        <time>2022-06-29T11:54:14.000Z</time>
      </trkpt>
      <trkpt lat="44.32476" lon="3.66852">
        <ele>1059.8000488281</ele>
        <time>2022-06-29T11:54:16.000Z</time>
      </trkpt>
      <trkpt lat="44.32476" lon="3.66855">
        <ele>1059.5999755859</ele>
        <time>2022-06-29T11:54:18.000Z</time>
      </trkpt>
      <trkpt lat="44.32476" lon="3.66857">
        <ele>1059.5999755859</ele>
        <time>2022-06-29T11:54:19.000Z</time>
      </trkpt>
      <trkpt lat="44.32475" lon="3.66866">
        <ele>1059.4000244141</ele>
        <time>2022-06-29T11:54:25.000Z</time>
      </trkpt>
      <trkpt lat="44.32473" lon="3.66871">
        <ele>1059.5999755859</ele>
        <time>2022-06-29T11:54:29.000Z</time>
      </trkpt>
      <trkpt lat="44.3247" lon="3.66881">
        <ele>1059.5999755859</ele>
        <time>2022-06-29T11:54:35.000Z</time>
      </trkpt>
      <trkpt lat="44.32465" lon="3.66891">
        <ele>1059.8000488281</ele>
        <time>2022-06-29T11:54:41.000Z</time>
      </trkpt>
      <trkpt lat="44.32464" lon="3.66895">
        <ele>1060</ele>
        <time>2022-06-29T11:54:44.000Z</time>
      </trkpt>
      <trkpt lat="44.32465" lon="3.66904">
        <ele>1060.5999755859</ele>
        <time>2022-06-29T11:54:50.000Z</time>
      </trkpt>
      <trkpt lat="44.32464" lon="3.6691">
        <ele>1060.8000488281</ele>
        <time>2022-06-29T11:54:54.000Z</time>
      </trkpt>
      <trkpt lat="44.32464" lon="3.66913">
        <ele>1061</ele>
        <time>2022-06-29T11:54:56.000Z</time>
      </trkpt>
      <trkpt lat="44.32463" lon="3.66916">
        <ele>1061</ele>
        <time>2022-06-29T11:54:58.000Z</time>
      </trkpt>
      <trkpt lat="44.32461" lon="3.66926">
        <ele>1061.1999511719</ele>
        <time>2022-06-29T11:55:04.000Z</time>
      </trkpt>
      <trkpt lat="44.32461" lon="3.66931">
        <ele>1061.4000244141</ele>
        <time>2022-06-29T11:55:07.000Z</time>
      </trkpt>
      <trkpt lat="44.3246" lon="3.66943">
        <ele>1061.5999755859</ele>
        <time>2022-06-29T11:55:13.000Z</time>
      </trkpt>
      <trkpt lat="44.3246" lon="3.66952">
        <ele>1061.8000488281</ele>
        <time>2022-06-29T11:55:18.000Z</time>
      </trkpt>
      <trkpt lat="44.3246" lon="3.66954">
        <ele>1061.8000488281</ele>
        <time>2022-06-29T11:55:19.000Z</time>
      </trkpt>
      <trkpt lat="44.3246" lon="3.66965">
        <ele>1061.8000488281</ele>
        <time>2022-06-29T11:55:25.000Z</time>
      </trkpt>
      <trkpt lat="44.3246" lon="3.66969">
        <ele>1061.8000488281</ele>
        <time>2022-06-29T11:55:27.000Z</time>
      </trkpt>
      <trkpt lat="44.3246" lon="3.66972">
        <ele>1062</ele>
        <time>2022-06-29T11:55:29.000Z</time>
      </trkpt>
      <trkpt lat="44.32461" lon="3.66982">
        <ele>1062.4000244141</ele>
        <time>2022-06-29T11:55:35.000Z</time>
      </trkpt>
      <trkpt lat="44.32461" lon="3.66983">
        <ele>1062.4000244141</ele>
        <time>2022-06-29T11:55:36.000Z</time>
      </trkpt>
      <trkpt lat="44.32461" lon="3.66985">
        <ele>1062.5999755859</ele>
        <time>2022-06-29T11:55:37.000Z</time>
      </trkpt>
      <trkpt lat="44.32463" lon="3.66993">
        <ele>1063</ele>
        <time>2022-06-29T11:55:42.000Z</time>
      </trkpt>
      <trkpt lat="44.32464" lon="3.66996">
        <ele>1063.1999511719</ele>
        <time>2022-06-29T11:55:44.000Z</time>
      </trkpt>
      <trkpt lat="44.32465" lon="3.67006">
        <ele>1063.1999511719</ele>
        <time>2022-06-29T11:55:50.000Z</time>
      </trkpt>
      <trkpt lat="44.32466" lon="3.6701">
        <ele>1063.4000244141</ele>
        <time>2022-06-29T11:55:53.000Z</time>
      </trkpt>
      <trkpt lat="44.32469" lon="3.67018">
        <ele>1063.4000244141</ele>
        <time>2022-06-29T11:55:59.000Z</time>
      </trkpt>
      <trkpt lat="44.32472" lon="3.67024">
        <ele>1063.8000488281</ele>
        <time>2022-06-29T11:56:03.000Z</time>
      </trkpt>
      <trkpt lat="44.32475" lon="3.67029">
        <ele>1064.1999511719</ele>
        <time>2022-06-29T11:56:06.000Z</time>
      </trkpt>
      <trkpt lat="44.32479" lon="3.67034">
        <ele>1064.8000488281</ele>
        <time>2022-06-29T11:56:11.000Z</time>
      </trkpt>
      <trkpt lat="44.32481" lon="3.67037">
        <ele>1065</ele>
        <time>2022-06-29T11:56:14.000Z</time>
      </trkpt>
      <trkpt lat="44.32483" lon="3.6704">
        <ele>1065.1999511719</ele>
        <time>2022-06-29T11:56:16.000Z</time>
      </trkpt>
      <trkpt lat="44.32486" lon="3.67043">
        <ele>1065.1999511719</ele>
        <time>2022-06-29T11:56:19.000Z</time>
      </trkpt>
      <trkpt lat="44.32491" lon="3.67049">
        <ele>1065.5999755859</ele>
        <time>2022-06-29T11:56:25.000Z</time>
      </trkpt>
      <trkpt lat="44.32491" lon="3.67053">
        <ele>1065.5999755859</ele>
        <time>2022-06-29T11:56:28.000Z</time>
      </trkpt>
      <trkpt lat="44.32492" lon="3.67056">
        <ele>1065.5999755859</ele>
        <time>2022-06-29T11:56:30.000Z</time>
      </trkpt>
      <trkpt lat="44.32493" lon="3.67066">
        <ele>1065.5999755859</ele>
        <time>2022-06-29T11:56:36.000Z</time>
      </trkpt>
      <trkpt lat="44.32492" lon="3.67077">
        <ele>1065.1999511719</ele>
        <time>2022-06-29T11:56:42.000Z</time>
      </trkpt>
      <trkpt lat="44.32492" lon="3.6708">
        <ele>1065</ele>
        <time>2022-06-29T11:56:44.000Z</time>
      </trkpt>
      <trkpt lat="44.32493" lon="3.67087">
        <ele>1065</ele>
        <time>2022-06-29T11:56:49.000Z</time>
      </trkpt>
      <trkpt lat="44.32493" lon="3.67091">
        <ele>1065</ele>
        <time>2022-06-29T11:56:52.000Z</time>
      </trkpt>
      <trkpt lat="44.32491" lon="3.67099">
        <ele>1065.4000244141</ele>
        <time>2022-06-29T11:56:58.000Z</time>
      </trkpt>
      <trkpt lat="44.3249" lon="3.671">
        <ele>1065.4000244141</ele>
        <time>2022-06-29T11:56:59.000Z</time>
      </trkpt>
      <trkpt lat="44.32488" lon="3.67109">
        <ele>1065.1999511719</ele>
        <time>2022-06-29T11:57:05.000Z</time>
      </trkpt>
      <trkpt lat="44.32487" lon="3.67113">
        <ele>1065.1999511719</ele>
        <time>2022-06-29T11:57:08.000Z</time>
      </trkpt>
      <trkpt lat="44.32485" lon="3.67122">
        <ele>1065</ele>
        <time>2022-06-29T11:57:14.000Z</time>
      </trkpt>
      <trkpt lat="44.32484" lon="3.67123">
        <ele>1065</ele>
        <time>2022-06-29T11:57:15.000Z</time>
      </trkpt>
      <trkpt lat="44.32482" lon="3.67128">
        <ele>1065.1999511719</ele>
        <time>2022-06-29T11:57:18.000Z</time>
      </trkpt>
      <trkpt lat="44.3248" lon="3.67136">
        <ele>1065.4000244141</ele>
        <time>2022-06-29T11:57:24.000Z</time>
      </trkpt>
      <trkpt lat="44.32479" lon="3.67139">
        <ele>1065.5999755859</ele>
        <time>2022-06-29T11:57:26.000Z</time>
      </trkpt>
      <trkpt lat="44.32477" lon="3.67149">
        <ele>1065.5999755859</ele>
        <time>2022-06-29T11:57:32.000Z</time>
      </trkpt>
      <trkpt lat="44.32476" lon="3.67154">
        <ele>1065.8000488281</ele>
        <time>2022-06-29T11:57:35.000Z</time>
      </trkpt>
      <trkpt lat="44.32477" lon="3.67163">
        <ele>1066</ele>
        <time>2022-06-29T11:57:41.000Z</time>
      </trkpt>
      <trkpt lat="44.32479" lon="3.6717">
        <ele>1066</ele>
        <time>2022-06-29T11:57:45.000Z</time>
      </trkpt>
      <trkpt lat="44.32481" lon="3.67175">
        <ele>1066</ele>
        <time>2022-06-29T11:57:48.000Z</time>
      </trkpt>
      <trkpt lat="44.32485" lon="3.67183">
        <ele>1066</ele>
        <time>2022-06-29T11:57:53.000Z</time>
      </trkpt>
      <trkpt lat="44.32486" lon="3.6719">
        <ele>1066.1999511719</ele>
        <time>2022-06-29T11:57:58.000Z</time>
      </trkpt>
      <trkpt lat="44.32487" lon="3.67193">
        <ele>1066.1999511719</ele>
        <time>2022-06-29T11:58:00.000Z</time>
      </trkpt>
      <trkpt lat="44.32487" lon="3.67194">
        <ele>1066.1999511719</ele>
        <time>2022-06-29T11:58:01.000Z</time>
      </trkpt>
      <trkpt lat="44.32491" lon="3.67201">
        <ele>1066.1999511719</ele>
        <time>2022-06-29T11:58:07.000Z</time>
      </trkpt>
      <trkpt lat="44.32494" lon="3.67207">
        <ele>1066.1999511719</ele>
        <time>2022-06-29T11:58:11.000Z</time>
      </trkpt>
      <trkpt lat="44.32497" lon="3.67213">
        <ele>1066.4000244141</ele>
        <time>2022-06-29T11:58:16.000Z</time>
      </trkpt>
      <trkpt lat="44.325" lon="3.6722">
        <ele>1066.4000244141</ele>
        <time>2022-06-29T11:58:21.000Z</time>
      </trkpt>
      <trkpt lat="44.32501" lon="3.67221">
        <ele>1066.4000244141</ele>
        <time>2022-06-29T11:58:22.000Z</time>
      </trkpt>
      <trkpt lat="44.32502" lon="3.67225">
        <ele>1066.4000244141</ele>
        <time>2022-06-29T11:58:25.000Z</time>
      </trkpt>
      <trkpt lat="44.32506" lon="3.67232">
        <ele>1066.1999511719</ele>
        <time>2022-06-29T11:58:31.000Z</time>
      </trkpt>
      <trkpt lat="44.32509" lon="3.67241">
        <ele>1066.4000244141</ele>
        <time>2022-06-29T11:58:37.000Z</time>
      </trkpt>
      <trkpt lat="44.32509" lon="3.67246">
        <ele>1066.4000244141</ele>
        <time>2022-06-29T11:58:39.000Z</time>
      </trkpt>
      <trkpt lat="44.32511" lon="3.6725">
        <ele>1066.5999755859</ele>
        <time>2022-06-29T11:58:42.000Z</time>
      </trkpt>
      <trkpt lat="44.32515" lon="3.67258">
        <ele>1066.8000488281</ele>
        <time>2022-06-29T11:58:48.000Z</time>
      </trkpt>
      <trkpt lat="44.32519" lon="3.67267">
        <ele>1066.5999755859</ele>
        <time>2022-06-29T11:58:54.000Z</time>
      </trkpt>
      <trkpt lat="44.3252" lon="3.67271">
        <ele>1066.5999755859</ele>
        <time>2022-06-29T11:58:57.000Z</time>
      </trkpt>
      <trkpt lat="44.32524" lon="3.67279">
        <ele>1066.1999511719</ele>
        <time>2022-06-29T11:59:03.000Z</time>
      </trkpt>
      <trkpt lat="44.32528" lon="3.67288">
        <ele>1066</ele>
        <time>2022-06-29T11:59:09.000Z</time>
      </trkpt>
      <trkpt lat="44.3253" lon="3.6729">
        <ele>1066</ele>
        <time>2022-06-29T11:59:11.000Z</time>
      </trkpt>
      <trkpt lat="44.32535" lon="3.67296">
        <ele>1066.1999511719</ele>
        <time>2022-06-29T11:59:17.000Z</time>
      </trkpt>
      <trkpt lat="44.3254" lon="3.67302">
        <ele>1066.4000244141</ele>
        <time>2022-06-29T11:59:23.000Z</time>
      </trkpt>
      <trkpt lat="44.32542" lon="3.67304">
        <ele>1066.4000244141</ele>
        <time>2022-06-29T11:59:25.000Z</time>
      </trkpt>
      <trkpt lat="44.32543" lon="3.67305">
        <ele>1066.4000244141</ele>
        <time>2022-06-29T11:59:26.000Z</time>
      </trkpt>
      <trkpt lat="44.32549" lon="3.6731">
        <ele>1066.5999755859</ele>
        <time>2022-06-29T11:59:32.000Z</time>
      </trkpt>
      <trkpt lat="44.32551" lon="3.67313">
        <ele>1066.5999755859</ele>
        <time>2022-06-29T11:59:35.000Z</time>
      </trkpt>
      <trkpt lat="44.32554" lon="3.67315">
        <ele>1066.8000488281</ele>
        <time>2022-06-29T11:59:38.000Z</time>
      </trkpt>
      <trkpt lat="44.32556" lon="3.67317">
        <ele>1066.8000488281</ele>
        <time>2022-06-29T11:59:41.000Z</time>
      </trkpt>
      <trkpt lat="44.32557" lon="3.67318">
        <ele>1066.8000488281</ele>
        <time>2022-06-29T11:59:42.000Z</time>
      </trkpt>
      <trkpt lat="44.32559" lon="3.6732">
        <ele>1066.8000488281</ele>
        <time>2022-06-29T11:59:45.000Z</time>
      </trkpt>
      <trkpt lat="44.32561" lon="3.67323">
        <ele>1067</ele>
        <time>2022-06-29T11:59:48.000Z</time>
      </trkpt>
      <trkpt lat="44.32564" lon="3.67327">
        <ele>1067.1999511719</ele>
        <time>2022-06-29T11:59:52.000Z</time>
      </trkpt>
      <trkpt lat="44.32565" lon="3.67328">
        <ele>1067.1999511719</ele>
        <time>2022-06-29T11:59:53.000Z</time>
      </trkpt>
      <trkpt lat="44.3257" lon="3.67332">
        <ele>1067.1999511719</ele>
        <time>2022-06-29T11:59:57.000Z</time>
      </trkpt>
      <trkpt lat="44.32575" lon="3.67339">
        <ele>1067</ele>
        <time>2022-06-29T12:00:03.000Z</time>
      </trkpt>
      <trkpt lat="44.32579" lon="3.67345">
        <ele>1067</ele>
        <time>2022-06-29T12:00:09.000Z</time>
      </trkpt>
      <trkpt lat="44.32579" lon="3.67348">
        <ele>1067.1999511719</ele>
        <time>2022-06-29T12:00:11.000Z</time>
      </trkpt>
      <trkpt lat="44.32583" lon="3.67352">
        <ele>1067.8000488281</ele>
        <time>2022-06-29T12:00:15.000Z</time>
      </trkpt>
      <trkpt lat="44.32584" lon="3.67353">
        <ele>1067.8000488281</ele>
        <time>2022-06-29T12:00:17.000Z</time>
      </trkpt>
      <trkpt lat="44.3259" lon="3.6736">
        <ele>1068</ele>
        <time>2022-06-29T12:00:23.000Z</time>
      </trkpt>
      <trkpt lat="44.32592" lon="3.67362">
        <ele>1068.1999511719</ele>
        <time>2022-06-29T12:00:25.000Z</time>
      </trkpt>
      <trkpt lat="44.32594" lon="3.67365">
        <ele>1068.5999755859</ele>
        <time>2022-06-29T12:00:28.000Z</time>
      </trkpt>
      <trkpt lat="44.32597" lon="3.67374">
        <ele>1068.8000488281</ele>
        <time>2022-06-29T12:00:34.000Z</time>
      </trkpt>
      <trkpt lat="44.326" lon="3.67382">
        <ele>1069</ele>
        <time>2022-06-29T12:00:40.000Z</time>
      </trkpt>
      <trkpt lat="44.32601" lon="3.67384">
        <ele>1069.1999511719</ele>
        <time>2022-06-29T12:00:42.000Z</time>
      </trkpt>
      <trkpt lat="44.32606" lon="3.67391">
        <ele>1069</ele>
        <time>2022-06-29T12:00:48.000Z</time>
      </trkpt>
      <trkpt lat="44.32608" lon="3.67395">
        <ele>1069.1999511719</ele>
        <time>2022-06-29T12:00:51.000Z</time>
      </trkpt>
      <trkpt lat="44.32612" lon="3.67401">
        <ele>1069</ele>
        <time>2022-06-29T12:00:56.000Z</time>
      </trkpt>
      <trkpt lat="44.32616" lon="3.67408">
        <ele>1068.8000488281</ele>
        <time>2022-06-29T12:01:02.000Z</time>
      </trkpt>
      <trkpt lat="44.32618" lon="3.67415">
        <ele>1068.1999511719</ele>
        <time>2022-06-29T12:01:08.000Z</time>
      </trkpt>
      <trkpt lat="44.32621" lon="3.67418">
        <ele>1067.8000488281</ele>
        <time>2022-06-29T12:01:11.000Z</time>
      </trkpt>
      <trkpt lat="44.32629" lon="3.67425">
        <ele>1067.4000244141</ele>
        <time>2022-06-29T12:01:17.000Z</time>
      </trkpt>
      <trkpt lat="44.32631" lon="3.67428">
        <ele>1067.1999511719</ele>
        <time>2022-06-29T12:01:20.000Z</time>
      </trkpt>
      <trkpt lat="44.32633" lon="3.67433">
        <ele>1066.5999755859</ele>
        <time>2022-06-29T12:01:24.000Z</time>
      </trkpt>
      <trkpt lat="44.32633" lon="3.67435">
        <ele>1066.5999755859</ele>
        <time>2022-06-29T12:01:26.000Z</time>
      </trkpt>
      <trkpt lat="44.32635" lon="3.67443">
        <ele>1066.4000244141</ele>
        <time>2022-06-29T12:01:32.000Z</time>
      </trkpt>
      <trkpt lat="44.32636" lon="3.67449">
        <ele>1066.1999511719</ele>
        <time>2022-06-29T12:01:36.000Z</time>
      </trkpt>
      <trkpt lat="44.32636" lon="3.67453">
        <ele>1066</ele>
        <time>2022-06-29T12:01:38.000Z</time>
      </trkpt>
      <trkpt lat="44.32638" lon="3.67461">
        <ele>1065.5999755859</ele>
        <time>2022-06-29T12:01:44.000Z</time>
      </trkpt>
      <trkpt lat="44.32638" lon="3.67463">
        <ele>1065.4000244141</ele>
        <time>2022-06-29T12:01:45.000Z</time>
      </trkpt>
      <trkpt lat="44.32638" lon="3.67464">
        <ele>1065.4000244141</ele>
        <time>2022-06-29T12:01:46.000Z</time>
      </trkpt>
      <trkpt lat="44.32639" lon="3.67467">
        <ele>1065.1999511719</ele>
        <time>2022-06-29T12:01:48.000Z</time>
      </trkpt>
      <trkpt lat="44.3264" lon="3.67469">
        <ele>1065.1999511719</ele>
        <time>2022-06-29T12:01:50.000Z</time>
      </trkpt>
      <trkpt lat="44.32644" lon="3.67475">
        <ele>1065</ele>
        <time>2022-06-29T12:01:55.000Z</time>
      </trkpt>
      <trkpt lat="44.32648" lon="3.67483">
        <ele>1065.1999511719</ele>
        <time>2022-06-29T12:02:01.000Z</time>
      </trkpt>
      <trkpt lat="44.32649" lon="3.67493">
        <ele>1065.8000488281</ele>
        <time>2022-06-29T12:02:07.000Z</time>
      </trkpt>
      <trkpt lat="44.32649" lon="3.67499">
        <ele>1066.1999511719</ele>
        <time>2022-06-29T12:02:11.000Z</time>
      </trkpt>
      <trkpt lat="44.32648" lon="3.67509">
        <ele>1067</ele>
        <time>2022-06-29T12:02:17.000Z</time>
      </trkpt>
      <trkpt lat="44.32648" lon="3.67512">
        <ele>1067.1999511719</ele>
        <time>2022-06-29T12:02:19.000Z</time>
      </trkpt>
      <trkpt lat="44.32648" lon="3.67518">
        <ele>1067.5999755859</ele>
        <time>2022-06-29T12:02:24.000Z</time>
      </trkpt>
      <trkpt lat="44.32649" lon="3.67521">
        <ele>1068</ele>
        <time>2022-06-29T12:02:26.000Z</time>
      </trkpt>
      <trkpt lat="44.32649" lon="3.67522">
        <ele>1068.1999511719</ele>
        <time>2022-06-29T12:02:27.000Z</time>
      </trkpt>
      <trkpt lat="44.32649" lon="3.67523">
        <ele>1068.1999511719</ele>
        <time>2022-06-29T12:02:28.000Z</time>
      </trkpt>
      <trkpt lat="44.3265" lon="3.67525">
        <ele>1068.4000244141</ele>
        <time>2022-06-29T12:02:29.000Z</time>
      </trkpt>
      <trkpt lat="44.32651" lon="3.67534">
        <ele>1069</ele>
        <time>2022-06-29T12:02:35.000Z</time>
      </trkpt>
      <trkpt lat="44.32655" lon="3.67543">
        <ele>1069.1999511719</ele>
        <time>2022-06-29T12:02:41.000Z</time>
      </trkpt>
      <trkpt lat="44.32655" lon="3.67545">
        <ele>1069.4000244141</ele>
        <time>2022-06-29T12:02:42.000Z</time>
      </trkpt>
      <trkpt lat="44.32658" lon="3.67555">
        <ele>1070</ele>
        <time>2022-06-29T12:02:48.000Z</time>
      </trkpt>
      <trkpt lat="44.32659" lon="3.67558">
        <ele>1070.4000244141</ele>
        <time>2022-06-29T12:02:51.000Z</time>
      </trkpt>
      <trkpt lat="44.3266" lon="3.67566">
        <ele>1070.8000488281</ele>
        <time>2022-06-29T12:02:56.000Z</time>
      </trkpt>
      <trkpt lat="44.32662" lon="3.67572">
        <ele>1071.4000244141</ele>
        <time>2022-06-29T12:03:00.000Z</time>
      </trkpt>
      <trkpt lat="44.32662" lon="3.67579">
        <ele>1072</ele>
        <time>2022-06-29T12:03:05.000Z</time>
      </trkpt>
      <trkpt lat="44.32662" lon="3.67586">
        <ele>1072.5999755859</ele>
        <time>2022-06-29T12:03:09.000Z</time>
      </trkpt>
      <trkpt lat="44.32661" lon="3.67587">
        <ele>1072.5999755859</ele>
        <time>2022-06-29T12:03:10.000Z</time>
      </trkpt>
      <trkpt lat="44.32659" lon="3.67598">
        <ele>1073</ele>
        <time>2022-06-29T12:03:16.000Z</time>
      </trkpt>
      <trkpt lat="44.32658" lon="3.67605">
        <ele>1073.4000244141</ele>
        <time>2022-06-29T12:03:20.000Z</time>
      </trkpt>
      <trkpt lat="44.32658" lon="3.67606">
        <ele>1073.5999755859</ele>
        <time>2022-06-29T12:03:21.000Z</time>
      </trkpt>
      <trkpt lat="44.32657" lon="3.67609">
        <ele>1073.5999755859</ele>
        <time>2022-06-29T12:03:23.000Z</time>
      </trkpt>
      <trkpt lat="44.32657" lon="3.6761">
        <ele>1073.5999755859</ele>
        <time>2022-06-29T12:03:24.000Z</time>
      </trkpt>
      <trkpt lat="44.32657" lon="3.67612">
        <ele>1073.5999755859</ele>
        <time>2022-06-29T12:03:25.000Z</time>
      </trkpt>
      <trkpt lat="44.32657" lon="3.67613">
        <ele>1073.8000488281</ele>
        <time>2022-06-29T12:03:26.000Z</time>
      </trkpt>
      <trkpt lat="44.32654" lon="3.67623">
        <ele>1074</ele>
        <time>2022-06-29T12:03:32.000Z</time>
      </trkpt>
      <trkpt lat="44.32652" lon="3.67632">
        <ele>1074.4000244141</ele>
        <time>2022-06-29T12:03:38.000Z</time>
      </trkpt>
      <trkpt lat="44.32655" lon="3.67637">
        <ele>1074.4000244141</ele>
        <time>2022-06-29T12:03:41.000Z</time>
      </trkpt>
      <trkpt lat="44.32655" lon="3.6764">
        <ele>1074.5999755859</ele>
        <time>2022-06-29T12:03:43.000Z</time>
      </trkpt>
      <trkpt lat="44.32656" lon="3.67644">
        <ele>1074.8000488281</ele>
        <time>2022-06-29T12:03:46.000Z</time>
      </trkpt>
      <trkpt lat="44.32655" lon="3.67653">
        <ele>1075.1999511719</ele>
        <time>2022-06-29T12:03:52.000Z</time>
      </trkpt>
      <trkpt lat="44.32655" lon="3.6766">
        <ele>1075.1999511719</ele>
        <time>2022-06-29T12:03:56.000Z</time>
      </trkpt>
      <trkpt lat="44.32655" lon="3.67661">
        <ele>1075.1999511719</ele>
        <time>2022-06-29T12:03:57.000Z</time>
      </trkpt>
      <trkpt lat="44.32656" lon="3.67666">
        <ele>1075.4000244141</ele>
        <time>2022-06-29T12:04:00.000Z</time>
      </trkpt>
      <trkpt lat="44.32655" lon="3.67671">
        <ele>1075.8000488281</ele>
        <time>2022-06-29T12:04:03.000Z</time>
      </trkpt>
      <trkpt lat="44.32653" lon="3.67679">
        <ele>1076</ele>
        <time>2022-06-29T12:04:09.000Z</time>
      </trkpt>
      <trkpt lat="44.32652" lon="3.67686">
        <ele>1076.4000244141</ele>
        <time>2022-06-29T12:04:14.000Z</time>
      </trkpt>
      <trkpt lat="44.3265" lon="3.67695">
        <ele>1076.4000244141</ele>
        <time>2022-06-29T12:04:20.000Z</time>
      </trkpt>
      <trkpt lat="44.32648" lon="3.677">
        <ele>1076.4000244141</ele>
        <time>2022-06-29T12:04:24.000Z</time>
      </trkpt>
      <trkpt lat="44.32648" lon="3.67702">
        <ele>1076.5999755859</ele>
        <time>2022-06-29T12:04:25.000Z</time>
      </trkpt>
      <trkpt lat="44.32648" lon="3.67704">
        <ele>1076.8000488281</ele>
        <time>2022-06-29T12:04:27.000Z</time>
      </trkpt>
      <trkpt lat="44.32647" lon="3.67705">
        <ele>1077</ele>
        <time>2022-06-29T12:04:28.000Z</time>
      </trkpt>
      <trkpt lat="44.32644" lon="3.67713">
        <ele>1077.4000244141</ele>
        <time>2022-06-29T12:04:34.000Z</time>
      </trkpt>
      <trkpt lat="44.32643" lon="3.67714">
        <ele>1077.4000244141</ele>
        <time>2022-06-29T12:04:35.000Z</time>
      </trkpt>
      <trkpt lat="44.32642" lon="3.67717">
        <ele>1077.8000488281</ele>
        <time>2022-06-29T12:04:38.000Z</time>
      </trkpt>
      <trkpt lat="44.32643" lon="3.67719">
        <ele>1077.8000488281</ele>
        <time>2022-06-29T12:04:39.000Z</time>
      </trkpt>
      <trkpt lat="44.32641" lon="3.67725">
        <ele>1078</ele>
        <time>2022-06-29T12:04:43.000Z</time>
      </trkpt>
      <trkpt lat="44.3264" lon="3.6773">
        <ele>1078.1999511719</ele>
        <time>2022-06-29T12:04:46.000Z</time>
      </trkpt>
      <trkpt lat="44.32639" lon="3.67736">
        <ele>1078.5999755859</ele>
        <time>2022-06-29T12:04:50.000Z</time>
      </trkpt>
      <trkpt lat="44.32638" lon="3.67745">
        <ele>1078.8000488281</ele>
        <time>2022-06-29T12:04:56.000Z</time>
      </trkpt>
      <trkpt lat="44.32636" lon="3.6775">
        <ele>1079</ele>
        <time>2022-06-29T12:05:00.000Z</time>
      </trkpt>
      <trkpt lat="44.32633" lon="3.67759">
        <ele>1079.4000244141</ele>
        <time>2022-06-29T12:05:06.000Z</time>
      </trkpt>
      <trkpt lat="44.32631" lon="3.67767">
        <ele>1079.8000488281</ele>
        <time>2022-06-29T12:05:12.000Z</time>
      </trkpt>
      <trkpt lat="44.3263" lon="3.6777">
        <ele>1080</ele>
        <time>2022-06-29T12:05:14.000Z</time>
      </trkpt>
      <trkpt lat="44.32629" lon="3.67773">
        <ele>1080</ele>
        <time>2022-06-29T12:05:16.000Z</time>
      </trkpt>
      <trkpt lat="44.32628" lon="3.67783">
        <ele>1080.1999511719</ele>
        <time>2022-06-29T12:05:22.000Z</time>
      </trkpt>
      <trkpt lat="44.32628" lon="3.67792">
        <ele>1080.1999511719</ele>
        <time>2022-06-29T12:05:28.000Z</time>
      </trkpt>
      <trkpt lat="44.32627" lon="3.67794">
        <ele>1080.4000244141</ele>
        <time>2022-06-29T12:05:30.000Z</time>
      </trkpt>
      <trkpt lat="44.32626" lon="3.678">
        <ele>1080.5999755859</ele>
        <time>2022-06-29T12:05:35.000Z</time>
      </trkpt>
      <trkpt lat="44.32624" lon="3.67805">
        <ele>1081</ele>
        <time>2022-06-29T12:05:39.000Z</time>
      </trkpt>
      <trkpt lat="44.32622" lon="3.67813">
        <ele>1080.8000488281</ele>
        <time>2022-06-29T12:05:44.000Z</time>
      </trkpt>
      <trkpt lat="44.32621" lon="3.67821">
        <ele>1080.8000488281</ele>
        <time>2022-06-29T12:05:50.000Z</time>
      </trkpt>
      <trkpt lat="44.32621" lon="3.67822">
        <ele>1081</ele>
        <time>2022-06-29T12:05:51.000Z</time>
      </trkpt>
      <trkpt lat="44.3262" lon="3.67825">
        <ele>1081</ele>
        <time>2022-06-29T12:05:53.000Z</time>
      </trkpt>
      <trkpt lat="44.32619" lon="3.67833">
        <ele>1081.4000244141</ele>
        <time>2022-06-29T12:05:59.000Z</time>
      </trkpt>
      <trkpt lat="44.32619" lon="3.67834">
        <ele>1081.1999511719</ele>
        <time>2022-06-29T12:06:00.000Z</time>
      </trkpt>
      <trkpt lat="44.32617" lon="3.67842">
        <ele>1081.1999511719</ele>
        <time>2022-06-29T12:06:06.000Z</time>
      </trkpt>
      <trkpt lat="44.32615" lon="3.67851">
        <ele>1081.4000244141</ele>
        <time>2022-06-29T12:06:12.000Z</time>
      </trkpt>
      <trkpt lat="44.32615" lon="3.67852">
        <ele>1081.4000244141</ele>
        <time>2022-06-29T12:06:13.000Z</time>
      </trkpt>
      <trkpt lat="44.32612" lon="3.67856">
        <ele>1081.5999755859</ele>
        <time>2022-06-29T12:06:16.000Z</time>
      </trkpt>
      <trkpt lat="44.32612" lon="3.67857">
        <ele>1081.5999755859</ele>
        <time>2022-06-29T12:06:17.000Z</time>
      </trkpt>
      <trkpt lat="44.32611" lon="3.67867">
        <ele>1081.8000488281</ele>
        <time>2022-06-29T12:06:23.000Z</time>
      </trkpt>
      <trkpt lat="44.32611" lon="3.67871">
        <ele>1081.8000488281</ele>
        <time>2022-06-29T12:06:25.000Z</time>
      </trkpt>
      <trkpt lat="44.32611" lon="3.67875">
        <ele>1081.8000488281</ele>
        <time>2022-06-29T12:06:27.000Z</time>
      </trkpt>
      <trkpt lat="44.3261" lon="3.6788">
        <ele>1081.8000488281</ele>
        <time>2022-06-29T12:06:31.000Z</time>
      </trkpt>
      <trkpt lat="44.32611" lon="3.6789">
        <ele>1081.8000488281</ele>
        <time>2022-06-29T12:06:37.000Z</time>
      </trkpt>
      <trkpt lat="44.32611" lon="3.67899">
        <ele>1081</ele>
        <time>2022-06-29T12:06:43.000Z</time>
      </trkpt>
      <trkpt lat="44.32612" lon="3.679">
        <ele>1080.8000488281</ele>
        <time>2022-06-29T12:06:44.000Z</time>
      </trkpt>
      <trkpt lat="44.32612" lon="3.67903">
        <ele>1080.8000488281</ele>
        <time>2022-06-29T12:06:46.000Z</time>
      </trkpt>
      <trkpt lat="44.32612" lon="3.67912">
        <ele>1080.8000488281</ele>
        <time>2022-06-29T12:06:52.000Z</time>
      </trkpt>
      <trkpt lat="44.32612" lon="3.67922">
        <ele>1080.4000244141</ele>
        <time>2022-06-29T12:06:58.000Z</time>
      </trkpt>
      <trkpt lat="44.32612" lon="3.67926">
        <ele>1080.1999511719</ele>
        <time>2022-06-29T12:07:01.000Z</time>
      </trkpt>
      <trkpt lat="44.32614" lon="3.67934">
        <ele>1080</ele>
        <time>2022-06-29T12:07:06.000Z</time>
      </trkpt>
      <trkpt lat="44.32616" lon="3.67942">
        <ele>1079.8000488281</ele>
        <time>2022-06-29T12:07:12.000Z</time>
      </trkpt>
      <trkpt lat="44.32616" lon="3.67943">
        <ele>1079.8000488281</ele>
        <time>2022-06-29T12:07:13.000Z</time>
      </trkpt>
      <trkpt lat="44.32616" lon="3.67947">
        <ele>1079.5999755859</ele>
        <time>2022-06-29T12:07:15.000Z</time>
      </trkpt>
      <trkpt lat="44.32618" lon="3.67954">
        <ele>1079.5999755859</ele>
        <time>2022-06-29T12:07:21.000Z</time>
      </trkpt>
      <trkpt lat="44.3262" lon="3.67963">
        <ele>1079.8000488281</ele>
        <time>2022-06-29T12:07:27.000Z</time>
      </trkpt>
      <trkpt lat="44.3262" lon="3.67968">
        <ele>1079.8000488281</ele>
        <time>2022-06-29T12:07:29.000Z</time>
      </trkpt>
      <trkpt lat="44.32622" lon="3.67977">
        <ele>1079.8000488281</ele>
        <time>2022-06-29T12:07:35.000Z</time>
      </trkpt>
      <trkpt lat="44.32622" lon="3.67984">
        <ele>1080</ele>
        <time>2022-06-29T12:07:41.000Z</time>
      </trkpt>
      <trkpt lat="44.32622" lon="3.6799">
        <ele>1079.8000488281</ele>
        <time>2022-06-29T12:07:45.000Z</time>
      </trkpt>
      <trkpt lat="44.3262" lon="3.68">
        <ele>1080</ele>
        <time>2022-06-29T12:07:51.000Z</time>
      </trkpt>
      <trkpt lat="44.32619" lon="3.68008">
        <ele>1080</ele>
        <time>2022-06-29T12:07:57.000Z</time>
      </trkpt>
      <trkpt lat="44.32619" lon="3.68012">
        <ele>1080.1999511719</ele>
        <time>2022-06-29T12:08:00.000Z</time>
      </trkpt>
      <trkpt lat="44.32619" lon="3.68022">
        <ele>1080</ele>
        <time>2022-06-29T12:08:06.000Z</time>
      </trkpt>
      <trkpt lat="44.32619" lon="3.68023">
        <ele>1080</ele>
        <time>2022-06-29T12:08:07.000Z</time>
      </trkpt>
      <trkpt lat="44.32619" lon="3.68032">
        <ele>1080</ele>
        <time>2022-06-29T12:08:13.000Z</time>
      </trkpt>
      <trkpt lat="44.32618" lon="3.68036">
        <ele>1079.8000488281</ele>
        <time>2022-06-29T12:08:16.000Z</time>
      </trkpt>
      <trkpt lat="44.32617" lon="3.68038">
        <ele>1079.8000488281</ele>
        <time>2022-06-29T12:08:18.000Z</time>
      </trkpt>
      <trkpt lat="44.32619" lon="3.68045">
        <ele>1079.1999511719</ele>
        <time>2022-06-29T12:08:24.000Z</time>
      </trkpt>
      <trkpt lat="44.3262" lon="3.68049">
        <ele>1078.8000488281</ele>
        <time>2022-06-29T12:08:27.000Z</time>
      </trkpt>
      <trkpt lat="44.32622" lon="3.68053">
        <ele>1078.5999755859</ele>
        <time>2022-06-29T12:08:29.000Z</time>
      </trkpt>
      <trkpt lat="44.32622" lon="3.68058">
        <ele>1078.8000488281</ele>
        <time>2022-06-29T12:08:32.000Z</time>
      </trkpt>
      <trkpt lat="44.32623" lon="3.68068">
        <ele>1078.5999755859</ele>
        <time>2022-06-29T12:08:38.000Z</time>
      </trkpt>
      <trkpt lat="44.32624" lon="3.68077">
        <ele>1078.5999755859</ele>
        <time>2022-06-29T12:08:44.000Z</time>
      </trkpt>
      <trkpt lat="44.32624" lon="3.68086">
        <ele>1078.4000244141</ele>
        <time>2022-06-29T12:08:49.000Z</time>
      </trkpt>
      <trkpt lat="44.32624" lon="3.68093">
        <ele>1078.1999511719</ele>
        <time>2022-06-29T12:08:54.000Z</time>
      </trkpt>
      <trkpt lat="44.32624" lon="3.68099">
        <ele>1077.8000488281</ele>
        <time>2022-06-29T12:08:58.000Z</time>
      </trkpt>
      <trkpt lat="44.32622" lon="3.68108">
        <ele>1077.5999755859</ele>
        <time>2022-06-29T12:09:04.000Z</time>
      </trkpt>
      <trkpt lat="44.32622" lon="3.68112">
        <ele>1077.5999755859</ele>
        <time>2022-06-29T12:09:06.000Z</time>
      </trkpt>
      <trkpt lat="44.32623" lon="3.68123">
        <ele>1077.4000244141</ele>
        <time>2022-06-29T12:09:12.000Z</time>
      </trkpt>
      <trkpt lat="44.32625" lon="3.68134">
        <ele>1077.5999755859</ele>
        <time>2022-06-29T12:09:18.000Z</time>
      </trkpt>
      <trkpt lat="44.32624" lon="3.68139">
        <ele>1077.8000488281</ele>
        <time>2022-06-29T12:09:22.000Z</time>
      </trkpt>
      <trkpt lat="44.32622" lon="3.68149">
        <ele>1078.1999511719</ele>
        <time>2022-06-29T12:09:28.000Z</time>
      </trkpt>
      <trkpt lat="44.3262" lon="3.68157">
        <ele>1079</ele>
        <time>2022-06-29T12:09:33.000Z</time>
      </trkpt>
      <trkpt lat="44.32618" lon="3.68161">
        <ele>1079</ele>
        <time>2022-06-29T12:09:36.000Z</time>
      </trkpt>
      <trkpt lat="44.32616" lon="3.68172">
        <ele>1079.5999755859</ele>
        <time>2022-06-29T12:09:42.000Z</time>
      </trkpt>
      <trkpt lat="44.32616" lon="3.6818">
        <ele>1080</ele>
        <time>2022-06-29T12:09:47.000Z</time>
      </trkpt>
      <trkpt lat="44.32616" lon="3.68182">
        <ele>1080</ele>
        <time>2022-06-29T12:09:48.000Z</time>
      </trkpt>
      <trkpt lat="44.32616" lon="3.68194">
        <ele>1079.5999755859</ele>
        <time>2022-06-29T12:09:54.000Z</time>
      </trkpt>
      <trkpt lat="44.32618" lon="3.68206">
        <ele>1079.5999755859</ele>
        <time>2022-06-29T12:10:00.000Z</time>
      </trkpt>
      <trkpt lat="44.32618" lon="3.6821">
        <ele>1079.5999755859</ele>
        <time>2022-06-29T12:10:03.000Z</time>
      </trkpt>
      <trkpt lat="44.32619" lon="3.6822">
        <ele>1079.8000488281</ele>
        <time>2022-06-29T12:10:09.000Z</time>
      </trkpt>
      <trkpt lat="44.3262" lon="3.68228">
        <ele>1080</ele>
        <time>2022-06-29T12:10:15.000Z</time>
      </trkpt>
      <trkpt lat="44.3262" lon="3.68229">
        <ele>1080</ele>
        <time>2022-06-29T12:10:16.000Z</time>
      </trkpt>
      <trkpt lat="44.3262" lon="3.6824">
        <ele>1079.8000488281</ele>
        <time>2022-06-29T12:10:22.000Z</time>
      </trkpt>
      <trkpt lat="44.3262" lon="3.68244">
        <ele>1079.8000488281</ele>
        <time>2022-06-29T12:10:25.000Z</time>
      </trkpt>
      <trkpt lat="44.32619" lon="3.68251">
        <ele>1079.5999755859</ele>
        <time>2022-06-29T12:10:29.000Z</time>
      </trkpt>
      <trkpt lat="44.32619" lon="3.68254">
        <ele>1079.4000244141</ele>
        <time>2022-06-29T12:10:31.000Z</time>
      </trkpt>
      <trkpt lat="44.32619" lon="3.68262">
        <ele>1079</ele>
        <time>2022-06-29T12:10:37.000Z</time>
      </trkpt>
      <trkpt lat="44.32618" lon="3.68266">
        <ele>1079</ele>
        <time>2022-06-29T12:10:40.000Z</time>
      </trkpt>
      <trkpt lat="44.32616" lon="3.68273">
        <ele>1078.8000488281</ele>
        <time>2022-06-29T12:10:45.000Z</time>
      </trkpt>
      <trkpt lat="44.32614" lon="3.68281">
        <ele>1078.4000244141</ele>
        <time>2022-06-29T12:10:51.000Z</time>
      </trkpt>
      <trkpt lat="44.32612" lon="3.68289">
        <ele>1078.4000244141</ele>
        <time>2022-06-29T12:10:57.000Z</time>
      </trkpt>
      <trkpt lat="44.3261" lon="3.68296">
        <ele>1078.4000244141</ele>
        <time>2022-06-29T12:11:00.000Z</time>
      </trkpt>
      <trkpt lat="44.32606" lon="3.68305">
        <ele>1078.1999511719</ele>
        <time>2022-06-29T12:11:06.000Z</time>
      </trkpt>
      <trkpt lat="44.32603" lon="3.68313">
        <ele>1078.1999511719</ele>
        <time>2022-06-29T12:11:12.000Z</time>
      </trkpt>
      <trkpt lat="44.32603" lon="3.68316">
        <ele>1078</ele>
        <time>2022-06-29T12:11:14.000Z</time>
      </trkpt>
      <trkpt lat="44.326" lon="3.68324">
        <ele>1077.1999511719</ele>
        <time>2022-06-29T12:11:20.000Z</time>
      </trkpt>
      <trkpt lat="44.326" lon="3.68325">
        <ele>1077</ele>
        <time>2022-06-29T12:11:21.000Z</time>
      </trkpt>
      <trkpt lat="44.32597" lon="3.68334">
        <ele>1076.5999755859</ele>
        <time>2022-06-29T12:11:27.000Z</time>
      </trkpt>
      <trkpt lat="44.32597" lon="3.68335">
        <ele>1076.5999755859</ele>
        <time>2022-06-29T12:11:28.000Z</time>
      </trkpt>
      <trkpt lat="44.32594" lon="3.68342">
        <ele>1076</ele>
        <time>2022-06-29T12:11:33.000Z</time>
      </trkpt>
      <trkpt lat="44.32592" lon="3.68346">
        <ele>1075.8000488281</ele>
        <time>2022-06-29T12:11:36.000Z</time>
      </trkpt>
      <trkpt lat="44.32591" lon="3.68352">
        <ele>1075.4000244141</ele>
        <time>2022-06-29T12:11:40.000Z</time>
      </trkpt>
      <trkpt lat="44.32589" lon="3.68358">
        <ele>1075.1999511719</ele>
        <time>2022-06-29T12:11:44.000Z</time>
      </trkpt>
      <trkpt lat="44.32585" lon="3.68366">
        <ele>1074.8000488281</ele>
        <time>2022-06-29T12:11:50.000Z</time>
      </trkpt>
      <trkpt lat="44.32584" lon="3.68375">
        <ele>1074.4000244141</ele>
        <time>2022-06-29T12:11:56.000Z</time>
      </trkpt>
      <trkpt lat="44.32584" lon="3.68377">
        <ele>1074.4000244141</ele>
        <time>2022-06-29T12:11:57.000Z</time>
      </trkpt>
      <trkpt lat="44.32582" lon="3.68383">
        <ele>1073.8000488281</ele>
        <time>2022-06-29T12:12:01.000Z</time>
      </trkpt>
      <trkpt lat="44.32581" lon="3.68388">
        <ele>1073.8000488281</ele>
        <time>2022-06-29T12:12:04.000Z</time>
      </trkpt>
      <trkpt lat="44.32579" lon="3.68398">
        <ele>1073.4000244141</ele>
        <time>2022-06-29T12:12:10.000Z</time>
      </trkpt>
      <trkpt lat="44.32578" lon="3.68399">
        <ele>1073.4000244141</ele>
        <time>2022-06-29T12:12:11.000Z</time>
      </trkpt>
      <trkpt lat="44.32576" lon="3.68407">
        <ele>1073.4000244141</ele>
        <time>2022-06-29T12:12:16.000Z</time>
      </trkpt>
      <trkpt lat="44.32575" lon="3.68413">
        <ele>1073.4000244141</ele>
        <time>2022-06-29T12:12:20.000Z</time>
      </trkpt>
      <trkpt lat="44.32573" lon="3.68421">
        <ele>1073.1999511719</ele>
        <time>2022-06-29T12:12:25.000Z</time>
      </trkpt>
      <trkpt lat="44.32572" lon="3.68424">
        <ele>1073.1999511719</ele>
        <time>2022-06-29T12:12:27.000Z</time>
      </trkpt>
      <trkpt lat="44.3257" lon="3.68433">
        <ele>1073.4000244141</ele>
        <time>2022-06-29T12:12:33.000Z</time>
      </trkpt>
      <trkpt lat="44.32569" lon="3.6844">
        <ele>1073</ele>
        <time>2022-06-29T12:12:38.000Z</time>
      </trkpt>
      <trkpt lat="44.32568" lon="3.68445">
        <ele>1073</ele>
        <time>2022-06-29T12:12:41.000Z</time>
      </trkpt>
      <trkpt lat="44.32568" lon="3.6845">
        <ele>1073</ele>
        <time>2022-06-29T12:12:44.000Z</time>
      </trkpt>
      <trkpt lat="44.32566" lon="3.68454">
        <ele>1072.8000488281</ele>
        <time>2022-06-29T12:12:47.000Z</time>
      </trkpt>
      <trkpt lat="44.32564" lon="3.68463">
        <ele>1072.5999755859</ele>
        <time>2022-06-29T12:12:53.000Z</time>
      </trkpt>
      <trkpt lat="44.32564" lon="3.68464">
        <ele>1072.5999755859</ele>
        <time>2022-06-29T12:12:54.000Z</time>
      </trkpt>
      <trkpt lat="44.32564" lon="3.68464">
        <ele>1072.5999755859</ele>
        <time>2022-06-29T12:12:55.000Z</time>
      </trkpt>
      <trkpt lat="44.32564" lon="3.68465">
        <ele>1072.5999755859</ele>
        <time>2022-06-29T12:12:57.000Z</time>
      </trkpt>
      <trkpt lat="44.32564" lon="3.68468">
        <ele>1072.5999755859</ele>
        <time>2022-06-29T12:12:59.000Z</time>
      </trkpt>
      <trkpt lat="44.32563" lon="3.68471">
        <ele>1072.4000244141</ele>
        <time>2022-06-29T12:13:01.000Z</time>
      </trkpt>
      <trkpt lat="44.32561" lon="3.68477">
        <ele>1072</ele>
        <time>2022-06-29T12:13:05.000Z</time>
      </trkpt>
      <trkpt lat="44.32559" lon="3.68484">
        <ele>1071.8000488281</ele>
        <time>2022-06-29T12:13:10.000Z</time>
      </trkpt>
      <trkpt lat="44.32557" lon="3.68494">
        <ele>1072</ele>
        <time>2022-06-29T12:13:16.000Z</time>
      </trkpt>
      <trkpt lat="44.32555" lon="3.685">
        <ele>1072</ele>
        <time>2022-06-29T12:13:20.000Z</time>
      </trkpt>
      <trkpt lat="44.32552" lon="3.68509">
        <ele>1072</ele>
        <time>2022-06-29T12:13:26.000Z</time>
      </trkpt>
      <trkpt lat="44.32551" lon="3.68514">
        <ele>1072</ele>
        <time>2022-06-29T12:13:29.000Z</time>
      </trkpt>
      <trkpt lat="44.3255" lon="3.6852">
        <ele>1072</ele>
        <time>2022-06-29T12:13:33.000Z</time>
      </trkpt>
      <trkpt lat="44.32549" lon="3.68529">
        <ele>1072</ele>
        <time>2022-06-29T12:13:39.000Z</time>
      </trkpt>
      <trkpt lat="44.32548" lon="3.68536">
        <ele>1071.8000488281</ele>
        <time>2022-06-29T12:13:44.000Z</time>
      </trkpt>
      <trkpt lat="44.32546" lon="3.68545">
        <ele>1071.8000488281</ele>
        <time>2022-06-29T12:13:50.000Z</time>
      </trkpt>
      <trkpt lat="44.32545" lon="3.68549">
        <ele>1071.8000488281</ele>
        <time>2022-06-29T12:13:52.000Z</time>
      </trkpt>
      <trkpt lat="44.32545" lon="3.6855">
        <ele>1071.8000488281</ele>
        <time>2022-06-29T12:13:53.000Z</time>
      </trkpt>
      <trkpt lat="44.32543" lon="3.68559">
        <ele>1072.1999511719</ele>
        <time>2022-06-29T12:13:59.000Z</time>
      </trkpt>
      <trkpt lat="44.32543" lon="3.6856">
        <ele>1072.1999511719</ele>
        <time>2022-06-29T12:14:00.000Z</time>
      </trkpt>
      <trkpt lat="44.32542" lon="3.68561">
        <ele>1072.1999511719</ele>
        <time>2022-06-29T12:14:01.000Z</time>
      </trkpt>
      <trkpt lat="44.32542" lon="3.68563">
        <ele>1072.1999511719</ele>
        <time>2022-06-29T12:14:02.000Z</time>
      </trkpt>
      <trkpt lat="44.32541" lon="3.68567">
        <ele>1072.1999511719</ele>
        <time>2022-06-29T12:14:06.000Z</time>
      </trkpt>
      <trkpt lat="44.3254" lon="3.68567">
        <ele>1072.1999511719</ele>
        <time>2022-06-29T12:14:08.000Z</time>
      </trkpt>
      <trkpt lat="44.3254" lon="3.6857">
        <ele>1072.4000244141</ele>
        <time>2022-06-29T12:14:14.000Z</time>
      </trkpt>
      <trkpt lat="44.3254" lon="3.68574">
        <ele>1072.4000244141</ele>
        <time>2022-06-29T12:14:17.000Z</time>
      </trkpt>
      <trkpt lat="44.32537" lon="3.68581">
        <ele>1072.4000244141</ele>
        <time>2022-06-29T12:14:23.000Z</time>
      </trkpt>
      <trkpt lat="44.32533" lon="3.68586">
        <ele>1072.1999511719</ele>
        <time>2022-06-29T12:14:28.000Z</time>
      </trkpt>
      <trkpt lat="44.32529" lon="3.68591">
        <ele>1072</ele>
        <time>2022-06-29T12:14:34.000Z</time>
      </trkpt>
      <trkpt lat="44.32526" lon="3.68595">
        <ele>1072.1999511719</ele>
        <time>2022-06-29T12:14:38.000Z</time>
      </trkpt>
      <trkpt lat="44.32526" lon="3.68596">
        <ele>1072.4000244141</ele>
        <time>2022-06-29T12:14:39.000Z</time>
      </trkpt>
      <trkpt lat="44.32526" lon="3.68599">
        <ele>1072.5999755859</ele>
        <time>2022-06-29T12:14:44.000Z</time>
      </trkpt>
      <trkpt lat="44.32526" lon="3.68599">
        <ele>1072.5999755859</ele>
        <time>2022-06-29T12:14:46.000Z</time>
      </trkpt>
      <trkpt lat="44.32526" lon="3.68599">
        <ele>1072.5999755859</ele>
        <time>2022-06-29T12:14:47.000Z</time>
      </trkpt>
      <trkpt lat="44.32527" lon="3.68602">
        <ele>1072.4000244141</ele>
        <time>2022-06-29T12:14:51.000Z</time>
      </trkpt>
      <trkpt lat="44.32528" lon="3.68602">
        <ele>1072.8000488281</ele>
        <time>2022-06-29T12:14:57.000Z</time>
      </trkpt>
      <trkpt lat="44.32529" lon="3.68602">
        <ele>1072.8000488281</ele>
        <time>2022-06-29T12:15:03.000Z</time>
      </trkpt>
      <trkpt lat="44.3253" lon="3.68602">
        <ele>1072.5999755859</ele>
        <time>2022-06-29T12:15:08.000Z</time>
      </trkpt>
      <trkpt lat="44.32529" lon="3.68602">
        <ele>1072.8000488281</ele>
        <time>2022-06-29T12:15:09.000Z</time>
      </trkpt>
      <trkpt lat="44.32529" lon="3.68602">
        <ele>1073</ele>
        <time>2022-06-29T12:15:10.000Z</time>
      </trkpt>
      <trkpt lat="44.32528" lon="3.68597">
        <ele>1072.8000488281</ele>
        <time>2022-06-29T12:15:16.000Z</time>
      </trkpt>
      <trkpt lat="44.32527" lon="3.68595">
        <ele>1072.8000488281</ele>
        <time>2022-06-29T12:15:18.000Z</time>
      </trkpt>
      <trkpt lat="44.32523" lon="3.68587">
        <ele>1072.8000488281</ele>
        <time>2022-06-29T12:15:24.000Z</time>
      </trkpt>
      <trkpt lat="44.32522" lon="3.68586">
        <ele>1072.8000488281</ele>
        <time>2022-06-29T12:15:25.000Z</time>
      </trkpt>
      <trkpt lat="44.32519" lon="3.68583">
        <ele>1073</ele>
        <time>2022-06-29T12:15:29.000Z</time>
      </trkpt>
      <trkpt lat="44.32519" lon="3.68582">
        <ele>1073</ele>
        <time>2022-06-29T12:15:31.000Z</time>
      </trkpt>
      <trkpt lat="44.32516" lon="3.68579">
        <ele>1073.4000244141</ele>
        <time>2022-06-29T12:15:37.000Z</time>
      </trkpt>
      <trkpt lat="44.32512" lon="3.68577">
        <ele>1073.1999511719</ele>
        <time>2022-06-29T12:15:41.000Z</time>
      </trkpt>
      <trkpt lat="44.32506" lon="3.68574">
        <ele>1073</ele>
        <time>2022-06-29T12:15:47.000Z</time>
      </trkpt>
      <trkpt lat="44.32501" lon="3.68571">
        <ele>1073</ele>
        <time>2022-06-29T12:15:53.000Z</time>
      </trkpt>
      <trkpt lat="44.32498" lon="3.68571">
        <ele>1073</ele>
        <time>2022-06-29T12:15:57.000Z</time>
      </trkpt>
      <trkpt lat="44.32499" lon="3.6857">
        <ele>1073</ele>
        <time>2022-06-29T12:16:00.000Z</time>
      </trkpt>
      <trkpt lat="44.32499" lon="3.6857">
        <ele>1073</ele>
        <time>2022-06-29T12:16:02.000Z</time>
      </trkpt>
      <trkpt lat="44.32499" lon="3.6857">
        <ele>1073</ele>
        <time>2022-06-29T12:16:08.000Z</time>
      </trkpt>
      <trkpt lat="44.32502" lon="3.68572">
        <ele>1072.4000244141</ele>
        <time>2022-06-29T12:16:13.000Z</time>
      </trkpt>
      <trkpt lat="44.32507" lon="3.68575">
        <ele>1072</ele>
        <time>2022-06-29T12:16:19.000Z</time>
      </trkpt>
      <trkpt lat="44.3251" lon="3.68576">
        <ele>1072.1999511719</ele>
        <time>2022-06-29T12:16:22.000Z</time>
      </trkpt>
      <trkpt lat="44.32515" lon="3.6858">
        <ele>1072.1999511719</ele>
        <time>2022-06-29T12:16:28.000Z</time>
      </trkpt>
      <trkpt lat="44.32516" lon="3.68581">
        <ele>1072.1999511719</ele>
        <time>2022-06-29T12:16:29.000Z</time>
      </trkpt>
      <trkpt lat="44.32519" lon="3.68583">
        <ele>1072.5999755859</ele>
        <time>2022-06-29T12:16:33.000Z</time>
      </trkpt>
      <trkpt lat="44.32522" lon="3.68585">
        <ele>1072.8000488281</ele>
        <time>2022-06-29T12:16:37.000Z</time>
      </trkpt>
      <trkpt lat="44.32526" lon="3.68589">
        <ele>1073.4000244141</ele>
        <time>2022-06-29T12:16:43.000Z</time>
      </trkpt>
      <trkpt lat="44.32528" lon="3.68591">
        <ele>1073.5999755859</ele>
        <time>2022-06-29T12:16:47.000Z</time>
      </trkpt>
      <trkpt lat="44.32528" lon="3.68591">
        <ele>1073.8000488281</ele>
        <time>2022-06-29T12:16:48.000Z</time>
      </trkpt>
      <trkpt lat="44.32528" lon="3.68591">
        <ele>1073.8000488281</ele>
        <time>2022-06-29T12:16:49.000Z</time>
      </trkpt>
      <trkpt lat="44.32528" lon="3.6859">
        <ele>1073.8000488281</ele>
        <time>2022-06-29T12:16:50.000Z</time>
      </trkpt>
      <trkpt lat="44.32528" lon="3.68591">
        <ele>1073.5999755859</ele>
        <time>2022-06-29T12:16:53.000Z</time>
      </trkpt>
      <trkpt lat="44.32528" lon="3.68591">
        <ele>1073.5999755859</ele>
        <time>2022-06-29T12:16:55.000Z</time>
      </trkpt>
      <trkpt lat="44.32529" lon="3.68591">
        <ele>1073.5999755859</ele>
        <time>2022-06-29T12:16:59.000Z</time>
      </trkpt>
      <trkpt lat="44.32529" lon="3.6859">
        <ele>1073.5999755859</ele>
        <time>2022-06-29T12:17:01.000Z</time>
      </trkpt>
      <trkpt lat="44.32529" lon="3.6859">
        <ele>1073.4000244141</ele>
        <time>2022-06-29T12:17:05.000Z</time>
      </trkpt>
      <trkpt lat="44.32529" lon="3.6859">
        <ele>1073.1999511719</ele>
        <time>2022-06-29T12:17:06.000Z</time>
      </trkpt>
      <trkpt lat="44.32529" lon="3.6859">
        <ele>1073.1999511719</ele>
        <time>2022-06-29T12:17:11.000Z</time>
      </trkpt>
      <trkpt lat="44.32529" lon="3.68591">
        <ele>1072.8000488281</ele>
        <time>2022-06-29T12:17:17.000Z</time>
      </trkpt>
      <trkpt lat="44.32529" lon="3.68591">
        <ele>1072.8000488281</ele>
        <time>2022-06-29T12:17:20.000Z</time>
      </trkpt>
      <trkpt lat="44.32529" lon="3.68591">
        <ele>1072.8000488281</ele>
        <time>2022-06-29T12:17:26.000Z</time>
      </trkpt>
      <trkpt lat="44.32529" lon="3.68591">
        <ele>1072.5999755859</ele>
        <time>2022-06-29T12:17:27.000Z</time>
      </trkpt>
      <trkpt lat="44.32529" lon="3.68591">
        <ele>1072.1999511719</ele>
        <time>2022-06-29T12:17:33.000Z</time>
      </trkpt>
      <trkpt lat="44.32529" lon="3.68591">
        <ele>1072.1999511719</ele>
        <time>2022-06-29T12:17:37.000Z</time>
      </trkpt>
      <trkpt lat="44.32529" lon="3.68591">
        <ele>1072</ele>
        <time>2022-06-29T12:17:43.000Z</time>
      </trkpt>
      <trkpt lat="44.32529" lon="3.68592">
        <ele>1071.8000488281</ele>
        <time>2022-06-29T12:17:49.000Z</time>
      </trkpt>
      <trkpt lat="44.32529" lon="3.68592">
        <ele>1071.5999755859</ele>
        <time>2022-06-29T12:17:52.000Z</time>
      </trkpt>
      <trkpt lat="44.32529" lon="3.68592">
        <ele>1071.5999755859</ele>
        <time>2022-06-29T12:17:53.000Z</time>
      </trkpt>
      <trkpt lat="44.32529" lon="3.68592">
        <ele>1071.4000244141</ele>
        <time>2022-06-29T12:17:59.000Z</time>
      </trkpt>
      <trkpt lat="44.32529" lon="3.68593">
        <ele>1071.5999755859</ele>
        <time>2022-06-29T12:18:03.000Z</time>
      </trkpt>
      <trkpt lat="44.32528" lon="3.68593">
        <ele>1071.1999511719</ele>
        <time>2022-06-29T12:18:08.000Z</time>
      </trkpt>
      <trkpt lat="44.32527" lon="3.68593">
        <ele>1070.5999755859</ele>
        <time>2022-06-29T12:18:14.000Z</time>
      </trkpt>
      <trkpt lat="44.32525" lon="3.68596">
        <ele>1070.5999755859</ele>
        <time>2022-06-29T12:18:17.000Z</time>
      </trkpt>
      <trkpt lat="44.32523" lon="3.68603">
        <ele>1070.4000244141</ele>
        <time>2022-06-29T12:18:23.000Z</time>
      </trkpt>
      <trkpt lat="44.32519" lon="3.68609">
        <ele>1070.1999511719</ele>
        <time>2022-06-29T12:18:28.000Z</time>
      </trkpt>
      <trkpt lat="44.32515" lon="3.68617">
        <ele>1070.5999755859</ele>
        <time>2022-06-29T12:18:34.000Z</time>
      </trkpt>
      <trkpt lat="44.32513" lon="3.68624">
        <ele>1070.4000244141</ele>
        <time>2022-06-29T12:18:39.000Z</time>
      </trkpt>
      <trkpt lat="44.32511" lon="3.6863">
        <ele>1070.4000244141</ele>
        <time>2022-06-29T12:18:43.000Z</time>
      </trkpt>
      <trkpt lat="44.32508" lon="3.68637">
        <ele>1070.5999755859</ele>
        <time>2022-06-29T12:18:49.000Z</time>
      </trkpt>
      <trkpt lat="44.32505" lon="3.68645">
        <ele>1070.5999755859</ele>
        <time>2022-06-29T12:18:55.000Z</time>
      </trkpt>
      <trkpt lat="44.32504" lon="3.68648">
        <ele>1070.5999755859</ele>
        <time>2022-06-29T12:18:57.000Z</time>
      </trkpt>
      <trkpt lat="44.32499" lon="3.68653">
        <ele>1070.5999755859</ele>
        <time>2022-06-29T12:19:03.000Z</time>
      </trkpt>
      <trkpt lat="44.32496" lon="3.68659">
        <ele>1070.8000488281</ele>
        <time>2022-06-29T12:19:07.000Z</time>
      </trkpt>
      <trkpt lat="44.32494" lon="3.68663">
        <ele>1070.8000488281</ele>
        <time>2022-06-29T12:19:10.000Z</time>
      </trkpt>
      <trkpt lat="44.32491" lon="3.68671">
        <ele>1070.8000488281</ele>
        <time>2022-06-29T12:19:16.000Z</time>
      </trkpt>
      <trkpt lat="44.32489" lon="3.6868">
        <ele>1071</ele>
        <time>2022-06-29T12:19:22.000Z</time>
      </trkpt>
      <trkpt lat="44.32488" lon="3.68685">
        <ele>1070.8000488281</ele>
        <time>2022-06-29T12:19:26.000Z</time>
      </trkpt>
      <trkpt lat="44.32487" lon="3.68687">
        <ele>1070.8000488281</ele>
        <time>2022-06-29T12:19:27.000Z</time>
      </trkpt>
      <trkpt lat="44.32485" lon="3.68691">
        <ele>1071</ele>
        <time>2022-06-29T12:19:30.000Z</time>
      </trkpt>
      <trkpt lat="44.32483" lon="3.68695">
        <ele>1071.4000244141</ele>
        <time>2022-06-29T12:19:33.000Z</time>
      </trkpt>
      <trkpt lat="44.32481" lon="3.68702">
        <ele>1071.5999755859</ele>
        <time>2022-06-29T12:19:38.000Z</time>
      </trkpt>
      <trkpt lat="44.32479" lon="3.68709">
        <ele>1071.4000244141</ele>
        <time>2022-06-29T12:19:43.000Z</time>
      </trkpt>
      <trkpt lat="44.32477" lon="3.68713">
        <ele>1071.5999755859</ele>
        <time>2022-06-29T12:19:46.000Z</time>
      </trkpt>
      <trkpt lat="44.32477" lon="3.68714">
        <ele>1071.5999755859</ele>
        <time>2022-06-29T12:19:47.000Z</time>
      </trkpt>
      <trkpt lat="44.32475" lon="3.68719">
        <ele>1071.5999755859</ele>
        <time>2022-06-29T12:19:50.000Z</time>
      </trkpt>
      <trkpt lat="44.32475" lon="3.6872">
        <ele>1071.5999755859</ele>
        <time>2022-06-29T12:19:51.000Z</time>
      </trkpt>
      <trkpt lat="44.32475" lon="3.68723">
        <ele>1071.5999755859</ele>
        <time>2022-06-29T12:19:53.000Z</time>
      </trkpt>
      <trkpt lat="44.32473" lon="3.68732">
        <ele>1071.4000244141</ele>
        <time>2022-06-29T12:19:59.000Z</time>
      </trkpt>
      <trkpt lat="44.32472" lon="3.68741">
        <ele>1071</ele>
        <time>2022-06-29T12:20:05.000Z</time>
      </trkpt>
      <trkpt lat="44.32471" lon="3.6875">
        <ele>1071.1999511719</ele>
        <time>2022-06-29T12:20:11.000Z</time>
      </trkpt>
      <trkpt lat="44.32471" lon="3.68751">
        <ele>1071.1999511719</ele>
        <time>2022-06-29T12:20:12.000Z</time>
      </trkpt>
      <trkpt lat="44.32471" lon="3.68753">
        <ele>1071.1999511719</ele>
        <time>2022-06-29T12:20:13.000Z</time>
      </trkpt>
      <trkpt lat="44.3247" lon="3.68762">
        <ele>1071</ele>
        <time>2022-06-29T12:20:19.000Z</time>
      </trkpt>
      <trkpt lat="44.3247" lon="3.68763">
        <ele>1071</ele>
        <time>2022-06-29T12:20:20.000Z</time>
      </trkpt>
      <trkpt lat="44.32468" lon="3.68772">
        <ele>1070.8000488281</ele>
        <time>2022-06-29T12:20:26.000Z</time>
      </trkpt>
      <trkpt lat="44.32467" lon="3.6878">
        <ele>1071.1999511719</ele>
        <time>2022-06-29T12:20:31.000Z</time>
      </trkpt>
      <trkpt lat="44.32466" lon="3.68787">
        <ele>1071.1999511719</ele>
        <time>2022-06-29T12:20:35.000Z</time>
      </trkpt>
      <trkpt lat="44.32464" lon="3.68794">
        <ele>1071.4000244141</ele>
        <time>2022-06-29T12:20:40.000Z</time>
      </trkpt>
      <trkpt lat="44.32463" lon="3.68801">
        <ele>1071.1999511719</ele>
        <time>2022-06-29T12:20:44.000Z</time>
      </trkpt>
      <trkpt lat="44.32461" lon="3.6881">
        <ele>1070.5999755859</ele>
        <time>2022-06-29T12:20:50.000Z</time>
      </trkpt>
      <trkpt lat="44.3246" lon="3.68811">
        <ele>1070.5999755859</ele>
        <time>2022-06-29T12:20:51.000Z</time>
      </trkpt>
      <trkpt lat="44.32458" lon="3.68821">
        <ele>1070.5999755859</ele>
        <time>2022-06-29T12:20:57.000Z</time>
      </trkpt>
      <trkpt lat="44.32457" lon="3.68825">
        <ele>1070.5999755859</ele>
        <time>2022-06-29T12:21:00.000Z</time>
      </trkpt>
      <trkpt lat="44.32457" lon="3.68829">
        <ele>1070.4000244141</ele>
        <time>2022-06-29T12:21:03.000Z</time>
      </trkpt>
      <trkpt lat="44.32457" lon="3.68832">
        <ele>1070.5999755859</ele>
        <time>2022-06-29T12:21:05.000Z</time>
      </trkpt>
      <trkpt lat="44.32457" lon="3.68835">
        <ele>1070.4000244141</ele>
        <time>2022-06-29T12:21:07.000Z</time>
      </trkpt>
      <trkpt lat="44.32456" lon="3.68844">
        <ele>1070.4000244141</ele>
        <time>2022-06-29T12:21:13.000Z</time>
      </trkpt>
      <trkpt lat="44.32456" lon="3.68849">
        <ele>1070.4000244141</ele>
        <time>2022-06-29T12:21:16.000Z</time>
      </trkpt>
      <trkpt lat="44.32455" lon="3.68857">
        <ele>1070.4000244141</ele>
        <time>2022-06-29T12:21:22.000Z</time>
      </trkpt>
      <trkpt lat="44.32454" lon="3.68867">
        <ele>1070.1999511719</ele>
        <time>2022-06-29T12:21:28.000Z</time>
      </trkpt>
      <trkpt lat="44.32454" lon="3.68868">
        <ele>1070.4000244141</ele>
        <time>2022-06-29T12:21:29.000Z</time>
      </trkpt>
      <trkpt lat="44.32453" lon="3.68877">
        <ele>1070.4000244141</ele>
        <time>2022-06-29T12:21:35.000Z</time>
      </trkpt>
      <trkpt lat="44.32453" lon="3.68886">
        <ele>1070.4000244141</ele>
        <time>2022-06-29T12:21:41.000Z</time>
      </trkpt>
      <trkpt lat="44.32453" lon="3.68891">
        <ele>1070.1999511719</ele>
        <time>2022-06-29T12:21:44.000Z</time>
      </trkpt>
      <trkpt lat="44.32454" lon="3.68895">
        <ele>1070.1999511719</ele>
        <time>2022-06-29T12:21:47.000Z</time>
      </trkpt>
      <trkpt lat="44.32454" lon="3.68898">
        <ele>1070.1999511719</ele>
        <time>2022-06-29T12:21:49.000Z</time>
      </trkpt>
      <trkpt lat="44.32455" lon="3.68903">
        <ele>1070</ele>
        <time>2022-06-29T12:21:53.000Z</time>
      </trkpt>
      <trkpt lat="44.32455" lon="3.68906">
        <ele>1070</ele>
        <time>2022-06-29T12:21:55.000Z</time>
      </trkpt>
      <trkpt lat="44.32456" lon="3.68908">
        <ele>1070</ele>
        <time>2022-06-29T12:21:56.000Z</time>
      </trkpt>
      <trkpt lat="44.32456" lon="3.68909">
        <ele>1070</ele>
        <time>2022-06-29T12:21:57.000Z</time>
      </trkpt>
      <trkpt lat="44.32456" lon="3.68912">
        <ele>1070</ele>
        <time>2022-06-29T12:21:59.000Z</time>
      </trkpt>
      <trkpt lat="44.32458" lon="3.68917">
        <ele>1069.8000488281</ele>
        <time>2022-06-29T12:22:03.000Z</time>
      </trkpt>
      <trkpt lat="44.32459" lon="3.68919">
        <ele>1069.8000488281</ele>
        <time>2022-06-29T12:22:05.000Z</time>
      </trkpt>
      <trkpt lat="44.32459" lon="3.6892">
        <ele>1069.8000488281</ele>
        <time>2022-06-29T12:22:06.000Z</time>
      </trkpt>
      <trkpt lat="44.32461" lon="3.68929">
        <ele>1070.4000244141</ele>
        <time>2022-06-29T12:22:12.000Z</time>
      </trkpt>
      <trkpt lat="44.32462" lon="3.68932">
        <ele>1070.4000244141</ele>
        <time>2022-06-29T12:22:14.000Z</time>
      </trkpt>
      <trkpt lat="44.32464" lon="3.68936">
        <ele>1070.1999511719</ele>
        <time>2022-06-29T12:22:17.000Z</time>
      </trkpt>
      <trkpt lat="44.32464" lon="3.68937">
        <ele>1070.1999511719</ele>
        <time>2022-06-29T12:22:18.000Z</time>
      </trkpt>
      <trkpt lat="44.32465" lon="3.68942">
        <ele>1070.1999511719</ele>
        <time>2022-06-29T12:22:22.000Z</time>
      </trkpt>
      <trkpt lat="44.32467" lon="3.68948">
        <ele>1070</ele>
        <time>2022-06-29T12:22:26.000Z</time>
      </trkpt>
      <trkpt lat="44.32467" lon="3.68955">
        <ele>1069.8000488281</ele>
        <time>2022-06-29T12:22:31.000Z</time>
      </trkpt>
      <trkpt lat="44.32468" lon="3.68957">
        <ele>1069.8000488281</ele>
        <time>2022-06-29T12:22:32.000Z</time>
      </trkpt>
      <trkpt lat="44.32468" lon="3.68961">
        <ele>1069.5999755859</ele>
        <time>2022-06-29T12:22:34.000Z</time>
      </trkpt>
      <trkpt lat="44.32469" lon="3.68966">
        <ele>1069.1999511719</ele>
        <time>2022-06-29T12:22:38.000Z</time>
      </trkpt>
      <trkpt lat="44.32469" lon="3.68967">
        <ele>1069.1999511719</ele>
        <time>2022-06-29T12:22:39.000Z</time>
      </trkpt>
      <trkpt lat="44.3247" lon="3.68975">
        <ele>1069.1999511719</ele>
        <time>2022-06-29T12:22:45.000Z</time>
      </trkpt>
      <trkpt lat="44.32469" lon="3.68983">
        <ele>1069.1999511719</ele>
        <time>2022-06-29T12:22:49.000Z</time>
      </trkpt>
      <trkpt lat="44.3247" lon="3.68992">
        <ele>1069.4000244141</ele>
        <time>2022-06-29T12:22:55.000Z</time>
      </trkpt>
      <trkpt lat="44.3247" lon="3.68994">
        <ele>1069.4000244141</ele>
        <time>2022-06-29T12:22:56.000Z</time>
      </trkpt>
      <trkpt lat="44.32472" lon="3.69003">
        <ele>1069.8000488281</ele>
        <time>2022-06-29T12:23:02.000Z</time>
      </trkpt>
      <trkpt lat="44.32473" lon="3.69004">
        <ele>1069.8000488281</ele>
        <time>2022-06-29T12:23:03.000Z</time>
      </trkpt>
      <trkpt lat="44.32473" lon="3.69013">
        <ele>1069.8000488281</ele>
        <time>2022-06-29T12:23:09.000Z</time>
      </trkpt>
      <trkpt lat="44.32474" lon="3.69018">
        <ele>1069.4000244141</ele>
        <time>2022-06-29T12:23:12.000Z</time>
      </trkpt>
      <trkpt lat="44.32474" lon="3.69028">
        <ele>1068.8000488281</ele>
        <time>2022-06-29T12:23:18.000Z</time>
      </trkpt>
      <trkpt lat="44.32474" lon="3.69031">
        <ele>1068.4000244141</ele>
        <time>2022-06-29T12:23:20.000Z</time>
      </trkpt>
      <trkpt lat="44.32474" lon="3.69033">
        <ele>1068.1999511719</ele>
        <time>2022-06-29T12:23:21.000Z</time>
      </trkpt>
      <trkpt lat="44.32475" lon="3.69039">
        <ele>1068</ele>
        <time>2022-06-29T12:23:25.000Z</time>
      </trkpt>
      <trkpt lat="44.32476" lon="3.69048">
        <ele>1067.5999755859</ele>
        <time>2022-06-29T12:23:31.000Z</time>
      </trkpt>
      <trkpt lat="44.32477" lon="3.69058">
        <ele>1067.4000244141</ele>
        <time>2022-06-29T12:23:37.000Z</time>
      </trkpt>
      <trkpt lat="44.32476" lon="3.69061">
        <ele>1067.5999755859</ele>
        <time>2022-06-29T12:23:39.000Z</time>
      </trkpt>
      <trkpt lat="44.32476" lon="3.69067">
        <ele>1067.8000488281</ele>
        <time>2022-06-29T12:23:43.000Z</time>
      </trkpt>
      <trkpt lat="44.32477" lon="3.69073">
        <ele>1067.8000488281</ele>
        <time>2022-06-29T12:23:47.000Z</time>
      </trkpt>
      <trkpt lat="44.32477" lon="3.69074">
        <ele>1068</ele>
        <time>2022-06-29T12:23:48.000Z</time>
      </trkpt>
      <trkpt lat="44.32477" lon="3.69082">
        <ele>1069.1999511719</ele>
        <time>2022-06-29T12:23:54.000Z</time>
      </trkpt>
      <trkpt lat="44.32477" lon="3.69084">
        <ele>1069.4000244141</ele>
        <time>2022-06-29T12:23:55.000Z</time>
      </trkpt>
      <trkpt lat="44.32475" lon="3.69093">
        <ele>1069</ele>
        <time>2022-06-29T12:24:01.000Z</time>
      </trkpt>
      <trkpt lat="44.32476" lon="3.69096">
        <ele>1069</ele>
        <time>2022-06-29T12:24:03.000Z</time>
      </trkpt>
      <trkpt lat="44.32476" lon="3.69097">
        <ele>1069</ele>
        <time>2022-06-29T12:24:04.000Z</time>
      </trkpt>
      <trkpt lat="44.32476" lon="3.69098">
        <ele>1068.8000488281</ele>
        <time>2022-06-29T12:24:05.000Z</time>
      </trkpt>
      <trkpt lat="44.32476" lon="3.691">
        <ele>1068.5999755859</ele>
        <time>2022-06-29T12:24:06.000Z</time>
      </trkpt>
      <trkpt lat="44.32476" lon="3.69101">
        <ele>1068.4000244141</ele>
        <time>2022-06-29T12:24:07.000Z</time>
      </trkpt>
      <trkpt lat="44.32476" lon="3.6911">
        <ele>1067.5999755859</ele>
        <time>2022-06-29T12:24:12.000Z</time>
      </trkpt>
      <trkpt lat="44.32475" lon="3.69119">
        <ele>1067.5999755859</ele>
        <time>2022-06-29T12:24:18.000Z</time>
      </trkpt>
      <trkpt lat="44.32475" lon="3.69124">
        <ele>1068</ele>
        <time>2022-06-29T12:24:21.000Z</time>
      </trkpt>
      <trkpt lat="44.32474" lon="3.69127">
        <ele>1068.4000244141</ele>
        <time>2022-06-29T12:24:23.000Z</time>
      </trkpt>
      <trkpt lat="44.32474" lon="3.69128">
        <ele>1068.5999755859</ele>
        <time>2022-06-29T12:24:24.000Z</time>
      </trkpt>
      <trkpt lat="44.32472" lon="3.69134">
        <ele>1068.5999755859</ele>
        <time>2022-06-29T12:24:29.000Z</time>
      </trkpt>
      <trkpt lat="44.32471" lon="3.69135">
        <ele>1068.8000488281</ele>
        <time>2022-06-29T12:24:30.000Z</time>
      </trkpt>
      <trkpt lat="44.32471" lon="3.69137">
        <ele>1068.8000488281</ele>
        <time>2022-06-29T12:24:31.000Z</time>
      </trkpt>
      <trkpt lat="44.32469" lon="3.69139">
        <ele>1068.5999755859</ele>
        <time>2022-06-29T12:24:33.000Z</time>
      </trkpt>
      <trkpt lat="44.32468" lon="3.69143">
        <ele>1068.5999755859</ele>
        <time>2022-06-29T12:24:36.000Z</time>
      </trkpt>
      <trkpt lat="44.32467" lon="3.69149">
        <ele>1068.1999511719</ele>
        <time>2022-06-29T12:24:40.000Z</time>
      </trkpt>
      <trkpt lat="44.32466" lon="3.69156">
        <ele>1067</ele>
        <time>2022-06-29T12:24:45.000Z</time>
      </trkpt>
      <trkpt lat="44.32465" lon="3.69161">
        <ele>1066.5999755859</ele>
        <time>2022-06-29T12:24:48.000Z</time>
      </trkpt>
      <trkpt lat="44.32465" lon="3.69162">
        <ele>1066.5999755859</ele>
        <time>2022-06-29T12:24:49.000Z</time>
      </trkpt>
      <trkpt lat="44.32465" lon="3.69164">
        <ele>1066.4000244141</ele>
        <time>2022-06-29T12:24:50.000Z</time>
      </trkpt>
      <trkpt lat="44.32464" lon="3.6917">
        <ele>1066</ele>
        <time>2022-06-29T12:24:54.000Z</time>
      </trkpt>
      <trkpt lat="44.32462" lon="3.69178">
        <ele>1065</ele>
        <time>2022-06-29T12:24:59.000Z</time>
      </trkpt>
      <trkpt lat="44.32462" lon="3.6918">
        <ele>1064.8000488281</ele>
        <time>2022-06-29T12:25:00.000Z</time>
      </trkpt>
      <trkpt lat="44.32455" lon="3.69187">
        <ele>1064</ele>
        <time>2022-06-29T12:25:06.000Z</time>
      </trkpt>
      <trkpt lat="44.32454" lon="3.69188">
        <ele>1063.8000488281</ele>
        <time>2022-06-29T12:25:07.000Z</time>
      </trkpt>
      <trkpt lat="44.3245" lon="3.69196">
        <ele>1063.1999511719</ele>
        <time>2022-06-29T12:25:13.000Z</time>
      </trkpt>
      <trkpt lat="44.32447" lon="3.69199">
        <ele>1063</ele>
        <time>2022-06-29T12:25:16.000Z</time>
      </trkpt>
      <trkpt lat="44.32445" lon="3.69201">
        <ele>1062.8000488281</ele>
        <time>2022-06-29T12:25:18.000Z</time>
      </trkpt>
      <trkpt lat="44.32441" lon="3.69208">
        <ele>1062.4000244141</ele>
        <time>2022-06-29T12:25:24.000Z</time>
      </trkpt>
      <trkpt lat="44.32441" lon="3.69209">
        <ele>1062.4000244141</ele>
        <time>2022-06-29T12:25:25.000Z</time>
      </trkpt>
      <trkpt lat="44.32435" lon="3.69215">
        <ele>1062.5999755859</ele>
        <time>2022-06-29T12:25:31.000Z</time>
      </trkpt>
      <trkpt lat="44.32432" lon="3.69218">
        <ele>1062.5999755859</ele>
        <time>2022-06-29T12:25:34.000Z</time>
      </trkpt>
      <trkpt lat="44.32427" lon="3.69224">
        <ele>1062.4000244141</ele>
        <time>2022-06-29T12:25:40.000Z</time>
      </trkpt>
      <trkpt lat="44.32426" lon="3.69229">
        <ele>1062.1999511719</ele>
        <time>2022-06-29T12:25:43.000Z</time>
      </trkpt>
      <trkpt lat="44.32423" lon="3.69235">
        <ele>1061.5999755859</ele>
        <time>2022-06-29T12:25:48.000Z</time>
      </trkpt>
      <trkpt lat="44.32421" lon="3.6924">
        <ele>1061.1999511719</ele>
        <time>2022-06-29T12:25:52.000Z</time>
      </trkpt>
      <trkpt lat="44.32421" lon="3.69246">
        <ele>1060.5999755859</ele>
        <time>2022-06-29T12:25:56.000Z</time>
      </trkpt>
      <trkpt lat="44.32421" lon="3.69252">
        <ele>1059.5999755859</ele>
        <time>2022-06-29T12:26:00.000Z</time>
      </trkpt>
      <trkpt lat="44.32421" lon="3.69254">
        <ele>1059.5999755859</ele>
        <time>2022-06-29T12:26:01.000Z</time>
      </trkpt>
      <trkpt lat="44.32421" lon="3.69264">
        <ele>1058.8000488281</ele>
        <time>2022-06-29T12:26:07.000Z</time>
      </trkpt>
      <trkpt lat="44.32422" lon="3.69266">
        <ele>1058.8000488281</ele>
        <time>2022-06-29T12:26:08.000Z</time>
      </trkpt>
      <trkpt lat="44.32421" lon="3.6927">
        <ele>1058.4000244141</ele>
        <time>2022-06-29T12:26:11.000Z</time>
      </trkpt>
      <trkpt lat="44.32421" lon="3.69281">
        <ele>1058.1999511719</ele>
        <time>2022-06-29T12:26:17.000Z</time>
      </trkpt>
      <trkpt lat="44.32422" lon="3.69291">
        <ele>1058.1999511719</ele>
        <time>2022-06-29T12:26:23.000Z</time>
      </trkpt>
      <trkpt lat="44.32422" lon="3.69293">
        <ele>1058</ele>
        <time>2022-06-29T12:26:24.000Z</time>
      </trkpt>
      <trkpt lat="44.32422" lon="3.69302">
        <ele>1057.5999755859</ele>
        <time>2022-06-29T12:26:30.000Z</time>
      </trkpt>
      <trkpt lat="44.32422" lon="3.69304">
        <ele>1057.5999755859</ele>
        <time>2022-06-29T12:26:31.000Z</time>
      </trkpt>
      <trkpt lat="44.32421" lon="3.6931">
        <ele>1057.5999755859</ele>
        <time>2022-06-29T12:26:35.000Z</time>
      </trkpt>
      <trkpt lat="44.32421" lon="3.69311">
        <ele>1057.4000244141</ele>
        <time>2022-06-29T12:26:36.000Z</time>
      </trkpt>
      <trkpt lat="44.32418" lon="3.69321">
        <ele>1057.1999511719</ele>
        <time>2022-06-29T12:26:42.000Z</time>
      </trkpt>
      <trkpt lat="44.32417" lon="3.69325">
        <ele>1057</ele>
        <time>2022-06-29T12:26:44.000Z</time>
      </trkpt>
      <trkpt lat="44.32416" lon="3.69328">
        <ele>1057</ele>
        <time>2022-06-29T12:26:46.000Z</time>
      </trkpt>
      <trkpt lat="44.32412" lon="3.69334">
        <ele>1057</ele>
        <time>2022-06-29T12:26:52.000Z</time>
      </trkpt>
      <trkpt lat="44.32408" lon="3.69338">
        <ele>1057</ele>
        <time>2022-06-29T12:26:58.000Z</time>
      </trkpt>
      <trkpt lat="44.32406" lon="3.6934">
        <ele>1057</ele>
        <time>2022-06-29T12:27:00.000Z</time>
      </trkpt>
      <trkpt lat="44.324" lon="3.69347">
        <ele>1057</ele>
        <time>2022-06-29T12:27:06.000Z</time>
      </trkpt>
      <trkpt lat="44.324" lon="3.69349">
        <ele>1057</ele>
        <time>2022-06-29T12:27:07.000Z</time>
      </trkpt>
      <trkpt lat="44.32394" lon="3.69354">
        <ele>1057</ele>
        <time>2022-06-29T12:27:13.000Z</time>
      </trkpt>
      <trkpt lat="44.32388" lon="3.6936">
        <ele>1057</ele>
        <time>2022-06-29T12:27:19.000Z</time>
      </trkpt>
      <trkpt lat="44.32386" lon="3.69362">
        <ele>1057</ele>
        <time>2022-06-29T12:27:21.000Z</time>
      </trkpt>
      <trkpt lat="44.3238" lon="3.69367">
        <ele>1056.8000488281</ele>
        <time>2022-06-29T12:27:27.000Z</time>
      </trkpt>
      <trkpt lat="44.32379" lon="3.69369">
        <ele>1056.8000488281</ele>
        <time>2022-06-29T12:27:29.000Z</time>
      </trkpt>
      <trkpt lat="44.32373" lon="3.69373">
        <ele>1057.1999511719</ele>
        <time>2022-06-29T12:27:35.000Z</time>
      </trkpt>
      <trkpt lat="44.32371" lon="3.69376">
        <ele>1057.1999511719</ele>
        <time>2022-06-29T12:27:38.000Z</time>
      </trkpt>
      <trkpt lat="44.32365" lon="3.69381">
        <ele>1057.1999511719</ele>
        <time>2022-06-29T12:27:44.000Z</time>
      </trkpt>
      <trkpt lat="44.32364" lon="3.69383">
        <ele>1057.1999511719</ele>
        <time>2022-06-29T12:27:45.000Z</time>
      </trkpt>
      <trkpt lat="44.32363" lon="3.69384">
        <ele>1057.1999511719</ele>
        <time>2022-06-29T12:27:46.000Z</time>
      </trkpt>
      <trkpt lat="44.3236" lon="3.6939">
        <ele>1057.1999511719</ele>
        <time>2022-06-29T12:27:52.000Z</time>
      </trkpt>
      <trkpt lat="44.32361" lon="3.69392">
        <ele>1057</ele>
        <time>2022-06-29T12:27:54.000Z</time>
      </trkpt>
      <trkpt lat="44.32361" lon="3.69395">
        <ele>1056.8000488281</ele>
        <time>2022-06-29T12:27:56.000Z</time>
      </trkpt>
      <trkpt lat="44.32363" lon="3.69401">
        <ele>1056.4000244141</ele>
        <time>2022-06-29T12:27:59.000Z</time>
      </trkpt>
      <trkpt lat="44.32367" lon="3.69408">
        <ele>1056.5999755859</ele>
        <time>2022-06-29T12:28:03.000Z</time>
      </trkpt>
      <trkpt lat="44.32371" lon="3.69419">
        <ele>1056.5999755859</ele>
        <time>2022-06-29T12:28:09.000Z</time>
      </trkpt>
      <trkpt lat="44.32372" lon="3.69423">
        <ele>1056.5999755859</ele>
        <time>2022-06-29T12:28:11.000Z</time>
      </trkpt>
      <trkpt lat="44.32372" lon="3.69426">
        <ele>1056.5999755859</ele>
        <time>2022-06-29T12:28:13.000Z</time>
      </trkpt>
      <trkpt lat="44.32373" lon="3.69434">
        <ele>1056.1999511719</ele>
        <time>2022-06-29T12:28:18.000Z</time>
      </trkpt>
      <trkpt lat="44.32373" lon="3.69442">
        <ele>1056</ele>
        <time>2022-06-29T12:28:24.000Z</time>
      </trkpt>
      <trkpt lat="44.32373" lon="3.69445">
        <ele>1055.8000488281</ele>
        <time>2022-06-29T12:28:27.000Z</time>
      </trkpt>
      <trkpt lat="44.32374" lon="3.69448">
        <ele>1055.8000488281</ele>
        <time>2022-06-29T12:28:29.000Z</time>
      </trkpt>
      <trkpt lat="44.32377" lon="3.69453">
        <ele>1055.5999755859</ele>
        <time>2022-06-29T12:28:33.000Z</time>
      </trkpt>
      <trkpt lat="44.32379" lon="3.69457">
        <ele>1055.5999755859</ele>
        <time>2022-06-29T12:28:35.000Z</time>
      </trkpt>
      <trkpt lat="44.32382" lon="3.69461">
        <ele>1055.4000244141</ele>
        <time>2022-06-29T12:28:38.000Z</time>
      </trkpt>
      <trkpt lat="44.32384" lon="3.69466">
        <ele>1055</ele>
        <time>2022-06-29T12:28:42.000Z</time>
      </trkpt>
      <trkpt lat="44.32385" lon="3.69468">
        <ele>1055.1999511719</ele>
        <time>2022-06-29T12:28:43.000Z</time>
      </trkpt>
      <trkpt lat="44.32385" lon="3.69469">
        <ele>1055</ele>
        <time>2022-06-29T12:28:44.000Z</time>
      </trkpt>
      <trkpt lat="44.32385" lon="3.69475">
        <ele>1055</ele>
        <time>2022-06-29T12:28:48.000Z</time>
      </trkpt>
      <trkpt lat="44.32386" lon="3.69477">
        <ele>1055</ele>
        <time>2022-06-29T12:28:49.000Z</time>
      </trkpt>
      <trkpt lat="44.32386" lon="3.69482">
        <ele>1054.5999755859</ele>
        <time>2022-06-29T12:28:52.000Z</time>
      </trkpt>
      <trkpt lat="44.32385" lon="3.6949">
        <ele>1054.4000244141</ele>
        <time>2022-06-29T12:28:56.000Z</time>
      </trkpt>
      <trkpt lat="44.32385" lon="3.69494">
        <ele>1054.4000244141</ele>
        <time>2022-06-29T12:28:58.000Z</time>
      </trkpt>
      <trkpt lat="44.32386" lon="3.69504">
        <ele>1054.4000244141</ele>
        <time>2022-06-29T12:29:03.000Z</time>
      </trkpt>
      <trkpt lat="44.32387" lon="3.69514">
        <ele>1054.4000244141</ele>
        <time>2022-06-29T12:29:09.000Z</time>
      </trkpt>
      <trkpt lat="44.32386" lon="3.69517">
        <ele>1054.5999755859</ele>
        <time>2022-06-29T12:29:11.000Z</time>
      </trkpt>
      <trkpt lat="44.32386" lon="3.69518">
        <ele>1054.5999755859</ele>
        <time>2022-06-29T12:29:12.000Z</time>
      </trkpt>
      <trkpt lat="44.32386" lon="3.69522">
        <ele>1054.5999755859</ele>
        <time>2022-06-29T12:29:14.000Z</time>
      </trkpt>
      <trkpt lat="44.32384" lon="3.6953">
        <ele>1054.8000488281</ele>
        <time>2022-06-29T12:29:20.000Z</time>
      </trkpt>
      <trkpt lat="44.32383" lon="3.69531">
        <ele>1055</ele>
        <time>2022-06-29T12:29:21.000Z</time>
      </trkpt>
      <trkpt lat="44.32381" lon="3.69539">
        <ele>1055.1999511719</ele>
        <time>2022-06-29T12:29:27.000Z</time>
      </trkpt>
      <trkpt lat="44.32379" lon="3.69543">
        <ele>1055.4000244141</ele>
        <time>2022-06-29T12:29:30.000Z</time>
      </trkpt>
      <trkpt lat="44.32377" lon="3.69553">
        <ele>1056.1999511719</ele>
        <time>2022-06-29T12:29:36.000Z</time>
      </trkpt>
      <trkpt lat="44.32376" lon="3.69556">
        <ele>1056.4000244141</ele>
        <time>2022-06-29T12:29:38.000Z</time>
      </trkpt>
      <trkpt lat="44.32376" lon="3.69557">
        <ele>1056.5999755859</ele>
        <time>2022-06-29T12:29:39.000Z</time>
      </trkpt>
      <trkpt lat="44.32373" lon="3.69566">
        <ele>1057.5999755859</ele>
        <time>2022-06-29T12:29:45.000Z</time>
      </trkpt>
      <trkpt lat="44.32372" lon="3.69571">
        <ele>1057.8000488281</ele>
        <time>2022-06-29T12:29:48.000Z</time>
      </trkpt>
      <trkpt lat="44.3237" lon="3.69573">
        <ele>1057.8000488281</ele>
        <time>2022-06-29T12:29:50.000Z</time>
      </trkpt>
      <trkpt lat="44.32368" lon="3.69579">
        <ele>1057.8000488281</ele>
        <time>2022-06-29T12:29:55.000Z</time>
      </trkpt>
      <trkpt lat="44.32364" lon="3.69586">
        <ele>1057.1999511719</ele>
        <time>2022-06-29T12:30:01.000Z</time>
      </trkpt>
      <trkpt lat="44.32362" lon="3.69589">
        <ele>1057.1999511719</ele>
        <time>2022-06-29T12:30:04.000Z</time>
      </trkpt>
      <trkpt lat="44.32357" lon="3.69595">
        <ele>1057</ele>
        <time>2022-06-29T12:30:10.000Z</time>
      </trkpt>
      <trkpt lat="44.32354" lon="3.69598">
        <ele>1056.5999755859</ele>
        <time>2022-06-29T12:30:13.000Z</time>
      </trkpt>
      <trkpt lat="44.32354" lon="3.69599">
        <ele>1056.4000244141</ele>
        <time>2022-06-29T12:30:14.000Z</time>
      </trkpt>
      <trkpt lat="44.32351" lon="3.69604">
        <ele>1055.4000244141</ele>
        <time>2022-06-29T12:30:19.000Z</time>
      </trkpt>
      <trkpt lat="44.32348" lon="3.69608">
        <ele>1055</ele>
        <time>2022-06-29T12:30:23.000Z</time>
      </trkpt>
      <trkpt lat="44.32344" lon="3.69612">
        <ele>1054.4000244141</ele>
        <time>2022-06-29T12:30:27.000Z</time>
      </trkpt>
      <trkpt lat="44.32339" lon="3.69615">
        <ele>1053.8000488281</ele>
        <time>2022-06-29T12:30:32.000Z</time>
      </trkpt>
      <trkpt lat="44.32334" lon="3.69616">
        <ele>1053.4000244141</ele>
        <time>2022-06-29T12:30:36.000Z</time>
      </trkpt>
      <trkpt lat="44.32329" lon="3.69617">
        <ele>1052.8000488281</ele>
        <time>2022-06-29T12:30:40.000Z</time>
      </trkpt>
      <trkpt lat="44.32326" lon="3.69617">
        <ele>1052.1999511719</ele>
        <time>2022-06-29T12:30:43.000Z</time>
      </trkpt>
      <trkpt lat="44.32321" lon="3.6962">
        <ele>1051.5999755859</ele>
        <time>2022-06-29T12:30:49.000Z</time>
      </trkpt>
      <trkpt lat="44.32321" lon="3.6962">
        <ele>1051.4000244141</ele>
        <time>2022-06-29T12:30:50.000Z</time>
      </trkpt>
      <trkpt lat="44.3232" lon="3.69621">
        <ele>1051</ele>
        <time>2022-06-29T12:30:51.000Z</time>
      </trkpt>
      <trkpt lat="44.32316" lon="3.69627">
        <ele>1050</ele>
        <time>2022-06-29T12:30:57.000Z</time>
      </trkpt>
      <trkpt lat="44.32314" lon="3.69627">
        <ele>1049.8000488281</ele>
        <time>2022-06-29T12:30:58.000Z</time>
      </trkpt>
      <trkpt lat="44.32309" lon="3.69631">
        <ele>1048.8000488281</ele>
        <time>2022-06-29T12:31:03.000Z</time>
      </trkpt>
      <trkpt lat="44.32304" lon="3.69634">
        <ele>1048</ele>
        <time>2022-06-29T12:31:08.000Z</time>
      </trkpt>
      <trkpt lat="44.32301" lon="3.69635">
        <ele>1047.8000488281</ele>
        <time>2022-06-29T12:31:10.000Z</time>
      </trkpt>
      <trkpt lat="44.32296" lon="3.69639">
        <ele>1046.8000488281</ele>
        <time>2022-06-29T12:31:15.000Z</time>
      </trkpt>
      <trkpt lat="44.32293" lon="3.69641">
        <ele>1046.4000244141</ele>
        <time>2022-06-29T12:31:17.000Z</time>
      </trkpt>
      <trkpt lat="44.32288" lon="3.69647">
        <ele>1045.8000488281</ele>
        <time>2022-06-29T12:31:23.000Z</time>
      </trkpt>
      <trkpt lat="44.32288" lon="3.69648">
        <ele>1045.8000488281</ele>
        <time>2022-06-29T12:31:24.000Z</time>
      </trkpt>
      <trkpt lat="44.32286" lon="3.69648">
        <ele>1045.5999755859</ele>
        <time>2022-06-29T12:31:26.000Z</time>
      </trkpt>
      <trkpt lat="44.32282" lon="3.69654">
        <ele>1044.8000488281</ele>
        <time>2022-06-29T12:31:32.000Z</time>
      </trkpt>
      <trkpt lat="44.32282" lon="3.69655">
        <ele>1044.4000244141</ele>
        <time>2022-06-29T12:31:33.000Z</time>
      </trkpt>
      <trkpt lat="44.32281" lon="3.69658">
        <ele>1044.1999511719</ele>
        <time>2022-06-29T12:31:35.000Z</time>
      </trkpt>
      <trkpt lat="44.32281" lon="3.69662">
        <ele>1043.8000488281</ele>
        <time>2022-06-29T12:31:37.000Z</time>
      </trkpt>
      <trkpt lat="44.32279" lon="3.69669">
        <ele>1043.4000244141</ele>
        <time>2022-06-29T12:31:42.000Z</time>
      </trkpt>
      <trkpt lat="44.32278" lon="3.6967">
        <ele>1043.1999511719</ele>
        <time>2022-06-29T12:31:43.000Z</time>
      </trkpt>
      <trkpt lat="44.32278" lon="3.69671">
        <ele>1043</ele>
        <time>2022-06-29T12:31:44.000Z</time>
      </trkpt>
      <trkpt lat="44.32274" lon="3.69675">
        <ele>1042.1999511719</ele>
        <time>2022-06-29T12:31:48.000Z</time>
      </trkpt>
      <trkpt lat="44.32273" lon="3.69676">
        <ele>1042.1999511719</ele>
        <time>2022-06-29T12:31:49.000Z</time>
      </trkpt>
      <trkpt lat="44.32271" lon="3.69679">
        <ele>1041.8000488281</ele>
        <time>2022-06-29T12:31:52.000Z</time>
      </trkpt>
      <trkpt lat="44.32269" lon="3.69686">
        <ele>1041.1999511719</ele>
        <time>2022-06-29T12:31:57.000Z</time>
      </trkpt>
      <trkpt lat="44.32268" lon="3.69688">
        <ele>1041</ele>
        <time>2022-06-29T12:31:59.000Z</time>
      </trkpt>
      <trkpt lat="44.32267" lon="3.69689">
        <ele>1040.8000488281</ele>
        <time>2022-06-29T12:32:00.000Z</time>
      </trkpt>
      <trkpt lat="44.32265" lon="3.69693">
        <ele>1040.4000244141</ele>
        <time>2022-06-29T12:32:03.000Z</time>
      </trkpt>
      <trkpt lat="44.32264" lon="3.69694">
        <ele>1040.1999511719</ele>
        <time>2022-06-29T12:32:04.000Z</time>
      </trkpt>
      <trkpt lat="44.32264" lon="3.69696">
        <ele>1040</ele>
        <time>2022-06-29T12:32:06.000Z</time>
      </trkpt>
      <trkpt lat="44.32262" lon="3.69699">
        <ele>1039.8000488281</ele>
        <time>2022-06-29T12:32:08.000Z</time>
      </trkpt>
      <trkpt lat="44.32261" lon="3.697">
        <ele>1039.8000488281</ele>
        <time>2022-06-29T12:32:09.000Z</time>
      </trkpt>
      <trkpt lat="44.32259" lon="3.69702">
        <ele>1039.5999755859</ele>
        <time>2022-06-29T12:32:11.000Z</time>
      </trkpt>
      <trkpt lat="44.32256" lon="3.69706">
        <ele>1039.1999511719</ele>
        <time>2022-06-29T12:32:15.000Z</time>
      </trkpt>
      <trkpt lat="44.32255" lon="3.69707">
        <ele>1039.1999511719</ele>
        <time>2022-06-29T12:32:16.000Z</time>
      </trkpt>
      <trkpt lat="44.32252" lon="3.69716">
        <ele>1038.5999755859</ele>
        <time>2022-06-29T12:32:22.000Z</time>
      </trkpt>
      <trkpt lat="44.32251" lon="3.69718">
        <ele>1038.4000244141</ele>
        <time>2022-06-29T12:32:24.000Z</time>
      </trkpt>
      <trkpt lat="44.32247" lon="3.69727">
        <ele>1038.1999511719</ele>
        <time>2022-06-29T12:32:30.000Z</time>
      </trkpt>
      <trkpt lat="44.32245" lon="3.69733">
        <ele>1037.5999755859</ele>
        <time>2022-06-29T12:32:35.000Z</time>
      </trkpt>
      <trkpt lat="44.32244" lon="3.69736">
        <ele>1037.4000244141</ele>
        <time>2022-06-29T12:32:38.000Z</time>
      </trkpt>
      <trkpt lat="44.32243" lon="3.69739">
        <ele>1037</ele>
        <time>2022-06-29T12:32:40.000Z</time>
      </trkpt>
      <trkpt lat="44.32242" lon="3.69742">
        <ele>1037</ele>
        <time>2022-06-29T12:32:42.000Z</time>
      </trkpt>
      <trkpt lat="44.32242" lon="3.69743">
        <ele>1036.8000488281</ele>
        <time>2022-06-29T12:32:43.000Z</time>
      </trkpt>
      <trkpt lat="44.3224" lon="3.69752">
        <ele>1036.5999755859</ele>
        <time>2022-06-29T12:32:49.000Z</time>
      </trkpt>
      <trkpt lat="44.32238" lon="3.69756">
        <ele>1036.4000244141</ele>
        <time>2022-06-29T12:32:52.000Z</time>
      </trkpt>
      <trkpt lat="44.32237" lon="3.6976">
        <ele>1036</ele>
        <time>2022-06-29T12:32:55.000Z</time>
      </trkpt>
      <trkpt lat="44.32234" lon="3.69765">
        <ele>1035.8000488281</ele>
        <time>2022-06-29T12:32:59.000Z</time>
      </trkpt>
      <trkpt lat="44.32233" lon="3.69769">
        <ele>1035.4000244141</ele>
        <time>2022-06-29T12:33:02.000Z</time>
      </trkpt>
      <trkpt lat="44.3223" lon="3.69775">
        <ele>1034.8000488281</ele>
        <time>2022-06-29T12:33:07.000Z</time>
      </trkpt>
      <trkpt lat="44.32228" lon="3.69779">
        <ele>1034.1999511719</ele>
        <time>2022-06-29T12:33:11.000Z</time>
      </trkpt>
      <trkpt lat="44.32226" lon="3.69782">
        <ele>1034</ele>
        <time>2022-06-29T12:33:13.000Z</time>
      </trkpt>
      <trkpt lat="44.32225" lon="3.69784">
        <ele>1033.8000488281</ele>
        <time>2022-06-29T12:33:15.000Z</time>
      </trkpt>
      <trkpt lat="44.32224" lon="3.69785">
        <ele>1033.5999755859</ele>
        <time>2022-06-29T12:33:16.000Z</time>
      </trkpt>
      <trkpt lat="44.3222" lon="3.69788">
        <ele>1033</ele>
        <time>2022-06-29T12:33:21.000Z</time>
      </trkpt>
      <trkpt lat="44.32219" lon="3.69788">
        <ele>1032.8000488281</ele>
        <time>2022-06-29T12:33:22.000Z</time>
      </trkpt>
      <trkpt lat="44.32218" lon="3.69788">
        <ele>1032.8000488281</ele>
        <time>2022-06-29T12:33:23.000Z</time>
      </trkpt>
      <trkpt lat="44.32218" lon="3.69789">
        <ele>1032.5999755859</ele>
        <time>2022-06-29T12:33:24.000Z</time>
      </trkpt>
      <trkpt lat="44.32209" lon="3.69791">
        <ele>1032</ele>
        <time>2022-06-29T12:33:30.000Z</time>
      </trkpt>
      <trkpt lat="44.32207" lon="3.69793">
        <ele>1031.5999755859</ele>
        <time>2022-06-29T12:33:32.000Z</time>
      </trkpt>
      <trkpt lat="44.32205" lon="3.69795">
        <ele>1031.1999511719</ele>
        <time>2022-06-29T12:33:35.000Z</time>
      </trkpt>
      <trkpt lat="44.32204" lon="3.69796">
        <ele>1030.8000488281</ele>
        <time>2022-06-29T12:33:38.000Z</time>
      </trkpt>
      <trkpt lat="44.32205" lon="3.69796">
        <ele>1030.5999755859</ele>
        <time>2022-06-29T12:33:43.000Z</time>
      </trkpt>
      <trkpt lat="44.32205" lon="3.69796">
        <ele>1030.5999755859</ele>
        <time>2022-06-29T12:33:45.000Z</time>
      </trkpt>
      <trkpt lat="44.32206" lon="3.69796">
        <ele>1030.8000488281</ele>
        <time>2022-06-29T12:33:46.000Z</time>
      </trkpt>
      <trkpt lat="44.32206" lon="3.69797">
        <ele>1030.8000488281</ele>
        <time>2022-06-29T12:33:48.000Z</time>
      </trkpt>
      <trkpt lat="44.32207" lon="3.69798">
        <ele>1030.5999755859</ele>
        <time>2022-06-29T12:33:52.000Z</time>
      </trkpt>
      <trkpt lat="44.32207" lon="3.69798">
        <ele>1030.4000244141</ele>
        <time>2022-06-29T12:33:53.000Z</time>
      </trkpt>
      <trkpt lat="44.32208" lon="3.69798">
        <ele>1030.1999511719</ele>
        <time>2022-06-29T12:33:57.000Z</time>
      </trkpt>
      <trkpt lat="44.32209" lon="3.698">
        <ele>1030.1999511719</ele>
        <time>2022-06-29T12:34:00.000Z</time>
      </trkpt>
      <trkpt lat="44.32209" lon="3.69801">
        <ele>1030</ele>
        <time>2022-06-29T12:34:03.000Z</time>
      </trkpt>
      <trkpt lat="44.32209" lon="3.69801">
        <ele>1029.5999755859</ele>
        <time>2022-06-29T12:34:08.000Z</time>
      </trkpt>
      <trkpt lat="44.32209" lon="3.69801">
        <ele>1029.4000244141</ele>
        <time>2022-06-29T12:34:09.000Z</time>
      </trkpt>
      <trkpt lat="44.3221" lon="3.69802">
        <ele>1029.4000244141</ele>
        <time>2022-06-29T12:34:15.000Z</time>
      </trkpt>
      <trkpt lat="44.32212" lon="3.69803">
        <ele>1029.4000244141</ele>
        <time>2022-06-29T12:34:18.000Z</time>
      </trkpt>
      <trkpt lat="44.32211" lon="3.69802">
        <ele>1029.4000244141</ele>
        <time>2022-06-29T12:34:19.000Z</time>
      </trkpt>
      <trkpt lat="44.3221" lon="3.69802">
        <ele>1029.4000244141</ele>
        <time>2022-06-29T12:34:21.000Z</time>
      </trkpt>
      <trkpt lat="44.3221" lon="3.69801">
        <ele>1029.1999511719</ele>
        <time>2022-06-29T12:34:25.000Z</time>
      </trkpt>
      <trkpt lat="44.32209" lon="3.698">
        <ele>1029.1999511719</ele>
        <time>2022-06-29T12:34:26.000Z</time>
      </trkpt>
      <trkpt lat="44.32209" lon="3.69799">
        <ele>1029.1999511719</ele>
        <time>2022-06-29T12:34:27.000Z</time>
      </trkpt>
      <trkpt lat="44.32208" lon="3.69799">
        <ele>1029</ele>
        <time>2022-06-29T12:34:29.000Z</time>
      </trkpt>
      <trkpt lat="44.3221" lon="3.698">
        <ele>1029</ele>
        <time>2022-06-29T12:34:34.000Z</time>
      </trkpt>
      <trkpt lat="44.3221" lon="3.698">
        <ele>1029</ele>
        <time>2022-06-29T12:34:35.000Z</time>
      </trkpt>
      <trkpt lat="44.3221" lon="3.698">
        <ele>1029</ele>
        <time>2022-06-29T12:34:36.000Z</time>
      </trkpt>
      <trkpt lat="44.3221" lon="3.69802">
        <ele>1029</ele>
        <time>2022-06-29T12:34:39.000Z</time>
      </trkpt>
      <trkpt lat="44.32208" lon="3.69802">
        <ele>1029</ele>
        <time>2022-06-29T12:34:42.000Z</time>
      </trkpt>
      <trkpt lat="44.32212" lon="3.69805">
        <ele>1029.1999511719</ele>
        <time>2022-06-29T12:34:47.000Z</time>
      </trkpt>
      <trkpt lat="44.32212" lon="3.69805">
        <ele>1029.4000244141</ele>
        <time>2022-06-29T12:34:49.000Z</time>
      </trkpt>
      <trkpt lat="44.32213" lon="3.69805">
        <ele>1029.4000244141</ele>
        <time>2022-06-29T12:34:50.000Z</time>
      </trkpt>
      <trkpt lat="44.32217" lon="3.6981">
        <ele>1029.1999511719</ele>
        <time>2022-06-29T12:34:56.000Z</time>
      </trkpt>
      <trkpt lat="44.32219" lon="3.69811">
        <ele>1029.1999511719</ele>
        <time>2022-06-29T12:34:57.000Z</time>
      </trkpt>
      <trkpt lat="44.32217" lon="3.69817">
        <ele>1028.8000488281</ele>
        <time>2022-06-29T12:35:03.000Z</time>
      </trkpt>
      <trkpt lat="44.32214" lon="3.69818">
        <ele>1028.5999755859</ele>
        <time>2022-06-29T12:35:08.000Z</time>
      </trkpt>
      <trkpt lat="44.32213" lon="3.69819">
        <ele>1028.4000244141</ele>
        <time>2022-06-29T12:35:09.000Z</time>
      </trkpt>
      <trkpt lat="44.32212" lon="3.69819">
        <ele>1028.4000244141</ele>
        <time>2022-06-29T12:35:10.000Z</time>
      </trkpt>
      <trkpt lat="44.32208" lon="3.6982">
        <ele>1028.1999511719</ele>
        <time>2022-06-29T12:35:13.000Z</time>
      </trkpt>
      <trkpt lat="44.32201" lon="3.69821">
        <ele>1028.4000244141</ele>
        <time>2022-06-29T12:35:18.000Z</time>
      </trkpt>
      <trkpt lat="44.32198" lon="3.69821">
        <ele>1028.5999755859</ele>
        <time>2022-06-29T12:35:20.000Z</time>
      </trkpt>
      <trkpt lat="44.32191" lon="3.69822">
        <ele>1028.5999755859</ele>
        <time>2022-06-29T12:35:24.000Z</time>
      </trkpt>
      <trkpt lat="44.3219" lon="3.69822">
        <ele>1028.4000244141</ele>
        <time>2022-06-29T12:35:25.000Z</time>
      </trkpt>
      <trkpt lat="44.32188" lon="3.69823">
        <ele>1028.4000244141</ele>
        <time>2022-06-29T12:35:26.000Z</time>
      </trkpt>
      <trkpt lat="44.32184" lon="3.69825">
        <ele>1028.1999511719</ele>
        <time>2022-06-29T12:35:30.000Z</time>
      </trkpt>
      <trkpt lat="44.32183" lon="3.69827">
        <ele>1028.1999511719</ele>
        <time>2022-06-29T12:35:31.000Z</time>
      </trkpt>
      <trkpt lat="44.32182" lon="3.69829">
        <ele>1027.4000244141</ele>
        <time>2022-06-29T12:35:33.000Z</time>
      </trkpt>
      <trkpt lat="44.32181" lon="3.69833">
        <ele>1027.1999511719</ele>
        <time>2022-06-29T12:35:36.000Z</time>
      </trkpt>
      <trkpt lat="44.32176" lon="3.69837">
        <ele>1026.8000488281</ele>
        <time>2022-06-29T12:35:41.000Z</time>
      </trkpt>
      <trkpt lat="44.32171" lon="3.69843">
        <ele>1026.5999755859</ele>
        <time>2022-06-29T12:35:47.000Z</time>
      </trkpt>
      <trkpt lat="44.32169" lon="3.69842">
        <ele>1026.4000244141</ele>
        <time>2022-06-29T12:35:49.000Z</time>
      </trkpt>
      <trkpt lat="44.32169" lon="3.69843">
        <ele>1026.4000244141</ele>
        <time>2022-06-29T12:35:50.000Z</time>
      </trkpt>
      <trkpt lat="44.32169" lon="3.69843">
        <ele>1026.1999511719</ele>
        <time>2022-06-29T12:35:52.000Z</time>
      </trkpt>
      <trkpt lat="44.32169" lon="3.69843">
        <ele>1026.1999511719</ele>
        <time>2022-06-29T12:35:56.000Z</time>
      </trkpt>
      <trkpt lat="44.32168" lon="3.69845">
        <ele>1026</ele>
        <time>2022-06-29T12:35:59.000Z</time>
      </trkpt>
      <trkpt lat="44.32168" lon="3.69846">
        <ele>1025.8000488281</ele>
        <time>2022-06-29T12:36:00.000Z</time>
      </trkpt>
      <trkpt lat="44.32166" lon="3.6985">
        <ele>1025.5999755859</ele>
        <time>2022-06-29T12:36:04.000Z</time>
      </trkpt>
      <trkpt lat="44.32163" lon="3.6985">
        <ele>1025.5999755859</ele>
        <time>2022-06-29T12:36:06.000Z</time>
      </trkpt>
      <trkpt lat="44.32149" lon="3.69849">
        <ele>1025.5999755859</ele>
        <time>2022-06-29T12:36:12.000Z</time>
      </trkpt>
      <trkpt lat="44.32147" lon="3.69851">
        <ele>1025.5999755859</ele>
        <time>2022-06-29T12:36:15.000Z</time>
      </trkpt>
      <trkpt lat="44.32142" lon="3.69855">
        <ele>1025.8000488281</ele>
        <time>2022-06-29T12:36:21.000Z</time>
      </trkpt>
      <trkpt lat="44.32141" lon="3.69857">
        <ele>1025.4000244141</ele>
        <time>2022-06-29T12:36:23.000Z</time>
      </trkpt>
      <trkpt lat="44.32141" lon="3.69858">
        <ele>1025.1999511719</ele>
        <time>2022-06-29T12:36:24.000Z</time>
      </trkpt>
      <trkpt lat="44.32136" lon="3.69861">
        <ele>1024</ele>
        <time>2022-06-29T12:36:30.000Z</time>
      </trkpt>
      <trkpt lat="44.32134" lon="3.69861">
        <ele>1024</ele>
        <time>2022-06-29T12:36:31.000Z</time>
      </trkpt>
      <trkpt lat="44.32133" lon="3.69862">
        <ele>1023.5999755859</ele>
        <time>2022-06-29T12:36:33.000Z</time>
      </trkpt>
      <trkpt lat="44.32129" lon="3.69865">
        <ele>1023</ele>
        <time>2022-06-29T12:36:37.000Z</time>
      </trkpt>
      <trkpt lat="44.32128" lon="3.69865">
        <ele>1022.799987793</ele>
        <time>2022-06-29T12:36:39.000Z</time>
      </trkpt>
      <trkpt lat="44.32125" lon="3.69868">
        <ele>1022.4000244141</ele>
        <time>2022-06-29T12:36:43.000Z</time>
      </trkpt>
      <trkpt lat="44.32122" lon="3.6987">
        <ele>1021.799987793</ele>
        <time>2022-06-29T12:36:46.000Z</time>
      </trkpt>
      <trkpt lat="44.32119" lon="3.69872">
        <ele>1021.4000244141</ele>
        <time>2022-06-29T12:36:49.000Z</time>
      </trkpt>
      <trkpt lat="44.32113" lon="3.69872">
        <ele>1020.799987793</ele>
        <time>2022-06-29T12:36:53.000Z</time>
      </trkpt>
      <trkpt lat="44.3211" lon="3.69873">
        <ele>1020.200012207</ele>
        <time>2022-06-29T12:36:56.000Z</time>
      </trkpt>
      <trkpt lat="44.32106" lon="3.69875">
        <ele>1019.799987793</ele>
        <time>2022-06-29T12:37:00.000Z</time>
      </trkpt>
      <trkpt lat="44.32102" lon="3.69879">
        <ele>1018.799987793</ele>
        <time>2022-06-29T12:37:05.000Z</time>
      </trkpt>
      <trkpt lat="44.32097" lon="3.69882">
        <ele>1018</ele>
        <time>2022-06-29T12:37:11.000Z</time>
      </trkpt>
      <trkpt lat="44.32096" lon="3.69884">
        <ele>1017.5999755859</ele>
        <time>2022-06-29T12:37:13.000Z</time>
      </trkpt>
      <trkpt lat="44.32095" lon="3.69885">
        <ele>1017.5999755859</ele>
        <time>2022-06-29T12:37:14.000Z</time>
      </trkpt>
      <trkpt lat="44.32092" lon="3.69891">
        <ele>1016.799987793</ele>
        <time>2022-06-29T12:37:20.000Z</time>
      </trkpt>
      <trkpt lat="44.32092" lon="3.69891">
        <ele>1016.5999755859</ele>
        <time>2022-06-29T12:37:21.000Z</time>
      </trkpt>
      <trkpt lat="44.32091" lon="3.69891">
        <ele>1016.5999755859</ele>
        <time>2022-06-29T12:37:22.000Z</time>
      </trkpt>
      <trkpt lat="44.3209" lon="3.69891">
        <ele>1016.200012207</ele>
        <time>2022-06-29T12:37:27.000Z</time>
      </trkpt>
      <trkpt lat="44.3209" lon="3.69892">
        <ele>1016</ele>
        <time>2022-06-29T12:37:32.000Z</time>
      </trkpt>
      <trkpt lat="44.32089" lon="3.69892">
        <ele>1015.5999755859</ele>
        <time>2022-06-29T12:37:38.000Z</time>
      </trkpt>
      <trkpt lat="44.32089" lon="3.69893">
        <ele>1015.5999755859</ele>
        <time>2022-06-29T12:37:39.000Z</time>
      </trkpt>
      <trkpt lat="44.32086" lon="3.69897">
        <ele>1015</ele>
        <time>2022-06-29T12:37:44.000Z</time>
      </trkpt>
      <trkpt lat="44.32081" lon="3.69901">
        <ele>1014.4000244141</ele>
        <time>2022-06-29T12:37:49.000Z</time>
      </trkpt>
      <trkpt lat="44.32075" lon="3.69904">
        <ele>1013.799987793</ele>
        <time>2022-06-29T12:37:55.000Z</time>
      </trkpt>
      <trkpt lat="44.32073" lon="3.69905">
        <ele>1013.4000244141</ele>
        <time>2022-06-29T12:37:57.000Z</time>
      </trkpt>
      <trkpt lat="44.32072" lon="3.69905">
        <ele>1013</ele>
        <time>2022-06-29T12:37:59.000Z</time>
      </trkpt>
      <trkpt lat="44.32069" lon="3.69909">
        <ele>1012.5999755859</ele>
        <time>2022-06-29T12:38:05.000Z</time>
      </trkpt>
      <trkpt lat="44.32067" lon="3.69913">
        <ele>1012.200012207</ele>
        <time>2022-06-29T12:38:08.000Z</time>
      </trkpt>
      <trkpt lat="44.32064" lon="3.69919">
        <ele>1011.799987793</ele>
        <time>2022-06-29T12:38:13.000Z</time>
      </trkpt>
      <trkpt lat="44.32062" lon="3.69922">
        <ele>1011.200012207</ele>
        <time>2022-06-29T12:38:16.000Z</time>
      </trkpt>
      <trkpt lat="44.32058" lon="3.69929">
        <ele>1010.799987793</ele>
        <time>2022-06-29T12:38:22.000Z</time>
      </trkpt>
      <trkpt lat="44.32056" lon="3.69933">
        <ele>1010.4000244141</ele>
        <time>2022-06-29T12:38:25.000Z</time>
      </trkpt>
      <trkpt lat="44.32056" lon="3.69934">
        <ele>1010.4000244141</ele>
        <time>2022-06-29T12:38:26.000Z</time>
      </trkpt>
      <trkpt lat="44.32055" lon="3.69937">
        <ele>1010</ele>
        <time>2022-06-29T12:38:28.000Z</time>
      </trkpt>
      <trkpt lat="44.32055" lon="3.69938">
        <ele>1010</ele>
        <time>2022-06-29T12:38:29.000Z</time>
      </trkpt>
      <trkpt lat="44.32054" lon="3.69942">
        <ele>1010</ele>
        <time>2022-06-29T12:38:32.000Z</time>
      </trkpt>
      <trkpt lat="44.32052" lon="3.6995">
        <ele>1009.799987793</ele>
        <time>2022-06-29T12:38:38.000Z</time>
      </trkpt>
      <trkpt lat="44.3205" lon="3.69957">
        <ele>1009.5999755859</ele>
        <time>2022-06-29T12:38:43.000Z</time>
      </trkpt>
      <trkpt lat="44.32049" lon="3.69965">
        <ele>1009</ele>
        <time>2022-06-29T12:38:49.000Z</time>
      </trkpt>
      <trkpt lat="44.32046" lon="3.69969">
        <ele>1008.200012207</ele>
        <time>2022-06-29T12:38:53.000Z</time>
      </trkpt>
      <trkpt lat="44.32043" lon="3.69973">
        <ele>1008</ele>
        <time>2022-06-29T12:38:56.000Z</time>
      </trkpt>
      <trkpt lat="44.32042" lon="3.69974">
        <ele>1007.799987793</ele>
        <time>2022-06-29T12:38:58.000Z</time>
      </trkpt>
      <trkpt lat="44.32038" lon="3.69979">
        <ele>1007.4000244141</ele>
        <time>2022-06-29T12:39:04.000Z</time>
      </trkpt>
      <trkpt lat="44.32035" lon="3.69982">
        <ele>1006.799987793</ele>
        <time>2022-06-29T12:39:08.000Z</time>
      </trkpt>
      <trkpt lat="44.32034" lon="3.69984">
        <ele>1006.4000244141</ele>
        <time>2022-06-29T12:39:11.000Z</time>
      </trkpt>
      <trkpt lat="44.32032" lon="3.6999">
        <ele>1005.799987793</ele>
        <time>2022-06-29T12:39:17.000Z</time>
      </trkpt>
      <trkpt lat="44.32031" lon="3.69992">
        <ele>1005.5999755859</ele>
        <time>2022-06-29T12:39:19.000Z</time>
      </trkpt>
      <trkpt lat="44.32028" lon="3.69997">
        <ele>1005</ele>
        <time>2022-06-29T12:39:23.000Z</time>
      </trkpt>
      <trkpt lat="44.32025" lon="3.7">
        <ele>1004.799987793</ele>
        <time>2022-06-29T12:39:26.000Z</time>
      </trkpt>
      <trkpt lat="44.32025" lon="3.70001">
        <ele>1004.5999755859</ele>
        <time>2022-06-29T12:39:27.000Z</time>
      </trkpt>
      <trkpt lat="44.32024" lon="3.70002">
        <ele>1004</ele>
        <time>2022-06-29T12:39:30.000Z</time>
      </trkpt>
      <trkpt lat="44.32022" lon="3.70004">
        <ele>1003.5999755859</ele>
        <time>2022-06-29T12:39:33.000Z</time>
      </trkpt>
      <trkpt lat="44.32022" lon="3.70006">
        <ele>1003.5999755859</ele>
        <time>2022-06-29T12:39:35.000Z</time>
      </trkpt>
      <trkpt lat="44.3202" lon="3.70011">
        <ele>1003</ele>
        <time>2022-06-29T12:39:41.000Z</time>
      </trkpt>
      <trkpt lat="44.32018" lon="3.70014">
        <ele>1002.5999755859</ele>
        <time>2022-06-29T12:39:44.000Z</time>
      </trkpt>
      <trkpt lat="44.32012" lon="3.70016">
        <ele>1002.200012207</ele>
        <time>2022-06-29T12:39:48.000Z</time>
      </trkpt>
      <trkpt lat="44.3201" lon="3.70017">
        <ele>1002</ele>
        <time>2022-06-29T12:39:50.000Z</time>
      </trkpt>
      <trkpt lat="44.32008" lon="3.70018">
        <ele>1001.5999755859</ele>
        <time>2022-06-29T12:39:53.000Z</time>
      </trkpt>
      <trkpt lat="44.31999" lon="3.70021">
        <ele>1000.799987793</ele>
        <time>2022-06-29T12:39:58.000Z</time>
      </trkpt>
      <trkpt lat="44.31996" lon="3.70022">
        <ele>1000.5999755859</ele>
        <time>2022-06-29T12:40:00.000Z</time>
      </trkpt>
      <trkpt lat="44.31994" lon="3.70025">
        <ele>1000.4000244141</ele>
        <time>2022-06-29T12:40:02.000Z</time>
      </trkpt>
      <trkpt lat="44.31989" lon="3.70029">
        <ele>999.40002441406</ele>
        <time>2022-06-29T12:40:07.000Z</time>
      </trkpt>
      <trkpt lat="44.31983" lon="3.70034">
        <ele>998.59997558594</ele>
        <time>2022-06-29T12:40:13.000Z</time>
      </trkpt>
      <trkpt lat="44.31983" lon="3.70035">
        <ele>998.40002441406</ele>
        <time>2022-06-29T12:40:14.000Z</time>
      </trkpt>
      <trkpt lat="44.31981" lon="3.70036">
        <ele>998.20001220703</ele>
        <time>2022-06-29T12:40:16.000Z</time>
      </trkpt>
      <trkpt lat="44.3198" lon="3.70037">
        <ele>998.20001220703</ele>
        <time>2022-06-29T12:40:17.000Z</time>
      </trkpt>
      <trkpt lat="44.31978" lon="3.7004">
        <ele>998</ele>
        <time>2022-06-29T12:40:20.000Z</time>
      </trkpt>
      <trkpt lat="44.31974" lon="3.70047">
        <ele>997.40002441406</ele>
        <time>2022-06-29T12:40:25.000Z</time>
      </trkpt>
      <trkpt lat="44.31971" lon="3.70048">
        <ele>997</ele>
        <time>2022-06-29T12:40:27.000Z</time>
      </trkpt>
      <trkpt lat="44.31962" lon="3.70053">
        <ele>996.59997558594</ele>
        <time>2022-06-29T12:40:33.000Z</time>
      </trkpt>
      <trkpt lat="44.31961" lon="3.70057">
        <ele>996.20001220703</ele>
        <time>2022-06-29T12:40:36.000Z</time>
      </trkpt>
      <trkpt lat="44.31959" lon="3.70059">
        <ele>996.20001220703</ele>
        <time>2022-06-29T12:40:38.000Z</time>
      </trkpt>
      <trkpt lat="44.31959" lon="3.70071">
        <ele>995.79998779297</ele>
        <time>2022-06-29T12:40:44.000Z</time>
      </trkpt>
      <trkpt lat="44.3196" lon="3.70081">
        <ele>995.79998779297</ele>
        <time>2022-06-29T12:40:50.000Z</time>
      </trkpt>
      <trkpt lat="44.3196" lon="3.70085">
        <ele>995.79998779297</ele>
        <time>2022-06-29T12:40:52.000Z</time>
      </trkpt>
      <trkpt lat="44.3196" lon="3.70088">
        <ele>995.59997558594</ele>
        <time>2022-06-29T12:40:54.000Z</time>
      </trkpt>
      <trkpt lat="44.3196" lon="3.7009">
        <ele>995.40002441406</ele>
        <time>2022-06-29T12:40:56.000Z</time>
      </trkpt>
      <trkpt lat="44.31959" lon="3.70095">
        <ele>995.20001220703</ele>
        <time>2022-06-29T12:40:59.000Z</time>
      </trkpt>
      <trkpt lat="44.31958" lon="3.701">
        <ele>994.79998779297</ele>
        <time>2022-06-29T12:41:03.000Z</time>
      </trkpt>
      <trkpt lat="44.31957" lon="3.70103">
        <ele>994.59997558594</ele>
        <time>2022-06-29T12:41:06.000Z</time>
      </trkpt>
      <trkpt lat="44.31954" lon="3.70108">
        <ele>994</ele>
        <time>2022-06-29T12:41:10.000Z</time>
      </trkpt>
      <trkpt lat="44.31952" lon="3.70111">
        <ele>993.40002441406</ele>
        <time>2022-06-29T12:41:15.000Z</time>
      </trkpt>
      <trkpt lat="44.31952" lon="3.70111">
        <ele>993.40002441406</ele>
        <time>2022-06-29T12:41:16.000Z</time>
      </trkpt>
      <trkpt lat="44.31952" lon="3.70112">
        <ele>993.40002441406</ele>
        <time>2022-06-29T12:41:17.000Z</time>
      </trkpt>
      <trkpt lat="44.3195" lon="3.70111">
        <ele>993</ele>
        <time>2022-06-29T12:41:22.000Z</time>
      </trkpt>
      <trkpt lat="44.31946" lon="3.70105">
        <ele>992.59997558594</ele>
        <time>2022-06-29T12:41:27.000Z</time>
      </trkpt>
      <trkpt lat="44.31946" lon="3.70104">
        <ele>992.59997558594</ele>
        <time>2022-06-29T12:41:28.000Z</time>
      </trkpt>
      <trkpt lat="44.31945" lon="3.70101">
        <ele>992.40002441406</ele>
        <time>2022-06-29T12:41:30.000Z</time>
      </trkpt>
      <trkpt lat="44.31945" lon="3.70099">
        <ele>992.59997558594</ele>
        <time>2022-06-29T12:41:31.000Z</time>
      </trkpt>
      <trkpt lat="44.31945" lon="3.7009">
        <ele>992</ele>
        <time>2022-06-29T12:41:37.000Z</time>
      </trkpt>
      <trkpt lat="44.31942" lon="3.70084">
        <ele>991.59997558594</ele>
        <time>2022-06-29T12:41:41.000Z</time>
      </trkpt>
      <trkpt lat="44.31941" lon="3.70076">
        <ele>991.40002441406</ele>
        <time>2022-06-29T12:41:46.000Z</time>
      </trkpt>
      <trkpt lat="44.3194" lon="3.70075">
        <ele>991.20001220703</ele>
        <time>2022-06-29T12:41:47.000Z</time>
      </trkpt>
      <trkpt lat="44.3194" lon="3.70073">
        <ele>991</ele>
        <time>2022-06-29T12:41:49.000Z</time>
      </trkpt>
      <trkpt lat="44.31936" lon="3.70066">
        <ele>990.40002441406</ele>
        <time>2022-06-29T12:41:55.000Z</time>
      </trkpt>
      <trkpt lat="44.31933" lon="3.70059">
        <ele>990.20001220703</ele>
        <time>2022-06-29T12:42:01.000Z</time>
      </trkpt>
      <trkpt lat="44.31931" lon="3.70054">
        <ele>989.79998779297</ele>
        <time>2022-06-29T12:42:06.000Z</time>
      </trkpt>
      <trkpt lat="44.31931" lon="3.7005">
        <ele>989.79998779297</ele>
        <time>2022-06-29T12:42:09.000Z</time>
      </trkpt>
      <trkpt lat="44.3193" lon="3.70048">
        <ele>989.79998779297</ele>
        <time>2022-06-29T12:42:10.000Z</time>
      </trkpt>
      <trkpt lat="44.31928" lon="3.70044">
        <ele>989.59997558594</ele>
        <time>2022-06-29T12:42:13.000Z</time>
      </trkpt>
      <trkpt lat="44.31923" lon="3.70037">
        <ele>989.40002441406</ele>
        <time>2022-06-29T12:42:19.000Z</time>
      </trkpt>
      <trkpt lat="44.31921" lon="3.70034">
        <ele>989.20001220703</ele>
        <time>2022-06-29T12:42:22.000Z</time>
      </trkpt>
      <trkpt lat="44.3192" lon="3.70032">
        <ele>989.20001220703</ele>
        <time>2022-06-29T12:42:23.000Z</time>
      </trkpt>
      <trkpt lat="44.31915" lon="3.70029">
        <ele>989.20001220703</ele>
        <time>2022-06-29T12:42:27.000Z</time>
      </trkpt>
      <trkpt lat="44.3191" lon="3.70022">
        <ele>989.20001220703</ele>
        <time>2022-06-29T12:42:33.000Z</time>
      </trkpt>
      <trkpt lat="44.31906" lon="3.70013">
        <ele>989.20001220703</ele>
        <time>2022-06-29T12:42:39.000Z</time>
      </trkpt>
      <trkpt lat="44.31903" lon="3.70008">
        <ele>989</ele>
        <time>2022-06-29T12:42:43.000Z</time>
      </trkpt>
      <trkpt lat="44.319" lon="3.70004">
        <ele>988.79998779297</ele>
        <time>2022-06-29T12:42:46.000Z</time>
      </trkpt>
      <trkpt lat="44.31898" lon="3.69999">
        <ele>988.40002441406</ele>
        <time>2022-06-29T12:42:51.000Z</time>
      </trkpt>
      <trkpt lat="44.31897" lon="3.69989">
        <ele>988</ele>
        <time>2022-06-29T12:42:57.000Z</time>
      </trkpt>
      <trkpt lat="44.31897" lon="3.69988">
        <ele>988</ele>
        <time>2022-06-29T12:42:58.000Z</time>
      </trkpt>
      <trkpt lat="44.31896" lon="3.69983">
        <ele>987.79998779297</ele>
        <time>2022-06-29T12:43:02.000Z</time>
      </trkpt>
      <trkpt lat="44.31896" lon="3.69982">
        <ele>987.59997558594</ele>
        <time>2022-06-29T12:43:03.000Z</time>
      </trkpt>
      <trkpt lat="44.31895" lon="3.69979">
        <ele>987.40002441406</ele>
        <time>2022-06-29T12:43:05.000Z</time>
      </trkpt>
      <trkpt lat="44.31893" lon="3.69977">
        <ele>987.40002441406</ele>
        <time>2022-06-29T12:43:07.000Z</time>
      </trkpt>
      <trkpt lat="44.31892" lon="3.69974">
        <ele>987.20001220703</ele>
        <time>2022-06-29T12:43:09.000Z</time>
      </trkpt>
      <trkpt lat="44.3189" lon="3.69971">
        <ele>987</ele>
        <time>2022-06-29T12:43:12.000Z</time>
      </trkpt>
      <trkpt lat="44.31887" lon="3.69965">
        <ele>986.59997558594</ele>
        <time>2022-06-29T12:43:17.000Z</time>
      </trkpt>
      <trkpt lat="44.31883" lon="3.69956">
        <ele>986.20001220703</ele>
        <time>2022-06-29T12:43:23.000Z</time>
      </trkpt>
      <trkpt lat="44.31883" lon="3.69953">
        <ele>986</ele>
        <time>2022-06-29T12:43:25.000Z</time>
      </trkpt>
      <trkpt lat="44.31882" lon="3.69946">
        <ele>985.59997558594</ele>
        <time>2022-06-29T12:43:30.000Z</time>
      </trkpt>
      <trkpt lat="44.31882" lon="3.69942">
        <ele>985.40002441406</ele>
        <time>2022-06-29T12:43:34.000Z</time>
      </trkpt>
      <trkpt lat="44.31881" lon="3.6994">
        <ele>985.20001220703</ele>
        <time>2022-06-29T12:43:37.000Z</time>
      </trkpt>
      <trkpt lat="44.31881" lon="3.69937">
        <ele>985.20001220703</ele>
        <time>2022-06-29T12:43:39.000Z</time>
      </trkpt>
      <trkpt lat="44.3188" lon="3.69931">
        <ele>984.59997558594</ele>
        <time>2022-06-29T12:43:43.000Z</time>
      </trkpt>
      <trkpt lat="44.31879" lon="3.6993">
        <ele>984.40002441406</ele>
        <time>2022-06-29T12:43:44.000Z</time>
      </trkpt>
      <trkpt lat="44.31877" lon="3.69922">
        <ele>984.40002441406</ele>
        <time>2022-06-29T12:43:49.000Z</time>
      </trkpt>
      <trkpt lat="44.31875" lon="3.69913">
        <ele>984</ele>
        <time>2022-06-29T12:43:55.000Z</time>
      </trkpt>
      <trkpt lat="44.31874" lon="3.69904">
        <ele>983.79998779297</ele>
        <time>2022-06-29T12:44:01.000Z</time>
      </trkpt>
      <trkpt lat="44.31874" lon="3.699">
        <ele>983.79998779297</ele>
        <time>2022-06-29T12:44:03.000Z</time>
      </trkpt>
      <trkpt lat="44.31873" lon="3.69894">
        <ele>983.40002441406</ele>
        <time>2022-06-29T12:44:07.000Z</time>
      </trkpt>
      <trkpt lat="44.3187" lon="3.69884">
        <ele>983.20001220703</ele>
        <time>2022-06-29T12:44:13.000Z</time>
      </trkpt>
      <trkpt lat="44.31868" lon="3.69876">
        <ele>983.20001220703</ele>
        <time>2022-06-29T12:44:18.000Z</time>
      </trkpt>
      <trkpt lat="44.31867" lon="3.69868">
        <ele>982.79998779297</ele>
        <time>2022-06-29T12:44:24.000Z</time>
      </trkpt>
      <trkpt lat="44.31866" lon="3.69863">
        <ele>982.40002441406</ele>
        <time>2022-06-29T12:44:27.000Z</time>
      </trkpt>
      <trkpt lat="44.31863" lon="3.69854">
        <ele>981.79998779297</ele>
        <time>2022-06-29T12:44:33.000Z</time>
      </trkpt>
      <trkpt lat="44.31862" lon="3.69848">
        <ele>981.20001220703</ele>
        <time>2022-06-29T12:44:37.000Z</time>
      </trkpt>
      <trkpt lat="44.31862" lon="3.69839">
        <ele>980.79998779297</ele>
        <time>2022-06-29T12:44:43.000Z</time>
      </trkpt>
      <trkpt lat="44.31862" lon="3.69833">
        <ele>980.59997558594</ele>
        <time>2022-06-29T12:44:47.000Z</time>
      </trkpt>
      <trkpt lat="44.31861" lon="3.69824">
        <ele>980.40002441406</ele>
        <time>2022-06-29T12:44:53.000Z</time>
      </trkpt>
      <trkpt lat="44.31861" lon="3.6982">
        <ele>980.20001220703</ele>
        <time>2022-06-29T12:44:56.000Z</time>
      </trkpt>
      <trkpt lat="44.31861" lon="3.69815">
        <ele>980</ele>
        <time>2022-06-29T12:44:59.000Z</time>
      </trkpt>
      <trkpt lat="44.31859" lon="3.69806">
        <ele>979.59997558594</ele>
        <time>2022-06-29T12:45:05.000Z</time>
      </trkpt>
      <trkpt lat="44.31858" lon="3.69803">
        <ele>979.20001220703</ele>
        <time>2022-06-29T12:45:07.000Z</time>
      </trkpt>
      <trkpt lat="44.31857" lon="3.69793">
        <ele>978.40002441406</ele>
        <time>2022-06-29T12:45:13.000Z</time>
      </trkpt>
      <trkpt lat="44.31857" lon="3.69791">
        <ele>978.20001220703</ele>
        <time>2022-06-29T12:45:14.000Z</time>
      </trkpt>
      <trkpt lat="44.31857" lon="3.6979">
        <ele>978.20001220703</ele>
        <time>2022-06-29T12:45:15.000Z</time>
      </trkpt>
      <trkpt lat="44.31857" lon="3.6978">
        <ele>977.79998779297</ele>
        <time>2022-06-29T12:45:21.000Z</time>
      </trkpt>
      <trkpt lat="44.31857" lon="3.69773">
        <ele>977</ele>
        <time>2022-06-29T12:45:26.000Z</time>
      </trkpt>
      <trkpt lat="44.31858" lon="3.69765">
        <ele>976.40002441406</ele>
        <time>2022-06-29T12:45:32.000Z</time>
      </trkpt>
      <trkpt lat="44.31859" lon="3.69759">
        <ele>976.20001220703</ele>
        <time>2022-06-29T12:45:36.000Z</time>
      </trkpt>
      <trkpt lat="44.31859" lon="3.69758">
        <ele>976</ele>
        <time>2022-06-29T12:45:37.000Z</time>
      </trkpt>
      <trkpt lat="44.31859" lon="3.69756">
        <ele>975.79998779297</ele>
        <time>2022-06-29T12:45:38.000Z</time>
      </trkpt>
      <trkpt lat="44.3186" lon="3.69755">
        <ele>975.79998779297</ele>
        <time>2022-06-29T12:45:39.000Z</time>
      </trkpt>
      <trkpt lat="44.31861" lon="3.6975">
        <ele>975.59997558594</ele>
        <time>2022-06-29T12:45:42.000Z</time>
      </trkpt>
      <trkpt lat="44.31861" lon="3.69748">
        <ele>975.59997558594</ele>
        <time>2022-06-29T12:45:44.000Z</time>
      </trkpt>
      <trkpt lat="44.31861" lon="3.69747">
        <ele>975.40002441406</ele>
        <time>2022-06-29T12:45:45.000Z</time>
      </trkpt>
      <trkpt lat="44.31863" lon="3.6974">
        <ele>975</ele>
        <time>2022-06-29T12:45:50.000Z</time>
      </trkpt>
      <trkpt lat="44.31865" lon="3.69734">
        <ele>974.40002441406</ele>
        <time>2022-06-29T12:45:54.000Z</time>
      </trkpt>
      <trkpt lat="44.31866" lon="3.69733">
        <ele>974.40002441406</ele>
        <time>2022-06-29T12:45:55.000Z</time>
      </trkpt>
      <trkpt lat="44.31867" lon="3.69727">
        <ele>974.40002441406</ele>
        <time>2022-06-29T12:45:59.000Z</time>
      </trkpt>
      <trkpt lat="44.31868" lon="3.69724">
        <ele>974.40002441406</ele>
        <time>2022-06-29T12:46:01.000Z</time>
      </trkpt>
      <trkpt lat="44.31868" lon="3.69716">
        <ele>974</ele>
        <time>2022-06-29T12:46:07.000Z</time>
      </trkpt>
      <trkpt lat="44.31868" lon="3.69713">
        <ele>974</ele>
        <time>2022-06-29T12:46:09.000Z</time>
      </trkpt>
      <trkpt lat="44.31868" lon="3.69713">
        <ele>974</ele>
        <time>2022-06-29T12:46:10.000Z</time>
      </trkpt>
      <trkpt lat="44.31868" lon="3.69713">
        <ele>974</ele>
        <time>2022-06-29T12:46:15.000Z</time>
      </trkpt>
      <trkpt lat="44.31868" lon="3.69713">
        <ele>974</ele>
        <time>2022-06-29T12:46:16.000Z</time>
      </trkpt>
      <trkpt lat="44.31869" lon="3.69713">
        <ele>974</ele>
        <time>2022-06-29T12:46:18.000Z</time>
      </trkpt>
      <trkpt lat="44.3187" lon="3.69714">
        <ele>973.79998779297</ele>
        <time>2022-06-29T12:46:22.000Z</time>
      </trkpt>
      <trkpt lat="44.3187" lon="3.69714">
        <ele>973.79998779297</ele>
        <time>2022-06-29T12:46:24.000Z</time>
      </trkpt>
      <trkpt lat="44.31869" lon="3.69714">
        <ele>974</ele>
        <time>2022-06-29T12:46:29.000Z</time>
      </trkpt>
      <trkpt lat="44.31869" lon="3.69714">
        <ele>974</ele>
        <time>2022-06-29T12:46:30.000Z</time>
      </trkpt>
      <trkpt lat="44.31869" lon="3.69714">
        <ele>974</ele>
        <time>2022-06-29T12:46:31.000Z</time>
      </trkpt>
      <trkpt lat="44.31869" lon="3.69714">
        <ele>974</ele>
        <time>2022-06-29T12:46:35.000Z</time>
      </trkpt>
      <trkpt lat="44.31869" lon="3.69714">
        <ele>974</ele>
        <time>2022-06-29T12:46:37.000Z</time>
      </trkpt>
      <trkpt lat="44.31869" lon="3.69715">
        <ele>973.59997558594</ele>
        <time>2022-06-29T12:46:43.000Z</time>
      </trkpt>
      <trkpt lat="44.31868" lon="3.69715">
        <ele>973.59997558594</ele>
        <time>2022-06-29T12:46:45.000Z</time>
      </trkpt>
      <trkpt lat="44.31867" lon="3.69714">
        <ele>973.40002441406</ele>
        <time>2022-06-29T12:46:47.000Z</time>
      </trkpt>
      <trkpt lat="44.31862" lon="3.69711">
        <ele>973</ele>
        <time>2022-06-29T12:46:53.000Z</time>
      </trkpt>
      <trkpt lat="44.3186" lon="3.69711">
        <ele>972.79998779297</ele>
        <time>2022-06-29T12:46:56.000Z</time>
      </trkpt>
      <trkpt lat="44.31858" lon="3.69712">
        <ele>972.79998779297</ele>
        <time>2022-06-29T12:46:58.000Z</time>
      </trkpt>
      <trkpt lat="44.31852" lon="3.69711">
        <ele>972.59997558594</ele>
        <time>2022-06-29T12:47:04.000Z</time>
      </trkpt>
      <trkpt lat="44.3185" lon="3.69711">
        <ele>972.40002441406</ele>
        <time>2022-06-29T12:47:06.000Z</time>
      </trkpt>
      <trkpt lat="44.31848" lon="3.69711">
        <ele>972</ele>
        <time>2022-06-29T12:47:08.000Z</time>
      </trkpt>
      <trkpt lat="44.31847" lon="3.69711">
        <ele>971.79998779297</ele>
        <time>2022-06-29T12:47:09.000Z</time>
      </trkpt>
      <trkpt lat="44.3184" lon="3.69711">
        <ele>971.20001220703</ele>
        <time>2022-06-29T12:47:15.000Z</time>
      </trkpt>
      <trkpt lat="44.31837" lon="3.6971">
        <ele>970.79998779297</ele>
        <time>2022-06-29T12:47:18.000Z</time>
      </trkpt>
      <trkpt lat="44.31835" lon="3.69711">
        <ele>970.59997558594</ele>
        <time>2022-06-29T12:47:20.000Z</time>
      </trkpt>
      <trkpt lat="44.31834" lon="3.69711">
        <ele>970.59997558594</ele>
        <time>2022-06-29T12:47:21.000Z</time>
      </trkpt>
      <trkpt lat="44.31833" lon="3.69711">
        <ele>970.59997558594</ele>
        <time>2022-06-29T12:47:22.000Z</time>
      </trkpt>
      <trkpt lat="44.31826" lon="3.6971">
        <ele>970.20001220703</ele>
        <time>2022-06-29T12:47:28.000Z</time>
      </trkpt>
      <trkpt lat="44.31821" lon="3.69711">
        <ele>969.59997558594</ele>
        <time>2022-06-29T12:47:33.000Z</time>
      </trkpt>
      <trkpt lat="44.3182" lon="3.69711">
        <ele>969.59997558594</ele>
        <time>2022-06-29T12:47:34.000Z</time>
      </trkpt>
      <trkpt lat="44.31818" lon="3.69712">
        <ele>969.20001220703</ele>
        <time>2022-06-29T12:47:36.000Z</time>
      </trkpt>
      <trkpt lat="44.31813" lon="3.69713">
        <ele>969</ele>
        <time>2022-06-29T12:47:41.000Z</time>
      </trkpt>
      <trkpt lat="44.31811" lon="3.69713">
        <ele>969</ele>
        <time>2022-06-29T12:47:43.000Z</time>
      </trkpt>
      <trkpt lat="44.31811" lon="3.69713">
        <ele>968.79998779297</ele>
        <time>2022-06-29T12:47:44.000Z</time>
      </trkpt>
      <trkpt lat="44.31811" lon="3.69713">
        <ele>968.79998779297</ele>
        <time>2022-06-29T12:47:46.000Z</time>
      </trkpt>
      <trkpt lat="44.31809" lon="3.69714">
        <ele>968.40002441406</ele>
        <time>2022-06-29T12:47:48.000Z</time>
      </trkpt>
      <trkpt lat="44.31807" lon="3.69716">
        <ele>968.20001220703</ele>
        <time>2022-06-29T12:47:51.000Z</time>
      </trkpt>
      <trkpt lat="44.31805" lon="3.69719">
        <ele>968</ele>
        <time>2022-06-29T12:47:54.000Z</time>
      </trkpt>
      <trkpt lat="44.31801" lon="3.69724">
        <ele>967.40002441406</ele>
        <time>2022-06-29T12:47:59.000Z</time>
      </trkpt>
      <trkpt lat="44.31799" lon="3.69725">
        <ele>967.20001220703</ele>
        <time>2022-06-29T12:48:01.000Z</time>
      </trkpt>
      <trkpt lat="44.31794" lon="3.69728">
        <ele>966.59997558594</ele>
        <time>2022-06-29T12:48:07.000Z</time>
      </trkpt>
      <trkpt lat="44.31793" lon="3.69728">
        <ele>966.40002441406</ele>
        <time>2022-06-29T12:48:08.000Z</time>
      </trkpt>
      <trkpt lat="44.3179" lon="3.69726">
        <ele>966</ele>
        <time>2022-06-29T12:48:11.000Z</time>
      </trkpt>
      <trkpt lat="44.31789" lon="3.69725">
        <ele>965.79998779297</ele>
        <time>2022-06-29T12:48:12.000Z</time>
      </trkpt>
      <trkpt lat="44.31787" lon="3.69723">
        <ele>965.40002441406</ele>
        <time>2022-06-29T12:48:14.000Z</time>
      </trkpt>
      <trkpt lat="44.31785" lon="3.69721">
        <ele>965.20001220703</ele>
        <time>2022-06-29T12:48:15.000Z</time>
      </trkpt>
      <trkpt lat="44.31784" lon="3.6972">
        <ele>965.20001220703</ele>
        <time>2022-06-29T12:48:16.000Z</time>
      </trkpt>
      <trkpt lat="44.31779" lon="3.69711">
        <ele>964.59997558594</ele>
        <time>2022-06-29T12:48:22.000Z</time>
      </trkpt>
      <trkpt lat="44.31779" lon="3.6971">
        <ele>964.59997558594</ele>
        <time>2022-06-29T12:48:23.000Z</time>
      </trkpt>
      <trkpt lat="44.31778" lon="3.69707">
        <ele>964.59997558594</ele>
        <time>2022-06-29T12:48:25.000Z</time>
      </trkpt>
      <trkpt lat="44.31777" lon="3.69702">
        <ele>964.79998779297</ele>
        <time>2022-06-29T12:48:28.000Z</time>
      </trkpt>
      <trkpt lat="44.31775" lon="3.69695">
        <ele>964.79998779297</ele>
        <time>2022-06-29T12:48:34.000Z</time>
      </trkpt>
      <trkpt lat="44.31775" lon="3.69692">
        <ele>965</ele>
        <time>2022-06-29T12:48:36.000Z</time>
      </trkpt>
      <trkpt lat="44.31774" lon="3.69688">
        <ele>965</ele>
        <time>2022-06-29T12:48:39.000Z</time>
      </trkpt>
      <trkpt lat="44.31773" lon="3.69685">
        <ele>964.79998779297</ele>
        <time>2022-06-29T12:48:42.000Z</time>
      </trkpt>
      <trkpt lat="44.31771" lon="3.69677">
        <ele>964.79998779297</ele>
        <time>2022-06-29T12:48:48.000Z</time>
      </trkpt>
      <trkpt lat="44.31769" lon="3.69668">
        <ele>964.59997558594</ele>
        <time>2022-06-29T12:48:54.000Z</time>
      </trkpt>
      <trkpt lat="44.31769" lon="3.69667">
        <ele>964.59997558594</ele>
        <time>2022-06-29T12:48:55.000Z</time>
      </trkpt>
      <trkpt lat="44.31768" lon="3.69658">
        <ele>964.40002441406</ele>
        <time>2022-06-29T12:49:01.000Z</time>
      </trkpt>
      <trkpt lat="44.31768" lon="3.69657">
        <ele>964.20001220703</ele>
        <time>2022-06-29T12:49:02.000Z</time>
      </trkpt>
      <trkpt lat="44.31764" lon="3.69649">
        <ele>964</ele>
        <time>2022-06-29T12:49:08.000Z</time>
      </trkpt>
      <trkpt lat="44.31763" lon="3.69645">
        <ele>964</ele>
        <time>2022-06-29T12:49:11.000Z</time>
      </trkpt>
      <trkpt lat="44.3176" lon="3.69637">
        <ele>963.40002441406</ele>
        <time>2022-06-29T12:49:17.000Z</time>
      </trkpt>
      <trkpt lat="44.3176" lon="3.69636">
        <ele>963.20001220703</ele>
        <time>2022-06-29T12:49:18.000Z</time>
      </trkpt>
      <trkpt lat="44.31758" lon="3.69631">
        <ele>962.59997558594</ele>
        <time>2022-06-29T12:49:22.000Z</time>
      </trkpt>
      <trkpt lat="44.31756" lon="3.69627">
        <ele>962.20001220703</ele>
        <time>2022-06-29T12:49:25.000Z</time>
      </trkpt>
      <trkpt lat="44.31755" lon="3.69626">
        <ele>962.20001220703</ele>
        <time>2022-06-29T12:49:26.000Z</time>
      </trkpt>
      <trkpt lat="44.31751" lon="3.69619">
        <ele>961.59997558594</ele>
        <time>2022-06-29T12:49:32.000Z</time>
      </trkpt>
      <trkpt lat="44.31749" lon="3.69615">
        <ele>961.20001220703</ele>
        <time>2022-06-29T12:49:36.000Z</time>
      </trkpt>
      <trkpt lat="44.31747" lon="3.69612">
        <ele>961.20001220703</ele>
        <time>2022-06-29T12:49:39.000Z</time>
      </trkpt>
      <trkpt lat="44.31743" lon="3.69605">
        <ele>961.20001220703</ele>
        <time>2022-06-29T12:49:45.000Z</time>
      </trkpt>
      <trkpt lat="44.31741" lon="3.69601">
        <ele>961</ele>
        <time>2022-06-29T12:49:49.000Z</time>
      </trkpt>
      <trkpt lat="44.3174" lon="3.69599">
        <ele>960.79998779297</ele>
        <time>2022-06-29T12:49:51.000Z</time>
      </trkpt>
      <trkpt lat="44.31736" lon="3.69594">
        <ele>960</ele>
        <time>2022-06-29T12:49:56.000Z</time>
      </trkpt>
      <trkpt lat="44.31732" lon="3.69587">
        <ele>959.20001220703</ele>
        <time>2022-06-29T12:50:02.000Z</time>
      </trkpt>
      <trkpt lat="44.31731" lon="3.69586">
        <ele>959</ele>
        <time>2022-06-29T12:50:03.000Z</time>
      </trkpt>
      <trkpt lat="44.31731" lon="3.69585">
        <ele>959</ele>
        <time>2022-06-29T12:50:04.000Z</time>
      </trkpt>
      <trkpt lat="44.31727" lon="3.69579">
        <ele>958.20001220703</ele>
        <time>2022-06-29T12:50:10.000Z</time>
      </trkpt>
      <trkpt lat="44.31726" lon="3.69579">
        <ele>958</ele>
        <time>2022-06-29T12:50:11.000Z</time>
      </trkpt>
      <trkpt lat="44.31722" lon="3.69575">
        <ele>956.79998779297</ele>
        <time>2022-06-29T12:50:17.000Z</time>
      </trkpt>
      <trkpt lat="44.31718" lon="3.69571">
        <ele>956</ele>
        <time>2022-06-29T12:50:21.000Z</time>
      </trkpt>
      <trkpt lat="44.31717" lon="3.6957">
        <ele>955.79998779297</ele>
        <time>2022-06-29T12:50:22.000Z</time>
      </trkpt>
      <trkpt lat="44.31714" lon="3.69567">
        <ele>955.20001220703</ele>
        <time>2022-06-29T12:50:25.000Z</time>
      </trkpt>
      <trkpt lat="44.31712" lon="3.69566">
        <ele>955</ele>
        <time>2022-06-29T12:50:27.000Z</time>
      </trkpt>
      <trkpt lat="44.3171" lon="3.69564">
        <ele>954.59997558594</ele>
        <time>2022-06-29T12:50:29.000Z</time>
      </trkpt>
      <trkpt lat="44.31709" lon="3.69563">
        <ele>954.40002441406</ele>
        <time>2022-06-29T12:50:30.000Z</time>
      </trkpt>
      <trkpt lat="44.31704" lon="3.6956">
        <ele>953.59997558594</ele>
        <time>2022-06-29T12:50:35.000Z</time>
      </trkpt>
      <trkpt lat="44.31703" lon="3.69559">
        <ele>953.40002441406</ele>
        <time>2022-06-29T12:50:36.000Z</time>
      </trkpt>
      <trkpt lat="44.31702" lon="3.69559">
        <ele>953.20001220703</ele>
        <time>2022-06-29T12:50:37.000Z</time>
      </trkpt>
      <trkpt lat="44.31701" lon="3.69558">
        <ele>952.79998779297</ele>
        <time>2022-06-29T12:50:39.000Z</time>
      </trkpt>
      <trkpt lat="44.31697" lon="3.69557">
        <ele>952.79998779297</ele>
        <time>2022-06-29T12:50:43.000Z</time>
      </trkpt>
      <trkpt lat="44.31692" lon="3.69555">
        <ele>952.59997558594</ele>
        <time>2022-06-29T12:50:48.000Z</time>
      </trkpt>
      <trkpt lat="44.31689" lon="3.69554">
        <ele>952</ele>
        <time>2022-06-29T12:50:51.000Z</time>
      </trkpt>
      <trkpt lat="44.31686" lon="3.69553">
        <ele>951.40002441406</ele>
        <time>2022-06-29T12:50:54.000Z</time>
      </trkpt>
      <trkpt lat="44.31682" lon="3.69552">
        <ele>951</ele>
        <time>2022-06-29T12:50:58.000Z</time>
      </trkpt>
      <trkpt lat="44.31682" lon="3.69553">
        <ele>950.79998779297</ele>
        <time>2022-06-29T12:51:00.000Z</time>
      </trkpt>
      <trkpt lat="44.31681" lon="3.69552">
        <ele>950.59997558594</ele>
        <time>2022-06-29T12:51:03.000Z</time>
      </trkpt>
      <trkpt lat="44.31681" lon="3.69552">
        <ele>950.59997558594</ele>
        <time>2022-06-29T12:51:05.000Z</time>
      </trkpt>
      <trkpt lat="44.31681" lon="3.69552">
        <ele>950.40002441406</ele>
        <time>2022-06-29T12:51:07.000Z</time>
      </trkpt>
      <trkpt lat="44.31678" lon="3.6955">
        <ele>950.20001220703</ele>
        <time>2022-06-29T12:51:10.000Z</time>
      </trkpt>
      <trkpt lat="44.31677" lon="3.6955">
        <ele>949.79998779297</ele>
        <time>2022-06-29T12:51:12.000Z</time>
      </trkpt>
      <trkpt lat="44.31675" lon="3.6955">
        <ele>949.79998779297</ele>
        <time>2022-06-29T12:51:13.000Z</time>
      </trkpt>
      <trkpt lat="44.31671" lon="3.69549">
        <ele>949.20001220703</ele>
        <time>2022-06-29T12:51:18.000Z</time>
      </trkpt>
      <trkpt lat="44.31664" lon="3.6955">
        <ele>948.59997558594</ele>
        <time>2022-06-29T12:51:24.000Z</time>
      </trkpt>
      <trkpt lat="44.31663" lon="3.6955">
        <ele>948.59997558594</ele>
        <time>2022-06-29T12:51:25.000Z</time>
      </trkpt>
      <trkpt lat="44.31658" lon="3.6955">
        <ele>948.40002441406</ele>
        <time>2022-06-29T12:51:30.000Z</time>
      </trkpt>
      <trkpt lat="44.31656" lon="3.6955">
        <ele>948.20001220703</ele>
        <time>2022-06-29T12:51:32.000Z</time>
      </trkpt>
      <trkpt lat="44.3165" lon="3.69551">
        <ele>947.59997558594</ele>
        <time>2022-06-29T12:51:38.000Z</time>
      </trkpt>
      <trkpt lat="44.31648" lon="3.69551">
        <ele>947.59997558594</ele>
        <time>2022-06-29T12:51:39.000Z</time>
      </trkpt>
      <trkpt lat="44.31646" lon="3.69552">
        <ele>947.20001220703</ele>
        <time>2022-06-29T12:51:41.000Z</time>
      </trkpt>
      <trkpt lat="44.31645" lon="3.69552">
        <ele>947</ele>
        <time>2022-06-29T12:51:42.000Z</time>
      </trkpt>
      <trkpt lat="44.31643" lon="3.69552">
        <ele>946.79998779297</ele>
        <time>2022-06-29T12:51:44.000Z</time>
      </trkpt>
      <trkpt lat="44.31637" lon="3.69553">
        <ele>946.20001220703</ele>
        <time>2022-06-29T12:51:50.000Z</time>
      </trkpt>
      <trkpt lat="44.31635" lon="3.69554">
        <ele>946.20001220703</ele>
        <time>2022-06-29T12:51:52.000Z</time>
      </trkpt>
      <trkpt lat="44.31633" lon="3.69555">
        <ele>946</ele>
        <time>2022-06-29T12:51:54.000Z</time>
      </trkpt>
      <trkpt lat="44.31632" lon="3.69555">
        <ele>945.79998779297</ele>
        <time>2022-06-29T12:51:55.000Z</time>
      </trkpt>
      <trkpt lat="44.3163" lon="3.69556">
        <ele>945.79998779297</ele>
        <time>2022-06-29T12:51:56.000Z</time>
      </trkpt>
      <trkpt lat="44.31628" lon="3.69556">
        <ele>945.59997558594</ele>
        <time>2022-06-29T12:51:58.000Z</time>
      </trkpt>
      <trkpt lat="44.31622" lon="3.69559">
        <ele>945.20001220703</ele>
        <time>2022-06-29T12:52:04.000Z</time>
      </trkpt>
      <trkpt lat="44.31618" lon="3.6956">
        <ele>945</ele>
        <time>2022-06-29T12:52:09.000Z</time>
      </trkpt>
      <trkpt lat="44.31617" lon="3.6956">
        <ele>944.79998779297</ele>
        <time>2022-06-29T12:52:10.000Z</time>
      </trkpt>
      <trkpt lat="44.31613" lon="3.69561">
        <ele>944.20001220703</ele>
        <time>2022-06-29T12:52:14.000Z</time>
      </trkpt>
      <trkpt lat="44.3161" lon="3.69562">
        <ele>943.79998779297</ele>
        <time>2022-06-29T12:52:17.000Z</time>
      </trkpt>
      <trkpt lat="44.31609" lon="3.69562">
        <ele>943.79998779297</ele>
        <time>2022-06-29T12:52:18.000Z</time>
      </trkpt>
      <trkpt lat="44.31605" lon="3.69563">
        <ele>943.40002441406</ele>
        <time>2022-06-29T12:52:22.000Z</time>
      </trkpt>
      <trkpt lat="44.31602" lon="3.69562">
        <ele>943.20001220703</ele>
        <time>2022-06-29T12:52:24.000Z</time>
      </trkpt>
      <trkpt lat="44.31595" lon="3.69562">
        <ele>943.20001220703</ele>
        <time>2022-06-29T12:52:30.000Z</time>
      </trkpt>
      <trkpt lat="44.3159" lon="3.69567">
        <ele>942.79998779297</ele>
        <time>2022-06-29T12:52:36.000Z</time>
      </trkpt>
      <trkpt lat="44.31589" lon="3.69568">
        <ele>942.59997558594</ele>
        <time>2022-06-29T12:52:37.000Z</time>
      </trkpt>
      <trkpt lat="44.31585" lon="3.69571">
        <ele>942</ele>
        <time>2022-06-29T12:52:41.000Z</time>
      </trkpt>
      <trkpt lat="44.31582" lon="3.69575">
        <ele>941.79998779297</ele>
        <time>2022-06-29T12:52:45.000Z</time>
      </trkpt>
      <trkpt lat="44.31581" lon="3.69576">
        <ele>941.59997558594</ele>
        <time>2022-06-29T12:52:46.000Z</time>
      </trkpt>
      <trkpt lat="44.3158" lon="3.69579">
        <ele>941.40002441406</ele>
        <time>2022-06-29T12:52:48.000Z</time>
      </trkpt>
      <trkpt lat="44.31578" lon="3.69582">
        <ele>941.20001220703</ele>
        <time>2022-06-29T12:52:51.000Z</time>
      </trkpt>
      <trkpt lat="44.31577" lon="3.69583">
        <ele>941.20001220703</ele>
        <time>2022-06-29T12:52:52.000Z</time>
      </trkpt>
      <trkpt lat="44.31572" lon="3.69589">
        <ele>940.59997558594</ele>
        <time>2022-06-29T12:52:58.000Z</time>
      </trkpt>
      <trkpt lat="44.31571" lon="3.6959">
        <ele>940.59997558594</ele>
        <time>2022-06-29T12:52:59.000Z</time>
      </trkpt>
      <trkpt lat="44.31571" lon="3.69591">
        <ele>940.40002441406</ele>
        <time>2022-06-29T12:53:00.000Z</time>
      </trkpt>
      <trkpt lat="44.31569" lon="3.69596">
        <ele>940</ele>
        <time>2022-06-29T12:53:04.000Z</time>
      </trkpt>
      <trkpt lat="44.31565" lon="3.69603">
        <ele>939.40002441406</ele>
        <time>2022-06-29T12:53:10.000Z</time>
      </trkpt>
      <trkpt lat="44.31562" lon="3.69611">
        <ele>938.59997558594</ele>
        <time>2022-06-29T12:53:16.000Z</time>
      </trkpt>
      <trkpt lat="44.31561" lon="3.69613">
        <ele>938.59997558594</ele>
        <time>2022-06-29T12:53:18.000Z</time>
      </trkpt>
      <trkpt lat="44.3156" lon="3.69616">
        <ele>938.40002441406</ele>
        <time>2022-06-29T12:53:21.000Z</time>
      </trkpt>
      <trkpt lat="44.31558" lon="3.69621">
        <ele>938</ele>
        <time>2022-06-29T12:53:25.000Z</time>
      </trkpt>
      <trkpt lat="44.31558" lon="3.69622">
        <ele>938</ele>
        <time>2022-06-29T12:53:27.000Z</time>
      </trkpt>
      <trkpt lat="44.31558" lon="3.69622">
        <ele>938</ele>
        <time>2022-06-29T12:53:28.000Z</time>
      </trkpt>
      <trkpt lat="44.31558" lon="3.69622">
        <ele>937.79998779297</ele>
        <time>2022-06-29T12:53:30.000Z</time>
      </trkpt>
      <trkpt lat="44.31557" lon="3.69622">
        <ele>937.59997558594</ele>
        <time>2022-06-29T12:53:36.000Z</time>
      </trkpt>
      <trkpt lat="44.31557" lon="3.69622">
        <ele>937.40002441406</ele>
        <time>2022-06-29T12:53:37.000Z</time>
      </trkpt>
      <trkpt lat="44.31556" lon="3.69617">
        <ele>937</ele>
        <time>2022-06-29T12:53:42.000Z</time>
      </trkpt>
      <trkpt lat="44.31556" lon="3.69612">
        <ele>936.40002441406</ele>
        <time>2022-06-29T12:53:46.000Z</time>
      </trkpt>
      <trkpt lat="44.31557" lon="3.69605">
        <ele>935.59997558594</ele>
        <time>2022-06-29T12:53:52.000Z</time>
      </trkpt>
      <trkpt lat="44.31556" lon="3.696">
        <ele>935.20001220703</ele>
        <time>2022-06-29T12:53:56.000Z</time>
      </trkpt>
      <trkpt lat="44.31556" lon="3.69599">
        <ele>935.20001220703</ele>
        <time>2022-06-29T12:53:58.000Z</time>
      </trkpt>
      <trkpt lat="44.31556" lon="3.69599">
        <ele>935.20001220703</ele>
        <time>2022-06-29T12:54:04.000Z</time>
      </trkpt>
      <trkpt lat="44.31556" lon="3.69599">
        <ele>934.59997558594</ele>
        <time>2022-06-29T12:54:10.000Z</time>
      </trkpt>
      <trkpt lat="44.31555" lon="3.69599">
        <ele>934.59997558594</ele>
        <time>2022-06-29T12:54:11.000Z</time>
      </trkpt>
      <trkpt lat="44.31555" lon="3.69598">
        <ele>934.40002441406</ele>
        <time>2022-06-29T12:54:13.000Z</time>
      </trkpt>
      <trkpt lat="44.31554" lon="3.69598">
        <ele>934.20001220703</ele>
        <time>2022-06-29T12:54:14.000Z</time>
      </trkpt>
      <trkpt lat="44.31552" lon="3.69598">
        <ele>933.20001220703</ele>
        <time>2022-06-29T12:54:18.000Z</time>
      </trkpt>
      <trkpt lat="44.31551" lon="3.69602">
        <ele>932.20001220703</ele>
        <time>2022-06-29T12:54:24.000Z</time>
      </trkpt>
      <trkpt lat="44.3155" lon="3.69603">
        <ele>932.20001220703</ele>
        <time>2022-06-29T12:54:26.000Z</time>
      </trkpt>
      <trkpt lat="44.3155" lon="3.69604">
        <ele>931.79998779297</ele>
        <time>2022-06-29T12:54:28.000Z</time>
      </trkpt>
      <trkpt lat="44.31547" lon="3.69607">
        <ele>931.40002441406</ele>
        <time>2022-06-29T12:54:34.000Z</time>
      </trkpt>
      <trkpt lat="44.31545" lon="3.69608">
        <ele>932.20001220703</ele>
        <time>2022-06-29T12:54:40.000Z</time>
      </trkpt>
      <trkpt lat="44.31545" lon="3.69607">
        <ele>932</ele>
        <time>2022-06-29T12:54:46.000Z</time>
      </trkpt>
      <trkpt lat="44.31546" lon="3.69607">
        <ele>931.59997558594</ele>
        <time>2022-06-29T12:54:52.000Z</time>
      </trkpt>
      <trkpt lat="44.3154" lon="3.69609">
        <ele>931.20001220703</ele>
        <time>2022-06-29T12:55:19.000Z</time>
      </trkpt>
      <trkpt lat="44.31544" lon="3.69609">
        <ele>931.20001220703</ele>
        <time>2022-06-29T12:55:22.000Z</time>
      </trkpt>
      <trkpt lat="44.31547" lon="3.69611">
        <ele>931.40002441406</ele>
        <time>2022-06-29T12:55:24.000Z</time>
      </trkpt>
      <trkpt lat="44.3155" lon="3.69609">
        <ele>931.40002441406</ele>
        <time>2022-06-29T12:55:30.000Z</time>
      </trkpt>
      <trkpt lat="44.31551" lon="3.69604">
        <ele>931.79998779297</ele>
        <time>2022-06-29T12:55:35.000Z</time>
      </trkpt>
      <trkpt lat="44.31551" lon="3.69598">
        <ele>932.40002441406</ele>
        <time>2022-06-29T12:55:41.000Z</time>
      </trkpt>
      <trkpt lat="44.31552" lon="3.69598">
        <ele>932.40002441406</ele>
        <time>2022-06-29T12:55:42.000Z</time>
      </trkpt>
      <trkpt lat="44.31553" lon="3.69598">
        <ele>932.40002441406</ele>
        <time>2022-06-29T12:55:48.000Z</time>
      </trkpt>
      <trkpt lat="44.31553" lon="3.69598">
        <ele>932.40002441406</ele>
        <time>2022-06-29T12:55:49.000Z</time>
      </trkpt>
      <trkpt lat="44.31553" lon="3.69598">
        <ele>932.40002441406</ele>
        <time>2022-06-29T12:55:50.000Z</time>
      </trkpt>
      <trkpt lat="44.31554" lon="3.696">
        <ele>932.40002441406</ele>
        <time>2022-06-29T12:55:55.000Z</time>
      </trkpt>
      <trkpt lat="44.31552" lon="3.69606">
        <ele>932.40002441406</ele>
        <time>2022-06-29T12:56:01.000Z</time>
      </trkpt>
      <trkpt lat="44.31552" lon="3.69606">
        <ele>932.40002441406</ele>
        <time>2022-06-29T12:56:02.000Z</time>
      </trkpt>
      <trkpt lat="44.31552" lon="3.69607">
        <ele>932.40002441406</ele>
        <time>2022-06-29T12:56:04.000Z</time>
      </trkpt>
      <trkpt lat="44.31551" lon="3.69607">
        <ele>932.40002441406</ele>
        <time>2022-06-29T12:56:07.000Z</time>
      </trkpt>
      <trkpt lat="44.31549" lon="3.69608">
        <ele>932.40002441406</ele>
        <time>2022-06-29T12:56:13.000Z</time>
      </trkpt>
      <trkpt lat="44.31549" lon="3.69609">
        <ele>932.40002441406</ele>
        <time>2022-06-29T12:56:15.000Z</time>
      </trkpt>
      <trkpt lat="44.31551" lon="3.69615">
        <ele>932.40002441406</ele>
        <time>2022-06-29T12:56:21.000Z</time>
      </trkpt>
      <trkpt lat="44.3155" lon="3.69616">
        <ele>932.40002441406</ele>
        <time>2022-06-29T12:56:25.000Z</time>
      </trkpt>
      <trkpt lat="44.31549" lon="3.69616">
        <ele>932.40002441406</ele>
        <time>2022-06-29T12:56:27.000Z</time>
      </trkpt>
      <trkpt lat="44.31548" lon="3.69615">
        <ele>932.40002441406</ele>
        <time>2022-06-29T12:56:32.000Z</time>
      </trkpt>
      <trkpt lat="44.31548" lon="3.69614">
        <ele>935</ele>
        <time>2022-06-29T12:56:37.000Z</time>
      </trkpt>
      <trkpt lat="44.31548" lon="3.69613">
        <ele>935.20001220703</ele>
        <time>2022-06-29T12:56:42.000Z</time>
      </trkpt>
      <trkpt lat="44.31547" lon="3.69613">
        <ele>935</ele>
        <time>2022-06-29T12:56:46.000Z</time>
      </trkpt>
      <trkpt lat="44.31546" lon="3.69613">
        <ele>935</ele>
        <time>2022-06-29T12:56:52.000Z</time>
      </trkpt>
      <trkpt lat="44.31546" lon="3.69612">
        <ele>934.79998779297</ele>
        <time>2022-06-29T12:56:58.000Z</time>
      </trkpt>
      <trkpt lat="44.31546" lon="3.69612">
        <ele>934.79998779297</ele>
        <time>2022-06-29T12:56:59.000Z</time>
      </trkpt>
      <trkpt lat="44.31546" lon="3.69612">
        <ele>935</ele>
        <time>2022-06-29T12:57:01.000Z</time>
      </trkpt>
      <trkpt lat="44.31547" lon="3.69612">
        <ele>935.20001220703</ele>
        <time>2022-06-29T12:57:05.000Z</time>
      </trkpt>
      <trkpt lat="44.31549" lon="3.69615">
        <ele>934.59997558594</ele>
        <time>2022-06-29T12:57:11.000Z</time>
      </trkpt>
      <trkpt lat="44.31552" lon="3.69612">
        <ele>934.40002441406</ele>
        <time>2022-06-29T12:57:17.000Z</time>
      </trkpt>
      <trkpt lat="44.31553" lon="3.6961">
        <ele>934.40002441406</ele>
        <time>2022-06-29T12:57:20.000Z</time>
      </trkpt>
      <trkpt lat="44.31552" lon="3.69608">
        <ele>934.20001220703</ele>
        <time>2022-06-29T12:57:21.000Z</time>
      </trkpt>
      <trkpt lat="44.31553" lon="3.69606">
        <ele>934</ele>
        <time>2022-06-29T12:57:24.000Z</time>
      </trkpt>
      <trkpt lat="44.31554" lon="3.69604">
        <ele>934</ele>
        <time>2022-06-29T12:57:30.000Z</time>
      </trkpt>
      <trkpt lat="44.31554" lon="3.69604">
        <ele>934</ele>
        <time>2022-06-29T12:57:32.000Z</time>
      </trkpt>
      <trkpt lat="44.31553" lon="3.69604">
        <ele>933.40002441406</ele>
        <time>2022-06-29T12:57:38.000Z</time>
      </trkpt>
      <trkpt lat="44.31553" lon="3.69604">
        <ele>933.40002441406</ele>
        <time>2022-06-29T12:57:44.000Z</time>
      </trkpt>
      <trkpt lat="44.31553" lon="3.69605">
        <ele>933.40002441406</ele>
        <time>2022-06-29T12:57:46.000Z</time>
      </trkpt>
      <trkpt lat="44.31553" lon="3.69605">
        <ele>933.40002441406</ele>
        <time>2022-06-29T12:57:50.000Z</time>
      </trkpt>
      <trkpt lat="44.31551" lon="3.69606">
        <ele>933.40002441406</ele>
        <time>2022-06-29T12:57:56.000Z</time>
      </trkpt>
      <trkpt lat="44.31551" lon="3.69606">
        <ele>933.59997558594</ele>
        <time>2022-06-29T12:58:00.000Z</time>
      </trkpt>
      <trkpt lat="44.31551" lon="3.69605">
        <ele>933.59997558594</ele>
        <time>2022-06-29T12:58:06.000Z</time>
      </trkpt>
      <trkpt lat="44.31552" lon="3.69604">
        <ele>933</ele>
        <time>2022-06-29T12:58:12.000Z</time>
      </trkpt>
      <trkpt lat="44.31552" lon="3.69604">
        <ele>932.79998779297</ele>
        <time>2022-06-29T12:58:13.000Z</time>
      </trkpt>
      <trkpt lat="44.31553" lon="3.69602">
        <ele>932.40002441406</ele>
        <time>2022-06-29T12:58:19.000Z</time>
      </trkpt>
      <trkpt lat="44.31555" lon="3.69599">
        <ele>932.40002441406</ele>
        <time>2022-06-29T12:58:24.000Z</time>
      </trkpt>
      <trkpt lat="44.31554" lon="3.69597">
        <ele>932</ele>
        <time>2022-06-29T12:58:29.000Z</time>
      </trkpt>
      <trkpt lat="44.31553" lon="3.69597">
        <ele>931.79998779297</ele>
        <time>2022-06-29T12:58:31.000Z</time>
      </trkpt>
      <trkpt lat="44.3155" lon="3.69597">
        <ele>931</ele>
        <time>2022-06-29T12:58:35.000Z</time>
      </trkpt>
      <trkpt lat="44.3155" lon="3.69597">
        <ele>930.79998779297</ele>
        <time>2022-06-29T12:58:36.000Z</time>
      </trkpt>
      <trkpt lat="44.31549" lon="3.69597">
        <ele>930.79998779297</ele>
        <time>2022-06-29T12:58:37.000Z</time>
      </trkpt>
      <trkpt lat="44.31548" lon="3.69597">
        <ele>930.79998779297</ele>
        <time>2022-06-29T12:58:42.000Z</time>
      </trkpt>
      <trkpt lat="44.31548" lon="3.69597">
        <ele>930.79998779297</ele>
        <time>2022-06-29T12:58:43.000Z</time>
      </trkpt>
      <trkpt lat="44.31548" lon="3.69599">
        <ele>930.79998779297</ele>
        <time>2022-06-29T12:58:46.000Z</time>
      </trkpt>
      <trkpt lat="44.31547" lon="3.69604">
        <ele>929.79998779297</ele>
        <time>2022-06-29T12:58:52.000Z</time>
      </trkpt>
      <trkpt lat="44.31546" lon="3.69605">
        <ele>929.79998779297</ele>
        <time>2022-06-29T12:58:53.000Z</time>
      </trkpt>
      <trkpt lat="44.31546" lon="3.69609">
        <ele>929.59997558594</ele>
        <time>2022-06-29T12:58:59.000Z</time>
      </trkpt>
      <trkpt lat="44.31546" lon="3.6961">
        <ele>929.79998779297</ele>
        <time>2022-06-29T12:59:00.000Z</time>
      </trkpt>
      <trkpt lat="44.31546" lon="3.6961">
        <ele>929.79998779297</ele>
        <time>2022-06-29T12:59:03.000Z</time>
      </trkpt>
      <trkpt lat="44.31546" lon="3.6961">
        <ele>929.79998779297</ele>
        <time>2022-06-29T12:59:05.000Z</time>
      </trkpt>
      <trkpt lat="44.31548" lon="3.69612">
        <ele>929.59997558594</ele>
        <time>2022-06-29T12:59:11.000Z</time>
      </trkpt>
      <trkpt lat="44.31547" lon="3.69613">
        <ele>929.59997558594</ele>
        <time>2022-06-29T12:59:13.000Z</time>
      </trkpt>
      <trkpt lat="44.31547" lon="3.69613">
        <ele>929.59997558594</ele>
        <time>2022-06-29T12:59:14.000Z</time>
      </trkpt>
      <trkpt lat="44.31548" lon="3.69608">
        <ele>929.40002441406</ele>
        <time>2022-06-29T12:59:20.000Z</time>
      </trkpt>
      <trkpt lat="44.31549" lon="3.69601">
        <ele>929.40002441406</ele>
        <time>2022-06-29T12:59:24.000Z</time>
      </trkpt>
      <trkpt lat="44.3155" lon="3.69602">
        <ele>930</ele>
        <time>2022-06-29T12:59:28.000Z</time>
      </trkpt>
      <trkpt lat="44.3155" lon="3.69603">
        <ele>929.79998779297</ele>
        <time>2022-06-29T12:59:31.000Z</time>
      </trkpt>
      <trkpt lat="44.31546" lon="3.69607">
        <ele>929.40002441406</ele>
        <time>2022-06-29T12:59:37.000Z</time>
      </trkpt>
      <trkpt lat="44.31544" lon="3.69609">
        <ele>929.20001220703</ele>
        <time>2022-06-29T12:59:41.000Z</time>
      </trkpt>
      <trkpt lat="44.31543" lon="3.69613">
        <ele>929</ele>
        <time>2022-06-29T12:59:46.000Z</time>
      </trkpt>
      <trkpt lat="44.31542" lon="3.69617">
        <ele>928.79998779297</ele>
        <time>2022-06-29T12:59:52.000Z</time>
      </trkpt>
      <trkpt lat="44.31542" lon="3.6962">
        <ele>928.79998779297</ele>
        <time>2022-06-29T12:59:58.000Z</time>
      </trkpt>
      <trkpt lat="44.31542" lon="3.69621">
        <ele>928.79998779297</ele>
        <time>2022-06-29T12:59:59.000Z</time>
      </trkpt>
      <trkpt lat="44.31544" lon="3.6962">
        <ele>928.79998779297</ele>
        <time>2022-06-29T13:00:02.000Z</time>
      </trkpt>
      <trkpt lat="44.31546" lon="3.69619">
        <ele>928.79998779297</ele>
        <time>2022-06-29T13:00:03.000Z</time>
      </trkpt>
      <trkpt lat="44.31546" lon="3.69619">
        <ele>928.59997558594</ele>
        <time>2022-06-29T13:00:04.000Z</time>
      </trkpt>
      <trkpt lat="44.31547" lon="3.6962">
        <ele>928.59997558594</ele>
        <time>2022-06-29T13:00:07.000Z</time>
      </trkpt>
      <trkpt lat="44.31546" lon="3.69623">
        <ele>928.40002441406</ele>
        <time>2022-06-29T13:00:13.000Z</time>
      </trkpt>
      <trkpt lat="44.31546" lon="3.69631">
        <ele>928.40002441406</ele>
        <time>2022-06-29T13:00:25.000Z</time>
      </trkpt>
      <trkpt lat="44.31544" lon="3.69625">
        <ele>928.79998779297</ele>
        <time>2022-06-29T13:00:29.000Z</time>
      </trkpt>
      <trkpt lat="44.31545" lon="3.69623">
        <ele>929.79998779297</ele>
        <time>2022-06-29T13:00:33.000Z</time>
      </trkpt>
      <trkpt lat="44.31545" lon="3.69624">
        <ele>930.20001220703</ele>
        <time>2022-06-29T13:00:35.000Z</time>
      </trkpt>
      <trkpt lat="44.31544" lon="3.69625">
        <ele>930.40002441406</ele>
        <time>2022-06-29T13:00:40.000Z</time>
      </trkpt>
      <trkpt lat="44.31544" lon="3.69624">
        <ele>930.40002441406</ele>
        <time>2022-06-29T13:00:42.000Z</time>
      </trkpt>
      <trkpt lat="44.31544" lon="3.69624">
        <ele>930.40002441406</ele>
        <time>2022-06-29T13:00:44.000Z</time>
      </trkpt>
      <trkpt lat="44.31543" lon="3.69624">
        <ele>930.59997558594</ele>
        <time>2022-06-29T13:00:45.000Z</time>
      </trkpt>
      <trkpt lat="44.31542" lon="3.69623">
        <ele>930.40002441406</ele>
        <time>2022-06-29T13:00:47.000Z</time>
      </trkpt>
      <trkpt lat="44.31541" lon="3.69624">
        <ele>930.40002441406</ele>
        <time>2022-06-29T13:00:48.000Z</time>
      </trkpt>
      <trkpt lat="44.31539" lon="3.69623">
        <ele>930.40002441406</ele>
        <time>2022-06-29T13:00:52.000Z</time>
      </trkpt>
      <trkpt lat="44.31547" lon="3.6962">
        <ele>931.79998779297</ele>
        <time>2022-06-29T13:02:13.000Z</time>
      </trkpt>
      <trkpt lat="44.31546" lon="3.69619">
        <ele>931.79998779297</ele>
        <time>2022-06-29T13:02:14.000Z</time>
      </trkpt>
      <trkpt lat="44.31546" lon="3.69618">
        <ele>932</ele>
        <time>2022-06-29T13:02:15.000Z</time>
      </trkpt>
      <trkpt lat="44.31546" lon="3.69617">
        <ele>932</ele>
        <time>2022-06-29T13:02:17.000Z</time>
      </trkpt>
      <trkpt lat="44.31546" lon="3.69614">
        <ele>931.79998779297</ele>
        <time>2022-06-29T13:02:19.000Z</time>
      </trkpt>
      <trkpt lat="44.3155" lon="3.6961">
        <ele>931.59997558594</ele>
        <time>2022-06-29T13:02:24.000Z</time>
      </trkpt>
    </trkseg>
  </trk>
</gpx>